<?xml version="1.0" encoding="UTF-8" standalone="no" ?>
<gpx xmlns="http://www.topografix.com/GPX/1/1" xmlns:xsi="http://www.w3.org/2001/XMLSchema-instance" xsi:schemaLocation="http://www.topografix.com/GPX/1/1 http://www.topografix.com/GPX/1/1/gpx.xsd" version="1.1" creator="VisuGPX - https://www.visugpx.com">
  <metadata>
    <name>RAF 2022 2500 k Partie 3 Provisoire </name>
  </metadata>
  <trk>
    <name><![CDATA[13913063-RAF 2022 / 2600  n3 News]]></name>
    <trkseg>
      <trkpt lat="46.99035" lon="3.16496">
        <ele>180</ele>
        <time>2021-12-27T14:05:48Z</time>
      </trkpt>
      <trkpt lat="46.99045" lon="3.16588">
        <ele>179</ele>
        <time>2021-12-27T14:05:59Z</time>
      </trkpt>
      <trkpt lat="46.99045" lon="3.16604">
        <ele>179</ele>
        <time>2021-12-27T14:06:01Z</time>
      </trkpt>
      <trkpt lat="46.99043" lon="3.16613">
        <ele>178</ele>
        <time>2021-12-27T14:06:02Z</time>
      </trkpt>
      <trkpt lat="46.99035" lon="3.16647">
        <ele>177</ele>
        <time>2021-12-27T14:06:07Z</time>
      </trkpt>
      <trkpt lat="46.99015" lon="3.16761">
        <ele>176</ele>
        <time>2021-12-27T14:06:21Z</time>
      </trkpt>
      <trkpt lat="46.99007" lon="3.16786">
        <ele>176</ele>
        <time>2021-12-27T14:06:24Z</time>
      </trkpt>
      <trkpt lat="46.98994" lon="3.16846">
        <ele>176</ele>
        <time>2021-12-27T14:06:32Z</time>
      </trkpt>
      <trkpt lat="46.98945" lon="3.16974">
        <ele>176</ele>
        <time>2021-12-27T14:06:50Z</time>
      </trkpt>
      <trkpt lat="46.98924" lon="3.17044">
        <ele>176</ele>
        <time>2021-12-27T14:06:59Z</time>
      </trkpt>
      <trkpt lat="46.98899" lon="3.17155">
        <ele>174</ele>
        <time>2021-12-27T14:07:13Z</time>
      </trkpt>
      <trkpt lat="46.98876" lon="3.17271">
        <ele>172</ele>
        <time>2021-12-27T14:07:28Z</time>
      </trkpt>
      <trkpt lat="46.9887" lon="3.1731">
        <ele>172</ele>
        <time>2021-12-27T14:07:33Z</time>
      </trkpt>
      <trkpt lat="46.9887" lon="3.17329">
        <ele>172</ele>
        <time>2021-12-27T14:07:35Z</time>
      </trkpt>
      <trkpt lat="46.98869" lon="3.17372">
        <ele>173</ele>
        <time>2021-12-27T14:07:40Z</time>
      </trkpt>
      <trkpt lat="46.98872" lon="3.17403">
        <ele>173</ele>
        <time>2021-12-27T14:07:44Z</time>
      </trkpt>
      <trkpt lat="46.98977" lon="3.17946">
        <ele>175</ele>
        <time>2021-12-27T14:08:53Z</time>
      </trkpt>
      <trkpt lat="46.98991" lon="3.18051">
        <ele>175</ele>
        <time>2021-12-27T14:09:06Z</time>
      </trkpt>
      <trkpt lat="46.98995" lon="3.18129">
        <ele>176</ele>
        <time>2021-12-27T14:09:15Z</time>
      </trkpt>
      <trkpt lat="46.98997" lon="3.18211">
        <ele>177</ele>
        <time>2021-12-27T14:09:25Z</time>
      </trkpt>
      <trkpt lat="46.98991" lon="3.18358">
        <ele>179</ele>
        <time>2021-12-27T14:09:43Z</time>
      </trkpt>
      <trkpt lat="46.98983" lon="3.18495">
        <ele>182</ele>
        <time>2021-12-27T14:10:00Z</time>
      </trkpt>
      <trkpt lat="46.98978" lon="3.18546">
        <ele>180</ele>
        <time>2021-12-27T14:10:06Z</time>
      </trkpt>
      <trkpt lat="46.98975" lon="3.18566">
        <ele>180</ele>
        <time>2021-12-27T14:10:08Z</time>
      </trkpt>
      <trkpt lat="46.98953" lon="3.1865">
        <ele>178</ele>
        <time>2021-12-27T14:10:19Z</time>
      </trkpt>
      <trkpt lat="46.98917" lon="3.18771">
        <ele>176</ele>
        <time>2021-12-27T14:10:35Z</time>
      </trkpt>
      <trkpt lat="46.98904" lon="3.18819">
        <ele>177</ele>
        <time>2021-12-27T14:10:42Z</time>
      </trkpt>
      <trkpt lat="46.98839" lon="3.19047">
        <ele>177</ele>
        <time>2021-12-27T14:11:12Z</time>
      </trkpt>
      <trkpt lat="46.98822" lon="3.19114">
        <ele>177</ele>
        <time>2021-12-27T14:11:20Z</time>
      </trkpt>
      <trkpt lat="46.9865" lon="3.19727">
        <ele>178</ele>
        <time>2021-12-27T14:12:41Z</time>
      </trkpt>
      <trkpt lat="46.98572" lon="3.2001">
        <ele>179</ele>
        <time>2021-12-27T14:13:18Z</time>
      </trkpt>
      <trkpt lat="46.98526" lon="3.20178">
        <ele>178</ele>
        <time>2021-12-27T14:13:40Z</time>
      </trkpt>
      <trkpt lat="46.98462" lon="3.20392">
        <ele>182</ele>
        <time>2021-12-27T14:14:08Z</time>
      </trkpt>
      <trkpt lat="46.98402" lon="3.20564">
        <ele>182</ele>
        <time>2021-12-27T14:14:32Z</time>
      </trkpt>
      <trkpt lat="46.98306" lon="3.20832">
        <ele>184</ele>
        <time>2021-12-27T14:15:08Z</time>
      </trkpt>
      <trkpt lat="46.98265" lon="3.20953">
        <ele>186</ele>
        <time>2021-12-27T14:15:25Z</time>
      </trkpt>
      <trkpt lat="46.98241" lon="3.21014">
        <ele>188</ele>
        <time>2021-12-27T14:15:33Z</time>
      </trkpt>
      <trkpt lat="46.98227" lon="3.21043">
        <ele>189</ele>
        <time>2021-12-27T14:15:38Z</time>
      </trkpt>
      <trkpt lat="46.98208" lon="3.21071">
        <ele>189</ele>
        <time>2021-12-27T14:15:42Z</time>
      </trkpt>
      <trkpt lat="46.98183" lon="3.21098">
        <ele>190</ele>
        <time>2021-12-27T14:15:48Z</time>
      </trkpt>
      <trkpt lat="46.98167" lon="3.21113">
        <ele>190</ele>
        <time>2021-12-27T14:15:51Z</time>
      </trkpt>
      <trkpt lat="46.98138" lon="3.21145">
        <ele>190</ele>
        <time>2021-12-27T14:15:58Z</time>
      </trkpt>
      <trkpt lat="46.98119" lon="3.21157">
        <ele>189</ele>
        <time>2021-12-27T14:16:01Z</time>
      </trkpt>
      <trkpt lat="46.98108" lon="3.21152">
        <ele>189</ele>
        <time>2021-12-27T14:16:03Z</time>
      </trkpt>
      <trkpt lat="46.98096" lon="3.21157">
        <ele>189</ele>
        <time>2021-12-27T14:16:06Z</time>
      </trkpt>
      <trkpt lat="46.98089" lon="3.21168">
        <ele>188</ele>
        <time>2021-12-27T14:16:08Z</time>
      </trkpt>
      <trkpt lat="46.98086" lon="3.21185">
        <ele>188</ele>
        <time>2021-12-27T14:16:10Z</time>
      </trkpt>
      <trkpt lat="46.98089" lon="3.21201">
        <ele>188</ele>
        <time>2021-12-27T14:16:12Z</time>
      </trkpt>
      <trkpt lat="46.98097" lon="3.21212">
        <ele>188</ele>
        <time>2021-12-27T14:16:14Z</time>
      </trkpt>
      <trkpt lat="46.98121" lon="3.2122">
        <ele>189</ele>
        <time>2021-12-27T14:16:18Z</time>
      </trkpt>
      <trkpt lat="46.98154" lon="3.21258">
        <ele>190</ele>
        <time>2021-12-27T14:16:25Z</time>
      </trkpt>
      <trkpt lat="46.98187" lon="3.21313">
        <ele>190</ele>
        <time>2021-12-27T14:16:34Z</time>
      </trkpt>
      <trkpt lat="46.98207" lon="3.21351">
        <ele>190</ele>
        <time>2021-12-27T14:16:40Z</time>
      </trkpt>
      <trkpt lat="46.9823" lon="3.21401">
        <ele>190</ele>
        <time>2021-12-27T14:16:47Z</time>
      </trkpt>
      <trkpt lat="46.98279" lon="3.21538">
        <ele>191</ele>
        <time>2021-12-27T14:17:06Z</time>
      </trkpt>
      <trkpt lat="46.983" lon="3.21602">
        <ele>191</ele>
        <time>2021-12-27T14:17:15Z</time>
      </trkpt>
      <trkpt lat="46.9831" lon="3.21649">
        <ele>191</ele>
        <time>2021-12-27T14:17:21Z</time>
      </trkpt>
      <trkpt lat="46.98317" lon="3.217">
        <ele>192</ele>
        <time>2021-12-27T14:17:27Z</time>
      </trkpt>
      <trkpt lat="46.98318" lon="3.21751">
        <ele>192</ele>
        <time>2021-12-27T14:17:33Z</time>
      </trkpt>
      <trkpt lat="46.98312" lon="3.21827">
        <ele>193</ele>
        <time>2021-12-27T14:17:43Z</time>
      </trkpt>
      <trkpt lat="46.98231" lon="3.22586">
        <ele>202</ele>
        <time>2021-12-27T14:19:16Z</time>
      </trkpt>
      <trkpt lat="46.98222" lon="3.22655">
        <ele>202</ele>
        <time>2021-12-27T14:19:24Z</time>
      </trkpt>
      <trkpt lat="46.98213" lon="3.22676">
        <ele>202</ele>
        <time>2021-12-27T14:19:27Z</time>
      </trkpt>
      <trkpt lat="46.98204" lon="3.22748">
        <ele>204</ele>
        <time>2021-12-27T14:19:36Z</time>
      </trkpt>
      <trkpt lat="46.98202" lon="3.22755">
        <ele>205</ele>
        <time>2021-12-27T14:19:37Z</time>
      </trkpt>
      <trkpt lat="46.9818" lon="3.22772">
        <ele>205</ele>
        <time>2021-12-27T14:19:42Z</time>
      </trkpt>
      <trkpt lat="46.98168" lon="3.22778">
        <ele>205</ele>
        <time>2021-12-27T14:19:44Z</time>
      </trkpt>
      <trkpt lat="46.98163" lon="3.22785">
        <ele>205</ele>
        <time>2021-12-27T14:19:45Z</time>
      </trkpt>
      <trkpt lat="46.98158" lon="3.22796">
        <ele>206</ele>
        <time>2021-12-27T14:19:47Z</time>
      </trkpt>
      <trkpt lat="46.98144" lon="3.22846">
        <ele>209</ele>
        <time>2021-12-27T14:19:53Z</time>
      </trkpt>
      <trkpt lat="46.98128" lon="3.22881">
        <ele>210</ele>
        <time>2021-12-27T14:19:58Z</time>
      </trkpt>
      <trkpt lat="46.98016" lon="3.23109">
        <ele>206</ele>
        <time>2021-12-27T14:20:33Z</time>
      </trkpt>
      <trkpt lat="46.98004" lon="3.23127">
        <ele>206</ele>
        <time>2021-12-27T14:20:36Z</time>
      </trkpt>
      <trkpt lat="46.9793" lon="3.2323">
        <ele>201</ele>
        <time>2021-12-27T14:20:54Z</time>
      </trkpt>
      <trkpt lat="46.97919" lon="3.23251">
        <ele>200</ele>
        <time>2021-12-27T14:20:57Z</time>
      </trkpt>
      <trkpt lat="46.97914" lon="3.23265">
        <ele>199</ele>
        <time>2021-12-27T14:20:59Z</time>
      </trkpt>
      <trkpt lat="46.97886" lon="3.23382">
        <ele>196</ele>
        <time>2021-12-27T14:21:14Z</time>
      </trkpt>
      <trkpt lat="46.97878" lon="3.23425">
        <ele>195</ele>
        <time>2021-12-27T14:21:19Z</time>
      </trkpt>
      <trkpt lat="46.97872" lon="3.23495">
        <ele>193</ele>
        <time>2021-12-27T14:21:28Z</time>
      </trkpt>
      <trkpt lat="46.97867" lon="3.23522">
        <ele>193</ele>
        <time>2021-12-27T14:21:31Z</time>
      </trkpt>
      <trkpt lat="46.97858" lon="3.23551">
        <ele>192</ele>
        <time>2021-12-27T14:21:35Z</time>
      </trkpt>
      <trkpt lat="46.9783" lon="3.2363">
        <ele>192</ele>
        <time>2021-12-27T14:21:46Z</time>
      </trkpt>
      <trkpt lat="46.97796" lon="3.23737">
        <ele>193</ele>
        <time>2021-12-27T14:22:00Z</time>
      </trkpt>
      <trkpt lat="46.97711" lon="3.24036">
        <ele>197</ele>
        <time>2021-12-27T14:22:40Z</time>
      </trkpt>
      <trkpt lat="46.9766" lon="3.24241">
        <ele>195</ele>
        <time>2021-12-27T14:23:06Z</time>
      </trkpt>
      <trkpt lat="46.97643" lon="3.24326">
        <ele>193</ele>
        <time>2021-12-27T14:23:17Z</time>
      </trkpt>
      <trkpt lat="46.97624" lon="3.24493">
        <ele>190</ele>
        <time>2021-12-27T14:23:37Z</time>
      </trkpt>
      <trkpt lat="46.97599" lon="3.24648">
        <ele>191</ele>
        <time>2021-12-27T14:23:57Z</time>
      </trkpt>
      <trkpt lat="46.97584" lon="3.24713">
        <ele>192</ele>
        <time>2021-12-27T14:24:05Z</time>
      </trkpt>
      <trkpt lat="46.97556" lon="3.24852">
        <ele>198</ele>
        <time>2021-12-27T14:24:23Z</time>
      </trkpt>
      <trkpt lat="46.97536" lon="3.24928">
        <ele>202</ele>
        <time>2021-12-27T14:24:33Z</time>
      </trkpt>
      <trkpt lat="46.97499" lon="3.25007">
        <ele>203</ele>
        <time>2021-12-27T14:24:44Z</time>
      </trkpt>
      <trkpt lat="46.97487" lon="3.25043">
        <ele>202</ele>
        <time>2021-12-27T14:24:49Z</time>
      </trkpt>
      <trkpt lat="46.97477" lon="3.25082">
        <ele>201</ele>
        <time>2021-12-27T14:24:54Z</time>
      </trkpt>
      <trkpt lat="46.97465" lon="3.25161">
        <ele>203</ele>
        <time>2021-12-27T14:25:04Z</time>
      </trkpt>
      <trkpt lat="46.97453" lon="3.25274">
        <ele>206</ele>
        <time>2021-12-27T14:25:18Z</time>
      </trkpt>
      <trkpt lat="46.97451" lon="3.25319">
        <ele>206</ele>
        <time>2021-12-27T14:25:23Z</time>
      </trkpt>
      <trkpt lat="46.97455" lon="3.25403">
        <ele>206</ele>
        <time>2021-12-27T14:25:34Z</time>
      </trkpt>
      <trkpt lat="46.97454" lon="3.25436">
        <ele>206</ele>
        <time>2021-12-27T14:25:38Z</time>
      </trkpt>
      <trkpt lat="46.97445" lon="3.25482">
        <ele>206</ele>
        <time>2021-12-27T14:25:43Z</time>
      </trkpt>
      <trkpt lat="46.97439" lon="3.25526">
        <ele>207</ele>
        <time>2021-12-27T14:25:49Z</time>
      </trkpt>
      <trkpt lat="46.97416" lon="3.25601">
        <ele>209</ele>
        <time>2021-12-27T14:25:59Z</time>
      </trkpt>
      <trkpt lat="46.97362" lon="3.25755">
        <ele>215</ele>
        <time>2021-12-27T14:26:20Z</time>
      </trkpt>
      <trkpt lat="46.97336" lon="3.25821">
        <ele>217</ele>
        <time>2021-12-27T14:26:29Z</time>
      </trkpt>
      <trkpt lat="46.97282" lon="3.25932">
        <ele>219</ele>
        <time>2021-12-27T14:26:46Z</time>
      </trkpt>
      <trkpt lat="46.97253" lon="3.26023">
        <ele>219</ele>
        <time>2021-12-27T14:26:58Z</time>
      </trkpt>
      <trkpt lat="46.97242" lon="3.26067">
        <ele>220</ele>
        <time>2021-12-27T14:27:04Z</time>
      </trkpt>
      <trkpt lat="46.97234" lon="3.26122">
        <ele>219</ele>
        <time>2021-12-27T14:27:10Z</time>
      </trkpt>
      <trkpt lat="46.97222" lon="3.2617">
        <ele>220</ele>
        <time>2021-12-27T14:27:17Z</time>
      </trkpt>
      <trkpt lat="46.97187" lon="3.26246">
        <ele>221</ele>
        <time>2021-12-27T14:27:28Z</time>
      </trkpt>
      <trkpt lat="46.97164" lon="3.26306">
        <ele>221</ele>
        <time>2021-12-27T14:27:36Z</time>
      </trkpt>
      <trkpt lat="46.97108" lon="3.26466">
        <ele>226</ele>
        <time>2021-12-27T14:27:58Z</time>
      </trkpt>
      <trkpt lat="46.97057" lon="3.26642">
        <ele>226</ele>
        <time>2021-12-27T14:28:21Z</time>
      </trkpt>
      <trkpt lat="46.9705" lon="3.2666">
        <ele>226</ele>
        <time>2021-12-27T14:28:24Z</time>
      </trkpt>
      <trkpt lat="46.97034" lon="3.26688">
        <ele>225</ele>
        <time>2021-12-27T14:28:28Z</time>
      </trkpt>
      <trkpt lat="46.97023" lon="3.26699">
        <ele>225</ele>
        <time>2021-12-27T14:28:30Z</time>
      </trkpt>
      <trkpt lat="46.96946" lon="3.26924">
        <ele>221</ele>
        <time>2021-12-27T14:29:01Z</time>
      </trkpt>
      <trkpt lat="46.96938" lon="3.26948">
        <ele>222</ele>
        <time>2021-12-27T14:29:04Z</time>
      </trkpt>
      <trkpt lat="46.96926" lon="3.27001">
        <ele>223</ele>
        <time>2021-12-27T14:29:11Z</time>
      </trkpt>
      <trkpt lat="46.96885" lon="3.27115">
        <ele>223</ele>
        <time>2021-12-27T14:29:27Z</time>
      </trkpt>
      <trkpt lat="46.9686" lon="3.2717">
        <ele>223</ele>
        <time>2021-12-27T14:29:35Z</time>
      </trkpt>
      <trkpt lat="46.96833" lon="3.27213">
        <ele>223</ele>
        <time>2021-12-27T14:29:42Z</time>
      </trkpt>
      <trkpt lat="46.96711" lon="3.27384">
        <ele>216</ele>
        <time>2021-12-27T14:30:12Z</time>
      </trkpt>
      <trkpt lat="46.967" lon="3.27407">
        <ele>215</ele>
        <time>2021-12-27T14:30:15Z</time>
      </trkpt>
      <trkpt lat="46.96692" lon="3.27437">
        <ele>215</ele>
        <time>2021-12-27T14:30:19Z</time>
      </trkpt>
      <trkpt lat="46.96692" lon="3.27474">
        <ele>215</ele>
        <time>2021-12-27T14:30:24Z</time>
      </trkpt>
      <trkpt lat="46.96689" lon="3.27513">
        <ele>215</ele>
        <time>2021-12-27T14:30:28Z</time>
      </trkpt>
      <trkpt lat="46.96679" lon="3.2754">
        <ele>216</ele>
        <time>2021-12-27T14:30:32Z</time>
      </trkpt>
      <trkpt lat="46.96665" lon="3.27565">
        <ele>216</ele>
        <time>2021-12-27T14:30:36Z</time>
      </trkpt>
      <trkpt lat="46.96645" lon="3.27578">
        <ele>215</ele>
        <time>2021-12-27T14:30:40Z</time>
      </trkpt>
      <trkpt lat="46.96613" lon="3.27588">
        <ele>213</ele>
        <time>2021-12-27T14:30:46Z</time>
      </trkpt>
      <trkpt lat="46.9658" lon="3.27616">
        <ele>212</ele>
        <time>2021-12-27T14:30:53Z</time>
      </trkpt>
      <trkpt lat="46.96558" lon="3.27638">
        <ele>212</ele>
        <time>2021-12-27T14:30:57Z</time>
      </trkpt>
      <trkpt lat="46.96545" lon="3.27656">
        <ele>211</ele>
        <time>2021-12-27T14:31:00Z</time>
      </trkpt>
      <trkpt lat="46.96522" lon="3.27703">
        <ele>211</ele>
        <time>2021-12-27T14:31:07Z</time>
      </trkpt>
      <trkpt lat="46.96515" lon="3.27713">
        <ele>211</ele>
        <time>2021-12-27T14:31:09Z</time>
      </trkpt>
      <trkpt lat="46.96496" lon="3.27726">
        <ele>210</ele>
        <time>2021-12-27T14:31:13Z</time>
      </trkpt>
      <trkpt lat="46.96466" lon="3.27735">
        <ele>210</ele>
        <time>2021-12-27T14:31:18Z</time>
      </trkpt>
      <trkpt lat="46.96441" lon="3.27747">
        <ele>211</ele>
        <time>2021-12-27T14:31:23Z</time>
      </trkpt>
      <trkpt lat="46.96426" lon="3.27763">
        <ele>212</ele>
        <time>2021-12-27T14:31:26Z</time>
      </trkpt>
      <trkpt lat="46.96414" lon="3.27789">
        <ele>214</ele>
        <time>2021-12-27T14:31:30Z</time>
      </trkpt>
      <trkpt lat="46.96409" lon="3.27818">
        <ele>216</ele>
        <time>2021-12-27T14:31:34Z</time>
      </trkpt>
      <trkpt lat="46.96409" lon="3.27882">
        <ele>217</ele>
        <time>2021-12-27T14:31:42Z</time>
      </trkpt>
      <trkpt lat="46.96417" lon="3.2795">
        <ele>219</ele>
        <time>2021-12-27T14:31:50Z</time>
      </trkpt>
      <trkpt lat="46.96498" lon="3.28315">
        <ele>229</ele>
        <time>2021-12-27T14:32:37Z</time>
      </trkpt>
      <trkpt lat="46.96501" lon="3.28345">
        <ele>231</ele>
        <time>2021-12-27T14:32:40Z</time>
      </trkpt>
      <trkpt lat="46.96498" lon="3.2838">
        <ele>236</ele>
        <time>2021-12-27T14:32:45Z</time>
      </trkpt>
      <trkpt lat="46.96492" lon="3.28411">
        <ele>240</ele>
        <time>2021-12-27T14:32:48Z</time>
      </trkpt>
      <trkpt lat="46.96484" lon="3.2844">
        <ele>242</ele>
        <time>2021-12-27T14:32:52Z</time>
      </trkpt>
      <trkpt lat="46.96467" lon="3.28469">
        <ele>244</ele>
        <time>2021-12-27T14:32:57Z</time>
      </trkpt>
      <trkpt lat="46.96449" lon="3.28493">
        <ele>245</ele>
        <time>2021-12-27T14:33:01Z</time>
      </trkpt>
      <trkpt lat="46.95912" lon="3.29057">
        <ele>218</ele>
        <time>2021-12-27T14:34:59Z</time>
      </trkpt>
      <trkpt lat="46.95883" lon="3.29081">
        <ele>218</ele>
        <time>2021-12-27T14:35:05Z</time>
      </trkpt>
      <trkpt lat="46.95864" lon="3.29091">
        <ele>219</ele>
        <time>2021-12-27T14:35:08Z</time>
      </trkpt>
      <trkpt lat="46.95837" lon="3.29099">
        <ele>220</ele>
        <time>2021-12-27T14:35:13Z</time>
      </trkpt>
      <trkpt lat="46.95678" lon="3.29113">
        <ele>230</ele>
        <time>2021-12-27T14:35:42Z</time>
      </trkpt>
      <trkpt lat="46.95661" lon="3.29118">
        <ele>231</ele>
        <time>2021-12-27T14:35:45Z</time>
      </trkpt>
      <trkpt lat="46.95639" lon="3.2913">
        <ele>233</ele>
        <time>2021-12-27T14:35:49Z</time>
      </trkpt>
      <trkpt lat="46.95554" lon="3.29185">
        <ele>241</ele>
        <time>2021-12-27T14:36:05Z</time>
      </trkpt>
      <trkpt lat="46.95545" lon="3.29188">
        <ele>242</ele>
        <time>2021-12-27T14:36:07Z</time>
      </trkpt>
      <trkpt lat="46.95538" lon="3.29188">
        <ele>243</ele>
        <time>2021-12-27T14:36:08Z</time>
      </trkpt>
      <trkpt lat="46.95433" lon="3.29159">
        <ele>246</ele>
        <time>2021-12-27T14:36:27Z</time>
      </trkpt>
      <trkpt lat="46.95406" lon="3.29159">
        <ele>247</ele>
        <time>2021-12-27T14:36:32Z</time>
      </trkpt>
      <trkpt lat="46.95383" lon="3.29166">
        <ele>249</ele>
        <time>2021-12-27T14:36:36Z</time>
      </trkpt>
      <trkpt lat="46.95364" lon="3.29184">
        <ele>250</ele>
        <time>2021-12-27T14:36:40Z</time>
      </trkpt>
      <trkpt lat="46.9504" lon="3.29623">
        <ele>225</ele>
        <time>2021-12-27T14:37:59Z</time>
      </trkpt>
      <trkpt lat="46.95016" lon="3.29658">
        <ele>221</ele>
        <time>2021-12-27T14:38:05Z</time>
      </trkpt>
      <trkpt lat="46.95001" lon="3.29687">
        <ele>218</ele>
        <time>2021-12-27T14:38:09Z</time>
      </trkpt>
      <trkpt lat="46.94988" lon="3.29721">
        <ele>217</ele>
        <time>2021-12-27T14:38:14Z</time>
      </trkpt>
      <trkpt lat="46.94977" lon="3.29768">
        <ele>215</ele>
        <time>2021-12-27T14:38:20Z</time>
      </trkpt>
      <trkpt lat="46.94974" lon="3.29795">
        <ele>215</ele>
        <time>2021-12-27T14:38:23Z</time>
      </trkpt>
      <trkpt lat="46.94949" lon="3.30175">
        <ele>202</ele>
        <time>2021-12-27T14:39:10Z</time>
      </trkpt>
      <trkpt lat="46.94949" lon="3.30198">
        <ele>200</ele>
        <time>2021-12-27T14:39:12Z</time>
      </trkpt>
      <trkpt lat="46.94952" lon="3.30226">
        <ele>198</ele>
        <time>2021-12-27T14:39:16Z</time>
      </trkpt>
      <trkpt lat="46.94976" lon="3.30349">
        <ele>189</ele>
        <time>2021-12-27T14:39:31Z</time>
      </trkpt>
      <trkpt lat="46.94976" lon="3.30388">
        <ele>190</ele>
        <time>2021-12-27T14:39:36Z</time>
      </trkpt>
      <trkpt lat="46.94962" lon="3.3047">
        <ele>193</ele>
        <time>2021-12-27T14:39:46Z</time>
      </trkpt>
      <trkpt lat="46.94956" lon="3.30495">
        <ele>194</ele>
        <time>2021-12-27T14:39:50Z</time>
      </trkpt>
      <trkpt lat="46.94948" lon="3.30511">
        <ele>194</ele>
        <time>2021-12-27T14:39:52Z</time>
      </trkpt>
      <trkpt lat="46.94934" lon="3.30527">
        <ele>194</ele>
        <time>2021-12-27T14:39:55Z</time>
      </trkpt>
      <trkpt lat="46.94873" lon="3.30581">
        <ele>193</ele>
        <time>2021-12-27T14:40:08Z</time>
      </trkpt>
      <trkpt lat="46.94839" lon="3.30636">
        <ele>192</ele>
        <time>2021-12-27T14:40:17Z</time>
      </trkpt>
      <trkpt lat="46.94825" lon="3.30682">
        <ele>193</ele>
        <time>2021-12-27T14:40:23Z</time>
      </trkpt>
      <trkpt lat="46.9482" lon="3.30761">
        <ele>194</ele>
        <time>2021-12-27T14:40:33Z</time>
      </trkpt>
      <trkpt lat="46.94827" lon="3.30874">
        <ele>193</ele>
        <time>2021-12-27T14:40:46Z</time>
      </trkpt>
      <trkpt lat="46.94836" lon="3.30947">
        <ele>193</ele>
        <time>2021-12-27T14:40:55Z</time>
      </trkpt>
      <trkpt lat="46.94836" lon="3.30988">
        <ele>193</ele>
        <time>2021-12-27T14:41:00Z</time>
      </trkpt>
      <trkpt lat="46.94744" lon="3.31113">
        <ele>192</ele>
        <time>2021-12-27T14:41:23Z</time>
      </trkpt>
      <trkpt lat="46.94705" lon="3.31161">
        <ele>191</ele>
        <time>2021-12-27T14:41:32Z</time>
      </trkpt>
      <trkpt lat="46.94694" lon="3.31175">
        <ele>190</ele>
        <time>2021-12-27T14:41:34Z</time>
      </trkpt>
      <trkpt lat="46.94674" lon="3.31201">
        <ele>189</ele>
        <time>2021-12-27T14:41:39Z</time>
      </trkpt>
      <trkpt lat="46.94665" lon="3.31227">
        <ele>189</ele>
        <time>2021-12-27T14:41:43Z</time>
      </trkpt>
      <trkpt lat="46.94659" lon="3.31267">
        <ele>189</ele>
        <time>2021-12-27T14:41:48Z</time>
      </trkpt>
      <trkpt lat="46.94612" lon="3.31821">
        <ele>195</ele>
        <time>2021-12-27T14:42:56Z</time>
      </trkpt>
      <trkpt lat="46.94564" lon="3.3235">
        <ele>202</ele>
        <time>2021-12-27T14:44:00Z</time>
      </trkpt>
      <trkpt lat="46.94564" lon="3.32394">
        <ele>203</ele>
        <time>2021-12-27T14:44:06Z</time>
      </trkpt>
      <trkpt lat="46.94571" lon="3.32423">
        <ele>204</ele>
        <time>2021-12-27T14:44:09Z</time>
      </trkpt>
      <trkpt lat="46.94581" lon="3.32451">
        <ele>204</ele>
        <time>2021-12-27T14:44:13Z</time>
      </trkpt>
      <trkpt lat="46.94643" lon="3.326">
        <ele>206</ele>
        <time>2021-12-27T14:44:34Z</time>
      </trkpt>
      <trkpt lat="46.94718" lon="3.32762">
        <ele>208</ele>
        <time>2021-12-27T14:44:58Z</time>
      </trkpt>
      <trkpt lat="46.94807" lon="3.32947">
        <ele>208</ele>
        <time>2021-12-27T14:45:26Z</time>
      </trkpt>
      <trkpt lat="46.94835" lon="3.33034">
        <ele>208</ele>
        <time>2021-12-27T14:45:37Z</time>
      </trkpt>
      <trkpt lat="46.94846" lon="3.33281">
        <ele>205</ele>
        <time>2021-12-27T14:46:07Z</time>
      </trkpt>
      <trkpt lat="46.94849" lon="3.33411">
        <ele>206</ele>
        <time>2021-12-27T14:46:23Z</time>
      </trkpt>
      <trkpt lat="46.94854" lon="3.33436">
        <ele>206</ele>
        <time>2021-12-27T14:46:26Z</time>
      </trkpt>
      <trkpt lat="46.94865" lon="3.33475">
        <ele>207</ele>
        <time>2021-12-27T14:46:32Z</time>
      </trkpt>
      <trkpt lat="46.94908" lon="3.33614">
        <ele>210</ele>
        <time>2021-12-27T14:46:50Z</time>
      </trkpt>
      <trkpt lat="46.94906" lon="3.33665">
        <ele>209</ele>
        <time>2021-12-27T14:46:56Z</time>
      </trkpt>
      <trkpt lat="46.949" lon="3.33769">
        <ele>208</ele>
        <time>2021-12-27T14:47:09Z</time>
      </trkpt>
      <trkpt lat="46.94901" lon="3.33796">
        <ele>208</ele>
        <time>2021-12-27T14:47:12Z</time>
      </trkpt>
      <trkpt lat="46.94912" lon="3.33849">
        <ele>209</ele>
        <time>2021-12-27T14:47:19Z</time>
      </trkpt>
      <trkpt lat="46.94925" lon="3.33895">
        <ele>207</ele>
        <time>2021-12-27T14:47:25Z</time>
      </trkpt>
      <trkpt lat="46.94931" lon="3.33928">
        <ele>207</ele>
        <time>2021-12-27T14:47:29Z</time>
      </trkpt>
      <trkpt lat="46.94927" lon="3.33973">
        <ele>206</ele>
        <time>2021-12-27T14:47:35Z</time>
      </trkpt>
      <trkpt lat="46.9492" lon="3.34007">
        <ele>205</ele>
        <time>2021-12-27T14:47:39Z</time>
      </trkpt>
      <trkpt lat="46.94911" lon="3.34041">
        <ele>205</ele>
        <time>2021-12-27T14:47:43Z</time>
      </trkpt>
      <trkpt lat="46.94865" lon="3.34369">
        <ele>209</ele>
        <time>2021-12-27T14:48:24Z</time>
      </trkpt>
      <trkpt lat="46.94818" lon="3.34815">
        <ele>217</ele>
        <time>2021-12-27T14:49:19Z</time>
      </trkpt>
      <trkpt lat="46.94765" lon="3.35298">
        <ele>221</ele>
        <time>2021-12-27T14:50:18Z</time>
      </trkpt>
      <trkpt lat="46.94718" lon="3.35592">
        <ele>221</ele>
        <time>2021-12-27T14:50:55Z</time>
      </trkpt>
      <trkpt lat="46.94712" lon="3.35615">
        <ele>220</ele>
        <time>2021-12-27T14:50:58Z</time>
      </trkpt>
      <trkpt lat="46.94687" lon="3.35685">
        <ele>219</ele>
        <time>2021-12-27T14:51:08Z</time>
      </trkpt>
      <trkpt lat="46.94608" lon="3.35878">
        <ele>221</ele>
        <time>2021-12-27T14:51:35Z</time>
      </trkpt>
      <trkpt lat="46.94588" lon="3.3593">
        <ele>222</ele>
        <time>2021-12-27T14:51:42Z</time>
      </trkpt>
      <trkpt lat="46.94556" lon="3.36029">
        <ele>227</ele>
        <time>2021-12-27T14:51:56Z</time>
      </trkpt>
      <trkpt lat="46.94288" lon="3.36931">
        <ele>259</ele>
        <time>2021-12-27T14:53:55Z</time>
      </trkpt>
      <trkpt lat="46.94278" lon="3.36958">
        <ele>260</ele>
        <time>2021-12-27T14:53:59Z</time>
      </trkpt>
      <trkpt lat="46.94264" lon="3.3698">
        <ele>261</ele>
        <time>2021-12-27T14:54:02Z</time>
      </trkpt>
      <trkpt lat="46.94212" lon="3.37054">
        <ele>263</ele>
        <time>2021-12-27T14:54:15Z</time>
      </trkpt>
      <trkpt lat="46.94205" lon="3.37068">
        <ele>262</ele>
        <time>2021-12-27T14:54:17Z</time>
      </trkpt>
      <trkpt lat="46.94194" lon="3.37097">
        <ele>263</ele>
        <time>2021-12-27T14:54:21Z</time>
      </trkpt>
      <trkpt lat="46.94187" lon="3.37124">
        <ele>263</ele>
        <time>2021-12-27T14:54:25Z</time>
      </trkpt>
      <trkpt lat="46.9418" lon="3.37193">
        <ele>263</ele>
        <time>2021-12-27T14:54:33Z</time>
      </trkpt>
      <trkpt lat="46.94168" lon="3.3725">
        <ele>264</ele>
        <time>2021-12-27T14:54:41Z</time>
      </trkpt>
      <trkpt lat="46.94095" lon="3.37375">
        <ele>273</ele>
        <time>2021-12-27T14:55:01Z</time>
      </trkpt>
      <trkpt lat="46.94027" lon="3.3747">
        <ele>276</ele>
        <time>2021-12-27T14:55:17Z</time>
      </trkpt>
      <trkpt lat="46.94004" lon="3.37498">
        <ele>275</ele>
        <time>2021-12-27T14:55:23Z</time>
      </trkpt>
      <trkpt lat="46.93953" lon="3.37548">
        <ele>278</ele>
        <time>2021-12-27T14:55:34Z</time>
      </trkpt>
      <trkpt lat="46.93902" lon="3.37632">
        <ele>274</ele>
        <time>2021-12-27T14:55:47Z</time>
      </trkpt>
      <trkpt lat="46.93877" lon="3.37678">
        <ele>272</ele>
        <time>2021-12-27T14:55:54Z</time>
      </trkpt>
      <trkpt lat="46.93849" lon="3.37735">
        <ele>271</ele>
        <time>2021-12-27T14:56:03Z</time>
      </trkpt>
      <trkpt lat="46.9379" lon="3.37861">
        <ele>272</ele>
        <time>2021-12-27T14:56:21Z</time>
      </trkpt>
      <trkpt lat="46.93745" lon="3.37966">
        <ele>272</ele>
        <time>2021-12-27T14:56:37Z</time>
      </trkpt>
      <trkpt lat="46.93734" lon="3.38">
        <ele>272</ele>
        <time>2021-12-27T14:56:41Z</time>
      </trkpt>
      <trkpt lat="46.93726" lon="3.38058">
        <ele>273</ele>
        <time>2021-12-27T14:56:48Z</time>
      </trkpt>
      <trkpt lat="46.93673" lon="3.3855">
        <ele>278</ele>
        <time>2021-12-27T14:57:49Z</time>
      </trkpt>
      <trkpt lat="46.93668" lon="3.38625">
        <ele>279</ele>
        <time>2021-12-27T14:57:58Z</time>
      </trkpt>
      <trkpt lat="46.93668" lon="3.38657">
        <ele>280</ele>
        <time>2021-12-27T14:58:02Z</time>
      </trkpt>
      <trkpt lat="46.93673" lon="3.38735">
        <ele>283</ele>
        <time>2021-12-27T14:58:11Z</time>
      </trkpt>
      <trkpt lat="46.93672" lon="3.38768">
        <ele>284</ele>
        <time>2021-12-27T14:58:15Z</time>
      </trkpt>
      <trkpt lat="46.93666" lon="3.38854">
        <ele>285</ele>
        <time>2021-12-27T14:58:26Z</time>
      </trkpt>
      <trkpt lat="46.93656" lon="3.39017">
        <ele>283</ele>
        <time>2021-12-27T14:58:46Z</time>
      </trkpt>
      <trkpt lat="46.93649" lon="3.39065">
        <ele>282</ele>
        <time>2021-12-27T14:58:52Z</time>
      </trkpt>
      <trkpt lat="46.93627" lon="3.39159">
        <ele>279</ele>
        <time>2021-12-27T14:59:04Z</time>
      </trkpt>
      <trkpt lat="46.93625" lon="3.39188">
        <ele>278</ele>
        <time>2021-12-27T14:59:07Z</time>
      </trkpt>
      <trkpt lat="46.93646" lon="3.39353">
        <ele>272</ele>
        <time>2021-12-27T14:59:28Z</time>
      </trkpt>
      <trkpt lat="46.93708" lon="3.39806">
        <ele>264</ele>
        <time>2021-12-27T15:00:24Z</time>
      </trkpt>
      <trkpt lat="46.9371" lon="3.3983">
        <ele>264</ele>
        <time>2021-12-27T15:00:27Z</time>
      </trkpt>
      <trkpt lat="46.93705" lon="3.39867">
        <ele>263</ele>
        <time>2021-12-27T15:00:31Z</time>
      </trkpt>
      <trkpt lat="46.93652" lon="3.40127">
        <ele>260</ele>
        <time>2021-12-27T15:01:04Z</time>
      </trkpt>
      <trkpt lat="46.93556" lon="3.40489">
        <ele>256</ele>
        <time>2021-12-27T15:01:52Z</time>
      </trkpt>
      <trkpt lat="46.93545" lon="3.40525">
        <ele>256</ele>
        <time>2021-12-27T15:01:56Z</time>
      </trkpt>
      <trkpt lat="46.93539" lon="3.40551">
        <ele>256</ele>
        <time>2021-12-27T15:02:00Z</time>
      </trkpt>
      <trkpt lat="46.9354" lon="3.40612">
        <ele>256</ele>
        <time>2021-12-27T15:02:07Z</time>
      </trkpt>
      <trkpt lat="46.93583" lon="3.41351">
        <ele>270</ele>
        <time>2021-12-27T15:03:37Z</time>
      </trkpt>
      <trkpt lat="46.93498" lon="3.41383">
        <ele>272</ele>
        <time>2021-12-27T15:03:53Z</time>
      </trkpt>
      <trkpt lat="46.93472" lon="3.414">
        <ele>274</ele>
        <time>2021-12-27T15:03:58Z</time>
      </trkpt>
      <trkpt lat="46.93454" lon="3.41423">
        <ele>276</ele>
        <time>2021-12-27T15:04:02Z</time>
      </trkpt>
      <trkpt lat="46.93438" lon="3.41448">
        <ele>277</ele>
        <time>2021-12-27T15:04:06Z</time>
      </trkpt>
      <trkpt lat="46.93253" lon="3.42056">
        <ele>277</ele>
        <time>2021-12-27T15:05:27Z</time>
      </trkpt>
      <trkpt lat="46.93137" lon="3.42421">
        <ele>275</ele>
        <time>2021-12-27T15:06:16Z</time>
      </trkpt>
      <trkpt lat="46.93105" lon="3.42475">
        <ele>275</ele>
        <time>2021-12-27T15:06:25Z</time>
      </trkpt>
      <trkpt lat="46.93074" lon="3.42512">
        <ele>276</ele>
        <time>2021-12-27T15:06:32Z</time>
      </trkpt>
      <trkpt lat="46.93058" lon="3.4252">
        <ele>277</ele>
        <time>2021-12-27T15:06:35Z</time>
      </trkpt>
      <trkpt lat="46.92988" lon="3.42543">
        <ele>281</ele>
        <time>2021-12-27T15:06:48Z</time>
      </trkpt>
      <trkpt lat="46.92765" lon="3.42602">
        <ele>283</ele>
        <time>2021-12-27T15:07:28Z</time>
      </trkpt>
      <trkpt lat="46.92715" lon="3.42611">
        <ele>283</ele>
        <time>2021-12-27T15:07:37Z</time>
      </trkpt>
      <trkpt lat="46.92697" lon="3.42611">
        <ele>284</ele>
        <time>2021-12-27T15:07:40Z</time>
      </trkpt>
      <trkpt lat="46.92669" lon="3.42608">
        <ele>284</ele>
        <time>2021-12-27T15:07:45Z</time>
      </trkpt>
      <trkpt lat="46.92617" lon="3.42592">
        <ele>285</ele>
        <time>2021-12-27T15:07:55Z</time>
      </trkpt>
      <trkpt lat="46.92593" lon="3.42579">
        <ele>286</ele>
        <time>2021-12-27T15:07:59Z</time>
      </trkpt>
      <trkpt lat="46.92302" lon="3.42393">
        <ele>279</ele>
        <time>2021-12-27T15:08:56Z</time>
      </trkpt>
      <trkpt lat="46.92054" lon="3.42224">
        <ele>292</ele>
        <time>2021-12-27T15:09:44Z</time>
      </trkpt>
      <trkpt lat="46.91971" lon="3.42176">
        <ele>294</ele>
        <time>2021-12-27T15:10:00Z</time>
      </trkpt>
      <trkpt lat="46.91578" lon="3.42011">
        <ele>295</ele>
        <time>2021-12-27T15:11:13Z</time>
      </trkpt>
      <trkpt lat="46.91489" lon="3.41971">
        <ele>293</ele>
        <time>2021-12-27T15:11:29Z</time>
      </trkpt>
      <trkpt lat="46.91254" lon="3.4187">
        <ele>290</ele>
        <time>2021-12-27T15:12:13Z</time>
      </trkpt>
      <trkpt lat="46.91223" lon="3.41861">
        <ele>290</ele>
        <time>2021-12-27T15:12:19Z</time>
      </trkpt>
      <trkpt lat="46.91198" lon="3.41861">
        <ele>290</ele>
        <time>2021-12-27T15:12:23Z</time>
      </trkpt>
      <trkpt lat="46.91183" lon="3.41869">
        <ele>291</ele>
        <time>2021-12-27T15:12:26Z</time>
      </trkpt>
      <trkpt lat="46.9116" lon="3.41888">
        <ele>291</ele>
        <time>2021-12-27T15:12:31Z</time>
      </trkpt>
      <trkpt lat="46.91144" lon="3.41911">
        <ele>290</ele>
        <time>2021-12-27T15:12:35Z</time>
      </trkpt>
      <trkpt lat="46.91117" lon="3.41963">
        <ele>290</ele>
        <time>2021-12-27T15:12:43Z</time>
      </trkpt>
      <trkpt lat="46.90958" lon="3.42302">
        <ele>287</ele>
        <time>2021-12-27T15:13:33Z</time>
      </trkpt>
      <trkpt lat="46.90866" lon="3.42503">
        <ele>288</ele>
        <time>2021-12-27T15:14:02Z</time>
      </trkpt>
      <trkpt lat="46.90508" lon="3.42981">
        <ele>274</ele>
        <time>2021-12-27T15:15:28Z</time>
      </trkpt>
      <trkpt lat="46.90262" lon="3.43303">
        <ele>267</ele>
        <time>2021-12-27T15:16:27Z</time>
      </trkpt>
      <trkpt lat="46.90169" lon="3.4343">
        <ele>264</ele>
        <time>2021-12-27T15:16:50Z</time>
      </trkpt>
      <trkpt lat="46.89902" lon="3.43861">
        <ele>264</ele>
        <time>2021-12-27T15:18:00Z</time>
      </trkpt>
      <trkpt lat="46.89774" lon="3.44079">
        <ele>268</ele>
        <time>2021-12-27T15:18:35Z</time>
      </trkpt>
      <trkpt lat="46.89499" lon="3.44519">
        <ele>253</ele>
        <time>2021-12-27T15:19:48Z</time>
      </trkpt>
      <trkpt lat="46.89485" lon="3.44565">
        <ele>251</ele>
        <time>2021-12-27T15:19:54Z</time>
      </trkpt>
      <trkpt lat="46.89479" lon="3.44607">
        <ele>248</ele>
        <time>2021-12-27T15:19:59Z</time>
      </trkpt>
      <trkpt lat="46.89478" lon="3.44641">
        <ele>245</ele>
        <time>2021-12-27T15:20:03Z</time>
      </trkpt>
      <trkpt lat="46.89479" lon="3.44668">
        <ele>242</ele>
        <time>2021-12-27T15:20:07Z</time>
      </trkpt>
      <trkpt lat="46.89509" lon="3.44881">
        <ele>235</ele>
        <time>2021-12-27T15:20:33Z</time>
      </trkpt>
      <trkpt lat="46.89513" lon="3.44926">
        <ele>232</ele>
        <time>2021-12-27T15:20:38Z</time>
      </trkpt>
      <trkpt lat="46.89509" lon="3.44956">
        <ele>229</ele>
        <time>2021-12-27T15:20:42Z</time>
      </trkpt>
      <trkpt lat="46.89501" lon="3.44988">
        <ele>225</ele>
        <time>2021-12-27T15:20:46Z</time>
      </trkpt>
      <trkpt lat="46.89489" lon="3.45018">
        <ele>223</ele>
        <time>2021-12-27T15:20:51Z</time>
      </trkpt>
      <trkpt lat="46.89482" lon="3.45029">
        <ele>223</ele>
        <time>2021-12-27T15:20:52Z</time>
      </trkpt>
      <trkpt lat="46.89469" lon="3.45044">
        <ele>222</ele>
        <time>2021-12-27T15:20:55Z</time>
      </trkpt>
      <trkpt lat="46.89262" lon="3.45196">
        <ele>214</ele>
        <time>2021-12-27T15:21:37Z</time>
      </trkpt>
      <trkpt lat="46.89243" lon="3.45223">
        <ele>216</ele>
        <time>2021-12-27T15:21:41Z</time>
      </trkpt>
      <trkpt lat="46.89238" lon="3.45237">
        <ele>217</ele>
        <time>2021-12-27T15:21:43Z</time>
      </trkpt>
      <trkpt lat="46.89236" lon="3.45299">
        <ele>220</ele>
        <time>2021-12-27T15:21:51Z</time>
      </trkpt>
      <trkpt lat="46.89232" lon="3.45323">
        <ele>221</ele>
        <time>2021-12-27T15:21:54Z</time>
      </trkpt>
      <trkpt lat="46.89228" lon="3.45336">
        <ele>222</ele>
        <time>2021-12-27T15:21:55Z</time>
      </trkpt>
      <trkpt lat="46.89196" lon="3.45393">
        <ele>227</ele>
        <time>2021-12-27T15:22:04Z</time>
      </trkpt>
      <trkpt lat="46.89186" lon="3.4543">
        <ele>228</ele>
        <time>2021-12-27T15:22:09Z</time>
      </trkpt>
      <trkpt lat="46.89177" lon="3.45535">
        <ele>232</ele>
        <time>2021-12-27T15:22:22Z</time>
      </trkpt>
      <trkpt lat="46.89167" lon="3.45692">
        <ele>236</ele>
        <time>2021-12-27T15:22:41Z</time>
      </trkpt>
      <trkpt lat="46.89143" lon="3.45846">
        <ele>243</ele>
        <time>2021-12-27T15:23:01Z</time>
      </trkpt>
      <trkpt lat="46.89129" lon="3.45922">
        <ele>248</ele>
        <time>2021-12-27T15:23:10Z</time>
      </trkpt>
      <trkpt lat="46.89122" lon="3.45949">
        <ele>249</ele>
        <time>2021-12-27T15:23:14Z</time>
      </trkpt>
      <trkpt lat="46.89094" lon="3.46025">
        <ele>253</ele>
        <time>2021-12-27T15:23:24Z</time>
      </trkpt>
      <trkpt lat="46.88958" lon="3.46336">
        <ele>268</ele>
        <time>2021-12-27T15:24:09Z</time>
      </trkpt>
      <trkpt lat="46.88901" lon="3.46473">
        <ele>272</ele>
        <time>2021-12-27T15:24:28Z</time>
      </trkpt>
      <trkpt lat="46.88851" lon="3.46447">
        <ele>273</ele>
        <time>2021-12-27T15:24:38Z</time>
      </trkpt>
      <trkpt lat="46.8882" lon="3.46435">
        <ele>273</ele>
        <time>2021-12-27T15:24:44Z</time>
      </trkpt>
      <trkpt lat="46.88757" lon="3.46418">
        <ele>273</ele>
        <time>2021-12-27T15:24:55Z</time>
      </trkpt>
      <trkpt lat="46.88637" lon="3.46388">
        <ele>269</ele>
        <time>2021-12-27T15:25:17Z</time>
      </trkpt>
      <trkpt lat="46.88574" lon="3.46375">
        <ele>267</ele>
        <time>2021-12-27T15:25:28Z</time>
      </trkpt>
      <trkpt lat="46.88451" lon="3.46358">
        <ele>263</ele>
        <time>2021-12-27T15:25:50Z</time>
      </trkpt>
      <trkpt lat="46.88414" lon="3.46357">
        <ele>260</ele>
        <time>2021-12-27T15:25:57Z</time>
      </trkpt>
      <trkpt lat="46.88356" lon="3.46372">
        <ele>259</ele>
        <time>2021-12-27T15:26:07Z</time>
      </trkpt>
      <trkpt lat="46.88276" lon="3.46402">
        <ele>261</ele>
        <time>2021-12-27T15:26:22Z</time>
      </trkpt>
      <trkpt lat="46.88223" lon="3.46427">
        <ele>263</ele>
        <time>2021-12-27T15:26:32Z</time>
      </trkpt>
      <trkpt lat="46.88204" lon="3.46432">
        <ele>263</ele>
        <time>2021-12-27T15:26:35Z</time>
      </trkpt>
      <trkpt lat="46.88168" lon="3.46437">
        <ele>264</ele>
        <time>2021-12-27T15:26:42Z</time>
      </trkpt>
      <trkpt lat="46.88163" lon="3.46441">
        <ele>265</ele>
        <time>2021-12-27T15:26:43Z</time>
      </trkpt>
      <trkpt lat="46.8815" lon="3.46438">
        <ele>265</ele>
        <time>2021-12-27T15:26:45Z</time>
      </trkpt>
      <trkpt lat="46.88044" lon="3.46397">
        <ele>265</ele>
        <time>2021-12-27T15:27:04Z</time>
      </trkpt>
      <trkpt lat="46.87951" lon="3.46365">
        <ele>264</ele>
        <time>2021-12-27T15:27:21Z</time>
      </trkpt>
      <trkpt lat="46.87918" lon="3.46352">
        <ele>263</ele>
        <time>2021-12-27T15:27:27Z</time>
      </trkpt>
      <trkpt lat="46.87856" lon="3.4632">
        <ele>262</ele>
        <time>2021-12-27T15:27:39Z</time>
      </trkpt>
      <trkpt lat="46.87519" lon="3.46094">
        <ele>258</ele>
        <time>2021-12-27T15:28:45Z</time>
      </trkpt>
      <trkpt lat="46.87498" lon="3.46083">
        <ele>257</ele>
        <time>2021-12-27T15:28:49Z</time>
      </trkpt>
      <trkpt lat="46.87461" lon="3.46069">
        <ele>257</ele>
        <time>2021-12-27T15:28:56Z</time>
      </trkpt>
      <trkpt lat="46.87158" lon="3.46007">
        <ele>263</ele>
        <time>2021-12-27T15:29:50Z</time>
      </trkpt>
      <trkpt lat="46.87023" lon="3.45969">
        <ele>267</ele>
        <time>2021-12-27T15:30:15Z</time>
      </trkpt>
      <trkpt lat="46.86924" lon="3.45926">
        <ele>266</ele>
        <time>2021-12-27T15:30:33Z</time>
      </trkpt>
      <trkpt lat="46.86868" lon="3.45915">
        <ele>264</ele>
        <time>2021-12-27T15:30:43Z</time>
      </trkpt>
      <trkpt lat="46.8666" lon="3.45897">
        <ele>255</ele>
        <time>2021-12-27T15:31:20Z</time>
      </trkpt>
      <trkpt lat="46.86625" lon="3.45897">
        <ele>255</ele>
        <time>2021-12-27T15:31:27Z</time>
      </trkpt>
      <trkpt lat="46.86386" lon="3.45916">
        <ele>251</ele>
        <time>2021-12-27T15:32:09Z</time>
      </trkpt>
      <trkpt lat="46.85987" lon="3.45891">
        <ele>227</ele>
        <time>2021-12-27T15:33:20Z</time>
      </trkpt>
      <trkpt lat="46.85954" lon="3.45879">
        <ele>228</ele>
        <time>2021-12-27T15:33:26Z</time>
      </trkpt>
      <trkpt lat="46.85936" lon="3.45867">
        <ele>229</ele>
        <time>2021-12-27T15:33:30Z</time>
      </trkpt>
      <trkpt lat="46.85712" lon="3.45666">
        <ele>243</ele>
        <time>2021-12-27T15:34:17Z</time>
      </trkpt>
      <trkpt lat="46.85673" lon="3.45636">
        <ele>244</ele>
        <time>2021-12-27T15:34:24Z</time>
      </trkpt>
      <trkpt lat="46.85652" lon="3.45625">
        <ele>243</ele>
        <time>2021-12-27T15:34:28Z</time>
      </trkpt>
      <trkpt lat="46.85617" lon="3.45614">
        <ele>243</ele>
        <time>2021-12-27T15:34:35Z</time>
      </trkpt>
      <trkpt lat="46.8556" lon="3.45611">
        <ele>242</ele>
        <time>2021-12-27T15:34:45Z</time>
      </trkpt>
      <trkpt lat="46.8553" lon="3.45615">
        <ele>241</ele>
        <time>2021-12-27T15:34:50Z</time>
      </trkpt>
      <trkpt lat="46.85192" lon="3.45718">
        <ele>239</ele>
        <time>2021-12-27T15:35:52Z</time>
      </trkpt>
      <trkpt lat="46.84919" lon="3.45806">
        <ele>241</ele>
        <time>2021-12-27T15:36:41Z</time>
      </trkpt>
      <trkpt lat="46.84905" lon="3.45808">
        <ele>241</ele>
        <time>2021-12-27T15:36:44Z</time>
      </trkpt>
      <trkpt lat="46.84893" lon="3.45809">
        <ele>241</ele>
        <time>2021-12-27T15:36:46Z</time>
      </trkpt>
      <trkpt lat="46.84863" lon="3.45804">
        <ele>241</ele>
        <time>2021-12-27T15:36:51Z</time>
      </trkpt>
      <trkpt lat="46.84817" lon="3.45788">
        <ele>239</ele>
        <time>2021-12-27T15:37:00Z</time>
      </trkpt>
      <trkpt lat="46.84749" lon="3.45752">
        <ele>236</ele>
        <time>2021-12-27T15:37:13Z</time>
      </trkpt>
      <trkpt lat="46.84755" lon="3.45836">
        <ele>238</ele>
        <time>2021-12-27T15:37:23Z</time>
      </trkpt>
      <trkpt lat="46.8475" lon="3.45855">
        <ele>237</ele>
        <time>2021-12-27T15:37:25Z</time>
      </trkpt>
      <trkpt lat="46.84729" lon="3.45882">
        <ele>236</ele>
        <time>2021-12-27T15:37:30Z</time>
      </trkpt>
      <trkpt lat="46.8468" lon="3.45934">
        <ele>233</ele>
        <time>2021-12-27T15:37:41Z</time>
      </trkpt>
      <trkpt lat="46.84652" lon="3.45953">
        <ele>232</ele>
        <time>2021-12-27T15:37:47Z</time>
      </trkpt>
      <trkpt lat="46.84579" lon="3.45985">
        <ele>228</ele>
        <time>2021-12-27T15:38:00Z</time>
      </trkpt>
      <trkpt lat="46.84538" lon="3.46011">
        <ele>226</ele>
        <time>2021-12-27T15:38:08Z</time>
      </trkpt>
      <trkpt lat="46.84503" lon="3.46021">
        <ele>224</ele>
        <time>2021-12-27T15:38:15Z</time>
      </trkpt>
      <trkpt lat="46.84445" lon="3.46056">
        <ele>222</ele>
        <time>2021-12-27T15:38:26Z</time>
      </trkpt>
      <trkpt lat="46.84415" lon="3.46078">
        <ele>221</ele>
        <time>2021-12-27T15:38:32Z</time>
      </trkpt>
      <trkpt lat="46.84398" lon="3.46094">
        <ele>220</ele>
        <time>2021-12-27T15:38:35Z</time>
      </trkpt>
      <trkpt lat="46.8439" lon="3.46109">
        <ele>220</ele>
        <time>2021-12-27T15:38:38Z</time>
      </trkpt>
      <trkpt lat="46.8438" lon="3.46131">
        <ele>220</ele>
        <time>2021-12-27T15:38:41Z</time>
      </trkpt>
      <trkpt lat="46.84367" lon="3.46146">
        <ele>219</ele>
        <time>2021-12-27T15:38:44Z</time>
      </trkpt>
      <trkpt lat="46.84304" lon="3.46191">
        <ele>216</ele>
        <time>2021-12-27T15:38:56Z</time>
      </trkpt>
      <trkpt lat="46.84286" lon="3.46199">
        <ele>215</ele>
        <time>2021-12-27T15:39:00Z</time>
      </trkpt>
      <trkpt lat="46.84269" lon="3.462">
        <ele>214</ele>
        <time>2021-12-27T15:39:03Z</time>
      </trkpt>
      <trkpt lat="46.84215" lon="3.46196">
        <ele>210</ele>
        <time>2021-12-27T15:39:12Z</time>
      </trkpt>
      <trkpt lat="46.8421" lon="3.46191">
        <ele>210</ele>
        <time>2021-12-27T15:39:13Z</time>
      </trkpt>
      <trkpt lat="46.842" lon="3.46172">
        <ele>209</ele>
        <time>2021-12-27T15:39:16Z</time>
      </trkpt>
      <trkpt lat="46.84189" lon="3.46157">
        <ele>208</ele>
        <time>2021-12-27T15:39:19Z</time>
      </trkpt>
      <trkpt lat="46.84128" lon="3.46176">
        <ele>204</ele>
        <time>2021-12-27T15:39:30Z</time>
      </trkpt>
      <trkpt lat="46.84075" lon="3.46201">
        <ele>203</ele>
        <time>2021-12-27T15:39:40Z</time>
      </trkpt>
      <trkpt lat="46.8396" lon="3.46264">
        <ele>214</ele>
        <time>2021-12-27T15:40:02Z</time>
      </trkpt>
      <trkpt lat="46.83922" lon="3.46288">
        <ele>218</ele>
        <time>2021-12-27T15:40:09Z</time>
      </trkpt>
      <trkpt lat="46.83878" lon="3.46318">
        <ele>217</ele>
        <time>2021-12-27T15:40:18Z</time>
      </trkpt>
      <trkpt lat="46.83772" lon="3.46517">
        <ele>202</ele>
        <time>2021-12-27T15:40:48Z</time>
      </trkpt>
      <trkpt lat="46.83759" lon="3.46534">
        <ele>200</ele>
        <time>2021-12-27T15:40:52Z</time>
      </trkpt>
      <trkpt lat="46.83688" lon="3.46566">
        <ele>193</ele>
        <time>2021-12-27T15:41:05Z</time>
      </trkpt>
      <trkpt lat="46.83678" lon="3.46566">
        <ele>192</ele>
        <time>2021-12-27T15:41:07Z</time>
      </trkpt>
      <trkpt lat="46.8367" lon="3.46593">
        <ele>191</ele>
        <time>2021-12-27T15:41:10Z</time>
      </trkpt>
      <trkpt lat="46.83662" lon="3.4661">
        <ele>191</ele>
        <time>2021-12-27T15:41:13Z</time>
      </trkpt>
      <trkpt lat="46.83654" lon="3.46617">
        <ele>191</ele>
        <time>2021-12-27T15:41:14Z</time>
      </trkpt>
      <trkpt lat="46.83652" lon="3.46622">
        <ele>191</ele>
        <time>2021-12-27T15:41:15Z</time>
      </trkpt>
      <trkpt lat="46.83632" lon="3.46643">
        <ele>191</ele>
        <time>2021-12-27T15:41:19Z</time>
      </trkpt>
      <trkpt lat="46.83609" lon="3.46652">
        <ele>191</ele>
        <time>2021-12-27T15:41:24Z</time>
      </trkpt>
      <trkpt lat="46.83576" lon="3.46662">
        <ele>191</ele>
        <time>2021-12-27T15:41:30Z</time>
      </trkpt>
      <trkpt lat="46.83553" lon="3.46667">
        <ele>191</ele>
        <time>2021-12-27T15:41:34Z</time>
      </trkpt>
      <trkpt lat="46.83534" lon="3.46668">
        <ele>192</ele>
        <time>2021-12-27T15:41:37Z</time>
      </trkpt>
      <trkpt lat="46.83503" lon="3.46662">
        <ele>192</ele>
        <time>2021-12-27T15:41:43Z</time>
      </trkpt>
      <trkpt lat="46.83488" lon="3.46655">
        <ele>192</ele>
        <time>2021-12-27T15:41:45Z</time>
      </trkpt>
      <trkpt lat="46.8346" lon="3.46635">
        <ele>191</ele>
        <time>2021-12-27T15:41:51Z</time>
      </trkpt>
      <trkpt lat="46.83386" lon="3.4657">
        <ele>189</ele>
        <time>2021-12-27T15:42:06Z</time>
      </trkpt>
      <trkpt lat="46.83374" lon="3.4656">
        <ele>189</ele>
        <time>2021-12-27T15:42:09Z</time>
      </trkpt>
      <trkpt lat="46.83338" lon="3.46536">
        <ele>190</ele>
        <time>2021-12-27T15:42:16Z</time>
      </trkpt>
      <trkpt lat="46.83307" lon="3.46527">
        <ele>190</ele>
        <time>2021-12-27T15:42:22Z</time>
      </trkpt>
      <trkpt lat="46.83276" lon="3.46527">
        <ele>191</ele>
        <time>2021-12-27T15:42:27Z</time>
      </trkpt>
      <trkpt lat="46.83214" lon="3.46546">
        <ele>191</ele>
        <time>2021-12-27T15:42:38Z</time>
      </trkpt>
      <trkpt lat="46.83138" lon="3.46571">
        <ele>191</ele>
        <time>2021-12-27T15:42:52Z</time>
      </trkpt>
      <trkpt lat="46.83116" lon="3.46585">
        <ele>191</ele>
        <time>2021-12-27T15:42:56Z</time>
      </trkpt>
      <trkpt lat="46.83097" lon="3.46603">
        <ele>191</ele>
        <time>2021-12-27T15:43:00Z</time>
      </trkpt>
      <trkpt lat="46.83039" lon="3.46667">
        <ele>191</ele>
        <time>2021-12-27T15:43:13Z</time>
      </trkpt>
      <trkpt lat="46.83059" lon="3.46717">
        <ele>192</ele>
        <time>2021-12-27T15:43:20Z</time>
      </trkpt>
      <trkpt lat="46.83063" lon="3.4674">
        <ele>193</ele>
        <time>2021-12-27T15:43:23Z</time>
      </trkpt>
      <trkpt lat="46.83064" lon="3.46758">
        <ele>193</ele>
        <time>2021-12-27T15:43:26Z</time>
      </trkpt>
      <trkpt lat="46.83063" lon="3.46771">
        <ele>193</ele>
        <time>2021-12-27T15:43:27Z</time>
      </trkpt>
      <trkpt lat="46.83052" lon="3.46822">
        <ele>193</ele>
        <time>2021-12-27T15:43:34Z</time>
      </trkpt>
      <trkpt lat="46.83053" lon="3.4684">
        <ele>193</ele>
        <time>2021-12-27T15:43:36Z</time>
      </trkpt>
      <trkpt lat="46.83057" lon="3.46852">
        <ele>193</ele>
        <time>2021-12-27T15:43:37Z</time>
      </trkpt>
      <trkpt lat="46.8307" lon="3.46874">
        <ele>193</ele>
        <time>2021-12-27T15:43:41Z</time>
      </trkpt>
      <trkpt lat="46.83084" lon="3.46893">
        <ele>193</ele>
        <time>2021-12-27T15:43:44Z</time>
      </trkpt>
      <trkpt lat="46.83094" lon="3.46902">
        <ele>193</ele>
        <time>2021-12-27T15:43:46Z</time>
      </trkpt>
      <trkpt lat="46.83127" lon="3.46911">
        <ele>191</ele>
        <time>2021-12-27T15:43:52Z</time>
      </trkpt>
      <trkpt lat="46.83155" lon="3.46915">
        <ele>190</ele>
        <time>2021-12-27T15:43:57Z</time>
      </trkpt>
      <trkpt lat="46.83162" lon="3.46914">
        <ele>190</ele>
        <time>2021-12-27T15:43:59Z</time>
      </trkpt>
      <trkpt lat="46.83172" lon="3.46906">
        <ele>190</ele>
        <time>2021-12-27T15:44:01Z</time>
      </trkpt>
      <trkpt lat="46.83177" lon="3.46899">
        <ele>190</ele>
        <time>2021-12-27T15:44:02Z</time>
      </trkpt>
      <trkpt lat="46.83237" lon="3.46773">
        <ele>190</ele>
        <time>2021-12-27T15:44:21Z</time>
      </trkpt>
      <trkpt lat="46.83255" lon="3.46739">
        <ele>190</ele>
        <time>2021-12-27T15:44:26Z</time>
      </trkpt>
      <trkpt lat="46.83302" lon="3.46687">
        <ele>188</ele>
        <time>2021-12-27T15:44:36Z</time>
      </trkpt>
      <trkpt lat="46.8333" lon="3.46654">
        <ele>188</ele>
        <time>2021-12-27T15:44:43Z</time>
      </trkpt>
      <trkpt lat="46.83337" lon="3.46644">
        <ele>188</ele>
        <time>2021-12-27T15:44:45Z</time>
      </trkpt>
      <trkpt lat="46.83346" lon="3.46619">
        <ele>189</ele>
        <time>2021-12-27T15:44:48Z</time>
      </trkpt>
      <trkpt lat="46.83346" lon="3.46553">
        <ele>190</ele>
        <time>2021-12-27T15:44:56Z</time>
      </trkpt>
      <trkpt lat="46.83339" lon="3.46536">
        <ele>190</ele>
        <time>2021-12-27T15:44:58Z</time>
      </trkpt>
      <trkpt lat="46.83307" lon="3.46527">
        <ele>190</ele>
        <time>2021-12-27T15:45:04Z</time>
      </trkpt>
      <trkpt lat="46.83276" lon="3.46527">
        <ele>191</ele>
        <time>2021-12-27T15:45:10Z</time>
      </trkpt>
      <trkpt lat="46.83138" lon="3.46571">
        <ele>191</ele>
        <time>2021-12-27T15:45:35Z</time>
      </trkpt>
      <trkpt lat="46.83116" lon="3.46585">
        <ele>191</ele>
        <time>2021-12-27T15:45:39Z</time>
      </trkpt>
      <trkpt lat="46.83097" lon="3.46603">
        <ele>191</ele>
        <time>2021-12-27T15:45:43Z</time>
      </trkpt>
      <trkpt lat="46.83039" lon="3.46667">
        <ele>191</ele>
        <time>2021-12-27T15:45:56Z</time>
      </trkpt>
      <trkpt lat="46.82921" lon="3.46412">
        <ele>195</ele>
        <time>2021-12-27T15:46:34Z</time>
      </trkpt>
      <trkpt lat="46.82921" lon="3.46406">
        <ele>195</ele>
        <time>2021-12-27T15:46:34Z</time>
      </trkpt>
      <trkpt lat="46.82926" lon="3.46397">
        <ele>195</ele>
        <time>2021-12-27T15:46:36Z</time>
      </trkpt>
      <trkpt lat="46.82957" lon="3.46368">
        <ele>194</ele>
        <time>2021-12-27T15:46:42Z</time>
      </trkpt>
      <trkpt lat="46.82972" lon="3.46347">
        <ele>194</ele>
        <time>2021-12-27T15:46:46Z</time>
      </trkpt>
      <trkpt lat="46.82983" lon="3.46327">
        <ele>194</ele>
        <time>2021-12-27T15:46:49Z</time>
      </trkpt>
      <trkpt lat="46.83002" lon="3.46303">
        <ele>193</ele>
        <time>2021-12-27T15:46:54Z</time>
      </trkpt>
      <trkpt lat="46.83006" lon="3.46302">
        <ele>193</ele>
        <time>2021-12-27T15:46:54Z</time>
      </trkpt>
      <trkpt lat="46.83009" lon="3.46294">
        <ele>193</ele>
        <time>2021-12-27T15:46:55Z</time>
      </trkpt>
      <trkpt lat="46.83007" lon="3.46285">
        <ele>193</ele>
        <time>2021-12-27T15:46:57Z</time>
      </trkpt>
      <trkpt lat="46.83005" lon="3.46251">
        <ele>194</ele>
        <time>2021-12-27T15:47:01Z</time>
      </trkpt>
      <trkpt lat="46.83034" lon="3.46162">
        <ele>193</ele>
        <time>2021-12-27T15:47:13Z</time>
      </trkpt>
      <trkpt lat="46.83036" lon="3.46149">
        <ele>193</ele>
        <time>2021-12-27T15:47:14Z</time>
      </trkpt>
      <trkpt lat="46.83027" lon="3.46014">
        <ele>194</ele>
        <time>2021-12-27T15:47:31Z</time>
      </trkpt>
      <trkpt lat="46.83023" lon="3.45994">
        <ele>194</ele>
        <time>2021-12-27T15:47:33Z</time>
      </trkpt>
      <trkpt lat="46.83009" lon="3.4594">
        <ele>193</ele>
        <time>2021-12-27T15:47:40Z</time>
      </trkpt>
      <trkpt lat="46.83" lon="3.45919">
        <ele>193</ele>
        <time>2021-12-27T15:47:43Z</time>
      </trkpt>
      <trkpt lat="46.82979" lon="3.4589">
        <ele>192</ele>
        <time>2021-12-27T15:47:49Z</time>
      </trkpt>
      <trkpt lat="46.82959" lon="3.45871">
        <ele>192</ele>
        <time>2021-12-27T15:47:53Z</time>
      </trkpt>
      <trkpt lat="46.82941" lon="3.4586">
        <ele>192</ele>
        <time>2021-12-27T15:47:56Z</time>
      </trkpt>
      <trkpt lat="46.82922" lon="3.45851">
        <ele>192</ele>
        <time>2021-12-27T15:48:00Z</time>
      </trkpt>
      <trkpt lat="46.82908" lon="3.4585">
        <ele>192</ele>
        <time>2021-12-27T15:48:02Z</time>
      </trkpt>
      <trkpt lat="46.82897" lon="3.45851">
        <ele>192</ele>
        <time>2021-12-27T15:48:04Z</time>
      </trkpt>
      <trkpt lat="46.82851" lon="3.45867">
        <ele>193</ele>
        <time>2021-12-27T15:48:13Z</time>
      </trkpt>
      <trkpt lat="46.82831" lon="3.45875">
        <ele>193</ele>
        <time>2021-12-27T15:48:16Z</time>
      </trkpt>
      <trkpt lat="46.82817" lon="3.45876">
        <ele>193</ele>
        <time>2021-12-27T15:48:19Z</time>
      </trkpt>
      <trkpt lat="46.82814" lon="3.45874">
        <ele>192</ele>
        <time>2021-12-27T15:48:19Z</time>
      </trkpt>
      <trkpt lat="46.82809" lon="3.45863">
        <ele>192</ele>
        <time>2021-12-27T15:48:21Z</time>
      </trkpt>
      <trkpt lat="46.82773" lon="3.45704">
        <ele>192</ele>
        <time>2021-12-27T15:48:41Z</time>
      </trkpt>
      <trkpt lat="46.8272" lon="3.45543">
        <ele>191</ele>
        <time>2021-12-27T15:49:03Z</time>
      </trkpt>
      <trkpt lat="46.82709" lon="3.4555">
        <ele>191</ele>
        <time>2021-12-27T15:49:05Z</time>
      </trkpt>
      <trkpt lat="46.82702" lon="3.45547">
        <ele>191</ele>
        <time>2021-12-27T15:49:07Z</time>
      </trkpt>
      <trkpt lat="46.82676" lon="3.45516">
        <ele>191</ele>
        <time>2021-12-27T15:49:13Z</time>
      </trkpt>
      <trkpt lat="46.8265" lon="3.45479">
        <ele>191</ele>
        <time>2021-12-27T15:49:19Z</time>
      </trkpt>
      <trkpt lat="46.82616" lon="3.45438">
        <ele>191</ele>
        <time>2021-12-27T15:49:27Z</time>
      </trkpt>
      <trkpt lat="46.82597" lon="3.4542">
        <ele>192</ele>
        <time>2021-12-27T15:49:31Z</time>
      </trkpt>
      <trkpt lat="46.82518" lon="3.45363">
        <ele>192</ele>
        <time>2021-12-27T15:49:47Z</time>
      </trkpt>
      <trkpt lat="46.82476" lon="3.45326">
        <ele>192</ele>
        <time>2021-12-27T15:49:55Z</time>
      </trkpt>
      <trkpt lat="46.82459" lon="3.45305">
        <ele>192</ele>
        <time>2021-12-27T15:49:59Z</time>
      </trkpt>
      <trkpt lat="46.82444" lon="3.45283">
        <ele>192</ele>
        <time>2021-12-27T15:50:03Z</time>
      </trkpt>
      <trkpt lat="46.82441" lon="3.45276">
        <ele>193</ele>
        <time>2021-12-27T15:50:04Z</time>
      </trkpt>
      <trkpt lat="46.82439" lon="3.45268">
        <ele>193</ele>
        <time>2021-12-27T15:50:05Z</time>
      </trkpt>
      <trkpt lat="46.8191" lon="3.45094">
        <ele>192</ele>
        <time>2021-12-27T15:51:42Z</time>
      </trkpt>
      <trkpt lat="46.81894" lon="3.45088">
        <ele>192</ele>
        <time>2021-12-27T15:51:45Z</time>
      </trkpt>
      <trkpt lat="46.81803" lon="3.4506">
        <ele>193</ele>
        <time>2021-12-27T15:52:01Z</time>
      </trkpt>
      <trkpt lat="46.81808" lon="3.45098">
        <ele>192</ele>
        <time>2021-12-27T15:52:06Z</time>
      </trkpt>
      <trkpt lat="46.81809" lon="3.4513">
        <ele>192</ele>
        <time>2021-12-27T15:52:10Z</time>
      </trkpt>
      <trkpt lat="46.81774" lon="3.45419">
        <ele>195</ele>
        <time>2021-12-27T15:52:45Z</time>
      </trkpt>
      <trkpt lat="46.81757" lon="3.45544">
        <ele>196</ele>
        <time>2021-12-27T15:53:01Z</time>
      </trkpt>
      <trkpt lat="46.81742" lon="3.45605">
        <ele>196</ele>
        <time>2021-12-27T15:53:09Z</time>
      </trkpt>
      <trkpt lat="46.81726" lon="3.45642">
        <ele>197</ele>
        <time>2021-12-27T15:53:14Z</time>
      </trkpt>
      <trkpt lat="46.81684" lon="3.45703">
        <ele>197</ele>
        <time>2021-12-27T15:53:25Z</time>
      </trkpt>
      <trkpt lat="46.8166" lon="3.45745">
        <ele>197</ele>
        <time>2021-12-27T15:53:31Z</time>
      </trkpt>
      <trkpt lat="46.8162" lon="3.45832">
        <ele>198</ele>
        <time>2021-12-27T15:53:44Z</time>
      </trkpt>
      <trkpt lat="46.816" lon="3.45868">
        <ele>197</ele>
        <time>2021-12-27T15:53:50Z</time>
      </trkpt>
      <trkpt lat="46.81543" lon="3.45947">
        <ele>198</ele>
        <time>2021-12-27T15:54:04Z</time>
      </trkpt>
      <trkpt lat="46.81512" lon="3.45999">
        <ele>200</ele>
        <time>2021-12-27T15:54:12Z</time>
      </trkpt>
      <trkpt lat="46.81469" lon="3.46119">
        <ele>199</ele>
        <time>2021-12-27T15:54:29Z</time>
      </trkpt>
      <trkpt lat="46.81443" lon="3.46198">
        <ele>199</ele>
        <time>2021-12-27T15:54:39Z</time>
      </trkpt>
      <trkpt lat="46.81425" lon="3.46263">
        <ele>199</ele>
        <time>2021-12-27T15:54:48Z</time>
      </trkpt>
      <trkpt lat="46.81405" lon="3.46321">
        <ele>199</ele>
        <time>2021-12-27T15:54:56Z</time>
      </trkpt>
      <trkpt lat="46.80644" lon="3.481">
        <ele>200</ele>
        <time>2021-12-27T15:59:11Z</time>
      </trkpt>
      <trkpt lat="46.80604" lon="3.48178">
        <ele>200</ele>
        <time>2021-12-27T15:59:23Z</time>
      </trkpt>
      <trkpt lat="46.80331" lon="3.48657">
        <ele>201</ele>
        <time>2021-12-27T16:00:39Z</time>
      </trkpt>
      <trkpt lat="46.80049" lon="3.49145">
        <ele>198</ele>
        <time>2021-12-27T16:01:57Z</time>
      </trkpt>
      <trkpt lat="46.8004" lon="3.49164">
        <ele>198</ele>
        <time>2021-12-27T16:02:00Z</time>
      </trkpt>
      <trkpt lat="46.80034" lon="3.49189">
        <ele>197</ele>
        <time>2021-12-27T16:02:03Z</time>
      </trkpt>
      <trkpt lat="46.80027" lon="3.49242">
        <ele>194</ele>
        <time>2021-12-27T16:02:09Z</time>
      </trkpt>
      <trkpt lat="46.80022" lon="3.49283">
        <ele>194</ele>
        <time>2021-12-27T16:02:14Z</time>
      </trkpt>
      <trkpt lat="46.80011" lon="3.49352">
        <ele>193</ele>
        <time>2021-12-27T16:02:23Z</time>
      </trkpt>
      <trkpt lat="46.79999" lon="3.494">
        <ele>192</ele>
        <time>2021-12-27T16:02:29Z</time>
      </trkpt>
      <trkpt lat="46.79985" lon="3.49439">
        <ele>191</ele>
        <time>2021-12-27T16:02:35Z</time>
      </trkpt>
      <trkpt lat="46.79915" lon="3.49606">
        <ele>192</ele>
        <time>2021-12-27T16:02:59Z</time>
      </trkpt>
      <trkpt lat="46.79871" lon="3.49703">
        <ele>192</ele>
        <time>2021-12-27T16:03:13Z</time>
      </trkpt>
      <trkpt lat="46.79746" lon="3.49963">
        <ele>193</ele>
        <time>2021-12-27T16:03:51Z</time>
      </trkpt>
      <trkpt lat="46.79744" lon="3.49967">
        <ele>193</ele>
        <time>2021-12-27T16:03:52Z</time>
      </trkpt>
      <trkpt lat="46.79197" lon="3.51109">
        <ele>193</ele>
        <time>2021-12-27T16:06:42Z</time>
      </trkpt>
      <trkpt lat="46.79178" lon="3.51139">
        <ele>193</ele>
        <time>2021-12-27T16:06:47Z</time>
      </trkpt>
      <trkpt lat="46.7915" lon="3.51177">
        <ele>193</ele>
        <time>2021-12-27T16:06:54Z</time>
      </trkpt>
      <trkpt lat="46.79114" lon="3.51213">
        <ele>193</ele>
        <time>2021-12-27T16:07:01Z</time>
      </trkpt>
      <trkpt lat="46.79091" lon="3.51241">
        <ele>192</ele>
        <time>2021-12-27T16:07:07Z</time>
      </trkpt>
      <trkpt lat="46.79031" lon="3.51334">
        <ele>193</ele>
        <time>2021-12-27T16:07:22Z</time>
      </trkpt>
      <trkpt lat="46.7899" lon="3.51413">
        <ele>193</ele>
        <time>2021-12-27T16:07:34Z</time>
      </trkpt>
      <trkpt lat="46.78953" lon="3.51494">
        <ele>192</ele>
        <time>2021-12-27T16:07:46Z</time>
      </trkpt>
      <trkpt lat="46.78748" lon="3.52038">
        <ele>192</ele>
        <time>2021-12-27T16:09:02Z</time>
      </trkpt>
      <trkpt lat="46.78739" lon="3.5208">
        <ele>191</ele>
        <time>2021-12-27T16:09:07Z</time>
      </trkpt>
      <trkpt lat="46.78735" lon="3.52121">
        <ele>192</ele>
        <time>2021-12-27T16:09:12Z</time>
      </trkpt>
      <trkpt lat="46.78736" lon="3.52206">
        <ele>193</ele>
        <time>2021-12-27T16:09:23Z</time>
      </trkpt>
      <trkpt lat="46.78733" lon="3.52257">
        <ele>193</ele>
        <time>2021-12-27T16:09:29Z</time>
      </trkpt>
      <trkpt lat="46.78721" lon="3.52313">
        <ele>193</ele>
        <time>2021-12-27T16:09:36Z</time>
      </trkpt>
      <trkpt lat="46.78607" lon="3.52745">
        <ele>193</ele>
        <time>2021-12-27T16:10:32Z</time>
      </trkpt>
      <trkpt lat="46.78583" lon="3.52824">
        <ele>192</ele>
        <time>2021-12-27T16:10:43Z</time>
      </trkpt>
      <trkpt lat="46.78557" lon="3.52889">
        <ele>192</ele>
        <time>2021-12-27T16:10:52Z</time>
      </trkpt>
      <trkpt lat="46.77669" lon="3.54482">
        <ele>194</ele>
        <time>2021-12-27T16:15:02Z</time>
      </trkpt>
      <trkpt lat="46.77589" lon="3.54632">
        <ele>195</ele>
        <time>2021-12-27T16:15:26Z</time>
      </trkpt>
      <trkpt lat="46.77519" lon="3.54743">
        <ele>193</ele>
        <time>2021-12-27T16:15:44Z</time>
      </trkpt>
      <trkpt lat="46.77221" lon="3.55087">
        <ele>194</ele>
        <time>2021-12-27T16:16:52Z</time>
      </trkpt>
      <trkpt lat="46.76236" lon="3.56211">
        <ele>195</ele>
        <time>2021-12-27T16:20:34Z</time>
      </trkpt>
      <trkpt lat="46.75487" lon="3.57062">
        <ele>200</ele>
        <time>2021-12-27T16:23:23Z</time>
      </trkpt>
      <trkpt lat="46.75401" lon="3.57169">
        <ele>199</ele>
        <time>2021-12-27T16:23:43Z</time>
      </trkpt>
      <trkpt lat="46.74361" lon="3.59065">
        <ele>199</ele>
        <time>2021-12-27T16:28:39Z</time>
      </trkpt>
      <trkpt lat="46.74021" lon="3.59689">
        <ele>198</ele>
        <time>2021-12-27T16:30:16Z</time>
      </trkpt>
      <trkpt lat="46.739" lon="3.59904">
        <ele>200</ele>
        <time>2021-12-27T16:30:50Z</time>
      </trkpt>
      <trkpt lat="46.73725" lon="3.60229">
        <ele>199</ele>
        <time>2021-12-27T16:31:41Z</time>
      </trkpt>
      <trkpt lat="46.73555" lon="3.6054">
        <ele>199</ele>
        <time>2021-12-27T16:32:29Z</time>
      </trkpt>
      <trkpt lat="46.73363" lon="3.60886">
        <ele>200</ele>
        <time>2021-12-27T16:33:23Z</time>
      </trkpt>
      <trkpt lat="46.73308" lon="3.60984">
        <ele>200</ele>
        <time>2021-12-27T16:33:39Z</time>
      </trkpt>
      <trkpt lat="46.73282" lon="3.61019">
        <ele>200</ele>
        <time>2021-12-27T16:33:45Z</time>
      </trkpt>
      <trkpt lat="46.73212" lon="3.61092">
        <ele>201</ele>
        <time>2021-12-27T16:34:00Z</time>
      </trkpt>
      <trkpt lat="46.73202" lon="3.61117">
        <ele>201</ele>
        <time>2021-12-27T16:34:04Z</time>
      </trkpt>
      <trkpt lat="46.73187" lon="3.61195">
        <ele>201</ele>
        <time>2021-12-27T16:34:14Z</time>
      </trkpt>
      <trkpt lat="46.73175" lon="3.61235">
        <ele>201</ele>
        <time>2021-12-27T16:34:19Z</time>
      </trkpt>
      <trkpt lat="46.73151" lon="3.61282">
        <ele>201</ele>
        <time>2021-12-27T16:34:26Z</time>
      </trkpt>
      <trkpt lat="46.73128" lon="3.61328">
        <ele>200</ele>
        <time>2021-12-27T16:34:33Z</time>
      </trkpt>
      <trkpt lat="46.73129" lon="3.61383">
        <ele>200</ele>
        <time>2021-12-27T16:34:40Z</time>
      </trkpt>
      <trkpt lat="46.73111" lon="3.6157">
        <ele>200</ele>
        <time>2021-12-27T16:35:03Z</time>
      </trkpt>
      <trkpt lat="46.73108" lon="3.61666">
        <ele>199</ele>
        <time>2021-12-27T16:35:15Z</time>
      </trkpt>
      <trkpt lat="46.73115" lon="3.61772">
        <ele>199</ele>
        <time>2021-12-27T16:35:28Z</time>
      </trkpt>
      <trkpt lat="46.73123" lon="3.61849">
        <ele>199</ele>
        <time>2021-12-27T16:35:37Z</time>
      </trkpt>
      <trkpt lat="46.73141" lon="3.61932">
        <ele>200</ele>
        <time>2021-12-27T16:35:48Z</time>
      </trkpt>
      <trkpt lat="46.73167" lon="3.6203">
        <ele>199</ele>
        <time>2021-12-27T16:36:01Z</time>
      </trkpt>
      <trkpt lat="46.73163" lon="3.62055">
        <ele>199</ele>
        <time>2021-12-27T16:36:04Z</time>
      </trkpt>
      <trkpt lat="46.73139" lon="3.62128">
        <ele>198</ele>
        <time>2021-12-27T16:36:14Z</time>
      </trkpt>
      <trkpt lat="46.73102" lon="3.62219">
        <ele>200</ele>
        <time>2021-12-27T16:36:27Z</time>
      </trkpt>
      <trkpt lat="46.73072" lon="3.62262">
        <ele>200</ele>
        <time>2021-12-27T16:36:34Z</time>
      </trkpt>
      <trkpt lat="46.73024" lon="3.62387">
        <ele>200</ele>
        <time>2021-12-27T16:36:51Z</time>
      </trkpt>
      <trkpt lat="46.72981" lon="3.62561">
        <ele>201</ele>
        <time>2021-12-27T16:37:14Z</time>
      </trkpt>
      <trkpt lat="46.72958" lon="3.62681">
        <ele>200</ele>
        <time>2021-12-27T16:37:29Z</time>
      </trkpt>
      <trkpt lat="46.72934" lon="3.62842">
        <ele>198</ele>
        <time>2021-12-27T16:37:49Z</time>
      </trkpt>
      <trkpt lat="46.72924" lon="3.62876">
        <ele>198</ele>
        <time>2021-12-27T16:37:54Z</time>
      </trkpt>
      <trkpt lat="46.72911" lon="3.62909">
        <ele>198</ele>
        <time>2021-12-27T16:37:58Z</time>
      </trkpt>
      <trkpt lat="46.72838" lon="3.62959">
        <ele>199</ele>
        <time>2021-12-27T16:38:13Z</time>
      </trkpt>
      <trkpt lat="46.72962" lon="3.63392">
        <ele>198</ele>
        <time>2021-12-27T16:39:10Z</time>
      </trkpt>
      <trkpt lat="46.73007" lon="3.63553">
        <ele>197</ele>
        <time>2021-12-27T16:39:31Z</time>
      </trkpt>
      <trkpt lat="46.7311" lon="3.63905">
        <ele>197</ele>
        <time>2021-12-27T16:40:18Z</time>
      </trkpt>
      <trkpt lat="46.73172" lon="3.6411">
        <ele>196</ele>
        <time>2021-12-27T16:40:45Z</time>
      </trkpt>
      <trkpt lat="46.73179" lon="3.6414">
        <ele>197</ele>
        <time>2021-12-27T16:40:49Z</time>
      </trkpt>
      <trkpt lat="46.73183" lon="3.64181">
        <ele>197</ele>
        <time>2021-12-27T16:40:54Z</time>
      </trkpt>
      <trkpt lat="46.7318" lon="3.64216">
        <ele>197</ele>
        <time>2021-12-27T16:40:58Z</time>
      </trkpt>
      <trkpt lat="46.73172" lon="3.64245">
        <ele>197</ele>
        <time>2021-12-27T16:41:02Z</time>
      </trkpt>
      <trkpt lat="46.72796" lon="3.65259">
        <ele>198</ele>
        <time>2021-12-27T16:43:23Z</time>
      </trkpt>
      <trkpt lat="46.72779" lon="3.65301">
        <ele>197</ele>
        <time>2021-12-27T16:43:29Z</time>
      </trkpt>
      <trkpt lat="46.72767" lon="3.65326">
        <ele>197</ele>
        <time>2021-12-27T16:43:33Z</time>
      </trkpt>
      <trkpt lat="46.72548" lon="3.65721">
        <ele>198</ele>
        <time>2021-12-27T16:44:35Z</time>
      </trkpt>
      <trkpt lat="46.72531" lon="3.65754">
        <ele>198</ele>
        <time>2021-12-27T16:44:40Z</time>
      </trkpt>
      <trkpt lat="46.72521" lon="3.65778">
        <ele>198</ele>
        <time>2021-12-27T16:44:43Z</time>
      </trkpt>
      <trkpt lat="46.7251" lon="3.65807">
        <ele>198</ele>
        <time>2021-12-27T16:44:47Z</time>
      </trkpt>
      <trkpt lat="46.72501" lon="3.65841">
        <ele>198</ele>
        <time>2021-12-27T16:44:51Z</time>
      </trkpt>
      <trkpt lat="46.72451" lon="3.66092">
        <ele>198</ele>
        <time>2021-12-27T16:45:23Z</time>
      </trkpt>
      <trkpt lat="46.72427" lon="3.66331">
        <ele>198</ele>
        <time>2021-12-27T16:45:53Z</time>
      </trkpt>
      <trkpt lat="46.72425" lon="3.66368">
        <ele>198</ele>
        <time>2021-12-27T16:45:57Z</time>
      </trkpt>
      <trkpt lat="46.72449" lon="3.66924">
        <ele>200</ele>
        <time>2021-12-27T16:47:05Z</time>
      </trkpt>
      <trkpt lat="46.72464" lon="3.67588">
        <ele>202</ele>
        <time>2021-12-27T16:48:26Z</time>
      </trkpt>
      <trkpt lat="46.72467" lon="3.67623">
        <ele>203</ele>
        <time>2021-12-27T16:48:31Z</time>
      </trkpt>
      <trkpt lat="46.72471" lon="3.67648">
        <ele>203</ele>
        <time>2021-12-27T16:48:34Z</time>
      </trkpt>
      <trkpt lat="46.72477" lon="3.67668">
        <ele>204</ele>
        <time>2021-12-27T16:48:36Z</time>
      </trkpt>
      <trkpt lat="46.7249" lon="3.67703">
        <ele>205</ele>
        <time>2021-12-27T16:48:41Z</time>
      </trkpt>
      <trkpt lat="46.72493" lon="3.67729">
        <ele>206</ele>
        <time>2021-12-27T16:48:45Z</time>
      </trkpt>
      <trkpt lat="46.72489" lon="3.67754">
        <ele>207</ele>
        <time>2021-12-27T16:48:48Z</time>
      </trkpt>
      <trkpt lat="46.72481" lon="3.67778">
        <ele>209</ele>
        <time>2021-12-27T16:48:51Z</time>
      </trkpt>
      <trkpt lat="46.72462" lon="3.67813">
        <ele>212</ele>
        <time>2021-12-27T16:48:56Z</time>
      </trkpt>
      <trkpt lat="46.72417" lon="3.67883">
        <ele>212</ele>
        <time>2021-12-27T16:49:08Z</time>
      </trkpt>
      <trkpt lat="46.72395" lon="3.67913">
        <ele>212</ele>
        <time>2021-12-27T16:49:13Z</time>
      </trkpt>
      <trkpt lat="46.72357" lon="3.67954">
        <ele>213</ele>
        <time>2021-12-27T16:49:22Z</time>
      </trkpt>
      <trkpt lat="46.72262" lon="3.68047">
        <ele>216</ele>
        <time>2021-12-27T16:49:42Z</time>
      </trkpt>
      <trkpt lat="46.72209" lon="3.68081">
        <ele>220</ele>
        <time>2021-12-27T16:49:52Z</time>
      </trkpt>
      <trkpt lat="46.72198" lon="3.68095">
        <ele>221</ele>
        <time>2021-12-27T16:49:55Z</time>
      </trkpt>
      <trkpt lat="46.72193" lon="3.6811">
        <ele>221</ele>
        <time>2021-12-27T16:49:57Z</time>
      </trkpt>
      <trkpt lat="46.72189" lon="3.68129">
        <ele>222</ele>
        <time>2021-12-27T16:50:00Z</time>
      </trkpt>
      <trkpt lat="46.72181" lon="3.68215">
        <ele>225</ele>
        <time>2021-12-27T16:50:10Z</time>
      </trkpt>
      <trkpt lat="46.72176" lon="3.68251">
        <ele>226</ele>
        <time>2021-12-27T16:50:15Z</time>
      </trkpt>
      <trkpt lat="46.72157" lon="3.68325">
        <ele>227</ele>
        <time>2021-12-27T16:50:24Z</time>
      </trkpt>
      <trkpt lat="46.72155" lon="3.68334">
        <ele>227</ele>
        <time>2021-12-27T16:50:25Z</time>
      </trkpt>
      <trkpt lat="46.72148" lon="3.68346">
        <ele>228</ele>
        <time>2021-12-27T16:50:27Z</time>
      </trkpt>
      <trkpt lat="46.72153" lon="3.68364">
        <ele>228</ele>
        <time>2021-12-27T16:50:30Z</time>
      </trkpt>
      <trkpt lat="46.7216" lon="3.68432">
        <ele>231</ele>
        <time>2021-12-27T16:50:38Z</time>
      </trkpt>
      <trkpt lat="46.72165" lon="3.68447">
        <ele>231</ele>
        <time>2021-12-27T16:50:40Z</time>
      </trkpt>
      <trkpt lat="46.72163" lon="3.68453">
        <ele>231</ele>
        <time>2021-12-27T16:50:41Z</time>
      </trkpt>
      <trkpt lat="46.72165" lon="3.685">
        <ele>233</ele>
        <time>2021-12-27T16:50:47Z</time>
      </trkpt>
      <trkpt lat="46.72164" lon="3.68522">
        <ele>233</ele>
        <time>2021-12-27T16:50:49Z</time>
      </trkpt>
      <trkpt lat="46.72142" lon="3.68651">
        <ele>232</ele>
        <time>2021-12-27T16:51:06Z</time>
      </trkpt>
      <trkpt lat="46.7213" lon="3.68696">
        <ele>231</ele>
        <time>2021-12-27T16:51:11Z</time>
      </trkpt>
      <trkpt lat="46.72129" lon="3.6871">
        <ele>231</ele>
        <time>2021-12-27T16:51:13Z</time>
      </trkpt>
      <trkpt lat="46.72134" lon="3.68767">
        <ele>230</ele>
        <time>2021-12-27T16:51:20Z</time>
      </trkpt>
      <trkpt lat="46.72134" lon="3.68823">
        <ele>228</ele>
        <time>2021-12-27T16:51:27Z</time>
      </trkpt>
      <trkpt lat="46.72121" lon="3.68971">
        <ele>223</ele>
        <time>2021-12-27T16:51:45Z</time>
      </trkpt>
      <trkpt lat="46.72095" lon="3.69113">
        <ele>217</ele>
        <time>2021-12-27T16:52:03Z</time>
      </trkpt>
      <trkpt lat="46.72088" lon="3.69157">
        <ele>215</ele>
        <time>2021-12-27T16:52:09Z</time>
      </trkpt>
      <trkpt lat="46.72081" lon="3.69321">
        <ele>213</ele>
        <time>2021-12-27T16:52:29Z</time>
      </trkpt>
      <trkpt lat="46.72078" lon="3.69344">
        <ele>214</ele>
        <time>2021-12-27T16:52:32Z</time>
      </trkpt>
      <trkpt lat="46.72071" lon="3.69366">
        <ele>215</ele>
        <time>2021-12-27T16:52:35Z</time>
      </trkpt>
      <trkpt lat="46.72058" lon="3.69378">
        <ele>215</ele>
        <time>2021-12-27T16:52:37Z</time>
      </trkpt>
      <trkpt lat="46.71957" lon="3.69423">
        <ele>218</ele>
        <time>2021-12-27T16:52:56Z</time>
      </trkpt>
      <trkpt lat="46.71937" lon="3.69439">
        <ele>219</ele>
        <time>2021-12-27T16:53:00Z</time>
      </trkpt>
      <trkpt lat="46.71871" lon="3.69529">
        <ele>224</ele>
        <time>2021-12-27T16:53:16Z</time>
      </trkpt>
      <trkpt lat="46.71826" lon="3.69605">
        <ele>226</ele>
        <time>2021-12-27T16:53:28Z</time>
      </trkpt>
      <trkpt lat="46.71794" lon="3.69665">
        <ele>228</ele>
        <time>2021-12-27T16:53:38Z</time>
      </trkpt>
      <trkpt lat="46.71772" lon="3.69711">
        <ele>231</ele>
        <time>2021-12-27T16:53:45Z</time>
      </trkpt>
      <trkpt lat="46.71757" lon="3.6975">
        <ele>232</ele>
        <time>2021-12-27T16:53:50Z</time>
      </trkpt>
      <trkpt lat="46.71729" lon="3.69847">
        <ele>236</ele>
        <time>2021-12-27T16:54:03Z</time>
      </trkpt>
      <trkpt lat="46.71717" lon="3.69904">
        <ele>237</ele>
        <time>2021-12-27T16:54:10Z</time>
      </trkpt>
      <trkpt lat="46.71696" lon="3.70043">
        <ele>241</ele>
        <time>2021-12-27T16:54:27Z</time>
      </trkpt>
      <trkpt lat="46.71697" lon="3.70106">
        <ele>242</ele>
        <time>2021-12-27T16:54:35Z</time>
      </trkpt>
      <trkpt lat="46.71724" lon="3.70443">
        <ele>250</ele>
        <time>2021-12-27T16:55:17Z</time>
      </trkpt>
      <trkpt lat="46.71724" lon="3.70476">
        <ele>250</ele>
        <time>2021-12-27T16:55:21Z</time>
      </trkpt>
      <trkpt lat="46.7172" lon="3.70493">
        <ele>250</ele>
        <time>2021-12-27T16:55:23Z</time>
      </trkpt>
      <trkpt lat="46.71686" lon="3.70584">
        <ele>252</ele>
        <time>2021-12-27T16:55:35Z</time>
      </trkpt>
      <trkpt lat="46.71643" lon="3.70715">
        <ele>253</ele>
        <time>2021-12-27T16:55:53Z</time>
      </trkpt>
      <trkpt lat="46.71534" lon="3.71089">
        <ele>251</ele>
        <time>2021-12-27T16:56:43Z</time>
      </trkpt>
      <trkpt lat="46.7152" lon="3.71129">
        <ele>251</ele>
        <time>2021-12-27T16:56:48Z</time>
      </trkpt>
      <trkpt lat="46.715" lon="3.71177">
        <ele>252</ele>
        <time>2021-12-27T16:56:55Z</time>
      </trkpt>
      <trkpt lat="46.71465" lon="3.7125">
        <ele>255</ele>
        <time>2021-12-27T16:57:06Z</time>
      </trkpt>
      <trkpt lat="46.71442" lon="3.71303">
        <ele>256</ele>
        <time>2021-12-27T16:57:14Z</time>
      </trkpt>
      <trkpt lat="46.71424" lon="3.71366">
        <ele>255</ele>
        <time>2021-12-27T16:57:22Z</time>
      </trkpt>
      <trkpt lat="46.71417" lon="3.714">
        <ele>254</ele>
        <time>2021-12-27T16:57:26Z</time>
      </trkpt>
      <trkpt lat="46.71417" lon="3.71423">
        <ele>254</ele>
        <time>2021-12-27T16:57:29Z</time>
      </trkpt>
      <trkpt lat="46.71419" lon="3.71481">
        <ele>252</ele>
        <time>2021-12-27T16:57:36Z</time>
      </trkpt>
      <trkpt lat="46.71424" lon="3.71546">
        <ele>250</ele>
        <time>2021-12-27T16:57:44Z</time>
      </trkpt>
      <trkpt lat="46.71425" lon="3.71598">
        <ele>250</ele>
        <time>2021-12-27T16:57:50Z</time>
      </trkpt>
      <trkpt lat="46.71423" lon="3.71628">
        <ele>251</ele>
        <time>2021-12-27T16:57:54Z</time>
      </trkpt>
      <trkpt lat="46.71417" lon="3.71674">
        <ele>252</ele>
        <time>2021-12-27T16:58:00Z</time>
      </trkpt>
      <trkpt lat="46.7141" lon="3.71694">
        <ele>252</ele>
        <time>2021-12-27T16:58:03Z</time>
      </trkpt>
      <trkpt lat="46.71398" lon="3.71715">
        <ele>252</ele>
        <time>2021-12-27T16:58:06Z</time>
      </trkpt>
      <trkpt lat="46.71338" lon="3.71792">
        <ele>252</ele>
        <time>2021-12-27T16:58:20Z</time>
      </trkpt>
      <trkpt lat="46.71317" lon="3.71824">
        <ele>251</ele>
        <time>2021-12-27T16:58:26Z</time>
      </trkpt>
      <trkpt lat="46.71291" lon="3.71874">
        <ele>251</ele>
        <time>2021-12-27T16:58:33Z</time>
      </trkpt>
      <trkpt lat="46.71253" lon="3.7196">
        <ele>251</ele>
        <time>2021-12-27T16:58:46Z</time>
      </trkpt>
      <trkpt lat="46.71243" lon="3.71988">
        <ele>251</ele>
        <time>2021-12-27T16:58:50Z</time>
      </trkpt>
      <trkpt lat="46.71237" lon="3.72012">
        <ele>251</ele>
        <time>2021-12-27T16:58:53Z</time>
      </trkpt>
      <trkpt lat="46.71232" lon="3.72042">
        <ele>251</ele>
        <time>2021-12-27T16:58:56Z</time>
      </trkpt>
      <trkpt lat="46.71223" lon="3.72136">
        <ele>250</ele>
        <time>2021-12-27T16:59:08Z</time>
      </trkpt>
      <trkpt lat="46.71216" lon="3.72196">
        <ele>251</ele>
        <time>2021-12-27T16:59:15Z</time>
      </trkpt>
      <trkpt lat="46.71208" lon="3.72236">
        <ele>253</ele>
        <time>2021-12-27T16:59:20Z</time>
      </trkpt>
      <trkpt lat="46.71148" lon="3.72426">
        <ele>261</ele>
        <time>2021-12-27T16:59:46Z</time>
      </trkpt>
      <trkpt lat="46.71119" lon="3.72536">
        <ele>258</ele>
        <time>2021-12-27T17:00:00Z</time>
      </trkpt>
      <trkpt lat="46.71109" lon="3.72595">
        <ele>257</ele>
        <time>2021-12-27T17:00:08Z</time>
      </trkpt>
      <trkpt lat="46.71107" lon="3.72651">
        <ele>257</ele>
        <time>2021-12-27T17:00:15Z</time>
      </trkpt>
      <trkpt lat="46.71112" lon="3.72703">
        <ele>257</ele>
        <time>2021-12-27T17:00:21Z</time>
      </trkpt>
      <trkpt lat="46.7111" lon="3.72746">
        <ele>257</ele>
        <time>2021-12-27T17:00:26Z</time>
      </trkpt>
      <trkpt lat="46.71104" lon="3.72784">
        <ele>259</ele>
        <time>2021-12-27T17:00:31Z</time>
      </trkpt>
      <trkpt lat="46.71092" lon="3.72887">
        <ele>262</ele>
        <time>2021-12-27T17:00:44Z</time>
      </trkpt>
      <trkpt lat="46.71109" lon="3.73164">
        <ele>263</ele>
        <time>2021-12-27T17:01:18Z</time>
      </trkpt>
      <trkpt lat="46.71126" lon="3.73424">
        <ele>261</ele>
        <time>2021-12-27T17:01:50Z</time>
      </trkpt>
      <trkpt lat="46.71126" lon="3.73501">
        <ele>261</ele>
        <time>2021-12-27T17:01:59Z</time>
      </trkpt>
      <trkpt lat="46.71116" lon="3.73554">
        <ele>261</ele>
        <time>2021-12-27T17:02:06Z</time>
      </trkpt>
      <trkpt lat="46.71088" lon="3.73729">
        <ele>257</ele>
        <time>2021-12-27T17:02:28Z</time>
      </trkpt>
      <trkpt lat="46.71055" lon="3.73911">
        <ele>258</ele>
        <time>2021-12-27T17:02:51Z</time>
      </trkpt>
      <trkpt lat="46.71039" lon="3.73986">
        <ele>258</ele>
        <time>2021-12-27T17:03:00Z</time>
      </trkpt>
      <trkpt lat="46.71011" lon="3.7409">
        <ele>256</ele>
        <time>2021-12-27T17:03:14Z</time>
      </trkpt>
      <trkpt lat="46.70958" lon="3.74266">
        <ele>258</ele>
        <time>2021-12-27T17:03:37Z</time>
      </trkpt>
      <trkpt lat="46.7081" lon="3.74681">
        <ele>253</ele>
        <time>2021-12-27T17:04:34Z</time>
      </trkpt>
      <trkpt lat="46.70789" lon="3.74748">
        <ele>250</ele>
        <time>2021-12-27T17:04:43Z</time>
      </trkpt>
      <trkpt lat="46.70557" lon="3.75593">
        <ele>260</ele>
        <time>2021-12-27T17:06:34Z</time>
      </trkpt>
      <trkpt lat="46.70458" lon="3.75944">
        <ele>256</ele>
        <time>2021-12-27T17:07:21Z</time>
      </trkpt>
      <trkpt lat="46.70445" lon="3.75985">
        <ele>256</ele>
        <time>2021-12-27T17:07:26Z</time>
      </trkpt>
      <trkpt lat="46.70414" lon="3.76054">
        <ele>254</ele>
        <time>2021-12-27T17:07:36Z</time>
      </trkpt>
      <trkpt lat="46.70211" lon="3.76389">
        <ele>258</ele>
        <time>2021-12-27T17:08:31Z</time>
      </trkpt>
      <trkpt lat="46.70195" lon="3.76423">
        <ele>260</ele>
        <time>2021-12-27T17:08:36Z</time>
      </trkpt>
      <trkpt lat="46.70185" lon="3.76456">
        <ele>261</ele>
        <time>2021-12-27T17:08:40Z</time>
      </trkpt>
      <trkpt lat="46.70181" lon="3.76482">
        <ele>261</ele>
        <time>2021-12-27T17:08:43Z</time>
      </trkpt>
      <trkpt lat="46.7018" lon="3.76507">
        <ele>262</ele>
        <time>2021-12-27T17:08:47Z</time>
      </trkpt>
      <trkpt lat="46.70183" lon="3.76558">
        <ele>263</ele>
        <time>2021-12-27T17:08:53Z</time>
      </trkpt>
      <trkpt lat="46.70201" lon="3.76663">
        <ele>262</ele>
        <time>2021-12-27T17:09:06Z</time>
      </trkpt>
      <trkpt lat="46.70203" lon="3.76694">
        <ele>262</ele>
        <time>2021-12-27T17:09:10Z</time>
      </trkpt>
      <trkpt lat="46.70201" lon="3.76711">
        <ele>262</ele>
        <time>2021-12-27T17:09:12Z</time>
      </trkpt>
      <trkpt lat="46.70196" lon="3.7673">
        <ele>262</ele>
        <time>2021-12-27T17:09:14Z</time>
      </trkpt>
      <trkpt lat="46.70189" lon="3.76745">
        <ele>263</ele>
        <time>2021-12-27T17:09:17Z</time>
      </trkpt>
      <trkpt lat="46.70175" lon="3.76761">
        <ele>264</ele>
        <time>2021-12-27T17:09:20Z</time>
      </trkpt>
      <trkpt lat="46.70163" lon="3.76769">
        <ele>265</ele>
        <time>2021-12-27T17:09:22Z</time>
      </trkpt>
      <trkpt lat="46.70124" lon="3.76783">
        <ele>266</ele>
        <time>2021-12-27T17:09:29Z</time>
      </trkpt>
      <trkpt lat="46.70098" lon="3.76796">
        <ele>268</ele>
        <time>2021-12-27T17:09:34Z</time>
      </trkpt>
      <trkpt lat="46.70088" lon="3.76803">
        <ele>268</ele>
        <time>2021-12-27T17:09:36Z</time>
      </trkpt>
      <trkpt lat="46.70074" lon="3.76818">
        <ele>269</ele>
        <time>2021-12-27T17:09:39Z</time>
      </trkpt>
      <trkpt lat="46.70066" lon="3.76834">
        <ele>270</ele>
        <time>2021-12-27T17:09:42Z</time>
      </trkpt>
      <trkpt lat="46.70058" lon="3.76859">
        <ele>270</ele>
        <time>2021-12-27T17:09:45Z</time>
      </trkpt>
      <trkpt lat="46.7004" lon="3.7695">
        <ele>268</ele>
        <time>2021-12-27T17:09:57Z</time>
      </trkpt>
      <trkpt lat="46.70038" lon="3.76969">
        <ele>267</ele>
        <time>2021-12-27T17:09:59Z</time>
      </trkpt>
      <trkpt lat="46.70037" lon="3.76994">
        <ele>266</ele>
        <time>2021-12-27T17:10:02Z</time>
      </trkpt>
      <trkpt lat="46.7005" lon="3.77157">
        <ele>261</ele>
        <time>2021-12-27T17:10:22Z</time>
      </trkpt>
      <trkpt lat="46.7006" lon="3.77248">
        <ele>258</ele>
        <time>2021-12-27T17:10:33Z</time>
      </trkpt>
      <trkpt lat="46.7006" lon="3.77278">
        <ele>258</ele>
        <time>2021-12-27T17:10:37Z</time>
      </trkpt>
      <trkpt lat="46.70057" lon="3.77305">
        <ele>258</ele>
        <time>2021-12-27T17:10:40Z</time>
      </trkpt>
      <trkpt lat="46.70035" lon="3.77406">
        <ele>259</ele>
        <time>2021-12-27T17:10:53Z</time>
      </trkpt>
      <trkpt lat="46.70006" lon="3.7755">
        <ele>261</ele>
        <time>2021-12-27T17:11:11Z</time>
      </trkpt>
      <trkpt lat="46.69988" lon="3.77633">
        <ele>260</ele>
        <time>2021-12-27T17:11:22Z</time>
      </trkpt>
      <trkpt lat="46.69984" lon="3.77672">
        <ele>260</ele>
        <time>2021-12-27T17:11:27Z</time>
      </trkpt>
      <trkpt lat="46.69969" lon="3.78001">
        <ele>261</ele>
        <time>2021-12-27T17:12:07Z</time>
      </trkpt>
      <trkpt lat="46.69956" lon="3.78374">
        <ele>263</ele>
        <time>2021-12-27T17:12:53Z</time>
      </trkpt>
      <trkpt lat="46.69951" lon="3.78414">
        <ele>263</ele>
        <time>2021-12-27T17:12:58Z</time>
      </trkpt>
      <trkpt lat="46.69937" lon="3.78488">
        <ele>263</ele>
        <time>2021-12-27T17:13:07Z</time>
      </trkpt>
      <trkpt lat="46.69904" lon="3.78664">
        <ele>266</ele>
        <time>2021-12-27T17:13:29Z</time>
      </trkpt>
      <trkpt lat="46.69886" lon="3.7874">
        <ele>268</ele>
        <time>2021-12-27T17:13:39Z</time>
      </trkpt>
      <trkpt lat="46.69874" lon="3.78779">
        <ele>269</ele>
        <time>2021-12-27T17:13:44Z</time>
      </trkpt>
      <trkpt lat="46.69861" lon="3.7881">
        <ele>270</ele>
        <time>2021-12-27T17:13:49Z</time>
      </trkpt>
      <trkpt lat="46.69843" lon="3.78844">
        <ele>272</ele>
        <time>2021-12-27T17:13:54Z</time>
      </trkpt>
      <trkpt lat="46.69794" lon="3.78919">
        <ele>273</ele>
        <time>2021-12-27T17:14:07Z</time>
      </trkpt>
      <trkpt lat="46.6978" lon="3.78949">
        <ele>274</ele>
        <time>2021-12-27T17:14:11Z</time>
      </trkpt>
      <trkpt lat="46.69458" lon="3.79743">
        <ele>278</ele>
        <time>2021-12-27T17:16:04Z</time>
      </trkpt>
      <trkpt lat="46.69116" lon="3.80567">
        <ele>288</ele>
        <time>2021-12-27T17:18:01Z</time>
      </trkpt>
      <trkpt lat="46.6907" lon="3.80754">
        <ele>284</ele>
        <time>2021-12-27T17:18:25Z</time>
      </trkpt>
      <trkpt lat="46.69043" lon="3.80872">
        <ele>283</ele>
        <time>2021-12-27T17:18:41Z</time>
      </trkpt>
      <trkpt lat="46.69034" lon="3.80897">
        <ele>283</ele>
        <time>2021-12-27T17:18:44Z</time>
      </trkpt>
      <trkpt lat="46.69009" lon="3.80916">
        <ele>284</ele>
        <time>2021-12-27T17:18:49Z</time>
      </trkpt>
      <trkpt lat="46.68935" lon="3.80959">
        <ele>283</ele>
        <time>2021-12-27T17:19:03Z</time>
      </trkpt>
      <trkpt lat="46.68801" lon="3.81024">
        <ele>281</ele>
        <time>2021-12-27T17:19:28Z</time>
      </trkpt>
      <trkpt lat="46.68749" lon="3.81063">
        <ele>282</ele>
        <time>2021-12-27T17:19:39Z</time>
      </trkpt>
      <trkpt lat="46.68702" lon="3.81103">
        <ele>280</ele>
        <time>2021-12-27T17:19:48Z</time>
      </trkpt>
      <trkpt lat="46.68674" lon="3.81134">
        <ele>278</ele>
        <time>2021-12-27T17:19:55Z</time>
      </trkpt>
      <trkpt lat="46.68639" lon="3.81183">
        <ele>276</ele>
        <time>2021-12-27T17:20:03Z</time>
      </trkpt>
      <trkpt lat="46.6856" lon="3.81309">
        <ele>269</ele>
        <time>2021-12-27T17:20:24Z</time>
      </trkpt>
      <trkpt lat="46.68537" lon="3.8134">
        <ele>267</ele>
        <time>2021-12-27T17:20:30Z</time>
      </trkpt>
      <trkpt lat="46.68477" lon="3.81405">
        <ele>262</ele>
        <time>2021-12-27T17:20:43Z</time>
      </trkpt>
      <trkpt lat="46.68446" lon="3.81435">
        <ele>259</ele>
        <time>2021-12-27T17:20:50Z</time>
      </trkpt>
      <trkpt lat="46.68436" lon="3.8145">
        <ele>259</ele>
        <time>2021-12-27T17:20:52Z</time>
      </trkpt>
      <trkpt lat="46.68427" lon="3.81476">
        <ele>257</ele>
        <time>2021-12-27T17:20:56Z</time>
      </trkpt>
      <trkpt lat="46.68425" lon="3.81489">
        <ele>257</ele>
        <time>2021-12-27T17:20:57Z</time>
      </trkpt>
      <trkpt lat="46.68421" lon="3.81584">
        <ele>250</ele>
        <time>2021-12-27T17:21:09Z</time>
      </trkpt>
      <trkpt lat="46.68417" lon="3.816">
        <ele>249</ele>
        <time>2021-12-27T17:21:11Z</time>
      </trkpt>
      <trkpt lat="46.68409" lon="3.81612">
        <ele>249</ele>
        <time>2021-12-27T17:21:13Z</time>
      </trkpt>
      <trkpt lat="46.684" lon="3.81621">
        <ele>248</ele>
        <time>2021-12-27T17:21:15Z</time>
      </trkpt>
      <trkpt lat="46.68392" lon="3.81623">
        <ele>248</ele>
        <time>2021-12-27T17:21:17Z</time>
      </trkpt>
      <trkpt lat="46.68363" lon="3.81614">
        <ele>248</ele>
        <time>2021-12-27T17:21:22Z</time>
      </trkpt>
      <trkpt lat="46.68317" lon="3.81586">
        <ele>249</ele>
        <time>2021-12-27T17:21:31Z</time>
      </trkpt>
      <trkpt lat="46.68307" lon="3.81583">
        <ele>249</ele>
        <time>2021-12-27T17:21:33Z</time>
      </trkpt>
      <trkpt lat="46.68297" lon="3.81586">
        <ele>248</ele>
        <time>2021-12-27T17:21:34Z</time>
      </trkpt>
      <trkpt lat="46.6827" lon="3.81609">
        <ele>246</ele>
        <time>2021-12-27T17:21:40Z</time>
      </trkpt>
      <trkpt lat="46.68229" lon="3.81658">
        <ele>241</ele>
        <time>2021-12-27T17:21:49Z</time>
      </trkpt>
      <trkpt lat="46.68201" lon="3.81688">
        <ele>239</ele>
        <time>2021-12-27T17:21:55Z</time>
      </trkpt>
      <trkpt lat="46.68196" lon="3.81698">
        <ele>238</ele>
        <time>2021-12-27T17:21:57Z</time>
      </trkpt>
      <trkpt lat="46.68201" lon="3.81705">
        <ele>238</ele>
        <time>2021-12-27T17:21:58Z</time>
      </trkpt>
      <trkpt lat="46.68207" lon="3.81718">
        <ele>238</ele>
        <time>2021-12-27T17:22:00Z</time>
      </trkpt>
      <trkpt lat="46.68253" lon="3.81825">
        <ele>236</ele>
        <time>2021-12-27T17:22:16Z</time>
      </trkpt>
      <trkpt lat="46.683" lon="3.81944">
        <ele>234</ele>
        <time>2021-12-27T17:22:32Z</time>
      </trkpt>
      <trkpt lat="46.68315" lon="3.8199">
        <ele>233</ele>
        <time>2021-12-27T17:22:39Z</time>
      </trkpt>
      <trkpt lat="46.68332" lon="3.82029">
        <ele>234</ele>
        <time>2021-12-27T17:22:44Z</time>
      </trkpt>
      <trkpt lat="46.68346" lon="3.82052">
        <ele>234</ele>
        <time>2021-12-27T17:22:48Z</time>
      </trkpt>
      <trkpt lat="46.68383" lon="3.82104">
        <ele>236</ele>
        <time>2021-12-27T17:22:57Z</time>
      </trkpt>
      <trkpt lat="46.68409" lon="3.82145">
        <ele>237</ele>
        <time>2021-12-27T17:23:04Z</time>
      </trkpt>
      <trkpt lat="46.6845" lon="3.8223">
        <ele>238</ele>
        <time>2021-12-27T17:23:17Z</time>
      </trkpt>
      <trkpt lat="46.68481" lon="3.82309">
        <ele>239</ele>
        <time>2021-12-27T17:23:28Z</time>
      </trkpt>
      <trkpt lat="46.68516" lon="3.82461">
        <ele>238</ele>
        <time>2021-12-27T17:23:47Z</time>
      </trkpt>
      <trkpt lat="46.68584" lon="3.82747">
        <ele>240</ele>
        <time>2021-12-27T17:24:24Z</time>
      </trkpt>
      <trkpt lat="46.68593" lon="3.82803">
        <ele>239</ele>
        <time>2021-12-27T17:24:31Z</time>
      </trkpt>
      <trkpt lat="46.68595" lon="3.82827">
        <ele>238</ele>
        <time>2021-12-27T17:24:34Z</time>
      </trkpt>
      <trkpt lat="46.68595" lon="3.82855">
        <ele>238</ele>
        <time>2021-12-27T17:24:38Z</time>
      </trkpt>
      <trkpt lat="46.68586" lon="3.82978">
        <ele>237</ele>
        <time>2021-12-27T17:24:53Z</time>
      </trkpt>
      <trkpt lat="46.68587" lon="3.83024">
        <ele>237</ele>
        <time>2021-12-27T17:24:58Z</time>
      </trkpt>
      <trkpt lat="46.68592" lon="3.83066">
        <ele>238</ele>
        <time>2021-12-27T17:25:04Z</time>
      </trkpt>
      <trkpt lat="46.68637" lon="3.83235">
        <ele>243</ele>
        <time>2021-12-27T17:25:26Z</time>
      </trkpt>
      <trkpt lat="46.68645" lon="3.83273">
        <ele>243</ele>
        <time>2021-12-27T17:25:30Z</time>
      </trkpt>
      <trkpt lat="46.68654" lon="3.83335">
        <ele>241</ele>
        <time>2021-12-27T17:25:38Z</time>
      </trkpt>
      <trkpt lat="46.68657" lon="3.83378">
        <ele>242</ele>
        <time>2021-12-27T17:25:44Z</time>
      </trkpt>
      <trkpt lat="46.68677" lon="3.83735">
        <ele>246</ele>
        <time>2021-12-27T17:26:27Z</time>
      </trkpt>
      <trkpt lat="46.68692" lon="3.83897">
        <ele>244</ele>
        <time>2021-12-27T17:26:47Z</time>
      </trkpt>
      <trkpt lat="46.68696" lon="3.83931">
        <ele>244</ele>
        <time>2021-12-27T17:26:51Z</time>
      </trkpt>
      <trkpt lat="46.68711" lon="3.83996">
        <ele>244</ele>
        <time>2021-12-27T17:27:00Z</time>
      </trkpt>
      <trkpt lat="46.6876" lon="3.8414">
        <ele>244</ele>
        <time>2021-12-27T17:27:19Z</time>
      </trkpt>
      <trkpt lat="46.68771" lon="3.84169">
        <ele>244</ele>
        <time>2021-12-27T17:27:23Z</time>
      </trkpt>
      <trkpt lat="46.68781" lon="3.84187">
        <ele>244</ele>
        <time>2021-12-27T17:27:26Z</time>
      </trkpt>
      <trkpt lat="46.68791" lon="3.84201">
        <ele>244</ele>
        <time>2021-12-27T17:27:29Z</time>
      </trkpt>
      <trkpt lat="46.68811" lon="3.84216">
        <ele>245</ele>
        <time>2021-12-27T17:27:33Z</time>
      </trkpt>
      <trkpt lat="46.68868" lon="3.84249">
        <ele>245</ele>
        <time>2021-12-27T17:27:44Z</time>
      </trkpt>
      <trkpt lat="46.68915" lon="3.84283">
        <ele>247</ele>
        <time>2021-12-27T17:27:53Z</time>
      </trkpt>
      <trkpt lat="46.68932" lon="3.84307">
        <ele>247</ele>
        <time>2021-12-27T17:27:57Z</time>
      </trkpt>
      <trkpt lat="46.68939" lon="3.84323">
        <ele>247</ele>
        <time>2021-12-27T17:27:59Z</time>
      </trkpt>
      <trkpt lat="46.68945" lon="3.84339">
        <ele>247</ele>
        <time>2021-12-27T17:28:02Z</time>
      </trkpt>
      <trkpt lat="46.6895" lon="3.84358">
        <ele>247</ele>
        <time>2021-12-27T17:28:04Z</time>
      </trkpt>
      <trkpt lat="46.68952" lon="3.84412">
        <ele>246</ele>
        <time>2021-12-27T17:28:11Z</time>
      </trkpt>
      <trkpt lat="46.68949" lon="3.84442">
        <ele>245</ele>
        <time>2021-12-27T17:28:15Z</time>
      </trkpt>
      <trkpt lat="46.68943" lon="3.84474">
        <ele>244</ele>
        <time>2021-12-27T17:28:19Z</time>
      </trkpt>
      <trkpt lat="46.68935" lon="3.84501">
        <ele>244</ele>
        <time>2021-12-27T17:28:22Z</time>
      </trkpt>
      <trkpt lat="46.68923" lon="3.84531">
        <ele>244</ele>
        <time>2021-12-27T17:28:26Z</time>
      </trkpt>
      <trkpt lat="46.68898" lon="3.84577">
        <ele>246</ele>
        <time>2021-12-27T17:28:34Z</time>
      </trkpt>
      <trkpt lat="46.68839" lon="3.84667">
        <ele>243</ele>
        <time>2021-12-27T17:28:49Z</time>
      </trkpt>
      <trkpt lat="46.68771" lon="3.84762">
        <ele>236</ele>
        <time>2021-12-27T17:29:05Z</time>
      </trkpt>
      <trkpt lat="46.68727" lon="3.84814">
        <ele>238</ele>
        <time>2021-12-27T17:29:16Z</time>
      </trkpt>
      <trkpt lat="46.68719" lon="3.8483">
        <ele>239</ele>
        <time>2021-12-27T17:29:18Z</time>
      </trkpt>
      <trkpt lat="46.68712" lon="3.84849">
        <ele>239</ele>
        <time>2021-12-27T17:29:21Z</time>
      </trkpt>
      <trkpt lat="46.68706" lon="3.84874">
        <ele>239</ele>
        <time>2021-12-27T17:29:24Z</time>
      </trkpt>
      <trkpt lat="46.68702" lon="3.84927">
        <ele>237</ele>
        <time>2021-12-27T17:29:30Z</time>
      </trkpt>
      <trkpt lat="46.68707" lon="3.84968">
        <ele>237</ele>
        <time>2021-12-27T17:29:35Z</time>
      </trkpt>
      <trkpt lat="46.68715" lon="3.84997">
        <ele>237</ele>
        <time>2021-12-27T17:29:39Z</time>
      </trkpt>
      <trkpt lat="46.68725" lon="3.8502">
        <ele>237</ele>
        <time>2021-12-27T17:29:43Z</time>
      </trkpt>
      <trkpt lat="46.68736" lon="3.85037">
        <ele>237</ele>
        <time>2021-12-27T17:29:45Z</time>
      </trkpt>
      <trkpt lat="46.68748" lon="3.85052">
        <ele>237</ele>
        <time>2021-12-27T17:29:48Z</time>
      </trkpt>
      <trkpt lat="46.68765" lon="3.8506">
        <ele>237</ele>
        <time>2021-12-27T17:29:51Z</time>
      </trkpt>
      <trkpt lat="46.68779" lon="3.85064">
        <ele>237</ele>
        <time>2021-12-27T17:29:54Z</time>
      </trkpt>
      <trkpt lat="46.68793" lon="3.85064">
        <ele>237</ele>
        <time>2021-12-27T17:29:56Z</time>
      </trkpt>
      <trkpt lat="46.68809" lon="3.8506">
        <ele>236</ele>
        <time>2021-12-27T17:29:59Z</time>
      </trkpt>
      <trkpt lat="46.68868" lon="3.85038">
        <ele>236</ele>
        <time>2021-12-27T17:30:10Z</time>
      </trkpt>
      <trkpt lat="46.68919" lon="3.85031">
        <ele>241</ele>
        <time>2021-12-27T17:30:19Z</time>
      </trkpt>
      <trkpt lat="46.68941" lon="3.85035">
        <ele>243</ele>
        <time>2021-12-27T17:30:23Z</time>
      </trkpt>
      <trkpt lat="46.68971" lon="3.85049">
        <ele>244</ele>
        <time>2021-12-27T17:30:29Z</time>
      </trkpt>
      <trkpt lat="46.68989" lon="3.85068">
        <ele>244</ele>
        <time>2021-12-27T17:30:33Z</time>
      </trkpt>
      <trkpt lat="46.69001" lon="3.85087">
        <ele>244</ele>
        <time>2021-12-27T17:30:36Z</time>
      </trkpt>
      <trkpt lat="46.69009" lon="3.85105">
        <ele>245</ele>
        <time>2021-12-27T17:30:39Z</time>
      </trkpt>
      <trkpt lat="46.69046" lon="3.85207">
        <ele>246</ele>
        <time>2021-12-27T17:30:53Z</time>
      </trkpt>
      <trkpt lat="46.69098" lon="3.85343">
        <ele>247</ele>
        <time>2021-12-27T17:31:12Z</time>
      </trkpt>
      <trkpt lat="46.69124" lon="3.85398">
        <ele>248</ele>
        <time>2021-12-27T17:31:20Z</time>
      </trkpt>
      <trkpt lat="46.69171" lon="3.85488">
        <ele>246</ele>
        <time>2021-12-27T17:31:34Z</time>
      </trkpt>
      <trkpt lat="46.69189" lon="3.8552">
        <ele>247</ele>
        <time>2021-12-27T17:31:39Z</time>
      </trkpt>
      <trkpt lat="46.69206" lon="3.85543">
        <ele>247</ele>
        <time>2021-12-27T17:31:43Z</time>
      </trkpt>
      <trkpt lat="46.69241" lon="3.8561">
        <ele>247</ele>
        <time>2021-12-27T17:31:53Z</time>
      </trkpt>
      <trkpt lat="46.69279" lon="3.85698">
        <ele>250</ele>
        <time>2021-12-27T17:32:06Z</time>
      </trkpt>
      <trkpt lat="46.69323" lon="3.85767">
        <ele>251</ele>
        <time>2021-12-27T17:32:17Z</time>
      </trkpt>
      <trkpt lat="46.69374" lon="3.85832">
        <ele>252</ele>
        <time>2021-12-27T17:32:29Z</time>
      </trkpt>
      <trkpt lat="46.69387" lon="3.85853">
        <ele>252</ele>
        <time>2021-12-27T17:32:33Z</time>
      </trkpt>
      <trkpt lat="46.69398" lon="3.85876">
        <ele>252</ele>
        <time>2021-12-27T17:32:36Z</time>
      </trkpt>
      <trkpt lat="46.69432" lon="3.85969">
        <ele>251</ele>
        <time>2021-12-27T17:32:49Z</time>
      </trkpt>
      <trkpt lat="46.69436" lon="3.85996">
        <ele>250</ele>
        <time>2021-12-27T17:32:52Z</time>
      </trkpt>
      <trkpt lat="46.69434" lon="3.86086">
        <ele>249</ele>
        <time>2021-12-27T17:33:03Z</time>
      </trkpt>
      <trkpt lat="46.69436" lon="3.86102">
        <ele>249</ele>
        <time>2021-12-27T17:33:05Z</time>
      </trkpt>
      <trkpt lat="46.69423" lon="3.86119">
        <ele>248</ele>
        <time>2021-12-27T17:33:09Z</time>
      </trkpt>
      <trkpt lat="46.69414" lon="3.86147">
        <ele>248</ele>
        <time>2021-12-27T17:33:12Z</time>
      </trkpt>
      <trkpt lat="46.69411" lon="3.86163">
        <ele>248</ele>
        <time>2021-12-27T17:33:14Z</time>
      </trkpt>
      <trkpt lat="46.6941" lon="3.86175">
        <ele>249</ele>
        <time>2021-12-27T17:33:16Z</time>
      </trkpt>
      <trkpt lat="46.69414" lon="3.862">
        <ele>249</ele>
        <time>2021-12-27T17:33:19Z</time>
      </trkpt>
      <trkpt lat="46.69419" lon="3.86212">
        <ele>249</ele>
        <time>2021-12-27T17:33:21Z</time>
      </trkpt>
      <trkpt lat="46.69434" lon="3.86232">
        <ele>250</ele>
        <time>2021-12-27T17:33:24Z</time>
      </trkpt>
      <trkpt lat="46.69447" lon="3.86245">
        <ele>250</ele>
        <time>2021-12-27T17:33:27Z</time>
      </trkpt>
      <trkpt lat="46.69464" lon="3.86258">
        <ele>250</ele>
        <time>2021-12-27T17:33:30Z</time>
      </trkpt>
      <trkpt lat="46.69499" lon="3.86278">
        <ele>251</ele>
        <time>2021-12-27T17:33:37Z</time>
      </trkpt>
      <trkpt lat="46.69508" lon="3.86285">
        <ele>251</ele>
        <time>2021-12-27T17:33:39Z</time>
      </trkpt>
      <trkpt lat="46.69555" lon="3.86335">
        <ele>253</ele>
        <time>2021-12-27T17:33:49Z</time>
      </trkpt>
      <trkpt lat="46.69567" lon="3.86354">
        <ele>255</ele>
        <time>2021-12-27T17:33:52Z</time>
      </trkpt>
      <trkpt lat="46.69572" lon="3.86365">
        <ele>256</ele>
        <time>2021-12-27T17:33:54Z</time>
      </trkpt>
      <trkpt lat="46.69577" lon="3.86385">
        <ele>258</ele>
        <time>2021-12-27T17:33:57Z</time>
      </trkpt>
      <trkpt lat="46.69584" lon="3.86437">
        <ele>264</ele>
        <time>2021-12-27T17:34:03Z</time>
      </trkpt>
      <trkpt lat="46.69596" lon="3.86503">
        <ele>270</ele>
        <time>2021-12-27T17:34:11Z</time>
      </trkpt>
      <trkpt lat="46.69603" lon="3.86568">
        <ele>272</ele>
        <time>2021-12-27T17:34:20Z</time>
      </trkpt>
      <trkpt lat="46.69603" lon="3.86587">
        <ele>273</ele>
        <time>2021-12-27T17:34:22Z</time>
      </trkpt>
      <trkpt lat="46.69599" lon="3.86624">
        <ele>271</ele>
        <time>2021-12-27T17:34:26Z</time>
      </trkpt>
      <trkpt lat="46.69569" lon="3.86743">
        <ele>268</ele>
        <time>2021-12-27T17:34:42Z</time>
      </trkpt>
      <trkpt lat="46.69571" lon="3.86754">
        <ele>268</ele>
        <time>2021-12-27T17:34:43Z</time>
      </trkpt>
      <trkpt lat="46.69575" lon="3.86757">
        <ele>268</ele>
        <time>2021-12-27T17:34:44Z</time>
      </trkpt>
      <trkpt lat="46.69572" lon="3.86771">
        <ele>268</ele>
        <time>2021-12-27T17:34:46Z</time>
      </trkpt>
      <trkpt lat="46.69572" lon="3.86781">
        <ele>268</ele>
        <time>2021-12-27T17:34:47Z</time>
      </trkpt>
      <trkpt lat="46.69578" lon="3.86803">
        <ele>268</ele>
        <time>2021-12-27T17:34:50Z</time>
      </trkpt>
      <trkpt lat="46.69594" lon="3.86828">
        <ele>267</ele>
        <time>2021-12-27T17:34:54Z</time>
      </trkpt>
      <trkpt lat="46.69611" lon="3.86874">
        <ele>266</ele>
        <time>2021-12-27T17:35:01Z</time>
      </trkpt>
      <trkpt lat="46.69607" lon="3.86908">
        <ele>268</ele>
        <time>2021-12-27T17:35:05Z</time>
      </trkpt>
      <trkpt lat="46.696" lon="3.86932">
        <ele>270</ele>
        <time>2021-12-27T17:35:08Z</time>
      </trkpt>
      <trkpt lat="46.69576" lon="3.87">
        <ele>274</ele>
        <time>2021-12-27T17:35:17Z</time>
      </trkpt>
      <trkpt lat="46.6955" lon="3.87088">
        <ele>277</ele>
        <time>2021-12-27T17:35:29Z</time>
      </trkpt>
      <trkpt lat="46.69535" lon="3.8715">
        <ele>279</ele>
        <time>2021-12-27T17:35:37Z</time>
      </trkpt>
      <trkpt lat="46.69519" lon="3.87224">
        <ele>280</ele>
        <time>2021-12-27T17:35:46Z</time>
      </trkpt>
      <trkpt lat="46.69507" lon="3.87264">
        <ele>282</ele>
        <time>2021-12-27T17:35:52Z</time>
      </trkpt>
      <trkpt lat="46.69495" lon="3.87295">
        <ele>282</ele>
        <time>2021-12-27T17:35:56Z</time>
      </trkpt>
      <trkpt lat="46.69468" lon="3.87349">
        <ele>284</ele>
        <time>2021-12-27T17:36:04Z</time>
      </trkpt>
      <trkpt lat="46.69461" lon="3.87359">
        <ele>285</ele>
        <time>2021-12-27T17:36:06Z</time>
      </trkpt>
      <trkpt lat="46.69427" lon="3.87432">
        <ele>286</ele>
        <time>2021-12-27T17:36:17Z</time>
      </trkpt>
      <trkpt lat="46.69404" lon="3.87486">
        <ele>286</ele>
        <time>2021-12-27T17:36:25Z</time>
      </trkpt>
      <trkpt lat="46.69373" lon="3.87581">
        <ele>288</ele>
        <time>2021-12-27T17:36:37Z</time>
      </trkpt>
      <trkpt lat="46.69345" lon="3.87707">
        <ele>293</ele>
        <time>2021-12-27T17:36:54Z</time>
      </trkpt>
      <trkpt lat="46.69342" lon="3.87725">
        <ele>293</ele>
        <time>2021-12-27T17:36:56Z</time>
      </trkpt>
      <trkpt lat="46.69334" lon="3.87925">
        <ele>291</ele>
        <time>2021-12-27T17:37:20Z</time>
      </trkpt>
      <trkpt lat="46.6932" lon="3.88006">
        <ele>293</ele>
        <time>2021-12-27T17:37:30Z</time>
      </trkpt>
      <trkpt lat="46.69317" lon="3.8803">
        <ele>294</ele>
        <time>2021-12-27T17:37:33Z</time>
      </trkpt>
      <trkpt lat="46.69321" lon="3.88091">
        <ele>298</ele>
        <time>2021-12-27T17:37:41Z</time>
      </trkpt>
      <trkpt lat="46.69319" lon="3.88124">
        <ele>300</ele>
        <time>2021-12-27T17:37:45Z</time>
      </trkpt>
      <trkpt lat="46.69306" lon="3.88139">
        <ele>300</ele>
        <time>2021-12-27T17:37:48Z</time>
      </trkpt>
      <trkpt lat="46.69233" lon="3.88197">
        <ele>303</ele>
        <time>2021-12-27T17:38:03Z</time>
      </trkpt>
      <trkpt lat="46.69222" lon="3.88212">
        <ele>303</ele>
        <time>2021-12-27T17:38:05Z</time>
      </trkpt>
      <trkpt lat="46.6921" lon="3.88238">
        <ele>305</ele>
        <time>2021-12-27T17:38:09Z</time>
      </trkpt>
      <trkpt lat="46.69198" lon="3.88255">
        <ele>305</ele>
        <time>2021-12-27T17:38:12Z</time>
      </trkpt>
      <trkpt lat="46.69162" lon="3.88297">
        <ele>306</ele>
        <time>2021-12-27T17:38:20Z</time>
      </trkpt>
      <trkpt lat="46.69153" lon="3.88323">
        <ele>307</ele>
        <time>2021-12-27T17:38:24Z</time>
      </trkpt>
      <trkpt lat="46.69139" lon="3.88386">
        <ele>310</ele>
        <time>2021-12-27T17:38:32Z</time>
      </trkpt>
      <trkpt lat="46.69135" lon="3.88413">
        <ele>312</ele>
        <time>2021-12-27T17:38:35Z</time>
      </trkpt>
      <trkpt lat="46.69136" lon="3.88441">
        <ele>313</ele>
        <time>2021-12-27T17:38:39Z</time>
      </trkpt>
      <trkpt lat="46.6914" lon="3.88467">
        <ele>314</ele>
        <time>2021-12-27T17:38:42Z</time>
      </trkpt>
      <trkpt lat="46.69163" lon="3.88539">
        <ele>319</ele>
        <time>2021-12-27T17:38:52Z</time>
      </trkpt>
      <trkpt lat="46.69164" lon="3.88551">
        <ele>320</ele>
        <time>2021-12-27T17:38:53Z</time>
      </trkpt>
      <trkpt lat="46.69164" lon="3.88571">
        <ele>320</ele>
        <time>2021-12-27T17:38:56Z</time>
      </trkpt>
      <trkpt lat="46.6916" lon="3.88589">
        <ele>321</ele>
        <time>2021-12-27T17:38:58Z</time>
      </trkpt>
      <trkpt lat="46.69154" lon="3.88601">
        <ele>322</ele>
        <time>2021-12-27T17:39:00Z</time>
      </trkpt>
      <trkpt lat="46.69119" lon="3.88642">
        <ele>323</ele>
        <time>2021-12-27T17:39:08Z</time>
      </trkpt>
      <trkpt lat="46.69092" lon="3.88679">
        <ele>325</ele>
        <time>2021-12-27T17:39:14Z</time>
      </trkpt>
      <trkpt lat="46.69051" lon="3.88761">
        <ele>329</ele>
        <time>2021-12-27T17:39:27Z</time>
      </trkpt>
      <trkpt lat="46.69029" lon="3.88828">
        <ele>333</ele>
        <time>2021-12-27T17:39:36Z</time>
      </trkpt>
      <trkpt lat="46.69008" lon="3.88861">
        <ele>334</ele>
        <time>2021-12-27T17:39:41Z</time>
      </trkpt>
      <trkpt lat="46.68995" lon="3.88885">
        <ele>335</ele>
        <time>2021-12-27T17:39:45Z</time>
      </trkpt>
      <trkpt lat="46.68984" lon="3.88916">
        <ele>338</ele>
        <time>2021-12-27T17:39:49Z</time>
      </trkpt>
      <trkpt lat="46.68968" lon="3.88947">
        <ele>339</ele>
        <time>2021-12-27T17:39:54Z</time>
      </trkpt>
      <trkpt lat="46.68941" lon="3.88977">
        <ele>340</ele>
        <time>2021-12-27T17:40:00Z</time>
      </trkpt>
      <trkpt lat="46.68876" lon="3.89035">
        <ele>346</ele>
        <time>2021-12-27T17:40:14Z</time>
      </trkpt>
      <trkpt lat="46.68867" lon="3.89046">
        <ele>347</ele>
        <time>2021-12-27T17:40:16Z</time>
      </trkpt>
      <trkpt lat="46.68861" lon="3.89064">
        <ele>347</ele>
        <time>2021-12-27T17:40:18Z</time>
      </trkpt>
      <trkpt lat="46.68861" lon="3.89105">
        <ele>347</ele>
        <time>2021-12-27T17:40:23Z</time>
      </trkpt>
      <trkpt lat="46.68895" lon="3.89315">
        <ele>355</ele>
        <time>2021-12-27T17:40:49Z</time>
      </trkpt>
      <trkpt lat="46.68905" lon="3.8936">
        <ele>356</ele>
        <time>2021-12-27T17:40:55Z</time>
      </trkpt>
      <trkpt lat="46.6891" lon="3.89394">
        <ele>356</ele>
        <time>2021-12-27T17:41:00Z</time>
      </trkpt>
      <trkpt lat="46.68995" lon="3.89714">
        <ele>357</ele>
        <time>2021-12-27T17:41:41Z</time>
      </trkpt>
      <trkpt lat="46.68995" lon="3.89732">
        <ele>357</ele>
        <time>2021-12-27T17:41:44Z</time>
      </trkpt>
      <trkpt lat="46.68993" lon="3.8975">
        <ele>357</ele>
        <time>2021-12-27T17:41:46Z</time>
      </trkpt>
      <trkpt lat="46.68981" lon="3.89784">
        <ele>357</ele>
        <time>2021-12-27T17:41:50Z</time>
      </trkpt>
      <trkpt lat="46.6896" lon="3.89819">
        <ele>357</ele>
        <time>2021-12-27T17:41:56Z</time>
      </trkpt>
      <trkpt lat="46.68952" lon="3.89831">
        <ele>357</ele>
        <time>2021-12-27T17:41:58Z</time>
      </trkpt>
      <trkpt lat="46.68945" lon="3.89836">
        <ele>356</ele>
        <time>2021-12-27T17:42:00Z</time>
      </trkpt>
      <trkpt lat="46.68929" lon="3.89841">
        <ele>356</ele>
        <time>2021-12-27T17:42:02Z</time>
      </trkpt>
      <trkpt lat="46.68864" lon="3.89842">
        <ele>352</ele>
        <time>2021-12-27T17:42:14Z</time>
      </trkpt>
      <trkpt lat="46.68851" lon="3.89846">
        <ele>351</ele>
        <time>2021-12-27T17:42:16Z</time>
      </trkpt>
      <trkpt lat="46.68778" lon="3.89894">
        <ele>350</ele>
        <time>2021-12-27T17:42:31Z</time>
      </trkpt>
      <trkpt lat="46.68688" lon="3.89982">
        <ele>344</ele>
        <time>2021-12-27T17:42:50Z</time>
      </trkpt>
      <trkpt lat="46.68669" lon="3.89994">
        <ele>343</ele>
        <time>2021-12-27T17:42:54Z</time>
      </trkpt>
      <trkpt lat="46.68529" lon="3.90059">
        <ele>337</ele>
        <time>2021-12-27T17:43:20Z</time>
      </trkpt>
      <trkpt lat="46.68507" lon="3.90073">
        <ele>336</ele>
        <time>2021-12-27T17:43:24Z</time>
      </trkpt>
      <trkpt lat="46.68495" lon="3.90086">
        <ele>335</ele>
        <time>2021-12-27T17:43:27Z</time>
      </trkpt>
      <trkpt lat="46.68485" lon="3.90106">
        <ele>333</ele>
        <time>2021-12-27T17:43:30Z</time>
      </trkpt>
      <trkpt lat="46.68481" lon="3.9012">
        <ele>332</ele>
        <time>2021-12-27T17:43:32Z</time>
      </trkpt>
      <trkpt lat="46.68467" lon="3.90218">
        <ele>328</ele>
        <time>2021-12-27T17:43:44Z</time>
      </trkpt>
      <trkpt lat="46.68462" lon="3.90243">
        <ele>328</ele>
        <time>2021-12-27T17:43:47Z</time>
      </trkpt>
      <trkpt lat="46.68454" lon="3.90256">
        <ele>328</ele>
        <time>2021-12-27T17:43:49Z</time>
      </trkpt>
      <trkpt lat="46.68363" lon="3.90342">
        <ele>323</ele>
        <time>2021-12-27T17:44:08Z</time>
      </trkpt>
      <trkpt lat="46.68335" lon="3.90375">
        <ele>321</ele>
        <time>2021-12-27T17:44:15Z</time>
      </trkpt>
      <trkpt lat="46.68263" lon="3.90468">
        <ele>316</ele>
        <time>2021-12-27T17:44:32Z</time>
      </trkpt>
      <trkpt lat="46.68133" lon="3.90658">
        <ele>307</ele>
        <time>2021-12-27T17:45:05Z</time>
      </trkpt>
      <trkpt lat="46.68074" lon="3.90739">
        <ele>304</ele>
        <time>2021-12-27T17:45:19Z</time>
      </trkpt>
      <trkpt lat="46.6805" lon="3.90764">
        <ele>303</ele>
        <time>2021-12-27T17:45:24Z</time>
      </trkpt>
      <trkpt lat="46.67998" lon="3.90812">
        <ele>302</ele>
        <time>2021-12-27T17:45:35Z</time>
      </trkpt>
      <trkpt lat="46.67959" lon="3.90844">
        <ele>301</ele>
        <time>2021-12-27T17:45:43Z</time>
      </trkpt>
      <trkpt lat="46.67923" lon="3.9087">
        <ele>301</ele>
        <time>2021-12-27T17:45:50Z</time>
      </trkpt>
      <trkpt lat="46.67902" lon="3.9088">
        <ele>301</ele>
        <time>2021-12-27T17:45:54Z</time>
      </trkpt>
      <trkpt lat="46.67879" lon="3.90886">
        <ele>301</ele>
        <time>2021-12-27T17:45:59Z</time>
      </trkpt>
      <trkpt lat="46.67796" lon="3.90927">
        <ele>303</ele>
        <time>2021-12-27T17:46:14Z</time>
      </trkpt>
      <trkpt lat="46.67791" lon="3.90931">
        <ele>303</ele>
        <time>2021-12-27T17:46:15Z</time>
      </trkpt>
      <trkpt lat="46.67743" lon="3.90994">
        <ele>304</ele>
        <time>2021-12-27T17:46:27Z</time>
      </trkpt>
      <trkpt lat="46.6772" lon="3.91013">
        <ele>304</ele>
        <time>2021-12-27T17:46:31Z</time>
      </trkpt>
      <trkpt lat="46.67613" lon="3.91074">
        <ele>304</ele>
        <time>2021-12-27T17:46:52Z</time>
      </trkpt>
      <trkpt lat="46.67531" lon="3.9113">
        <ele>301</ele>
        <time>2021-12-27T17:47:08Z</time>
      </trkpt>
      <trkpt lat="46.67519" lon="3.9114">
        <ele>300</ele>
        <time>2021-12-27T17:47:10Z</time>
      </trkpt>
      <trkpt lat="46.67498" lon="3.9117">
        <ele>299</ele>
        <time>2021-12-27T17:47:16Z</time>
      </trkpt>
      <trkpt lat="46.67479" lon="3.9121">
        <ele>297</ele>
        <time>2021-12-27T17:47:21Z</time>
      </trkpt>
      <trkpt lat="46.67462" lon="3.91198">
        <ele>297</ele>
        <time>2021-12-27T17:47:25Z</time>
      </trkpt>
      <trkpt lat="46.6745" lon="3.91186">
        <ele>297</ele>
        <time>2021-12-27T17:47:27Z</time>
      </trkpt>
      <trkpt lat="46.67439" lon="3.91187">
        <ele>296</ele>
        <time>2021-12-27T17:47:29Z</time>
      </trkpt>
      <trkpt lat="46.67415" lon="3.91183">
        <ele>296</ele>
        <time>2021-12-27T17:47:34Z</time>
      </trkpt>
      <trkpt lat="46.67406" lon="3.91185">
        <ele>295</ele>
        <time>2021-12-27T17:47:35Z</time>
      </trkpt>
      <trkpt lat="46.67397" lon="3.9119">
        <ele>295</ele>
        <time>2021-12-27T17:47:37Z</time>
      </trkpt>
      <trkpt lat="46.67353" lon="3.91238">
        <ele>293</ele>
        <time>2021-12-27T17:47:47Z</time>
      </trkpt>
      <trkpt lat="46.67336" lon="3.91252">
        <ele>293</ele>
        <time>2021-12-27T17:47:50Z</time>
      </trkpt>
      <trkpt lat="46.6732" lon="3.91261">
        <ele>292</ele>
        <time>2021-12-27T17:47:53Z</time>
      </trkpt>
      <trkpt lat="46.67292" lon="3.91269">
        <ele>290</ele>
        <time>2021-12-27T17:47:58Z</time>
      </trkpt>
      <trkpt lat="46.67212" lon="3.91281">
        <ele>284</ele>
        <time>2021-12-27T17:48:13Z</time>
      </trkpt>
      <trkpt lat="46.67158" lon="3.91293">
        <ele>280</ele>
        <time>2021-12-27T17:48:22Z</time>
      </trkpt>
      <trkpt lat="46.67136" lon="3.91298">
        <ele>279</ele>
        <time>2021-12-27T17:48:26Z</time>
      </trkpt>
      <trkpt lat="46.6711" lon="3.91308">
        <ele>279</ele>
        <time>2021-12-27T17:48:31Z</time>
      </trkpt>
      <trkpt lat="46.67096" lon="3.91315">
        <ele>279</ele>
        <time>2021-12-27T17:48:34Z</time>
      </trkpt>
      <trkpt lat="46.67028" lon="3.91359">
        <ele>283</ele>
        <time>2021-12-27T17:48:47Z</time>
      </trkpt>
      <trkpt lat="46.67008" lon="3.91377">
        <ele>284</ele>
        <time>2021-12-27T17:48:51Z</time>
      </trkpt>
      <trkpt lat="46.66996" lon="3.91392">
        <ele>285</ele>
        <time>2021-12-27T17:48:54Z</time>
      </trkpt>
      <trkpt lat="46.66984" lon="3.91411">
        <ele>286</ele>
        <time>2021-12-27T17:48:57Z</time>
      </trkpt>
      <trkpt lat="46.66973" lon="3.91432">
        <ele>286</ele>
        <time>2021-12-27T17:49:00Z</time>
      </trkpt>
      <trkpt lat="46.66944" lon="3.91531">
        <ele>283</ele>
        <time>2021-12-27T17:49:14Z</time>
      </trkpt>
      <trkpt lat="46.66896" lon="3.91652">
        <ele>281</ele>
        <time>2021-12-27T17:49:31Z</time>
      </trkpt>
      <trkpt lat="46.66884" lon="3.91685">
        <ele>282</ele>
        <time>2021-12-27T17:49:35Z</time>
      </trkpt>
      <trkpt lat="46.66866" lon="3.9175">
        <ele>283</ele>
        <time>2021-12-27T17:49:44Z</time>
      </trkpt>
      <trkpt lat="46.66853" lon="3.91771">
        <ele>283</ele>
        <time>2021-12-27T17:49:47Z</time>
      </trkpt>
      <trkpt lat="46.66837" lon="3.91787">
        <ele>282</ele>
        <time>2021-12-27T17:49:51Z</time>
      </trkpt>
      <trkpt lat="46.6683" lon="3.91793">
        <ele>282</ele>
        <time>2021-12-27T17:49:52Z</time>
      </trkpt>
      <trkpt lat="46.6679" lon="3.9183">
        <ele>285</ele>
        <time>2021-12-27T17:50:01Z</time>
      </trkpt>
      <trkpt lat="46.66764" lon="3.91862">
        <ele>285</ele>
        <time>2021-12-27T17:50:07Z</time>
      </trkpt>
      <trkpt lat="46.66743" lon="3.91895">
        <ele>285</ele>
        <time>2021-12-27T17:50:12Z</time>
      </trkpt>
      <trkpt lat="46.66675" lon="3.92058">
        <ele>288</ele>
        <time>2021-12-27T17:50:35Z</time>
      </trkpt>
      <trkpt lat="46.66663" lon="3.92082">
        <ele>288</ele>
        <time>2021-12-27T17:50:39Z</time>
      </trkpt>
      <trkpt lat="46.66582" lon="3.92191">
        <ele>287</ele>
        <time>2021-12-27T17:50:59Z</time>
      </trkpt>
      <trkpt lat="46.66561" lon="3.92214">
        <ele>287</ele>
        <time>2021-12-27T17:51:03Z</time>
      </trkpt>
      <trkpt lat="46.66541" lon="3.92232">
        <ele>288</ele>
        <time>2021-12-27T17:51:07Z</time>
      </trkpt>
      <trkpt lat="46.66526" lon="3.92249">
        <ele>289</ele>
        <time>2021-12-27T17:51:11Z</time>
      </trkpt>
      <trkpt lat="46.6651" lon="3.92284">
        <ele>290</ele>
        <time>2021-12-27T17:51:16Z</time>
      </trkpt>
      <trkpt lat="46.66477" lon="3.92403">
        <ele>292</ele>
        <time>2021-12-27T17:51:32Z</time>
      </trkpt>
      <trkpt lat="46.6647" lon="3.92433">
        <ele>293</ele>
        <time>2021-12-27T17:51:36Z</time>
      </trkpt>
      <trkpt lat="46.66457" lon="3.92522">
        <ele>291</ele>
        <time>2021-12-27T17:51:47Z</time>
      </trkpt>
      <trkpt lat="46.66445" lon="3.92564">
        <ele>290</ele>
        <time>2021-12-27T17:51:52Z</time>
      </trkpt>
      <trkpt lat="46.66439" lon="3.9258">
        <ele>289</ele>
        <time>2021-12-27T17:51:54Z</time>
      </trkpt>
      <trkpt lat="46.66433" lon="3.92588">
        <ele>289</ele>
        <time>2021-12-27T17:51:56Z</time>
      </trkpt>
      <trkpt lat="46.66418" lon="3.92604">
        <ele>288</ele>
        <time>2021-12-27T17:51:59Z</time>
      </trkpt>
      <trkpt lat="46.66334" lon="3.92672">
        <ele>287</ele>
        <time>2021-12-27T17:52:16Z</time>
      </trkpt>
      <trkpt lat="46.66324" lon="3.92685">
        <ele>288</ele>
        <time>2021-12-27T17:52:19Z</time>
      </trkpt>
      <trkpt lat="46.66299" lon="3.92732">
        <ele>290</ele>
        <time>2021-12-27T17:52:26Z</time>
      </trkpt>
      <trkpt lat="46.66274" lon="3.92784">
        <ele>290</ele>
        <time>2021-12-27T17:52:34Z</time>
      </trkpt>
      <trkpt lat="46.66259" lon="3.92811">
        <ele>289</ele>
        <time>2021-12-27T17:52:38Z</time>
      </trkpt>
      <trkpt lat="46.66249" lon="3.92819">
        <ele>288</ele>
        <time>2021-12-27T17:52:40Z</time>
      </trkpt>
      <trkpt lat="46.66238" lon="3.92825">
        <ele>288</ele>
        <time>2021-12-27T17:52:42Z</time>
      </trkpt>
      <trkpt lat="46.66216" lon="3.92826">
        <ele>289</ele>
        <time>2021-12-27T17:52:46Z</time>
      </trkpt>
      <trkpt lat="46.66191" lon="3.92824">
        <ele>290</ele>
        <time>2021-12-27T17:52:50Z</time>
      </trkpt>
      <trkpt lat="46.66176" lon="3.92828">
        <ele>290</ele>
        <time>2021-12-27T17:52:53Z</time>
      </trkpt>
      <trkpt lat="46.66136" lon="3.92853">
        <ele>289</ele>
        <time>2021-12-27T17:53:01Z</time>
      </trkpt>
      <trkpt lat="46.66108" lon="3.92865">
        <ele>289</ele>
        <time>2021-12-27T17:53:06Z</time>
      </trkpt>
      <trkpt lat="46.66097" lon="3.92867">
        <ele>289</ele>
        <time>2021-12-27T17:53:08Z</time>
      </trkpt>
      <trkpt lat="46.66055" lon="3.92868">
        <ele>290</ele>
        <time>2021-12-27T17:53:16Z</time>
      </trkpt>
      <trkpt lat="46.66035" lon="3.92883">
        <ele>290</ele>
        <time>2021-12-27T17:53:20Z</time>
      </trkpt>
      <trkpt lat="46.66019" lon="3.92906">
        <ele>290</ele>
        <time>2021-12-27T17:53:24Z</time>
      </trkpt>
      <trkpt lat="46.65995" lon="3.92946">
        <ele>290</ele>
        <time>2021-12-27T17:53:30Z</time>
      </trkpt>
      <trkpt lat="46.65973" lon="3.92975">
        <ele>291</ele>
        <time>2021-12-27T17:53:35Z</time>
      </trkpt>
      <trkpt lat="46.65943" lon="3.93007">
        <ele>291</ele>
        <time>2021-12-27T17:53:42Z</time>
      </trkpt>
      <trkpt lat="46.65907" lon="3.93041">
        <ele>291</ele>
        <time>2021-12-27T17:53:50Z</time>
      </trkpt>
      <trkpt lat="46.6585" lon="3.93072">
        <ele>290</ele>
        <time>2021-12-27T17:54:00Z</time>
      </trkpt>
      <trkpt lat="46.65836" lon="3.93082">
        <ele>290</ele>
        <time>2021-12-27T17:54:03Z</time>
      </trkpt>
      <trkpt lat="46.6578" lon="3.93144">
        <ele>290</ele>
        <time>2021-12-27T17:54:16Z</time>
      </trkpt>
      <trkpt lat="46.65764" lon="3.93157">
        <ele>290</ele>
        <time>2021-12-27T17:54:19Z</time>
      </trkpt>
      <trkpt lat="46.65744" lon="3.93167">
        <ele>290</ele>
        <time>2021-12-27T17:54:23Z</time>
      </trkpt>
      <trkpt lat="46.65715" lon="3.93177">
        <ele>290</ele>
        <time>2021-12-27T17:54:28Z</time>
      </trkpt>
      <trkpt lat="46.65689" lon="3.93194">
        <ele>289</ele>
        <time>2021-12-27T17:54:33Z</time>
      </trkpt>
      <trkpt lat="46.6553" lon="3.93314">
        <ele>295</ele>
        <time>2021-12-27T17:55:05Z</time>
      </trkpt>
      <trkpt lat="46.6535" lon="3.93472">
        <ele>293</ele>
        <time>2021-12-27T17:55:42Z</time>
      </trkpt>
      <trkpt lat="46.6533" lon="3.93483">
        <ele>292</ele>
        <time>2021-12-27T17:55:46Z</time>
      </trkpt>
      <trkpt lat="46.65311" lon="3.93482">
        <ele>293</ele>
        <time>2021-12-27T17:55:49Z</time>
      </trkpt>
      <trkpt lat="46.65286" lon="3.93474">
        <ele>294</ele>
        <time>2021-12-27T17:55:54Z</time>
      </trkpt>
      <trkpt lat="46.65269" lon="3.93471">
        <ele>295</ele>
        <time>2021-12-27T17:55:57Z</time>
      </trkpt>
      <trkpt lat="46.65253" lon="3.93475">
        <ele>295</ele>
        <time>2021-12-27T17:56:00Z</time>
      </trkpt>
      <trkpt lat="46.65238" lon="3.93489">
        <ele>296</ele>
        <time>2021-12-27T17:56:03Z</time>
      </trkpt>
      <trkpt lat="46.65206" lon="3.93529">
        <ele>296</ele>
        <time>2021-12-27T17:56:11Z</time>
      </trkpt>
      <trkpt lat="46.65132" lon="3.93583">
        <ele>298</ele>
        <time>2021-12-27T17:56:25Z</time>
      </trkpt>
      <trkpt lat="46.64928" lon="3.93743">
        <ele>296</ele>
        <time>2021-12-27T17:57:07Z</time>
      </trkpt>
      <trkpt lat="46.64916" lon="3.93754">
        <ele>297</ele>
        <time>2021-12-27T17:57:09Z</time>
      </trkpt>
      <trkpt lat="46.64899" lon="3.93777">
        <ele>298</ele>
        <time>2021-12-27T17:57:13Z</time>
      </trkpt>
      <trkpt lat="46.64886" lon="3.93807">
        <ele>299</ele>
        <time>2021-12-27T17:57:18Z</time>
      </trkpt>
      <trkpt lat="46.64831" lon="3.93996">
        <ele>301</ele>
        <time>2021-12-27T17:57:43Z</time>
      </trkpt>
      <trkpt lat="46.64817" lon="3.94034">
        <ele>300</ele>
        <time>2021-12-27T17:57:48Z</time>
      </trkpt>
      <trkpt lat="46.6481" lon="3.94051">
        <ele>299</ele>
        <time>2021-12-27T17:57:50Z</time>
      </trkpt>
      <trkpt lat="46.64787" lon="3.9409">
        <ele>300</ele>
        <time>2021-12-27T17:57:57Z</time>
      </trkpt>
      <trkpt lat="46.64723" lon="3.9418">
        <ele>303</ele>
        <time>2021-12-27T17:58:12Z</time>
      </trkpt>
      <trkpt lat="46.64709" lon="3.94211">
        <ele>303</ele>
        <time>2021-12-27T17:58:17Z</time>
      </trkpt>
      <trkpt lat="46.64703" lon="3.94231">
        <ele>302</ele>
        <time>2021-12-27T17:58:20Z</time>
      </trkpt>
      <trkpt lat="46.64688" lon="3.94388">
        <ele>305</ele>
        <time>2021-12-27T17:58:39Z</time>
      </trkpt>
      <trkpt lat="46.64672" lon="3.94454">
        <ele>306</ele>
        <time>2021-12-27T17:58:48Z</time>
      </trkpt>
      <trkpt lat="46.64671" lon="3.94466">
        <ele>306</ele>
        <time>2021-12-27T17:58:49Z</time>
      </trkpt>
      <trkpt lat="46.64675" lon="3.94517">
        <ele>305</ele>
        <time>2021-12-27T17:58:55Z</time>
      </trkpt>
      <trkpt lat="46.64674" lon="3.94534">
        <ele>306</ele>
        <time>2021-12-27T17:58:57Z</time>
      </trkpt>
      <trkpt lat="46.64665" lon="3.94592">
        <ele>309</ele>
        <time>2021-12-27T17:59:05Z</time>
      </trkpt>
      <trkpt lat="46.64663" lon="3.94614">
        <ele>310</ele>
        <time>2021-12-27T17:59:07Z</time>
      </trkpt>
      <trkpt lat="46.64668" lon="3.94807">
        <ele>313</ele>
        <time>2021-12-27T17:59:31Z</time>
      </trkpt>
      <trkpt lat="46.64674" lon="3.94872">
        <ele>313</ele>
        <time>2021-12-27T17:59:39Z</time>
      </trkpt>
      <trkpt lat="46.64672" lon="3.94894">
        <ele>313</ele>
        <time>2021-12-27T17:59:42Z</time>
      </trkpt>
      <trkpt lat="46.64668" lon="3.94911">
        <ele>314</ele>
        <time>2021-12-27T17:59:44Z</time>
      </trkpt>
      <trkpt lat="46.6466" lon="3.94933">
        <ele>316</ele>
        <time>2021-12-27T17:59:47Z</time>
      </trkpt>
      <trkpt lat="46.64595" lon="3.95019">
        <ele>320</ele>
        <time>2021-12-27T18:00:03Z</time>
      </trkpt>
      <trkpt lat="46.64581" lon="3.95035">
        <ele>320</ele>
        <time>2021-12-27T18:00:06Z</time>
      </trkpt>
      <trkpt lat="46.64568" lon="3.95045">
        <ele>321</ele>
        <time>2021-12-27T18:00:08Z</time>
      </trkpt>
      <trkpt lat="46.64547" lon="3.95055">
        <ele>323</ele>
        <time>2021-12-27T18:00:12Z</time>
      </trkpt>
      <trkpt lat="46.64486" lon="3.95075">
        <ele>327</ele>
        <time>2021-12-27T18:00:23Z</time>
      </trkpt>
      <trkpt lat="46.64408" lon="3.95107">
        <ele>330</ele>
        <time>2021-12-27T18:00:38Z</time>
      </trkpt>
      <trkpt lat="46.64397" lon="3.95118">
        <ele>329</ele>
        <time>2021-12-27T18:00:40Z</time>
      </trkpt>
      <trkpt lat="46.64362" lon="3.95159">
        <ele>327</ele>
        <time>2021-12-27T18:00:48Z</time>
      </trkpt>
      <trkpt lat="46.64347" lon="3.95171">
        <ele>326</ele>
        <time>2021-12-27T18:00:51Z</time>
      </trkpt>
      <trkpt lat="46.64335" lon="3.95177">
        <ele>325</ele>
        <time>2021-12-27T18:00:53Z</time>
      </trkpt>
      <trkpt lat="46.64323" lon="3.95178">
        <ele>325</ele>
        <time>2021-12-27T18:00:56Z</time>
      </trkpt>
      <trkpt lat="46.64286" lon="3.95169">
        <ele>324</ele>
        <time>2021-12-27T18:01:02Z</time>
      </trkpt>
      <trkpt lat="46.64271" lon="3.95171">
        <ele>323</ele>
        <time>2021-12-27T18:01:05Z</time>
      </trkpt>
      <trkpt lat="46.6426" lon="3.95175">
        <ele>323</ele>
        <time>2021-12-27T18:01:07Z</time>
      </trkpt>
      <trkpt lat="46.64211" lon="3.95214">
        <ele>325</ele>
        <time>2021-12-27T18:01:17Z</time>
      </trkpt>
      <trkpt lat="46.64201" lon="3.9523">
        <ele>325</ele>
        <time>2021-12-27T18:01:20Z</time>
      </trkpt>
      <trkpt lat="46.64194" lon="3.95247">
        <ele>325</ele>
        <time>2021-12-27T18:01:22Z</time>
      </trkpt>
      <trkpt lat="46.64189" lon="3.95271">
        <ele>325</ele>
        <time>2021-12-27T18:01:25Z</time>
      </trkpt>
      <trkpt lat="46.64187" lon="3.9534">
        <ele>325</ele>
        <time>2021-12-27T18:01:33Z</time>
      </trkpt>
      <trkpt lat="46.64184" lon="3.95363">
        <ele>325</ele>
        <time>2021-12-27T18:01:36Z</time>
      </trkpt>
      <trkpt lat="46.64178" lon="3.95383">
        <ele>326</ele>
        <time>2021-12-27T18:01:39Z</time>
      </trkpt>
      <trkpt lat="46.6417" lon="3.95401">
        <ele>326</ele>
        <time>2021-12-27T18:01:42Z</time>
      </trkpt>
      <trkpt lat="46.64055" lon="3.95565">
        <ele>336</ele>
        <time>2021-12-27T18:02:10Z</time>
      </trkpt>
      <trkpt lat="46.64036" lon="3.95597">
        <ele>336</ele>
        <time>2021-12-27T18:02:15Z</time>
      </trkpt>
      <trkpt lat="46.64027" lon="3.95618">
        <ele>336</ele>
        <time>2021-12-27T18:02:18Z</time>
      </trkpt>
      <trkpt lat="46.64008" lon="3.95702">
        <ele>336</ele>
        <time>2021-12-27T18:02:29Z</time>
      </trkpt>
      <trkpt lat="46.64" lon="3.95724">
        <ele>336</ele>
        <time>2021-12-27T18:02:32Z</time>
      </trkpt>
      <trkpt lat="46.63991" lon="3.95736">
        <ele>336</ele>
        <time>2021-12-27T18:02:34Z</time>
      </trkpt>
      <trkpt lat="46.63979" lon="3.95744">
        <ele>337</ele>
        <time>2021-12-27T18:02:37Z</time>
      </trkpt>
      <trkpt lat="46.6395" lon="3.95738">
        <ele>339</ele>
        <time>2021-12-27T18:02:42Z</time>
      </trkpt>
      <trkpt lat="46.63936" lon="3.95739">
        <ele>340</ele>
        <time>2021-12-27T18:02:45Z</time>
      </trkpt>
      <trkpt lat="46.63919" lon="3.95748">
        <ele>342</ele>
        <time>2021-12-27T18:02:48Z</time>
      </trkpt>
      <trkpt lat="46.63888" lon="3.95772">
        <ele>344</ele>
        <time>2021-12-27T18:02:54Z</time>
      </trkpt>
      <trkpt lat="46.63858" lon="3.95805">
        <ele>345</ele>
        <time>2021-12-27T18:03:01Z</time>
      </trkpt>
      <trkpt lat="46.63832" lon="3.95827">
        <ele>345</ele>
        <time>2021-12-27T18:03:06Z</time>
      </trkpt>
      <trkpt lat="46.638" lon="3.9584">
        <ele>346</ele>
        <time>2021-12-27T18:03:12Z</time>
      </trkpt>
      <trkpt lat="46.63789" lon="3.95849">
        <ele>346</ele>
        <time>2021-12-27T18:03:14Z</time>
      </trkpt>
      <trkpt lat="46.63778" lon="3.95862">
        <ele>346</ele>
        <time>2021-12-27T18:03:17Z</time>
      </trkpt>
      <trkpt lat="46.63771" lon="3.95876">
        <ele>346</ele>
        <time>2021-12-27T18:03:19Z</time>
      </trkpt>
      <trkpt lat="46.63766" lon="3.95894">
        <ele>346</ele>
        <time>2021-12-27T18:03:21Z</time>
      </trkpt>
      <trkpt lat="46.6375" lon="3.95968">
        <ele>345</ele>
        <time>2021-12-27T18:03:31Z</time>
      </trkpt>
      <trkpt lat="46.6373" lon="3.96038">
        <ele>346</ele>
        <time>2021-12-27T18:03:40Z</time>
      </trkpt>
      <trkpt lat="46.63723" lon="3.96056">
        <ele>346</ele>
        <time>2021-12-27T18:03:42Z</time>
      </trkpt>
      <trkpt lat="46.63664" lon="3.96155">
        <ele>347</ele>
        <time>2021-12-27T18:03:58Z</time>
      </trkpt>
      <trkpt lat="46.63654" lon="3.96177">
        <ele>347</ele>
        <time>2021-12-27T18:04:02Z</time>
      </trkpt>
      <trkpt lat="46.63645" lon="3.96205">
        <ele>348</ele>
        <time>2021-12-27T18:04:05Z</time>
      </trkpt>
      <trkpt lat="46.63576" lon="3.96587">
        <ele>359</ele>
        <time>2021-12-27T18:04:54Z</time>
      </trkpt>
      <trkpt lat="46.63567" lon="3.96613">
        <ele>359</ele>
        <time>2021-12-27T18:04:57Z</time>
      </trkpt>
      <trkpt lat="46.63435" lon="3.96883">
        <ele>365</ele>
        <time>2021-12-27T18:05:38Z</time>
      </trkpt>
      <trkpt lat="46.63421" lon="3.96908">
        <ele>365</ele>
        <time>2021-12-27T18:05:42Z</time>
      </trkpt>
      <trkpt lat="46.63395" lon="3.9693">
        <ele>366</ele>
        <time>2021-12-27T18:05:47Z</time>
      </trkpt>
      <trkpt lat="46.63364" lon="3.96942">
        <ele>368</ele>
        <time>2021-12-27T18:05:53Z</time>
      </trkpt>
      <trkpt lat="46.63341" lon="3.96946">
        <ele>369</ele>
        <time>2021-12-27T18:05:57Z</time>
      </trkpt>
      <trkpt lat="46.63317" lon="3.96954">
        <ele>369</ele>
        <time>2021-12-27T18:06:01Z</time>
      </trkpt>
      <trkpt lat="46.63307" lon="3.96965">
        <ele>369</ele>
        <time>2021-12-27T18:06:04Z</time>
      </trkpt>
      <trkpt lat="46.63293" lon="3.96984">
        <ele>369</ele>
        <time>2021-12-27T18:06:07Z</time>
      </trkpt>
      <trkpt lat="46.63211" lon="3.97161">
        <ele>371</ele>
        <time>2021-12-27T18:06:33Z</time>
      </trkpt>
      <trkpt lat="46.63193" lon="3.97187">
        <ele>371</ele>
        <time>2021-12-27T18:06:38Z</time>
      </trkpt>
      <trkpt lat="46.6312" lon="3.97263">
        <ele>374</ele>
        <time>2021-12-27T18:06:53Z</time>
      </trkpt>
      <trkpt lat="46.631" lon="3.97275">
        <ele>375</ele>
        <time>2021-12-27T18:06:57Z</time>
      </trkpt>
      <trkpt lat="46.63054" lon="3.97285">
        <ele>377</ele>
        <time>2021-12-27T18:07:06Z</time>
      </trkpt>
      <trkpt lat="46.63026" lon="3.97287">
        <ele>379</ele>
        <time>2021-12-27T18:07:11Z</time>
      </trkpt>
      <trkpt lat="46.62816" lon="3.97268">
        <ele>373</ele>
        <time>2021-12-27T18:07:48Z</time>
      </trkpt>
      <trkpt lat="46.62806" lon="3.97356">
        <ele>372</ele>
        <time>2021-12-27T18:07:59Z</time>
      </trkpt>
      <trkpt lat="46.62806" lon="3.97376">
        <ele>372</ele>
        <time>2021-12-27T18:08:01Z</time>
      </trkpt>
      <trkpt lat="46.6281" lon="3.97395">
        <ele>372</ele>
        <time>2021-12-27T18:08:04Z</time>
      </trkpt>
      <trkpt lat="46.62847" lon="3.97494">
        <ele>377</ele>
        <time>2021-12-27T18:08:18Z</time>
      </trkpt>
      <trkpt lat="46.62778" lon="3.97572">
        <ele>374</ele>
        <time>2021-12-27T18:08:33Z</time>
      </trkpt>
      <trkpt lat="46.62771" lon="3.97587">
        <ele>374</ele>
        <time>2021-12-27T18:08:35Z</time>
      </trkpt>
      <trkpt lat="46.62713" lon="3.97835">
        <ele>365</ele>
        <time>2021-12-27T18:09:07Z</time>
      </trkpt>
      <trkpt lat="46.62708" lon="3.9787">
        <ele>364</ele>
        <time>2021-12-27T18:09:12Z</time>
      </trkpt>
      <trkpt lat="46.62706" lon="3.97911">
        <ele>363</ele>
        <time>2021-12-27T18:09:17Z</time>
      </trkpt>
      <trkpt lat="46.62713" lon="3.97985">
        <ele>363</ele>
        <time>2021-12-27T18:09:26Z</time>
      </trkpt>
      <trkpt lat="46.62711" lon="3.98015">
        <ele>362</ele>
        <time>2021-12-27T18:09:30Z</time>
      </trkpt>
      <trkpt lat="46.62704" lon="3.98053">
        <ele>362</ele>
        <time>2021-12-27T18:09:34Z</time>
      </trkpt>
      <trkpt lat="46.62667" lon="3.98181">
        <ele>361</ele>
        <time>2021-12-27T18:09:51Z</time>
      </trkpt>
      <trkpt lat="46.62661" lon="3.98195">
        <ele>360</ele>
        <time>2021-12-27T18:09:53Z</time>
      </trkpt>
      <trkpt lat="46.62647" lon="3.98209">
        <ele>359</ele>
        <time>2021-12-27T18:09:56Z</time>
      </trkpt>
      <trkpt lat="46.62623" lon="3.98216">
        <ele>358</ele>
        <time>2021-12-27T18:10:01Z</time>
      </trkpt>
      <trkpt lat="46.62589" lon="3.98215">
        <ele>359</ele>
        <time>2021-12-27T18:10:07Z</time>
      </trkpt>
      <trkpt lat="46.62573" lon="3.98221">
        <ele>358</ele>
        <time>2021-12-27T18:10:10Z</time>
      </trkpt>
      <trkpt lat="46.62566" lon="3.98229">
        <ele>358</ele>
        <time>2021-12-27T18:10:11Z</time>
      </trkpt>
      <trkpt lat="46.62555" lon="3.98253">
        <ele>357</ele>
        <time>2021-12-27T18:10:15Z</time>
      </trkpt>
      <trkpt lat="46.6255" lon="3.98285">
        <ele>356</ele>
        <time>2021-12-27T18:10:19Z</time>
      </trkpt>
      <trkpt lat="46.62537" lon="3.98434">
        <ele>348</ele>
        <time>2021-12-27T18:10:37Z</time>
      </trkpt>
      <trkpt lat="46.62533" lon="3.98461">
        <ele>346</ele>
        <time>2021-12-27T18:10:41Z</time>
      </trkpt>
      <trkpt lat="46.62501" lon="3.98612">
        <ele>338</ele>
        <time>2021-12-27T18:11:00Z</time>
      </trkpt>
      <trkpt lat="46.62489" lon="3.98693">
        <ele>334</ele>
        <time>2021-12-27T18:11:10Z</time>
      </trkpt>
      <trkpt lat="46.62486" lon="3.98703">
        <ele>333</ele>
        <time>2021-12-27T18:11:11Z</time>
      </trkpt>
      <trkpt lat="46.62478" lon="3.98718">
        <ele>332</ele>
        <time>2021-12-27T18:11:14Z</time>
      </trkpt>
      <trkpt lat="46.62469" lon="3.98728">
        <ele>332</ele>
        <time>2021-12-27T18:11:16Z</time>
      </trkpt>
      <trkpt lat="46.62454" lon="3.98738">
        <ele>331</ele>
        <time>2021-12-27T18:11:19Z</time>
      </trkpt>
      <trkpt lat="46.62434" lon="3.98745">
        <ele>331</ele>
        <time>2021-12-27T18:11:22Z</time>
      </trkpt>
      <trkpt lat="46.62399" lon="3.98743">
        <ele>332</ele>
        <time>2021-12-27T18:11:28Z</time>
      </trkpt>
      <trkpt lat="46.62387" lon="3.98748">
        <ele>331</ele>
        <time>2021-12-27T18:11:31Z</time>
      </trkpt>
      <trkpt lat="46.62377" lon="3.98763">
        <ele>331</ele>
        <time>2021-12-27T18:11:33Z</time>
      </trkpt>
      <trkpt lat="46.62372" lon="3.98778">
        <ele>330</ele>
        <time>2021-12-27T18:11:35Z</time>
      </trkpt>
      <trkpt lat="46.62375" lon="3.98802">
        <ele>329</ele>
        <time>2021-12-27T18:11:38Z</time>
      </trkpt>
      <trkpt lat="46.62395" lon="3.98907">
        <ele>326</ele>
        <time>2021-12-27T18:11:52Z</time>
      </trkpt>
      <trkpt lat="46.62425" lon="3.99078">
        <ele>322</ele>
        <time>2021-12-27T18:12:13Z</time>
      </trkpt>
      <trkpt lat="46.62428" lon="3.99114">
        <ele>321</ele>
        <time>2021-12-27T18:12:18Z</time>
      </trkpt>
      <trkpt lat="46.62426" lon="3.99139">
        <ele>321</ele>
        <time>2021-12-27T18:12:21Z</time>
      </trkpt>
      <trkpt lat="46.6242" lon="3.9917">
        <ele>321</ele>
        <time>2021-12-27T18:12:25Z</time>
      </trkpt>
      <trkpt lat="46.62381" lon="3.99306">
        <ele>316</ele>
        <time>2021-12-27T18:12:43Z</time>
      </trkpt>
      <trkpt lat="46.62381" lon="3.99357">
        <ele>315</ele>
        <time>2021-12-27T18:12:49Z</time>
      </trkpt>
      <trkpt lat="46.62375" lon="3.99459">
        <ele>316</ele>
        <time>2021-12-27T18:13:01Z</time>
      </trkpt>
      <trkpt lat="46.62375" lon="3.99509">
        <ele>317</ele>
        <time>2021-12-27T18:13:07Z</time>
      </trkpt>
      <trkpt lat="46.6239" lon="3.99617">
        <ele>320</ele>
        <time>2021-12-27T18:13:21Z</time>
      </trkpt>
      <trkpt lat="46.62392" lon="3.99657">
        <ele>320</ele>
        <time>2021-12-27T18:13:26Z</time>
      </trkpt>
      <trkpt lat="46.62391" lon="3.9971">
        <ele>321</ele>
        <time>2021-12-27T18:13:32Z</time>
      </trkpt>
      <trkpt lat="46.62388" lon="3.99747">
        <ele>321</ele>
        <time>2021-12-27T18:13:37Z</time>
      </trkpt>
      <trkpt lat="46.6237" lon="3.99893">
        <ele>322</ele>
        <time>2021-12-27T18:13:55Z</time>
      </trkpt>
      <trkpt lat="46.62316" lon="4.00042">
        <ele>330</ele>
        <time>2021-12-27T18:14:16Z</time>
      </trkpt>
      <trkpt lat="46.62307" lon="4.00107">
        <ele>332</ele>
        <time>2021-12-27T18:14:24Z</time>
      </trkpt>
      <trkpt lat="46.62305" lon="4.00156">
        <ele>332</ele>
        <time>2021-12-27T18:14:30Z</time>
      </trkpt>
      <trkpt lat="46.623" lon="4.00205">
        <ele>331</ele>
        <time>2021-12-27T18:14:36Z</time>
      </trkpt>
      <trkpt lat="46.62294" lon="4.00283">
        <ele>329</ele>
        <time>2021-12-27T18:14:45Z</time>
      </trkpt>
      <trkpt lat="46.62293" lon="4.00346">
        <ele>327</ele>
        <time>2021-12-27T18:14:53Z</time>
      </trkpt>
      <trkpt lat="46.62283" lon="4.00507">
        <ele>322</ele>
        <time>2021-12-27T18:15:13Z</time>
      </trkpt>
      <trkpt lat="46.62247" lon="4.00783">
        <ele>323</ele>
        <time>2021-12-27T18:15:47Z</time>
      </trkpt>
      <trkpt lat="46.6224" lon="4.00815">
        <ele>323</ele>
        <time>2021-12-27T18:15:51Z</time>
      </trkpt>
      <trkpt lat="46.62223" lon="4.00863">
        <ele>322</ele>
        <time>2021-12-27T18:15:58Z</time>
      </trkpt>
      <trkpt lat="46.62155" lon="4.0096">
        <ele>318</ele>
        <time>2021-12-27T18:16:15Z</time>
      </trkpt>
      <trkpt lat="46.62107" lon="4.01019">
        <ele>316</ele>
        <time>2021-12-27T18:16:26Z</time>
      </trkpt>
      <trkpt lat="46.62059" lon="4.01067">
        <ele>316</ele>
        <time>2021-12-27T18:16:36Z</time>
      </trkpt>
      <trkpt lat="46.62052" lon="4.01078">
        <ele>316</ele>
        <time>2021-12-27T18:16:38Z</time>
      </trkpt>
      <trkpt lat="46.62047" lon="4.01091">
        <ele>316</ele>
        <time>2021-12-27T18:16:40Z</time>
      </trkpt>
      <trkpt lat="46.62041" lon="4.01123">
        <ele>317</ele>
        <time>2021-12-27T18:16:44Z</time>
      </trkpt>
      <trkpt lat="46.62037" lon="4.01208">
        <ele>318</ele>
        <time>2021-12-27T18:16:54Z</time>
      </trkpt>
      <trkpt lat="46.62026" lon="4.01326">
        <ele>315</ele>
        <time>2021-12-27T18:17:09Z</time>
      </trkpt>
      <trkpt lat="46.62024" lon="4.0137">
        <ele>314</ele>
        <time>2021-12-27T18:17:14Z</time>
      </trkpt>
      <trkpt lat="46.62017" lon="4.01416">
        <ele>312</ele>
        <time>2021-12-27T18:17:20Z</time>
      </trkpt>
      <trkpt lat="46.62" lon="4.01465">
        <ele>309</ele>
        <time>2021-12-27T18:17:27Z</time>
      </trkpt>
      <trkpt lat="46.62006" lon="4.01497">
        <ele>307</ele>
        <time>2021-12-27T18:17:31Z</time>
      </trkpt>
      <trkpt lat="46.62012" lon="4.01522">
        <ele>306</ele>
        <time>2021-12-27T18:17:34Z</time>
      </trkpt>
      <trkpt lat="46.62016" lon="4.01544">
        <ele>305</ele>
        <time>2021-12-27T18:17:37Z</time>
      </trkpt>
      <trkpt lat="46.62017" lon="4.01562">
        <ele>304</ele>
        <time>2021-12-27T18:17:39Z</time>
      </trkpt>
      <trkpt lat="46.62014" lon="4.01579">
        <ele>303</ele>
        <time>2021-12-27T18:17:41Z</time>
      </trkpt>
      <trkpt lat="46.62007" lon="4.01595">
        <ele>302</ele>
        <time>2021-12-27T18:17:44Z</time>
      </trkpt>
      <trkpt lat="46.61993" lon="4.0161">
        <ele>302</ele>
        <time>2021-12-27T18:17:47Z</time>
      </trkpt>
      <trkpt lat="46.61981" lon="4.01631">
        <ele>302</ele>
        <time>2021-12-27T18:17:50Z</time>
      </trkpt>
      <trkpt lat="46.61977" lon="4.0165">
        <ele>302</ele>
        <time>2021-12-27T18:17:52Z</time>
      </trkpt>
      <trkpt lat="46.61979" lon="4.01674">
        <ele>301</ele>
        <time>2021-12-27T18:17:55Z</time>
      </trkpt>
      <trkpt lat="46.61988" lon="4.01717">
        <ele>297</ele>
        <time>2021-12-27T18:18:01Z</time>
      </trkpt>
      <trkpt lat="46.6199" lon="4.01739">
        <ele>295</ele>
        <time>2021-12-27T18:18:04Z</time>
      </trkpt>
      <trkpt lat="46.61987" lon="4.01757">
        <ele>295</ele>
        <time>2021-12-27T18:18:06Z</time>
      </trkpt>
      <trkpt lat="46.61978" lon="4.0177">
        <ele>296</ele>
        <time>2021-12-27T18:18:08Z</time>
      </trkpt>
      <trkpt lat="46.61958" lon="4.01791">
        <ele>298</ele>
        <time>2021-12-27T18:18:12Z</time>
      </trkpt>
      <trkpt lat="46.61956" lon="4.01802">
        <ele>298</ele>
        <time>2021-12-27T18:18:14Z</time>
      </trkpt>
      <trkpt lat="46.61957" lon="4.01809">
        <ele>297</ele>
        <time>2021-12-27T18:18:15Z</time>
      </trkpt>
      <trkpt lat="46.61963" lon="4.01819">
        <ele>296</ele>
        <time>2021-12-27T18:18:16Z</time>
      </trkpt>
      <trkpt lat="46.61977" lon="4.0183">
        <ele>294</ele>
        <time>2021-12-27T18:18:19Z</time>
      </trkpt>
      <trkpt lat="46.62001" lon="4.01846">
        <ele>290</ele>
        <time>2021-12-27T18:18:24Z</time>
      </trkpt>
      <trkpt lat="46.62026" lon="4.01872">
        <ele>289</ele>
        <time>2021-12-27T18:18:29Z</time>
      </trkpt>
      <trkpt lat="46.62051" lon="4.01923">
        <ele>286</ele>
        <time>2021-12-27T18:18:37Z</time>
      </trkpt>
      <trkpt lat="46.62092" lon="4.01984">
        <ele>282</ele>
        <time>2021-12-27T18:18:47Z</time>
      </trkpt>
      <trkpt lat="46.6213" lon="4.0205">
        <ele>282</ele>
        <time>2021-12-27T18:18:58Z</time>
      </trkpt>
      <trkpt lat="46.62144" lon="4.02057">
        <ele>281</ele>
        <time>2021-12-27T18:19:01Z</time>
      </trkpt>
      <trkpt lat="46.62164" lon="4.0206">
        <ele>280</ele>
        <time>2021-12-27T18:19:04Z</time>
      </trkpt>
      <trkpt lat="46.62174" lon="4.02067">
        <ele>280</ele>
        <time>2021-12-27T18:19:06Z</time>
      </trkpt>
      <trkpt lat="46.62188" lon="4.02086">
        <ele>279</ele>
        <time>2021-12-27T18:19:10Z</time>
      </trkpt>
      <trkpt lat="46.62204" lon="4.02119">
        <ele>276</ele>
        <time>2021-12-27T18:19:15Z</time>
      </trkpt>
      <trkpt lat="46.62206" lon="4.02139">
        <ele>275</ele>
        <time>2021-12-27T18:19:17Z</time>
      </trkpt>
      <trkpt lat="46.62204" lon="4.02169">
        <ele>274</ele>
        <time>2021-12-27T18:19:21Z</time>
      </trkpt>
      <trkpt lat="46.62183" lon="4.02221">
        <ele>274</ele>
        <time>2021-12-27T18:19:28Z</time>
      </trkpt>
      <trkpt lat="46.62163" lon="4.02293">
        <ele>272</ele>
        <time>2021-12-27T18:19:38Z</time>
      </trkpt>
      <trkpt lat="46.62153" lon="4.02319">
        <ele>272</ele>
        <time>2021-12-27T18:19:41Z</time>
      </trkpt>
      <trkpt lat="46.62087" lon="4.02419">
        <ele>271</ele>
        <time>2021-12-27T18:19:58Z</time>
      </trkpt>
      <trkpt lat="46.61958" lon="4.0254">
        <ele>269</ele>
        <time>2021-12-27T18:20:25Z</time>
      </trkpt>
      <trkpt lat="46.6193" lon="4.02572">
        <ele>267</ele>
        <time>2021-12-27T18:20:32Z</time>
      </trkpt>
      <trkpt lat="46.61909" lon="4.02602">
        <ele>266</ele>
        <time>2021-12-27T18:20:37Z</time>
      </trkpt>
      <trkpt lat="46.61892" lon="4.0263">
        <ele>266</ele>
        <time>2021-12-27T18:20:42Z</time>
      </trkpt>
      <trkpt lat="46.61821" lon="4.02764">
        <ele>266</ele>
        <time>2021-12-27T18:21:02Z</time>
      </trkpt>
      <trkpt lat="46.61808" lon="4.02784">
        <ele>266</ele>
        <time>2021-12-27T18:21:06Z</time>
      </trkpt>
      <trkpt lat="46.61771" lon="4.02808">
        <ele>268</ele>
        <time>2021-12-27T18:21:13Z</time>
      </trkpt>
      <trkpt lat="46.61672" lon="4.02917">
        <ele>270</ele>
        <time>2021-12-27T18:21:35Z</time>
      </trkpt>
      <trkpt lat="46.61657" lon="4.02938">
        <ele>271</ele>
        <time>2021-12-27T18:21:39Z</time>
      </trkpt>
      <trkpt lat="46.61634" lon="4.0298">
        <ele>271</ele>
        <time>2021-12-27T18:21:45Z</time>
      </trkpt>
      <trkpt lat="46.61606" lon="4.03045">
        <ele>270</ele>
        <time>2021-12-27T18:21:55Z</time>
      </trkpt>
      <trkpt lat="46.61579" lon="4.03095">
        <ele>266</ele>
        <time>2021-12-27T18:22:02Z</time>
      </trkpt>
      <trkpt lat="46.61532" lon="4.03155">
        <ele>262</ele>
        <time>2021-12-27T18:22:13Z</time>
      </trkpt>
      <trkpt lat="46.6147" lon="4.03239">
        <ele>259</ele>
        <time>2021-12-27T18:22:28Z</time>
      </trkpt>
      <trkpt lat="46.61442" lon="4.03275">
        <ele>260</ele>
        <time>2021-12-27T18:22:35Z</time>
      </trkpt>
      <trkpt lat="46.61412" lon="4.03323">
        <ele>261</ele>
        <time>2021-12-27T18:22:43Z</time>
      </trkpt>
      <trkpt lat="46.61401" lon="4.03351">
        <ele>262</ele>
        <time>2021-12-27T18:22:47Z</time>
      </trkpt>
      <trkpt lat="46.6136" lon="4.03537">
        <ele>261</ele>
        <time>2021-12-27T18:23:11Z</time>
      </trkpt>
      <trkpt lat="46.61352" lon="4.03564">
        <ele>259</ele>
        <time>2021-12-27T18:23:14Z</time>
      </trkpt>
      <trkpt lat="46.61311" lon="4.03658">
        <ele>259</ele>
        <time>2021-12-27T18:23:28Z</time>
      </trkpt>
      <trkpt lat="46.61214" lon="4.0383">
        <ele>258</ele>
        <time>2021-12-27T18:23:55Z</time>
      </trkpt>
      <trkpt lat="46.6118" lon="4.03884">
        <ele>258</ele>
        <time>2021-12-27T18:24:04Z</time>
      </trkpt>
      <trkpt lat="46.61144" lon="4.03951">
        <ele>254</ele>
        <time>2021-12-27T18:24:15Z</time>
      </trkpt>
      <trkpt lat="46.61122" lon="4.03981">
        <ele>252</ele>
        <time>2021-12-27T18:24:20Z</time>
      </trkpt>
      <trkpt lat="46.61078" lon="4.04018">
        <ele>250</ele>
        <time>2021-12-27T18:24:29Z</time>
      </trkpt>
      <trkpt lat="46.61062" lon="4.04039">
        <ele>249</ele>
        <time>2021-12-27T18:24:33Z</time>
      </trkpt>
      <trkpt lat="46.60985" lon="4.04193">
        <ele>248</ele>
        <time>2021-12-27T18:24:56Z</time>
      </trkpt>
      <trkpt lat="46.60939" lon="4.04258">
        <ele>248</ele>
        <time>2021-12-27T18:25:08Z</time>
      </trkpt>
      <trkpt lat="46.60864" lon="4.04346">
        <ele>247</ele>
        <time>2021-12-27T18:25:25Z</time>
      </trkpt>
      <trkpt lat="46.60845" lon="4.04371">
        <ele>246</ele>
        <time>2021-12-27T18:25:29Z</time>
      </trkpt>
      <trkpt lat="46.60832" lon="4.04406">
        <ele>245</ele>
        <time>2021-12-27T18:25:34Z</time>
      </trkpt>
      <trkpt lat="46.60756" lon="4.04626">
        <ele>244</ele>
        <time>2021-12-27T18:26:04Z</time>
      </trkpt>
      <trkpt lat="46.60743" lon="4.04662">
        <ele>243</ele>
        <time>2021-12-27T18:26:09Z</time>
      </trkpt>
      <trkpt lat="46.60734" lon="4.04674">
        <ele>243</ele>
        <time>2021-12-27T18:26:11Z</time>
      </trkpt>
      <trkpt lat="46.60678" lon="4.04699">
        <ele>245</ele>
        <time>2021-12-27T18:26:22Z</time>
      </trkpt>
      <trkpt lat="46.60456" lon="4.04796">
        <ele>244</ele>
        <time>2021-12-27T18:27:03Z</time>
      </trkpt>
      <trkpt lat="46.60335" lon="4.04845">
        <ele>244</ele>
        <time>2021-12-27T18:27:25Z</time>
      </trkpt>
      <trkpt lat="46.60135" lon="4.04932">
        <ele>242</ele>
        <time>2021-12-27T18:28:03Z</time>
      </trkpt>
      <trkpt lat="46.60113" lon="4.04939">
        <ele>242</ele>
        <time>2021-12-27T18:28:07Z</time>
      </trkpt>
      <trkpt lat="46.60109" lon="4.04944">
        <ele>243</ele>
        <time>2021-12-27T18:28:07Z</time>
      </trkpt>
      <trkpt lat="46.60111" lon="4.04971">
        <ele>243</ele>
        <time>2021-12-27T18:28:11Z</time>
      </trkpt>
      <trkpt lat="46.60114" lon="4.04975">
        <ele>243</ele>
        <time>2021-12-27T18:28:12Z</time>
      </trkpt>
      <trkpt lat="46.60111" lon="4.04987">
        <ele>243</ele>
        <time>2021-12-27T18:28:13Z</time>
      </trkpt>
      <trkpt lat="46.60043" lon="4.05133">
        <ele>241</ele>
        <time>2021-12-27T18:28:35Z</time>
      </trkpt>
      <trkpt lat="46.60033" lon="4.05146">
        <ele>241</ele>
        <time>2021-12-27T18:28:37Z</time>
      </trkpt>
      <trkpt lat="46.59991" lon="4.05176">
        <ele>241</ele>
        <time>2021-12-27T18:28:45Z</time>
      </trkpt>
      <trkpt lat="46.59889" lon="4.05165">
        <ele>242</ele>
        <time>2021-12-27T18:29:04Z</time>
      </trkpt>
      <trkpt lat="46.59887" lon="4.05157">
        <ele>242</ele>
        <time>2021-12-27T18:29:05Z</time>
      </trkpt>
      <trkpt lat="46.59884" lon="4.05154">
        <ele>242</ele>
        <time>2021-12-27T18:29:05Z</time>
      </trkpt>
      <trkpt lat="46.5988" lon="4.05154">
        <ele>242</ele>
        <time>2021-12-27T18:29:06Z</time>
      </trkpt>
      <trkpt lat="46.59876" lon="4.05156">
        <ele>242</ele>
        <time>2021-12-27T18:29:07Z</time>
      </trkpt>
      <trkpt lat="46.59874" lon="4.05164">
        <ele>242</ele>
        <time>2021-12-27T18:29:08Z</time>
      </trkpt>
      <trkpt lat="46.59876" lon="4.05173">
        <ele>242</ele>
        <time>2021-12-27T18:29:09Z</time>
      </trkpt>
      <trkpt lat="46.59879" lon="4.05176">
        <ele>242</ele>
        <time>2021-12-27T18:29:10Z</time>
      </trkpt>
      <trkpt lat="46.59884" lon="4.05175">
        <ele>242</ele>
        <time>2021-12-27T18:29:10Z</time>
      </trkpt>
      <trkpt lat="46.59894" lon="4.05197">
        <ele>242</ele>
        <time>2021-12-27T18:29:14Z</time>
      </trkpt>
      <trkpt lat="46.59964" lon="4.05553">
        <ele>242</ele>
        <time>2021-12-27T18:29:59Z</time>
      </trkpt>
      <trkpt lat="46.60012" lon="4.0581">
        <ele>242</ele>
        <time>2021-12-27T18:30:31Z</time>
      </trkpt>
      <trkpt lat="46.6002" lon="4.05872">
        <ele>242</ele>
        <time>2021-12-27T18:30:39Z</time>
      </trkpt>
      <trkpt lat="46.60017" lon="4.05887">
        <ele>242</ele>
        <time>2021-12-27T18:30:41Z</time>
      </trkpt>
      <trkpt lat="46.60012" lon="4.05888">
        <ele>242</ele>
        <time>2021-12-27T18:30:42Z</time>
      </trkpt>
      <trkpt lat="46.6001" lon="4.05891">
        <ele>242</ele>
        <time>2021-12-27T18:30:43Z</time>
      </trkpt>
      <trkpt lat="46.60009" lon="4.05898">
        <ele>242</ele>
        <time>2021-12-27T18:30:43Z</time>
      </trkpt>
      <trkpt lat="46.60011" lon="4.05902">
        <ele>242</ele>
        <time>2021-12-27T18:30:44Z</time>
      </trkpt>
      <trkpt lat="46.60006" lon="4.05908">
        <ele>242</ele>
        <time>2021-12-27T18:30:45Z</time>
      </trkpt>
      <trkpt lat="46.59933" lon="4.05934">
        <ele>241</ele>
        <time>2021-12-27T18:30:59Z</time>
      </trkpt>
      <trkpt lat="46.59884" lon="4.0595">
        <ele>240</ele>
        <time>2021-12-27T18:31:07Z</time>
      </trkpt>
      <trkpt lat="46.59868" lon="4.0596">
        <ele>239</ele>
        <time>2021-12-27T18:31:11Z</time>
      </trkpt>
      <trkpt lat="46.59874" lon="4.05973">
        <ele>239</ele>
        <time>2021-12-27T18:31:12Z</time>
      </trkpt>
      <trkpt lat="46.59869" lon="4.05977">
        <ele>238</ele>
        <time>2021-12-27T18:31:13Z</time>
      </trkpt>
      <trkpt lat="46.6002" lon="4.0632">
        <ele>240</ele>
        <time>2021-12-27T18:32:03Z</time>
      </trkpt>
      <trkpt lat="46.60077" lon="4.06434">
        <ele>241</ele>
        <time>2021-12-27T18:32:21Z</time>
      </trkpt>
      <trkpt lat="46.60099" lon="4.06472">
        <ele>241</ele>
        <time>2021-12-27T18:32:27Z</time>
      </trkpt>
      <trkpt lat="46.60096" lon="4.06481">
        <ele>241</ele>
        <time>2021-12-27T18:32:28Z</time>
      </trkpt>
      <trkpt lat="46.60053" lon="4.06543">
        <ele>245</ele>
        <time>2021-12-27T18:32:39Z</time>
      </trkpt>
      <trkpt lat="46.60008" lon="4.0661">
        <ele>249</ele>
        <time>2021-12-27T18:32:50Z</time>
      </trkpt>
      <trkpt lat="46.59887" lon="4.06789">
        <ele>251</ele>
        <time>2021-12-27T18:33:21Z</time>
      </trkpt>
      <trkpt lat="46.59888" lon="4.06812">
        <ele>251</ele>
        <time>2021-12-27T18:33:24Z</time>
      </trkpt>
      <trkpt lat="46.59939" lon="4.06831">
        <ele>252</ele>
        <time>2021-12-27T18:33:33Z</time>
      </trkpt>
      <trkpt lat="46.59899" lon="4.0694">
        <ele>254</ele>
        <time>2021-12-27T18:33:48Z</time>
      </trkpt>
      <trkpt lat="46.59862" lon="4.07083">
        <ele>257</ele>
        <time>2021-12-27T18:34:07Z</time>
      </trkpt>
      <trkpt lat="46.5981" lon="4.07339">
        <ele>267</ele>
        <time>2021-12-27T18:34:39Z</time>
      </trkpt>
      <trkpt lat="46.59757" lon="4.0755">
        <ele>275</ele>
        <time>2021-12-27T18:35:07Z</time>
      </trkpt>
      <trkpt lat="46.59754" lon="4.07574">
        <ele>277</ele>
        <time>2021-12-27T18:35:10Z</time>
      </trkpt>
      <trkpt lat="46.59758" lon="4.07605">
        <ele>277</ele>
        <time>2021-12-27T18:35:14Z</time>
      </trkpt>
      <trkpt lat="46.59781" lon="4.07685">
        <ele>279</ele>
        <time>2021-12-27T18:35:24Z</time>
      </trkpt>
      <trkpt lat="46.59764" lon="4.07693">
        <ele>279</ele>
        <time>2021-12-27T18:35:27Z</time>
      </trkpt>
      <trkpt lat="46.59697" lon="4.07715">
        <ele>280</ele>
        <time>2021-12-27T18:35:40Z</time>
      </trkpt>
      <trkpt lat="46.59604" lon="4.07741">
        <ele>282</ele>
        <time>2021-12-27T18:35:57Z</time>
      </trkpt>
      <trkpt lat="46.59574" lon="4.07741">
        <ele>283</ele>
        <time>2021-12-27T18:36:02Z</time>
      </trkpt>
      <trkpt lat="46.59484" lon="4.07728">
        <ele>283</ele>
        <time>2021-12-27T18:36:18Z</time>
      </trkpt>
      <trkpt lat="46.59472" lon="4.07729">
        <ele>284</ele>
        <time>2021-12-27T18:36:20Z</time>
      </trkpt>
      <trkpt lat="46.59465" lon="4.07732">
        <ele>284</ele>
        <time>2021-12-27T18:36:21Z</time>
      </trkpt>
      <trkpt lat="46.59459" lon="4.07736">
        <ele>284</ele>
        <time>2021-12-27T18:36:23Z</time>
      </trkpt>
      <trkpt lat="46.59448" lon="4.07749">
        <ele>284</ele>
        <time>2021-12-27T18:36:25Z</time>
      </trkpt>
      <trkpt lat="46.59438" lon="4.07768">
        <ele>284</ele>
        <time>2021-12-27T18:36:28Z</time>
      </trkpt>
      <trkpt lat="46.59424" lon="4.07815">
        <ele>285</ele>
        <time>2021-12-27T18:36:34Z</time>
      </trkpt>
      <trkpt lat="46.59396" lon="4.07925">
        <ele>288</ele>
        <time>2021-12-27T18:36:49Z</time>
      </trkpt>
      <trkpt lat="46.59379" lon="4.07982">
        <ele>288</ele>
        <time>2021-12-27T18:36:56Z</time>
      </trkpt>
      <trkpt lat="46.5937" lon="4.08003">
        <ele>289</ele>
        <time>2021-12-27T18:36:59Z</time>
      </trkpt>
      <trkpt lat="46.59358" lon="4.08018">
        <ele>289</ele>
        <time>2021-12-27T18:37:02Z</time>
      </trkpt>
      <trkpt lat="46.59351" lon="4.08024">
        <ele>290</ele>
        <time>2021-12-27T18:37:03Z</time>
      </trkpt>
      <trkpt lat="46.59324" lon="4.08037">
        <ele>292</ele>
        <time>2021-12-27T18:37:09Z</time>
      </trkpt>
      <trkpt lat="46.59291" lon="4.08046">
        <ele>294</ele>
        <time>2021-12-27T18:37:15Z</time>
      </trkpt>
      <trkpt lat="46.59272" lon="4.08055">
        <ele>296</ele>
        <time>2021-12-27T18:37:18Z</time>
      </trkpt>
      <trkpt lat="46.59262" lon="4.08064">
        <ele>296</ele>
        <time>2021-12-27T18:37:20Z</time>
      </trkpt>
      <trkpt lat="46.59251" lon="4.08075">
        <ele>297</ele>
        <time>2021-12-27T18:37:23Z</time>
      </trkpt>
      <trkpt lat="46.59237" lon="4.08095">
        <ele>297</ele>
        <time>2021-12-27T18:37:26Z</time>
      </trkpt>
      <trkpt lat="46.5919" lon="4.08178">
        <ele>296</ele>
        <time>2021-12-27T18:37:39Z</time>
      </trkpt>
      <trkpt lat="46.59175" lon="4.08193">
        <ele>296</ele>
        <time>2021-12-27T18:37:42Z</time>
      </trkpt>
      <trkpt lat="46.59159" lon="4.08199">
        <ele>296</ele>
        <time>2021-12-27T18:37:45Z</time>
      </trkpt>
      <trkpt lat="46.59145" lon="4.08196">
        <ele>295</ele>
        <time>2021-12-27T18:37:48Z</time>
      </trkpt>
      <trkpt lat="46.59131" lon="4.08186">
        <ele>295</ele>
        <time>2021-12-27T18:37:51Z</time>
      </trkpt>
      <trkpt lat="46.59086" lon="4.08135">
        <ele>296</ele>
        <time>2021-12-27T18:38:01Z</time>
      </trkpt>
      <trkpt lat="46.59064" lon="4.08116">
        <ele>297</ele>
        <time>2021-12-27T18:38:05Z</time>
      </trkpt>
      <trkpt lat="46.59004" lon="4.08076">
        <ele>295</ele>
        <time>2021-12-27T18:38:17Z</time>
      </trkpt>
      <trkpt lat="46.58992" lon="4.0807">
        <ele>296</ele>
        <time>2021-12-27T18:38:19Z</time>
      </trkpt>
      <trkpt lat="46.5897" lon="4.08068">
        <ele>298</ele>
        <time>2021-12-27T18:38:23Z</time>
      </trkpt>
      <trkpt lat="46.58963" lon="4.08071">
        <ele>299</ele>
        <time>2021-12-27T18:38:25Z</time>
      </trkpt>
      <trkpt lat="46.58956" lon="4.0808">
        <ele>299</ele>
        <time>2021-12-27T18:38:26Z</time>
      </trkpt>
      <trkpt lat="46.58948" lon="4.08104">
        <ele>300</ele>
        <time>2021-12-27T18:38:30Z</time>
      </trkpt>
      <trkpt lat="46.58937" lon="4.08163">
        <ele>301</ele>
        <time>2021-12-27T18:38:37Z</time>
      </trkpt>
      <trkpt lat="46.58933" lon="4.08177">
        <ele>301</ele>
        <time>2021-12-27T18:38:39Z</time>
      </trkpt>
      <trkpt lat="46.58924" lon="4.082">
        <ele>301</ele>
        <time>2021-12-27T18:38:42Z</time>
      </trkpt>
      <trkpt lat="46.58913" lon="4.08216">
        <ele>301</ele>
        <time>2021-12-27T18:38:45Z</time>
      </trkpt>
      <trkpt lat="46.58898" lon="4.0823">
        <ele>302</ele>
        <time>2021-12-27T18:38:48Z</time>
      </trkpt>
      <trkpt lat="46.58869" lon="4.08248">
        <ele>303</ele>
        <time>2021-12-27T18:38:54Z</time>
      </trkpt>
      <trkpt lat="46.58855" lon="4.08253">
        <ele>304</ele>
        <time>2021-12-27T18:38:56Z</time>
      </trkpt>
      <trkpt lat="46.58826" lon="4.08252">
        <ele>305</ele>
        <time>2021-12-27T18:39:01Z</time>
      </trkpt>
      <trkpt lat="46.58805" lon="4.08256">
        <ele>306</ele>
        <time>2021-12-27T18:39:05Z</time>
      </trkpt>
      <trkpt lat="46.58799" lon="4.08263">
        <ele>306</ele>
        <time>2021-12-27T18:39:06Z</time>
      </trkpt>
      <trkpt lat="46.58795" lon="4.08275">
        <ele>306</ele>
        <time>2021-12-27T18:39:08Z</time>
      </trkpt>
      <trkpt lat="46.58758" lon="4.08469">
        <ele>311</ele>
        <time>2021-12-27T18:39:33Z</time>
      </trkpt>
      <trkpt lat="46.58757" lon="4.08493">
        <ele>311</ele>
        <time>2021-12-27T18:39:36Z</time>
      </trkpt>
      <trkpt lat="46.58758" lon="4.08516">
        <ele>312</ele>
        <time>2021-12-27T18:39:38Z</time>
      </trkpt>
      <trkpt lat="46.58762" lon="4.08541">
        <ele>312</ele>
        <time>2021-12-27T18:39:42Z</time>
      </trkpt>
      <trkpt lat="46.58766" lon="4.08558">
        <ele>313</ele>
        <time>2021-12-27T18:39:44Z</time>
      </trkpt>
      <trkpt lat="46.58782" lon="4.08597">
        <ele>313</ele>
        <time>2021-12-27T18:39:49Z</time>
      </trkpt>
      <trkpt lat="46.58787" lon="4.08614">
        <ele>312</ele>
        <time>2021-12-27T18:39:52Z</time>
      </trkpt>
      <trkpt lat="46.5879" lon="4.08633">
        <ele>312</ele>
        <time>2021-12-27T18:39:54Z</time>
      </trkpt>
      <trkpt lat="46.58788" lon="4.08681">
        <ele>312</ele>
        <time>2021-12-27T18:40:00Z</time>
      </trkpt>
      <trkpt lat="46.5877" lon="4.08769">
        <ele>311</ele>
        <time>2021-12-27T18:40:11Z</time>
      </trkpt>
      <trkpt lat="46.58764" lon="4.08809">
        <ele>311</ele>
        <time>2021-12-27T18:40:16Z</time>
      </trkpt>
      <trkpt lat="46.5876" lon="4.08854">
        <ele>311</ele>
        <time>2021-12-27T18:40:22Z</time>
      </trkpt>
      <trkpt lat="46.5876" lon="4.08975">
        <ele>310</ele>
        <time>2021-12-27T18:40:36Z</time>
      </trkpt>
      <trkpt lat="46.58753" lon="4.09214">
        <ele>312</ele>
        <time>2021-12-27T18:41:06Z</time>
      </trkpt>
      <trkpt lat="46.58754" lon="4.09235">
        <ele>312</ele>
        <time>2021-12-27T18:41:08Z</time>
      </trkpt>
      <trkpt lat="46.58757" lon="4.0925">
        <ele>312</ele>
        <time>2021-12-27T18:41:10Z</time>
      </trkpt>
      <trkpt lat="46.58762" lon="4.09265">
        <ele>312</ele>
        <time>2021-12-27T18:41:12Z</time>
      </trkpt>
      <trkpt lat="46.58769" lon="4.09277">
        <ele>312</ele>
        <time>2021-12-27T18:41:14Z</time>
      </trkpt>
      <trkpt lat="46.5878" lon="4.09287">
        <ele>312</ele>
        <time>2021-12-27T18:41:16Z</time>
      </trkpt>
      <trkpt lat="46.58808" lon="4.09298">
        <ele>313</ele>
        <time>2021-12-27T18:41:22Z</time>
      </trkpt>
      <trkpt lat="46.58824" lon="4.0931">
        <ele>313</ele>
        <time>2021-12-27T18:41:25Z</time>
      </trkpt>
      <trkpt lat="46.5888" lon="4.09365">
        <ele>315</ele>
        <time>2021-12-27T18:41:37Z</time>
      </trkpt>
      <trkpt lat="46.58895" lon="4.09382">
        <ele>315</ele>
        <time>2021-12-27T18:41:40Z</time>
      </trkpt>
      <trkpt lat="46.58928" lon="4.0944">
        <ele>316</ele>
        <time>2021-12-27T18:41:49Z</time>
      </trkpt>
      <trkpt lat="46.58983" lon="4.09545">
        <ele>317</ele>
        <time>2021-12-27T18:42:06Z</time>
      </trkpt>
      <trkpt lat="46.59025" lon="4.09586">
        <ele>319</ele>
        <time>2021-12-27T18:42:15Z</time>
      </trkpt>
      <trkpt lat="46.59036" lon="4.09601">
        <ele>320</ele>
        <time>2021-12-27T18:42:17Z</time>
      </trkpt>
      <trkpt lat="46.59049" lon="4.09642">
        <ele>321</ele>
        <time>2021-12-27T18:42:23Z</time>
      </trkpt>
      <trkpt lat="46.59063" lon="4.09711">
        <ele>325</ele>
        <time>2021-12-27T18:42:32Z</time>
      </trkpt>
      <trkpt lat="46.59065" lon="4.09727">
        <ele>326</ele>
        <time>2021-12-27T18:42:34Z</time>
      </trkpt>
      <trkpt lat="46.59065" lon="4.09741">
        <ele>326</ele>
        <time>2021-12-27T18:42:35Z</time>
      </trkpt>
      <trkpt lat="46.59062" lon="4.09752">
        <ele>327</ele>
        <time>2021-12-27T18:42:37Z</time>
      </trkpt>
      <trkpt lat="46.59058" lon="4.09761">
        <ele>327</ele>
        <time>2021-12-27T18:42:38Z</time>
      </trkpt>
      <trkpt lat="46.59052" lon="4.09766">
        <ele>327</ele>
        <time>2021-12-27T18:42:39Z</time>
      </trkpt>
      <trkpt lat="46.59041" lon="4.09769">
        <ele>326</ele>
        <time>2021-12-27T18:42:41Z</time>
      </trkpt>
      <trkpt lat="46.59012" lon="4.09764">
        <ele>324</ele>
        <time>2021-12-27T18:42:46Z</time>
      </trkpt>
      <trkpt lat="46.58948" lon="4.09741">
        <ele>320</ele>
        <time>2021-12-27T18:42:58Z</time>
      </trkpt>
      <trkpt lat="46.58935" lon="4.09741">
        <ele>319</ele>
        <time>2021-12-27T18:43:01Z</time>
      </trkpt>
      <trkpt lat="46.5892" lon="4.0975">
        <ele>319</ele>
        <time>2021-12-27T18:43:03Z</time>
      </trkpt>
      <trkpt lat="46.58914" lon="4.09762">
        <ele>320</ele>
        <time>2021-12-27T18:43:05Z</time>
      </trkpt>
      <trkpt lat="46.58911" lon="4.09773">
        <ele>320</ele>
        <time>2021-12-27T18:43:07Z</time>
      </trkpt>
      <trkpt lat="46.58907" lon="4.09811">
        <ele>322</ele>
        <time>2021-12-27T18:43:11Z</time>
      </trkpt>
      <trkpt lat="46.58902" lon="4.09963">
        <ele>320</ele>
        <time>2021-12-27T18:43:30Z</time>
      </trkpt>
      <trkpt lat="46.58903" lon="4.09984">
        <ele>319</ele>
        <time>2021-12-27T18:43:33Z</time>
      </trkpt>
      <trkpt lat="46.58906" lon="4.10001">
        <ele>319</ele>
        <time>2021-12-27T18:43:35Z</time>
      </trkpt>
      <trkpt lat="46.58914" lon="4.10015">
        <ele>320</ele>
        <time>2021-12-27T18:43:37Z</time>
      </trkpt>
      <trkpt lat="46.58947" lon="4.10058">
        <ele>321</ele>
        <time>2021-12-27T18:43:45Z</time>
      </trkpt>
      <trkpt lat="46.58956" lon="4.10077">
        <ele>321</ele>
        <time>2021-12-27T18:43:48Z</time>
      </trkpt>
      <trkpt lat="46.58957" lon="4.10097">
        <ele>320</ele>
        <time>2021-12-27T18:43:50Z</time>
      </trkpt>
      <trkpt lat="46.58944" lon="4.10163">
        <ele>317</ele>
        <time>2021-12-27T18:43:58Z</time>
      </trkpt>
      <trkpt lat="46.58944" lon="4.10193">
        <ele>317</ele>
        <time>2021-12-27T18:44:02Z</time>
      </trkpt>
      <trkpt lat="46.58947" lon="4.10209">
        <ele>316</ele>
        <time>2021-12-27T18:44:04Z</time>
      </trkpt>
      <trkpt lat="46.5897" lon="4.10292">
        <ele>316</ele>
        <time>2021-12-27T18:44:15Z</time>
      </trkpt>
      <trkpt lat="46.58981" lon="4.10319">
        <ele>315</ele>
        <time>2021-12-27T18:44:19Z</time>
      </trkpt>
      <trkpt lat="46.58993" lon="4.10332">
        <ele>316</ele>
        <time>2021-12-27T18:44:22Z</time>
      </trkpt>
      <trkpt lat="46.59033" lon="4.10343">
        <ele>315</ele>
        <time>2021-12-27T18:44:29Z</time>
      </trkpt>
      <trkpt lat="46.59057" lon="4.10361">
        <ele>314</ele>
        <time>2021-12-27T18:44:34Z</time>
      </trkpt>
      <trkpt lat="46.59073" lon="4.10379">
        <ele>313</ele>
        <time>2021-12-27T18:44:37Z</time>
      </trkpt>
      <trkpt lat="46.59082" lon="4.10393">
        <ele>312</ele>
        <time>2021-12-27T18:44:40Z</time>
      </trkpt>
      <trkpt lat="46.59086" lon="4.10417">
        <ele>311</ele>
        <time>2021-12-27T18:44:43Z</time>
      </trkpt>
      <trkpt lat="46.59087" lon="4.10432">
        <ele>311</ele>
        <time>2021-12-27T18:44:44Z</time>
      </trkpt>
      <trkpt lat="46.5907" lon="4.1059">
        <ele>304</ele>
        <time>2021-12-27T18:45:04Z</time>
      </trkpt>
      <trkpt lat="46.59063" lon="4.10624">
        <ele>303</ele>
        <time>2021-12-27T18:45:08Z</time>
      </trkpt>
      <trkpt lat="46.59052" lon="4.10646">
        <ele>303</ele>
        <time>2021-12-27T18:45:12Z</time>
      </trkpt>
      <trkpt lat="46.58976" lon="4.10765">
        <ele>307</ele>
        <time>2021-12-27T18:45:32Z</time>
      </trkpt>
      <trkpt lat="46.58969" lon="4.10781">
        <ele>308</ele>
        <time>2021-12-27T18:45:34Z</time>
      </trkpt>
      <trkpt lat="46.58961" lon="4.10819">
        <ele>309</ele>
        <time>2021-12-27T18:45:39Z</time>
      </trkpt>
      <trkpt lat="46.58959" lon="4.10858">
        <ele>310</ele>
        <time>2021-12-27T18:45:44Z</time>
      </trkpt>
      <trkpt lat="46.5896" lon="4.1091">
        <ele>311</ele>
        <time>2021-12-27T18:45:50Z</time>
      </trkpt>
      <trkpt lat="46.58958" lon="4.10933">
        <ele>312</ele>
        <time>2021-12-27T18:45:53Z</time>
      </trkpt>
      <trkpt lat="46.58955" lon="4.10948">
        <ele>312</ele>
        <time>2021-12-27T18:45:55Z</time>
      </trkpt>
      <trkpt lat="46.58947" lon="4.10971">
        <ele>312</ele>
        <time>2021-12-27T18:45:58Z</time>
      </trkpt>
      <trkpt lat="46.58934" lon="4.10993">
        <ele>312</ele>
        <time>2021-12-27T18:46:01Z</time>
      </trkpt>
      <trkpt lat="46.58917" lon="4.11015">
        <ele>312</ele>
        <time>2021-12-27T18:46:05Z</time>
      </trkpt>
      <trkpt lat="46.58823" lon="4.11117">
        <ele>307</ele>
        <time>2021-12-27T18:46:26Z</time>
      </trkpt>
      <trkpt lat="46.58816" lon="4.11128">
        <ele>307</ele>
        <time>2021-12-27T18:46:28Z</time>
      </trkpt>
      <trkpt lat="46.58802" lon="4.11155">
        <ele>306</ele>
        <time>2021-12-27T18:46:32Z</time>
      </trkpt>
      <trkpt lat="46.58795" lon="4.11186">
        <ele>306</ele>
        <time>2021-12-27T18:46:36Z</time>
      </trkpt>
      <trkpt lat="46.58795" lon="4.11206">
        <ele>306</ele>
        <time>2021-12-27T18:46:39Z</time>
      </trkpt>
      <trkpt lat="46.58815" lon="4.1143">
        <ele>311</ele>
        <time>2021-12-27T18:47:06Z</time>
      </trkpt>
      <trkpt lat="46.58826" lon="4.11533">
        <ele>312</ele>
        <time>2021-12-27T18:47:19Z</time>
      </trkpt>
      <trkpt lat="46.5885" lon="4.11684">
        <ele>313</ele>
        <time>2021-12-27T18:47:38Z</time>
      </trkpt>
      <trkpt lat="46.5885" lon="4.11696">
        <ele>313</ele>
        <time>2021-12-27T18:47:39Z</time>
      </trkpt>
      <trkpt lat="46.58845" lon="4.11721">
        <ele>313</ele>
        <time>2021-12-27T18:47:43Z</time>
      </trkpt>
      <trkpt lat="46.58837" lon="4.11734">
        <ele>312</ele>
        <time>2021-12-27T18:47:45Z</time>
      </trkpt>
      <trkpt lat="46.5883" lon="4.11743">
        <ele>312</ele>
        <time>2021-12-27T18:47:46Z</time>
      </trkpt>
      <trkpt lat="46.58822" lon="4.1175">
        <ele>313</ele>
        <time>2021-12-27T18:47:48Z</time>
      </trkpt>
      <trkpt lat="46.58812" lon="4.11754">
        <ele>313</ele>
        <time>2021-12-27T18:47:50Z</time>
      </trkpt>
      <trkpt lat="46.58805" lon="4.11755">
        <ele>314</ele>
        <time>2021-12-27T18:47:51Z</time>
      </trkpt>
      <trkpt lat="46.58789" lon="4.11748">
        <ele>315</ele>
        <time>2021-12-27T18:47:54Z</time>
      </trkpt>
      <trkpt lat="46.5869" lon="4.11637">
        <ele>318</ele>
        <time>2021-12-27T18:48:16Z</time>
      </trkpt>
      <trkpt lat="46.58642" lon="4.1159">
        <ele>319</ele>
        <time>2021-12-27T18:48:27Z</time>
      </trkpt>
      <trkpt lat="46.5863" lon="4.1158">
        <ele>320</ele>
        <time>2021-12-27T18:48:29Z</time>
      </trkpt>
      <trkpt lat="46.58618" lon="4.11576">
        <ele>321</ele>
        <time>2021-12-27T18:48:31Z</time>
      </trkpt>
      <trkpt lat="46.58606" lon="4.11578">
        <ele>322</ele>
        <time>2021-12-27T18:48:33Z</time>
      </trkpt>
      <trkpt lat="46.586" lon="4.11582">
        <ele>323</ele>
        <time>2021-12-27T18:48:35Z</time>
      </trkpt>
      <trkpt lat="46.58589" lon="4.11595">
        <ele>324</ele>
        <time>2021-12-27T18:48:37Z</time>
      </trkpt>
      <trkpt lat="46.58409" lon="4.11971">
        <ele>327</ele>
        <time>2021-12-27T18:49:33Z</time>
      </trkpt>
      <trkpt lat="46.584" lon="4.11992">
        <ele>327</ele>
        <time>2021-12-27T18:49:36Z</time>
      </trkpt>
      <trkpt lat="46.58391" lon="4.12032">
        <ele>326</ele>
        <time>2021-12-27T18:49:41Z</time>
      </trkpt>
      <trkpt lat="46.58347" lon="4.12259">
        <ele>321</ele>
        <time>2021-12-27T18:50:10Z</time>
      </trkpt>
      <trkpt lat="46.58337" lon="4.12293">
        <ele>321</ele>
        <time>2021-12-27T18:50:15Z</time>
      </trkpt>
      <trkpt lat="46.58171" lon="4.12666">
        <ele>314</ele>
        <time>2021-12-27T18:51:09Z</time>
      </trkpt>
      <trkpt lat="46.57966" lon="4.13112">
        <ele>304</ele>
        <time>2021-12-27T18:52:15Z</time>
      </trkpt>
      <trkpt lat="46.57954" lon="4.13142">
        <ele>304</ele>
        <time>2021-12-27T18:52:19Z</time>
      </trkpt>
      <trkpt lat="46.57906" lon="4.13349">
        <ele>303</ele>
        <time>2021-12-27T18:52:46Z</time>
      </trkpt>
      <trkpt lat="46.57867" lon="4.13527">
        <ele>308</ele>
        <time>2021-12-27T18:53:09Z</time>
      </trkpt>
      <trkpt lat="46.57783" lon="4.13838">
        <ele>299</ele>
        <time>2021-12-27T18:53:49Z</time>
      </trkpt>
      <trkpt lat="46.57722" lon="4.14075">
        <ele>298</ele>
        <time>2021-12-27T18:54:20Z</time>
      </trkpt>
      <trkpt lat="46.57606" lon="4.145">
        <ele>289</ele>
        <time>2021-12-27T18:55:16Z</time>
      </trkpt>
      <trkpt lat="46.57598" lon="4.14524">
        <ele>289</ele>
        <time>2021-12-27T18:55:20Z</time>
      </trkpt>
      <trkpt lat="46.57583" lon="4.14555">
        <ele>289</ele>
        <time>2021-12-27T18:55:24Z</time>
      </trkpt>
      <trkpt lat="46.57214" lon="4.15128">
        <ele>272</ele>
        <time>2021-12-27T18:57:00Z</time>
      </trkpt>
      <trkpt lat="46.5702" lon="4.15425">
        <ele>264</ele>
        <time>2021-12-27T18:57:50Z</time>
      </trkpt>
      <trkpt lat="46.56984" lon="4.15472">
        <ele>263</ele>
        <time>2021-12-27T18:57:59Z</time>
      </trkpt>
      <trkpt lat="46.569" lon="4.15577">
        <ele>259</ele>
        <time>2021-12-27T18:58:19Z</time>
      </trkpt>
      <trkpt lat="46.56894" lon="4.15587">
        <ele>259</ele>
        <time>2021-12-27T18:58:20Z</time>
      </trkpt>
      <trkpt lat="46.56886" lon="4.15606">
        <ele>259</ele>
        <time>2021-12-27T18:58:23Z</time>
      </trkpt>
      <trkpt lat="46.56884" lon="4.15628">
        <ele>259</ele>
        <time>2021-12-27T18:58:26Z</time>
      </trkpt>
      <trkpt lat="46.56883" lon="4.15848">
        <ele>259</ele>
        <time>2021-12-27T18:58:53Z</time>
      </trkpt>
      <trkpt lat="46.56879" lon="4.1619">
        <ele>258</ele>
        <time>2021-12-27T18:59:34Z</time>
      </trkpt>
      <trkpt lat="46.56875" lon="4.16221">
        <ele>258</ele>
        <time>2021-12-27T18:59:38Z</time>
      </trkpt>
      <trkpt lat="46.56869" lon="4.1625">
        <ele>258</ele>
        <time>2021-12-27T18:59:42Z</time>
      </trkpt>
      <trkpt lat="46.56833" lon="4.16386">
        <ele>257</ele>
        <time>2021-12-27T19:00:00Z</time>
      </trkpt>
      <trkpt lat="46.56823" lon="4.16425">
        <ele>258</ele>
        <time>2021-12-27T19:00:05Z</time>
      </trkpt>
      <trkpt lat="46.56734" lon="4.16774">
        <ele>268</ele>
        <time>2021-12-27T19:00:50Z</time>
      </trkpt>
      <trkpt lat="46.56725" lon="4.16791">
        <ele>269</ele>
        <time>2021-12-27T19:00:53Z</time>
      </trkpt>
      <trkpt lat="46.5671" lon="4.168">
        <ele>271</ele>
        <time>2021-12-27T19:00:56Z</time>
      </trkpt>
      <trkpt lat="46.56652" lon="4.16825">
        <ele>276</ele>
        <time>2021-12-27T19:01:07Z</time>
      </trkpt>
      <trkpt lat="46.56639" lon="4.16837">
        <ele>278</ele>
        <time>2021-12-27T19:01:09Z</time>
      </trkpt>
      <trkpt lat="46.56628" lon="4.16861">
        <ele>279</ele>
        <time>2021-12-27T19:01:13Z</time>
      </trkpt>
      <trkpt lat="46.56622" lon="4.16887">
        <ele>280</ele>
        <time>2021-12-27T19:01:16Z</time>
      </trkpt>
      <trkpt lat="46.5662" lon="4.16913">
        <ele>280</ele>
        <time>2021-12-27T19:01:20Z</time>
      </trkpt>
      <trkpt lat="46.56623" lon="4.16947">
        <ele>280</ele>
        <time>2021-12-27T19:01:24Z</time>
      </trkpt>
      <trkpt lat="46.56657" lon="4.17056">
        <ele>281</ele>
        <time>2021-12-27T19:01:38Z</time>
      </trkpt>
      <trkpt lat="46.56663" lon="4.17088">
        <ele>281</ele>
        <time>2021-12-27T19:01:42Z</time>
      </trkpt>
      <trkpt lat="46.56666" lon="4.17124">
        <ele>282</ele>
        <time>2021-12-27T19:01:47Z</time>
      </trkpt>
      <trkpt lat="46.56666" lon="4.17149">
        <ele>282</ele>
        <time>2021-12-27T19:01:50Z</time>
      </trkpt>
      <trkpt lat="46.56663" lon="4.17189">
        <ele>283</ele>
        <time>2021-12-27T19:01:55Z</time>
      </trkpt>
      <trkpt lat="46.56618" lon="4.17579">
        <ele>286</ele>
        <time>2021-12-27T19:02:43Z</time>
      </trkpt>
      <trkpt lat="46.56612" lon="4.17617">
        <ele>286</ele>
        <time>2021-12-27T19:02:48Z</time>
      </trkpt>
      <trkpt lat="46.56602" lon="4.17651">
        <ele>286</ele>
        <time>2021-12-27T19:02:53Z</time>
      </trkpt>
      <trkpt lat="46.56561" lon="4.17758">
        <ele>285</ele>
        <time>2021-12-27T19:03:08Z</time>
      </trkpt>
      <trkpt lat="46.56354" lon="4.18271">
        <ele>279</ele>
        <time>2021-12-27T19:04:20Z</time>
      </trkpt>
      <trkpt lat="46.56323" lon="4.18331">
        <ele>279</ele>
        <time>2021-12-27T19:04:29Z</time>
      </trkpt>
      <trkpt lat="46.56258" lon="4.18443">
        <ele>277</ele>
        <time>2021-12-27T19:04:47Z</time>
      </trkpt>
      <trkpt lat="46.56136" lon="4.18637">
        <ele>281</ele>
        <time>2021-12-27T19:05:20Z</time>
      </trkpt>
      <trkpt lat="46.56045" lon="4.18784">
        <ele>279</ele>
        <time>2021-12-27T19:05:44Z</time>
      </trkpt>
      <trkpt lat="46.56018" lon="4.18828">
        <ele>279</ele>
        <time>2021-12-27T19:05:51Z</time>
      </trkpt>
      <trkpt lat="46.55804" lon="4.19177">
        <ele>272</ele>
        <time>2021-12-27T19:06:48Z</time>
      </trkpt>
      <trkpt lat="46.55654" lon="4.19418">
        <ele>263</ele>
        <time>2021-12-27T19:07:28Z</time>
      </trkpt>
      <trkpt lat="46.55621" lon="4.19474">
        <ele>262</ele>
        <time>2021-12-27T19:07:37Z</time>
      </trkpt>
      <trkpt lat="46.55606" lon="4.19494">
        <ele>263</ele>
        <time>2021-12-27T19:07:41Z</time>
      </trkpt>
      <trkpt lat="46.55586" lon="4.19514">
        <ele>264</ele>
        <time>2021-12-27T19:07:45Z</time>
      </trkpt>
      <trkpt lat="46.55437" lon="4.1963">
        <ele>270</ele>
        <time>2021-12-27T19:08:15Z</time>
      </trkpt>
      <trkpt lat="46.55388" lon="4.19673">
        <ele>271</ele>
        <time>2021-12-27T19:08:25Z</time>
      </trkpt>
      <trkpt lat="46.55246" lon="4.19815">
        <ele>273</ele>
        <time>2021-12-27T19:08:56Z</time>
      </trkpt>
      <trkpt lat="46.55223" lon="4.19842">
        <ele>273</ele>
        <time>2021-12-27T19:09:01Z</time>
      </trkpt>
      <trkpt lat="46.55211" lon="4.19865">
        <ele>272</ele>
        <time>2021-12-27T19:09:05Z</time>
      </trkpt>
      <trkpt lat="46.55202" lon="4.19894">
        <ele>272</ele>
        <time>2021-12-27T19:09:09Z</time>
      </trkpt>
      <trkpt lat="46.55199" lon="4.19917">
        <ele>271</ele>
        <time>2021-12-27T19:09:11Z</time>
      </trkpt>
      <trkpt lat="46.55198" lon="4.19941">
        <ele>271</ele>
        <time>2021-12-27T19:09:14Z</time>
      </trkpt>
      <trkpt lat="46.55199" lon="4.19957">
        <ele>270</ele>
        <time>2021-12-27T19:09:16Z</time>
      </trkpt>
      <trkpt lat="46.55206" lon="4.19989">
        <ele>270</ele>
        <time>2021-12-27T19:09:20Z</time>
      </trkpt>
      <trkpt lat="46.5522" lon="4.20028">
        <ele>268</ele>
        <time>2021-12-27T19:09:26Z</time>
      </trkpt>
      <trkpt lat="46.5524" lon="4.2008">
        <ele>266</ele>
        <time>2021-12-27T19:09:33Z</time>
      </trkpt>
      <trkpt lat="46.55249" lon="4.20095">
        <ele>265</ele>
        <time>2021-12-27T19:09:35Z</time>
      </trkpt>
      <trkpt lat="46.55263" lon="4.20111">
        <ele>264</ele>
        <time>2021-12-27T19:09:39Z</time>
      </trkpt>
      <trkpt lat="46.55301" lon="4.20138">
        <ele>263</ele>
        <time>2021-12-27T19:09:46Z</time>
      </trkpt>
      <trkpt lat="46.5535" lon="4.20166">
        <ele>261</ele>
        <time>2021-12-27T19:09:56Z</time>
      </trkpt>
      <trkpt lat="46.55401" lon="4.20191">
        <ele>261</ele>
        <time>2021-12-27T19:10:05Z</time>
      </trkpt>
      <trkpt lat="46.5542" lon="4.20206">
        <ele>260</ele>
        <time>2021-12-27T19:10:09Z</time>
      </trkpt>
      <trkpt lat="46.55435" lon="4.20222">
        <ele>259</ele>
        <time>2021-12-27T19:10:12Z</time>
      </trkpt>
      <trkpt lat="46.55462" lon="4.20267">
        <ele>257</ele>
        <time>2021-12-27T19:10:20Z</time>
      </trkpt>
      <trkpt lat="46.5547" lon="4.20287">
        <ele>257</ele>
        <time>2021-12-27T19:10:22Z</time>
      </trkpt>
      <trkpt lat="46.55478" lon="4.20314">
        <ele>257</ele>
        <time>2021-12-27T19:10:26Z</time>
      </trkpt>
      <trkpt lat="46.55487" lon="4.20376">
        <ele>255</ele>
        <time>2021-12-27T19:10:34Z</time>
      </trkpt>
      <trkpt lat="46.55507" lon="4.20566">
        <ele>254</ele>
        <time>2021-12-27T19:10:57Z</time>
      </trkpt>
      <trkpt lat="46.55572" lon="4.21122">
        <ele>256</ele>
        <time>2021-12-27T19:12:06Z</time>
      </trkpt>
      <trkpt lat="46.55572" lon="4.21152">
        <ele>256</ele>
        <time>2021-12-27T19:12:10Z</time>
      </trkpt>
      <trkpt lat="46.55566" lon="4.21198">
        <ele>255</ele>
        <time>2021-12-27T19:12:16Z</time>
      </trkpt>
      <trkpt lat="46.55543" lon="4.21283">
        <ele>254</ele>
        <time>2021-12-27T19:12:27Z</time>
      </trkpt>
      <trkpt lat="46.55523" lon="4.21329">
        <ele>254</ele>
        <time>2021-12-27T19:12:34Z</time>
      </trkpt>
      <trkpt lat="46.55489" lon="4.21402">
        <ele>256</ele>
        <time>2021-12-27T19:12:44Z</time>
      </trkpt>
      <trkpt lat="46.55452" lon="4.21488">
        <ele>258</ele>
        <time>2021-12-27T19:12:57Z</time>
      </trkpt>
      <trkpt lat="46.55441" lon="4.2151">
        <ele>259</ele>
        <time>2021-12-27T19:13:00Z</time>
      </trkpt>
      <trkpt lat="46.55439" lon="4.21514">
        <ele>259</ele>
        <time>2021-12-27T19:13:01Z</time>
      </trkpt>
      <trkpt lat="46.55388" lon="4.21686">
        <ele>264</ele>
        <time>2021-12-27T19:13:24Z</time>
      </trkpt>
      <trkpt lat="46.55367" lon="4.21768">
        <ele>268</ele>
        <time>2021-12-27T19:13:34Z</time>
      </trkpt>
      <trkpt lat="46.5536" lon="4.21826">
        <ele>270</ele>
        <time>2021-12-27T19:13:42Z</time>
      </trkpt>
      <trkpt lat="46.55356" lon="4.21835">
        <ele>271</ele>
        <time>2021-12-27T19:13:43Z</time>
      </trkpt>
      <trkpt lat="46.55341" lon="4.21849">
        <ele>271</ele>
        <time>2021-12-27T19:13:46Z</time>
      </trkpt>
      <trkpt lat="46.55336" lon="4.21859">
        <ele>272</ele>
        <time>2021-12-27T19:13:47Z</time>
      </trkpt>
      <trkpt lat="46.55334" lon="4.2187">
        <ele>272</ele>
        <time>2021-12-27T19:13:49Z</time>
      </trkpt>
      <trkpt lat="46.55331" lon="4.21904">
        <ele>273</ele>
        <time>2021-12-27T19:13:53Z</time>
      </trkpt>
      <trkpt lat="46.55331" lon="4.21931">
        <ele>274</ele>
        <time>2021-12-27T19:13:56Z</time>
      </trkpt>
      <trkpt lat="46.55293" lon="4.21922">
        <ele>272</ele>
        <time>2021-12-27T19:14:03Z</time>
      </trkpt>
      <trkpt lat="46.55137" lon="4.21895">
        <ele>266</ele>
        <time>2021-12-27T19:14:31Z</time>
      </trkpt>
      <trkpt lat="46.54764" lon="4.21813">
        <ele>273</ele>
        <time>2021-12-27T19:15:38Z</time>
      </trkpt>
      <trkpt lat="46.54716" lon="4.21806">
        <ele>272</ele>
        <time>2021-12-27T19:15:47Z</time>
      </trkpt>
      <trkpt lat="46.5467" lon="4.21796">
        <ele>272</ele>
        <time>2021-12-27T19:15:55Z</time>
      </trkpt>
      <trkpt lat="46.54628" lon="4.21779">
        <ele>272</ele>
        <time>2021-12-27T19:16:03Z</time>
      </trkpt>
      <trkpt lat="46.5449" lon="4.21687">
        <ele>276</ele>
        <time>2021-12-27T19:16:30Z</time>
      </trkpt>
      <trkpt lat="46.54482" lon="4.21679">
        <ele>276</ele>
        <time>2021-12-27T19:16:32Z</time>
      </trkpt>
      <trkpt lat="46.5446" lon="4.21639">
        <ele>276</ele>
        <time>2021-12-27T19:16:38Z</time>
      </trkpt>
      <trkpt lat="46.54403" lon="4.21456">
        <ele>270</ele>
        <time>2021-12-27T19:17:03Z</time>
      </trkpt>
      <trkpt lat="46.54393" lon="4.21439">
        <ele>270</ele>
        <time>2021-12-27T19:17:05Z</time>
      </trkpt>
      <trkpt lat="46.54382" lon="4.21425">
        <ele>269</ele>
        <time>2021-12-27T19:17:08Z</time>
      </trkpt>
      <trkpt lat="46.5432" lon="4.21361">
        <ele>266</ele>
        <time>2021-12-27T19:17:21Z</time>
      </trkpt>
      <trkpt lat="46.54303" lon="4.2135">
        <ele>265</ele>
        <time>2021-12-27T19:17:25Z</time>
      </trkpt>
      <trkpt lat="46.54291" lon="4.21345">
        <ele>264</ele>
        <time>2021-12-27T19:17:27Z</time>
      </trkpt>
      <trkpt lat="46.54276" lon="4.21346">
        <ele>264</ele>
        <time>2021-12-27T19:17:30Z</time>
      </trkpt>
      <trkpt lat="46.54262" lon="4.21351">
        <ele>263</ele>
        <time>2021-12-27T19:17:32Z</time>
      </trkpt>
      <trkpt lat="46.54247" lon="4.21361">
        <ele>263</ele>
        <time>2021-12-27T19:17:35Z</time>
      </trkpt>
      <trkpt lat="46.5418" lon="4.2142">
        <ele>262</ele>
        <time>2021-12-27T19:17:49Z</time>
      </trkpt>
      <trkpt lat="46.54169" lon="4.21426">
        <ele>262</ele>
        <time>2021-12-27T19:17:51Z</time>
      </trkpt>
      <trkpt lat="46.54154" lon="4.21428">
        <ele>262</ele>
        <time>2021-12-27T19:17:54Z</time>
      </trkpt>
      <trkpt lat="46.54143" lon="4.21426">
        <ele>262</ele>
        <time>2021-12-27T19:17:56Z</time>
      </trkpt>
      <trkpt lat="46.5412" lon="4.21414">
        <ele>262</ele>
        <time>2021-12-27T19:18:00Z</time>
      </trkpt>
      <trkpt lat="46.54111" lon="4.2141">
        <ele>262</ele>
        <time>2021-12-27T19:18:02Z</time>
      </trkpt>
      <trkpt lat="46.54097" lon="4.21405">
        <ele>262</ele>
        <time>2021-12-27T19:18:04Z</time>
      </trkpt>
      <trkpt lat="46.54086" lon="4.21406">
        <ele>262</ele>
        <time>2021-12-27T19:18:06Z</time>
      </trkpt>
      <trkpt lat="46.54062" lon="4.21413">
        <ele>264</ele>
        <time>2021-12-27T19:18:11Z</time>
      </trkpt>
      <trkpt lat="46.54007" lon="4.21445">
        <ele>267</ele>
        <time>2021-12-27T19:18:21Z</time>
      </trkpt>
      <trkpt lat="46.53984" lon="4.21447">
        <ele>268</ele>
        <time>2021-12-27T19:18:25Z</time>
      </trkpt>
      <trkpt lat="46.53969" lon="4.21444">
        <ele>270</ele>
        <time>2021-12-27T19:18:28Z</time>
      </trkpt>
      <trkpt lat="46.53951" lon="4.21437">
        <ele>271</ele>
        <time>2021-12-27T19:18:31Z</time>
      </trkpt>
      <trkpt lat="46.53872" lon="4.2139">
        <ele>277</ele>
        <time>2021-12-27T19:18:47Z</time>
      </trkpt>
      <trkpt lat="46.53856" lon="4.21384">
        <ele>278</ele>
        <time>2021-12-27T19:18:49Z</time>
      </trkpt>
      <trkpt lat="46.53837" lon="4.2138">
        <ele>278</ele>
        <time>2021-12-27T19:18:53Z</time>
      </trkpt>
      <trkpt lat="46.53638" lon="4.21364">
        <ele>279</ele>
        <time>2021-12-27T19:19:28Z</time>
      </trkpt>
      <trkpt lat="46.53543" lon="4.2132">
        <ele>279</ele>
        <time>2021-12-27T19:19:46Z</time>
      </trkpt>
      <trkpt lat="46.53526" lon="4.21317">
        <ele>280</ele>
        <time>2021-12-27T19:19:49Z</time>
      </trkpt>
      <trkpt lat="46.53113" lon="4.21288">
        <ele>276</ele>
        <time>2021-12-27T19:21:03Z</time>
      </trkpt>
      <trkpt lat="46.53057" lon="4.2129">
        <ele>277</ele>
        <time>2021-12-27T19:21:13Z</time>
      </trkpt>
      <trkpt lat="46.52587" lon="4.21331">
        <ele>278</ele>
        <time>2021-12-27T19:22:36Z</time>
      </trkpt>
      <trkpt lat="46.52552" lon="4.21329">
        <ele>276</ele>
        <time>2021-12-27T19:22:43Z</time>
      </trkpt>
      <trkpt lat="46.52515" lon="4.2132">
        <ele>275</ele>
        <time>2021-12-27T19:22:49Z</time>
      </trkpt>
      <trkpt lat="46.52442" lon="4.21283">
        <ele>274</ele>
        <time>2021-12-27T19:23:03Z</time>
      </trkpt>
      <trkpt lat="46.52404" lon="4.21261">
        <ele>275</ele>
        <time>2021-12-27T19:23:10Z</time>
      </trkpt>
      <trkpt lat="46.52381" lon="4.21244">
        <ele>275</ele>
        <time>2021-12-27T19:23:15Z</time>
      </trkpt>
      <trkpt lat="46.52362" lon="4.21235">
        <ele>275</ele>
        <time>2021-12-27T19:23:19Z</time>
      </trkpt>
      <trkpt lat="46.52107" lon="4.21167">
        <ele>284</ele>
        <time>2021-12-27T19:24:05Z</time>
      </trkpt>
      <trkpt lat="46.51936" lon="4.21086">
        <ele>286</ele>
        <time>2021-12-27T19:24:37Z</time>
      </trkpt>
      <trkpt lat="46.51908" lon="4.21071">
        <ele>286</ele>
        <time>2021-12-27T19:24:42Z</time>
      </trkpt>
      <trkpt lat="46.51895" lon="4.21061">
        <ele>287</ele>
        <time>2021-12-27T19:24:45Z</time>
      </trkpt>
      <trkpt lat="46.51827" lon="4.20967">
        <ele>288</ele>
        <time>2021-12-27T19:25:01Z</time>
      </trkpt>
      <trkpt lat="46.51752" lon="4.20859">
        <ele>285</ele>
        <time>2021-12-27T19:25:20Z</time>
      </trkpt>
      <trkpt lat="46.51733" lon="4.20846">
        <ele>285</ele>
        <time>2021-12-27T19:25:24Z</time>
      </trkpt>
      <trkpt lat="46.51418" lon="4.20729">
        <ele>283</ele>
        <time>2021-12-27T19:26:22Z</time>
      </trkpt>
      <trkpt lat="46.51278" lon="4.20683">
        <ele>277</ele>
        <time>2021-12-27T19:26:47Z</time>
      </trkpt>
      <trkpt lat="46.51196" lon="4.20649">
        <ele>273</ele>
        <time>2021-12-27T19:27:02Z</time>
      </trkpt>
      <trkpt lat="46.51157" lon="4.20642">
        <ele>272</ele>
        <time>2021-12-27T19:27:09Z</time>
      </trkpt>
      <trkpt lat="46.51108" lon="4.20645">
        <ele>273</ele>
        <time>2021-12-27T19:27:18Z</time>
      </trkpt>
      <trkpt lat="46.51089" lon="4.20649">
        <ele>274</ele>
        <time>2021-12-27T19:27:21Z</time>
      </trkpt>
      <trkpt lat="46.51048" lon="4.20671">
        <ele>274</ele>
        <time>2021-12-27T19:27:29Z</time>
      </trkpt>
      <trkpt lat="46.50996" lon="4.20683">
        <ele>272</ele>
        <time>2021-12-27T19:27:39Z</time>
      </trkpt>
      <trkpt lat="46.50788" lon="4.20686">
        <ele>275</ele>
        <time>2021-12-27T19:28:16Z</time>
      </trkpt>
      <trkpt lat="46.50648" lon="4.20684">
        <ele>279</ele>
        <time>2021-12-27T19:28:41Z</time>
      </trkpt>
      <trkpt lat="46.50573" lon="4.20696">
        <ele>280</ele>
        <time>2021-12-27T19:28:54Z</time>
      </trkpt>
      <trkpt lat="46.50552" lon="4.20704">
        <ele>280</ele>
        <time>2021-12-27T19:28:58Z</time>
      </trkpt>
      <trkpt lat="46.50352" lon="4.20765">
        <ele>284</ele>
        <time>2021-12-27T19:29:34Z</time>
      </trkpt>
      <trkpt lat="46.50268" lon="4.20863">
        <ele>285</ele>
        <time>2021-12-27T19:29:53Z</time>
      </trkpt>
      <trkpt lat="46.50259" lon="4.20867">
        <ele>284</ele>
        <time>2021-12-27T19:29:55Z</time>
      </trkpt>
      <trkpt lat="46.50242" lon="4.20863">
        <ele>283</ele>
        <time>2021-12-27T19:29:58Z</time>
      </trkpt>
      <trkpt lat="46.50234" lon="4.2089">
        <ele>284</ele>
        <time>2021-12-27T19:30:02Z</time>
      </trkpt>
      <trkpt lat="46.50228" lon="4.20905">
        <ele>284</ele>
        <time>2021-12-27T19:30:04Z</time>
      </trkpt>
      <trkpt lat="46.50219" lon="4.20921">
        <ele>284</ele>
        <time>2021-12-27T19:30:06Z</time>
      </trkpt>
      <trkpt lat="46.50196" lon="4.20954">
        <ele>283</ele>
        <time>2021-12-27T19:30:12Z</time>
      </trkpt>
      <trkpt lat="46.50135" lon="4.21029">
        <ele>280</ele>
        <time>2021-12-27T19:30:26Z</time>
      </trkpt>
      <trkpt lat="46.50105" lon="4.21069">
        <ele>279</ele>
        <time>2021-12-27T19:30:34Z</time>
      </trkpt>
      <trkpt lat="46.5009" lon="4.21086">
        <ele>279</ele>
        <time>2021-12-27T19:30:37Z</time>
      </trkpt>
      <trkpt lat="46.50013" lon="4.21146">
        <ele>277</ele>
        <time>2021-12-27T19:30:53Z</time>
      </trkpt>
      <trkpt lat="46.49956" lon="4.21185">
        <ele>274</ele>
        <time>2021-12-27T19:31:04Z</time>
      </trkpt>
      <trkpt lat="46.49752" lon="4.21305">
        <ele>261</ele>
        <time>2021-12-27T19:31:43Z</time>
      </trkpt>
      <trkpt lat="46.49696" lon="4.21347">
        <ele>261</ele>
        <time>2021-12-27T19:31:54Z</time>
      </trkpt>
      <trkpt lat="46.49684" lon="4.21356">
        <ele>261</ele>
        <time>2021-12-27T19:31:57Z</time>
      </trkpt>
      <trkpt lat="46.49513" lon="4.21493">
        <ele>272</ele>
        <time>2021-12-27T19:32:31Z</time>
      </trkpt>
      <trkpt lat="46.49464" lon="4.21538">
        <ele>273</ele>
        <time>2021-12-27T19:32:42Z</time>
      </trkpt>
      <trkpt lat="46.49447" lon="4.21549">
        <ele>272</ele>
        <time>2021-12-27T19:32:45Z</time>
      </trkpt>
      <trkpt lat="46.49346" lon="4.21628">
        <ele>263</ele>
        <time>2021-12-27T19:33:05Z</time>
      </trkpt>
      <trkpt lat="46.49334" lon="4.21639">
        <ele>262</ele>
        <time>2021-12-27T19:33:08Z</time>
      </trkpt>
      <trkpt lat="46.49324" lon="4.21654">
        <ele>262</ele>
        <time>2021-12-27T19:33:10Z</time>
      </trkpt>
      <trkpt lat="46.49315" lon="4.21669">
        <ele>262</ele>
        <time>2021-12-27T19:33:13Z</time>
      </trkpt>
      <trkpt lat="46.4923" lon="4.21832">
        <ele>271</ele>
        <time>2021-12-27T19:33:38Z</time>
      </trkpt>
      <trkpt lat="46.4921" lon="4.21859">
        <ele>273</ele>
        <time>2021-12-27T19:33:43Z</time>
      </trkpt>
      <trkpt lat="46.49187" lon="4.21876">
        <ele>276</ele>
        <time>2021-12-27T19:33:47Z</time>
      </trkpt>
      <trkpt lat="46.49169" lon="4.21885">
        <ele>278</ele>
        <time>2021-12-27T19:33:51Z</time>
      </trkpt>
      <trkpt lat="46.48963" lon="4.21968">
        <ele>288</ele>
        <time>2021-12-27T19:34:29Z</time>
      </trkpt>
      <trkpt lat="46.48923" lon="4.21988">
        <ele>289</ele>
        <time>2021-12-27T19:34:36Z</time>
      </trkpt>
      <trkpt lat="46.48906" lon="4.22001">
        <ele>290</ele>
        <time>2021-12-27T19:34:40Z</time>
      </trkpt>
      <trkpt lat="46.48832" lon="4.22076">
        <ele>291</ele>
        <time>2021-12-27T19:34:56Z</time>
      </trkpt>
      <trkpt lat="46.48814" lon="4.22098">
        <ele>292</ele>
        <time>2021-12-27T19:35:00Z</time>
      </trkpt>
      <trkpt lat="46.48799" lon="4.22121">
        <ele>293</ele>
        <time>2021-12-27T19:35:04Z</time>
      </trkpt>
      <trkpt lat="46.48785" lon="4.22147">
        <ele>294</ele>
        <time>2021-12-27T19:35:08Z</time>
      </trkpt>
      <trkpt lat="46.4873" lon="4.22267">
        <ele>295</ele>
        <time>2021-12-27T19:35:26Z</time>
      </trkpt>
      <trkpt lat="46.48701" lon="4.22323">
        <ele>295</ele>
        <time>2021-12-27T19:35:34Z</time>
      </trkpt>
      <trkpt lat="46.48655" lon="4.22388">
        <ele>297</ele>
        <time>2021-12-27T19:35:46Z</time>
      </trkpt>
      <trkpt lat="46.48618" lon="4.22436">
        <ele>299</ele>
        <time>2021-12-27T19:35:54Z</time>
      </trkpt>
      <trkpt lat="46.48566" lon="4.22506">
        <ele>298</ele>
        <time>2021-12-27T19:36:07Z</time>
      </trkpt>
      <trkpt lat="46.48534" lon="4.2259">
        <ele>293</ele>
        <time>2021-12-27T19:36:19Z</time>
      </trkpt>
      <trkpt lat="46.48519" lon="4.22641">
        <ele>293</ele>
        <time>2021-12-27T19:36:26Z</time>
      </trkpt>
      <trkpt lat="46.48507" lon="4.22705">
        <ele>295</ele>
        <time>2021-12-27T19:36:34Z</time>
      </trkpt>
      <trkpt lat="46.48495" lon="4.22786">
        <ele>297</ele>
        <time>2021-12-27T19:36:44Z</time>
      </trkpt>
      <trkpt lat="46.48487" lon="4.22829">
        <ele>298</ele>
        <time>2021-12-27T19:36:49Z</time>
      </trkpt>
      <trkpt lat="46.48482" lon="4.22853">
        <ele>299</ele>
        <time>2021-12-27T19:36:52Z</time>
      </trkpt>
      <trkpt lat="46.48475" lon="4.22872">
        <ele>299</ele>
        <time>2021-12-27T19:36:55Z</time>
      </trkpt>
      <trkpt lat="46.48383" lon="4.23092">
        <ele>302</ele>
        <time>2021-12-27T19:37:26Z</time>
      </trkpt>
      <trkpt lat="46.48369" lon="4.23115">
        <ele>303</ele>
        <time>2021-12-27T19:37:30Z</time>
      </trkpt>
      <trkpt lat="46.48354" lon="4.23136">
        <ele>303</ele>
        <time>2021-12-27T19:37:34Z</time>
      </trkpt>
      <trkpt lat="46.48306" lon="4.23189">
        <ele>304</ele>
        <time>2021-12-27T19:37:45Z</time>
      </trkpt>
      <trkpt lat="46.48275" lon="4.23233">
        <ele>304</ele>
        <time>2021-12-27T19:37:52Z</time>
      </trkpt>
      <trkpt lat="46.48228" lon="4.23308">
        <ele>307</ele>
        <time>2021-12-27T19:38:05Z</time>
      </trkpt>
      <trkpt lat="46.48203" lon="4.23343">
        <ele>309</ele>
        <time>2021-12-27T19:38:11Z</time>
      </trkpt>
      <trkpt lat="46.48182" lon="4.23367">
        <ele>310</ele>
        <time>2021-12-27T19:38:16Z</time>
      </trkpt>
      <trkpt lat="46.48134" lon="4.23417">
        <ele>312</ele>
        <time>2021-12-27T19:38:26Z</time>
      </trkpt>
      <trkpt lat="46.48008" lon="4.23616">
        <ele>316</ele>
        <time>2021-12-27T19:38:59Z</time>
      </trkpt>
      <trkpt lat="46.4798" lon="4.23652">
        <ele>318</ele>
        <time>2021-12-27T19:39:06Z</time>
      </trkpt>
      <trkpt lat="46.47913" lon="4.23732">
        <ele>321</ele>
        <time>2021-12-27T19:39:21Z</time>
      </trkpt>
      <trkpt lat="46.47893" lon="4.23762">
        <ele>323</ele>
        <time>2021-12-27T19:39:27Z</time>
      </trkpt>
      <trkpt lat="46.47869" lon="4.23803">
        <ele>325</ele>
        <time>2021-12-27T19:39:33Z</time>
      </trkpt>
      <trkpt lat="46.4783" lon="4.23886">
        <ele>329</ele>
        <time>2021-12-27T19:39:45Z</time>
      </trkpt>
      <trkpt lat="46.47812" lon="4.23919">
        <ele>331</ele>
        <time>2021-12-27T19:39:51Z</time>
      </trkpt>
      <trkpt lat="46.47768" lon="4.23977">
        <ele>334</ele>
        <time>2021-12-27T19:40:01Z</time>
      </trkpt>
      <trkpt lat="46.47748" lon="4.23992">
        <ele>336</ele>
        <time>2021-12-27T19:40:05Z</time>
      </trkpt>
      <trkpt lat="46.47728" lon="4.24004">
        <ele>336</ele>
        <time>2021-12-27T19:40:09Z</time>
      </trkpt>
      <trkpt lat="46.47662" lon="4.24037">
        <ele>338</ele>
        <time>2021-12-27T19:40:22Z</time>
      </trkpt>
      <trkpt lat="46.4764" lon="4.24051">
        <ele>337</ele>
        <time>2021-12-27T19:40:26Z</time>
      </trkpt>
      <trkpt lat="46.47553" lon="4.24119">
        <ele>335</ele>
        <time>2021-12-27T19:40:43Z</time>
      </trkpt>
      <trkpt lat="46.47515" lon="4.24146">
        <ele>334</ele>
        <time>2021-12-27T19:40:51Z</time>
      </trkpt>
      <trkpt lat="46.47497" lon="4.24154">
        <ele>334</ele>
        <time>2021-12-27T19:40:54Z</time>
      </trkpt>
      <trkpt lat="46.47481" lon="4.24157">
        <ele>334</ele>
        <time>2021-12-27T19:40:57Z</time>
      </trkpt>
      <trkpt lat="46.47461" lon="4.24156">
        <ele>334</ele>
        <time>2021-12-27T19:41:01Z</time>
      </trkpt>
      <trkpt lat="46.47348" lon="4.24145">
        <ele>331</ele>
        <time>2021-12-27T19:41:21Z</time>
      </trkpt>
      <trkpt lat="46.47324" lon="4.24137">
        <ele>330</ele>
        <time>2021-12-27T19:41:25Z</time>
      </trkpt>
      <trkpt lat="46.47193" lon="4.24055">
        <ele>326</ele>
        <time>2021-12-27T19:41:51Z</time>
      </trkpt>
      <trkpt lat="46.47173" lon="4.24048">
        <ele>326</ele>
        <time>2021-12-27T19:41:54Z</time>
      </trkpt>
      <trkpt lat="46.47153" lon="4.24049">
        <ele>325</ele>
        <time>2021-12-27T19:41:58Z</time>
      </trkpt>
      <trkpt lat="46.47138" lon="4.24057">
        <ele>324</ele>
        <time>2021-12-27T19:42:01Z</time>
      </trkpt>
      <trkpt lat="46.47125" lon="4.2407">
        <ele>323</ele>
        <time>2021-12-27T19:42:03Z</time>
      </trkpt>
      <trkpt lat="46.47115" lon="4.24088">
        <ele>323</ele>
        <time>2021-12-27T19:42:06Z</time>
      </trkpt>
      <trkpt lat="46.47109" lon="4.24112">
        <ele>322</ele>
        <time>2021-12-27T19:42:09Z</time>
      </trkpt>
      <trkpt lat="46.47105" lon="4.24139">
        <ele>321</ele>
        <time>2021-12-27T19:42:13Z</time>
      </trkpt>
      <trkpt lat="46.47094" lon="4.24324">
        <ele>318</ele>
        <time>2021-12-27T19:42:36Z</time>
      </trkpt>
      <trkpt lat="46.4709" lon="4.24344">
        <ele>317</ele>
        <time>2021-12-27T19:42:38Z</time>
      </trkpt>
      <trkpt lat="46.47049" lon="4.24512">
        <ele>314</ele>
        <time>2021-12-27T19:43:00Z</time>
      </trkpt>
      <trkpt lat="46.47042" lon="4.24535">
        <ele>313</ele>
        <time>2021-12-27T19:43:03Z</time>
      </trkpt>
      <trkpt lat="46.47031" lon="4.24557">
        <ele>312</ele>
        <time>2021-12-27T19:43:06Z</time>
      </trkpt>
      <trkpt lat="46.47009" lon="4.24592">
        <ele>309</ele>
        <time>2021-12-27T19:43:12Z</time>
      </trkpt>
      <trkpt lat="46.46983" lon="4.24618">
        <ele>307</ele>
        <time>2021-12-27T19:43:18Z</time>
      </trkpt>
      <trkpt lat="46.46966" lon="4.24631">
        <ele>307</ele>
        <time>2021-12-27T19:43:21Z</time>
      </trkpt>
      <trkpt lat="46.46926" lon="4.24652">
        <ele>305</ele>
        <time>2021-12-27T19:43:29Z</time>
      </trkpt>
      <trkpt lat="46.46858" lon="4.24678">
        <ele>304</ele>
        <time>2021-12-27T19:43:41Z</time>
      </trkpt>
      <trkpt lat="46.46843" lon="4.24687">
        <ele>304</ele>
        <time>2021-12-27T19:43:44Z</time>
      </trkpt>
      <trkpt lat="46.46814" lon="4.24717">
        <ele>304</ele>
        <time>2021-12-27T19:43:51Z</time>
      </trkpt>
      <trkpt lat="46.46758" lon="4.24788">
        <ele>307</ele>
        <time>2021-12-27T19:44:04Z</time>
      </trkpt>
      <trkpt lat="46.4674" lon="4.24809">
        <ele>308</ele>
        <time>2021-12-27T19:44:08Z</time>
      </trkpt>
      <trkpt lat="46.46721" lon="4.24826">
        <ele>309</ele>
        <time>2021-12-27T19:44:12Z</time>
      </trkpt>
      <trkpt lat="46.46703" lon="4.24839">
        <ele>310</ele>
        <time>2021-12-27T19:44:15Z</time>
      </trkpt>
      <trkpt lat="46.46673" lon="4.24855">
        <ele>312</ele>
        <time>2021-12-27T19:44:21Z</time>
      </trkpt>
      <trkpt lat="46.46592" lon="4.24884">
        <ele>317</ele>
        <time>2021-12-27T19:44:36Z</time>
      </trkpt>
      <trkpt lat="46.46553" lon="4.24895">
        <ele>319</ele>
        <time>2021-12-27T19:44:43Z</time>
      </trkpt>
      <trkpt lat="46.46518" lon="4.24894">
        <ele>321</ele>
        <time>2021-12-27T19:44:49Z</time>
      </trkpt>
      <trkpt lat="46.46474" lon="4.24884">
        <ele>322</ele>
        <time>2021-12-27T19:44:57Z</time>
      </trkpt>
      <trkpt lat="46.46457" lon="4.24882">
        <ele>323</ele>
        <time>2021-12-27T19:45:00Z</time>
      </trkpt>
      <trkpt lat="46.46437" lon="4.24882">
        <ele>324</ele>
        <time>2021-12-27T19:45:04Z</time>
      </trkpt>
      <trkpt lat="46.46403" lon="4.24891">
        <ele>325</ele>
        <time>2021-12-27T19:45:10Z</time>
      </trkpt>
      <trkpt lat="46.46387" lon="4.24899">
        <ele>326</ele>
        <time>2021-12-27T19:45:13Z</time>
      </trkpt>
      <trkpt lat="46.46306" lon="4.24965">
        <ele>331</ele>
        <time>2021-12-27T19:45:29Z</time>
      </trkpt>
      <trkpt lat="46.4627" lon="4.24983">
        <ele>333</ele>
        <time>2021-12-27T19:45:36Z</time>
      </trkpt>
      <trkpt lat="46.46128" lon="4.25042">
        <ele>341</ele>
        <time>2021-12-27T19:46:02Z</time>
      </trkpt>
      <trkpt lat="46.46101" lon="4.25055">
        <ele>343</ele>
        <time>2021-12-27T19:46:08Z</time>
      </trkpt>
      <trkpt lat="46.46051" lon="4.25093">
        <ele>347</ele>
        <time>2021-12-27T19:46:18Z</time>
      </trkpt>
      <trkpt lat="46.45956" lon="4.25211">
        <ele>346</ele>
        <time>2021-12-27T19:46:40Z</time>
      </trkpt>
      <trkpt lat="46.45847" lon="4.25331">
        <ele>345</ele>
        <time>2021-12-27T19:47:04Z</time>
      </trkpt>
      <trkpt lat="46.45394" lon="4.25919">
        <ele>335</ele>
        <time>2021-12-27T19:48:52Z</time>
      </trkpt>
      <trkpt lat="46.45322" lon="4.26127">
        <ele>327</ele>
        <time>2021-12-27T19:49:21Z</time>
      </trkpt>
      <trkpt lat="46.45293" lon="4.26183">
        <ele>326</ele>
        <time>2021-12-27T19:49:29Z</time>
      </trkpt>
      <trkpt lat="46.4526" lon="4.26215">
        <ele>327</ele>
        <time>2021-12-27T19:49:36Z</time>
      </trkpt>
      <trkpt lat="46.45141" lon="4.26272">
        <ele>326</ele>
        <time>2021-12-27T19:49:59Z</time>
      </trkpt>
      <trkpt lat="46.45091" lon="4.26293">
        <ele>325</ele>
        <time>2021-12-27T19:50:08Z</time>
      </trkpt>
      <trkpt lat="46.44683" lon="4.2649">
        <ele>317</ele>
        <time>2021-12-27T19:51:25Z</time>
      </trkpt>
      <trkpt lat="46.44666" lon="4.26501">
        <ele>315</ele>
        <time>2021-12-27T19:51:28Z</time>
      </trkpt>
      <trkpt lat="46.44649" lon="4.26521">
        <ele>313</ele>
        <time>2021-12-27T19:51:32Z</time>
      </trkpt>
      <trkpt lat="46.44635" lon="4.26552">
        <ele>311</ele>
        <time>2021-12-27T19:51:36Z</time>
      </trkpt>
      <trkpt lat="46.44614" lon="4.26638">
        <ele>308</ele>
        <time>2021-12-27T19:51:47Z</time>
      </trkpt>
      <trkpt lat="46.44609" lon="4.26655">
        <ele>307</ele>
        <time>2021-12-27T19:51:50Z</time>
      </trkpt>
      <trkpt lat="46.44602" lon="4.2667">
        <ele>307</ele>
        <time>2021-12-27T19:51:52Z</time>
      </trkpt>
      <trkpt lat="46.44584" lon="4.26692">
        <ele>305</ele>
        <time>2021-12-27T19:51:56Z</time>
      </trkpt>
      <trkpt lat="46.44545" lon="4.26724">
        <ele>304</ele>
        <time>2021-12-27T19:52:04Z</time>
      </trkpt>
      <trkpt lat="46.44527" lon="4.26748">
        <ele>303</ele>
        <time>2021-12-27T19:52:08Z</time>
      </trkpt>
      <trkpt lat="46.44513" lon="4.26789">
        <ele>303</ele>
        <time>2021-12-27T19:52:14Z</time>
      </trkpt>
      <trkpt lat="46.44505" lon="4.26806">
        <ele>302</ele>
        <time>2021-12-27T19:52:17Z</time>
      </trkpt>
      <trkpt lat="46.4449" lon="4.26825">
        <ele>303</ele>
        <time>2021-12-27T19:52:20Z</time>
      </trkpt>
      <trkpt lat="46.44475" lon="4.26837">
        <ele>303</ele>
        <time>2021-12-27T19:52:23Z</time>
      </trkpt>
      <trkpt lat="46.44458" lon="4.26845">
        <ele>302</ele>
        <time>2021-12-27T19:52:26Z</time>
      </trkpt>
      <trkpt lat="46.44444" lon="4.26847">
        <ele>302</ele>
        <time>2021-12-27T19:52:29Z</time>
      </trkpt>
      <trkpt lat="46.44398" lon="4.26848">
        <ele>303</ele>
        <time>2021-12-27T19:52:37Z</time>
      </trkpt>
      <trkpt lat="46.44381" lon="4.26852">
        <ele>303</ele>
        <time>2021-12-27T19:52:40Z</time>
      </trkpt>
      <trkpt lat="46.44352" lon="4.26867">
        <ele>302</ele>
        <time>2021-12-27T19:52:46Z</time>
      </trkpt>
      <trkpt lat="46.44247" lon="4.26928">
        <ele>301</ele>
        <time>2021-12-27T19:53:06Z</time>
      </trkpt>
      <trkpt lat="46.44219" lon="4.26947">
        <ele>301</ele>
        <time>2021-12-27T19:53:11Z</time>
      </trkpt>
      <trkpt lat="46.44158" lon="4.27005">
        <ele>301</ele>
        <time>2021-12-27T19:53:24Z</time>
      </trkpt>
      <trkpt lat="46.44134" lon="4.27025">
        <ele>300</ele>
        <time>2021-12-27T19:53:29Z</time>
      </trkpt>
      <trkpt lat="46.4408" lon="4.27045">
        <ele>301</ele>
        <time>2021-12-27T19:53:39Z</time>
      </trkpt>
      <trkpt lat="46.43906" lon="4.27099">
        <ele>299</ele>
        <time>2021-12-27T19:54:11Z</time>
      </trkpt>
      <trkpt lat="46.43876" lon="4.27112">
        <ele>298</ele>
        <time>2021-12-27T19:54:16Z</time>
      </trkpt>
      <trkpt lat="46.43823" lon="4.27156">
        <ele>296</ele>
        <time>2021-12-27T19:54:27Z</time>
      </trkpt>
      <trkpt lat="46.43804" lon="4.27176">
        <ele>296</ele>
        <time>2021-12-27T19:54:31Z</time>
      </trkpt>
      <trkpt lat="46.43795" lon="4.27182">
        <ele>296</ele>
        <time>2021-12-27T19:54:33Z</time>
      </trkpt>
      <trkpt lat="46.43788" lon="4.27185">
        <ele>296</ele>
        <time>2021-12-27T19:54:34Z</time>
      </trkpt>
      <trkpt lat="46.43689" lon="4.27176">
        <ele>296</ele>
        <time>2021-12-27T19:54:52Z</time>
      </trkpt>
      <trkpt lat="46.43682" lon="4.27179">
        <ele>296</ele>
        <time>2021-12-27T19:54:53Z</time>
      </trkpt>
      <trkpt lat="46.43665" lon="4.27193">
        <ele>295</ele>
        <time>2021-12-27T19:54:57Z</time>
      </trkpt>
      <trkpt lat="46.43653" lon="4.27195">
        <ele>294</ele>
        <time>2021-12-27T19:54:59Z</time>
      </trkpt>
      <trkpt lat="46.43648" lon="4.27213">
        <ele>293</ele>
        <time>2021-12-27T19:55:01Z</time>
      </trkpt>
      <trkpt lat="46.43644" lon="4.27218">
        <ele>293</ele>
        <time>2021-12-27T19:55:02Z</time>
      </trkpt>
      <trkpt lat="46.43576" lon="4.27285">
        <ele>288</ele>
        <time>2021-12-27T19:55:17Z</time>
      </trkpt>
      <trkpt lat="46.43525" lon="4.27335">
        <ele>283</ele>
        <time>2021-12-27T19:55:28Z</time>
      </trkpt>
      <trkpt lat="46.43536" lon="4.27338">
        <ele>283</ele>
        <time>2021-12-27T19:55:30Z</time>
      </trkpt>
      <trkpt lat="46.43562" lon="4.27366">
        <ele>284</ele>
        <time>2021-12-27T19:55:36Z</time>
      </trkpt>
      <trkpt lat="46.43596" lon="4.27407">
        <ele>284</ele>
        <time>2021-12-27T19:55:43Z</time>
      </trkpt>
      <trkpt lat="46.4362" lon="4.27428">
        <ele>283</ele>
        <time>2021-12-27T19:55:48Z</time>
      </trkpt>
      <trkpt lat="46.43623" lon="4.27424">
        <ele>283</ele>
        <time>2021-12-27T19:55:49Z</time>
      </trkpt>
      <trkpt lat="46.43629" lon="4.27432">
        <ele>283</ele>
        <time>2021-12-27T19:55:51Z</time>
      </trkpt>
      <trkpt lat="46.43659" lon="4.27448">
        <ele>282</ele>
        <time>2021-12-27T19:55:56Z</time>
      </trkpt>
      <trkpt lat="46.43673" lon="4.27457">
        <ele>282</ele>
        <time>2021-12-27T19:55:59Z</time>
      </trkpt>
      <trkpt lat="46.43679" lon="4.27464">
        <ele>282</ele>
        <time>2021-12-27T19:56:00Z</time>
      </trkpt>
      <trkpt lat="46.43688" lon="4.2748">
        <ele>282</ele>
        <time>2021-12-27T19:56:03Z</time>
      </trkpt>
      <trkpt lat="46.43694" lon="4.27499">
        <ele>281</ele>
        <time>2021-12-27T19:56:06Z</time>
      </trkpt>
      <trkpt lat="46.43696" lon="4.27511">
        <ele>282</ele>
        <time>2021-12-27T19:56:07Z</time>
      </trkpt>
      <trkpt lat="46.437" lon="4.27563">
        <ele>283</ele>
        <time>2021-12-27T19:56:13Z</time>
      </trkpt>
      <trkpt lat="46.43704" lon="4.27599">
        <ele>284</ele>
        <time>2021-12-27T19:56:18Z</time>
      </trkpt>
      <trkpt lat="46.4374" lon="4.27701">
        <ele>284</ele>
        <time>2021-12-27T19:56:32Z</time>
      </trkpt>
      <trkpt lat="46.43742" lon="4.27713">
        <ele>284</ele>
        <time>2021-12-27T19:56:33Z</time>
      </trkpt>
      <trkpt lat="46.43741" lon="4.27717">
        <ele>284</ele>
        <time>2021-12-27T19:56:34Z</time>
      </trkpt>
      <trkpt lat="46.43685" lon="4.27772">
        <ele>283</ele>
        <time>2021-12-27T19:56:46Z</time>
      </trkpt>
      <trkpt lat="46.43667" lon="4.27782">
        <ele>283</ele>
        <time>2021-12-27T19:56:49Z</time>
      </trkpt>
      <trkpt lat="46.43638" lon="4.27793">
        <ele>284</ele>
        <time>2021-12-27T19:56:55Z</time>
      </trkpt>
      <trkpt lat="46.43633" lon="4.27795">
        <ele>284</ele>
        <time>2021-12-27T19:56:56Z</time>
      </trkpt>
      <trkpt lat="46.4363" lon="4.27801">
        <ele>284</ele>
        <time>2021-12-27T19:56:57Z</time>
      </trkpt>
      <trkpt lat="46.43631" lon="4.27813">
        <ele>283</ele>
        <time>2021-12-27T19:56:58Z</time>
      </trkpt>
      <trkpt lat="46.43638" lon="4.27865">
        <ele>283</ele>
        <time>2021-12-27T19:57:05Z</time>
      </trkpt>
      <trkpt lat="46.43633" lon="4.27867">
        <ele>283</ele>
        <time>2021-12-27T19:57:06Z</time>
      </trkpt>
      <trkpt lat="46.4363" lon="4.2787">
        <ele>283</ele>
        <time>2021-12-27T19:57:06Z</time>
      </trkpt>
      <trkpt lat="46.43622" lon="4.27886">
        <ele>283</ele>
        <time>2021-12-27T19:57:09Z</time>
      </trkpt>
      <trkpt lat="46.43626" lon="4.27895">
        <ele>283</ele>
        <time>2021-12-27T19:57:10Z</time>
      </trkpt>
      <trkpt lat="46.43638" lon="4.27907">
        <ele>283</ele>
        <time>2021-12-27T19:57:13Z</time>
      </trkpt>
      <trkpt lat="46.43668" lon="4.27952">
        <ele>283</ele>
        <time>2021-12-27T19:57:20Z</time>
      </trkpt>
      <trkpt lat="46.43713" lon="4.27989">
        <ele>284</ele>
        <time>2021-12-27T19:57:29Z</time>
      </trkpt>
      <trkpt lat="46.4372" lon="4.27999">
        <ele>284</ele>
        <time>2021-12-27T19:57:31Z</time>
      </trkpt>
      <trkpt lat="46.43728" lon="4.28023">
        <ele>285</ele>
        <time>2021-12-27T19:57:34Z</time>
      </trkpt>
      <trkpt lat="46.43731" lon="4.28039">
        <ele>286</ele>
        <time>2021-12-27T19:57:36Z</time>
      </trkpt>
      <trkpt lat="46.43732" lon="4.28057">
        <ele>287</ele>
        <time>2021-12-27T19:57:39Z</time>
      </trkpt>
      <trkpt lat="46.43722" lon="4.28108">
        <ele>289</ele>
        <time>2021-12-27T19:57:45Z</time>
      </trkpt>
      <trkpt lat="46.43718" lon="4.28146">
        <ele>292</ele>
        <time>2021-12-27T19:57:50Z</time>
      </trkpt>
      <trkpt lat="46.43721" lon="4.28295">
        <ele>297</ele>
        <time>2021-12-27T19:58:08Z</time>
      </trkpt>
      <trkpt lat="46.4374" lon="4.28415">
        <ele>299</ele>
        <time>2021-12-27T19:58:23Z</time>
      </trkpt>
      <trkpt lat="46.43978" lon="4.2983">
        <ele>308</ele>
        <time>2021-12-27T20:01:22Z</time>
      </trkpt>
      <trkpt lat="46.43999" lon="4.29951">
        <ele>304</ele>
        <time>2021-12-27T20:01:37Z</time>
      </trkpt>
      <trkpt lat="46.44007" lon="4.2999">
        <ele>303</ele>
        <time>2021-12-27T20:01:42Z</time>
      </trkpt>
      <trkpt lat="46.44011" lon="4.30025">
        <ele>304</ele>
        <time>2021-12-27T20:01:46Z</time>
      </trkpt>
      <trkpt lat="46.44011" lon="4.30046">
        <ele>304</ele>
        <time>2021-12-27T20:01:49Z</time>
      </trkpt>
      <trkpt lat="46.44006" lon="4.30059">
        <ele>304</ele>
        <time>2021-12-27T20:01:51Z</time>
      </trkpt>
      <trkpt lat="46.44005" lon="4.30068">
        <ele>304</ele>
        <time>2021-12-27T20:01:52Z</time>
      </trkpt>
      <trkpt lat="46.44006" lon="4.30077">
        <ele>304</ele>
        <time>2021-12-27T20:01:53Z</time>
      </trkpt>
      <trkpt lat="46.44009" lon="4.30084">
        <ele>304</ele>
        <time>2021-12-27T20:01:54Z</time>
      </trkpt>
      <trkpt lat="46.44014" lon="4.30091">
        <ele>304</ele>
        <time>2021-12-27T20:01:55Z</time>
      </trkpt>
      <trkpt lat="46.4402" lon="4.30094">
        <ele>304</ele>
        <time>2021-12-27T20:01:56Z</time>
      </trkpt>
      <trkpt lat="46.44029" lon="4.30122">
        <ele>305</ele>
        <time>2021-12-27T20:02:00Z</time>
      </trkpt>
      <trkpt lat="46.44042" lon="4.30207">
        <ele>307</ele>
        <time>2021-12-27T20:02:11Z</time>
      </trkpt>
      <trkpt lat="46.44079" lon="4.30423">
        <ele>316</ele>
        <time>2021-12-27T20:02:38Z</time>
      </trkpt>
      <trkpt lat="46.44106" lon="4.30608">
        <ele>320</ele>
        <time>2021-12-27T20:03:01Z</time>
      </trkpt>
      <trkpt lat="46.44108" lon="4.30644">
        <ele>320</ele>
        <time>2021-12-27T20:03:06Z</time>
      </trkpt>
      <trkpt lat="46.44112" lon="4.30711">
        <ele>320</ele>
        <time>2021-12-27T20:03:14Z</time>
      </trkpt>
      <trkpt lat="46.44118" lon="4.30755">
        <ele>320</ele>
        <time>2021-12-27T20:03:20Z</time>
      </trkpt>
      <trkpt lat="46.44133" lon="4.30823">
        <ele>320</ele>
        <time>2021-12-27T20:03:28Z</time>
      </trkpt>
      <trkpt lat="46.44159" lon="4.30911">
        <ele>322</ele>
        <time>2021-12-27T20:03:40Z</time>
      </trkpt>
      <trkpt lat="46.44174" lon="4.30982">
        <ele>319</ele>
        <time>2021-12-27T20:03:49Z</time>
      </trkpt>
      <trkpt lat="46.44217" lon="4.31249">
        <ele>315</ele>
        <time>2021-12-27T20:04:23Z</time>
      </trkpt>
      <trkpt lat="46.44209" lon="4.31256">
        <ele>315</ele>
        <time>2021-12-27T20:04:24Z</time>
      </trkpt>
      <trkpt lat="46.44206" lon="4.31267">
        <ele>315</ele>
        <time>2021-12-27T20:04:26Z</time>
      </trkpt>
      <trkpt lat="46.44207" lon="4.31277">
        <ele>315</ele>
        <time>2021-12-27T20:04:27Z</time>
      </trkpt>
      <trkpt lat="46.4421" lon="4.31283">
        <ele>315</ele>
        <time>2021-12-27T20:04:28Z</time>
      </trkpt>
      <trkpt lat="46.44219" lon="4.3129">
        <ele>315</ele>
        <time>2021-12-27T20:04:30Z</time>
      </trkpt>
      <trkpt lat="46.44224" lon="4.31289">
        <ele>315</ele>
        <time>2021-12-27T20:04:31Z</time>
      </trkpt>
      <trkpt lat="46.44308" lon="4.3178">
        <ele>324</ele>
        <time>2021-12-27T20:05:33Z</time>
      </trkpt>
      <trkpt lat="46.4459" lon="4.33464">
        <ele>301</ele>
        <time>2021-12-27T20:09:05Z</time>
      </trkpt>
      <trkpt lat="46.44644" lon="4.33773">
        <ele>302</ele>
        <time>2021-12-27T20:09:44Z</time>
      </trkpt>
      <trkpt lat="46.44738" lon="4.34353">
        <ele>308</ele>
        <time>2021-12-27T20:10:57Z</time>
      </trkpt>
      <trkpt lat="46.44951" lon="4.35735">
        <ele>316</ele>
        <time>2021-12-27T20:13:51Z</time>
      </trkpt>
      <trkpt lat="46.44997" lon="4.36047">
        <ele>324</ele>
        <time>2021-12-27T20:14:30Z</time>
      </trkpt>
      <trkpt lat="46.44997" lon="4.36114">
        <ele>322</ele>
        <time>2021-12-27T20:14:38Z</time>
      </trkpt>
      <trkpt lat="46.44972" lon="4.36339">
        <ele>311</ele>
        <time>2021-12-27T20:15:06Z</time>
      </trkpt>
      <trkpt lat="46.44969" lon="4.36371">
        <ele>309</ele>
        <time>2021-12-27T20:15:10Z</time>
      </trkpt>
      <trkpt lat="46.4497" lon="4.36401">
        <ele>307</ele>
        <time>2021-12-27T20:15:14Z</time>
      </trkpt>
      <trkpt lat="46.44979" lon="4.36455">
        <ele>306</ele>
        <time>2021-12-27T20:15:21Z</time>
      </trkpt>
      <trkpt lat="46.44989" lon="4.36482">
        <ele>306</ele>
        <time>2021-12-27T20:15:25Z</time>
      </trkpt>
      <trkpt lat="46.45006" lon="4.36516">
        <ele>307</ele>
        <time>2021-12-27T20:15:30Z</time>
      </trkpt>
      <trkpt lat="46.4501" lon="4.36527">
        <ele>307</ele>
        <time>2021-12-27T20:15:31Z</time>
      </trkpt>
      <trkpt lat="46.45012" lon="4.36548">
        <ele>307</ele>
        <time>2021-12-27T20:15:34Z</time>
      </trkpt>
      <trkpt lat="46.45012" lon="4.3656">
        <ele>308</ele>
        <time>2021-12-27T20:15:35Z</time>
      </trkpt>
      <trkpt lat="46.45016" lon="4.36571">
        <ele>308</ele>
        <time>2021-12-27T20:15:37Z</time>
      </trkpt>
      <trkpt lat="46.45022" lon="4.36577">
        <ele>308</ele>
        <time>2021-12-27T20:15:38Z</time>
      </trkpt>
      <trkpt lat="46.4503" lon="4.36577">
        <ele>309</ele>
        <time>2021-12-27T20:15:40Z</time>
      </trkpt>
      <trkpt lat="46.45042" lon="4.3658">
        <ele>310</ele>
        <time>2021-12-27T20:15:42Z</time>
      </trkpt>
      <trkpt lat="46.45049" lon="4.36585">
        <ele>310</ele>
        <time>2021-12-27T20:15:43Z</time>
      </trkpt>
      <trkpt lat="46.45117" lon="4.36675">
        <ele>313</ele>
        <time>2021-12-27T20:15:59Z</time>
      </trkpt>
      <trkpt lat="46.45127" lon="4.36694">
        <ele>314</ele>
        <time>2021-12-27T20:16:02Z</time>
      </trkpt>
      <trkpt lat="46.45135" lon="4.36727">
        <ele>315</ele>
        <time>2021-12-27T20:16:07Z</time>
      </trkpt>
      <trkpt lat="46.45143" lon="4.36735">
        <ele>315</ele>
        <time>2021-12-27T20:16:08Z</time>
      </trkpt>
      <trkpt lat="46.45147" lon="4.36745">
        <ele>315</ele>
        <time>2021-12-27T20:16:10Z</time>
      </trkpt>
      <trkpt lat="46.45154" lon="4.36776">
        <ele>315</ele>
        <time>2021-12-27T20:16:14Z</time>
      </trkpt>
      <trkpt lat="46.45158" lon="4.36841">
        <ele>314</ele>
        <time>2021-12-27T20:16:22Z</time>
      </trkpt>
      <trkpt lat="46.45146" lon="4.36984">
        <ele>318</ele>
        <time>2021-12-27T20:16:39Z</time>
      </trkpt>
      <trkpt lat="46.45146" lon="4.37015">
        <ele>318</ele>
        <time>2021-12-27T20:16:43Z</time>
      </trkpt>
      <trkpt lat="46.45149" lon="4.37057">
        <ele>318</ele>
        <time>2021-12-27T20:16:48Z</time>
      </trkpt>
      <trkpt lat="46.4517" lon="4.37214">
        <ele>321</ele>
        <time>2021-12-27T20:17:08Z</time>
      </trkpt>
      <trkpt lat="46.45186" lon="4.37326">
        <ele>327</ele>
        <time>2021-12-27T20:17:22Z</time>
      </trkpt>
      <trkpt lat="46.45193" lon="4.37356">
        <ele>328</ele>
        <time>2021-12-27T20:17:26Z</time>
      </trkpt>
      <trkpt lat="46.45197" lon="4.37368">
        <ele>328</ele>
        <time>2021-12-27T20:17:28Z</time>
      </trkpt>
      <trkpt lat="46.45193" lon="4.37374">
        <ele>328</ele>
        <time>2021-12-27T20:17:29Z</time>
      </trkpt>
      <trkpt lat="46.45182" lon="4.37413">
        <ele>328</ele>
        <time>2021-12-27T20:17:34Z</time>
      </trkpt>
      <trkpt lat="46.45075" lon="4.37676">
        <ele>316</ele>
        <time>2021-12-27T20:18:11Z</time>
      </trkpt>
      <trkpt lat="46.44919" lon="4.3805">
        <ele>308</ele>
        <time>2021-12-27T20:19:05Z</time>
      </trkpt>
      <trkpt lat="46.44914" lon="4.3806">
        <ele>308</ele>
        <time>2021-12-27T20:19:06Z</time>
      </trkpt>
      <trkpt lat="46.44651" lon="4.38691">
        <ele>336</ele>
        <time>2021-12-27T20:20:37Z</time>
      </trkpt>
      <trkpt lat="46.44391" lon="4.39319">
        <ele>349</ele>
        <time>2021-12-27T20:22:07Z</time>
      </trkpt>
      <trkpt lat="46.44258" lon="4.39636">
        <ele>360</ele>
        <time>2021-12-27T20:22:52Z</time>
      </trkpt>
      <trkpt lat="46.43906" lon="4.40465">
        <ele>329</ele>
        <time>2021-12-27T20:24:51Z</time>
      </trkpt>
      <trkpt lat="46.4361" lon="4.41157">
        <ele>330</ele>
        <time>2021-12-27T20:26:31Z</time>
      </trkpt>
      <trkpt lat="46.43595" lon="4.41187">
        <ele>330</ele>
        <time>2021-12-27T20:26:36Z</time>
      </trkpt>
      <trkpt lat="46.43575" lon="4.41215">
        <ele>329</ele>
        <time>2021-12-27T20:26:41Z</time>
      </trkpt>
      <trkpt lat="46.43521" lon="4.41286">
        <ele>325</ele>
        <time>2021-12-27T20:26:54Z</time>
      </trkpt>
      <trkpt lat="46.43437" lon="4.41399">
        <ele>321</ele>
        <time>2021-12-27T20:27:14Z</time>
      </trkpt>
      <trkpt lat="46.43426" lon="4.41414">
        <ele>320</ele>
        <time>2021-12-27T20:27:17Z</time>
      </trkpt>
      <trkpt lat="46.43145" lon="4.41786">
        <ele>361</ele>
        <time>2021-12-27T20:28:25Z</time>
      </trkpt>
      <trkpt lat="46.4313" lon="4.41815">
        <ele>364</ele>
        <time>2021-12-27T20:28:29Z</time>
      </trkpt>
      <trkpt lat="46.43122" lon="4.41838">
        <ele>366</ele>
        <time>2021-12-27T20:28:32Z</time>
      </trkpt>
      <trkpt lat="46.42846" lon="4.42898">
        <ele>378</ele>
        <time>2021-12-27T20:30:51Z</time>
      </trkpt>
      <trkpt lat="46.42681" lon="4.4354">
        <ele>395</ele>
        <time>2021-12-27T20:32:15Z</time>
      </trkpt>
      <trkpt lat="46.42585" lon="4.43907">
        <ele>418</ele>
        <time>2021-12-27T20:33:03Z</time>
      </trkpt>
      <trkpt lat="46.4257" lon="4.43975">
        <ele>413</ele>
        <time>2021-12-27T20:33:12Z</time>
      </trkpt>
      <trkpt lat="46.42507" lon="4.44307">
        <ele>391</ele>
        <time>2021-12-27T20:33:54Z</time>
      </trkpt>
      <trkpt lat="46.42466" lon="4.44504">
        <ele>389</ele>
        <time>2021-12-27T20:34:19Z</time>
      </trkpt>
      <trkpt lat="46.42377" lon="4.44958">
        <ele>383</ele>
        <time>2021-12-27T20:35:17Z</time>
      </trkpt>
      <trkpt lat="46.42344" lon="4.45119">
        <ele>379</ele>
        <time>2021-12-27T20:35:38Z</time>
      </trkpt>
      <trkpt lat="46.42332" lon="4.45165">
        <ele>380</ele>
        <time>2021-12-27T20:35:44Z</time>
      </trkpt>
      <trkpt lat="46.42321" lon="4.45191">
        <ele>380</ele>
        <time>2021-12-27T20:35:48Z</time>
      </trkpt>
      <trkpt lat="46.42309" lon="4.45214">
        <ele>380</ele>
        <time>2021-12-27T20:35:51Z</time>
      </trkpt>
      <trkpt lat="46.42297" lon="4.45233">
        <ele>380</ele>
        <time>2021-12-27T20:35:54Z</time>
      </trkpt>
      <trkpt lat="46.42276" lon="4.45258">
        <ele>379</ele>
        <time>2021-12-27T20:35:59Z</time>
      </trkpt>
      <trkpt lat="46.42247" lon="4.45282">
        <ele>377</ele>
        <time>2021-12-27T20:36:05Z</time>
      </trkpt>
      <trkpt lat="46.42231" lon="4.45292">
        <ele>375</ele>
        <time>2021-12-27T20:36:08Z</time>
      </trkpt>
      <trkpt lat="46.42213" lon="4.45298">
        <ele>373</ele>
        <time>2021-12-27T20:36:12Z</time>
      </trkpt>
      <trkpt lat="46.42193" lon="4.45299">
        <ele>371</ele>
        <time>2021-12-27T20:36:15Z</time>
      </trkpt>
      <trkpt lat="46.42089" lon="4.45293">
        <ele>371</ele>
        <time>2021-12-27T20:36:34Z</time>
      </trkpt>
      <trkpt lat="46.4198" lon="4.45302">
        <ele>379</ele>
        <time>2021-12-27T20:36:53Z</time>
      </trkpt>
      <trkpt lat="46.41961" lon="4.45309">
        <ele>380</ele>
        <time>2021-12-27T20:36:57Z</time>
      </trkpt>
      <trkpt lat="46.41942" lon="4.45325">
        <ele>383</ele>
        <time>2021-12-27T20:37:01Z</time>
      </trkpt>
      <trkpt lat="46.41922" lon="4.4535">
        <ele>385</ele>
        <time>2021-12-27T20:37:05Z</time>
      </trkpt>
      <trkpt lat="46.41813" lon="4.45559">
        <ele>396</ele>
        <time>2021-12-27T20:37:37Z</time>
      </trkpt>
      <trkpt lat="46.41798" lon="4.45594">
        <ele>398</ele>
        <time>2021-12-27T20:37:42Z</time>
      </trkpt>
      <trkpt lat="46.41756" lon="4.45782">
        <ele>408</ele>
        <time>2021-12-27T20:38:07Z</time>
      </trkpt>
      <trkpt lat="46.41739" lon="4.45935">
        <ele>414</ele>
        <time>2021-12-27T20:38:26Z</time>
      </trkpt>
      <trkpt lat="46.41699" lon="4.46351">
        <ele>428</ele>
        <time>2021-12-27T20:39:17Z</time>
      </trkpt>
      <trkpt lat="46.41687" lon="4.46453">
        <ele>433</ele>
        <time>2021-12-27T20:39:30Z</time>
      </trkpt>
      <trkpt lat="46.41686" lon="4.46477">
        <ele>435</ele>
        <time>2021-12-27T20:39:33Z</time>
      </trkpt>
      <trkpt lat="46.4169" lon="4.46516">
        <ele>438</ele>
        <time>2021-12-27T20:39:38Z</time>
      </trkpt>
      <trkpt lat="46.41708" lon="4.46591">
        <ele>444</ele>
        <time>2021-12-27T20:39:47Z</time>
      </trkpt>
      <trkpt lat="46.41708" lon="4.46638">
        <ele>445</ele>
        <time>2021-12-27T20:39:53Z</time>
      </trkpt>
      <trkpt lat="46.41698" lon="4.46775">
        <ele>444</ele>
        <time>2021-12-27T20:40:10Z</time>
      </trkpt>
      <trkpt lat="46.41692" lon="4.46807">
        <ele>443</ele>
        <time>2021-12-27T20:40:14Z</time>
      </trkpt>
      <trkpt lat="46.41676" lon="4.46862">
        <ele>443</ele>
        <time>2021-12-27T20:40:21Z</time>
      </trkpt>
      <trkpt lat="46.41639" lon="4.46962">
        <ele>448</ele>
        <time>2021-12-27T20:40:35Z</time>
      </trkpt>
      <trkpt lat="46.41631" lon="4.46999">
        <ele>450</ele>
        <time>2021-12-27T20:40:40Z</time>
      </trkpt>
      <trkpt lat="46.41564" lon="4.4758">
        <ele>471</ele>
        <time>2021-12-27T20:41:52Z</time>
      </trkpt>
      <trkpt lat="46.41543" lon="4.478">
        <ele>479</ele>
        <time>2021-12-27T20:42:20Z</time>
      </trkpt>
      <trkpt lat="46.41535" lon="4.47846">
        <ele>479</ele>
        <time>2021-12-27T20:42:25Z</time>
      </trkpt>
      <trkpt lat="46.41528" lon="4.47875">
        <ele>479</ele>
        <time>2021-12-27T20:42:29Z</time>
      </trkpt>
      <trkpt lat="46.41521" lon="4.47891">
        <ele>479</ele>
        <time>2021-12-27T20:42:32Z</time>
      </trkpt>
      <trkpt lat="46.41513" lon="4.47904">
        <ele>479</ele>
        <time>2021-12-27T20:42:34Z</time>
      </trkpt>
      <trkpt lat="46.41494" lon="4.47921">
        <ele>480</ele>
        <time>2021-12-27T20:42:38Z</time>
      </trkpt>
      <trkpt lat="46.41344" lon="4.48042">
        <ele>487</ele>
        <time>2021-12-27T20:43:08Z</time>
      </trkpt>
      <trkpt lat="46.40905" lon="4.48371">
        <ele>466</ele>
        <time>2021-12-27T20:44:36Z</time>
      </trkpt>
      <trkpt lat="46.40885" lon="4.48391">
        <ele>464</ele>
        <time>2021-12-27T20:44:40Z</time>
      </trkpt>
      <trkpt lat="46.40872" lon="4.48409">
        <ele>463</ele>
        <time>2021-12-27T20:44:44Z</time>
      </trkpt>
      <trkpt lat="46.40867" lon="4.48427">
        <ele>463</ele>
        <time>2021-12-27T20:44:46Z</time>
      </trkpt>
      <trkpt lat="46.40864" lon="4.48449">
        <ele>462</ele>
        <time>2021-12-27T20:44:49Z</time>
      </trkpt>
      <trkpt lat="46.40866" lon="4.48535">
        <ele>461</ele>
        <time>2021-12-27T20:44:59Z</time>
      </trkpt>
      <trkpt lat="46.40859" lon="4.4859">
        <ele>458</ele>
        <time>2021-12-27T20:45:06Z</time>
      </trkpt>
      <trkpt lat="46.40852" lon="4.48622">
        <ele>458</ele>
        <time>2021-12-27T20:45:10Z</time>
      </trkpt>
      <trkpt lat="46.40829" lon="4.48684">
        <ele>454</ele>
        <time>2021-12-27T20:45:19Z</time>
      </trkpt>
      <trkpt lat="46.40817" lon="4.48725">
        <ele>450</ele>
        <time>2021-12-27T20:45:24Z</time>
      </trkpt>
      <trkpt lat="46.40814" lon="4.48767">
        <ele>448</ele>
        <time>2021-12-27T20:45:30Z</time>
      </trkpt>
      <trkpt lat="46.40815" lon="4.48795">
        <ele>446</ele>
        <time>2021-12-27T20:45:33Z</time>
      </trkpt>
      <trkpt lat="46.40821" lon="4.48838">
        <ele>444</ele>
        <time>2021-12-27T20:45:38Z</time>
      </trkpt>
      <trkpt lat="46.40835" lon="4.48902">
        <ele>438</ele>
        <time>2021-12-27T20:45:47Z</time>
      </trkpt>
      <trkpt lat="46.40842" lon="4.48921">
        <ele>438</ele>
        <time>2021-12-27T20:45:49Z</time>
      </trkpt>
      <trkpt lat="46.40866" lon="4.48964">
        <ele>438</ele>
        <time>2021-12-27T20:45:56Z</time>
      </trkpt>
      <trkpt lat="46.40873" lon="4.48984">
        <ele>437</ele>
        <time>2021-12-27T20:45:59Z</time>
      </trkpt>
      <trkpt lat="46.40876" lon="4.49024">
        <ele>433</ele>
        <time>2021-12-27T20:46:04Z</time>
      </trkpt>
      <trkpt lat="46.40873" lon="4.49102">
        <ele>426</ele>
        <time>2021-12-27T20:46:13Z</time>
      </trkpt>
      <trkpt lat="46.40857" lon="4.49236">
        <ele>418</ele>
        <time>2021-12-27T20:46:30Z</time>
      </trkpt>
      <trkpt lat="46.40848" lon="4.49271">
        <ele>415</ele>
        <time>2021-12-27T20:46:35Z</time>
      </trkpt>
      <trkpt lat="46.40841" lon="4.49285">
        <ele>415</ele>
        <time>2021-12-27T20:46:37Z</time>
      </trkpt>
      <trkpt lat="46.40808" lon="4.49333">
        <ele>412</ele>
        <time>2021-12-27T20:46:45Z</time>
      </trkpt>
      <trkpt lat="46.40764" lon="4.49391">
        <ele>408</ele>
        <time>2021-12-27T20:46:56Z</time>
      </trkpt>
      <trkpt lat="46.4066" lon="4.49552">
        <ele>397</ele>
        <time>2021-12-27T20:47:23Z</time>
      </trkpt>
      <trkpt lat="46.40649" lon="4.49573">
        <ele>396</ele>
        <time>2021-12-27T20:47:26Z</time>
      </trkpt>
      <trkpt lat="46.40613" lon="4.49684">
        <ele>386</ele>
        <time>2021-12-27T20:47:41Z</time>
      </trkpt>
      <trkpt lat="46.40452" lon="4.50198">
        <ele>364</ele>
        <time>2021-12-27T20:48:50Z</time>
      </trkpt>
      <trkpt lat="46.40363" lon="4.50476">
        <ele>368</ele>
        <time>2021-12-27T20:49:28Z</time>
      </trkpt>
      <trkpt lat="46.40361" lon="4.50503">
        <ele>368</ele>
        <time>2021-12-27T20:49:31Z</time>
      </trkpt>
      <trkpt lat="46.40362" lon="4.50517">
        <ele>369</ele>
        <time>2021-12-27T20:49:33Z</time>
      </trkpt>
      <trkpt lat="46.40395" lon="4.50675">
        <ele>378</ele>
        <time>2021-12-27T20:49:53Z</time>
      </trkpt>
      <trkpt lat="46.40404" lon="4.50707">
        <ele>380</ele>
        <time>2021-12-27T20:49:57Z</time>
      </trkpt>
      <trkpt lat="46.40421" lon="4.50746">
        <ele>384</ele>
        <time>2021-12-27T20:50:03Z</time>
      </trkpt>
      <trkpt lat="46.40545" lon="4.50963">
        <ele>386</ele>
        <time>2021-12-27T20:50:38Z</time>
      </trkpt>
      <trkpt lat="46.40551" lon="4.50977">
        <ele>387</ele>
        <time>2021-12-27T20:50:40Z</time>
      </trkpt>
      <trkpt lat="46.40561" lon="4.51007">
        <ele>388</ele>
        <time>2021-12-27T20:50:44Z</time>
      </trkpt>
      <trkpt lat="46.40565" lon="4.51031">
        <ele>390</ele>
        <time>2021-12-27T20:50:47Z</time>
      </trkpt>
      <trkpt lat="46.40568" lon="4.51072">
        <ele>392</ele>
        <time>2021-12-27T20:50:52Z</time>
      </trkpt>
      <trkpt lat="46.40565" lon="4.51091">
        <ele>393</ele>
        <time>2021-12-27T20:50:54Z</time>
      </trkpt>
      <trkpt lat="46.40559" lon="4.5112">
        <ele>393</ele>
        <time>2021-12-27T20:50:58Z</time>
      </trkpt>
      <trkpt lat="46.40463" lon="4.51397">
        <ele>398</ele>
        <time>2021-12-27T20:51:36Z</time>
      </trkpt>
      <trkpt lat="46.40301" lon="4.51903">
        <ele>417</ele>
        <time>2021-12-27T20:52:44Z</time>
      </trkpt>
      <trkpt lat="46.40275" lon="4.52023">
        <ele>419</ele>
        <time>2021-12-27T20:53:00Z</time>
      </trkpt>
      <trkpt lat="46.40238" lon="4.52221">
        <ele>407</ele>
        <time>2021-12-27T20:53:25Z</time>
      </trkpt>
      <trkpt lat="46.40209" lon="4.52389">
        <ele>404</ele>
        <time>2021-12-27T20:53:46Z</time>
      </trkpt>
      <trkpt lat="46.40205" lon="4.52422">
        <ele>404</ele>
        <time>2021-12-27T20:53:50Z</time>
      </trkpt>
      <trkpt lat="46.40205" lon="4.52447">
        <ele>404</ele>
        <time>2021-12-27T20:53:53Z</time>
      </trkpt>
      <trkpt lat="46.40208" lon="4.52542">
        <ele>404</ele>
        <time>2021-12-27T20:54:05Z</time>
      </trkpt>
      <trkpt lat="46.402" lon="4.52644">
        <ele>400</ele>
        <time>2021-12-27T20:54:18Z</time>
      </trkpt>
      <trkpt lat="46.40207" lon="4.52668">
        <ele>401</ele>
        <time>2021-12-27T20:54:21Z</time>
      </trkpt>
      <trkpt lat="46.40288" lon="4.5287">
        <ele>403</ele>
        <time>2021-12-27T20:54:50Z</time>
      </trkpt>
      <trkpt lat="46.4031" lon="4.52905">
        <ele>403</ele>
        <time>2021-12-27T20:54:55Z</time>
      </trkpt>
      <trkpt lat="46.40509" lon="4.53167">
        <ele>410</ele>
        <time>2021-12-27T20:55:43Z</time>
      </trkpt>
      <trkpt lat="46.40545" lon="4.53213">
        <ele>414</ele>
        <time>2021-12-27T20:55:52Z</time>
      </trkpt>
      <trkpt lat="46.40562" lon="4.53241">
        <ele>417</ele>
        <time>2021-12-27T20:55:56Z</time>
      </trkpt>
      <trkpt lat="46.40597" lon="4.53317">
        <ele>420</ele>
        <time>2021-12-27T20:56:08Z</time>
      </trkpt>
      <trkpt lat="46.40616" lon="4.53365">
        <ele>421</ele>
        <time>2021-12-27T20:56:14Z</time>
      </trkpt>
      <trkpt lat="46.40622" lon="4.53391">
        <ele>422</ele>
        <time>2021-12-27T20:56:18Z</time>
      </trkpt>
      <trkpt lat="46.40625" lon="4.53431">
        <ele>422</ele>
        <time>2021-12-27T20:56:23Z</time>
      </trkpt>
      <trkpt lat="46.40622" lon="4.53458">
        <ele>422</ele>
        <time>2021-12-27T20:56:26Z</time>
      </trkpt>
      <trkpt lat="46.4057" lon="4.53753">
        <ele>437</ele>
        <time>2021-12-27T20:57:03Z</time>
      </trkpt>
      <trkpt lat="46.40562" lon="4.53809">
        <ele>438</ele>
        <time>2021-12-27T20:57:10Z</time>
      </trkpt>
      <trkpt lat="46.40537" lon="4.54445">
        <ele>457</ele>
        <time>2021-12-27T20:58:29Z</time>
      </trkpt>
      <trkpt lat="46.40529" lon="4.54602">
        <ele>471</ele>
        <time>2021-12-27T20:58:48Z</time>
      </trkpt>
      <trkpt lat="46.40522" lon="4.5463">
        <ele>477</ele>
        <time>2021-12-27T20:58:52Z</time>
      </trkpt>
      <trkpt lat="46.40512" lon="4.54649">
        <ele>481</ele>
        <time>2021-12-27T20:58:54Z</time>
      </trkpt>
      <trkpt lat="46.40498" lon="4.54664">
        <ele>484</ele>
        <time>2021-12-27T20:58:58Z</time>
      </trkpt>
      <trkpt lat="46.40358" lon="4.54776">
        <ele>490</ele>
        <time>2021-12-27T20:59:26Z</time>
      </trkpt>
      <trkpt lat="46.40191" lon="4.54898">
        <ele>495</ele>
        <time>2021-12-27T20:59:59Z</time>
      </trkpt>
      <trkpt lat="46.40152" lon="4.54928">
        <ele>493</ele>
        <time>2021-12-27T21:00:07Z</time>
      </trkpt>
      <trkpt lat="46.40136" lon="4.54944">
        <ele>492</ele>
        <time>2021-12-27T21:00:11Z</time>
      </trkpt>
      <trkpt lat="46.40125" lon="4.5496">
        <ele>492</ele>
        <time>2021-12-27T21:00:13Z</time>
      </trkpt>
      <trkpt lat="46.40114" lon="4.5498">
        <ele>493</ele>
        <time>2021-12-27T21:00:16Z</time>
      </trkpt>
      <trkpt lat="46.40104" lon="4.55006">
        <ele>494</ele>
        <time>2021-12-27T21:00:20Z</time>
      </trkpt>
      <trkpt lat="46.40092" lon="4.55043">
        <ele>495</ele>
        <time>2021-12-27T21:00:25Z</time>
      </trkpt>
      <trkpt lat="46.40059" lon="4.5517">
        <ele>497</ele>
        <time>2021-12-27T21:00:42Z</time>
      </trkpt>
      <trkpt lat="46.40049" lon="4.55214">
        <ele>497</ele>
        <time>2021-12-27T21:00:48Z</time>
      </trkpt>
      <trkpt lat="46.40049" lon="4.55241">
        <ele>498</ele>
        <time>2021-12-27T21:00:51Z</time>
      </trkpt>
      <trkpt lat="46.40057" lon="4.55299">
        <ele>500</ele>
        <time>2021-12-27T21:00:58Z</time>
      </trkpt>
      <trkpt lat="46.40062" lon="4.55323">
        <ele>501</ele>
        <time>2021-12-27T21:01:01Z</time>
      </trkpt>
      <trkpt lat="46.40088" lon="4.55394">
        <ele>502</ele>
        <time>2021-12-27T21:01:11Z</time>
      </trkpt>
      <trkpt lat="46.40116" lon="4.55454">
        <ele>503</ele>
        <time>2021-12-27T21:01:20Z</time>
      </trkpt>
      <trkpt lat="46.40188" lon="4.55577">
        <ele>505</ele>
        <time>2021-12-27T21:01:40Z</time>
      </trkpt>
      <trkpt lat="46.40225" lon="4.55633">
        <ele>505</ele>
        <time>2021-12-27T21:01:49Z</time>
      </trkpt>
      <trkpt lat="46.4025" lon="4.55659">
        <ele>505</ele>
        <time>2021-12-27T21:01:55Z</time>
      </trkpt>
      <trkpt lat="46.40274" lon="4.55678">
        <ele>507</ele>
        <time>2021-12-27T21:02:00Z</time>
      </trkpt>
      <trkpt lat="46.40292" lon="4.55708">
        <ele>505</ele>
        <time>2021-12-27T21:02:04Z</time>
      </trkpt>
      <trkpt lat="46.40302" lon="4.55731">
        <ele>503</ele>
        <time>2021-12-27T21:02:08Z</time>
      </trkpt>
      <trkpt lat="46.40327" lon="4.55806">
        <ele>499</ele>
        <time>2021-12-27T21:02:18Z</time>
      </trkpt>
      <trkpt lat="46.40338" lon="4.55847">
        <ele>497</ele>
        <time>2021-12-27T21:02:23Z</time>
      </trkpt>
      <trkpt lat="46.40348" lon="4.55908">
        <ele>494</ele>
        <time>2021-12-27T21:02:31Z</time>
      </trkpt>
      <trkpt lat="46.40353" lon="4.55926">
        <ele>493</ele>
        <time>2021-12-27T21:02:33Z</time>
      </trkpt>
      <trkpt lat="46.40363" lon="4.55951">
        <ele>492</ele>
        <time>2021-12-27T21:02:37Z</time>
      </trkpt>
      <trkpt lat="46.40481" lon="4.56125">
        <ele>479</ele>
        <time>2021-12-27T21:03:07Z</time>
      </trkpt>
      <trkpt lat="46.40506" lon="4.5615">
        <ele>478</ele>
        <time>2021-12-27T21:03:12Z</time>
      </trkpt>
      <trkpt lat="46.40516" lon="4.56157">
        <ele>478</ele>
        <time>2021-12-27T21:03:14Z</time>
      </trkpt>
      <trkpt lat="46.40576" lon="4.56163">
        <ele>478</ele>
        <time>2021-12-27T21:03:25Z</time>
      </trkpt>
      <trkpt lat="46.40584" lon="4.56166">
        <ele>478</ele>
        <time>2021-12-27T21:03:27Z</time>
      </trkpt>
      <trkpt lat="46.40593" lon="4.56176">
        <ele>477</ele>
        <time>2021-12-27T21:03:29Z</time>
      </trkpt>
      <trkpt lat="46.40598" lon="4.56191">
        <ele>476</ele>
        <time>2021-12-27T21:03:31Z</time>
      </trkpt>
      <trkpt lat="46.40604" lon="4.5622">
        <ele>473</ele>
        <time>2021-12-27T21:03:34Z</time>
      </trkpt>
      <trkpt lat="46.40605" lon="4.56244">
        <ele>470</ele>
        <time>2021-12-27T21:03:37Z</time>
      </trkpt>
      <trkpt lat="46.40602" lon="4.5626">
        <ele>468</ele>
        <time>2021-12-27T21:03:39Z</time>
      </trkpt>
      <trkpt lat="46.40596" lon="4.56281">
        <ele>467</ele>
        <time>2021-12-27T21:03:42Z</time>
      </trkpt>
      <trkpt lat="46.40558" lon="4.56387">
        <ele>458</ele>
        <time>2021-12-27T21:03:57Z</time>
      </trkpt>
      <trkpt lat="46.40499" lon="4.566">
        <ele>444</ele>
        <time>2021-12-27T21:04:25Z</time>
      </trkpt>
      <trkpt lat="46.40486" lon="4.56632">
        <ele>443</ele>
        <time>2021-12-27T21:04:29Z</time>
      </trkpt>
      <trkpt lat="46.40467" lon="4.56666">
        <ele>440</ele>
        <time>2021-12-27T21:04:35Z</time>
      </trkpt>
      <trkpt lat="46.40428" lon="4.5672">
        <ele>437</ele>
        <time>2021-12-27T21:04:44Z</time>
      </trkpt>
      <trkpt lat="46.40253" lon="4.56878">
        <ele>444</ele>
        <time>2021-12-27T21:05:21Z</time>
      </trkpt>
      <trkpt lat="46.40178" lon="4.56942">
        <ele>447</ele>
        <time>2021-12-27T21:05:37Z</time>
      </trkpt>
      <trkpt lat="46.40149" lon="4.56965">
        <ele>448</ele>
        <time>2021-12-27T21:05:42Z</time>
      </trkpt>
      <trkpt lat="46.40057" lon="4.57027">
        <ele>451</ele>
        <time>2021-12-27T21:06:00Z</time>
      </trkpt>
      <trkpt lat="46.40018" lon="4.57059">
        <ele>451</ele>
        <time>2021-12-27T21:06:08Z</time>
      </trkpt>
      <trkpt lat="46.39971" lon="4.57103">
        <ele>451</ele>
        <time>2021-12-27T21:06:18Z</time>
      </trkpt>
      <trkpt lat="46.39949" lon="4.57127">
        <ele>451</ele>
        <time>2021-12-27T21:06:23Z</time>
      </trkpt>
      <trkpt lat="46.39926" lon="4.57155">
        <ele>451</ele>
        <time>2021-12-27T21:06:29Z</time>
      </trkpt>
      <trkpt lat="46.39776" lon="4.57373">
        <ele>452</ele>
        <time>2021-12-27T21:07:06Z</time>
      </trkpt>
      <trkpt lat="46.39769" lon="4.57394">
        <ele>451</ele>
        <time>2021-12-27T21:07:09Z</time>
      </trkpt>
      <trkpt lat="46.39765" lon="4.57412">
        <ele>451</ele>
        <time>2021-12-27T21:07:12Z</time>
      </trkpt>
      <trkpt lat="46.39761" lon="4.57453">
        <ele>452</ele>
        <time>2021-12-27T21:07:17Z</time>
      </trkpt>
      <trkpt lat="46.39755" lon="4.57471">
        <ele>452</ele>
        <time>2021-12-27T21:07:19Z</time>
      </trkpt>
      <trkpt lat="46.39749" lon="4.5748">
        <ele>451</ele>
        <time>2021-12-27T21:07:21Z</time>
      </trkpt>
      <trkpt lat="46.39736" lon="4.57488">
        <ele>450</ele>
        <time>2021-12-27T21:07:23Z</time>
      </trkpt>
      <trkpt lat="46.39702" lon="4.575">
        <ele>446</ele>
        <time>2021-12-27T21:07:29Z</time>
      </trkpt>
      <trkpt lat="46.39686" lon="4.57513">
        <ele>444</ele>
        <time>2021-12-27T21:07:33Z</time>
      </trkpt>
      <trkpt lat="46.39675" lon="4.57529">
        <ele>442</ele>
        <time>2021-12-27T21:07:35Z</time>
      </trkpt>
      <trkpt lat="46.39663" lon="4.57553">
        <ele>440</ele>
        <time>2021-12-27T21:07:39Z</time>
      </trkpt>
      <trkpt lat="46.39652" lon="4.57606">
        <ele>438</ele>
        <time>2021-12-27T21:07:46Z</time>
      </trkpt>
      <trkpt lat="46.39592" lon="4.58228">
        <ele>402</ele>
        <time>2021-12-27T21:09:03Z</time>
      </trkpt>
      <trkpt lat="46.3956" lon="4.58543">
        <ele>387</ele>
        <time>2021-12-27T21:09:42Z</time>
      </trkpt>
      <trkpt lat="46.39554" lon="4.58577">
        <ele>386</ele>
        <time>2021-12-27T21:09:46Z</time>
      </trkpt>
      <trkpt lat="46.39542" lon="4.5863">
        <ele>385</ele>
        <time>2021-12-27T21:09:53Z</time>
      </trkpt>
      <trkpt lat="46.39389" lon="4.59194">
        <ele>348</ele>
        <time>2021-12-27T21:11:08Z</time>
      </trkpt>
      <trkpt lat="46.39218" lon="4.59811">
        <ele>324</ele>
        <time>2021-12-27T21:12:29Z</time>
      </trkpt>
      <trkpt lat="46.39207" lon="4.59865">
        <ele>322</ele>
        <time>2021-12-27T21:12:36Z</time>
      </trkpt>
      <trkpt lat="46.392" lon="4.59929">
        <ele>321</ele>
        <time>2021-12-27T21:12:44Z</time>
      </trkpt>
      <trkpt lat="46.39191" lon="4.5999">
        <ele>319</ele>
        <time>2021-12-27T21:12:52Z</time>
      </trkpt>
      <trkpt lat="46.3918" lon="4.60034">
        <ele>317</ele>
        <time>2021-12-27T21:12:57Z</time>
      </trkpt>
      <trkpt lat="46.39153" lon="4.60131">
        <ele>315</ele>
        <time>2021-12-27T21:13:10Z</time>
      </trkpt>
      <trkpt lat="46.3912" lon="4.60237">
        <ele>310</ele>
        <time>2021-12-27T21:13:25Z</time>
      </trkpt>
      <trkpt lat="46.39056" lon="4.60407">
        <ele>304</ele>
        <time>2021-12-27T21:13:48Z</time>
      </trkpt>
      <trkpt lat="46.39052" lon="4.60425">
        <ele>303</ele>
        <time>2021-12-27T21:13:51Z</time>
      </trkpt>
      <trkpt lat="46.39048" lon="4.60458">
        <ele>302</ele>
        <time>2021-12-27T21:13:55Z</time>
      </trkpt>
      <trkpt lat="46.39008" lon="4.61543">
        <ele>265</ele>
        <time>2021-12-27T21:16:08Z</time>
      </trkpt>
      <trkpt lat="46.39002" lon="4.61576">
        <ele>264</ele>
        <time>2021-12-27T21:16:12Z</time>
      </trkpt>
      <trkpt lat="46.38993" lon="4.61601">
        <ele>263</ele>
        <time>2021-12-27T21:16:16Z</time>
      </trkpt>
      <trkpt lat="46.38974" lon="4.61635">
        <ele>260</ele>
        <time>2021-12-27T21:16:21Z</time>
      </trkpt>
      <trkpt lat="46.38875" lon="4.61779">
        <ele>256</ele>
        <time>2021-12-27T21:16:46Z</time>
      </trkpt>
      <trkpt lat="46.38861" lon="4.618">
        <ele>258</ele>
        <time>2021-12-27T21:16:50Z</time>
      </trkpt>
      <trkpt lat="46.38849" lon="4.61816">
        <ele>259</ele>
        <time>2021-12-27T21:16:53Z</time>
      </trkpt>
      <trkpt lat="46.38838" lon="4.61838">
        <ele>261</ele>
        <time>2021-12-27T21:16:56Z</time>
      </trkpt>
      <trkpt lat="46.38828" lon="4.61871">
        <ele>262</ele>
        <time>2021-12-27T21:17:00Z</time>
      </trkpt>
      <trkpt lat="46.38824" lon="4.61893">
        <ele>262</ele>
        <time>2021-12-27T21:17:03Z</time>
      </trkpt>
      <trkpt lat="46.38823" lon="4.6191">
        <ele>263</ele>
        <time>2021-12-27T21:17:05Z</time>
      </trkpt>
      <trkpt lat="46.38826" lon="4.61926">
        <ele>263</ele>
        <time>2021-12-27T21:17:07Z</time>
      </trkpt>
      <trkpt lat="46.38892" lon="4.62127">
        <ele>265</ele>
        <time>2021-12-27T21:17:35Z</time>
      </trkpt>
      <trkpt lat="46.39021" lon="4.62534">
        <ele>261</ele>
        <time>2021-12-27T21:18:30Z</time>
      </trkpt>
      <trkpt lat="46.39057" lon="4.62643">
        <ele>260</ele>
        <time>2021-12-27T21:18:44Z</time>
      </trkpt>
      <trkpt lat="46.3907" lon="4.62675">
        <ele>259</ele>
        <time>2021-12-27T21:18:49Z</time>
      </trkpt>
      <trkpt lat="46.39098" lon="4.62738">
        <ele>256</ele>
        <time>2021-12-27T21:18:58Z</time>
      </trkpt>
      <trkpt lat="46.39133" lon="4.62803">
        <ele>255</ele>
        <time>2021-12-27T21:19:08Z</time>
      </trkpt>
      <trkpt lat="46.39182" lon="4.62872">
        <ele>253</ele>
        <time>2021-12-27T21:19:20Z</time>
      </trkpt>
      <trkpt lat="46.39222" lon="4.62915">
        <ele>252</ele>
        <time>2021-12-27T21:19:29Z</time>
      </trkpt>
      <trkpt lat="46.39296" lon="4.62988">
        <ele>252</ele>
        <time>2021-12-27T21:19:45Z</time>
      </trkpt>
      <trkpt lat="46.3931" lon="4.63012">
        <ele>252</ele>
        <time>2021-12-27T21:19:49Z</time>
      </trkpt>
      <trkpt lat="46.39324" lon="4.63048">
        <ele>253</ele>
        <time>2021-12-27T21:19:54Z</time>
      </trkpt>
      <trkpt lat="46.39329" lon="4.63075">
        <ele>253</ele>
        <time>2021-12-27T21:19:58Z</time>
      </trkpt>
      <trkpt lat="46.39331" lon="4.63109">
        <ele>253</ele>
        <time>2021-12-27T21:20:02Z</time>
      </trkpt>
      <trkpt lat="46.3933" lon="4.63133">
        <ele>253</ele>
        <time>2021-12-27T21:20:05Z</time>
      </trkpt>
      <trkpt lat="46.39326" lon="4.63158">
        <ele>253</ele>
        <time>2021-12-27T21:20:08Z</time>
      </trkpt>
      <trkpt lat="46.3932" lon="4.63176">
        <ele>253</ele>
        <time>2021-12-27T21:20:10Z</time>
      </trkpt>
      <trkpt lat="46.39312" lon="4.63198">
        <ele>253</ele>
        <time>2021-12-27T21:20:13Z</time>
      </trkpt>
      <trkpt lat="46.39287" lon="4.63247">
        <ele>254</ele>
        <time>2021-12-27T21:20:21Z</time>
      </trkpt>
      <trkpt lat="46.39255" lon="4.63309">
        <ele>255</ele>
        <time>2021-12-27T21:20:30Z</time>
      </trkpt>
      <trkpt lat="46.39212" lon="4.63394">
        <ele>255</ele>
        <time>2021-12-27T21:20:43Z</time>
      </trkpt>
      <trkpt lat="46.39205" lon="4.6342">
        <ele>255</ele>
        <time>2021-12-27T21:20:47Z</time>
      </trkpt>
      <trkpt lat="46.39199" lon="4.63445">
        <ele>255</ele>
        <time>2021-12-27T21:20:50Z</time>
      </trkpt>
      <trkpt lat="46.39172" lon="4.63692">
        <ele>252</ele>
        <time>2021-12-27T21:21:21Z</time>
      </trkpt>
      <trkpt lat="46.39171" lon="4.63708">
        <ele>252</ele>
        <time>2021-12-27T21:21:23Z</time>
      </trkpt>
      <trkpt lat="46.39162" lon="4.6379">
        <ele>252</ele>
        <time>2021-12-27T21:21:33Z</time>
      </trkpt>
      <trkpt lat="46.39164" lon="4.63806">
        <ele>252</ele>
        <time>2021-12-27T21:21:35Z</time>
      </trkpt>
      <trkpt lat="46.39167" lon="4.63821">
        <ele>252</ele>
        <time>2021-12-27T21:21:37Z</time>
      </trkpt>
      <trkpt lat="46.39158" lon="4.63833">
        <ele>252</ele>
        <time>2021-12-27T21:21:39Z</time>
      </trkpt>
      <trkpt lat="46.39153" lon="4.63851">
        <ele>253</ele>
        <time>2021-12-27T21:21:41Z</time>
      </trkpt>
      <trkpt lat="46.39145" lon="4.63932">
        <ele>256</ele>
        <time>2021-12-27T21:21:51Z</time>
      </trkpt>
      <trkpt lat="46.39145" lon="4.63969">
        <ele>257</ele>
        <time>2021-12-27T21:21:56Z</time>
      </trkpt>
      <trkpt lat="46.39148" lon="4.63987">
        <ele>258</ele>
        <time>2021-12-27T21:21:58Z</time>
      </trkpt>
      <trkpt lat="46.39152" lon="4.64">
        <ele>259</ele>
        <time>2021-12-27T21:22:00Z</time>
      </trkpt>
      <trkpt lat="46.39178" lon="4.6404">
        <ele>261</ele>
        <time>2021-12-27T21:22:07Z</time>
      </trkpt>
      <trkpt lat="46.39427" lon="4.6442">
        <ele>273</ele>
        <time>2021-12-27T21:23:11Z</time>
      </trkpt>
      <trkpt lat="46.39517" lon="4.64576">
        <ele>276</ele>
        <time>2021-12-27T21:23:36Z</time>
      </trkpt>
      <trkpt lat="46.39534" lon="4.64612">
        <ele>277</ele>
        <time>2021-12-27T21:23:41Z</time>
      </trkpt>
      <trkpt lat="46.39556" lon="4.64669">
        <ele>280</ele>
        <time>2021-12-27T21:23:49Z</time>
      </trkpt>
      <trkpt lat="46.39569" lon="4.64713">
        <ele>283</ele>
        <time>2021-12-27T21:23:55Z</time>
      </trkpt>
      <trkpt lat="46.39575" lon="4.64743">
        <ele>285</ele>
        <time>2021-12-27T21:23:59Z</time>
      </trkpt>
      <trkpt lat="46.39579" lon="4.64775">
        <ele>285</ele>
        <time>2021-12-27T21:24:03Z</time>
      </trkpt>
      <trkpt lat="46.39581" lon="4.64848">
        <ele>286</ele>
        <time>2021-12-27T21:24:12Z</time>
      </trkpt>
      <trkpt lat="46.39586" lon="4.64938">
        <ele>285</ele>
        <time>2021-12-27T21:24:23Z</time>
      </trkpt>
      <trkpt lat="46.39584" lon="4.64988">
        <ele>285</ele>
        <time>2021-12-27T21:24:29Z</time>
      </trkpt>
      <trkpt lat="46.39577" lon="4.65041">
        <ele>287</ele>
        <time>2021-12-27T21:24:36Z</time>
      </trkpt>
      <trkpt lat="46.39576" lon="4.65073">
        <ele>288</ele>
        <time>2021-12-27T21:24:40Z</time>
      </trkpt>
      <trkpt lat="46.39605" lon="4.65073">
        <ele>284</ele>
        <time>2021-12-27T21:24:45Z</time>
      </trkpt>
      <trkpt lat="46.39645" lon="4.65076">
        <ele>282</ele>
        <time>2021-12-27T21:24:52Z</time>
      </trkpt>
      <trkpt lat="46.39854" lon="4.65084">
        <ele>267</ele>
        <time>2021-12-27T21:25:29Z</time>
      </trkpt>
      <trkpt lat="46.39851" lon="4.65104">
        <ele>268</ele>
        <time>2021-12-27T21:25:32Z</time>
      </trkpt>
      <trkpt lat="46.39845" lon="4.65117">
        <ele>269</ele>
        <time>2021-12-27T21:25:34Z</time>
      </trkpt>
      <trkpt lat="46.39837" lon="4.6513">
        <ele>270</ele>
        <time>2021-12-27T21:25:36Z</time>
      </trkpt>
      <trkpt lat="46.39829" lon="4.65136">
        <ele>271</ele>
        <time>2021-12-27T21:25:37Z</time>
      </trkpt>
      <trkpt lat="46.39765" lon="4.65154">
        <ele>272</ele>
        <time>2021-12-27T21:25:49Z</time>
      </trkpt>
      <trkpt lat="46.39726" lon="4.65163">
        <ele>274</ele>
        <time>2021-12-27T21:25:56Z</time>
      </trkpt>
      <trkpt lat="46.39699" lon="4.65172">
        <ele>275</ele>
        <time>2021-12-27T21:26:01Z</time>
      </trkpt>
      <trkpt lat="46.39676" lon="4.65184">
        <ele>276</ele>
        <time>2021-12-27T21:26:05Z</time>
      </trkpt>
      <trkpt lat="46.3963" lon="4.65221">
        <ele>278</ele>
        <time>2021-12-27T21:26:15Z</time>
      </trkpt>
      <trkpt lat="46.3961" lon="4.65242">
        <ele>279</ele>
        <time>2021-12-27T21:26:19Z</time>
      </trkpt>
      <trkpt lat="46.39587" lon="4.65276">
        <ele>279</ele>
        <time>2021-12-27T21:26:25Z</time>
      </trkpt>
      <trkpt lat="46.39539" lon="4.6536">
        <ele>284</ele>
        <time>2021-12-27T21:26:38Z</time>
      </trkpt>
      <trkpt lat="46.3947" lon="4.65476">
        <ele>290</ele>
        <time>2021-12-27T21:26:57Z</time>
      </trkpt>
      <trkpt lat="46.39217" lon="4.65812">
        <ele>309</ele>
        <time>2021-12-27T21:27:58Z</time>
      </trkpt>
      <trkpt lat="46.39157" lon="4.65895">
        <ele>318</ele>
        <time>2021-12-27T21:28:13Z</time>
      </trkpt>
      <trkpt lat="46.39104" lon="4.65974">
        <ele>326</ele>
        <time>2021-12-27T21:28:26Z</time>
      </trkpt>
      <trkpt lat="46.39055" lon="4.66058">
        <ele>332</ele>
        <time>2021-12-27T21:28:40Z</time>
      </trkpt>
      <trkpt lat="46.39" lon="4.66164">
        <ele>334</ele>
        <time>2021-12-27T21:28:56Z</time>
      </trkpt>
      <trkpt lat="46.38981" lon="4.66213">
        <ele>334</ele>
        <time>2021-12-27T21:29:03Z</time>
      </trkpt>
      <trkpt lat="46.38966" lon="4.66258">
        <ele>333</ele>
        <time>2021-12-27T21:29:09Z</time>
      </trkpt>
      <trkpt lat="46.38953" lon="4.66312">
        <ele>336</ele>
        <time>2021-12-27T21:29:16Z</time>
      </trkpt>
      <trkpt lat="46.38946" lon="4.66344">
        <ele>336</ele>
        <time>2021-12-27T21:29:20Z</time>
      </trkpt>
      <trkpt lat="46.38941" lon="4.66385">
        <ele>337</ele>
        <time>2021-12-27T21:29:25Z</time>
      </trkpt>
      <trkpt lat="46.38937" lon="4.66438">
        <ele>338</ele>
        <time>2021-12-27T21:29:32Z</time>
      </trkpt>
      <trkpt lat="46.3894" lon="4.66464">
        <ele>340</ele>
        <time>2021-12-27T21:29:35Z</time>
      </trkpt>
      <trkpt lat="46.38952" lon="4.66481">
        <ele>341</ele>
        <time>2021-12-27T21:29:38Z</time>
      </trkpt>
      <trkpt lat="46.38961" lon="4.66486">
        <ele>341</ele>
        <time>2021-12-27T21:29:40Z</time>
      </trkpt>
      <trkpt lat="46.38978" lon="4.66485">
        <ele>342</ele>
        <time>2021-12-27T21:29:43Z</time>
      </trkpt>
      <trkpt lat="46.38991" lon="4.66479">
        <ele>341</ele>
        <time>2021-12-27T21:29:45Z</time>
      </trkpt>
      <trkpt lat="46.39034" lon="4.66448">
        <ele>343</ele>
        <time>2021-12-27T21:29:54Z</time>
      </trkpt>
      <trkpt lat="46.39075" lon="4.66397">
        <ele>341</ele>
        <time>2021-12-27T21:30:03Z</time>
      </trkpt>
      <trkpt lat="46.39115" lon="4.66369">
        <ele>339</ele>
        <time>2021-12-27T21:30:11Z</time>
      </trkpt>
      <trkpt lat="46.39142" lon="4.66366">
        <ele>341</ele>
        <time>2021-12-27T21:30:16Z</time>
      </trkpt>
      <trkpt lat="46.39198" lon="4.66356">
        <ele>346</ele>
        <time>2021-12-27T21:30:26Z</time>
      </trkpt>
      <trkpt lat="46.39207" lon="4.66356">
        <ele>347</ele>
        <time>2021-12-27T21:30:28Z</time>
      </trkpt>
      <trkpt lat="46.39216" lon="4.6636">
        <ele>349</ele>
        <time>2021-12-27T21:30:30Z</time>
      </trkpt>
      <trkpt lat="46.39222" lon="4.66368">
        <ele>350</ele>
        <time>2021-12-27T21:30:31Z</time>
      </trkpt>
      <trkpt lat="46.39226" lon="4.66376">
        <ele>352</ele>
        <time>2021-12-27T21:30:32Z</time>
      </trkpt>
      <trkpt lat="46.39227" lon="4.66402">
        <ele>354</ele>
        <time>2021-12-27T21:30:35Z</time>
      </trkpt>
      <trkpt lat="46.3922" lon="4.66417">
        <ele>356</ele>
        <time>2021-12-27T21:30:38Z</time>
      </trkpt>
      <trkpt lat="46.39209" lon="4.66426">
        <ele>357</ele>
        <time>2021-12-27T21:30:40Z</time>
      </trkpt>
      <trkpt lat="46.39199" lon="4.66428">
        <ele>356</ele>
        <time>2021-12-27T21:30:42Z</time>
      </trkpt>
      <trkpt lat="46.39152" lon="4.66401">
        <ele>349</ele>
        <time>2021-12-27T21:30:51Z</time>
      </trkpt>
      <trkpt lat="46.39138" lon="4.66401">
        <ele>348</ele>
        <time>2021-12-27T21:30:53Z</time>
      </trkpt>
      <trkpt lat="46.39126" lon="4.66405">
        <ele>347</ele>
        <time>2021-12-27T21:30:55Z</time>
      </trkpt>
      <trkpt lat="46.39115" lon="4.66412">
        <ele>348</ele>
        <time>2021-12-27T21:30:57Z</time>
      </trkpt>
      <trkpt lat="46.39092" lon="4.66437">
        <ele>350</ele>
        <time>2021-12-27T21:31:03Z</time>
      </trkpt>
      <trkpt lat="46.39066" lon="4.66471">
        <ele>353</ele>
        <time>2021-12-27T21:31:09Z</time>
      </trkpt>
      <trkpt lat="46.39051" lon="4.66495">
        <ele>354</ele>
        <time>2021-12-27T21:31:13Z</time>
      </trkpt>
      <trkpt lat="46.39032" lon="4.66533">
        <ele>355</ele>
        <time>2021-12-27T21:31:19Z</time>
      </trkpt>
      <trkpt lat="46.38997" lon="4.66609">
        <ele>357</ele>
        <time>2021-12-27T21:31:30Z</time>
      </trkpt>
      <trkpt lat="46.38976" lon="4.66637">
        <ele>360</ele>
        <time>2021-12-27T21:31:35Z</time>
      </trkpt>
      <trkpt lat="46.38765" lon="4.6685">
        <ele>376</ele>
        <time>2021-12-27T21:32:21Z</time>
      </trkpt>
      <trkpt lat="46.38753" lon="4.66855">
        <ele>376</ele>
        <time>2021-12-27T21:32:23Z</time>
      </trkpt>
      <trkpt lat="46.38743" lon="4.66853">
        <ele>377</ele>
        <time>2021-12-27T21:32:25Z</time>
      </trkpt>
      <trkpt lat="46.38732" lon="4.66842">
        <ele>379</ele>
        <time>2021-12-27T21:32:27Z</time>
      </trkpt>
      <trkpt lat="46.38726" lon="4.6682">
        <ele>379</ele>
        <time>2021-12-27T21:32:30Z</time>
      </trkpt>
      <trkpt lat="46.38727" lon="4.66798">
        <ele>379</ele>
        <time>2021-12-27T21:32:33Z</time>
      </trkpt>
      <trkpt lat="46.38733" lon="4.66743">
        <ele>376</ele>
        <time>2021-12-27T21:32:39Z</time>
      </trkpt>
      <trkpt lat="46.38731" lon="4.66716">
        <ele>376</ele>
        <time>2021-12-27T21:32:43Z</time>
      </trkpt>
      <trkpt lat="46.38726" lon="4.66694">
        <ele>376</ele>
        <time>2021-12-27T21:32:46Z</time>
      </trkpt>
      <trkpt lat="46.38718" lon="4.66677">
        <ele>377</ele>
        <time>2021-12-27T21:32:48Z</time>
      </trkpt>
      <trkpt lat="46.38706" lon="4.66663">
        <ele>378</ele>
        <time>2021-12-27T21:32:51Z</time>
      </trkpt>
      <trkpt lat="46.38688" lon="4.6665">
        <ele>379</ele>
        <time>2021-12-27T21:32:54Z</time>
      </trkpt>
      <trkpt lat="46.38654" lon="4.66635">
        <ele>379</ele>
        <time>2021-12-27T21:33:01Z</time>
      </trkpt>
      <trkpt lat="46.38622" lon="4.66631">
        <ele>378</ele>
        <time>2021-12-27T21:33:06Z</time>
      </trkpt>
      <trkpt lat="46.3856" lon="4.66644">
        <ele>380</ele>
        <time>2021-12-27T21:33:18Z</time>
      </trkpt>
      <trkpt lat="46.38531" lon="4.66657">
        <ele>381</ele>
        <time>2021-12-27T21:33:23Z</time>
      </trkpt>
      <trkpt lat="46.38384" lon="4.66758">
        <ele>386</ele>
        <time>2021-12-27T21:33:52Z</time>
      </trkpt>
      <trkpt lat="46.38366" lon="4.66773">
        <ele>386</ele>
        <time>2021-12-27T21:33:56Z</time>
      </trkpt>
      <trkpt lat="46.38352" lon="4.66787">
        <ele>387</ele>
        <time>2021-12-27T21:33:59Z</time>
      </trkpt>
      <trkpt lat="46.38341" lon="4.66803">
        <ele>388</ele>
        <time>2021-12-27T21:34:01Z</time>
      </trkpt>
      <trkpt lat="46.38334" lon="4.66817">
        <ele>390</ele>
        <time>2021-12-27T21:34:04Z</time>
      </trkpt>
      <trkpt lat="46.38326" lon="4.66843">
        <ele>392</ele>
        <time>2021-12-27T21:34:07Z</time>
      </trkpt>
      <trkpt lat="46.38324" lon="4.66855">
        <ele>392</ele>
        <time>2021-12-27T21:34:09Z</time>
      </trkpt>
      <trkpt lat="46.38322" lon="4.66879">
        <ele>393</ele>
        <time>2021-12-27T21:34:12Z</time>
      </trkpt>
      <trkpt lat="46.38322" lon="4.66896">
        <ele>394</ele>
        <time>2021-12-27T21:34:14Z</time>
      </trkpt>
      <trkpt lat="46.38324" lon="4.66915">
        <ele>394</ele>
        <time>2021-12-27T21:34:16Z</time>
      </trkpt>
      <trkpt lat="46.38334" lon="4.66961">
        <ele>393</ele>
        <time>2021-12-27T21:34:22Z</time>
      </trkpt>
      <trkpt lat="46.38373" lon="4.67094">
        <ele>390</ele>
        <time>2021-12-27T21:34:40Z</time>
      </trkpt>
      <trkpt lat="46.38374" lon="4.67107">
        <ele>390</ele>
        <time>2021-12-27T21:34:41Z</time>
      </trkpt>
      <trkpt lat="46.38374" lon="4.67119">
        <ele>390</ele>
        <time>2021-12-27T21:34:43Z</time>
      </trkpt>
      <trkpt lat="46.38372" lon="4.67134">
        <ele>389</ele>
        <time>2021-12-27T21:34:45Z</time>
      </trkpt>
      <trkpt lat="46.38368" lon="4.67147">
        <ele>389</ele>
        <time>2021-12-27T21:34:46Z</time>
      </trkpt>
      <trkpt lat="46.3836" lon="4.67159">
        <ele>388</ele>
        <time>2021-12-27T21:34:48Z</time>
      </trkpt>
      <trkpt lat="46.3835" lon="4.67171">
        <ele>387</ele>
        <time>2021-12-27T21:34:51Z</time>
      </trkpt>
      <trkpt lat="46.37937" lon="4.67535">
        <ele>369</ele>
        <time>2021-12-27T21:36:17Z</time>
      </trkpt>
      <trkpt lat="46.37902" lon="4.67569">
        <ele>367</ele>
        <time>2021-12-27T21:36:24Z</time>
      </trkpt>
      <trkpt lat="46.37895" lon="4.67581">
        <ele>367</ele>
        <time>2021-12-27T21:36:26Z</time>
      </trkpt>
      <trkpt lat="46.37888" lon="4.67602">
        <ele>365</ele>
        <time>2021-12-27T21:36:29Z</time>
      </trkpt>
      <trkpt lat="46.37887" lon="4.67622">
        <ele>364</ele>
        <time>2021-12-27T21:36:31Z</time>
      </trkpt>
      <trkpt lat="46.3789" lon="4.67637">
        <ele>364</ele>
        <time>2021-12-27T21:36:33Z</time>
      </trkpt>
      <trkpt lat="46.379" lon="4.67657">
        <ele>364</ele>
        <time>2021-12-27T21:36:36Z</time>
      </trkpt>
      <trkpt lat="46.38085" lon="4.67869">
        <ele>359</ele>
        <time>2021-12-27T21:37:18Z</time>
      </trkpt>
      <trkpt lat="46.38375" lon="4.68194">
        <ele>345</ele>
        <time>2021-12-27T21:38:24Z</time>
      </trkpt>
      <trkpt lat="46.38387" lon="4.68219">
        <ele>344</ele>
        <time>2021-12-27T21:38:27Z</time>
      </trkpt>
      <trkpt lat="46.3839" lon="4.68241">
        <ele>343</ele>
        <time>2021-12-27T21:38:30Z</time>
      </trkpt>
      <trkpt lat="46.38389" lon="4.68253">
        <ele>342</ele>
        <time>2021-12-27T21:38:32Z</time>
      </trkpt>
      <trkpt lat="46.38385" lon="4.68266">
        <ele>341</ele>
        <time>2021-12-27T21:38:33Z</time>
      </trkpt>
      <trkpt lat="46.38373" lon="4.68283">
        <ele>340</ele>
        <time>2021-12-27T21:38:36Z</time>
      </trkpt>
      <trkpt lat="46.38356" lon="4.68297">
        <ele>339</ele>
        <time>2021-12-27T21:38:40Z</time>
      </trkpt>
      <trkpt lat="46.38221" lon="4.68388">
        <ele>334</ele>
        <time>2021-12-27T21:39:06Z</time>
      </trkpt>
      <trkpt lat="46.38209" lon="4.68402">
        <ele>334</ele>
        <time>2021-12-27T21:39:09Z</time>
      </trkpt>
      <trkpt lat="46.38202" lon="4.68415">
        <ele>333</ele>
        <time>2021-12-27T21:39:11Z</time>
      </trkpt>
      <trkpt lat="46.38198" lon="4.68431">
        <ele>332</ele>
        <time>2021-12-27T21:39:13Z</time>
      </trkpt>
      <trkpt lat="46.38196" lon="4.68456">
        <ele>331</ele>
        <time>2021-12-27T21:39:16Z</time>
      </trkpt>
      <trkpt lat="46.38197" lon="4.68532">
        <ele>326</ele>
        <time>2021-12-27T21:39:26Z</time>
      </trkpt>
      <trkpt lat="46.38192" lon="4.68554">
        <ele>325</ele>
        <time>2021-12-27T21:39:28Z</time>
      </trkpt>
      <trkpt lat="46.38183" lon="4.68574">
        <ele>324</ele>
        <time>2021-12-27T21:39:31Z</time>
      </trkpt>
      <trkpt lat="46.38173" lon="4.68585">
        <ele>324</ele>
        <time>2021-12-27T21:39:34Z</time>
      </trkpt>
      <trkpt lat="46.37981" lon="4.68768">
        <ele>319</ele>
        <time>2021-12-27T21:40:14Z</time>
      </trkpt>
      <trkpt lat="46.37954" lon="4.68787">
        <ele>318</ele>
        <time>2021-12-27T21:40:20Z</time>
      </trkpt>
      <trkpt lat="46.37935" lon="4.68796">
        <ele>318</ele>
        <time>2021-12-27T21:40:23Z</time>
      </trkpt>
      <trkpt lat="46.3782" lon="4.68812">
        <ele>315</ele>
        <time>2021-12-27T21:40:44Z</time>
      </trkpt>
      <trkpt lat="46.37515" lon="4.68849">
        <ele>303</ele>
        <time>2021-12-27T21:41:38Z</time>
      </trkpt>
      <trkpt lat="46.37352" lon="4.68866">
        <ele>298</ele>
        <time>2021-12-27T21:42:07Z</time>
      </trkpt>
      <trkpt lat="46.3733" lon="4.68873">
        <ele>297</ele>
        <time>2021-12-27T21:42:11Z</time>
      </trkpt>
      <trkpt lat="46.37313" lon="4.68881">
        <ele>297</ele>
        <time>2021-12-27T21:42:15Z</time>
      </trkpt>
      <trkpt lat="46.37298" lon="4.68898">
        <ele>296</ele>
        <time>2021-12-27T21:42:18Z</time>
      </trkpt>
      <trkpt lat="46.37275" lon="4.68929">
        <ele>295</ele>
        <time>2021-12-27T21:42:24Z</time>
      </trkpt>
      <trkpt lat="46.37258" lon="4.68945">
        <ele>295</ele>
        <time>2021-12-27T21:42:27Z</time>
      </trkpt>
      <trkpt lat="46.37241" lon="4.68957">
        <ele>295</ele>
        <time>2021-12-27T21:42:31Z</time>
      </trkpt>
      <trkpt lat="46.37228" lon="4.68963">
        <ele>294</ele>
        <time>2021-12-27T21:42:33Z</time>
      </trkpt>
      <trkpt lat="46.37013" lon="4.6902">
        <ele>287</ele>
        <time>2021-12-27T21:43:12Z</time>
      </trkpt>
      <trkpt lat="46.36578" lon="4.69127">
        <ele>272</ele>
        <time>2021-12-27T21:44:30Z</time>
      </trkpt>
      <trkpt lat="46.3655" lon="4.69136">
        <ele>273</ele>
        <time>2021-12-27T21:44:36Z</time>
      </trkpt>
      <trkpt lat="46.36539" lon="4.69142">
        <ele>273</ele>
        <time>2021-12-27T21:44:38Z</time>
      </trkpt>
      <trkpt lat="46.36522" lon="4.69183">
        <ele>274</ele>
        <time>2021-12-27T21:44:43Z</time>
      </trkpt>
      <trkpt lat="46.36502" lon="4.69216">
        <ele>274</ele>
        <time>2021-12-27T21:44:49Z</time>
      </trkpt>
      <trkpt lat="46.36432" lon="4.69298">
        <ele>272</ele>
        <time>2021-12-27T21:45:05Z</time>
      </trkpt>
      <trkpt lat="46.36387" lon="4.69344">
        <ele>269</ele>
        <time>2021-12-27T21:45:15Z</time>
      </trkpt>
      <trkpt lat="46.36368" lon="4.69357">
        <ele>268</ele>
        <time>2021-12-27T21:45:18Z</time>
      </trkpt>
      <trkpt lat="46.36265" lon="4.69379">
        <ele>267</ele>
        <time>2021-12-27T21:45:37Z</time>
      </trkpt>
      <trkpt lat="46.36239" lon="4.69389">
        <ele>266</ele>
        <time>2021-12-27T21:45:42Z</time>
      </trkpt>
      <trkpt lat="46.36219" lon="4.69403">
        <ele>265</ele>
        <time>2021-12-27T21:45:46Z</time>
      </trkpt>
      <trkpt lat="46.36192" lon="4.69431">
        <ele>264</ele>
        <time>2021-12-27T21:45:52Z</time>
      </trkpt>
      <trkpt lat="46.36124" lon="4.69515">
        <ele>262</ele>
        <time>2021-12-27T21:46:07Z</time>
      </trkpt>
      <trkpt lat="46.36076" lon="4.69567">
        <ele>264</ele>
        <time>2021-12-27T21:46:18Z</time>
      </trkpt>
      <trkpt lat="46.35999" lon="4.69675">
        <ele>264</ele>
        <time>2021-12-27T21:46:37Z</time>
      </trkpt>
      <trkpt lat="46.35897" lon="4.69808">
        <ele>263</ele>
        <time>2021-12-27T21:47:02Z</time>
      </trkpt>
      <trkpt lat="46.35852" lon="4.6987">
        <ele>258</ele>
        <time>2021-12-27T21:47:13Z</time>
      </trkpt>
      <trkpt lat="46.35684" lon="4.70126">
        <ele>256</ele>
        <time>2021-12-27T21:47:56Z</time>
      </trkpt>
      <trkpt lat="46.35263" lon="4.70751">
        <ele>248</ele>
        <time>2021-12-27T21:49:43Z</time>
      </trkpt>
      <trkpt lat="46.35224" lon="4.7081">
        <ele>248</ele>
        <time>2021-12-27T21:49:53Z</time>
      </trkpt>
      <trkpt lat="46.35134" lon="4.70992">
        <ele>239</ele>
        <time>2021-12-27T21:50:21Z</time>
      </trkpt>
      <trkpt lat="46.35079" lon="4.71106">
        <ele>237</ele>
        <time>2021-12-27T21:50:38Z</time>
      </trkpt>
      <trkpt lat="46.34878" lon="4.71511">
        <ele>237</ele>
        <time>2021-12-27T21:51:39Z</time>
      </trkpt>
      <trkpt lat="46.34789" lon="4.71681">
        <ele>239</ele>
        <time>2021-12-27T21:52:05Z</time>
      </trkpt>
      <trkpt lat="46.34744" lon="4.71781">
        <ele>236</ele>
        <time>2021-12-27T21:52:20Z</time>
      </trkpt>
      <trkpt lat="46.34731" lon="4.71799">
        <ele>236</ele>
        <time>2021-12-27T21:52:23Z</time>
      </trkpt>
      <trkpt lat="46.34727" lon="4.71792">
        <ele>236</ele>
        <time>2021-12-27T21:52:24Z</time>
      </trkpt>
      <trkpt lat="46.34721" lon="4.71789">
        <ele>235</ele>
        <time>2021-12-27T21:52:25Z</time>
      </trkpt>
      <trkpt lat="46.34716" lon="4.71793">
        <ele>235</ele>
        <time>2021-12-27T21:52:27Z</time>
      </trkpt>
      <trkpt lat="46.34713" lon="4.71801">
        <ele>235</ele>
        <time>2021-12-27T21:52:28Z</time>
      </trkpt>
      <trkpt lat="46.34713" lon="4.71806">
        <ele>235</ele>
        <time>2021-12-27T21:52:28Z</time>
      </trkpt>
      <trkpt lat="46.34718" lon="4.71816">
        <ele>235</ele>
        <time>2021-12-27T21:52:30Z</time>
      </trkpt>
      <trkpt lat="46.3468" lon="4.71877">
        <ele>235</ele>
        <time>2021-12-27T21:52:40Z</time>
      </trkpt>
      <trkpt lat="46.34526" lon="4.72089">
        <ele>234</ele>
        <time>2021-12-27T21:53:18Z</time>
      </trkpt>
      <trkpt lat="46.34506" lon="4.72112">
        <ele>232</ele>
        <time>2021-12-27T21:53:22Z</time>
      </trkpt>
      <trkpt lat="46.34283" lon="4.72295">
        <ele>225</ele>
        <time>2021-12-27T21:54:08Z</time>
      </trkpt>
      <trkpt lat="46.3413" lon="4.72425">
        <ele>227</ele>
        <time>2021-12-27T21:54:39Z</time>
      </trkpt>
      <trkpt lat="46.33993" lon="4.72533">
        <ele>235</ele>
        <time>2021-12-27T21:55:07Z</time>
      </trkpt>
      <trkpt lat="46.33785" lon="4.72708">
        <ele>230</ele>
        <time>2021-12-27T21:55:50Z</time>
      </trkpt>
      <trkpt lat="46.33742" lon="4.72756">
        <ele>228</ele>
        <time>2021-12-27T21:56:00Z</time>
      </trkpt>
      <trkpt lat="46.33545" lon="4.73019">
        <ele>220</ele>
        <time>2021-12-27T21:56:47Z</time>
      </trkpt>
      <trkpt lat="46.33498" lon="4.73089">
        <ele>219</ele>
        <time>2021-12-27T21:56:59Z</time>
      </trkpt>
      <trkpt lat="46.33472" lon="4.73133">
        <ele>218</ele>
        <time>2021-12-27T21:57:06Z</time>
      </trkpt>
      <trkpt lat="46.33449" lon="4.73192">
        <ele>217</ele>
        <time>2021-12-27T21:57:15Z</time>
      </trkpt>
      <trkpt lat="46.33425" lon="4.73258">
        <ele>217</ele>
        <time>2021-12-27T21:57:24Z</time>
      </trkpt>
      <trkpt lat="46.33405" lon="4.73324">
        <ele>217</ele>
        <time>2021-12-27T21:57:33Z</time>
      </trkpt>
      <trkpt lat="46.33334" lon="4.73573">
        <ele>216</ele>
        <time>2021-12-27T21:58:06Z</time>
      </trkpt>
      <trkpt lat="46.33324" lon="4.73604">
        <ele>217</ele>
        <time>2021-12-27T21:58:10Z</time>
      </trkpt>
      <trkpt lat="46.33307" lon="4.73629">
        <ele>216</ele>
        <time>2021-12-27T21:58:14Z</time>
      </trkpt>
      <trkpt lat="46.33298" lon="4.7363">
        <ele>216</ele>
        <time>2021-12-27T21:58:16Z</time>
      </trkpt>
      <trkpt lat="46.33292" lon="4.73638">
        <ele>215</ele>
        <time>2021-12-27T21:58:17Z</time>
      </trkpt>
      <trkpt lat="46.3329" lon="4.73652">
        <ele>215</ele>
        <time>2021-12-27T21:58:19Z</time>
      </trkpt>
      <trkpt lat="46.33293" lon="4.73662">
        <ele>216</ele>
        <time>2021-12-27T21:58:20Z</time>
      </trkpt>
      <trkpt lat="46.33301" lon="4.73669">
        <ele>217</ele>
        <time>2021-12-27T21:58:22Z</time>
      </trkpt>
      <trkpt lat="46.33292" lon="4.73724">
        <ele>217</ele>
        <time>2021-12-27T21:58:29Z</time>
      </trkpt>
      <trkpt lat="46.33281" lon="4.73781">
        <ele>216</ele>
        <time>2021-12-27T21:58:36Z</time>
      </trkpt>
      <trkpt lat="46.33201" lon="4.74105">
        <ele>210</ele>
        <time>2021-12-27T21:59:19Z</time>
      </trkpt>
      <trkpt lat="46.33165" lon="4.74259">
        <ele>212</ele>
        <time>2021-12-27T21:59:39Z</time>
      </trkpt>
      <trkpt lat="46.33159" lon="4.74276">
        <ele>211</ele>
        <time>2021-12-27T21:59:41Z</time>
      </trkpt>
      <trkpt lat="46.33143" lon="4.74307">
        <ele>210</ele>
        <time>2021-12-27T21:59:46Z</time>
      </trkpt>
      <trkpt lat="46.33135" lon="4.74328">
        <ele>210</ele>
        <time>2021-12-27T21:59:49Z</time>
      </trkpt>
      <trkpt lat="46.33127" lon="4.74325">
        <ele>210</ele>
        <time>2021-12-27T21:59:50Z</time>
      </trkpt>
      <trkpt lat="46.33121" lon="4.74327">
        <ele>209</ele>
        <time>2021-12-27T21:59:51Z</time>
      </trkpt>
      <trkpt lat="46.33115" lon="4.74334">
        <ele>209</ele>
        <time>2021-12-27T21:59:53Z</time>
      </trkpt>
      <trkpt lat="46.33053" lon="4.74283">
        <ele>207</ele>
        <time>2021-12-27T22:00:05Z</time>
      </trkpt>
      <trkpt lat="46.3304" lon="4.74271">
        <ele>207</ele>
        <time>2021-12-27T22:00:08Z</time>
      </trkpt>
      <trkpt lat="46.3301" lon="4.74253">
        <ele>207</ele>
        <time>2021-12-27T22:00:14Z</time>
      </trkpt>
      <trkpt lat="46.32924" lon="4.74232">
        <ele>205</ele>
        <time>2021-12-27T22:00:29Z</time>
      </trkpt>
      <trkpt lat="46.32909" lon="4.74229">
        <ele>205</ele>
        <time>2021-12-27T22:00:32Z</time>
      </trkpt>
      <trkpt lat="46.32846" lon="4.74225">
        <ele>206</ele>
        <time>2021-12-27T22:00:43Z</time>
      </trkpt>
      <trkpt lat="46.32748" lon="4.74211">
        <ele>207</ele>
        <time>2021-12-27T22:01:01Z</time>
      </trkpt>
      <trkpt lat="46.32681" lon="4.74198">
        <ele>207</ele>
        <time>2021-12-27T22:01:13Z</time>
      </trkpt>
      <trkpt lat="46.32562" lon="4.74171">
        <ele>210</ele>
        <time>2021-12-27T22:01:34Z</time>
      </trkpt>
      <trkpt lat="46.32514" lon="4.74161">
        <ele>210</ele>
        <time>2021-12-27T22:01:43Z</time>
      </trkpt>
      <trkpt lat="46.32488" lon="4.7416">
        <ele>210</ele>
        <time>2021-12-27T22:01:47Z</time>
      </trkpt>
      <trkpt lat="46.32474" lon="4.74165">
        <ele>210</ele>
        <time>2021-12-27T22:01:50Z</time>
      </trkpt>
      <trkpt lat="46.32456" lon="4.74176">
        <ele>210</ele>
        <time>2021-12-27T22:01:53Z</time>
      </trkpt>
      <trkpt lat="46.32212" lon="4.744">
        <ele>208</ele>
        <time>2021-12-27T22:02:45Z</time>
      </trkpt>
      <trkpt lat="46.32177" lon="4.74437">
        <ele>209</ele>
        <time>2021-12-27T22:02:53Z</time>
      </trkpt>
      <trkpt lat="46.32162" lon="4.7445">
        <ele>209</ele>
        <time>2021-12-27T22:02:56Z</time>
      </trkpt>
      <trkpt lat="46.32149" lon="4.74458">
        <ele>209</ele>
        <time>2021-12-27T22:02:58Z</time>
      </trkpt>
      <trkpt lat="46.32131" lon="4.74465">
        <ele>210</ele>
        <time>2021-12-27T22:03:02Z</time>
      </trkpt>
      <trkpt lat="46.32109" lon="4.74469">
        <ele>210</ele>
        <time>2021-12-27T22:03:05Z</time>
      </trkpt>
      <trkpt lat="46.32086" lon="4.74477">
        <ele>211</ele>
        <time>2021-12-27T22:03:10Z</time>
      </trkpt>
      <trkpt lat="46.32058" lon="4.74504">
        <ele>210</ele>
        <time>2021-12-27T22:03:16Z</time>
      </trkpt>
      <trkpt lat="46.31978" lon="4.74597">
        <ele>208</ele>
        <time>2021-12-27T22:03:34Z</time>
      </trkpt>
      <trkpt lat="46.31952" lon="4.74633">
        <ele>208</ele>
        <time>2021-12-27T22:03:40Z</time>
      </trkpt>
      <trkpt lat="46.31858" lon="4.74752">
        <ele>207</ele>
        <time>2021-12-27T22:04:03Z</time>
      </trkpt>
      <trkpt lat="46.31843" lon="4.74778">
        <ele>207</ele>
        <time>2021-12-27T22:04:07Z</time>
      </trkpt>
      <trkpt lat="46.3179" lon="4.74902">
        <ele>206</ele>
        <time>2021-12-27T22:04:25Z</time>
      </trkpt>
      <trkpt lat="46.31774" lon="4.74934">
        <ele>205</ele>
        <time>2021-12-27T22:04:29Z</time>
      </trkpt>
      <trkpt lat="46.31755" lon="4.74963">
        <ele>205</ele>
        <time>2021-12-27T22:04:34Z</time>
      </trkpt>
      <trkpt lat="46.31667" lon="4.75066">
        <ele>202</ele>
        <time>2021-12-27T22:04:55Z</time>
      </trkpt>
      <trkpt lat="46.3165" lon="4.75091">
        <ele>202</ele>
        <time>2021-12-27T22:04:59Z</time>
      </trkpt>
      <trkpt lat="46.31571" lon="4.75266">
        <ele>199</ele>
        <time>2021-12-27T22:05:25Z</time>
      </trkpt>
      <trkpt lat="46.31543" lon="4.75324">
        <ele>198</ele>
        <time>2021-12-27T22:05:33Z</time>
      </trkpt>
      <trkpt lat="46.31508" lon="4.75375">
        <ele>196</ele>
        <time>2021-12-27T22:05:42Z</time>
      </trkpt>
      <trkpt lat="46.3141" lon="4.75509">
        <ele>195</ele>
        <time>2021-12-27T22:06:06Z</time>
      </trkpt>
      <trkpt lat="46.3138" lon="4.75535">
        <ele>194</ele>
        <time>2021-12-27T22:06:12Z</time>
      </trkpt>
      <trkpt lat="46.31312" lon="4.75588">
        <ele>193</ele>
        <time>2021-12-27T22:06:26Z</time>
      </trkpt>
      <trkpt lat="46.31283" lon="4.75605">
        <ele>194</ele>
        <time>2021-12-27T22:06:32Z</time>
      </trkpt>
      <trkpt lat="46.31255" lon="4.75617">
        <ele>194</ele>
        <time>2021-12-27T22:06:37Z</time>
      </trkpt>
      <trkpt lat="46.31193" lon="4.75624">
        <ele>194</ele>
        <time>2021-12-27T22:06:48Z</time>
      </trkpt>
      <trkpt lat="46.31149" lon="4.75617">
        <ele>195</ele>
        <time>2021-12-27T22:06:56Z</time>
      </trkpt>
      <trkpt lat="46.31119" lon="4.75605">
        <ele>195</ele>
        <time>2021-12-27T22:07:01Z</time>
      </trkpt>
      <trkpt lat="46.30972" lon="4.7553">
        <ele>197</ele>
        <time>2021-12-27T22:07:29Z</time>
      </trkpt>
      <trkpt lat="46.30902" lon="4.75495">
        <ele>199</ele>
        <time>2021-12-27T22:07:42Z</time>
      </trkpt>
      <trkpt lat="46.30853" lon="4.75469">
        <ele>201</ele>
        <time>2021-12-27T22:07:51Z</time>
      </trkpt>
      <trkpt lat="46.30829" lon="4.75462">
        <ele>202</ele>
        <time>2021-12-27T22:07:56Z</time>
      </trkpt>
      <trkpt lat="46.30799" lon="4.75457">
        <ele>204</ele>
        <time>2021-12-27T22:08:01Z</time>
      </trkpt>
      <trkpt lat="46.30786" lon="4.75459">
        <ele>204</ele>
        <time>2021-12-27T22:08:04Z</time>
      </trkpt>
      <trkpt lat="46.30753" lon="4.75473">
        <ele>205</ele>
        <time>2021-12-27T22:08:10Z</time>
      </trkpt>
      <trkpt lat="46.30734" lon="4.75488">
        <ele>204</ele>
        <time>2021-12-27T22:08:13Z</time>
      </trkpt>
      <trkpt lat="46.30713" lon="4.75508">
        <ele>204</ele>
        <time>2021-12-27T22:08:18Z</time>
      </trkpt>
      <trkpt lat="46.30697" lon="4.75533">
        <ele>204</ele>
        <time>2021-12-27T22:08:22Z</time>
      </trkpt>
      <trkpt lat="46.30684" lon="4.75565">
        <ele>203</ele>
        <time>2021-12-27T22:08:27Z</time>
      </trkpt>
      <trkpt lat="46.30674" lon="4.75595">
        <ele>202</ele>
        <time>2021-12-27T22:08:31Z</time>
      </trkpt>
      <trkpt lat="46.30623" lon="4.75808">
        <ele>195</ele>
        <time>2021-12-27T22:08:59Z</time>
      </trkpt>
      <trkpt lat="46.30611" lon="4.75848">
        <ele>194</ele>
        <time>2021-12-27T22:09:04Z</time>
      </trkpt>
      <trkpt lat="46.30597" lon="4.75882">
        <ele>193</ele>
        <time>2021-12-27T22:09:09Z</time>
      </trkpt>
      <trkpt lat="46.30563" lon="4.75936">
        <ele>193</ele>
        <time>2021-12-27T22:09:18Z</time>
      </trkpt>
      <trkpt lat="46.30427" lon="4.76115">
        <ele>192</ele>
        <time>2021-12-27T22:09:50Z</time>
      </trkpt>
      <trkpt lat="46.30286" lon="4.76289">
        <ele>189</ele>
        <time>2021-12-27T22:10:23Z</time>
      </trkpt>
      <trkpt lat="46.30205" lon="4.76382">
        <ele>189</ele>
        <time>2021-12-27T22:10:42Z</time>
      </trkpt>
      <trkpt lat="46.3014" lon="4.76452">
        <ele>188</ele>
        <time>2021-12-27T22:10:56Z</time>
      </trkpt>
      <trkpt lat="46.30127" lon="4.76465">
        <ele>188</ele>
        <time>2021-12-27T22:10:59Z</time>
      </trkpt>
      <trkpt lat="46.30003" lon="4.76591">
        <ele>187</ele>
        <time>2021-12-27T22:11:26Z</time>
      </trkpt>
      <trkpt lat="46.29961" lon="4.76618">
        <ele>187</ele>
        <time>2021-12-27T22:11:34Z</time>
      </trkpt>
      <trkpt lat="46.2993" lon="4.76631">
        <ele>188</ele>
        <time>2021-12-27T22:11:40Z</time>
      </trkpt>
      <trkpt lat="46.29878" lon="4.76648">
        <ele>188</ele>
        <time>2021-12-27T22:11:49Z</time>
      </trkpt>
      <trkpt lat="46.29803" lon="4.76665">
        <ele>189</ele>
        <time>2021-12-27T22:12:03Z</time>
      </trkpt>
      <trkpt lat="46.29781" lon="4.76672">
        <ele>189</ele>
        <time>2021-12-27T22:12:07Z</time>
      </trkpt>
      <trkpt lat="46.29759" lon="4.76685">
        <ele>189</ele>
        <time>2021-12-27T22:12:11Z</time>
      </trkpt>
      <trkpt lat="46.29643" lon="4.76773">
        <ele>190</ele>
        <time>2021-12-27T22:12:34Z</time>
      </trkpt>
      <trkpt lat="46.29614" lon="4.76791">
        <ele>190</ele>
        <time>2021-12-27T22:12:40Z</time>
      </trkpt>
      <trkpt lat="46.29585" lon="4.76805">
        <ele>190</ele>
        <time>2021-12-27T22:12:45Z</time>
      </trkpt>
      <trkpt lat="46.29546" lon="4.76821">
        <ele>190</ele>
        <time>2021-12-27T22:12:53Z</time>
      </trkpt>
      <trkpt lat="46.29528" lon="4.76826">
        <ele>190</ele>
        <time>2021-12-27T22:12:56Z</time>
      </trkpt>
      <trkpt lat="46.29479" lon="4.76834">
        <ele>191</ele>
        <time>2021-12-27T22:13:05Z</time>
      </trkpt>
      <trkpt lat="46.29445" lon="4.76845">
        <ele>190</ele>
        <time>2021-12-27T22:13:11Z</time>
      </trkpt>
      <trkpt lat="46.29417" lon="4.76858">
        <ele>189</ele>
        <time>2021-12-27T22:13:16Z</time>
      </trkpt>
      <trkpt lat="46.29394" lon="4.76874">
        <ele>189</ele>
        <time>2021-12-27T22:13:21Z</time>
      </trkpt>
      <trkpt lat="46.29354" lon="4.7691">
        <ele>190</ele>
        <time>2021-12-27T22:13:29Z</time>
      </trkpt>
      <trkpt lat="46.29332" lon="4.76937">
        <ele>190</ele>
        <time>2021-12-27T22:13:34Z</time>
      </trkpt>
      <trkpt lat="46.29305" lon="4.76982">
        <ele>190</ele>
        <time>2021-12-27T22:13:42Z</time>
      </trkpt>
      <trkpt lat="46.29277" lon="4.77042">
        <ele>189</ele>
        <time>2021-12-27T22:13:50Z</time>
      </trkpt>
      <trkpt lat="46.29258" lon="4.77076">
        <ele>189</ele>
        <time>2021-12-27T22:13:56Z</time>
      </trkpt>
      <trkpt lat="46.29234" lon="4.7711">
        <ele>188</ele>
        <time>2021-12-27T22:14:02Z</time>
      </trkpt>
      <trkpt lat="46.29099" lon="4.77277">
        <ele>186</ele>
        <time>2021-12-27T22:14:33Z</time>
      </trkpt>
      <trkpt lat="46.29078" lon="4.77299">
        <ele>185</ele>
        <time>2021-12-27T22:14:38Z</time>
      </trkpt>
      <trkpt lat="46.29047" lon="4.77325">
        <ele>185</ele>
        <time>2021-12-27T22:14:44Z</time>
      </trkpt>
      <trkpt lat="46.29012" lon="4.7735">
        <ele>184</ele>
        <time>2021-12-27T22:14:51Z</time>
      </trkpt>
      <trkpt lat="46.28773" lon="4.77492">
        <ele>186</ele>
        <time>2021-12-27T22:15:37Z</time>
      </trkpt>
      <trkpt lat="46.2872" lon="4.77515">
        <ele>185</ele>
        <time>2021-12-27T22:15:47Z</time>
      </trkpt>
      <trkpt lat="46.28386" lon="4.77601">
        <ele>186</ele>
        <time>2021-12-27T22:16:47Z</time>
      </trkpt>
      <trkpt lat="46.28381" lon="4.7759">
        <ele>186</ele>
        <time>2021-12-27T22:16:49Z</time>
      </trkpt>
      <trkpt lat="46.28373" lon="4.77586">
        <ele>186</ele>
        <time>2021-12-27T22:16:51Z</time>
      </trkpt>
      <trkpt lat="46.28364" lon="4.7759">
        <ele>186</ele>
        <time>2021-12-27T22:16:52Z</time>
      </trkpt>
      <trkpt lat="46.28359" lon="4.77599">
        <ele>186</ele>
        <time>2021-12-27T22:16:54Z</time>
      </trkpt>
      <trkpt lat="46.28358" lon="4.77606">
        <ele>186</ele>
        <time>2021-12-27T22:16:55Z</time>
      </trkpt>
      <trkpt lat="46.28184" lon="4.77619">
        <ele>192</ele>
        <time>2021-12-27T22:17:26Z</time>
      </trkpt>
      <trkpt lat="46.28129" lon="4.77632">
        <ele>193</ele>
        <time>2021-12-27T22:17:36Z</time>
      </trkpt>
      <trkpt lat="46.28024" lon="4.77667">
        <ele>192</ele>
        <time>2021-12-27T22:17:55Z</time>
      </trkpt>
      <trkpt lat="46.27978" lon="4.77674">
        <ele>191</ele>
        <time>2021-12-27T22:18:03Z</time>
      </trkpt>
      <trkpt lat="46.2792" lon="4.77675">
        <ele>193</ele>
        <time>2021-12-27T22:18:13Z</time>
      </trkpt>
      <trkpt lat="46.27853" lon="4.77669">
        <ele>194</ele>
        <time>2021-12-27T22:18:25Z</time>
      </trkpt>
      <trkpt lat="46.27804" lon="4.77667">
        <ele>194</ele>
        <time>2021-12-27T22:18:34Z</time>
      </trkpt>
      <trkpt lat="46.27674" lon="4.7772">
        <ele>192</ele>
        <time>2021-12-27T22:18:58Z</time>
      </trkpt>
      <trkpt lat="46.27601" lon="4.77747">
        <ele>190</ele>
        <time>2021-12-27T22:19:11Z</time>
      </trkpt>
      <trkpt lat="46.27432" lon="4.77817">
        <ele>187</ele>
        <time>2021-12-27T22:19:43Z</time>
      </trkpt>
      <trkpt lat="46.27326" lon="4.77854">
        <ele>188</ele>
        <time>2021-12-27T22:20:02Z</time>
      </trkpt>
      <trkpt lat="46.27323" lon="4.77849">
        <ele>188</ele>
        <time>2021-12-27T22:20:03Z</time>
      </trkpt>
      <trkpt lat="46.27316" lon="4.77846">
        <ele>188</ele>
        <time>2021-12-27T22:20:04Z</time>
      </trkpt>
      <trkpt lat="46.27311" lon="4.77846">
        <ele>188</ele>
        <time>2021-12-27T22:20:05Z</time>
      </trkpt>
      <trkpt lat="46.27305" lon="4.77854">
        <ele>188</ele>
        <time>2021-12-27T22:20:06Z</time>
      </trkpt>
      <trkpt lat="46.27303" lon="4.77863">
        <ele>187</ele>
        <time>2021-12-27T22:20:08Z</time>
      </trkpt>
      <trkpt lat="46.27292" lon="4.77874">
        <ele>187</ele>
        <time>2021-12-27T22:20:10Z</time>
      </trkpt>
      <trkpt lat="46.26991" lon="4.77996">
        <ele>181</ele>
        <time>2021-12-27T22:21:06Z</time>
      </trkpt>
      <trkpt lat="46.26825" lon="4.78058">
        <ele>181</ele>
        <time>2021-12-27T22:21:36Z</time>
      </trkpt>
      <trkpt lat="46.26797" lon="4.78064">
        <ele>181</ele>
        <time>2021-12-27T22:21:41Z</time>
      </trkpt>
      <trkpt lat="46.26754" lon="4.78065">
        <ele>180</ele>
        <time>2021-12-27T22:21:49Z</time>
      </trkpt>
      <trkpt lat="46.26567" lon="4.78037">
        <ele>180</ele>
        <time>2021-12-27T22:22:22Z</time>
      </trkpt>
      <trkpt lat="46.26543" lon="4.78036">
        <ele>180</ele>
        <time>2021-12-27T22:22:27Z</time>
      </trkpt>
      <trkpt lat="46.26425" lon="4.7805">
        <ele>179</ele>
        <time>2021-12-27T22:22:48Z</time>
      </trkpt>
      <trkpt lat="46.26308" lon="4.78029">
        <ele>178</ele>
        <time>2021-12-27T22:23:09Z</time>
      </trkpt>
      <trkpt lat="46.26279" lon="4.78029">
        <ele>178</ele>
        <time>2021-12-27T22:23:14Z</time>
      </trkpt>
      <trkpt lat="46.26259" lon="4.78031">
        <ele>178</ele>
        <time>2021-12-27T22:23:17Z</time>
      </trkpt>
      <trkpt lat="46.26226" lon="4.78039">
        <ele>178</ele>
        <time>2021-12-27T22:23:23Z</time>
      </trkpt>
      <trkpt lat="46.26104" lon="4.78072">
        <ele>177</ele>
        <time>2021-12-27T22:23:45Z</time>
      </trkpt>
      <trkpt lat="46.25926" lon="4.78113">
        <ele>179</ele>
        <time>2021-12-27T22:24:17Z</time>
      </trkpt>
      <trkpt lat="46.25817" lon="4.78135">
        <ele>178</ele>
        <time>2021-12-27T22:24:37Z</time>
      </trkpt>
      <trkpt lat="46.25553" lon="4.78181">
        <ele>178</ele>
        <time>2021-12-27T22:25:24Z</time>
      </trkpt>
      <trkpt lat="46.25483" lon="4.78191">
        <ele>180</ele>
        <time>2021-12-27T22:25:37Z</time>
      </trkpt>
      <trkpt lat="46.25456" lon="4.7819">
        <ele>180</ele>
        <time>2021-12-27T22:25:42Z</time>
      </trkpt>
      <trkpt lat="46.25403" lon="4.7818">
        <ele>180</ele>
        <time>2021-12-27T22:25:51Z</time>
      </trkpt>
      <trkpt lat="46.25387" lon="4.78181">
        <ele>180</ele>
        <time>2021-12-27T22:25:54Z</time>
      </trkpt>
      <trkpt lat="46.25347" lon="4.78192">
        <ele>180</ele>
        <time>2021-12-27T22:26:01Z</time>
      </trkpt>
      <trkpt lat="46.25224" lon="4.78238">
        <ele>178</ele>
        <time>2021-12-27T22:26:24Z</time>
      </trkpt>
      <trkpt lat="46.25168" lon="4.78262">
        <ele>178</ele>
        <time>2021-12-27T22:26:34Z</time>
      </trkpt>
      <trkpt lat="46.25126" lon="4.78294">
        <ele>179</ele>
        <time>2021-12-27T22:26:43Z</time>
      </trkpt>
      <trkpt lat="46.25037" lon="4.78369">
        <ele>179</ele>
        <time>2021-12-27T22:27:01Z</time>
      </trkpt>
      <trkpt lat="46.24965" lon="4.78423">
        <ele>177</ele>
        <time>2021-12-27T22:27:15Z</time>
      </trkpt>
      <trkpt lat="46.24948" lon="4.78439">
        <ele>177</ele>
        <time>2021-12-27T22:27:19Z</time>
      </trkpt>
      <trkpt lat="46.24941" lon="4.7845">
        <ele>177</ele>
        <time>2021-12-27T22:27:21Z</time>
      </trkpt>
      <trkpt lat="46.24937" lon="4.7846">
        <ele>177</ele>
        <time>2021-12-27T22:27:22Z</time>
      </trkpt>
      <trkpt lat="46.24932" lon="4.78491">
        <ele>176</ele>
        <time>2021-12-27T22:27:26Z</time>
      </trkpt>
      <trkpt lat="46.24902" lon="4.78481">
        <ele>177</ele>
        <time>2021-12-27T22:27:32Z</time>
      </trkpt>
      <trkpt lat="46.24891" lon="4.78482">
        <ele>177</ele>
        <time>2021-12-27T22:27:34Z</time>
      </trkpt>
      <trkpt lat="46.24857" lon="4.78494">
        <ele>177</ele>
        <time>2021-12-27T22:27:40Z</time>
      </trkpt>
      <trkpt lat="46.24838" lon="4.78502">
        <ele>177</ele>
        <time>2021-12-27T22:27:43Z</time>
      </trkpt>
      <trkpt lat="46.2477" lon="4.78557">
        <ele>178</ele>
        <time>2021-12-27T22:27:57Z</time>
      </trkpt>
      <trkpt lat="46.2466" lon="4.78634">
        <ele>178</ele>
        <time>2021-12-27T22:28:19Z</time>
      </trkpt>
      <trkpt lat="46.24628" lon="4.78658">
        <ele>177</ele>
        <time>2021-12-27T22:28:25Z</time>
      </trkpt>
      <trkpt lat="46.24624" lon="4.78672">
        <ele>177</ele>
        <time>2021-12-27T22:28:27Z</time>
      </trkpt>
      <trkpt lat="46.24623" lon="4.7871">
        <ele>177</ele>
        <time>2021-12-27T22:28:32Z</time>
      </trkpt>
      <trkpt lat="46.24586" lon="4.78704">
        <ele>176</ele>
        <time>2021-12-27T22:28:39Z</time>
      </trkpt>
      <trkpt lat="46.24545" lon="4.78703">
        <ele>177</ele>
        <time>2021-12-27T22:28:46Z</time>
      </trkpt>
      <trkpt lat="46.24323" lon="4.78753">
        <ele>180</ele>
        <time>2021-12-27T22:29:26Z</time>
      </trkpt>
      <trkpt lat="46.24305" lon="4.78749">
        <ele>180</ele>
        <time>2021-12-27T22:29:29Z</time>
      </trkpt>
      <trkpt lat="46.24281" lon="4.78739">
        <ele>180</ele>
        <time>2021-12-27T22:29:34Z</time>
      </trkpt>
      <trkpt lat="46.24248" lon="4.78717">
        <ele>180</ele>
        <time>2021-12-27T22:29:40Z</time>
      </trkpt>
      <trkpt lat="46.24236" lon="4.78712">
        <ele>180</ele>
        <time>2021-12-27T22:29:42Z</time>
      </trkpt>
      <trkpt lat="46.23991" lon="4.78696">
        <ele>179</ele>
        <time>2021-12-27T22:30:26Z</time>
      </trkpt>
      <trkpt lat="46.23973" lon="4.78695">
        <ele>179</ele>
        <time>2021-12-27T22:30:29Z</time>
      </trkpt>
      <trkpt lat="46.2336" lon="4.78666">
        <ele>183</ele>
        <time>2021-12-27T22:32:18Z</time>
      </trkpt>
      <trkpt lat="46.23027" lon="4.7865">
        <ele>183</ele>
        <time>2021-12-27T22:33:18Z</time>
      </trkpt>
      <trkpt lat="46.22986" lon="4.78643">
        <ele>182</ele>
        <time>2021-12-27T22:33:25Z</time>
      </trkpt>
      <trkpt lat="46.22928" lon="4.78627">
        <ele>181</ele>
        <time>2021-12-27T22:33:35Z</time>
      </trkpt>
      <trkpt lat="46.22864" lon="4.78604">
        <ele>180</ele>
        <time>2021-12-27T22:33:47Z</time>
      </trkpt>
      <trkpt lat="46.22734" lon="4.78543">
        <ele>177</ele>
        <time>2021-12-27T22:34:11Z</time>
      </trkpt>
      <trkpt lat="46.22699" lon="4.78526">
        <ele>178</ele>
        <time>2021-12-27T22:34:18Z</time>
      </trkpt>
      <trkpt lat="46.22632" lon="4.78487">
        <ele>178</ele>
        <time>2021-12-27T22:34:31Z</time>
      </trkpt>
      <trkpt lat="46.22564" lon="4.78445">
        <ele>178</ele>
        <time>2021-12-27T22:34:44Z</time>
      </trkpt>
      <trkpt lat="46.20936" lon="4.77222">
        <ele>186</ele>
        <time>2021-12-27T22:40:10Z</time>
      </trkpt>
      <trkpt lat="46.20783" lon="4.77104">
        <ele>183</ele>
        <time>2021-12-27T22:40:41Z</time>
      </trkpt>
      <trkpt lat="46.20634" lon="4.7702">
        <ele>183</ele>
        <time>2021-12-27T22:41:10Z</time>
      </trkpt>
      <trkpt lat="46.20597" lon="4.77056">
        <ele>184</ele>
        <time>2021-12-27T22:41:18Z</time>
      </trkpt>
      <trkpt lat="46.20588" lon="4.77062">
        <ele>184</ele>
        <time>2021-12-27T22:41:19Z</time>
      </trkpt>
      <trkpt lat="46.20573" lon="4.77069">
        <ele>185</ele>
        <time>2021-12-27T22:41:22Z</time>
      </trkpt>
      <trkpt lat="46.20477" lon="4.77083">
        <ele>188</ele>
        <time>2021-12-27T22:41:39Z</time>
      </trkpt>
      <trkpt lat="46.20353" lon="4.77096">
        <ele>192</ele>
        <time>2021-12-27T22:42:02Z</time>
      </trkpt>
      <trkpt lat="46.20158" lon="4.77021">
        <ele>192</ele>
        <time>2021-12-27T22:42:37Z</time>
      </trkpt>
      <trkpt lat="46.20085" lon="4.77005">
        <ele>191</ele>
        <time>2021-12-27T22:42:51Z</time>
      </trkpt>
      <trkpt lat="46.20041" lon="4.76993">
        <ele>190</ele>
        <time>2021-12-27T22:42:59Z</time>
      </trkpt>
      <trkpt lat="46.19997" lon="4.76973">
        <ele>188</ele>
        <time>2021-12-27T22:43:07Z</time>
      </trkpt>
      <trkpt lat="46.19983" lon="4.7696">
        <ele>188</ele>
        <time>2021-12-27T22:43:10Z</time>
      </trkpt>
      <trkpt lat="46.19963" lon="4.76999">
        <ele>187</ele>
        <time>2021-12-27T22:43:16Z</time>
      </trkpt>
      <trkpt lat="46.1994" lon="4.7703">
        <ele>186</ele>
        <time>2021-12-27T22:43:21Z</time>
      </trkpt>
      <trkpt lat="46.1993" lon="4.77037">
        <ele>185</ele>
        <time>2021-12-27T22:43:23Z</time>
      </trkpt>
      <trkpt lat="46.199" lon="4.77076">
        <ele>183</ele>
        <time>2021-12-27T22:43:30Z</time>
      </trkpt>
      <trkpt lat="46.19889" lon="4.77098">
        <ele>182</ele>
        <time>2021-12-27T22:43:34Z</time>
      </trkpt>
      <trkpt lat="46.19861" lon="4.77172">
        <ele>180</ele>
        <time>2021-12-27T22:43:44Z</time>
      </trkpt>
      <trkpt lat="46.19853" lon="4.77201">
        <ele>179</ele>
        <time>2021-12-27T22:43:48Z</time>
      </trkpt>
      <trkpt lat="46.19843" lon="4.77226">
        <ele>177</ele>
        <time>2021-12-27T22:43:52Z</time>
      </trkpt>
      <trkpt lat="46.198" lon="4.77295">
        <ele>175</ele>
        <time>2021-12-27T22:44:03Z</time>
      </trkpt>
      <trkpt lat="46.19717" lon="4.7738">
        <ele>171</ele>
        <time>2021-12-27T22:44:21Z</time>
      </trkpt>
      <trkpt lat="46.19622" lon="4.77495">
        <ele>170</ele>
        <time>2021-12-27T22:44:43Z</time>
      </trkpt>
      <trkpt lat="46.19579" lon="4.77552">
        <ele>171</ele>
        <time>2021-12-27T22:44:54Z</time>
      </trkpt>
      <trkpt lat="46.19553" lon="4.77609">
        <ele>171</ele>
        <time>2021-12-27T22:45:02Z</time>
      </trkpt>
      <trkpt lat="46.19537" lon="4.77658">
        <ele>171</ele>
        <time>2021-12-27T22:45:09Z</time>
      </trkpt>
      <trkpt lat="46.19522" lon="4.77698">
        <ele>172</ele>
        <time>2021-12-27T22:45:14Z</time>
      </trkpt>
      <trkpt lat="46.19487" lon="4.77788">
        <ele>172</ele>
        <time>2021-12-27T22:45:27Z</time>
      </trkpt>
      <trkpt lat="46.19458" lon="4.77885">
        <ele>172</ele>
        <time>2021-12-27T22:45:40Z</time>
      </trkpt>
      <trkpt lat="46.19443" lon="4.77944">
        <ele>173</ele>
        <time>2021-12-27T22:45:48Z</time>
      </trkpt>
      <trkpt lat="46.19431" lon="4.77983">
        <ele>173</ele>
        <time>2021-12-27T22:45:53Z</time>
      </trkpt>
      <trkpt lat="46.19426" lon="4.77989">
        <ele>173</ele>
        <time>2021-12-27T22:45:54Z</time>
      </trkpt>
      <trkpt lat="46.19416" lon="4.77987">
        <ele>173</ele>
        <time>2021-12-27T22:45:56Z</time>
      </trkpt>
      <trkpt lat="46.19403" lon="4.77977">
        <ele>173</ele>
        <time>2021-12-27T22:45:59Z</time>
      </trkpt>
      <trkpt lat="46.19204" lon="4.77871">
        <ele>173</ele>
        <time>2021-12-27T22:46:36Z</time>
      </trkpt>
      <trkpt lat="46.19184" lon="4.77863">
        <ele>172</ele>
        <time>2021-12-27T22:46:40Z</time>
      </trkpt>
      <trkpt lat="46.19123" lon="4.77848">
        <ele>172</ele>
        <time>2021-12-27T22:46:51Z</time>
      </trkpt>
      <trkpt lat="46.18999" lon="4.77827">
        <ele>171</ele>
        <time>2021-12-27T22:47:13Z</time>
      </trkpt>
      <trkpt lat="46.1891" lon="4.77817">
        <ele>172</ele>
        <time>2021-12-27T22:47:29Z</time>
      </trkpt>
      <trkpt lat="46.18903" lon="4.77817">
        <ele>172</ele>
        <time>2021-12-27T22:47:30Z</time>
      </trkpt>
      <trkpt lat="46.18832" lon="4.77822">
        <ele>171</ele>
        <time>2021-12-27T22:47:43Z</time>
      </trkpt>
      <trkpt lat="46.18825" lon="4.77763">
        <ele>174</ele>
        <time>2021-12-27T22:47:50Z</time>
      </trkpt>
      <trkpt lat="46.18822" lon="4.77756">
        <ele>174</ele>
        <time>2021-12-27T22:47:51Z</time>
      </trkpt>
      <trkpt lat="46.18816" lon="4.7775">
        <ele>174</ele>
        <time>2021-12-27T22:47:53Z</time>
      </trkpt>
      <trkpt lat="46.18819" lon="4.77776">
        <ele>173</ele>
        <time>2021-12-27T22:47:56Z</time>
      </trkpt>
      <trkpt lat="46.18822" lon="4.77876">
        <ele>169</ele>
        <time>2021-12-27T22:48:08Z</time>
      </trkpt>
      <trkpt lat="46.18825" lon="4.78129">
        <ele>168</ele>
        <time>2021-12-27T22:48:39Z</time>
      </trkpt>
      <trkpt lat="46.18823" lon="4.78173">
        <ele>168</ele>
        <time>2021-12-27T22:48:45Z</time>
      </trkpt>
      <trkpt lat="46.18822" lon="4.78182">
        <ele>168</ele>
        <time>2021-12-27T22:48:46Z</time>
      </trkpt>
      <trkpt lat="46.18816" lon="4.78196">
        <ele>169</ele>
        <time>2021-12-27T22:48:48Z</time>
      </trkpt>
      <trkpt lat="46.18807" lon="4.78208">
        <ele>169</ele>
        <time>2021-12-27T22:48:50Z</time>
      </trkpt>
      <trkpt lat="46.18793" lon="4.78217">
        <ele>169</ele>
        <time>2021-12-27T22:48:53Z</time>
      </trkpt>
      <trkpt lat="46.18773" lon="4.78219">
        <ele>170</ele>
        <time>2021-12-27T22:48:56Z</time>
      </trkpt>
      <trkpt lat="46.18756" lon="4.78212">
        <ele>170</ele>
        <time>2021-12-27T22:49:00Z</time>
      </trkpt>
      <trkpt lat="46.18704" lon="4.78186">
        <ele>170</ele>
        <time>2021-12-27T22:49:09Z</time>
      </trkpt>
      <trkpt lat="46.18692" lon="4.78186">
        <ele>170</ele>
        <time>2021-12-27T22:49:12Z</time>
      </trkpt>
      <trkpt lat="46.18656" lon="4.78186">
        <ele>170</ele>
        <time>2021-12-27T22:49:18Z</time>
      </trkpt>
      <trkpt lat="46.1861" lon="4.78199">
        <ele>172</ele>
        <time>2021-12-27T22:49:26Z</time>
      </trkpt>
      <trkpt lat="46.18578" lon="4.78213">
        <ele>172</ele>
        <time>2021-12-27T22:49:32Z</time>
      </trkpt>
      <trkpt lat="46.18554" lon="4.78235">
        <ele>171</ele>
        <time>2021-12-27T22:49:37Z</time>
      </trkpt>
      <trkpt lat="46.18529" lon="4.78271">
        <ele>172</ele>
        <time>2021-12-27T22:49:44Z</time>
      </trkpt>
      <trkpt lat="46.18324" lon="4.78629">
        <ele>171</ele>
        <time>2021-12-27T22:50:41Z</time>
      </trkpt>
      <trkpt lat="46.18286" lon="4.78693">
        <ele>171</ele>
        <time>2021-12-27T22:50:51Z</time>
      </trkpt>
      <trkpt lat="46.18108" lon="4.78967">
        <ele>171</ele>
        <time>2021-12-27T22:51:37Z</time>
      </trkpt>
      <trkpt lat="46.17998" lon="4.7913">
        <ele>171</ele>
        <time>2021-12-27T22:52:06Z</time>
      </trkpt>
      <trkpt lat="46.17972" lon="4.79176">
        <ele>171</ele>
        <time>2021-12-27T22:52:13Z</time>
      </trkpt>
      <trkpt lat="46.17925" lon="4.79288">
        <ele>173</ele>
        <time>2021-12-27T22:52:29Z</time>
      </trkpt>
      <trkpt lat="46.17876" lon="4.79416">
        <ele>174</ele>
        <time>2021-12-27T22:52:47Z</time>
      </trkpt>
      <trkpt lat="46.17846" lon="4.79489">
        <ele>176</ele>
        <time>2021-12-27T22:52:57Z</time>
      </trkpt>
      <trkpt lat="46.17828" lon="4.79525">
        <ele>178</ele>
        <time>2021-12-27T22:53:03Z</time>
      </trkpt>
      <trkpt lat="46.17778" lon="4.7961">
        <ele>180</ele>
        <time>2021-12-27T22:53:17Z</time>
      </trkpt>
      <trkpt lat="46.1775" lon="4.79655">
        <ele>181</ele>
        <time>2021-12-27T22:53:24Z</time>
      </trkpt>
      <trkpt lat="46.17737" lon="4.79666">
        <ele>181</ele>
        <time>2021-12-27T22:53:27Z</time>
      </trkpt>
      <trkpt lat="46.17526" lon="4.79813">
        <ele>178</ele>
        <time>2021-12-27T22:54:08Z</time>
      </trkpt>
      <trkpt lat="46.17513" lon="4.79826">
        <ele>177</ele>
        <time>2021-12-27T22:54:11Z</time>
      </trkpt>
      <trkpt lat="46.17505" lon="4.79838">
        <ele>177</ele>
        <time>2021-12-27T22:54:13Z</time>
      </trkpt>
      <trkpt lat="46.175" lon="4.79854">
        <ele>177</ele>
        <time>2021-12-27T22:54:16Z</time>
      </trkpt>
      <trkpt lat="46.17497" lon="4.79912">
        <ele>178</ele>
        <time>2021-12-27T22:54:23Z</time>
      </trkpt>
      <trkpt lat="46.17495" lon="4.79927">
        <ele>178</ele>
        <time>2021-12-27T22:54:25Z</time>
      </trkpt>
      <trkpt lat="46.17453" lon="4.80011">
        <ele>179</ele>
        <time>2021-12-27T22:54:37Z</time>
      </trkpt>
      <trkpt lat="46.17426" lon="4.80052">
        <ele>179</ele>
        <time>2021-12-27T22:54:44Z</time>
      </trkpt>
      <trkpt lat="46.17416" lon="4.80063">
        <ele>179</ele>
        <time>2021-12-27T22:54:47Z</time>
      </trkpt>
      <trkpt lat="46.17405" lon="4.80072">
        <ele>179</ele>
        <time>2021-12-27T22:54:49Z</time>
      </trkpt>
      <trkpt lat="46.17357" lon="4.80081">
        <ele>178</ele>
        <time>2021-12-27T22:54:57Z</time>
      </trkpt>
      <trkpt lat="46.17219" lon="4.80116">
        <ele>175</ele>
        <time>2021-12-27T22:55:22Z</time>
      </trkpt>
      <trkpt lat="46.17227" lon="4.80174">
        <ele>176</ele>
        <time>2021-12-27T22:55:30Z</time>
      </trkpt>
      <trkpt lat="46.17214" lon="4.80181">
        <ele>175</ele>
        <time>2021-12-27T22:55:32Z</time>
      </trkpt>
      <trkpt lat="46.17145" lon="4.80208">
        <ele>175</ele>
        <time>2021-12-27T22:55:45Z</time>
      </trkpt>
      <trkpt lat="46.17155" lon="4.80244">
        <ele>175</ele>
        <time>2021-12-27T22:55:50Z</time>
      </trkpt>
      <trkpt lat="46.17168" lon="4.80308">
        <ele>174</ele>
        <time>2021-12-27T22:55:58Z</time>
      </trkpt>
      <trkpt lat="46.17206" lon="4.80436">
        <ele>174</ele>
        <time>2021-12-27T22:56:15Z</time>
      </trkpt>
      <trkpt lat="46.17169" lon="4.80466">
        <ele>174</ele>
        <time>2021-12-27T22:56:22Z</time>
      </trkpt>
      <trkpt lat="46.17148" lon="4.80484">
        <ele>174</ele>
        <time>2021-12-27T22:56:27Z</time>
      </trkpt>
      <trkpt lat="46.17127" lon="4.80515">
        <ele>174</ele>
        <time>2021-12-27T22:56:32Z</time>
      </trkpt>
      <trkpt lat="46.16949" lon="4.80833">
        <ele>171</ele>
        <time>2021-12-27T22:57:23Z</time>
      </trkpt>
      <trkpt lat="46.16934" lon="4.80868">
        <ele>171</ele>
        <time>2021-12-27T22:57:28Z</time>
      </trkpt>
      <trkpt lat="46.1692" lon="4.80906">
        <ele>170</ele>
        <time>2021-12-27T22:57:33Z</time>
      </trkpt>
      <trkpt lat="46.16897" lon="4.80982">
        <ele>170</ele>
        <time>2021-12-27T22:57:43Z</time>
      </trkpt>
      <trkpt lat="46.16874" lon="4.81087">
        <ele>171</ele>
        <time>2021-12-27T22:57:57Z</time>
      </trkpt>
      <trkpt lat="46.16862" lon="4.81126">
        <ele>171</ele>
        <time>2021-12-27T22:58:02Z</time>
      </trkpt>
      <trkpt lat="46.16851" lon="4.8115">
        <ele>172</ele>
        <time>2021-12-27T22:58:06Z</time>
      </trkpt>
      <trkpt lat="46.16843" lon="4.81164">
        <ele>172</ele>
        <time>2021-12-27T22:58:08Z</time>
      </trkpt>
      <trkpt lat="46.16813" lon="4.81204">
        <ele>171</ele>
        <time>2021-12-27T22:58:15Z</time>
      </trkpt>
      <trkpt lat="46.16738" lon="4.81296">
        <ele>170</ele>
        <time>2021-12-27T22:58:33Z</time>
      </trkpt>
      <trkpt lat="46.16709" lon="4.81327">
        <ele>170</ele>
        <time>2021-12-27T22:58:39Z</time>
      </trkpt>
      <trkpt lat="46.16615" lon="4.81389">
        <ele>172</ele>
        <time>2021-12-27T22:58:57Z</time>
      </trkpt>
      <trkpt lat="46.16586" lon="4.81413">
        <ele>172</ele>
        <time>2021-12-27T22:59:03Z</time>
      </trkpt>
      <trkpt lat="46.16409" lon="4.81583">
        <ele>174</ele>
        <time>2021-12-27T22:59:41Z</time>
      </trkpt>
      <trkpt lat="46.16383" lon="4.81598">
        <ele>175</ele>
        <time>2021-12-27T22:59:46Z</time>
      </trkpt>
      <trkpt lat="46.16304" lon="4.81568">
        <ele>174</ele>
        <time>2021-12-27T23:00:01Z</time>
      </trkpt>
      <trkpt lat="46.16191" lon="4.81549">
        <ele>172</ele>
        <time>2021-12-27T23:00:21Z</time>
      </trkpt>
      <trkpt lat="46.16158" lon="4.8155">
        <ele>172</ele>
        <time>2021-12-27T23:00:27Z</time>
      </trkpt>
      <trkpt lat="46.16118" lon="4.81563">
        <ele>172</ele>
        <time>2021-12-27T23:00:34Z</time>
      </trkpt>
      <trkpt lat="46.16012" lon="4.81616">
        <ele>174</ele>
        <time>2021-12-27T23:00:54Z</time>
      </trkpt>
      <trkpt lat="46.15984" lon="4.81628">
        <ele>175</ele>
        <time>2021-12-27T23:00:59Z</time>
      </trkpt>
      <trkpt lat="46.15923" lon="4.81637">
        <ele>177</ele>
        <time>2021-12-27T23:01:10Z</time>
      </trkpt>
      <trkpt lat="46.15886" lon="4.81648">
        <ele>178</ele>
        <time>2021-12-27T23:01:17Z</time>
      </trkpt>
      <trkpt lat="46.15824" lon="4.81676">
        <ele>181</ele>
        <time>2021-12-27T23:01:28Z</time>
      </trkpt>
      <trkpt lat="46.1572" lon="4.81685">
        <ele>181</ele>
        <time>2021-12-27T23:01:47Z</time>
      </trkpt>
      <trkpt lat="46.15673" lon="4.81682">
        <ele>181</ele>
        <time>2021-12-27T23:01:55Z</time>
      </trkpt>
      <trkpt lat="46.15608" lon="4.81664">
        <ele>180</ele>
        <time>2021-12-27T23:02:07Z</time>
      </trkpt>
      <trkpt lat="46.15572" lon="4.81648">
        <ele>179</ele>
        <time>2021-12-27T23:02:14Z</time>
      </trkpt>
      <trkpt lat="46.15508" lon="4.81613">
        <ele>179</ele>
        <time>2021-12-27T23:02:26Z</time>
      </trkpt>
      <trkpt lat="46.15422" lon="4.81578">
        <ele>185</ele>
        <time>2021-12-27T23:02:42Z</time>
      </trkpt>
      <trkpt lat="46.15393" lon="4.81563">
        <ele>183</ele>
        <time>2021-12-27T23:02:47Z</time>
      </trkpt>
      <trkpt lat="46.15203" lon="4.81403">
        <ele>175</ele>
        <time>2021-12-27T23:03:26Z</time>
      </trkpt>
      <trkpt lat="46.1514" lon="4.81344">
        <ele>172</ele>
        <time>2021-12-27T23:03:40Z</time>
      </trkpt>
      <trkpt lat="46.15042" lon="4.81225">
        <ele>171</ele>
        <time>2021-12-27T23:04:03Z</time>
      </trkpt>
      <trkpt lat="46.15009" lon="4.81189">
        <ele>173</ele>
        <time>2021-12-27T23:04:10Z</time>
      </trkpt>
      <trkpt lat="46.14948" lon="4.81129">
        <ele>172</ele>
        <time>2021-12-27T23:04:23Z</time>
      </trkpt>
      <trkpt lat="46.14901" lon="4.81088">
        <ele>172</ele>
        <time>2021-12-27T23:04:33Z</time>
      </trkpt>
      <trkpt lat="46.14882" lon="4.81074">
        <ele>172</ele>
        <time>2021-12-27T23:04:37Z</time>
      </trkpt>
      <trkpt lat="46.14793" lon="4.81023">
        <ele>171</ele>
        <time>2021-12-27T23:04:54Z</time>
      </trkpt>
      <trkpt lat="46.14705" lon="4.80969">
        <ele>171</ele>
        <time>2021-12-27T23:05:11Z</time>
      </trkpt>
      <trkpt lat="46.1469" lon="4.80961">
        <ele>171</ele>
        <time>2021-12-27T23:05:14Z</time>
      </trkpt>
      <trkpt lat="46.14607" lon="4.80938">
        <ele>173</ele>
        <time>2021-12-27T23:05:29Z</time>
      </trkpt>
      <trkpt lat="46.1436" lon="4.80808">
        <ele>178</ele>
        <time>2021-12-27T23:06:15Z</time>
      </trkpt>
      <trkpt lat="46.14251" lon="4.80759">
        <ele>183</ele>
        <time>2021-12-27T23:06:36Z</time>
      </trkpt>
      <trkpt lat="46.14037" lon="4.80675">
        <ele>187</ele>
        <time>2021-12-27T23:07:15Z</time>
      </trkpt>
      <trkpt lat="46.1395" lon="4.80627">
        <ele>189</ele>
        <time>2021-12-27T23:07:32Z</time>
      </trkpt>
      <trkpt lat="46.13891" lon="4.80586">
        <ele>190</ele>
        <time>2021-12-27T23:07:43Z</time>
      </trkpt>
      <trkpt lat="46.13842" lon="4.80531">
        <ele>186</ele>
        <time>2021-12-27T23:07:54Z</time>
      </trkpt>
      <trkpt lat="46.13735" lon="4.804">
        <ele>183</ele>
        <time>2021-12-27T23:08:19Z</time>
      </trkpt>
      <trkpt lat="46.13595" lon="4.8024">
        <ele>178</ele>
        <time>2021-12-27T23:08:51Z</time>
      </trkpt>
      <trkpt lat="46.1354" lon="4.80162">
        <ele>178</ele>
        <time>2021-12-27T23:09:05Z</time>
      </trkpt>
      <trkpt lat="46.13395" lon="4.79936">
        <ele>178</ele>
        <time>2021-12-27T23:09:43Z</time>
      </trkpt>
      <trkpt lat="46.13179" lon="4.79609">
        <ele>174</ele>
        <time>2021-12-27T23:10:39Z</time>
      </trkpt>
      <trkpt lat="46.13105" lon="4.79522">
        <ele>173</ele>
        <time>2021-12-27T23:10:56Z</time>
      </trkpt>
      <trkpt lat="46.13066" lon="4.79485">
        <ele>175</ele>
        <time>2021-12-27T23:11:04Z</time>
      </trkpt>
      <trkpt lat="46.13059" lon="4.79478">
        <ele>176</ele>
        <time>2021-12-27T23:11:05Z</time>
      </trkpt>
      <trkpt lat="46.12904" lon="4.79337">
        <ele>184</ele>
        <time>2021-12-27T23:11:38Z</time>
      </trkpt>
      <trkpt lat="46.12792" lon="4.79246">
        <ele>184</ele>
        <time>2021-12-27T23:12:01Z</time>
      </trkpt>
      <trkpt lat="46.12632" lon="4.79105">
        <ele>177</ele>
        <time>2021-12-27T23:12:34Z</time>
      </trkpt>
      <trkpt lat="46.12561" lon="4.79046">
        <ele>177</ele>
        <time>2021-12-27T23:12:49Z</time>
      </trkpt>
      <trkpt lat="46.12376" lon="4.78901">
        <ele>180</ele>
        <time>2021-12-27T23:13:26Z</time>
      </trkpt>
      <trkpt lat="46.12326" lon="4.7886">
        <ele>178</ele>
        <time>2021-12-27T23:13:36Z</time>
      </trkpt>
      <trkpt lat="46.12292" lon="4.78846">
        <ele>178</ele>
        <time>2021-12-27T23:13:43Z</time>
      </trkpt>
      <trkpt lat="46.1223" lon="4.78827">
        <ele>179</ele>
        <time>2021-12-27T23:13:54Z</time>
      </trkpt>
      <trkpt lat="46.12197" lon="4.7881">
        <ele>180</ele>
        <time>2021-12-27T23:14:00Z</time>
      </trkpt>
      <trkpt lat="46.12138" lon="4.78772">
        <ele>181</ele>
        <time>2021-12-27T23:14:12Z</time>
      </trkpt>
      <trkpt lat="46.12041" lon="4.78727">
        <ele>183</ele>
        <time>2021-12-27T23:14:30Z</time>
      </trkpt>
      <trkpt lat="46.12016" lon="4.78712">
        <ele>184</ele>
        <time>2021-12-27T23:14:35Z</time>
      </trkpt>
      <trkpt lat="46.11883" lon="4.78621">
        <ele>185</ele>
        <time>2021-12-27T23:15:01Z</time>
      </trkpt>
      <trkpt lat="46.11849" lon="4.7859">
        <ele>185</ele>
        <time>2021-12-27T23:15:08Z</time>
      </trkpt>
      <trkpt lat="46.11837" lon="4.78574">
        <ele>185</ele>
        <time>2021-12-27T23:15:11Z</time>
      </trkpt>
      <trkpt lat="46.11817" lon="4.78553">
        <ele>185</ele>
        <time>2021-12-27T23:15:15Z</time>
      </trkpt>
      <trkpt lat="46.11782" lon="4.78519">
        <ele>185</ele>
        <time>2021-12-27T23:15:23Z</time>
      </trkpt>
      <trkpt lat="46.1176" lon="4.78504">
        <ele>185</ele>
        <time>2021-12-27T23:15:27Z</time>
      </trkpt>
      <trkpt lat="46.11696" lon="4.78467">
        <ele>183</ele>
        <time>2021-12-27T23:15:40Z</time>
      </trkpt>
      <trkpt lat="46.11678" lon="4.78459">
        <ele>183</ele>
        <time>2021-12-27T23:15:43Z</time>
      </trkpt>
      <trkpt lat="46.11601" lon="4.78414">
        <ele>182</ele>
        <time>2021-12-27T23:15:58Z</time>
      </trkpt>
      <trkpt lat="46.11552" lon="4.78388">
        <ele>181</ele>
        <time>2021-12-27T23:16:07Z</time>
      </trkpt>
      <trkpt lat="46.11423" lon="4.7833">
        <ele>182</ele>
        <time>2021-12-27T23:16:31Z</time>
      </trkpt>
      <trkpt lat="46.11316" lon="4.78248">
        <ele>182</ele>
        <time>2021-12-27T23:16:53Z</time>
      </trkpt>
      <trkpt lat="46.1118" lon="4.78123">
        <ele>182</ele>
        <time>2021-12-27T23:17:21Z</time>
      </trkpt>
      <trkpt lat="46.1115" lon="4.78098">
        <ele>183</ele>
        <time>2021-12-27T23:17:27Z</time>
      </trkpt>
      <trkpt lat="46.11072" lon="4.78051">
        <ele>183</ele>
        <time>2021-12-27T23:17:42Z</time>
      </trkpt>
      <trkpt lat="46.11046" lon="4.7804">
        <ele>183</ele>
        <time>2021-12-27T23:17:47Z</time>
      </trkpt>
      <trkpt lat="46.10863" lon="4.77976">
        <ele>183</ele>
        <time>2021-12-27T23:18:21Z</time>
      </trkpt>
      <trkpt lat="46.10791" lon="4.77943">
        <ele>182</ele>
        <time>2021-12-27T23:18:34Z</time>
      </trkpt>
      <trkpt lat="46.10776" lon="4.77932">
        <ele>181</ele>
        <time>2021-12-27T23:18:37Z</time>
      </trkpt>
      <trkpt lat="46.10751" lon="4.77909">
        <ele>179</ele>
        <time>2021-12-27T23:18:42Z</time>
      </trkpt>
      <trkpt lat="46.10724" lon="4.77879">
        <ele>177</ele>
        <time>2021-12-27T23:18:49Z</time>
      </trkpt>
      <trkpt lat="46.10614" lon="4.77727">
        <ele>179</ele>
        <time>2021-12-27T23:19:16Z</time>
      </trkpt>
      <trkpt lat="46.10603" lon="4.77714">
        <ele>179</ele>
        <time>2021-12-27T23:19:18Z</time>
      </trkpt>
      <trkpt lat="46.10585" lon="4.77696">
        <ele>179</ele>
        <time>2021-12-27T23:19:22Z</time>
      </trkpt>
      <trkpt lat="46.10561" lon="4.7768">
        <ele>179</ele>
        <time>2021-12-27T23:19:27Z</time>
      </trkpt>
      <trkpt lat="46.10534" lon="4.77666">
        <ele>179</ele>
        <time>2021-12-27T23:19:32Z</time>
      </trkpt>
      <trkpt lat="46.10452" lon="4.77635">
        <ele>180</ele>
        <time>2021-12-27T23:19:47Z</time>
      </trkpt>
      <trkpt lat="46.10418" lon="4.77613">
        <ele>180</ele>
        <time>2021-12-27T23:19:54Z</time>
      </trkpt>
      <trkpt lat="46.10354" lon="4.7756">
        <ele>182</ele>
        <time>2021-12-27T23:20:07Z</time>
      </trkpt>
      <trkpt lat="46.10325" lon="4.77539">
        <ele>182</ele>
        <time>2021-12-27T23:20:12Z</time>
      </trkpt>
      <trkpt lat="46.10304" lon="4.77528">
        <ele>183</ele>
        <time>2021-12-27T23:20:16Z</time>
      </trkpt>
      <trkpt lat="46.1026" lon="4.77516">
        <ele>184</ele>
        <time>2021-12-27T23:20:24Z</time>
      </trkpt>
      <trkpt lat="46.10141" lon="4.77511">
        <ele>188</ele>
        <time>2021-12-27T23:20:46Z</time>
      </trkpt>
      <trkpt lat="46.10117" lon="4.77505">
        <ele>188</ele>
        <time>2021-12-27T23:20:50Z</time>
      </trkpt>
      <trkpt lat="46.10056" lon="4.7748">
        <ele>189</ele>
        <time>2021-12-27T23:21:01Z</time>
      </trkpt>
      <trkpt lat="46.10032" lon="4.77466">
        <ele>190</ele>
        <time>2021-12-27T23:21:06Z</time>
      </trkpt>
      <trkpt lat="46.10019" lon="4.77462">
        <ele>190</ele>
        <time>2021-12-27T23:21:08Z</time>
      </trkpt>
      <trkpt lat="46.10019" lon="4.77451">
        <ele>190</ele>
        <time>2021-12-27T23:21:10Z</time>
      </trkpt>
      <trkpt lat="46.10017" lon="4.77446">
        <ele>189</ele>
        <time>2021-12-27T23:21:10Z</time>
      </trkpt>
      <trkpt lat="46.1001" lon="4.77441">
        <ele>189</ele>
        <time>2021-12-27T23:21:12Z</time>
      </trkpt>
      <trkpt lat="46.10006" lon="4.77442">
        <ele>190</ele>
        <time>2021-12-27T23:21:12Z</time>
      </trkpt>
      <trkpt lat="46.1" lon="4.77446">
        <ele>190</ele>
        <time>2021-12-27T23:21:14Z</time>
      </trkpt>
      <trkpt lat="46.09997" lon="4.77456">
        <ele>190</ele>
        <time>2021-12-27T23:21:15Z</time>
      </trkpt>
      <trkpt lat="46.09971" lon="4.77435">
        <ele>191</ele>
        <time>2021-12-27T23:21:20Z</time>
      </trkpt>
      <trkpt lat="46.09703" lon="4.77286">
        <ele>198</ele>
        <time>2021-12-27T23:22:11Z</time>
      </trkpt>
      <trkpt lat="46.09689" lon="4.77282">
        <ele>198</ele>
        <time>2021-12-27T23:22:14Z</time>
      </trkpt>
      <trkpt lat="46.09677" lon="4.77281">
        <ele>199</ele>
        <time>2021-12-27T23:22:16Z</time>
      </trkpt>
      <trkpt lat="46.09676" lon="4.77267">
        <ele>198</ele>
        <time>2021-12-27T23:22:18Z</time>
      </trkpt>
      <trkpt lat="46.0967" lon="4.77256">
        <ele>198</ele>
        <time>2021-12-27T23:22:19Z</time>
      </trkpt>
      <trkpt lat="46.09665" lon="4.77253">
        <ele>198</ele>
        <time>2021-12-27T23:22:20Z</time>
      </trkpt>
      <trkpt lat="46.09656" lon="4.77255">
        <ele>198</ele>
        <time>2021-12-27T23:22:22Z</time>
      </trkpt>
      <trkpt lat="46.09649" lon="4.77263">
        <ele>199</ele>
        <time>2021-12-27T23:22:24Z</time>
      </trkpt>
      <trkpt lat="46.09626" lon="4.77244">
        <ele>199</ele>
        <time>2021-12-27T23:22:28Z</time>
      </trkpt>
      <trkpt lat="46.09401" lon="4.77098">
        <ele>195</ele>
        <time>2021-12-27T23:23:12Z</time>
      </trkpt>
      <trkpt lat="46.0935" lon="4.77063">
        <ele>195</ele>
        <time>2021-12-27T23:23:22Z</time>
      </trkpt>
      <trkpt lat="46.09234" lon="4.7698">
        <ele>205</ele>
        <time>2021-12-27T23:23:45Z</time>
      </trkpt>
      <trkpt lat="46.09091" lon="4.76884">
        <ele>212</ele>
        <time>2021-12-27T23:24:13Z</time>
      </trkpt>
      <trkpt lat="46.09049" lon="4.76858">
        <ele>216</ele>
        <time>2021-12-27T23:24:22Z</time>
      </trkpt>
      <trkpt lat="46.09018" lon="4.76846">
        <ele>218</ele>
        <time>2021-12-27T23:24:27Z</time>
      </trkpt>
      <trkpt lat="46.08955" lon="4.76827">
        <ele>220</ele>
        <time>2021-12-27T23:24:39Z</time>
      </trkpt>
      <trkpt lat="46.08848" lon="4.76804">
        <ele>222</ele>
        <time>2021-12-27T23:24:58Z</time>
      </trkpt>
      <trkpt lat="46.08817" lon="4.76801">
        <ele>223</ele>
        <time>2021-12-27T23:25:03Z</time>
      </trkpt>
      <trkpt lat="46.0875" lon="4.76808">
        <ele>223</ele>
        <time>2021-12-27T23:25:15Z</time>
      </trkpt>
      <trkpt lat="46.08737" lon="4.76807">
        <ele>223</ele>
        <time>2021-12-27T23:25:18Z</time>
      </trkpt>
      <trkpt lat="46.08732" lon="4.76804">
        <ele>224</ele>
        <time>2021-12-27T23:25:19Z</time>
      </trkpt>
      <trkpt lat="46.08729" lon="4.7679">
        <ele>224</ele>
        <time>2021-12-27T23:25:21Z</time>
      </trkpt>
      <trkpt lat="46.0872" lon="4.7678">
        <ele>224</ele>
        <time>2021-12-27T23:25:23Z</time>
      </trkpt>
      <trkpt lat="46.08711" lon="4.76779">
        <ele>224</ele>
        <time>2021-12-27T23:25:24Z</time>
      </trkpt>
      <trkpt lat="46.08707" lon="4.7678">
        <ele>225</ele>
        <time>2021-12-27T23:25:25Z</time>
      </trkpt>
      <trkpt lat="46.087" lon="4.76788">
        <ele>225</ele>
        <time>2021-12-27T23:25:26Z</time>
      </trkpt>
      <trkpt lat="46.08696" lon="4.76802">
        <ele>225</ele>
        <time>2021-12-27T23:25:28Z</time>
      </trkpt>
      <trkpt lat="46.08696" lon="4.7681">
        <ele>225</ele>
        <time>2021-12-27T23:25:29Z</time>
      </trkpt>
      <trkpt lat="46.08671" lon="4.76821">
        <ele>226</ele>
        <time>2021-12-27T23:25:34Z</time>
      </trkpt>
      <trkpt lat="46.08613" lon="4.76832">
        <ele>227</ele>
        <time>2021-12-27T23:25:44Z</time>
      </trkpt>
      <trkpt lat="46.08436" lon="4.76861">
        <ele>223</ele>
        <time>2021-12-27T23:26:16Z</time>
      </trkpt>
      <trkpt lat="46.08183" lon="4.76894">
        <ele>215</ele>
        <time>2021-12-27T23:27:01Z</time>
      </trkpt>
      <trkpt lat="46.06978" lon="4.7707">
        <ele>174</ele>
        <time>2021-12-27T23:30:37Z</time>
      </trkpt>
      <trkpt lat="46.06968" lon="4.77071">
        <ele>174</ele>
        <time>2021-12-27T23:30:39Z</time>
      </trkpt>
      <trkpt lat="46.06877" lon="4.77075">
        <ele>173</ele>
        <time>2021-12-27T23:30:55Z</time>
      </trkpt>
      <trkpt lat="46.06852" lon="4.77081">
        <ele>173</ele>
        <time>2021-12-27T23:30:59Z</time>
      </trkpt>
      <trkpt lat="46.06829" lon="4.77093">
        <ele>173</ele>
        <time>2021-12-27T23:31:04Z</time>
      </trkpt>
      <trkpt lat="46.06802" lon="4.77113">
        <ele>172</ele>
        <time>2021-12-27T23:31:09Z</time>
      </trkpt>
      <trkpt lat="46.06757" lon="4.7716">
        <ele>172</ele>
        <time>2021-12-27T23:31:19Z</time>
      </trkpt>
      <trkpt lat="46.06733" lon="4.7718">
        <ele>172</ele>
        <time>2021-12-27T23:31:24Z</time>
      </trkpt>
      <trkpt lat="46.06714" lon="4.77191">
        <ele>172</ele>
        <time>2021-12-27T23:31:27Z</time>
      </trkpt>
      <trkpt lat="46.06681" lon="4.77198">
        <ele>172</ele>
        <time>2021-12-27T23:31:33Z</time>
      </trkpt>
      <trkpt lat="46.06598" lon="4.77208">
        <ele>172</ele>
        <time>2021-12-27T23:31:48Z</time>
      </trkpt>
      <trkpt lat="46.06569" lon="4.77207">
        <ele>172</ele>
        <time>2021-12-27T23:31:53Z</time>
      </trkpt>
      <trkpt lat="46.06536" lon="4.772">
        <ele>172</ele>
        <time>2021-12-27T23:31:59Z</time>
      </trkpt>
      <trkpt lat="46.06409" lon="4.77161">
        <ele>171</ele>
        <time>2021-12-27T23:32:22Z</time>
      </trkpt>
      <trkpt lat="46.06385" lon="4.7715">
        <ele>171</ele>
        <time>2021-12-27T23:32:27Z</time>
      </trkpt>
      <trkpt lat="46.06359" lon="4.77136">
        <ele>171</ele>
        <time>2021-12-27T23:32:32Z</time>
      </trkpt>
      <trkpt lat="46.06298" lon="4.7709">
        <ele>171</ele>
        <time>2021-12-27T23:32:44Z</time>
      </trkpt>
      <trkpt lat="46.06266" lon="4.77074">
        <ele>171</ele>
        <time>2021-12-27T23:32:50Z</time>
      </trkpt>
      <trkpt lat="46.0621" lon="4.77055">
        <ele>171</ele>
        <time>2021-12-27T23:33:00Z</time>
      </trkpt>
      <trkpt lat="46.06121" lon="4.77047">
        <ele>171</ele>
        <time>2021-12-27T23:33:16Z</time>
      </trkpt>
      <trkpt lat="46.06077" lon="4.77033">
        <ele>171</ele>
        <time>2021-12-27T23:33:24Z</time>
      </trkpt>
      <trkpt lat="46.0585" lon="4.76935">
        <ele>171</ele>
        <time>2021-12-27T23:34:06Z</time>
      </trkpt>
      <trkpt lat="46.05822" lon="4.76928">
        <ele>171</ele>
        <time>2021-12-27T23:34:11Z</time>
      </trkpt>
      <trkpt lat="46.05741" lon="4.76919">
        <ele>172</ele>
        <time>2021-12-27T23:34:26Z</time>
      </trkpt>
      <trkpt lat="46.05686" lon="4.7691">
        <ele>173</ele>
        <time>2021-12-27T23:34:36Z</time>
      </trkpt>
      <trkpt lat="46.05621" lon="4.76885">
        <ele>176</ele>
        <time>2021-12-27T23:34:48Z</time>
      </trkpt>
      <trkpt lat="46.05537" lon="4.76848">
        <ele>180</ele>
        <time>2021-12-27T23:35:03Z</time>
      </trkpt>
      <trkpt lat="46.05448" lon="4.76798">
        <ele>184</ele>
        <time>2021-12-27T23:35:20Z</time>
      </trkpt>
      <trkpt lat="46.05372" lon="4.76746">
        <ele>188</ele>
        <time>2021-12-27T23:35:35Z</time>
      </trkpt>
      <trkpt lat="46.05323" lon="4.76718">
        <ele>190</ele>
        <time>2021-12-27T23:35:45Z</time>
      </trkpt>
      <trkpt lat="46.05233" lon="4.76685">
        <ele>189</ele>
        <time>2021-12-27T23:36:01Z</time>
      </trkpt>
      <trkpt lat="46.05201" lon="4.76669">
        <ele>189</ele>
        <time>2021-12-27T23:36:07Z</time>
      </trkpt>
      <trkpt lat="46.05159" lon="4.76643">
        <ele>189</ele>
        <time>2021-12-27T23:36:15Z</time>
      </trkpt>
      <trkpt lat="46.05123" lon="4.76625">
        <ele>190</ele>
        <time>2021-12-27T23:36:22Z</time>
      </trkpt>
      <trkpt lat="46.05073" lon="4.76609">
        <ele>191</ele>
        <time>2021-12-27T23:36:31Z</time>
      </trkpt>
      <trkpt lat="46.05024" lon="4.76571">
        <ele>191</ele>
        <time>2021-12-27T23:36:41Z</time>
      </trkpt>
      <trkpt lat="46.05002" lon="4.76565">
        <ele>192</ele>
        <time>2021-12-27T23:36:45Z</time>
      </trkpt>
      <trkpt lat="46.04996" lon="4.7657">
        <ele>192</ele>
        <time>2021-12-27T23:36:46Z</time>
      </trkpt>
      <trkpt lat="46.04975" lon="4.76574">
        <ele>192</ele>
        <time>2021-12-27T23:36:50Z</time>
      </trkpt>
      <trkpt lat="46.04873" lon="4.76587">
        <ele>192</ele>
        <time>2021-12-27T23:37:08Z</time>
      </trkpt>
      <trkpt lat="46.04843" lon="4.76588">
        <ele>192</ele>
        <time>2021-12-27T23:37:14Z</time>
      </trkpt>
      <trkpt lat="46.04798" lon="4.76578">
        <ele>190</ele>
        <time>2021-12-27T23:37:22Z</time>
      </trkpt>
      <trkpt lat="46.04764" lon="4.76563">
        <ele>189</ele>
        <time>2021-12-27T23:37:28Z</time>
      </trkpt>
      <trkpt lat="46.04724" lon="4.76538">
        <ele>188</ele>
        <time>2021-12-27T23:37:36Z</time>
      </trkpt>
      <trkpt lat="46.04689" lon="4.76506">
        <ele>187</ele>
        <time>2021-12-27T23:37:43Z</time>
      </trkpt>
      <trkpt lat="46.04601" lon="4.76399">
        <ele>185</ele>
        <time>2021-12-27T23:38:04Z</time>
      </trkpt>
      <trkpt lat="46.04502" lon="4.76258">
        <ele>183</ele>
        <time>2021-12-27T23:38:29Z</time>
      </trkpt>
      <trkpt lat="46.04487" lon="4.76232">
        <ele>182</ele>
        <time>2021-12-27T23:38:33Z</time>
      </trkpt>
      <trkpt lat="46.04407" lon="4.7612">
        <ele>181</ele>
        <time>2021-12-27T23:38:53Z</time>
      </trkpt>
      <trkpt lat="46.04386" lon="4.76093">
        <ele>182</ele>
        <time>2021-12-27T23:38:58Z</time>
      </trkpt>
      <trkpt lat="46.0435" lon="4.76061">
        <ele>182</ele>
        <time>2021-12-27T23:39:05Z</time>
      </trkpt>
      <trkpt lat="46.04283" lon="4.75995">
        <ele>183</ele>
        <time>2021-12-27T23:39:20Z</time>
      </trkpt>
      <trkpt lat="46.04235" lon="4.75948">
        <ele>184</ele>
        <time>2021-12-27T23:39:30Z</time>
      </trkpt>
      <trkpt lat="46.04205" lon="4.75909">
        <ele>186</ele>
        <time>2021-12-27T23:39:37Z</time>
      </trkpt>
      <trkpt lat="46.04184" lon="4.75875">
        <ele>186</ele>
        <time>2021-12-27T23:39:43Z</time>
      </trkpt>
      <trkpt lat="46.04162" lon="4.75833">
        <ele>186</ele>
        <time>2021-12-27T23:39:49Z</time>
      </trkpt>
      <trkpt lat="46.04137" lon="4.75796">
        <ele>186</ele>
        <time>2021-12-27T23:39:56Z</time>
      </trkpt>
      <trkpt lat="46.04121" lon="4.75779">
        <ele>185</ele>
        <time>2021-12-27T23:39:59Z</time>
      </trkpt>
      <trkpt lat="46.03967" lon="4.75662">
        <ele>186</ele>
        <time>2021-12-27T23:40:30Z</time>
      </trkpt>
      <trkpt lat="46.03923" lon="4.75639">
        <ele>187</ele>
        <time>2021-12-27T23:40:38Z</time>
      </trkpt>
      <trkpt lat="46.03867" lon="4.75623">
        <ele>187</ele>
        <time>2021-12-27T23:40:49Z</time>
      </trkpt>
      <trkpt lat="46.03689" lon="4.75611">
        <ele>188</ele>
        <time>2021-12-27T23:41:20Z</time>
      </trkpt>
      <trkpt lat="46.03571" lon="4.75598">
        <ele>188</ele>
        <time>2021-12-27T23:41:41Z</time>
      </trkpt>
      <trkpt lat="46.03508" lon="4.75604">
        <ele>187</ele>
        <time>2021-12-27T23:41:53Z</time>
      </trkpt>
      <trkpt lat="46.03433" lon="4.7562">
        <ele>188</ele>
        <time>2021-12-27T23:42:06Z</time>
      </trkpt>
      <trkpt lat="46.03409" lon="4.75627">
        <ele>188</ele>
        <time>2021-12-27T23:42:10Z</time>
      </trkpt>
      <trkpt lat="46.03351" lon="4.75632">
        <ele>188</ele>
        <time>2021-12-27T23:42:21Z</time>
      </trkpt>
      <trkpt lat="46.03328" lon="4.75633">
        <ele>188</ele>
        <time>2021-12-27T23:42:25Z</time>
      </trkpt>
      <trkpt lat="46.03296" lon="4.75627">
        <ele>189</ele>
        <time>2021-12-27T23:42:31Z</time>
      </trkpt>
      <trkpt lat="46.03293" lon="4.75635">
        <ele>190</ele>
        <time>2021-12-27T23:42:32Z</time>
      </trkpt>
      <trkpt lat="46.03283" lon="4.75649">
        <ele>191</ele>
        <time>2021-12-27T23:42:34Z</time>
      </trkpt>
      <trkpt lat="46.03262" lon="4.75662">
        <ele>194</ele>
        <time>2021-12-27T23:42:38Z</time>
      </trkpt>
      <trkpt lat="46.03221" lon="4.75668">
        <ele>193</ele>
        <time>2021-12-27T23:42:46Z</time>
      </trkpt>
      <trkpt lat="46.0317" lon="4.75669">
        <ele>188</ele>
        <time>2021-12-27T23:42:55Z</time>
      </trkpt>
      <trkpt lat="46.03049" lon="4.75682">
        <ele>183</ele>
        <time>2021-12-27T23:43:16Z</time>
      </trkpt>
      <trkpt lat="46.02963" lon="4.75716">
        <ele>183</ele>
        <time>2021-12-27T23:43:32Z</time>
      </trkpt>
      <trkpt lat="46.02919" lon="4.75721">
        <ele>183</ele>
        <time>2021-12-27T23:43:40Z</time>
      </trkpt>
      <trkpt lat="46.02817" lon="4.75719">
        <ele>184</ele>
        <time>2021-12-27T23:43:58Z</time>
      </trkpt>
      <trkpt lat="46.02743" lon="4.75713">
        <ele>183</ele>
        <time>2021-12-27T23:44:11Z</time>
      </trkpt>
      <trkpt lat="46.02733" lon="4.75718">
        <ele>183</ele>
        <time>2021-12-27T23:44:13Z</time>
      </trkpt>
      <trkpt lat="46.02711" lon="4.7573">
        <ele>183</ele>
        <time>2021-12-27T23:44:17Z</time>
      </trkpt>
      <trkpt lat="46.02703" lon="4.75734">
        <ele>182</ele>
        <time>2021-12-27T23:44:19Z</time>
      </trkpt>
      <trkpt lat="46.02665" lon="4.75744">
        <ele>181</ele>
        <time>2021-12-27T23:44:26Z</time>
      </trkpt>
      <trkpt lat="46.02539" lon="4.75741">
        <ele>187</ele>
        <time>2021-12-27T23:44:48Z</time>
      </trkpt>
      <trkpt lat="46.02511" lon="4.75749">
        <ele>189</ele>
        <time>2021-12-27T23:44:53Z</time>
      </trkpt>
      <trkpt lat="46.02468" lon="4.75767">
        <ele>191</ele>
        <time>2021-12-27T23:45:01Z</time>
      </trkpt>
      <trkpt lat="46.02418" lon="4.75794">
        <ele>192</ele>
        <time>2021-12-27T23:45:11Z</time>
      </trkpt>
      <trkpt lat="46.02375" lon="4.75824">
        <ele>193</ele>
        <time>2021-12-27T23:45:19Z</time>
      </trkpt>
      <trkpt lat="46.02339" lon="4.75854">
        <ele>193</ele>
        <time>2021-12-27T23:45:27Z</time>
      </trkpt>
      <trkpt lat="46.02271" lon="4.75918">
        <ele>193</ele>
        <time>2021-12-27T23:45:41Z</time>
      </trkpt>
      <trkpt lat="46.02191" lon="4.75985">
        <ele>192</ele>
        <time>2021-12-27T23:45:58Z</time>
      </trkpt>
      <trkpt lat="46.02135" lon="4.76037">
        <ele>193</ele>
        <time>2021-12-27T23:46:09Z</time>
      </trkpt>
      <trkpt lat="46.02105" lon="4.76067">
        <ele>195</ele>
        <time>2021-12-27T23:46:16Z</time>
      </trkpt>
      <trkpt lat="46.02082" lon="4.76083">
        <ele>196</ele>
        <time>2021-12-27T23:46:20Z</time>
      </trkpt>
      <trkpt lat="46.02001" lon="4.76105">
        <ele>198</ele>
        <time>2021-12-27T23:46:35Z</time>
      </trkpt>
      <trkpt lat="46.01917" lon="4.76125">
        <ele>199</ele>
        <time>2021-12-27T23:46:50Z</time>
      </trkpt>
      <trkpt lat="46.01844" lon="4.76136">
        <ele>199</ele>
        <time>2021-12-27T23:47:03Z</time>
      </trkpt>
      <trkpt lat="46.01753" lon="4.76128">
        <ele>197</ele>
        <time>2021-12-27T23:47:20Z</time>
      </trkpt>
      <trkpt lat="46.01741" lon="4.76125">
        <ele>197</ele>
        <time>2021-12-27T23:47:22Z</time>
      </trkpt>
      <trkpt lat="46.01669" lon="4.76119">
        <ele>198</ele>
        <time>2021-12-27T23:47:35Z</time>
      </trkpt>
      <trkpt lat="46.01605" lon="4.76112">
        <ele>200</ele>
        <time>2021-12-27T23:47:46Z</time>
      </trkpt>
      <trkpt lat="46.01562" lon="4.76102">
        <ele>202</ele>
        <time>2021-12-27T23:47:54Z</time>
      </trkpt>
      <trkpt lat="46.01537" lon="4.76089">
        <ele>202</ele>
        <time>2021-12-27T23:47:58Z</time>
      </trkpt>
      <trkpt lat="46.01462" lon="4.76072">
        <ele>203</ele>
        <time>2021-12-27T23:48:12Z</time>
      </trkpt>
      <trkpt lat="46.0144" lon="4.76064">
        <ele>203</ele>
        <time>2021-12-27T23:48:16Z</time>
      </trkpt>
      <trkpt lat="46.01409" lon="4.76042">
        <ele>204</ele>
        <time>2021-12-27T23:48:22Z</time>
      </trkpt>
      <trkpt lat="46.01394" lon="4.76037">
        <ele>204</ele>
        <time>2021-12-27T23:48:25Z</time>
      </trkpt>
      <trkpt lat="46.01377" lon="4.76038">
        <ele>203</ele>
        <time>2021-12-27T23:48:28Z</time>
      </trkpt>
      <trkpt lat="46.01272" lon="4.76068">
        <ele>204</ele>
        <time>2021-12-27T23:48:47Z</time>
      </trkpt>
      <trkpt lat="46.01255" lon="4.7607">
        <ele>204</ele>
        <time>2021-12-27T23:48:50Z</time>
      </trkpt>
      <trkpt lat="46.01225" lon="4.76067">
        <ele>205</ele>
        <time>2021-12-27T23:48:55Z</time>
      </trkpt>
      <trkpt lat="46.01151" lon="4.76048">
        <ele>208</ele>
        <time>2021-12-27T23:49:09Z</time>
      </trkpt>
      <trkpt lat="46.01094" lon="4.76059">
        <ele>209</ele>
        <time>2021-12-27T23:49:19Z</time>
      </trkpt>
      <trkpt lat="46.00975" lon="4.7607">
        <ele>212</ele>
        <time>2021-12-27T23:49:40Z</time>
      </trkpt>
      <trkpt lat="46.0084" lon="4.76102">
        <ele>216</ele>
        <time>2021-12-27T23:50:05Z</time>
      </trkpt>
      <trkpt lat="46.0069" lon="4.76112">
        <ele>226</ele>
        <time>2021-12-27T23:50:31Z</time>
      </trkpt>
      <trkpt lat="46.0065" lon="4.7613">
        <ele>228</ele>
        <time>2021-12-27T23:50:39Z</time>
      </trkpt>
      <trkpt lat="46.00634" lon="4.76111">
        <ele>227</ele>
        <time>2021-12-27T23:50:42Z</time>
      </trkpt>
      <trkpt lat="46.0062" lon="4.76104">
        <ele>227</ele>
        <time>2021-12-27T23:50:45Z</time>
      </trkpt>
      <trkpt lat="46.00623" lon="4.76135">
        <ele>228</ele>
        <time>2021-12-27T23:50:49Z</time>
      </trkpt>
      <trkpt lat="46.00625" lon="4.76156">
        <ele>229</ele>
        <time>2021-12-27T23:50:52Z</time>
      </trkpt>
      <trkpt lat="46.00577" lon="4.76144">
        <ele>229</ele>
        <time>2021-12-27T23:51:00Z</time>
      </trkpt>
      <trkpt lat="46.0057" lon="4.7615">
        <ele>229</ele>
        <time>2021-12-27T23:51:02Z</time>
      </trkpt>
      <trkpt lat="46.00565" lon="4.76184">
        <ele>230</ele>
        <time>2021-12-27T23:51:06Z</time>
      </trkpt>
      <trkpt lat="46.00549" lon="4.76179">
        <ele>230</ele>
        <time>2021-12-27T23:51:09Z</time>
      </trkpt>
      <trkpt lat="46.00522" lon="4.76163">
        <ele>229</ele>
        <time>2021-12-27T23:51:14Z</time>
      </trkpt>
      <trkpt lat="46.00485" lon="4.76121">
        <ele>227</ele>
        <time>2021-12-27T23:51:22Z</time>
      </trkpt>
      <trkpt lat="46.00449" lon="4.7609">
        <ele>226</ele>
        <time>2021-12-27T23:51:30Z</time>
      </trkpt>
      <trkpt lat="46.00427" lon="4.76081">
        <ele>226</ele>
        <time>2021-12-27T23:51:34Z</time>
      </trkpt>
      <trkpt lat="46.00381" lon="4.76078">
        <ele>227</ele>
        <time>2021-12-27T23:51:42Z</time>
      </trkpt>
      <trkpt lat="46.00363" lon="4.76063">
        <ele>227</ele>
        <time>2021-12-27T23:51:46Z</time>
      </trkpt>
      <trkpt lat="46.00362" lon="4.76053">
        <ele>226</ele>
        <time>2021-12-27T23:51:47Z</time>
      </trkpt>
      <trkpt lat="46.00372" lon="4.76035">
        <ele>225</ele>
        <time>2021-12-27T23:51:50Z</time>
      </trkpt>
      <trkpt lat="46.0042" lon="4.75997">
        <ele>221</ele>
        <time>2021-12-27T23:52:00Z</time>
      </trkpt>
      <trkpt lat="46.00446" lon="4.75962">
        <ele>219</ele>
        <time>2021-12-27T23:52:06Z</time>
      </trkpt>
      <trkpt lat="46.00445" lon="4.75938">
        <ele>218</ele>
        <time>2021-12-27T23:52:09Z</time>
      </trkpt>
      <trkpt lat="46.00431" lon="4.75898">
        <ele>216</ele>
        <time>2021-12-27T23:52:15Z</time>
      </trkpt>
      <trkpt lat="46.00373" lon="4.75793">
        <ele>213</ele>
        <time>2021-12-27T23:52:31Z</time>
      </trkpt>
      <trkpt lat="46.00251" lon="4.75607">
        <ele>206</ele>
        <time>2021-12-27T23:53:03Z</time>
      </trkpt>
      <trkpt lat="46.00222" lon="4.75558">
        <ele>206</ele>
        <time>2021-12-27T23:53:11Z</time>
      </trkpt>
      <trkpt lat="46.00213" lon="4.75523">
        <ele>203</ele>
        <time>2021-12-27T23:53:15Z</time>
      </trkpt>
      <trkpt lat="46.00211" lon="4.75309">
        <ele>186</ele>
        <time>2021-12-27T23:53:42Z</time>
      </trkpt>
      <trkpt lat="46.0021" lon="4.75151">
        <ele>177</ele>
        <time>2021-12-27T23:54:01Z</time>
      </trkpt>
      <trkpt lat="46.00211" lon="4.75109">
        <ele>176</ele>
        <time>2021-12-27T23:54:06Z</time>
      </trkpt>
      <trkpt lat="46.00163" lon="4.7511">
        <ele>176</ele>
        <time>2021-12-27T23:54:15Z</time>
      </trkpt>
      <trkpt lat="46.00043" lon="4.75108">
        <ele>174</ele>
        <time>2021-12-27T23:54:36Z</time>
      </trkpt>
      <trkpt lat="46.00005" lon="4.75115">
        <ele>173</ele>
        <time>2021-12-27T23:54:43Z</time>
      </trkpt>
      <trkpt lat="45.99826" lon="4.75194">
        <ele>173</ele>
        <time>2021-12-27T23:55:16Z</time>
      </trkpt>
      <trkpt lat="45.99668" lon="4.75269">
        <ele>175</ele>
        <time>2021-12-27T23:55:46Z</time>
      </trkpt>
      <trkpt lat="45.99648" lon="4.75275">
        <ele>174</ele>
        <time>2021-12-27T23:55:50Z</time>
      </trkpt>
      <trkpt lat="45.99622" lon="4.75273">
        <ele>173</ele>
        <time>2021-12-27T23:55:54Z</time>
      </trkpt>
      <trkpt lat="45.99612" lon="4.75275">
        <ele>173</ele>
        <time>2021-12-27T23:55:56Z</time>
      </trkpt>
      <trkpt lat="45.99592" lon="4.75284">
        <ele>173</ele>
        <time>2021-12-27T23:56:00Z</time>
      </trkpt>
      <trkpt lat="45.99586" lon="4.75271">
        <ele>172</ele>
        <time>2021-12-27T23:56:02Z</time>
      </trkpt>
      <trkpt lat="45.99582" lon="4.75266">
        <ele>172</ele>
        <time>2021-12-27T23:56:03Z</time>
      </trkpt>
      <trkpt lat="45.99571" lon="4.75262">
        <ele>172</ele>
        <time>2021-12-27T23:56:05Z</time>
      </trkpt>
      <trkpt lat="45.99559" lon="4.75267">
        <ele>172</ele>
        <time>2021-12-27T23:56:07Z</time>
      </trkpt>
      <trkpt lat="45.99555" lon="4.75272">
        <ele>172</ele>
        <time>2021-12-27T23:56:08Z</time>
      </trkpt>
      <trkpt lat="45.99551" lon="4.75279">
        <ele>172</ele>
        <time>2021-12-27T23:56:09Z</time>
      </trkpt>
      <trkpt lat="45.99548" lon="4.75296">
        <ele>172</ele>
        <time>2021-12-27T23:56:11Z</time>
      </trkpt>
      <trkpt lat="45.99439" lon="4.7531">
        <ele>171</ele>
        <time>2021-12-27T23:56:31Z</time>
      </trkpt>
      <trkpt lat="45.99411" lon="4.75317">
        <ele>170</ele>
        <time>2021-12-27T23:56:36Z</time>
      </trkpt>
      <trkpt lat="45.99392" lon="4.75327">
        <ele>170</ele>
        <time>2021-12-27T23:56:39Z</time>
      </trkpt>
      <trkpt lat="45.99378" lon="4.7534">
        <ele>170</ele>
        <time>2021-12-27T23:56:42Z</time>
      </trkpt>
      <trkpt lat="45.99366" lon="4.75358">
        <ele>171</ele>
        <time>2021-12-27T23:56:45Z</time>
      </trkpt>
      <trkpt lat="45.99358" lon="4.75374">
        <ele>172</ele>
        <time>2021-12-27T23:56:48Z</time>
      </trkpt>
      <trkpt lat="45.99352" lon="4.75397">
        <ele>173</ele>
        <time>2021-12-27T23:56:51Z</time>
      </trkpt>
      <trkpt lat="45.99343" lon="4.75397">
        <ele>173</ele>
        <time>2021-12-27T23:56:52Z</time>
      </trkpt>
      <trkpt lat="45.99336" lon="4.75405">
        <ele>173</ele>
        <time>2021-12-27T23:56:54Z</time>
      </trkpt>
      <trkpt lat="45.99334" lon="4.75415">
        <ele>173</ele>
        <time>2021-12-27T23:56:55Z</time>
      </trkpt>
      <trkpt lat="45.99335" lon="4.75422">
        <ele>173</ele>
        <time>2021-12-27T23:56:56Z</time>
      </trkpt>
      <trkpt lat="45.99341" lon="4.7543">
        <ele>174</ele>
        <time>2021-12-27T23:56:58Z</time>
      </trkpt>
      <trkpt lat="45.9932" lon="4.7548">
        <ele>175</ele>
        <time>2021-12-27T23:57:05Z</time>
      </trkpt>
      <trkpt lat="45.99298" lon="4.75511">
        <ele>176</ele>
        <time>2021-12-27T23:57:10Z</time>
      </trkpt>
      <trkpt lat="45.99282" lon="4.75528">
        <ele>176</ele>
        <time>2021-12-27T23:57:14Z</time>
      </trkpt>
      <trkpt lat="45.99253" lon="4.75551">
        <ele>176</ele>
        <time>2021-12-27T23:57:20Z</time>
      </trkpt>
      <trkpt lat="45.99198" lon="4.75587">
        <ele>176</ele>
        <time>2021-12-27T23:57:31Z</time>
      </trkpt>
      <trkpt lat="45.99142" lon="4.75618">
        <ele>177</ele>
        <time>2021-12-27T23:57:41Z</time>
      </trkpt>
      <trkpt lat="45.99137" lon="4.75608">
        <ele>176</ele>
        <time>2021-12-27T23:57:43Z</time>
      </trkpt>
      <trkpt lat="45.99134" lon="4.75605">
        <ele>176</ele>
        <time>2021-12-27T23:57:43Z</time>
      </trkpt>
      <trkpt lat="45.99125" lon="4.75605">
        <ele>176</ele>
        <time>2021-12-27T23:57:45Z</time>
      </trkpt>
      <trkpt lat="45.99122" lon="4.75608">
        <ele>176</ele>
        <time>2021-12-27T23:57:46Z</time>
      </trkpt>
      <trkpt lat="45.99118" lon="4.75618">
        <ele>176</ele>
        <time>2021-12-27T23:57:47Z</time>
      </trkpt>
      <trkpt lat="45.99118" lon="4.7563">
        <ele>177</ele>
        <time>2021-12-27T23:57:49Z</time>
      </trkpt>
      <trkpt lat="45.9912" lon="4.75634">
        <ele>178</ele>
        <time>2021-12-27T23:57:49Z</time>
      </trkpt>
      <trkpt lat="45.99102" lon="4.75653">
        <ele>179</ele>
        <time>2021-12-27T23:57:53Z</time>
      </trkpt>
      <trkpt lat="45.9909" lon="4.7566">
        <ele>179</ele>
        <time>2021-12-27T23:57:55Z</time>
      </trkpt>
      <trkpt lat="45.99075" lon="4.75662">
        <ele>180</ele>
        <time>2021-12-27T23:57:58Z</time>
      </trkpt>
      <trkpt lat="45.98999" lon="4.75657">
        <ele>179</ele>
        <time>2021-12-27T23:58:12Z</time>
      </trkpt>
      <trkpt lat="45.98984" lon="4.7566">
        <ele>179</ele>
        <time>2021-12-27T23:58:14Z</time>
      </trkpt>
      <trkpt lat="45.98953" lon="4.75669">
        <ele>179</ele>
        <time>2021-12-27T23:58:20Z</time>
      </trkpt>
      <trkpt lat="45.9886" lon="4.7571">
        <ele>180</ele>
        <time>2021-12-27T23:58:37Z</time>
      </trkpt>
      <trkpt lat="45.98772" lon="4.75723">
        <ele>178</ele>
        <time>2021-12-27T23:58:53Z</time>
      </trkpt>
      <trkpt lat="45.98769" lon="4.75715">
        <ele>178</ele>
        <time>2021-12-27T23:58:54Z</time>
      </trkpt>
      <trkpt lat="45.98766" lon="4.75714">
        <ele>178</ele>
        <time>2021-12-27T23:58:55Z</time>
      </trkpt>
      <trkpt lat="45.98761" lon="4.75718">
        <ele>178</ele>
        <time>2021-12-27T23:58:56Z</time>
      </trkpt>
      <trkpt lat="45.9876" lon="4.75724">
        <ele>178</ele>
        <time>2021-12-27T23:58:57Z</time>
      </trkpt>
      <trkpt lat="45.98688" lon="4.75729">
        <ele>177</ele>
        <time>2021-12-27T23:59:09Z</time>
      </trkpt>
      <trkpt lat="45.98603" lon="4.7573">
        <ele>174</ele>
        <time>2021-12-27T23:59:24Z</time>
      </trkpt>
      <trkpt lat="45.985" lon="4.75717">
        <ele>175</ele>
        <time>2021-12-27T23:59:43Z</time>
      </trkpt>
      <trkpt lat="45.98495" lon="4.7571">
        <ele>175</ele>
        <time>2021-12-27T23:59:44Z</time>
      </trkpt>
      <trkpt lat="45.98479" lon="4.75705">
        <ele>174</ele>
        <time>2021-12-27T23:59:47Z</time>
      </trkpt>
      <trkpt lat="45.98384" lon="4.75691">
        <ele>174</ele>
        <time>2021-12-28T00:00:04Z</time>
      </trkpt>
      <trkpt lat="45.98384" lon="4.75689">
        <ele>174</ele>
        <time>2021-12-28T00:00:04Z</time>
      </trkpt>
      <trkpt lat="45.98381" lon="4.75686">
        <ele>174</ele>
        <time>2021-12-28T00:00:05Z</time>
      </trkpt>
      <trkpt lat="45.98377" lon="4.75687">
        <ele>174</ele>
        <time>2021-12-28T00:00:06Z</time>
      </trkpt>
      <trkpt lat="45.98375" lon="4.75691">
        <ele>174</ele>
        <time>2021-12-28T00:00:06Z</time>
      </trkpt>
      <trkpt lat="45.98237" lon="4.7568">
        <ele>173</ele>
        <time>2021-12-28T00:00:31Z</time>
      </trkpt>
      <trkpt lat="45.98218" lon="4.75686">
        <ele>174</ele>
        <time>2021-12-28T00:00:34Z</time>
      </trkpt>
      <trkpt lat="45.98084" lon="4.75696">
        <ele>173</ele>
        <time>2021-12-28T00:00:58Z</time>
      </trkpt>
      <trkpt lat="45.98029" lon="4.75706">
        <ele>174</ele>
        <time>2021-12-28T00:01:08Z</time>
      </trkpt>
      <trkpt lat="45.9798" lon="4.75724">
        <ele>174</ele>
        <time>2021-12-28T00:01:17Z</time>
      </trkpt>
      <trkpt lat="45.9796" lon="4.75732">
        <ele>175</ele>
        <time>2021-12-28T00:01:21Z</time>
      </trkpt>
      <trkpt lat="45.97956" lon="4.75727">
        <ele>174</ele>
        <time>2021-12-28T00:01:22Z</time>
      </trkpt>
      <trkpt lat="45.97953" lon="4.75726">
        <ele>174</ele>
        <time>2021-12-28T00:01:22Z</time>
      </trkpt>
      <trkpt lat="45.97947" lon="4.75731">
        <ele>175</ele>
        <time>2021-12-28T00:01:23Z</time>
      </trkpt>
      <trkpt lat="45.97946" lon="4.75739">
        <ele>175</ele>
        <time>2021-12-28T00:01:24Z</time>
      </trkpt>
      <trkpt lat="45.97949" lon="4.75745">
        <ele>175</ele>
        <time>2021-12-28T00:01:25Z</time>
      </trkpt>
      <trkpt lat="45.97926" lon="4.75773">
        <ele>176</ele>
        <time>2021-12-28T00:01:31Z</time>
      </trkpt>
      <trkpt lat="45.97873" lon="4.75852">
        <ele>181</ele>
        <time>2021-12-28T00:01:44Z</time>
      </trkpt>
      <trkpt lat="45.97849" lon="4.75883">
        <ele>183</ele>
        <time>2021-12-28T00:01:50Z</time>
      </trkpt>
      <trkpt lat="45.97807" lon="4.75901">
        <ele>185</ele>
        <time>2021-12-28T00:01:58Z</time>
      </trkpt>
      <trkpt lat="45.97763" lon="4.75909">
        <ele>185</ele>
        <time>2021-12-28T00:02:06Z</time>
      </trkpt>
      <trkpt lat="45.97666" lon="4.75916">
        <ele>186</ele>
        <time>2021-12-28T00:02:23Z</time>
      </trkpt>
      <trkpt lat="45.97649" lon="4.75919">
        <ele>186</ele>
        <time>2021-12-28T00:02:26Z</time>
      </trkpt>
      <trkpt lat="45.97596" lon="4.75936">
        <ele>188</ele>
        <time>2021-12-28T00:02:36Z</time>
      </trkpt>
      <trkpt lat="45.97541" lon="4.75964">
        <ele>194</ele>
        <time>2021-12-28T00:02:46Z</time>
      </trkpt>
      <trkpt lat="45.97505" lon="4.75987">
        <ele>198</ele>
        <time>2021-12-28T00:02:53Z</time>
      </trkpt>
      <trkpt lat="45.97494" lon="4.75989">
        <ele>200</ele>
        <time>2021-12-28T00:02:55Z</time>
      </trkpt>
      <trkpt lat="45.97482" lon="4.75986">
        <ele>201</ele>
        <time>2021-12-28T00:02:57Z</time>
      </trkpt>
      <trkpt lat="45.97455" lon="4.75969">
        <ele>203</ele>
        <time>2021-12-28T00:03:02Z</time>
      </trkpt>
      <trkpt lat="45.97395" lon="4.75907">
        <ele>201</ele>
        <time>2021-12-28T00:03:16Z</time>
      </trkpt>
      <trkpt lat="45.97383" lon="4.759">
        <ele>201</ele>
        <time>2021-12-28T00:03:18Z</time>
      </trkpt>
      <trkpt lat="45.97312" lon="4.75886">
        <ele>207</ele>
        <time>2021-12-28T00:03:31Z</time>
      </trkpt>
      <trkpt lat="45.97293" lon="4.75886">
        <ele>209</ele>
        <time>2021-12-28T00:03:34Z</time>
      </trkpt>
      <trkpt lat="45.97268" lon="4.75904">
        <ele>215</ele>
        <time>2021-12-28T00:03:39Z</time>
      </trkpt>
      <trkpt lat="45.97244" lon="4.75927">
        <ele>220</ele>
        <time>2021-12-28T00:03:44Z</time>
      </trkpt>
      <trkpt lat="45.97236" lon="4.75929">
        <ele>222</ele>
        <time>2021-12-28T00:03:46Z</time>
      </trkpt>
      <trkpt lat="45.97228" lon="4.75927">
        <ele>222</ele>
        <time>2021-12-28T00:03:47Z</time>
      </trkpt>
      <trkpt lat="45.9721" lon="4.75918">
        <ele>224</ele>
        <time>2021-12-28T00:03:50Z</time>
      </trkpt>
      <trkpt lat="45.97189" lon="4.75891">
        <ele>222</ele>
        <time>2021-12-28T00:03:55Z</time>
      </trkpt>
      <trkpt lat="45.97169" lon="4.75871">
        <ele>220</ele>
        <time>2021-12-28T00:04:00Z</time>
      </trkpt>
      <trkpt lat="45.97144" lon="4.75859">
        <ele>218</ele>
        <time>2021-12-28T00:04:04Z</time>
      </trkpt>
      <trkpt lat="45.9713" lon="4.75854">
        <ele>217</ele>
        <time>2021-12-28T00:04:07Z</time>
      </trkpt>
      <trkpt lat="45.97101" lon="4.75859">
        <ele>218</ele>
        <time>2021-12-28T00:04:12Z</time>
      </trkpt>
      <trkpt lat="45.97087" lon="4.75866">
        <ele>219</ele>
        <time>2021-12-28T00:04:15Z</time>
      </trkpt>
      <trkpt lat="45.97029" lon="4.75921">
        <ele>227</ele>
        <time>2021-12-28T00:04:27Z</time>
      </trkpt>
      <trkpt lat="45.96998" lon="4.75941">
        <ele>226</ele>
        <time>2021-12-28T00:04:33Z</time>
      </trkpt>
      <trkpt lat="45.96936" lon="4.75972">
        <ele>228</ele>
        <time>2021-12-28T00:04:45Z</time>
      </trkpt>
      <trkpt lat="45.96908" lon="4.75975">
        <ele>228</ele>
        <time>2021-12-28T00:04:50Z</time>
      </trkpt>
      <trkpt lat="45.96366" lon="4.75709">
        <ele>215</ele>
        <time>2021-12-28T00:06:32Z</time>
      </trkpt>
      <trkpt lat="45.96345" lon="4.75701">
        <ele>213</ele>
        <time>2021-12-28T00:06:36Z</time>
      </trkpt>
      <trkpt lat="45.96326" lon="4.75698">
        <ele>212</ele>
        <time>2021-12-28T00:06:39Z</time>
      </trkpt>
      <trkpt lat="45.96308" lon="4.75697">
        <ele>211</ele>
        <time>2021-12-28T00:06:42Z</time>
      </trkpt>
      <trkpt lat="45.95868" lon="4.75745">
        <ele>197</ele>
        <time>2021-12-28T00:08:01Z</time>
      </trkpt>
      <trkpt lat="45.95678" lon="4.75769">
        <ele>188</ele>
        <time>2021-12-28T00:08:35Z</time>
      </trkpt>
      <trkpt lat="45.95639" lon="4.75768">
        <ele>186</ele>
        <time>2021-12-28T00:08:42Z</time>
      </trkpt>
      <trkpt lat="45.95635" lon="4.7577">
        <ele>186</ele>
        <time>2021-12-28T00:08:42Z</time>
      </trkpt>
      <trkpt lat="45.95631" lon="4.75772">
        <ele>186</ele>
        <time>2021-12-28T00:08:43Z</time>
      </trkpt>
      <trkpt lat="45.95506" lon="4.7579">
        <ele>181</ele>
        <time>2021-12-28T00:09:06Z</time>
      </trkpt>
      <trkpt lat="45.95441" lon="4.75796">
        <ele>179</ele>
        <time>2021-12-28T00:09:17Z</time>
      </trkpt>
      <trkpt lat="45.95421" lon="4.75798">
        <ele>179</ele>
        <time>2021-12-28T00:09:21Z</time>
      </trkpt>
      <trkpt lat="45.95155" lon="4.75828">
        <ele>181</ele>
        <time>2021-12-28T00:10:08Z</time>
      </trkpt>
      <trkpt lat="45.9515" lon="4.75831">
        <ele>181</ele>
        <time>2021-12-28T00:10:09Z</time>
      </trkpt>
      <trkpt lat="45.95142" lon="4.75831">
        <ele>181</ele>
        <time>2021-12-28T00:10:11Z</time>
      </trkpt>
      <trkpt lat="45.95138" lon="4.75827">
        <ele>181</ele>
        <time>2021-12-28T00:10:11Z</time>
      </trkpt>
      <trkpt lat="45.95118" lon="4.75832">
        <ele>182</ele>
        <time>2021-12-28T00:10:15Z</time>
      </trkpt>
      <trkpt lat="45.95075" lon="4.75836">
        <ele>184</ele>
        <time>2021-12-28T00:10:23Z</time>
      </trkpt>
      <trkpt lat="45.9499" lon="4.7585">
        <ele>190</ele>
        <time>2021-12-28T00:10:38Z</time>
      </trkpt>
      <trkpt lat="45.94976" lon="4.75848">
        <ele>191</ele>
        <time>2021-12-28T00:10:40Z</time>
      </trkpt>
      <trkpt lat="45.9496" lon="4.7584">
        <ele>193</ele>
        <time>2021-12-28T00:10:43Z</time>
      </trkpt>
      <trkpt lat="45.94932" lon="4.75821">
        <ele>194</ele>
        <time>2021-12-28T00:10:49Z</time>
      </trkpt>
      <trkpt lat="45.9489" lon="4.75809">
        <ele>194</ele>
        <time>2021-12-28T00:10:57Z</time>
      </trkpt>
      <trkpt lat="45.94872" lon="4.75809">
        <ele>195</ele>
        <time>2021-12-28T00:11:00Z</time>
      </trkpt>
      <trkpt lat="45.94837" lon="4.75817">
        <ele>197</ele>
        <time>2021-12-28T00:11:06Z</time>
      </trkpt>
      <trkpt lat="45.94751" lon="4.75846">
        <ele>196</ele>
        <time>2021-12-28T00:11:22Z</time>
      </trkpt>
      <trkpt lat="45.94726" lon="4.7586">
        <ele>196</ele>
        <time>2021-12-28T00:11:27Z</time>
      </trkpt>
      <trkpt lat="45.94705" lon="4.75876">
        <ele>195</ele>
        <time>2021-12-28T00:11:31Z</time>
      </trkpt>
      <trkpt lat="45.94634" lon="4.75941">
        <ele>194</ele>
        <time>2021-12-28T00:11:46Z</time>
      </trkpt>
      <trkpt lat="45.94557" lon="4.75985">
        <ele>193</ele>
        <time>2021-12-28T00:12:01Z</time>
      </trkpt>
      <trkpt lat="45.94528" lon="4.76004">
        <ele>193</ele>
        <time>2021-12-28T00:12:06Z</time>
      </trkpt>
      <trkpt lat="45.94514" lon="4.76012">
        <ele>193</ele>
        <time>2021-12-28T00:12:09Z</time>
      </trkpt>
      <trkpt lat="45.94507" lon="4.76006">
        <ele>192</ele>
        <time>2021-12-28T00:12:10Z</time>
      </trkpt>
      <trkpt lat="45.94498" lon="4.76008">
        <ele>192</ele>
        <time>2021-12-28T00:12:12Z</time>
      </trkpt>
      <trkpt lat="45.94495" lon="4.76011">
        <ele>192</ele>
        <time>2021-12-28T00:12:13Z</time>
      </trkpt>
      <trkpt lat="45.94491" lon="4.76021">
        <ele>192</ele>
        <time>2021-12-28T00:12:14Z</time>
      </trkpt>
      <trkpt lat="45.94492" lon="4.76032">
        <ele>192</ele>
        <time>2021-12-28T00:12:15Z</time>
      </trkpt>
      <trkpt lat="45.9442" lon="4.76108">
        <ele>192</ele>
        <time>2021-12-28T00:12:31Z</time>
      </trkpt>
      <trkpt lat="45.94275" lon="4.76221">
        <ele>189</ele>
        <time>2021-12-28T00:13:01Z</time>
      </trkpt>
      <trkpt lat="45.9425" lon="4.76243">
        <ele>187</ele>
        <time>2021-12-28T00:13:06Z</time>
      </trkpt>
      <trkpt lat="45.9423" lon="4.7627">
        <ele>186</ele>
        <time>2021-12-28T00:13:11Z</time>
      </trkpt>
      <trkpt lat="45.94201" lon="4.76325">
        <ele>185</ele>
        <time>2021-12-28T00:13:19Z</time>
      </trkpt>
      <trkpt lat="45.94175" lon="4.76379">
        <ele>183</ele>
        <time>2021-12-28T00:13:27Z</time>
      </trkpt>
      <trkpt lat="45.94168" lon="4.76409">
        <ele>183</ele>
        <time>2021-12-28T00:13:31Z</time>
      </trkpt>
      <trkpt lat="45.94164" lon="4.76418">
        <ele>183</ele>
        <time>2021-12-28T00:13:33Z</time>
      </trkpt>
      <trkpt lat="45.9416" lon="4.76442">
        <ele>183</ele>
        <time>2021-12-28T00:13:36Z</time>
      </trkpt>
      <trkpt lat="45.94158" lon="4.76473">
        <ele>184</ele>
        <time>2021-12-28T00:13:40Z</time>
      </trkpt>
      <trkpt lat="45.94169" lon="4.76661">
        <ele>185</ele>
        <time>2021-12-28T00:14:03Z</time>
      </trkpt>
      <trkpt lat="45.9417" lon="4.76703">
        <ele>184</ele>
        <time>2021-12-28T00:14:08Z</time>
      </trkpt>
      <trkpt lat="45.94169" lon="4.76718">
        <ele>183</ele>
        <time>2021-12-28T00:14:10Z</time>
      </trkpt>
      <trkpt lat="45.94165" lon="4.76745">
        <ele>182</ele>
        <time>2021-12-28T00:14:13Z</time>
      </trkpt>
      <trkpt lat="45.94101" lon="4.76879">
        <ele>176</ele>
        <time>2021-12-28T00:14:33Z</time>
      </trkpt>
      <trkpt lat="45.94067" lon="4.76946">
        <ele>175</ele>
        <time>2021-12-28T00:14:44Z</time>
      </trkpt>
      <trkpt lat="45.94059" lon="4.76958">
        <ele>175</ele>
        <time>2021-12-28T00:14:46Z</time>
      </trkpt>
      <trkpt lat="45.94056" lon="4.76955">
        <ele>174</ele>
        <time>2021-12-28T00:14:46Z</time>
      </trkpt>
      <trkpt lat="45.94051" lon="4.76953">
        <ele>174</ele>
        <time>2021-12-28T00:14:47Z</time>
      </trkpt>
      <trkpt lat="45.94046" lon="4.76956">
        <ele>174</ele>
        <time>2021-12-28T00:14:48Z</time>
      </trkpt>
      <trkpt lat="45.94042" lon="4.76966">
        <ele>174</ele>
        <time>2021-12-28T00:14:50Z</time>
      </trkpt>
      <trkpt lat="45.94042" lon="4.76976">
        <ele>174</ele>
        <time>2021-12-28T00:14:51Z</time>
      </trkpt>
      <trkpt lat="45.94045" lon="4.76981">
        <ele>174</ele>
        <time>2021-12-28T00:14:52Z</time>
      </trkpt>
      <trkpt lat="45.94051" lon="4.76985">
        <ele>175</ele>
        <time>2021-12-28T00:14:53Z</time>
      </trkpt>
      <trkpt lat="45.94018" lon="4.77257">
        <ele>172</ele>
        <time>2021-12-28T00:15:27Z</time>
      </trkpt>
      <trkpt lat="45.94061" lon="4.77268">
        <ele>179</ele>
        <time>2021-12-28T00:15:35Z</time>
      </trkpt>
      <trkpt lat="45.9406" lon="4.77309">
        <ele>180</ele>
        <time>2021-12-28T00:15:40Z</time>
      </trkpt>
      <trkpt lat="45.94071" lon="4.77358">
        <ele>185</ele>
        <time>2021-12-28T00:15:46Z</time>
      </trkpt>
      <trkpt lat="45.94061" lon="4.77419">
        <ele>187</ele>
        <time>2021-12-28T00:15:54Z</time>
      </trkpt>
      <trkpt lat="45.94044" lon="4.7746">
        <ele>186</ele>
        <time>2021-12-28T00:16:00Z</time>
      </trkpt>
      <trkpt lat="45.9404" lon="4.77482">
        <ele>187</ele>
        <time>2021-12-28T00:16:03Z</time>
      </trkpt>
      <trkpt lat="45.94041" lon="4.7751">
        <ele>189</ele>
        <time>2021-12-28T00:16:06Z</time>
      </trkpt>
      <trkpt lat="45.94046" lon="4.77542">
        <ele>192</ele>
        <time>2021-12-28T00:16:10Z</time>
      </trkpt>
      <trkpt lat="45.94046" lon="4.77563">
        <ele>193</ele>
        <time>2021-12-28T00:16:13Z</time>
      </trkpt>
      <trkpt lat="45.94037" lon="4.77607">
        <ele>193</ele>
        <time>2021-12-28T00:16:19Z</time>
      </trkpt>
      <trkpt lat="45.94038" lon="4.77614">
        <ele>193</ele>
        <time>2021-12-28T00:16:20Z</time>
      </trkpt>
      <trkpt lat="45.94036" lon="4.77624">
        <ele>193</ele>
        <time>2021-12-28T00:16:21Z</time>
      </trkpt>
      <trkpt lat="45.9403" lon="4.77791">
        <ele>197</ele>
        <time>2021-12-28T00:16:42Z</time>
      </trkpt>
      <trkpt lat="45.94023" lon="4.77853">
        <ele>197</ele>
        <time>2021-12-28T00:16:49Z</time>
      </trkpt>
      <trkpt lat="45.94023" lon="4.77922">
        <ele>198</ele>
        <time>2021-12-28T00:16:58Z</time>
      </trkpt>
      <trkpt lat="45.94018" lon="4.77923">
        <ele>197</ele>
        <time>2021-12-28T00:16:59Z</time>
      </trkpt>
      <trkpt lat="45.94015" lon="4.77927">
        <ele>197</ele>
        <time>2021-12-28T00:16:59Z</time>
      </trkpt>
      <trkpt lat="45.94014" lon="4.77932">
        <ele>197</ele>
        <time>2021-12-28T00:17:00Z</time>
      </trkpt>
      <trkpt lat="45.94015" lon="4.77938">
        <ele>197</ele>
        <time>2021-12-28T00:17:01Z</time>
      </trkpt>
      <trkpt lat="45.94017" lon="4.77943">
        <ele>197</ele>
        <time>2021-12-28T00:17:02Z</time>
      </trkpt>
      <trkpt lat="45.94021" lon="4.77945">
        <ele>198</ele>
        <time>2021-12-28T00:17:02Z</time>
      </trkpt>
      <trkpt lat="45.94008" lon="4.78035">
        <ele>198</ele>
        <time>2021-12-28T00:17:14Z</time>
      </trkpt>
      <trkpt lat="45.94001" lon="4.78053">
        <ele>198</ele>
        <time>2021-12-28T00:17:16Z</time>
      </trkpt>
      <trkpt lat="45.93997" lon="4.78094">
        <ele>199</ele>
        <time>2021-12-28T00:17:21Z</time>
      </trkpt>
      <trkpt lat="45.93988" lon="4.78143">
        <ele>199</ele>
        <time>2021-12-28T00:17:28Z</time>
      </trkpt>
      <trkpt lat="45.93988" lon="4.78152">
        <ele>199</ele>
        <time>2021-12-28T00:17:29Z</time>
      </trkpt>
      <trkpt lat="45.93986" lon="4.78157">
        <ele>199</ele>
        <time>2021-12-28T00:17:29Z</time>
      </trkpt>
      <trkpt lat="45.93987" lon="4.78162">
        <ele>200</ele>
        <time>2021-12-28T00:17:30Z</time>
      </trkpt>
      <trkpt lat="45.9398" lon="4.78185">
        <ele>199</ele>
        <time>2021-12-28T00:17:33Z</time>
      </trkpt>
      <trkpt lat="45.93968" lon="4.78257">
        <ele>196</ele>
        <time>2021-12-28T00:17:42Z</time>
      </trkpt>
      <trkpt lat="45.93933" lon="4.78497">
        <ele>196</ele>
        <time>2021-12-28T00:18:13Z</time>
      </trkpt>
      <trkpt lat="45.93927" lon="4.78556">
        <ele>195</ele>
        <time>2021-12-28T00:18:20Z</time>
      </trkpt>
      <trkpt lat="45.93933" lon="4.7857">
        <ele>195</ele>
        <time>2021-12-28T00:18:22Z</time>
      </trkpt>
      <trkpt lat="45.93935" lon="4.78661">
        <ele>193</ele>
        <time>2021-12-28T00:18:33Z</time>
      </trkpt>
      <trkpt lat="45.93934" lon="4.78756">
        <ele>192</ele>
        <time>2021-12-28T00:18:45Z</time>
      </trkpt>
      <trkpt lat="45.93949" lon="4.79218">
        <ele>196</ele>
        <time>2021-12-28T00:19:42Z</time>
      </trkpt>
      <trkpt lat="45.9395" lon="4.79513">
        <ele>203</ele>
        <time>2021-12-28T00:20:19Z</time>
      </trkpt>
      <trkpt lat="45.93966" lon="4.79721">
        <ele>207</ele>
        <time>2021-12-28T00:20:45Z</time>
      </trkpt>
      <trkpt lat="45.9397" lon="4.79777">
        <ele>207</ele>
        <time>2021-12-28T00:20:52Z</time>
      </trkpt>
      <trkpt lat="45.93937" lon="4.80027">
        <ele>205</ele>
        <time>2021-12-28T00:21:23Z</time>
      </trkpt>
      <trkpt lat="45.93934" lon="4.8009">
        <ele>207</ele>
        <time>2021-12-28T00:21:31Z</time>
      </trkpt>
      <trkpt lat="45.93937" lon="4.80121">
        <ele>207</ele>
        <time>2021-12-28T00:21:35Z</time>
      </trkpt>
      <trkpt lat="45.93949" lon="4.80193">
        <ele>206</ele>
        <time>2021-12-28T00:21:44Z</time>
      </trkpt>
      <trkpt lat="45.93974" lon="4.80284">
        <ele>203</ele>
        <time>2021-12-28T00:21:56Z</time>
      </trkpt>
      <trkpt lat="45.93991" lon="4.80342">
        <ele>206</ele>
        <time>2021-12-28T00:22:04Z</time>
      </trkpt>
      <trkpt lat="45.94012" lon="4.8042">
        <ele>218</ele>
        <time>2021-12-28T00:22:14Z</time>
      </trkpt>
      <trkpt lat="45.94016" lon="4.80477">
        <ele>221</ele>
        <time>2021-12-28T00:22:21Z</time>
      </trkpt>
      <trkpt lat="45.94014" lon="4.80508">
        <ele>221</ele>
        <time>2021-12-28T00:22:25Z</time>
      </trkpt>
      <trkpt lat="45.94018" lon="4.80574">
        <ele>222</ele>
        <time>2021-12-28T00:22:33Z</time>
      </trkpt>
      <trkpt lat="45.94035" lon="4.80722">
        <ele>225</ele>
        <time>2021-12-28T00:22:52Z</time>
      </trkpt>
      <trkpt lat="45.94071" lon="4.81007">
        <ele>237</ele>
        <time>2021-12-28T00:23:28Z</time>
      </trkpt>
      <trkpt lat="45.94084" lon="4.8105">
        <ele>238</ele>
        <time>2021-12-28T00:23:34Z</time>
      </trkpt>
      <trkpt lat="45.941" lon="4.81085">
        <ele>240</ele>
        <time>2021-12-28T00:23:39Z</time>
      </trkpt>
      <trkpt lat="45.94139" lon="4.8116">
        <ele>244</ele>
        <time>2021-12-28T00:23:50Z</time>
      </trkpt>
      <trkpt lat="45.9415" lon="4.8119">
        <ele>246</ele>
        <time>2021-12-28T00:23:55Z</time>
      </trkpt>
      <trkpt lat="45.9416" lon="4.81238">
        <ele>249</ele>
        <time>2021-12-28T00:24:01Z</time>
      </trkpt>
      <trkpt lat="45.94167" lon="4.81301">
        <ele>251</ele>
        <time>2021-12-28T00:24:09Z</time>
      </trkpt>
      <trkpt lat="45.94165" lon="4.81376">
        <ele>254</ele>
        <time>2021-12-28T00:24:18Z</time>
      </trkpt>
      <trkpt lat="45.94153" lon="4.8146">
        <ele>259</ele>
        <time>2021-12-28T00:24:29Z</time>
      </trkpt>
      <trkpt lat="45.9415" lon="4.81529">
        <ele>264</ele>
        <time>2021-12-28T00:24:37Z</time>
      </trkpt>
      <trkpt lat="45.94152" lon="4.81553">
        <ele>265</ele>
        <time>2021-12-28T00:24:40Z</time>
      </trkpt>
      <trkpt lat="45.94173" lon="4.81661">
        <ele>269</ele>
        <time>2021-12-28T00:24:54Z</time>
      </trkpt>
      <trkpt lat="45.94176" lon="4.81683">
        <ele>268</ele>
        <time>2021-12-28T00:24:57Z</time>
      </trkpt>
      <trkpt lat="45.94184" lon="4.81709">
        <ele>268</ele>
        <time>2021-12-28T00:25:00Z</time>
      </trkpt>
      <trkpt lat="45.94186" lon="4.81718">
        <ele>267</ele>
        <time>2021-12-28T00:25:02Z</time>
      </trkpt>
      <trkpt lat="45.94184" lon="4.81725">
        <ele>267</ele>
        <time>2021-12-28T00:25:02Z</time>
      </trkpt>
      <trkpt lat="45.94185" lon="4.81742">
        <ele>267</ele>
        <time>2021-12-28T00:25:05Z</time>
      </trkpt>
      <trkpt lat="45.94193" lon="4.81754">
        <ele>266</ele>
        <time>2021-12-28T00:25:07Z</time>
      </trkpt>
      <trkpt lat="45.94198" lon="4.81772">
        <ele>266</ele>
        <time>2021-12-28T00:25:09Z</time>
      </trkpt>
      <trkpt lat="45.942" lon="4.81796">
        <ele>266</ele>
        <time>2021-12-28T00:25:12Z</time>
      </trkpt>
      <trkpt lat="45.94201" lon="4.81827">
        <ele>266</ele>
        <time>2021-12-28T00:25:16Z</time>
      </trkpt>
      <trkpt lat="45.9426" lon="4.82106">
        <ele>262</ele>
        <time>2021-12-28T00:25:52Z</time>
      </trkpt>
      <trkpt lat="45.94276" lon="4.82199">
        <ele>264</ele>
        <time>2021-12-28T00:26:04Z</time>
      </trkpt>
      <trkpt lat="45.94284" lon="4.82291">
        <ele>265</ele>
        <time>2021-12-28T00:26:15Z</time>
      </trkpt>
      <trkpt lat="45.94291" lon="4.82463">
        <ele>264</ele>
        <time>2021-12-28T00:26:37Z</time>
      </trkpt>
      <trkpt lat="45.94292" lon="4.82545">
        <ele>264</ele>
        <time>2021-12-28T00:26:47Z</time>
      </trkpt>
      <trkpt lat="45.94289" lon="4.82813">
        <ele>265</ele>
        <time>2021-12-28T00:27:20Z</time>
      </trkpt>
      <trkpt lat="45.94287" lon="4.82889">
        <ele>265</ele>
        <time>2021-12-28T00:27:29Z</time>
      </trkpt>
      <trkpt lat="45.94281" lon="4.8293">
        <ele>265</ele>
        <time>2021-12-28T00:27:34Z</time>
      </trkpt>
      <trkpt lat="45.94273" lon="4.82954">
        <ele>265</ele>
        <time>2021-12-28T00:27:38Z</time>
      </trkpt>
      <trkpt lat="45.94262" lon="4.82978">
        <ele>266</ele>
        <time>2021-12-28T00:27:41Z</time>
      </trkpt>
      <trkpt lat="45.94238" lon="4.83018">
        <ele>266</ele>
        <time>2021-12-28T00:27:48Z</time>
      </trkpt>
      <trkpt lat="45.93895" lon="4.83531">
        <ele>265</ele>
        <time>2021-12-28T00:29:16Z</time>
      </trkpt>
      <trkpt lat="45.93849" lon="4.83622">
        <ele>265</ele>
        <time>2021-12-28T00:29:30Z</time>
      </trkpt>
      <trkpt lat="45.93834" lon="4.83661">
        <ele>265</ele>
        <time>2021-12-28T00:29:35Z</time>
      </trkpt>
      <trkpt lat="45.93779" lon="4.83875">
        <ele>266</ele>
        <time>2021-12-28T00:30:04Z</time>
      </trkpt>
      <trkpt lat="45.93768" lon="4.83928">
        <ele>267</ele>
        <time>2021-12-28T00:30:10Z</time>
      </trkpt>
      <trkpt lat="45.93759" lon="4.83981">
        <ele>268</ele>
        <time>2021-12-28T00:30:17Z</time>
      </trkpt>
      <trkpt lat="45.93747" lon="4.84079">
        <ele>270</ele>
        <time>2021-12-28T00:30:29Z</time>
      </trkpt>
      <trkpt lat="45.93744" lon="4.84182">
        <ele>270</ele>
        <time>2021-12-28T00:30:42Z</time>
      </trkpt>
      <trkpt lat="45.93751" lon="4.84265">
        <ele>269</ele>
        <time>2021-12-28T00:30:53Z</time>
      </trkpt>
      <trkpt lat="45.93802" lon="4.84571">
        <ele>270</ele>
        <time>2021-12-28T00:31:32Z</time>
      </trkpt>
      <trkpt lat="45.93842" lon="4.84798">
        <ele>271</ele>
        <time>2021-12-28T00:32:01Z</time>
      </trkpt>
      <trkpt lat="45.93849" lon="4.84857">
        <ele>271</ele>
        <time>2021-12-28T00:32:08Z</time>
      </trkpt>
      <trkpt lat="45.93871" lon="4.85213">
        <ele>276</ele>
        <time>2021-12-28T00:32:52Z</time>
      </trkpt>
      <trkpt lat="45.93872" lon="4.85263">
        <ele>277</ele>
        <time>2021-12-28T00:32:58Z</time>
      </trkpt>
      <trkpt lat="45.93871" lon="4.85289">
        <ele>278</ele>
        <time>2021-12-28T00:33:02Z</time>
      </trkpt>
      <trkpt lat="45.93835" lon="4.85449">
        <ele>282</ele>
        <time>2021-12-28T00:33:22Z</time>
      </trkpt>
      <trkpt lat="45.9382" lon="4.85554">
        <ele>283</ele>
        <time>2021-12-28T00:33:36Z</time>
      </trkpt>
      <trkpt lat="45.93814" lon="4.85608">
        <ele>283</ele>
        <time>2021-12-28T00:33:42Z</time>
      </trkpt>
      <trkpt lat="45.93815" lon="4.85659">
        <ele>283</ele>
        <time>2021-12-28T00:33:49Z</time>
      </trkpt>
      <trkpt lat="45.93853" lon="4.85933">
        <ele>285</ele>
        <time>2021-12-28T00:34:23Z</time>
      </trkpt>
      <trkpt lat="45.93872" lon="4.86196">
        <ele>287</ele>
        <time>2021-12-28T00:34:56Z</time>
      </trkpt>
      <trkpt lat="45.9387" lon="4.86254">
        <ele>288</ele>
        <time>2021-12-28T00:35:03Z</time>
      </trkpt>
      <trkpt lat="45.938" lon="4.86759">
        <ele>286</ele>
        <time>2021-12-28T00:36:07Z</time>
      </trkpt>
      <trkpt lat="45.93794" lon="4.868">
        <ele>286</ele>
        <time>2021-12-28T00:36:12Z</time>
      </trkpt>
      <trkpt lat="45.93733" lon="4.87241">
        <ele>285</ele>
        <time>2021-12-28T00:37:08Z</time>
      </trkpt>
      <trkpt lat="45.9372" lon="4.87304">
        <ele>285</ele>
        <time>2021-12-28T00:37:16Z</time>
      </trkpt>
      <trkpt lat="45.93689" lon="4.87407">
        <ele>284</ele>
        <time>2021-12-28T00:37:30Z</time>
      </trkpt>
      <trkpt lat="45.93666" lon="4.87456">
        <ele>284</ele>
        <time>2021-12-28T00:37:37Z</time>
      </trkpt>
      <trkpt lat="45.93608" lon="4.87561">
        <ele>286</ele>
        <time>2021-12-28T00:37:54Z</time>
      </trkpt>
      <trkpt lat="45.93571" lon="4.87637">
        <ele>285</ele>
        <time>2021-12-28T00:38:05Z</time>
      </trkpt>
      <trkpt lat="45.93534" lon="4.87784">
        <ele>284</ele>
        <time>2021-12-28T00:38:24Z</time>
      </trkpt>
      <trkpt lat="45.9352" lon="4.87867">
        <ele>284</ele>
        <time>2021-12-28T00:38:35Z</time>
      </trkpt>
      <trkpt lat="45.93498" lon="4.88087">
        <ele>287</ele>
        <time>2021-12-28T00:39:03Z</time>
      </trkpt>
      <trkpt lat="45.93496" lon="4.88097">
        <ele>287</ele>
        <time>2021-12-28T00:39:04Z</time>
      </trkpt>
      <trkpt lat="45.93487" lon="4.88121">
        <ele>288</ele>
        <time>2021-12-28T00:39:07Z</time>
      </trkpt>
      <trkpt lat="45.93481" lon="4.88151">
        <ele>288</ele>
        <time>2021-12-28T00:39:11Z</time>
      </trkpt>
      <trkpt lat="45.93477" lon="4.88194">
        <ele>289</ele>
        <time>2021-12-28T00:39:16Z</time>
      </trkpt>
      <trkpt lat="45.93472" lon="4.88199">
        <ele>289</ele>
        <time>2021-12-28T00:39:18Z</time>
      </trkpt>
      <trkpt lat="45.93466" lon="4.88212">
        <ele>289</ele>
        <time>2021-12-28T00:39:19Z</time>
      </trkpt>
      <trkpt lat="45.93465" lon="4.88225">
        <ele>289</ele>
        <time>2021-12-28T00:39:21Z</time>
      </trkpt>
      <trkpt lat="45.93469" lon="4.88238">
        <ele>289</ele>
        <time>2021-12-28T00:39:23Z</time>
      </trkpt>
      <trkpt lat="45.93473" lon="4.88261">
        <ele>289</ele>
        <time>2021-12-28T00:39:26Z</time>
      </trkpt>
      <trkpt lat="45.93472" lon="4.88316">
        <ele>289</ele>
        <time>2021-12-28T00:39:33Z</time>
      </trkpt>
      <trkpt lat="45.93417" lon="4.88847">
        <ele>294</ele>
        <time>2021-12-28T00:40:39Z</time>
      </trkpt>
      <trkpt lat="45.9341" lon="4.88887">
        <ele>294</ele>
        <time>2021-12-28T00:40:44Z</time>
      </trkpt>
      <trkpt lat="45.93398" lon="4.88931">
        <ele>294</ele>
        <time>2021-12-28T00:40:50Z</time>
      </trkpt>
      <trkpt lat="45.93293" lon="4.89319">
        <ele>295</ele>
        <time>2021-12-28T00:41:41Z</time>
      </trkpt>
      <trkpt lat="45.93276" lon="4.89424">
        <ele>294</ele>
        <time>2021-12-28T00:41:55Z</time>
      </trkpt>
      <trkpt lat="45.93272" lon="4.8949">
        <ele>293</ele>
        <time>2021-12-28T00:42:03Z</time>
      </trkpt>
      <trkpt lat="45.93276" lon="4.89557">
        <ele>293</ele>
        <time>2021-12-28T00:42:11Z</time>
      </trkpt>
      <trkpt lat="45.93319" lon="4.89889">
        <ele>288</ele>
        <time>2021-12-28T00:42:53Z</time>
      </trkpt>
      <trkpt lat="45.93334" lon="4.89987">
        <ele>290</ele>
        <time>2021-12-28T00:43:06Z</time>
      </trkpt>
      <trkpt lat="45.93343" lon="4.90027">
        <ele>289</ele>
        <time>2021-12-28T00:43:11Z</time>
      </trkpt>
      <trkpt lat="45.9346" lon="4.90397">
        <ele>291</ele>
        <time>2021-12-28T00:44:01Z</time>
      </trkpt>
      <trkpt lat="45.93469" lon="4.90432">
        <ele>291</ele>
        <time>2021-12-28T00:44:06Z</time>
      </trkpt>
      <trkpt lat="45.9348" lon="4.90487">
        <ele>291</ele>
        <time>2021-12-28T00:44:13Z</time>
      </trkpt>
      <trkpt lat="45.93486" lon="4.9055">
        <ele>291</ele>
        <time>2021-12-28T00:44:21Z</time>
      </trkpt>
      <trkpt lat="45.93499" lon="4.91018">
        <ele>294</ele>
        <time>2021-12-28T00:45:19Z</time>
      </trkpt>
      <trkpt lat="45.93498" lon="4.91152">
        <ele>294</ele>
        <time>2021-12-28T00:45:35Z</time>
      </trkpt>
      <trkpt lat="45.93488" lon="4.91327">
        <ele>293</ele>
        <time>2021-12-28T00:45:57Z</time>
      </trkpt>
      <trkpt lat="45.9347" lon="4.91475">
        <ele>293</ele>
        <time>2021-12-28T00:46:15Z</time>
      </trkpt>
      <trkpt lat="45.93342" lon="4.92332">
        <ele>297</ele>
        <time>2021-12-28T00:48:04Z</time>
      </trkpt>
      <trkpt lat="45.93314" lon="4.92515">
        <ele>298</ele>
        <time>2021-12-28T00:48:27Z</time>
      </trkpt>
      <trkpt lat="45.9322" lon="4.92841">
        <ele>306</ele>
        <time>2021-12-28T00:49:11Z</time>
      </trkpt>
      <trkpt lat="45.9308" lon="4.93335">
        <ele>300</ele>
        <time>2021-12-28T00:50:17Z</time>
      </trkpt>
      <trkpt lat="45.92915" lon="4.9393">
        <ele>300</ele>
        <time>2021-12-28T00:51:36Z</time>
      </trkpt>
      <trkpt lat="45.92638" lon="4.94937">
        <ele>298</ele>
        <time>2021-12-28T00:53:50Z</time>
      </trkpt>
      <trkpt lat="45.92598" lon="4.95076">
        <ele>297</ele>
        <time>2021-12-28T00:54:09Z</time>
      </trkpt>
      <trkpt lat="45.9259" lon="4.95071">
        <ele>297</ele>
        <time>2021-12-28T00:54:10Z</time>
      </trkpt>
      <trkpt lat="45.92585" lon="4.95073">
        <ele>297</ele>
        <time>2021-12-28T00:54:11Z</time>
      </trkpt>
      <trkpt lat="45.92579" lon="4.95079">
        <ele>297</ele>
        <time>2021-12-28T00:54:12Z</time>
      </trkpt>
      <trkpt lat="45.92578" lon="4.95087">
        <ele>297</ele>
        <time>2021-12-28T00:54:14Z</time>
      </trkpt>
      <trkpt lat="45.92603" lon="4.95145">
        <ele>298</ele>
        <time>2021-12-28T00:54:22Z</time>
      </trkpt>
      <trkpt lat="45.92609" lon="4.95149">
        <ele>298</ele>
        <time>2021-12-28T00:54:23Z</time>
      </trkpt>
      <trkpt lat="45.92627" lon="4.95239">
        <ele>297</ele>
        <time>2021-12-28T00:54:35Z</time>
      </trkpt>
      <trkpt lat="45.92496" lon="4.95257">
        <ele>296</ele>
        <time>2021-12-28T00:54:58Z</time>
      </trkpt>
      <trkpt lat="45.92218" lon="4.95401">
        <ele>295</ele>
        <time>2021-12-28T00:55:51Z</time>
      </trkpt>
      <trkpt lat="45.92187" lon="4.9541">
        <ele>295</ele>
        <time>2021-12-28T00:55:56Z</time>
      </trkpt>
      <trkpt lat="45.9214" lon="4.95413">
        <ele>295</ele>
        <time>2021-12-28T00:56:05Z</time>
      </trkpt>
      <trkpt lat="45.9204" lon="4.95395">
        <ele>293</ele>
        <time>2021-12-28T00:56:23Z</time>
      </trkpt>
      <trkpt lat="45.92021" lon="4.95397">
        <ele>293</ele>
        <time>2021-12-28T00:56:26Z</time>
      </trkpt>
      <trkpt lat="45.91995" lon="4.95407">
        <ele>293</ele>
        <time>2021-12-28T00:56:31Z</time>
      </trkpt>
      <trkpt lat="45.91908" lon="4.95454">
        <ele>293</ele>
        <time>2021-12-28T00:56:47Z</time>
      </trkpt>
      <trkpt lat="45.91843" lon="4.95474">
        <ele>293</ele>
        <time>2021-12-28T00:56:59Z</time>
      </trkpt>
      <trkpt lat="45.91643" lon="4.95534">
        <ele>292</ele>
        <time>2021-12-28T00:57:36Z</time>
      </trkpt>
      <trkpt lat="45.91476" lon="4.95564">
        <ele>294</ele>
        <time>2021-12-28T00:58:05Z</time>
      </trkpt>
      <trkpt lat="45.91142" lon="4.95707">
        <ele>287</ele>
        <time>2021-12-28T00:59:07Z</time>
      </trkpt>
      <trkpt lat="45.90939" lon="4.95797">
        <ele>291</ele>
        <time>2021-12-28T00:59:45Z</time>
      </trkpt>
      <trkpt lat="45.90776" lon="4.95865">
        <ele>291</ele>
        <time>2021-12-28T01:00:15Z</time>
      </trkpt>
      <trkpt lat="45.90725" lon="4.95897">
        <ele>290</ele>
        <time>2021-12-28T01:00:25Z</time>
      </trkpt>
      <trkpt lat="45.90665" lon="4.9595">
        <ele>292</ele>
        <time>2021-12-28T01:00:38Z</time>
      </trkpt>
      <trkpt lat="45.9026" lon="4.96332">
        <ele>296</ele>
        <time>2021-12-28T01:02:04Z</time>
      </trkpt>
      <trkpt lat="45.89901" lon="4.96665">
        <ele>296</ele>
        <time>2021-12-28T01:03:20Z</time>
      </trkpt>
      <trkpt lat="45.89553" lon="4.96995">
        <ele>294</ele>
        <time>2021-12-28T01:04:34Z</time>
      </trkpt>
      <trkpt lat="45.89518" lon="4.97018">
        <ele>292</ele>
        <time>2021-12-28T01:04:41Z</time>
      </trkpt>
      <trkpt lat="45.89481" lon="4.97036">
        <ele>291</ele>
        <time>2021-12-28T01:04:48Z</time>
      </trkpt>
      <trkpt lat="45.89443" lon="4.97049">
        <ele>289</ele>
        <time>2021-12-28T01:04:55Z</time>
      </trkpt>
      <trkpt lat="45.89404" lon="4.97058">
        <ele>287</ele>
        <time>2021-12-28T01:05:02Z</time>
      </trkpt>
      <trkpt lat="45.89381" lon="4.9706">
        <ele>286</ele>
        <time>2021-12-28T01:05:06Z</time>
      </trkpt>
      <trkpt lat="45.89355" lon="4.97058">
        <ele>285</ele>
        <time>2021-12-28T01:05:11Z</time>
      </trkpt>
      <trkpt lat="45.88955" lon="4.96984">
        <ele>277</ele>
        <time>2021-12-28T01:06:23Z</time>
      </trkpt>
      <trkpt lat="45.88915" lon="4.96975">
        <ele>276</ele>
        <time>2021-12-28T01:06:30Z</time>
      </trkpt>
      <trkpt lat="45.8891" lon="4.96987">
        <ele>276</ele>
        <time>2021-12-28T01:06:32Z</time>
      </trkpt>
      <trkpt lat="45.88897" lon="4.97108">
        <ele>274</ele>
        <time>2021-12-28T01:06:47Z</time>
      </trkpt>
      <trkpt lat="45.88887" lon="4.97153">
        <ele>275</ele>
        <time>2021-12-28T01:06:53Z</time>
      </trkpt>
      <trkpt lat="45.88879" lon="4.97175">
        <ele>275</ele>
        <time>2021-12-28T01:06:56Z</time>
      </trkpt>
      <trkpt lat="45.88863" lon="4.97205">
        <ele>275</ele>
        <time>2021-12-28T01:07:00Z</time>
      </trkpt>
      <trkpt lat="45.88821" lon="4.97271">
        <ele>275</ele>
        <time>2021-12-28T01:07:11Z</time>
      </trkpt>
      <trkpt lat="45.88758" lon="4.97379">
        <ele>275</ele>
        <time>2021-12-28T01:07:29Z</time>
      </trkpt>
      <trkpt lat="45.88749" lon="4.97389">
        <ele>275</ele>
        <time>2021-12-28T01:07:31Z</time>
      </trkpt>
      <trkpt lat="45.88727" lon="4.97405">
        <ele>275</ele>
        <time>2021-12-28T01:07:35Z</time>
      </trkpt>
      <trkpt lat="45.88692" lon="4.97425">
        <ele>275</ele>
        <time>2021-12-28T01:07:42Z</time>
      </trkpt>
      <trkpt lat="45.88494" lon="4.97567">
        <ele>274</ele>
        <time>2021-12-28T01:08:21Z</time>
      </trkpt>
      <trkpt lat="45.88464" lon="4.97582">
        <ele>274</ele>
        <time>2021-12-28T01:08:27Z</time>
      </trkpt>
      <trkpt lat="45.88428" lon="4.97594">
        <ele>274</ele>
        <time>2021-12-28T01:08:34Z</time>
      </trkpt>
      <trkpt lat="45.88405" lon="4.97596">
        <ele>274</ele>
        <time>2021-12-28T01:08:38Z</time>
      </trkpt>
      <trkpt lat="45.8838" lon="4.97594">
        <ele>274</ele>
        <time>2021-12-28T01:08:42Z</time>
      </trkpt>
      <trkpt lat="45.88335" lon="4.97579">
        <ele>274</ele>
        <time>2021-12-28T01:08:50Z</time>
      </trkpt>
      <trkpt lat="45.88217" lon="4.97565">
        <ele>275</ele>
        <time>2021-12-28T01:09:11Z</time>
      </trkpt>
      <trkpt lat="45.88099" lon="4.97514">
        <ele>277</ele>
        <time>2021-12-28T01:09:33Z</time>
      </trkpt>
      <trkpt lat="45.88073" lon="4.97506">
        <ele>277</ele>
        <time>2021-12-28T01:09:38Z</time>
      </trkpt>
      <trkpt lat="45.88044" lon="4.97506">
        <ele>278</ele>
        <time>2021-12-28T01:09:43Z</time>
      </trkpt>
      <trkpt lat="45.87862" lon="4.97543">
        <ele>285</ele>
        <time>2021-12-28T01:10:16Z</time>
      </trkpt>
      <trkpt lat="45.87751" lon="4.97552">
        <ele>289</ele>
        <time>2021-12-28T01:10:36Z</time>
      </trkpt>
      <trkpt lat="45.87723" lon="4.97551">
        <ele>291</ele>
        <time>2021-12-28T01:10:41Z</time>
      </trkpt>
      <trkpt lat="45.87665" lon="4.97548">
        <ele>294</ele>
        <time>2021-12-28T01:10:51Z</time>
      </trkpt>
      <trkpt lat="45.87645" lon="4.9755">
        <ele>294</ele>
        <time>2021-12-28T01:10:55Z</time>
      </trkpt>
      <trkpt lat="45.87561" lon="4.97572">
        <ele>297</ele>
        <time>2021-12-28T01:11:10Z</time>
      </trkpt>
      <trkpt lat="45.87485" lon="4.97596">
        <ele>302</ele>
        <time>2021-12-28T01:11:24Z</time>
      </trkpt>
      <trkpt lat="45.87506" lon="4.9815">
        <ele>293</ele>
        <time>2021-12-28T01:12:32Z</time>
      </trkpt>
      <trkpt lat="45.87504" lon="4.98172">
        <ele>293</ele>
        <time>2021-12-28T01:12:35Z</time>
      </trkpt>
      <trkpt lat="45.87498" lon="4.98202">
        <ele>293</ele>
        <time>2021-12-28T01:12:39Z</time>
      </trkpt>
      <trkpt lat="45.87486" lon="4.98236">
        <ele>293</ele>
        <time>2021-12-28T01:12:44Z</time>
      </trkpt>
      <trkpt lat="45.87466" lon="4.98285">
        <ele>293</ele>
        <time>2021-12-28T01:12:51Z</time>
      </trkpt>
      <trkpt lat="45.87216" lon="4.98783">
        <ele>295</ele>
        <time>2021-12-28T01:14:07Z</time>
      </trkpt>
      <trkpt lat="45.8685" lon="4.99499">
        <ele>301</ele>
        <time>2021-12-28T01:15:57Z</time>
      </trkpt>
      <trkpt lat="45.86597" lon="4.99994">
        <ele>304</ele>
        <time>2021-12-28T01:17:13Z</time>
      </trkpt>
      <trkpt lat="45.86424" lon="5.00324">
        <ele>309</ele>
        <time>2021-12-28T01:18:04Z</time>
      </trkpt>
      <trkpt lat="45.86393" lon="5.00372">
        <ele>309</ele>
        <time>2021-12-28T01:18:12Z</time>
      </trkpt>
      <trkpt lat="45.86335" lon="5.00444">
        <ele>309</ele>
        <time>2021-12-28T01:18:26Z</time>
      </trkpt>
      <trkpt lat="45.86193" lon="5.00631">
        <ele>302</ele>
        <time>2021-12-28T01:19:00Z</time>
      </trkpt>
      <trkpt lat="45.86061" lon="5.00794">
        <ele>301</ele>
        <time>2021-12-28T01:19:31Z</time>
      </trkpt>
      <trkpt lat="45.85904" lon="5.01008">
        <ele>306</ele>
        <time>2021-12-28T01:20:10Z</time>
      </trkpt>
      <trkpt lat="45.85827" lon="5.01161">
        <ele>308</ele>
        <time>2021-12-28T01:20:33Z</time>
      </trkpt>
      <trkpt lat="45.858" lon="5.01227">
        <ele>308</ele>
        <time>2021-12-28T01:20:42Z</time>
      </trkpt>
      <trkpt lat="45.85468" lon="5.02175">
        <ele>298</ele>
        <time>2021-12-28T01:22:54Z</time>
      </trkpt>
      <trkpt lat="45.85451" lon="5.02232">
        <ele>297</ele>
        <time>2021-12-28T01:23:02Z</time>
      </trkpt>
      <trkpt lat="45.85425" lon="5.02331">
        <ele>295</ele>
        <time>2021-12-28T01:23:15Z</time>
      </trkpt>
      <trkpt lat="45.85392" lon="5.02409">
        <ele>291</ele>
        <time>2021-12-28T01:23:26Z</time>
      </trkpt>
      <trkpt lat="45.85382" lon="5.02429">
        <ele>290</ele>
        <time>2021-12-28T01:23:29Z</time>
      </trkpt>
      <trkpt lat="45.85372" lon="5.02443">
        <ele>289</ele>
        <time>2021-12-28T01:23:32Z</time>
      </trkpt>
      <trkpt lat="45.85332" lon="5.02478">
        <ele>286</ele>
        <time>2021-12-28T01:23:40Z</time>
      </trkpt>
      <trkpt lat="45.85318" lon="5.02486">
        <ele>285</ele>
        <time>2021-12-28T01:23:43Z</time>
      </trkpt>
      <trkpt lat="45.85293" lon="5.02494">
        <ele>284</ele>
        <time>2021-12-28T01:23:47Z</time>
      </trkpt>
      <trkpt lat="45.85229" lon="5.02497">
        <ele>282</ele>
        <time>2021-12-28T01:23:59Z</time>
      </trkpt>
      <trkpt lat="45.85215" lon="5.02494">
        <ele>281</ele>
        <time>2021-12-28T01:24:01Z</time>
      </trkpt>
      <trkpt lat="45.85208" lon="5.02488">
        <ele>281</ele>
        <time>2021-12-28T01:24:03Z</time>
      </trkpt>
      <trkpt lat="45.85186" lon="5.02463">
        <ele>283</ele>
        <time>2021-12-28T01:24:08Z</time>
      </trkpt>
      <trkpt lat="45.85177" lon="5.02458">
        <ele>283</ele>
        <time>2021-12-28T01:24:09Z</time>
      </trkpt>
      <trkpt lat="45.8517" lon="5.02458">
        <ele>282</ele>
        <time>2021-12-28T01:24:10Z</time>
      </trkpt>
      <trkpt lat="45.85164" lon="5.02463">
        <ele>282</ele>
        <time>2021-12-28T01:24:12Z</time>
      </trkpt>
      <trkpt lat="45.85161" lon="5.02473">
        <ele>281</ele>
        <time>2021-12-28T01:24:13Z</time>
      </trkpt>
      <trkpt lat="45.8516" lon="5.02489">
        <ele>279</ele>
        <time>2021-12-28T01:24:15Z</time>
      </trkpt>
      <trkpt lat="45.85162" lon="5.02525">
        <ele>275</ele>
        <time>2021-12-28T01:24:20Z</time>
      </trkpt>
      <trkpt lat="45.8516" lon="5.02539">
        <ele>273</ele>
        <time>2021-12-28T01:24:21Z</time>
      </trkpt>
      <trkpt lat="45.85156" lon="5.0255">
        <ele>272</ele>
        <time>2021-12-28T01:24:23Z</time>
      </trkpt>
      <trkpt lat="45.85094" lon="5.02646">
        <ele>261</ele>
        <time>2021-12-28T01:24:39Z</time>
      </trkpt>
      <trkpt lat="45.8508" lon="5.02654">
        <ele>259</ele>
        <time>2021-12-28T01:24:42Z</time>
      </trkpt>
      <trkpt lat="45.85062" lon="5.0265">
        <ele>258</ele>
        <time>2021-12-28T01:24:45Z</time>
      </trkpt>
      <trkpt lat="45.85053" lon="5.02646">
        <ele>258</ele>
        <time>2021-12-28T01:24:47Z</time>
      </trkpt>
      <trkpt lat="45.84992" lon="5.02602">
        <ele>259</ele>
        <time>2021-12-28T01:24:59Z</time>
      </trkpt>
      <trkpt lat="45.84945" lon="5.02572">
        <ele>261</ele>
        <time>2021-12-28T01:25:08Z</time>
      </trkpt>
      <trkpt lat="45.84937" lon="5.0257">
        <ele>261</ele>
        <time>2021-12-28T01:25:09Z</time>
      </trkpt>
      <trkpt lat="45.84932" lon="5.02571">
        <ele>261</ele>
        <time>2021-12-28T01:25:10Z</time>
      </trkpt>
      <trkpt lat="45.84925" lon="5.02578">
        <ele>260</ele>
        <time>2021-12-28T01:25:12Z</time>
      </trkpt>
      <trkpt lat="45.84923" lon="5.02589">
        <ele>260</ele>
        <time>2021-12-28T01:25:13Z</time>
      </trkpt>
      <trkpt lat="45.84926" lon="5.02603">
        <ele>261</ele>
        <time>2021-12-28T01:25:15Z</time>
      </trkpt>
      <trkpt lat="45.84937" lon="5.02628">
        <ele>260</ele>
        <time>2021-12-28T01:25:19Z</time>
      </trkpt>
      <trkpt lat="45.84958" lon="5.02658">
        <ele>257</ele>
        <time>2021-12-28T01:25:24Z</time>
      </trkpt>
      <trkpt lat="45.84976" lon="5.02688">
        <ele>251</ele>
        <time>2021-12-28T01:25:29Z</time>
      </trkpt>
      <trkpt lat="45.8499" lon="5.02715">
        <ele>246</ele>
        <time>2021-12-28T01:25:33Z</time>
      </trkpt>
      <trkpt lat="45.84994" lon="5.02724">
        <ele>245</ele>
        <time>2021-12-28T01:25:34Z</time>
      </trkpt>
      <trkpt lat="45.84996" lon="5.02734">
        <ele>243</ele>
        <time>2021-12-28T01:25:36Z</time>
      </trkpt>
      <trkpt lat="45.84996" lon="5.02749">
        <ele>242</ele>
        <time>2021-12-28T01:25:38Z</time>
      </trkpt>
      <trkpt lat="45.84991" lon="5.02765">
        <ele>242</ele>
        <time>2021-12-28T01:25:40Z</time>
      </trkpt>
      <trkpt lat="45.84929" lon="5.0286">
        <ele>241</ele>
        <time>2021-12-28T01:25:56Z</time>
      </trkpt>
      <trkpt lat="45.84905" lon="5.02891">
        <ele>239</ele>
        <time>2021-12-28T01:26:02Z</time>
      </trkpt>
      <trkpt lat="45.84889" lon="5.02908">
        <ele>237</ele>
        <time>2021-12-28T01:26:05Z</time>
      </trkpt>
      <trkpt lat="45.8486" lon="5.02928">
        <ele>236</ele>
        <time>2021-12-28T01:26:11Z</time>
      </trkpt>
      <trkpt lat="45.84823" lon="5.02947">
        <ele>235</ele>
        <time>2021-12-28T01:26:18Z</time>
      </trkpt>
      <trkpt lat="45.84774" lon="5.02982">
        <ele>230</ele>
        <time>2021-12-28T01:26:28Z</time>
      </trkpt>
      <trkpt lat="45.84757" lon="5.02997">
        <ele>228</ele>
        <time>2021-12-28T01:26:31Z</time>
      </trkpt>
      <trkpt lat="45.84743" lon="5.03013">
        <ele>225</ele>
        <time>2021-12-28T01:26:34Z</time>
      </trkpt>
      <trkpt lat="45.84699" lon="5.03082">
        <ele>216</ele>
        <time>2021-12-28T01:26:46Z</time>
      </trkpt>
      <trkpt lat="45.84687" lon="5.03095">
        <ele>215</ele>
        <time>2021-12-28T01:26:49Z</time>
      </trkpt>
      <trkpt lat="45.84583" lon="5.03183">
        <ele>205</ele>
        <time>2021-12-28T01:27:10Z</time>
      </trkpt>
      <trkpt lat="45.84574" lon="5.03198">
        <ele>204</ele>
        <time>2021-12-28T01:27:13Z</time>
      </trkpt>
      <trkpt lat="45.84557" lon="5.03237">
        <ele>202</ele>
        <time>2021-12-28T01:27:18Z</time>
      </trkpt>
      <trkpt lat="45.8448" lon="5.03429">
        <ele>195</ele>
        <time>2021-12-28T01:27:46Z</time>
      </trkpt>
      <trkpt lat="45.84462" lon="5.03458">
        <ele>194</ele>
        <time>2021-12-28T01:27:51Z</time>
      </trkpt>
      <trkpt lat="45.84398" lon="5.03494">
        <ele>192</ele>
        <time>2021-12-28T01:28:03Z</time>
      </trkpt>
      <trkpt lat="45.84389" lon="5.03498">
        <ele>192</ele>
        <time>2021-12-28T01:28:04Z</time>
      </trkpt>
      <trkpt lat="45.84348" lon="5.0352">
        <ele>191</ele>
        <time>2021-12-28T01:28:12Z</time>
      </trkpt>
      <trkpt lat="45.8433" lon="5.03527">
        <ele>191</ele>
        <time>2021-12-28T01:28:16Z</time>
      </trkpt>
      <trkpt lat="45.8424" lon="5.03552">
        <ele>190</ele>
        <time>2021-12-28T01:28:32Z</time>
      </trkpt>
      <trkpt lat="45.84163" lon="5.03554">
        <ele>190</ele>
        <time>2021-12-28T01:28:46Z</time>
      </trkpt>
      <trkpt lat="45.84152" lon="5.03593">
        <ele>190</ele>
        <time>2021-12-28T01:28:51Z</time>
      </trkpt>
      <trkpt lat="45.84124" lon="5.03645">
        <ele>189</ele>
        <time>2021-12-28T01:28:59Z</time>
      </trkpt>
      <trkpt lat="45.84098" lon="5.03711">
        <ele>188</ele>
        <time>2021-12-28T01:29:08Z</time>
      </trkpt>
      <trkpt lat="45.84073" lon="5.03766">
        <ele>187</ele>
        <time>2021-12-28T01:29:16Z</time>
      </trkpt>
      <trkpt lat="45.84062" lon="5.03777">
        <ele>187</ele>
        <time>2021-12-28T01:29:19Z</time>
      </trkpt>
      <trkpt lat="45.84029" lon="5.03788">
        <ele>185</ele>
        <time>2021-12-28T01:29:25Z</time>
      </trkpt>
      <trkpt lat="45.84046" lon="5.03839">
        <ele>186</ele>
        <time>2021-12-28T01:29:32Z</time>
      </trkpt>
      <trkpt lat="45.84051" lon="5.03861">
        <ele>186</ele>
        <time>2021-12-28T01:29:35Z</time>
      </trkpt>
      <trkpt lat="45.84052" lon="5.03896">
        <ele>186</ele>
        <time>2021-12-28T01:29:39Z</time>
      </trkpt>
      <trkpt lat="45.84048" lon="5.03925">
        <ele>185</ele>
        <time>2021-12-28T01:29:43Z</time>
      </trkpt>
      <trkpt lat="45.84025" lon="5.03994">
        <ele>183</ele>
        <time>2021-12-28T01:29:52Z</time>
      </trkpt>
      <trkpt lat="45.84021" lon="5.03991">
        <ele>183</ele>
        <time>2021-12-28T01:29:53Z</time>
      </trkpt>
      <trkpt lat="45.84017" lon="5.03993">
        <ele>182</ele>
        <time>2021-12-28T01:29:54Z</time>
      </trkpt>
      <trkpt lat="45.84014" lon="5.03998">
        <ele>182</ele>
        <time>2021-12-28T01:29:55Z</time>
      </trkpt>
      <trkpt lat="45.84013" lon="5.04004">
        <ele>182</ele>
        <time>2021-12-28T01:29:55Z</time>
      </trkpt>
      <trkpt lat="45.84015" lon="5.0401">
        <ele>182</ele>
        <time>2021-12-28T01:29:56Z</time>
      </trkpt>
      <trkpt lat="45.84019" lon="5.04013">
        <ele>183</ele>
        <time>2021-12-28T01:29:57Z</time>
      </trkpt>
      <trkpt lat="45.83999" lon="5.0413">
        <ele>184</ele>
        <time>2021-12-28T01:30:12Z</time>
      </trkpt>
      <trkpt lat="45.83994" lon="5.0415">
        <ele>184</ele>
        <time>2021-12-28T01:30:15Z</time>
      </trkpt>
      <trkpt lat="45.83972" lon="5.04203">
        <ele>183</ele>
        <time>2021-12-28T01:30:22Z</time>
      </trkpt>
      <trkpt lat="45.83965" lon="5.04237">
        <ele>182</ele>
        <time>2021-12-28T01:30:27Z</time>
      </trkpt>
      <trkpt lat="45.83954" lon="5.0434">
        <ele>182</ele>
        <time>2021-12-28T01:30:40Z</time>
      </trkpt>
      <trkpt lat="45.83956" lon="5.04364">
        <ele>182</ele>
        <time>2021-12-28T01:30:43Z</time>
      </trkpt>
      <trkpt lat="45.83964" lon="5.0439">
        <ele>182</ele>
        <time>2021-12-28T01:30:46Z</time>
      </trkpt>
      <trkpt lat="45.83981" lon="5.04425">
        <ele>183</ele>
        <time>2021-12-28T01:30:51Z</time>
      </trkpt>
      <trkpt lat="45.84002" lon="5.0446">
        <ele>185</ele>
        <time>2021-12-28T01:30:57Z</time>
      </trkpt>
      <trkpt lat="45.84071" lon="5.04612">
        <ele>189</ele>
        <time>2021-12-28T01:31:20Z</time>
      </trkpt>
      <trkpt lat="45.84116" lon="5.04704">
        <ele>191</ele>
        <time>2021-12-28T01:31:33Z</time>
      </trkpt>
      <trkpt lat="45.8414" lon="5.04743">
        <ele>191</ele>
        <time>2021-12-28T01:31:40Z</time>
      </trkpt>
      <trkpt lat="45.84159" lon="5.04783">
        <ele>191</ele>
        <time>2021-12-28T01:31:46Z</time>
      </trkpt>
      <trkpt lat="45.84162" lon="5.04794">
        <ele>191</ele>
        <time>2021-12-28T01:31:47Z</time>
      </trkpt>
      <trkpt lat="45.84164" lon="5.04807">
        <ele>191</ele>
        <time>2021-12-28T01:31:49Z</time>
      </trkpt>
      <trkpt lat="45.84159" lon="5.04825">
        <ele>191</ele>
        <time>2021-12-28T01:31:51Z</time>
      </trkpt>
      <trkpt lat="45.84146" lon="5.04837">
        <ele>190</ele>
        <time>2021-12-28T01:31:54Z</time>
      </trkpt>
      <trkpt lat="45.84139" lon="5.04836">
        <ele>189</ele>
        <time>2021-12-28T01:31:55Z</time>
      </trkpt>
      <trkpt lat="45.84131" lon="5.04838">
        <ele>189</ele>
        <time>2021-12-28T01:31:57Z</time>
      </trkpt>
      <trkpt lat="45.84124" lon="5.04843">
        <ele>188</ele>
        <time>2021-12-28T01:31:58Z</time>
      </trkpt>
      <trkpt lat="45.84116" lon="5.04858">
        <ele>188</ele>
        <time>2021-12-28T01:32:01Z</time>
      </trkpt>
      <trkpt lat="45.84114" lon="5.04875">
        <ele>188</ele>
        <time>2021-12-28T01:32:03Z</time>
      </trkpt>
      <trkpt lat="45.84117" lon="5.04891">
        <ele>188</ele>
        <time>2021-12-28T01:32:05Z</time>
      </trkpt>
      <trkpt lat="45.84114" lon="5.04904">
        <ele>188</ele>
        <time>2021-12-28T01:32:06Z</time>
      </trkpt>
      <trkpt lat="45.84098" lon="5.04933">
        <ele>187</ele>
        <time>2021-12-28T01:32:11Z</time>
      </trkpt>
      <trkpt lat="45.84063" lon="5.04958">
        <ele>187</ele>
        <time>2021-12-28T01:32:18Z</time>
      </trkpt>
      <trkpt lat="45.8402" lon="5.0498">
        <ele>186</ele>
        <time>2021-12-28T01:32:26Z</time>
      </trkpt>
      <trkpt lat="45.83982" lon="5.04992">
        <ele>184</ele>
        <time>2021-12-28T01:32:33Z</time>
      </trkpt>
      <trkpt lat="45.83934" lon="5.05">
        <ele>183</ele>
        <time>2021-12-28T01:32:42Z</time>
      </trkpt>
      <trkpt lat="45.83884" lon="5.05004">
        <ele>182</ele>
        <time>2021-12-28T01:32:51Z</time>
      </trkpt>
      <trkpt lat="45.8386" lon="5.05022">
        <ele>182</ele>
        <time>2021-12-28T01:32:55Z</time>
      </trkpt>
      <trkpt lat="45.83855" lon="5.05012">
        <ele>182</ele>
        <time>2021-12-28T01:32:57Z</time>
      </trkpt>
      <trkpt lat="45.83846" lon="5.05009">
        <ele>182</ele>
        <time>2021-12-28T01:32:59Z</time>
      </trkpt>
      <trkpt lat="45.83838" lon="5.05015">
        <ele>182</ele>
        <time>2021-12-28T01:33:00Z</time>
      </trkpt>
      <trkpt lat="45.83836" lon="5.0502">
        <ele>182</ele>
        <time>2021-12-28T01:33:01Z</time>
      </trkpt>
      <trkpt lat="45.83835" lon="5.05031">
        <ele>183</ele>
        <time>2021-12-28T01:33:02Z</time>
      </trkpt>
      <trkpt lat="45.83838" lon="5.05041">
        <ele>183</ele>
        <time>2021-12-28T01:33:04Z</time>
      </trkpt>
      <trkpt lat="45.83841" lon="5.05045">
        <ele>183</ele>
        <time>2021-12-28T01:33:04Z</time>
      </trkpt>
      <trkpt lat="45.83825" lon="5.0512">
        <ele>187</ele>
        <time>2021-12-28T01:33:14Z</time>
      </trkpt>
      <trkpt lat="45.83744" lon="5.05617">
        <ele>189</ele>
        <time>2021-12-28T01:34:17Z</time>
      </trkpt>
      <trkpt lat="45.83729" lon="5.05675">
        <ele>189</ele>
        <time>2021-12-28T01:34:25Z</time>
      </trkpt>
      <trkpt lat="45.83714" lon="5.05777">
        <ele>189</ele>
        <time>2021-12-28T01:34:38Z</time>
      </trkpt>
      <trkpt lat="45.83694" lon="5.05885">
        <ele>188</ele>
        <time>2021-12-28T01:34:52Z</time>
      </trkpt>
      <trkpt lat="45.83685" lon="5.05938">
        <ele>187</ele>
        <time>2021-12-28T01:34:59Z</time>
      </trkpt>
      <trkpt lat="45.83669" lon="5.06089">
        <ele>186</ele>
        <time>2021-12-28T01:35:17Z</time>
      </trkpt>
      <trkpt lat="45.83668" lon="5.06194">
        <ele>189</ele>
        <time>2021-12-28T01:35:31Z</time>
      </trkpt>
      <trkpt lat="45.83647" lon="5.06286">
        <ele>191</ele>
        <time>2021-12-28T01:35:43Z</time>
      </trkpt>
      <trkpt lat="45.83639" lon="5.0631">
        <ele>190</ele>
        <time>2021-12-28T01:35:46Z</time>
      </trkpt>
      <trkpt lat="45.83634" lon="5.06311">
        <ele>190</ele>
        <time>2021-12-28T01:35:47Z</time>
      </trkpt>
      <trkpt lat="45.83628" lon="5.06314">
        <ele>190</ele>
        <time>2021-12-28T01:35:48Z</time>
      </trkpt>
      <trkpt lat="45.83621" lon="5.06326">
        <ele>189</ele>
        <time>2021-12-28T01:35:50Z</time>
      </trkpt>
      <trkpt lat="45.8362" lon="5.06335">
        <ele>189</ele>
        <time>2021-12-28T01:35:51Z</time>
      </trkpt>
      <trkpt lat="45.83624" lon="5.06349">
        <ele>189</ele>
        <time>2021-12-28T01:35:53Z</time>
      </trkpt>
      <trkpt lat="45.8363" lon="5.06356">
        <ele>190</ele>
        <time>2021-12-28T01:35:54Z</time>
      </trkpt>
      <trkpt lat="45.83634" lon="5.06375">
        <ele>190</ele>
        <time>2021-12-28T01:35:57Z</time>
      </trkpt>
      <trkpt lat="45.83635" lon="5.06409">
        <ele>190</ele>
        <time>2021-12-28T01:36:01Z</time>
      </trkpt>
      <trkpt lat="45.83631" lon="5.06436">
        <ele>190</ele>
        <time>2021-12-28T01:36:04Z</time>
      </trkpt>
      <trkpt lat="45.83606" lon="5.06542">
        <ele>189</ele>
        <time>2021-12-28T01:36:18Z</time>
      </trkpt>
      <trkpt lat="45.83601" lon="5.06587">
        <ele>189</ele>
        <time>2021-12-28T01:36:24Z</time>
      </trkpt>
      <trkpt lat="45.83592" lon="5.06615">
        <ele>188</ele>
        <time>2021-12-28T01:36:28Z</time>
      </trkpt>
      <trkpt lat="45.83587" lon="5.06621">
        <ele>188</ele>
        <time>2021-12-28T01:36:29Z</time>
      </trkpt>
      <trkpt lat="45.83577" lon="5.06627">
        <ele>188</ele>
        <time>2021-12-28T01:36:31Z</time>
      </trkpt>
      <trkpt lat="45.83543" lon="5.06633">
        <ele>186</ele>
        <time>2021-12-28T01:36:37Z</time>
      </trkpt>
      <trkpt lat="45.83273" lon="5.06641">
        <ele>183</ele>
        <time>2021-12-28T01:37:25Z</time>
      </trkpt>
      <trkpt lat="45.83232" lon="5.06646">
        <ele>183</ele>
        <time>2021-12-28T01:37:32Z</time>
      </trkpt>
      <trkpt lat="45.83189" lon="5.06657">
        <ele>183</ele>
        <time>2021-12-28T01:37:40Z</time>
      </trkpt>
      <trkpt lat="45.83146" lon="5.06675">
        <ele>183</ele>
        <time>2021-12-28T01:37:48Z</time>
      </trkpt>
      <trkpt lat="45.83106" lon="5.067">
        <ele>183</ele>
        <time>2021-12-28T01:37:56Z</time>
      </trkpt>
      <trkpt lat="45.83069" lon="5.0673">
        <ele>183</ele>
        <time>2021-12-28T01:38:03Z</time>
      </trkpt>
      <trkpt lat="45.82801" lon="5.07019">
        <ele>184</ele>
        <time>2021-12-28T01:39:03Z</time>
      </trkpt>
      <trkpt lat="45.82766" lon="5.07048">
        <ele>184</ele>
        <time>2021-12-28T01:39:10Z</time>
      </trkpt>
      <trkpt lat="45.82691" lon="5.071">
        <ele>183</ele>
        <time>2021-12-28T01:39:25Z</time>
      </trkpt>
      <trkpt lat="45.82612" lon="5.07137">
        <ele>182</ele>
        <time>2021-12-28T01:39:40Z</time>
      </trkpt>
      <trkpt lat="45.82533" lon="5.07165">
        <ele>183</ele>
        <time>2021-12-28T01:39:54Z</time>
      </trkpt>
      <trkpt lat="45.82301" lon="5.07216">
        <ele>183</ele>
        <time>2021-12-28T01:40:36Z</time>
      </trkpt>
      <trkpt lat="45.82269" lon="5.0722">
        <ele>183</ele>
        <time>2021-12-28T01:40:42Z</time>
      </trkpt>
      <trkpt lat="45.82205" lon="5.07231">
        <ele>182</ele>
        <time>2021-12-28T01:40:53Z</time>
      </trkpt>
      <trkpt lat="45.82152" lon="5.07243">
        <ele>182</ele>
        <time>2021-12-28T01:41:03Z</time>
      </trkpt>
      <trkpt lat="45.82097" lon="5.07262">
        <ele>181</ele>
        <time>2021-12-28T01:41:13Z</time>
      </trkpt>
      <trkpt lat="45.82032" lon="5.0728">
        <ele>183</ele>
        <time>2021-12-28T01:41:24Z</time>
      </trkpt>
      <trkpt lat="45.81935" lon="5.073">
        <ele>182</ele>
        <time>2021-12-28T01:41:42Z</time>
      </trkpt>
      <trkpt lat="45.81909" lon="5.07307">
        <ele>182</ele>
        <time>2021-12-28T01:41:47Z</time>
      </trkpt>
      <trkpt lat="45.81859" lon="5.07333">
        <ele>182</ele>
        <time>2021-12-28T01:41:56Z</time>
      </trkpt>
      <trkpt lat="45.81842" lon="5.07345">
        <ele>182</ele>
        <time>2021-12-28T01:41:59Z</time>
      </trkpt>
      <trkpt lat="45.81817" lon="5.07367">
        <ele>183</ele>
        <time>2021-12-28T01:42:05Z</time>
      </trkpt>
      <trkpt lat="45.8179" lon="5.07397">
        <ele>183</ele>
        <time>2021-12-28T01:42:11Z</time>
      </trkpt>
      <trkpt lat="45.8177" lon="5.07426">
        <ele>184</ele>
        <time>2021-12-28T01:42:16Z</time>
      </trkpt>
      <trkpt lat="45.81754" lon="5.07455">
        <ele>183</ele>
        <time>2021-12-28T01:42:20Z</time>
      </trkpt>
      <trkpt lat="45.81733" lon="5.075">
        <ele>183</ele>
        <time>2021-12-28T01:42:27Z</time>
      </trkpt>
      <trkpt lat="45.81702" lon="5.07588">
        <ele>183</ele>
        <time>2021-12-28T01:42:39Z</time>
      </trkpt>
      <trkpt lat="45.81552" lon="5.08068">
        <ele>186</ele>
        <time>2021-12-28T01:43:45Z</time>
      </trkpt>
      <trkpt lat="45.81509" lon="5.08207">
        <ele>185</ele>
        <time>2021-12-28T01:44:03Z</time>
      </trkpt>
      <trkpt lat="45.815" lon="5.08233">
        <ele>185</ele>
        <time>2021-12-28T01:44:07Z</time>
      </trkpt>
      <trkpt lat="45.81437" lon="5.08427">
        <ele>185</ele>
        <time>2021-12-28T01:44:34Z</time>
      </trkpt>
      <trkpt lat="45.8143" lon="5.08466">
        <ele>185</ele>
        <time>2021-12-28T01:44:39Z</time>
      </trkpt>
      <trkpt lat="45.81428" lon="5.08494">
        <ele>185</ele>
        <time>2021-12-28T01:44:42Z</time>
      </trkpt>
      <trkpt lat="45.81427" lon="5.08532">
        <ele>185</ele>
        <time>2021-12-28T01:44:47Z</time>
      </trkpt>
      <trkpt lat="45.81441" lon="5.08695">
        <ele>183</ele>
        <time>2021-12-28T01:45:07Z</time>
      </trkpt>
      <trkpt lat="45.8144" lon="5.08738">
        <ele>185</ele>
        <time>2021-12-28T01:45:12Z</time>
      </trkpt>
      <trkpt lat="45.81437" lon="5.08758">
        <ele>185</ele>
        <time>2021-12-28T01:45:15Z</time>
      </trkpt>
      <trkpt lat="45.81433" lon="5.0878">
        <ele>185</ele>
        <time>2021-12-28T01:45:18Z</time>
      </trkpt>
      <trkpt lat="45.81421" lon="5.08808">
        <ele>186</ele>
        <time>2021-12-28T01:45:22Z</time>
      </trkpt>
      <trkpt lat="45.81403" lon="5.08841">
        <ele>186</ele>
        <time>2021-12-28T01:45:27Z</time>
      </trkpt>
      <trkpt lat="45.81385" lon="5.08861">
        <ele>186</ele>
        <time>2021-12-28T01:45:31Z</time>
      </trkpt>
      <trkpt lat="45.81367" lon="5.08877">
        <ele>187</ele>
        <time>2021-12-28T01:45:35Z</time>
      </trkpt>
      <trkpt lat="45.81344" lon="5.08891">
        <ele>187</ele>
        <time>2021-12-28T01:45:39Z</time>
      </trkpt>
      <trkpt lat="45.81323" lon="5.08899">
        <ele>187</ele>
        <time>2021-12-28T01:45:43Z</time>
      </trkpt>
      <trkpt lat="45.81291" lon="5.08903">
        <ele>187</ele>
        <time>2021-12-28T01:45:49Z</time>
      </trkpt>
      <trkpt lat="45.81252" lon="5.08905">
        <ele>187</ele>
        <time>2021-12-28T01:45:56Z</time>
      </trkpt>
      <trkpt lat="45.81063" lon="5.08896">
        <ele>193</ele>
        <time>2021-12-28T01:46:30Z</time>
      </trkpt>
      <trkpt lat="45.81047" lon="5.08895">
        <ele>197</ele>
        <time>2021-12-28T01:46:32Z</time>
      </trkpt>
      <trkpt lat="45.81026" lon="5.08884">
        <ele>201</ele>
        <time>2021-12-28T01:46:36Z</time>
      </trkpt>
      <trkpt lat="45.8102" lon="5.08878">
        <ele>202</ele>
        <time>2021-12-28T01:46:38Z</time>
      </trkpt>
      <trkpt lat="45.81014" lon="5.08864">
        <ele>203</ele>
        <time>2021-12-28T01:46:40Z</time>
      </trkpt>
      <trkpt lat="45.8101" lon="5.08845">
        <ele>203</ele>
        <time>2021-12-28T01:46:42Z</time>
      </trkpt>
      <trkpt lat="45.81014" lon="5.08703">
        <ele>205</ele>
        <time>2021-12-28T01:47:00Z</time>
      </trkpt>
      <trkpt lat="45.81021" lon="5.08648">
        <ele>204</ele>
        <time>2021-12-28T01:47:07Z</time>
      </trkpt>
      <trkpt lat="45.81024" lon="5.08607">
        <ele>202</ele>
        <time>2021-12-28T01:47:12Z</time>
      </trkpt>
      <trkpt lat="45.81022" lon="5.08545">
        <ele>202</ele>
        <time>2021-12-28T01:47:20Z</time>
      </trkpt>
      <trkpt lat="45.81015" lon="5.08473">
        <ele>204</ele>
        <time>2021-12-28T01:47:29Z</time>
      </trkpt>
      <trkpt lat="45.81005" lon="5.08408">
        <ele>205</ele>
        <time>2021-12-28T01:47:37Z</time>
      </trkpt>
      <trkpt lat="45.80997" lon="5.08376">
        <ele>205</ele>
        <time>2021-12-28T01:47:41Z</time>
      </trkpt>
      <trkpt lat="45.80986" lon="5.08351">
        <ele>204</ele>
        <time>2021-12-28T01:47:45Z</time>
      </trkpt>
      <trkpt lat="45.80972" lon="5.08332">
        <ele>204</ele>
        <time>2021-12-28T01:47:48Z</time>
      </trkpt>
      <trkpt lat="45.80955" lon="5.08319">
        <ele>205</ele>
        <time>2021-12-28T01:47:52Z</time>
      </trkpt>
      <trkpt lat="45.80937" lon="5.08311">
        <ele>207</ele>
        <time>2021-12-28T01:47:55Z</time>
      </trkpt>
      <trkpt lat="45.80911" lon="5.08309">
        <ele>209</ele>
        <time>2021-12-28T01:48:00Z</time>
      </trkpt>
      <trkpt lat="45.80894" lon="5.08314">
        <ele>210</ele>
        <time>2021-12-28T01:48:03Z</time>
      </trkpt>
      <trkpt lat="45.80824" lon="5.08349">
        <ele>212</ele>
        <time>2021-12-28T01:48:16Z</time>
      </trkpt>
      <trkpt lat="45.80495" lon="5.08591">
        <ele>213</ele>
        <time>2021-12-28T01:49:22Z</time>
      </trkpt>
      <trkpt lat="45.80338" lon="5.08706">
        <ele>212</ele>
        <time>2021-12-28T01:49:53Z</time>
      </trkpt>
      <trkpt lat="45.80306" lon="5.08723">
        <ele>210</ele>
        <time>2021-12-28T01:49:59Z</time>
      </trkpt>
      <trkpt lat="45.80288" lon="5.08728">
        <ele>209</ele>
        <time>2021-12-28T01:50:02Z</time>
      </trkpt>
      <trkpt lat="45.80254" lon="5.08732">
        <ele>207</ele>
        <time>2021-12-28T01:50:08Z</time>
      </trkpt>
      <trkpt lat="45.8022" lon="5.08726">
        <ele>205</ele>
        <time>2021-12-28T01:50:14Z</time>
      </trkpt>
      <trkpt lat="45.80201" lon="5.08717">
        <ele>204</ele>
        <time>2021-12-28T01:50:18Z</time>
      </trkpt>
      <trkpt lat="45.80187" lon="5.08708">
        <ele>203</ele>
        <time>2021-12-28T01:50:21Z</time>
      </trkpt>
      <trkpt lat="45.80167" lon="5.08698">
        <ele>202</ele>
        <time>2021-12-28T01:50:25Z</time>
      </trkpt>
      <trkpt lat="45.8015" lon="5.08692">
        <ele>202</ele>
        <time>2021-12-28T01:50:28Z</time>
      </trkpt>
      <trkpt lat="45.80141" lon="5.08685">
        <ele>202</ele>
        <time>2021-12-28T01:50:29Z</time>
      </trkpt>
      <trkpt lat="45.8014" lon="5.08677">
        <ele>202</ele>
        <time>2021-12-28T01:50:30Z</time>
      </trkpt>
      <trkpt lat="45.80135" lon="5.08665">
        <ele>202</ele>
        <time>2021-12-28T01:50:32Z</time>
      </trkpt>
      <trkpt lat="45.80127" lon="5.08659">
        <ele>202</ele>
        <time>2021-12-28T01:50:34Z</time>
      </trkpt>
      <trkpt lat="45.80119" lon="5.0866">
        <ele>202</ele>
        <time>2021-12-28T01:50:35Z</time>
      </trkpt>
      <trkpt lat="45.80111" lon="5.08668">
        <ele>202</ele>
        <time>2021-12-28T01:50:37Z</time>
      </trkpt>
      <trkpt lat="45.80108" lon="5.08675">
        <ele>202</ele>
        <time>2021-12-28T01:50:38Z</time>
      </trkpt>
      <trkpt lat="45.80108" lon="5.08689">
        <ele>202</ele>
        <time>2021-12-28T01:50:40Z</time>
      </trkpt>
      <trkpt lat="45.80116" lon="5.08711">
        <ele>202</ele>
        <time>2021-12-28T01:50:43Z</time>
      </trkpt>
      <trkpt lat="45.80117" lon="5.08724">
        <ele>202</ele>
        <time>2021-12-28T01:50:44Z</time>
      </trkpt>
      <trkpt lat="45.80111" lon="5.08766">
        <ele>202</ele>
        <time>2021-12-28T01:50:50Z</time>
      </trkpt>
      <trkpt lat="45.80111" lon="5.08776">
        <ele>202</ele>
        <time>2021-12-28T01:50:51Z</time>
      </trkpt>
      <trkpt lat="45.80093" lon="5.08838">
        <ele>201</ele>
        <time>2021-12-28T01:50:59Z</time>
      </trkpt>
      <trkpt lat="45.80085" lon="5.08874">
        <ele>201</ele>
        <time>2021-12-28T01:51:04Z</time>
      </trkpt>
      <trkpt lat="45.80081" lon="5.08903">
        <ele>201</ele>
        <time>2021-12-28T01:51:08Z</time>
      </trkpt>
      <trkpt lat="45.80068" lon="5.09162">
        <ele>204</ele>
        <time>2021-12-28T01:51:40Z</time>
      </trkpt>
      <trkpt lat="45.80059" lon="5.09211">
        <ele>205</ele>
        <time>2021-12-28T01:51:46Z</time>
      </trkpt>
      <trkpt lat="45.80033" lon="5.09326">
        <ele>207</ele>
        <time>2021-12-28T01:52:01Z</time>
      </trkpt>
      <trkpt lat="45.80024" lon="5.09357">
        <ele>208</ele>
        <time>2021-12-28T01:52:05Z</time>
      </trkpt>
      <trkpt lat="45.79958" lon="5.09536">
        <ele>212</ele>
        <time>2021-12-28T01:52:30Z</time>
      </trkpt>
      <trkpt lat="45.79916" lon="5.09654">
        <ele>206</ele>
        <time>2021-12-28T01:52:47Z</time>
      </trkpt>
      <trkpt lat="45.79878" lon="5.09762">
        <ele>205</ele>
        <time>2021-12-28T01:53:02Z</time>
      </trkpt>
      <trkpt lat="45.79814" lon="5.0991">
        <ele>206</ele>
        <time>2021-12-28T01:53:23Z</time>
      </trkpt>
      <trkpt lat="45.79734" lon="5.10206">
        <ele>205</ele>
        <time>2021-12-28T01:54:03Z</time>
      </trkpt>
      <trkpt lat="45.79706" lon="5.1031">
        <ele>207</ele>
        <time>2021-12-28T01:54:17Z</time>
      </trkpt>
      <trkpt lat="45.79695" lon="5.10346">
        <ele>208</ele>
        <time>2021-12-28T01:54:22Z</time>
      </trkpt>
      <trkpt lat="45.7969" lon="5.10359">
        <ele>208</ele>
        <time>2021-12-28T01:54:23Z</time>
      </trkpt>
      <trkpt lat="45.79653" lon="5.10432">
        <ele>209</ele>
        <time>2021-12-28T01:54:35Z</time>
      </trkpt>
      <trkpt lat="45.79595" lon="5.10578">
        <ele>208</ele>
        <time>2021-12-28T01:54:55Z</time>
      </trkpt>
      <trkpt lat="45.79528" lon="5.1072">
        <ele>206</ele>
        <time>2021-12-28T01:55:17Z</time>
      </trkpt>
      <trkpt lat="45.79513" lon="5.10767">
        <ele>207</ele>
        <time>2021-12-28T01:55:23Z</time>
      </trkpt>
      <trkpt lat="45.795" lon="5.10792">
        <ele>207</ele>
        <time>2021-12-28T01:55:27Z</time>
      </trkpt>
      <trkpt lat="45.79496" lon="5.10807">
        <ele>207</ele>
        <time>2021-12-28T01:55:29Z</time>
      </trkpt>
      <trkpt lat="45.79493" lon="5.10833">
        <ele>208</ele>
        <time>2021-12-28T01:55:32Z</time>
      </trkpt>
      <trkpt lat="45.79477" lon="5.10893">
        <ele>208</ele>
        <time>2021-12-28T01:55:40Z</time>
      </trkpt>
      <trkpt lat="45.79473" lon="5.10891">
        <ele>208</ele>
        <time>2021-12-28T01:55:41Z</time>
      </trkpt>
      <trkpt lat="45.79466" lon="5.10895">
        <ele>208</ele>
        <time>2021-12-28T01:55:42Z</time>
      </trkpt>
      <trkpt lat="45.79461" lon="5.10903">
        <ele>208</ele>
        <time>2021-12-28T01:55:44Z</time>
      </trkpt>
      <trkpt lat="45.79461" lon="5.10914">
        <ele>208</ele>
        <time>2021-12-28T01:55:45Z</time>
      </trkpt>
      <trkpt lat="45.79465" lon="5.10934">
        <ele>209</ele>
        <time>2021-12-28T01:55:48Z</time>
      </trkpt>
      <trkpt lat="45.79464" lon="5.10964">
        <ele>209</ele>
        <time>2021-12-28T01:55:51Z</time>
      </trkpt>
      <trkpt lat="45.79455" lon="5.11116">
        <ele>212</ele>
        <time>2021-12-28T01:56:10Z</time>
      </trkpt>
      <trkpt lat="45.79463" lon="5.11164">
        <ele>211</ele>
        <time>2021-12-28T01:56:16Z</time>
      </trkpt>
      <trkpt lat="45.79496" lon="5.11306">
        <ele>210</ele>
        <time>2021-12-28T01:56:35Z</time>
      </trkpt>
      <trkpt lat="45.79502" lon="5.11403">
        <ele>209</ele>
        <time>2021-12-28T01:56:47Z</time>
      </trkpt>
      <trkpt lat="45.79504" lon="5.11417">
        <ele>209</ele>
        <time>2021-12-28T01:56:49Z</time>
      </trkpt>
      <trkpt lat="45.79532" lon="5.11465">
        <ele>210</ele>
        <time>2021-12-28T01:56:57Z</time>
      </trkpt>
      <trkpt lat="45.79541" lon="5.11484">
        <ele>210</ele>
        <time>2021-12-28T01:56:59Z</time>
      </trkpt>
      <trkpt lat="45.79549" lon="5.11527">
        <ele>210</ele>
        <time>2021-12-28T01:57:05Z</time>
      </trkpt>
      <trkpt lat="45.79568" lon="5.1167">
        <ele>209</ele>
        <time>2021-12-28T01:57:23Z</time>
      </trkpt>
      <trkpt lat="45.79581" lon="5.11801">
        <ele>209</ele>
        <time>2021-12-28T01:57:39Z</time>
      </trkpt>
      <trkpt lat="45.79567" lon="5.1191">
        <ele>207</ele>
        <time>2021-12-28T01:57:53Z</time>
      </trkpt>
      <trkpt lat="45.79499" lon="5.12191">
        <ele>207</ele>
        <time>2021-12-28T01:58:30Z</time>
      </trkpt>
      <trkpt lat="45.79491" lon="5.12216">
        <ele>207</ele>
        <time>2021-12-28T01:58:33Z</time>
      </trkpt>
      <trkpt lat="45.79477" lon="5.12239">
        <ele>208</ele>
        <time>2021-12-28T01:58:37Z</time>
      </trkpt>
      <trkpt lat="45.79473" lon="5.12238">
        <ele>208</ele>
        <time>2021-12-28T01:58:38Z</time>
      </trkpt>
      <trkpt lat="45.79466" lon="5.1224">
        <ele>208</ele>
        <time>2021-12-28T01:58:39Z</time>
      </trkpt>
      <trkpt lat="45.79462" lon="5.12248">
        <ele>208</ele>
        <time>2021-12-28T01:58:40Z</time>
      </trkpt>
      <trkpt lat="45.79462" lon="5.12259">
        <ele>208</ele>
        <time>2021-12-28T01:58:42Z</time>
      </trkpt>
      <trkpt lat="45.79463" lon="5.12264">
        <ele>208</ele>
        <time>2021-12-28T01:58:43Z</time>
      </trkpt>
      <trkpt lat="45.7947" lon="5.1227">
        <ele>208</ele>
        <time>2021-12-28T01:58:44Z</time>
      </trkpt>
      <trkpt lat="45.79474" lon="5.12271">
        <ele>208</ele>
        <time>2021-12-28T01:58:45Z</time>
      </trkpt>
      <trkpt lat="45.79472" lon="5.12313">
        <ele>208</ele>
        <time>2021-12-28T01:58:50Z</time>
      </trkpt>
      <trkpt lat="45.79444" lon="5.12441">
        <ele>209</ele>
        <time>2021-12-28T01:59:07Z</time>
      </trkpt>
      <trkpt lat="45.79403" lon="5.12603">
        <ele>210</ele>
        <time>2021-12-28T01:59:28Z</time>
      </trkpt>
      <trkpt lat="45.79386" lon="5.1265">
        <ele>211</ele>
        <time>2021-12-28T01:59:34Z</time>
      </trkpt>
      <trkpt lat="45.7928" lon="5.12864">
        <ele>212</ele>
        <time>2021-12-28T02:00:07Z</time>
      </trkpt>
      <trkpt lat="45.79273" lon="5.12871">
        <ele>212</ele>
        <time>2021-12-28T02:00:09Z</time>
      </trkpt>
      <trkpt lat="45.79264" lon="5.12873">
        <ele>212</ele>
        <time>2021-12-28T02:00:10Z</time>
      </trkpt>
      <trkpt lat="45.79255" lon="5.12872">
        <ele>212</ele>
        <time>2021-12-28T02:00:12Z</time>
      </trkpt>
      <trkpt lat="45.79248" lon="5.12881">
        <ele>211</ele>
        <time>2021-12-28T02:00:13Z</time>
      </trkpt>
      <trkpt lat="45.79245" lon="5.12894">
        <ele>211</ele>
        <time>2021-12-28T02:00:15Z</time>
      </trkpt>
      <trkpt lat="45.7925" lon="5.12906">
        <ele>211</ele>
        <time>2021-12-28T02:00:17Z</time>
      </trkpt>
      <trkpt lat="45.79245" lon="5.12922">
        <ele>211</ele>
        <time>2021-12-28T02:00:19Z</time>
      </trkpt>
      <trkpt lat="45.79215" lon="5.1299">
        <ele>212</ele>
        <time>2021-12-28T02:00:29Z</time>
      </trkpt>
      <trkpt lat="45.79183" lon="5.13058">
        <ele>213</ele>
        <time>2021-12-28T02:00:39Z</time>
      </trkpt>
      <trkpt lat="45.79149" lon="5.13125">
        <ele>214</ele>
        <time>2021-12-28T02:00:50Z</time>
      </trkpt>
      <trkpt lat="45.79125" lon="5.13152">
        <ele>214</ele>
        <time>2021-12-28T02:00:55Z</time>
      </trkpt>
      <trkpt lat="45.79073" lon="5.13192">
        <ele>214</ele>
        <time>2021-12-28T02:01:05Z</time>
      </trkpt>
      <trkpt lat="45.79066" lon="5.13185">
        <ele>214</ele>
        <time>2021-12-28T02:01:07Z</time>
      </trkpt>
      <trkpt lat="45.79058" lon="5.1318">
        <ele>214</ele>
        <time>2021-12-28T02:01:09Z</time>
      </trkpt>
      <trkpt lat="45.79049" lon="5.1318">
        <ele>214</ele>
        <time>2021-12-28T02:01:10Z</time>
      </trkpt>
      <trkpt lat="45.79041" lon="5.13183">
        <ele>214</ele>
        <time>2021-12-28T02:01:12Z</time>
      </trkpt>
      <trkpt lat="45.79034" lon="5.13189">
        <ele>214</ele>
        <time>2021-12-28T02:01:13Z</time>
      </trkpt>
      <trkpt lat="45.79028" lon="5.13199">
        <ele>215</ele>
        <time>2021-12-28T02:01:15Z</time>
      </trkpt>
      <trkpt lat="45.79025" lon="5.1321">
        <ele>215</ele>
        <time>2021-12-28T02:01:16Z</time>
      </trkpt>
      <trkpt lat="45.79024" lon="5.13224">
        <ele>215</ele>
        <time>2021-12-28T02:01:18Z</time>
      </trkpt>
      <trkpt lat="45.79026" lon="5.13237">
        <ele>215</ele>
        <time>2021-12-28T02:01:20Z</time>
      </trkpt>
      <trkpt lat="45.79032" lon="5.13249">
        <ele>216</ele>
        <time>2021-12-28T02:01:21Z</time>
      </trkpt>
      <trkpt lat="45.79039" lon="5.13256">
        <ele>216</ele>
        <time>2021-12-28T02:01:23Z</time>
      </trkpt>
      <trkpt lat="45.79047" lon="5.1326">
        <ele>216</ele>
        <time>2021-12-28T02:01:24Z</time>
      </trkpt>
      <trkpt lat="45.79055" lon="5.13261">
        <ele>216</ele>
        <time>2021-12-28T02:01:26Z</time>
      </trkpt>
      <trkpt lat="45.79064" lon="5.13257">
        <ele>215</ele>
        <time>2021-12-28T02:01:28Z</time>
      </trkpt>
      <trkpt lat="45.79061" lon="5.13292">
        <ele>216</ele>
        <time>2021-12-28T02:01:32Z</time>
      </trkpt>
      <trkpt lat="45.79047" lon="5.13373">
        <ele>219</ele>
        <time>2021-12-28T02:01:42Z</time>
      </trkpt>
      <trkpt lat="45.79043" lon="5.13411">
        <ele>220</ele>
        <time>2021-12-28T02:01:47Z</time>
      </trkpt>
      <trkpt lat="45.79042" lon="5.13442">
        <ele>221</ele>
        <time>2021-12-28T02:01:51Z</time>
      </trkpt>
      <trkpt lat="45.79045" lon="5.13568">
        <ele>223</ele>
        <time>2021-12-28T02:02:06Z</time>
      </trkpt>
      <trkpt lat="45.79035" lon="5.13637">
        <ele>224</ele>
        <time>2021-12-28T02:02:15Z</time>
      </trkpt>
      <trkpt lat="45.79003" lon="5.13744">
        <ele>223</ele>
        <time>2021-12-28T02:02:30Z</time>
      </trkpt>
      <trkpt lat="45.78501" lon="5.14908">
        <ele>223</ele>
        <time>2021-12-28T02:05:19Z</time>
      </trkpt>
      <trkpt lat="45.78438" lon="5.15145">
        <ele>226</ele>
        <time>2021-12-28T02:05:51Z</time>
      </trkpt>
      <trkpt lat="45.78413" lon="5.15281">
        <ele>227</ele>
        <time>2021-12-28T02:06:08Z</time>
      </trkpt>
      <trkpt lat="45.78399" lon="5.15371">
        <ele>228</ele>
        <time>2021-12-28T02:06:20Z</time>
      </trkpt>
      <trkpt lat="45.78394" lon="5.15541">
        <ele>227</ele>
        <time>2021-12-28T02:06:41Z</time>
      </trkpt>
      <trkpt lat="45.78389" lon="5.15592">
        <ele>227</ele>
        <time>2021-12-28T02:06:47Z</time>
      </trkpt>
      <trkpt lat="45.78374" lon="5.15665">
        <ele>225</ele>
        <time>2021-12-28T02:06:57Z</time>
      </trkpt>
      <trkpt lat="45.78293" lon="5.1612">
        <ele>207</ele>
        <time>2021-12-28T02:07:55Z</time>
      </trkpt>
      <trkpt lat="45.78287" lon="5.16138">
        <ele>207</ele>
        <time>2021-12-28T02:07:58Z</time>
      </trkpt>
      <trkpt lat="45.78273" lon="5.16172">
        <ele>207</ele>
        <time>2021-12-28T02:08:02Z</time>
      </trkpt>
      <trkpt lat="45.78181" lon="5.16337">
        <ele>206</ele>
        <time>2021-12-28T02:08:29Z</time>
      </trkpt>
      <trkpt lat="45.78149" lon="5.16386">
        <ele>209</ele>
        <time>2021-12-28T02:08:37Z</time>
      </trkpt>
      <trkpt lat="45.7811" lon="5.16483">
        <ele>211</ele>
        <time>2021-12-28T02:08:51Z</time>
      </trkpt>
      <trkpt lat="45.78089" lon="5.16588">
        <ele>212</ele>
        <time>2021-12-28T02:09:04Z</time>
      </trkpt>
      <trkpt lat="45.78067" lon="5.16747">
        <ele>214</ele>
        <time>2021-12-28T02:09:25Z</time>
      </trkpt>
      <trkpt lat="45.7804" lon="5.16882">
        <ele>217</ele>
        <time>2021-12-28T02:09:42Z</time>
      </trkpt>
      <trkpt lat="45.78025" lon="5.16927">
        <ele>216</ele>
        <time>2021-12-28T02:09:48Z</time>
      </trkpt>
      <trkpt lat="45.78016" lon="5.16971">
        <ele>216</ele>
        <time>2021-12-28T02:09:54Z</time>
      </trkpt>
      <trkpt lat="45.77974" lon="5.17134">
        <ele>217</ele>
        <time>2021-12-28T02:10:15Z</time>
      </trkpt>
      <trkpt lat="45.77962" lon="5.17165">
        <ele>217</ele>
        <time>2021-12-28T02:10:20Z</time>
      </trkpt>
      <trkpt lat="45.77946" lon="5.17188">
        <ele>218</ele>
        <time>2021-12-28T02:10:24Z</time>
      </trkpt>
      <trkpt lat="45.77914" lon="5.17213">
        <ele>219</ele>
        <time>2021-12-28T02:10:30Z</time>
      </trkpt>
      <trkpt lat="45.77897" lon="5.17233">
        <ele>219</ele>
        <time>2021-12-28T02:10:34Z</time>
      </trkpt>
      <trkpt lat="45.7788" lon="5.17265">
        <ele>219</ele>
        <time>2021-12-28T02:10:39Z</time>
      </trkpt>
      <trkpt lat="45.77858" lon="5.17343">
        <ele>217</ele>
        <time>2021-12-28T02:10:50Z</time>
      </trkpt>
      <trkpt lat="45.77846" lon="5.17373">
        <ele>217</ele>
        <time>2021-12-28T02:10:54Z</time>
      </trkpt>
      <trkpt lat="45.77835" lon="5.17393">
        <ele>217</ele>
        <time>2021-12-28T02:10:57Z</time>
      </trkpt>
      <trkpt lat="45.77826" lon="5.17406">
        <ele>216</ele>
        <time>2021-12-28T02:10:59Z</time>
      </trkpt>
      <trkpt lat="45.77792" lon="5.17438">
        <ele>216</ele>
        <time>2021-12-28T02:11:07Z</time>
      </trkpt>
      <trkpt lat="45.77768" lon="5.17466">
        <ele>216</ele>
        <time>2021-12-28T02:11:12Z</time>
      </trkpt>
      <trkpt lat="45.7775" lon="5.17494">
        <ele>215</ele>
        <time>2021-12-28T02:11:17Z</time>
      </trkpt>
      <trkpt lat="45.77728" lon="5.1754">
        <ele>213</ele>
        <time>2021-12-28T02:11:24Z</time>
      </trkpt>
      <trkpt lat="45.77707" lon="5.17606">
        <ele>210</ele>
        <time>2021-12-28T02:11:33Z</time>
      </trkpt>
      <trkpt lat="45.77696" lon="5.17672">
        <ele>209</ele>
        <time>2021-12-28T02:11:41Z</time>
      </trkpt>
      <trkpt lat="45.77678" lon="5.17823">
        <ele>207</ele>
        <time>2021-12-28T02:12:00Z</time>
      </trkpt>
      <trkpt lat="45.77661" lon="5.17936">
        <ele>204</ele>
        <time>2021-12-28T02:12:15Z</time>
      </trkpt>
      <trkpt lat="45.77647" lon="5.18018">
        <ele>203</ele>
        <time>2021-12-28T02:12:25Z</time>
      </trkpt>
      <trkpt lat="45.77639" lon="5.18066">
        <ele>202</ele>
        <time>2021-12-28T02:12:31Z</time>
      </trkpt>
      <trkpt lat="45.77619" lon="5.1814">
        <ele>202</ele>
        <time>2021-12-28T02:12:41Z</time>
      </trkpt>
      <trkpt lat="45.77578" lon="5.18323">
        <ele>200</ele>
        <time>2021-12-28T02:13:05Z</time>
      </trkpt>
      <trkpt lat="45.77566" lon="5.18339">
        <ele>200</ele>
        <time>2021-12-28T02:13:08Z</time>
      </trkpt>
      <trkpt lat="45.77454" lon="5.18417">
        <ele>197</ele>
        <time>2021-12-28T02:13:30Z</time>
      </trkpt>
      <trkpt lat="45.77343" lon="5.18492">
        <ele>193</ele>
        <time>2021-12-28T02:13:52Z</time>
      </trkpt>
      <trkpt lat="45.77301" lon="5.18547">
        <ele>192</ele>
        <time>2021-12-28T02:14:02Z</time>
      </trkpt>
      <trkpt lat="45.77271" lon="5.18634">
        <ele>191</ele>
        <time>2021-12-28T02:14:14Z</time>
      </trkpt>
      <trkpt lat="45.77257" lon="5.18672">
        <ele>191</ele>
        <time>2021-12-28T02:14:19Z</time>
      </trkpt>
      <trkpt lat="45.77182" lon="5.18857">
        <ele>193</ele>
        <time>2021-12-28T02:14:46Z</time>
      </trkpt>
      <trkpt lat="45.77105" lon="5.19042">
        <ele>194</ele>
        <time>2021-12-28T02:15:13Z</time>
      </trkpt>
      <trkpt lat="45.77085" lon="5.19073">
        <ele>195</ele>
        <time>2021-12-28T02:15:18Z</time>
      </trkpt>
      <trkpt lat="45.77057" lon="5.19107">
        <ele>195</ele>
        <time>2021-12-28T02:15:24Z</time>
      </trkpt>
      <trkpt lat="45.76908" lon="5.19239">
        <ele>196</ele>
        <time>2021-12-28T02:15:56Z</time>
      </trkpt>
      <trkpt lat="45.76866" lon="5.19291">
        <ele>197</ele>
        <time>2021-12-28T02:16:05Z</time>
      </trkpt>
      <trkpt lat="45.76706" lon="5.19515">
        <ele>200</ele>
        <time>2021-12-28T02:16:45Z</time>
      </trkpt>
      <trkpt lat="45.76695" lon="5.19525">
        <ele>199</ele>
        <time>2021-12-28T02:16:47Z</time>
      </trkpt>
      <trkpt lat="45.76691" lon="5.19527">
        <ele>199</ele>
        <time>2021-12-28T02:16:48Z</time>
      </trkpt>
      <trkpt lat="45.76685" lon="5.19534">
        <ele>199</ele>
        <time>2021-12-28T02:16:50Z</time>
      </trkpt>
      <trkpt lat="45.7667" lon="5.1954">
        <ele>199</ele>
        <time>2021-12-28T02:16:52Z</time>
      </trkpt>
      <trkpt lat="45.76657" lon="5.19537">
        <ele>199</ele>
        <time>2021-12-28T02:16:55Z</time>
      </trkpt>
      <trkpt lat="45.7665" lon="5.19541">
        <ele>199</ele>
        <time>2021-12-28T02:16:56Z</time>
      </trkpt>
      <trkpt lat="45.76643" lon="5.1955">
        <ele>199</ele>
        <time>2021-12-28T02:16:58Z</time>
      </trkpt>
      <trkpt lat="45.7664" lon="5.19557">
        <ele>200</ele>
        <time>2021-12-28T02:16:59Z</time>
      </trkpt>
      <trkpt lat="45.76639" lon="5.19574">
        <ele>200</ele>
        <time>2021-12-28T02:17:01Z</time>
      </trkpt>
      <trkpt lat="45.7664" lon="5.19582">
        <ele>200</ele>
        <time>2021-12-28T02:17:02Z</time>
      </trkpt>
      <trkpt lat="45.76627" lon="5.19632">
        <ele>201</ele>
        <time>2021-12-28T02:17:09Z</time>
      </trkpt>
      <trkpt lat="45.76606" lon="5.19698">
        <ele>201</ele>
        <time>2021-12-28T02:17:18Z</time>
      </trkpt>
      <trkpt lat="45.76593" lon="5.19746">
        <ele>202</ele>
        <time>2021-12-28T02:17:24Z</time>
      </trkpt>
      <trkpt lat="45.76564" lon="5.19827">
        <ele>201</ele>
        <time>2021-12-28T02:17:35Z</time>
      </trkpt>
      <trkpt lat="45.76544" lon="5.19869">
        <ele>201</ele>
        <time>2021-12-28T02:17:42Z</time>
      </trkpt>
      <trkpt lat="45.76477" lon="5.19998">
        <ele>199</ele>
        <time>2021-12-28T02:18:01Z</time>
      </trkpt>
      <trkpt lat="45.76239" lon="5.20461">
        <ele>198</ele>
        <time>2021-12-28T02:19:13Z</time>
      </trkpt>
      <trkpt lat="45.76189" lon="5.20552">
        <ele>198</ele>
        <time>2021-12-28T02:19:27Z</time>
      </trkpt>
      <trkpt lat="45.76168" lon="5.20603">
        <ele>198</ele>
        <time>2021-12-28T02:19:35Z</time>
      </trkpt>
      <trkpt lat="45.76152" lon="5.20653">
        <ele>199</ele>
        <time>2021-12-28T02:19:41Z</time>
      </trkpt>
      <trkpt lat="45.76125" lon="5.20742">
        <ele>198</ele>
        <time>2021-12-28T02:19:53Z</time>
      </trkpt>
      <trkpt lat="45.76105" lon="5.20777">
        <ele>198</ele>
        <time>2021-12-28T02:19:59Z</time>
      </trkpt>
      <trkpt lat="45.76065" lon="5.20823">
        <ele>199</ele>
        <time>2021-12-28T02:20:08Z</time>
      </trkpt>
      <trkpt lat="45.76057" lon="5.2082">
        <ele>199</ele>
        <time>2021-12-28T02:20:10Z</time>
      </trkpt>
      <trkpt lat="45.7605" lon="5.20821">
        <ele>199</ele>
        <time>2021-12-28T02:20:11Z</time>
      </trkpt>
      <trkpt lat="45.76043" lon="5.20825">
        <ele>199</ele>
        <time>2021-12-28T02:20:12Z</time>
      </trkpt>
      <trkpt lat="45.76037" lon="5.20832">
        <ele>200</ele>
        <time>2021-12-28T02:20:14Z</time>
      </trkpt>
      <trkpt lat="45.76033" lon="5.20841">
        <ele>200</ele>
        <time>2021-12-28T02:20:15Z</time>
      </trkpt>
      <trkpt lat="45.76031" lon="5.20852">
        <ele>200</ele>
        <time>2021-12-28T02:20:16Z</time>
      </trkpt>
      <trkpt lat="45.76031" lon="5.20863">
        <ele>200</ele>
        <time>2021-12-28T02:20:18Z</time>
      </trkpt>
      <trkpt lat="45.76033" lon="5.20874">
        <ele>201</ele>
        <time>2021-12-28T02:20:19Z</time>
      </trkpt>
      <trkpt lat="45.76038" lon="5.20883">
        <ele>201</ele>
        <time>2021-12-28T02:20:21Z</time>
      </trkpt>
      <trkpt lat="45.76045" lon="5.20889">
        <ele>201</ele>
        <time>2021-12-28T02:20:22Z</time>
      </trkpt>
      <trkpt lat="45.76052" lon="5.20893">
        <ele>201</ele>
        <time>2021-12-28T02:20:23Z</time>
      </trkpt>
      <trkpt lat="45.76045" lon="5.20917">
        <ele>201</ele>
        <time>2021-12-28T02:20:27Z</time>
      </trkpt>
      <trkpt lat="45.76012" lon="5.20984">
        <ele>203</ele>
        <time>2021-12-28T02:20:37Z</time>
      </trkpt>
      <trkpt lat="45.75961" lon="5.21071">
        <ele>202</ele>
        <time>2021-12-28T02:20:51Z</time>
      </trkpt>
      <trkpt lat="45.7594" lon="5.21114">
        <ele>202</ele>
        <time>2021-12-28T02:20:57Z</time>
      </trkpt>
      <trkpt lat="45.75843" lon="5.21414">
        <ele>204</ele>
        <time>2021-12-28T02:21:38Z</time>
      </trkpt>
      <trkpt lat="45.75833" lon="5.21453">
        <ele>204</ele>
        <time>2021-12-28T02:21:44Z</time>
      </trkpt>
      <trkpt lat="45.75822" lon="5.21532">
        <ele>204</ele>
        <time>2021-12-28T02:21:54Z</time>
      </trkpt>
      <trkpt lat="45.75798" lon="5.21748">
        <ele>205</ele>
        <time>2021-12-28T02:22:21Z</time>
      </trkpt>
      <trkpt lat="45.75786" lon="5.21829">
        <ele>203</ele>
        <time>2021-12-28T02:22:31Z</time>
      </trkpt>
      <trkpt lat="45.75778" lon="5.21849">
        <ele>202</ele>
        <time>2021-12-28T02:22:34Z</time>
      </trkpt>
      <trkpt lat="45.75753" lon="5.21878">
        <ele>202</ele>
        <time>2021-12-28T02:22:40Z</time>
      </trkpt>
      <trkpt lat="45.75728" lon="5.2189">
        <ele>202</ele>
        <time>2021-12-28T02:22:44Z</time>
      </trkpt>
      <trkpt lat="45.75739" lon="5.21929">
        <ele>202</ele>
        <time>2021-12-28T02:22:50Z</time>
      </trkpt>
      <trkpt lat="45.75742" lon="5.21954">
        <ele>202</ele>
        <time>2021-12-28T02:22:53Z</time>
      </trkpt>
      <trkpt lat="45.75741" lon="5.21994">
        <ele>201</ele>
        <time>2021-12-28T02:22:58Z</time>
      </trkpt>
      <trkpt lat="45.75732" lon="5.22062">
        <ele>202</ele>
        <time>2021-12-28T02:23:06Z</time>
      </trkpt>
      <trkpt lat="45.75729" lon="5.22108">
        <ele>203</ele>
        <time>2021-12-28T02:23:12Z</time>
      </trkpt>
      <trkpt lat="45.7573" lon="5.22181">
        <ele>203</ele>
        <time>2021-12-28T02:23:21Z</time>
      </trkpt>
      <trkpt lat="45.75733" lon="5.2223">
        <ele>204</ele>
        <time>2021-12-28T02:23:27Z</time>
      </trkpt>
      <trkpt lat="45.75741" lon="5.22274">
        <ele>204</ele>
        <time>2021-12-28T02:23:33Z</time>
      </trkpt>
      <trkpt lat="45.7575" lon="5.22308">
        <ele>204</ele>
        <time>2021-12-28T02:23:37Z</time>
      </trkpt>
      <trkpt lat="45.75794" lon="5.22409">
        <ele>204</ele>
        <time>2021-12-28T02:23:52Z</time>
      </trkpt>
      <trkpt lat="45.7584" lon="5.22523">
        <ele>205</ele>
        <time>2021-12-28T02:24:08Z</time>
      </trkpt>
      <trkpt lat="45.75921" lon="5.22624">
        <ele>205</ele>
        <time>2021-12-28T02:24:28Z</time>
      </trkpt>
      <trkpt lat="45.76035" lon="5.22773">
        <ele>202</ele>
        <time>2021-12-28T02:24:55Z</time>
      </trkpt>
      <trkpt lat="45.76069" lon="5.22846">
        <ele>201</ele>
        <time>2021-12-28T02:25:06Z</time>
      </trkpt>
      <trkpt lat="45.76299" lon="5.23371">
        <ele>200</ele>
        <time>2021-12-28T02:26:23Z</time>
      </trkpt>
      <trkpt lat="45.76586" lon="5.24154">
        <ele>200</ele>
        <time>2021-12-28T02:28:13Z</time>
      </trkpt>
      <trkpt lat="45.76599" lon="5.24197">
        <ele>200</ele>
        <time>2021-12-28T02:28:18Z</time>
      </trkpt>
      <trkpt lat="45.76608" lon="5.24243">
        <ele>200</ele>
        <time>2021-12-28T02:28:24Z</time>
      </trkpt>
      <trkpt lat="45.76641" lon="5.24528">
        <ele>201</ele>
        <time>2021-12-28T02:29:00Z</time>
      </trkpt>
      <trkpt lat="45.76648" lon="5.2457">
        <ele>201</ele>
        <time>2021-12-28T02:29:06Z</time>
      </trkpt>
      <trkpt lat="45.76659" lon="5.2461">
        <ele>201</ele>
        <time>2021-12-28T02:29:11Z</time>
      </trkpt>
      <trkpt lat="45.7667" lon="5.24638">
        <ele>202</ele>
        <time>2021-12-28T02:29:15Z</time>
      </trkpt>
      <trkpt lat="45.76701" lon="5.24707">
        <ele>202</ele>
        <time>2021-12-28T02:29:25Z</time>
      </trkpt>
      <trkpt lat="45.76748" lon="5.24806">
        <ele>203</ele>
        <time>2021-12-28T02:29:40Z</time>
      </trkpt>
      <trkpt lat="45.76774" lon="5.24868">
        <ele>203</ele>
        <time>2021-12-28T02:29:49Z</time>
      </trkpt>
      <trkpt lat="45.76792" lon="5.24919">
        <ele>202</ele>
        <time>2021-12-28T02:29:56Z</time>
      </trkpt>
      <trkpt lat="45.76804" lon="5.24963">
        <ele>202</ele>
        <time>2021-12-28T02:30:02Z</time>
      </trkpt>
      <trkpt lat="45.76824" lon="5.25056">
        <ele>203</ele>
        <time>2021-12-28T02:30:14Z</time>
      </trkpt>
      <trkpt lat="45.76838" lon="5.25097">
        <ele>203</ele>
        <time>2021-12-28T02:30:20Z</time>
      </trkpt>
      <trkpt lat="45.76857" lon="5.2514">
        <ele>204</ele>
        <time>2021-12-28T02:30:26Z</time>
      </trkpt>
      <trkpt lat="45.76875" lon="5.25172">
        <ele>204</ele>
        <time>2021-12-28T02:30:31Z</time>
      </trkpt>
      <trkpt lat="45.76969" lon="5.2532">
        <ele>204</ele>
        <time>2021-12-28T02:30:56Z</time>
      </trkpt>
      <trkpt lat="45.76997" lon="5.2538">
        <ele>204</ele>
        <time>2021-12-28T02:31:05Z</time>
      </trkpt>
      <trkpt lat="45.77041" lon="5.25545">
        <ele>205</ele>
        <time>2021-12-28T02:31:27Z</time>
      </trkpt>
      <trkpt lat="45.77055" lon="5.25591">
        <ele>205</ele>
        <time>2021-12-28T02:31:33Z</time>
      </trkpt>
      <trkpt lat="45.77074" lon="5.25671">
        <ele>206</ele>
        <time>2021-12-28T02:31:44Z</time>
      </trkpt>
      <trkpt lat="45.77072" lon="5.25691">
        <ele>206</ele>
        <time>2021-12-28T02:31:46Z</time>
      </trkpt>
      <trkpt lat="45.77075" lon="5.25702">
        <ele>205</ele>
        <time>2021-12-28T02:31:48Z</time>
      </trkpt>
      <trkpt lat="45.77069" lon="5.25712">
        <ele>205</ele>
        <time>2021-12-28T02:31:49Z</time>
      </trkpt>
      <trkpt lat="45.77068" lon="5.25721">
        <ele>205</ele>
        <time>2021-12-28T02:31:50Z</time>
      </trkpt>
      <trkpt lat="45.77068" lon="5.25729">
        <ele>205</ele>
        <time>2021-12-28T02:31:51Z</time>
      </trkpt>
      <trkpt lat="45.77073" lon="5.25741">
        <ele>205</ele>
        <time>2021-12-28T02:31:53Z</time>
      </trkpt>
      <trkpt lat="45.77077" lon="5.25753">
        <ele>205</ele>
        <time>2021-12-28T02:31:55Z</time>
      </trkpt>
      <trkpt lat="45.77084" lon="5.25762">
        <ele>205</ele>
        <time>2021-12-28T02:31:56Z</time>
      </trkpt>
      <trkpt lat="45.7709" lon="5.25779">
        <ele>205</ele>
        <time>2021-12-28T02:31:59Z</time>
      </trkpt>
      <trkpt lat="45.77096" lon="5.25783">
        <ele>205</ele>
        <time>2021-12-28T02:32:00Z</time>
      </trkpt>
      <trkpt lat="45.77121" lon="5.25848">
        <ele>205</ele>
        <time>2021-12-28T02:32:09Z</time>
      </trkpt>
      <trkpt lat="45.77331" lon="5.2664">
        <ele>216</ele>
        <time>2021-12-28T02:33:54Z</time>
      </trkpt>
      <trkpt lat="45.77363" lon="5.26737">
        <ele>219</ele>
        <time>2021-12-28T02:34:08Z</time>
      </trkpt>
      <trkpt lat="45.77401" lon="5.26897">
        <ele>219</ele>
        <time>2021-12-28T02:34:29Z</time>
      </trkpt>
      <trkpt lat="45.77406" lon="5.26933">
        <ele>219</ele>
        <time>2021-12-28T02:34:33Z</time>
      </trkpt>
      <trkpt lat="45.77406" lon="5.26961">
        <ele>220</ele>
        <time>2021-12-28T02:34:37Z</time>
      </trkpt>
      <trkpt lat="45.7741" lon="5.26993">
        <ele>221</ele>
        <time>2021-12-28T02:34:41Z</time>
      </trkpt>
      <trkpt lat="45.77429" lon="5.27038">
        <ele>222</ele>
        <time>2021-12-28T02:34:47Z</time>
      </trkpt>
      <trkpt lat="45.77441" lon="5.2706">
        <ele>222</ele>
        <time>2021-12-28T02:34:51Z</time>
      </trkpt>
      <trkpt lat="45.77476" lon="5.2711">
        <ele>225</ele>
        <time>2021-12-28T02:34:59Z</time>
      </trkpt>
      <trkpt lat="45.77499" lon="5.27131">
        <ele>227</ele>
        <time>2021-12-28T02:35:04Z</time>
      </trkpt>
      <trkpt lat="45.77513" lon="5.27137">
        <ele>228</ele>
        <time>2021-12-28T02:35:07Z</time>
      </trkpt>
      <trkpt lat="45.77539" lon="5.27143">
        <ele>228</ele>
        <time>2021-12-28T02:35:12Z</time>
      </trkpt>
      <trkpt lat="45.7757" lon="5.27162">
        <ele>229</ele>
        <time>2021-12-28T02:35:18Z</time>
      </trkpt>
      <trkpt lat="45.77641" lon="5.2724">
        <ele>229</ele>
        <time>2021-12-28T02:35:33Z</time>
      </trkpt>
      <trkpt lat="45.77656" lon="5.27271">
        <ele>230</ele>
        <time>2021-12-28T02:35:38Z</time>
      </trkpt>
      <trkpt lat="45.7766" lon="5.27291">
        <ele>230</ele>
        <time>2021-12-28T02:35:41Z</time>
      </trkpt>
      <trkpt lat="45.77662" lon="5.27336">
        <ele>231</ele>
        <time>2021-12-28T02:35:46Z</time>
      </trkpt>
      <trkpt lat="45.77655" lon="5.27519">
        <ele>231</ele>
        <time>2021-12-28T02:36:09Z</time>
      </trkpt>
      <trkpt lat="45.77627" lon="5.27673">
        <ele>230</ele>
        <time>2021-12-28T02:36:29Z</time>
      </trkpt>
      <trkpt lat="45.77624" lon="5.27714">
        <ele>231</ele>
        <time>2021-12-28T02:36:34Z</time>
      </trkpt>
      <trkpt lat="45.77623" lon="5.27753">
        <ele>232</ele>
        <time>2021-12-28T02:36:39Z</time>
      </trkpt>
      <trkpt lat="45.77616" lon="5.27815">
        <ele>232</ele>
        <time>2021-12-28T02:36:47Z</time>
      </trkpt>
      <trkpt lat="45.776" lon="5.27896">
        <ele>235</ele>
        <time>2021-12-28T02:36:57Z</time>
      </trkpt>
      <trkpt lat="45.77599" lon="5.27906">
        <ele>235</ele>
        <time>2021-12-28T02:36:58Z</time>
      </trkpt>
      <trkpt lat="45.77616" lon="5.28008">
        <ele>240</ele>
        <time>2021-12-28T02:37:11Z</time>
      </trkpt>
      <trkpt lat="45.77617" lon="5.28101">
        <ele>246</ele>
        <time>2021-12-28T02:37:23Z</time>
      </trkpt>
      <trkpt lat="45.77619" lon="5.28108">
        <ele>247</ele>
        <time>2021-12-28T02:37:24Z</time>
      </trkpt>
      <trkpt lat="45.77709" lon="5.2815">
        <ele>253</ele>
        <time>2021-12-28T02:37:41Z</time>
      </trkpt>
      <trkpt lat="45.77733" lon="5.28152">
        <ele>252</ele>
        <time>2021-12-28T02:37:45Z</time>
      </trkpt>
      <trkpt lat="45.7777" lon="5.28138">
        <ele>249</ele>
        <time>2021-12-28T02:37:52Z</time>
      </trkpt>
      <trkpt lat="45.77786" lon="5.28143">
        <ele>249</ele>
        <time>2021-12-28T02:37:55Z</time>
      </trkpt>
      <trkpt lat="45.77798" lon="5.28158">
        <ele>250</ele>
        <time>2021-12-28T02:37:57Z</time>
      </trkpt>
      <trkpt lat="45.77845" lon="5.28231">
        <ele>255</ele>
        <time>2021-12-28T02:38:10Z</time>
      </trkpt>
      <trkpt lat="45.77861" lon="5.28251">
        <ele>255</ele>
        <time>2021-12-28T02:38:14Z</time>
      </trkpt>
      <trkpt lat="45.77876" lon="5.28265">
        <ele>255</ele>
        <time>2021-12-28T02:38:17Z</time>
      </trkpt>
      <trkpt lat="45.77921" lon="5.28296">
        <ele>250</ele>
        <time>2021-12-28T02:38:26Z</time>
      </trkpt>
      <trkpt lat="45.7794" lon="5.28301">
        <ele>251</ele>
        <time>2021-12-28T02:38:29Z</time>
      </trkpt>
      <trkpt lat="45.78033" lon="5.28343">
        <ele>258</ele>
        <time>2021-12-28T02:38:46Z</time>
      </trkpt>
      <trkpt lat="45.7812" lon="5.28398">
        <ele>262</ele>
        <time>2021-12-28T02:39:03Z</time>
      </trkpt>
      <trkpt lat="45.78148" lon="5.2842">
        <ele>259</ele>
        <time>2021-12-28T02:39:09Z</time>
      </trkpt>
      <trkpt lat="45.78154" lon="5.28423">
        <ele>259</ele>
        <time>2021-12-28T02:39:10Z</time>
      </trkpt>
      <trkpt lat="45.78171" lon="5.28428">
        <ele>257</ele>
        <time>2021-12-28T02:39:13Z</time>
      </trkpt>
      <trkpt lat="45.78201" lon="5.28422">
        <ele>254</ele>
        <time>2021-12-28T02:39:19Z</time>
      </trkpt>
      <trkpt lat="45.78234" lon="5.28411">
        <ele>252</ele>
        <time>2021-12-28T02:39:25Z</time>
      </trkpt>
      <trkpt lat="45.78266" lon="5.28396">
        <ele>251</ele>
        <time>2021-12-28T02:39:31Z</time>
      </trkpt>
      <trkpt lat="45.78286" lon="5.28391">
        <ele>251</ele>
        <time>2021-12-28T02:39:34Z</time>
      </trkpt>
      <trkpt lat="45.783" lon="5.2839">
        <ele>251</ele>
        <time>2021-12-28T02:39:37Z</time>
      </trkpt>
      <trkpt lat="45.78318" lon="5.28395">
        <ele>252</ele>
        <time>2021-12-28T02:39:40Z</time>
      </trkpt>
      <trkpt lat="45.78333" lon="5.28401">
        <ele>252</ele>
        <time>2021-12-28T02:39:43Z</time>
      </trkpt>
      <trkpt lat="45.78399" lon="5.28451">
        <ele>250</ele>
        <time>2021-12-28T02:39:56Z</time>
      </trkpt>
      <trkpt lat="45.78474" lon="5.28518">
        <ele>248</ele>
        <time>2021-12-28T02:40:12Z</time>
      </trkpt>
      <trkpt lat="45.78484" lon="5.28521">
        <ele>248</ele>
        <time>2021-12-28T02:40:14Z</time>
      </trkpt>
      <trkpt lat="45.78522" lon="5.28514">
        <ele>246</ele>
        <time>2021-12-28T02:40:20Z</time>
      </trkpt>
      <trkpt lat="45.78545" lon="5.28495">
        <ele>246</ele>
        <time>2021-12-28T02:40:25Z</time>
      </trkpt>
      <trkpt lat="45.78566" lon="5.28473">
        <ele>244</ele>
        <time>2021-12-28T02:40:30Z</time>
      </trkpt>
      <trkpt lat="45.78604" lon="5.28491">
        <ele>243</ele>
        <time>2021-12-28T02:40:37Z</time>
      </trkpt>
      <trkpt lat="45.78718" lon="5.2859">
        <ele>239</ele>
        <time>2021-12-28T02:41:01Z</time>
      </trkpt>
      <trkpt lat="45.78746" lon="5.28608">
        <ele>238</ele>
        <time>2021-12-28T02:41:06Z</time>
      </trkpt>
      <trkpt lat="45.78787" lon="5.28615">
        <ele>238</ele>
        <time>2021-12-28T02:41:13Z</time>
      </trkpt>
      <trkpt lat="45.7889" lon="5.28684">
        <ele>232</ele>
        <time>2021-12-28T02:41:34Z</time>
      </trkpt>
      <trkpt lat="45.78923" lon="5.28693">
        <ele>230</ele>
        <time>2021-12-28T02:41:40Z</time>
      </trkpt>
      <trkpt lat="45.78973" lon="5.28693">
        <ele>228</ele>
        <time>2021-12-28T02:41:48Z</time>
      </trkpt>
      <trkpt lat="45.79019" lon="5.28697">
        <ele>226</ele>
        <time>2021-12-28T02:41:57Z</time>
      </trkpt>
      <trkpt lat="45.79088" lon="5.28712">
        <ele>224</ele>
        <time>2021-12-28T02:42:09Z</time>
      </trkpt>
      <trkpt lat="45.79138" lon="5.28735">
        <ele>226</ele>
        <time>2021-12-28T02:42:18Z</time>
      </trkpt>
      <trkpt lat="45.79213" lon="5.28788">
        <ele>228</ele>
        <time>2021-12-28T02:42:33Z</time>
      </trkpt>
      <trkpt lat="45.79309" lon="5.2886">
        <ele>228</ele>
        <time>2021-12-28T02:42:53Z</time>
      </trkpt>
      <trkpt lat="45.79336" lon="5.28896">
        <ele>226</ele>
        <time>2021-12-28T02:42:59Z</time>
      </trkpt>
      <trkpt lat="45.79355" lon="5.28945">
        <ele>226</ele>
        <time>2021-12-28T02:43:06Z</time>
      </trkpt>
      <trkpt lat="45.794" lon="5.29032">
        <ele>230</ele>
        <time>2021-12-28T02:43:20Z</time>
      </trkpt>
      <trkpt lat="45.79422" lon="5.29064">
        <ele>233</ele>
        <time>2021-12-28T02:43:25Z</time>
      </trkpt>
      <trkpt lat="45.79461" lon="5.29112">
        <ele>233</ele>
        <time>2021-12-28T02:43:34Z</time>
      </trkpt>
      <trkpt lat="45.79508" lon="5.29146">
        <ele>234</ele>
        <time>2021-12-28T02:43:44Z</time>
      </trkpt>
      <trkpt lat="45.79571" lon="5.29189">
        <ele>232</ele>
        <time>2021-12-28T02:43:56Z</time>
      </trkpt>
      <trkpt lat="45.79602" lon="5.29212">
        <ele>230</ele>
        <time>2021-12-28T02:44:02Z</time>
      </trkpt>
      <trkpt lat="45.79643" lon="5.29243">
        <ele>231</ele>
        <time>2021-12-28T02:44:10Z</time>
      </trkpt>
      <trkpt lat="45.79675" lon="5.29275">
        <ele>230</ele>
        <time>2021-12-28T02:44:17Z</time>
      </trkpt>
      <trkpt lat="45.79703" lon="5.29289">
        <ele>230</ele>
        <time>2021-12-28T02:44:23Z</time>
      </trkpt>
      <trkpt lat="45.79703" lon="5.29299">
        <ele>230</ele>
        <time>2021-12-28T02:44:24Z</time>
      </trkpt>
      <trkpt lat="45.79707" lon="5.29315">
        <ele>229</ele>
        <time>2021-12-28T02:44:26Z</time>
      </trkpt>
      <trkpt lat="45.79713" lon="5.29331">
        <ele>228</ele>
        <time>2021-12-28T02:44:28Z</time>
      </trkpt>
      <trkpt lat="45.79721" lon="5.29359">
        <ele>226</ele>
        <time>2021-12-28T02:44:32Z</time>
      </trkpt>
      <trkpt lat="45.79729" lon="5.29453">
        <ele>219</ele>
        <time>2021-12-28T02:44:44Z</time>
      </trkpt>
      <trkpt lat="45.79736" lon="5.29472">
        <ele>218</ele>
        <time>2021-12-28T02:44:46Z</time>
      </trkpt>
      <trkpt lat="45.79756" lon="5.29506">
        <ele>217</ele>
        <time>2021-12-28T02:44:52Z</time>
      </trkpt>
      <trkpt lat="45.79761" lon="5.29512">
        <ele>217</ele>
        <time>2021-12-28T02:44:53Z</time>
      </trkpt>
      <trkpt lat="45.79768" lon="5.2952">
        <ele>217</ele>
        <time>2021-12-28T02:44:55Z</time>
      </trkpt>
      <trkpt lat="45.79775" lon="5.29552">
        <ele>217</ele>
        <time>2021-12-28T02:44:59Z</time>
      </trkpt>
      <trkpt lat="45.79785" lon="5.2959">
        <ele>217</ele>
        <time>2021-12-28T02:45:04Z</time>
      </trkpt>
      <trkpt lat="45.79805" lon="5.29645">
        <ele>216</ele>
        <time>2021-12-28T02:45:12Z</time>
      </trkpt>
      <trkpt lat="45.79831" lon="5.297">
        <ele>217</ele>
        <time>2021-12-28T02:45:20Z</time>
      </trkpt>
      <trkpt lat="45.79839" lon="5.29721">
        <ele>217</ele>
        <time>2021-12-28T02:45:23Z</time>
      </trkpt>
      <trkpt lat="45.79863" lon="5.29789">
        <ele>217</ele>
        <time>2021-12-28T02:45:32Z</time>
      </trkpt>
      <trkpt lat="45.79872" lon="5.29818">
        <ele>217</ele>
        <time>2021-12-28T02:45:36Z</time>
      </trkpt>
      <trkpt lat="45.79891" lon="5.29911">
        <ele>216</ele>
        <time>2021-12-28T02:45:48Z</time>
      </trkpt>
      <trkpt lat="45.7989" lon="5.29968">
        <ele>215</ele>
        <time>2021-12-28T02:45:55Z</time>
      </trkpt>
      <trkpt lat="45.79887" lon="5.29983">
        <ele>215</ele>
        <time>2021-12-28T02:45:57Z</time>
      </trkpt>
      <trkpt lat="45.79881" lon="5.29992">
        <ele>215</ele>
        <time>2021-12-28T02:45:59Z</time>
      </trkpt>
      <trkpt lat="45.79802" lon="5.3008">
        <ele>220</ele>
        <time>2021-12-28T02:46:17Z</time>
      </trkpt>
      <trkpt lat="45.7977" lon="5.30141">
        <ele>225</ele>
        <time>2021-12-28T02:46:26Z</time>
      </trkpt>
      <trkpt lat="45.79761" lon="5.30166">
        <ele>226</ele>
        <time>2021-12-28T02:46:30Z</time>
      </trkpt>
      <trkpt lat="45.79729" lon="5.30273">
        <ele>234</ele>
        <time>2021-12-28T02:46:44Z</time>
      </trkpt>
      <trkpt lat="45.79716" lon="5.30304">
        <ele>234</ele>
        <time>2021-12-28T02:46:49Z</time>
      </trkpt>
      <trkpt lat="45.79703" lon="5.30328">
        <ele>233</ele>
        <time>2021-12-28T02:46:52Z</time>
      </trkpt>
      <trkpt lat="45.79674" lon="5.30368">
        <ele>232</ele>
        <time>2021-12-28T02:46:59Z</time>
      </trkpt>
      <trkpt lat="45.79658" lon="5.30385">
        <ele>232</ele>
        <time>2021-12-28T02:47:03Z</time>
      </trkpt>
      <trkpt lat="45.79629" lon="5.30402">
        <ele>232</ele>
        <time>2021-12-28T02:47:09Z</time>
      </trkpt>
      <trkpt lat="45.79564" lon="5.30422">
        <ele>236</ele>
        <time>2021-12-28T02:47:20Z</time>
      </trkpt>
      <trkpt lat="45.79545" lon="5.30432">
        <ele>238</ele>
        <time>2021-12-28T02:47:24Z</time>
      </trkpt>
      <trkpt lat="45.79474" lon="5.30483">
        <ele>236</ele>
        <time>2021-12-28T02:47:38Z</time>
      </trkpt>
      <trkpt lat="45.79435" lon="5.30509">
        <ele>234</ele>
        <time>2021-12-28T02:47:46Z</time>
      </trkpt>
      <trkpt lat="45.79398" lon="5.30529">
        <ele>239</ele>
        <time>2021-12-28T02:47:53Z</time>
      </trkpt>
      <trkpt lat="45.79376" lon="5.30542">
        <ele>241</ele>
        <time>2021-12-28T02:47:57Z</time>
      </trkpt>
      <trkpt lat="45.79293" lon="5.30611">
        <ele>250</ele>
        <time>2021-12-28T02:48:14Z</time>
      </trkpt>
      <trkpt lat="45.79238" lon="5.30668">
        <ele>250</ele>
        <time>2021-12-28T02:48:26Z</time>
      </trkpt>
      <trkpt lat="45.79204" lon="5.30706">
        <ele>252</ele>
        <time>2021-12-28T02:48:34Z</time>
      </trkpt>
      <trkpt lat="45.79158" lon="5.30771">
        <ele>247</ele>
        <time>2021-12-28T02:48:45Z</time>
      </trkpt>
      <trkpt lat="45.79141" lon="5.30789">
        <ele>248</ele>
        <time>2021-12-28T02:48:49Z</time>
      </trkpt>
      <trkpt lat="45.79116" lon="5.30807">
        <ele>247</ele>
        <time>2021-12-28T02:48:54Z</time>
      </trkpt>
      <trkpt lat="45.79095" lon="5.30816">
        <ele>247</ele>
        <time>2021-12-28T02:48:58Z</time>
      </trkpt>
      <trkpt lat="45.79078" lon="5.30819">
        <ele>247</ele>
        <time>2021-12-28T02:49:01Z</time>
      </trkpt>
      <trkpt lat="45.7906" lon="5.30818">
        <ele>246</ele>
        <time>2021-12-28T02:49:04Z</time>
      </trkpt>
      <trkpt lat="45.79017" lon="5.30808">
        <ele>246</ele>
        <time>2021-12-28T02:49:12Z</time>
      </trkpt>
      <trkpt lat="45.78976" lon="5.30791">
        <ele>247</ele>
        <time>2021-12-28T02:49:20Z</time>
      </trkpt>
      <trkpt lat="45.78894" lon="5.30752">
        <ele>243</ele>
        <time>2021-12-28T02:49:35Z</time>
      </trkpt>
      <trkpt lat="45.78873" lon="5.30747">
        <ele>244</ele>
        <time>2021-12-28T02:49:39Z</time>
      </trkpt>
      <trkpt lat="45.78858" lon="5.30751">
        <ele>244</ele>
        <time>2021-12-28T02:49:41Z</time>
      </trkpt>
      <trkpt lat="45.78721" lon="5.308">
        <ele>262</ele>
        <time>2021-12-28T02:50:07Z</time>
      </trkpt>
      <trkpt lat="45.78674" lon="5.30805">
        <ele>260</ele>
        <time>2021-12-28T02:50:15Z</time>
      </trkpt>
      <trkpt lat="45.78655" lon="5.30802">
        <ele>258</ele>
        <time>2021-12-28T02:50:18Z</time>
      </trkpt>
      <trkpt lat="45.78638" lon="5.30794">
        <ele>255</ele>
        <time>2021-12-28T02:50:22Z</time>
      </trkpt>
      <trkpt lat="45.78598" lon="5.30764">
        <ele>249</ele>
        <time>2021-12-28T02:50:30Z</time>
      </trkpt>
      <trkpt lat="45.78582" lon="5.30764">
        <ele>249</ele>
        <time>2021-12-28T02:50:32Z</time>
      </trkpt>
      <trkpt lat="45.78563" lon="5.30772">
        <ele>251</ele>
        <time>2021-12-28T02:50:36Z</time>
      </trkpt>
      <trkpt lat="45.78551" lon="5.3079">
        <ele>253</ele>
        <time>2021-12-28T02:50:39Z</time>
      </trkpt>
      <trkpt lat="45.7853" lon="5.30826">
        <ele>253</ele>
        <time>2021-12-28T02:50:45Z</time>
      </trkpt>
      <trkpt lat="45.78518" lon="5.30835">
        <ele>252</ele>
        <time>2021-12-28T02:50:47Z</time>
      </trkpt>
      <trkpt lat="45.78468" lon="5.30862">
        <ele>259</ele>
        <time>2021-12-28T02:50:57Z</time>
      </trkpt>
      <trkpt lat="45.78451" lon="5.30878">
        <ele>261</ele>
        <time>2021-12-28T02:51:00Z</time>
      </trkpt>
      <trkpt lat="45.78437" lon="5.30902">
        <ele>261</ele>
        <time>2021-12-28T02:51:04Z</time>
      </trkpt>
      <trkpt lat="45.78424" lon="5.30954">
        <ele>267</ele>
        <time>2021-12-28T02:51:11Z</time>
      </trkpt>
      <trkpt lat="45.78414" lon="5.30984">
        <ele>272</ele>
        <time>2021-12-28T02:51:15Z</time>
      </trkpt>
      <trkpt lat="45.78396" lon="5.31007">
        <ele>277</ele>
        <time>2021-12-28T02:51:20Z</time>
      </trkpt>
      <trkpt lat="45.78374" lon="5.31016">
        <ele>279</ele>
        <time>2021-12-28T02:51:24Z</time>
      </trkpt>
      <trkpt lat="45.78336" lon="5.3101">
        <ele>275</ele>
        <time>2021-12-28T02:51:30Z</time>
      </trkpt>
      <trkpt lat="45.78273" lon="5.30985">
        <ele>280</ele>
        <time>2021-12-28T02:51:42Z</time>
      </trkpt>
      <trkpt lat="45.78194" lon="5.30948">
        <ele>273</ele>
        <time>2021-12-28T02:51:57Z</time>
      </trkpt>
      <trkpt lat="45.78148" lon="5.30939">
        <ele>268</ele>
        <time>2021-12-28T02:52:05Z</time>
      </trkpt>
      <trkpt lat="45.78132" lon="5.30939">
        <ele>268</ele>
        <time>2021-12-28T02:52:08Z</time>
      </trkpt>
      <trkpt lat="45.78118" lon="5.30947">
        <ele>270</ele>
        <time>2021-12-28T02:52:11Z</time>
      </trkpt>
      <trkpt lat="45.78095" lon="5.30977">
        <ele>272</ele>
        <time>2021-12-28T02:52:16Z</time>
      </trkpt>
      <trkpt lat="45.78066" lon="5.31002">
        <ele>274</ele>
        <time>2021-12-28T02:52:22Z</time>
      </trkpt>
      <trkpt lat="45.78033" lon="5.31015">
        <ele>278</ele>
        <time>2021-12-28T02:52:28Z</time>
      </trkpt>
      <trkpt lat="45.78021" lon="5.3103">
        <ele>279</ele>
        <time>2021-12-28T02:52:31Z</time>
      </trkpt>
      <trkpt lat="45.77993" lon="5.31076">
        <ele>275</ele>
        <time>2021-12-28T02:52:39Z</time>
      </trkpt>
      <trkpt lat="45.77975" lon="5.31092">
        <ele>276</ele>
        <time>2021-12-28T02:52:42Z</time>
      </trkpt>
      <trkpt lat="45.7793" lon="5.3111">
        <ele>279</ele>
        <time>2021-12-28T02:52:51Z</time>
      </trkpt>
      <trkpt lat="45.77845" lon="5.31126">
        <ele>278</ele>
        <time>2021-12-28T02:53:06Z</time>
      </trkpt>
      <trkpt lat="45.77822" lon="5.31137">
        <ele>279</ele>
        <time>2021-12-28T02:53:10Z</time>
      </trkpt>
      <trkpt lat="45.77798" lon="5.31161">
        <ele>279</ele>
        <time>2021-12-28T02:53:16Z</time>
      </trkpt>
      <trkpt lat="45.77742" lon="5.31243">
        <ele>280</ele>
        <time>2021-12-28T02:53:30Z</time>
      </trkpt>
      <trkpt lat="45.77718" lon="5.31272">
        <ele>284</ele>
        <time>2021-12-28T02:53:35Z</time>
      </trkpt>
      <trkpt lat="45.77702" lon="5.31279">
        <ele>285</ele>
        <time>2021-12-28T02:53:38Z</time>
      </trkpt>
      <trkpt lat="45.77624" lon="5.31298">
        <ele>283</ele>
        <time>2021-12-28T02:53:52Z</time>
      </trkpt>
      <trkpt lat="45.77501" lon="5.313">
        <ele>281</ele>
        <time>2021-12-28T02:54:14Z</time>
      </trkpt>
      <trkpt lat="45.77469" lon="5.31305">
        <ele>281</ele>
        <time>2021-12-28T02:54:20Z</time>
      </trkpt>
      <trkpt lat="45.77423" lon="5.31331">
        <ele>275</ele>
        <time>2021-12-28T02:54:29Z</time>
      </trkpt>
      <trkpt lat="45.77378" lon="5.31374">
        <ele>274</ele>
        <time>2021-12-28T02:54:38Z</time>
      </trkpt>
      <trkpt lat="45.77337" lon="5.3145">
        <ele>270</ele>
        <time>2021-12-28T02:54:50Z</time>
      </trkpt>
      <trkpt lat="45.77289" lon="5.31524">
        <ele>277</ele>
        <time>2021-12-28T02:55:03Z</time>
      </trkpt>
      <trkpt lat="45.77232" lon="5.31596">
        <ele>282</ele>
        <time>2021-12-28T02:55:16Z</time>
      </trkpt>
      <trkpt lat="45.77206" lon="5.31632">
        <ele>283</ele>
        <time>2021-12-28T02:55:23Z</time>
      </trkpt>
      <trkpt lat="45.77188" lon="5.31671">
        <ele>283</ele>
        <time>2021-12-28T02:55:29Z</time>
      </trkpt>
      <trkpt lat="45.77184" lon="5.31698">
        <ele>284</ele>
        <time>2021-12-28T02:55:32Z</time>
      </trkpt>
      <trkpt lat="45.77187" lon="5.31742">
        <ele>286</ele>
        <time>2021-12-28T02:55:38Z</time>
      </trkpt>
      <trkpt lat="45.77188" lon="5.31783">
        <ele>289</ele>
        <time>2021-12-28T02:55:43Z</time>
      </trkpt>
      <trkpt lat="45.77177" lon="5.31836">
        <ele>290</ele>
        <time>2021-12-28T02:55:50Z</time>
      </trkpt>
      <trkpt lat="45.77167" lon="5.31868">
        <ele>290</ele>
        <time>2021-12-28T02:55:54Z</time>
      </trkpt>
      <trkpt lat="45.77148" lon="5.31912">
        <ele>292</ele>
        <time>2021-12-28T02:56:00Z</time>
      </trkpt>
      <trkpt lat="45.77134" lon="5.31938">
        <ele>293</ele>
        <time>2021-12-28T02:56:04Z</time>
      </trkpt>
      <trkpt lat="45.77122" lon="5.31946">
        <ele>291</ele>
        <time>2021-12-28T02:56:07Z</time>
      </trkpt>
      <trkpt lat="45.76997" lon="5.31981">
        <ele>286</ele>
        <time>2021-12-28T02:56:29Z</time>
      </trkpt>
      <trkpt lat="45.7692" lon="5.32011">
        <ele>288</ele>
        <time>2021-12-28T02:56:44Z</time>
      </trkpt>
      <trkpt lat="45.76849" lon="5.3201">
        <ele>286</ele>
        <time>2021-12-28T02:56:56Z</time>
      </trkpt>
      <trkpt lat="45.76821" lon="5.32006">
        <ele>284</ele>
        <time>2021-12-28T02:57:01Z</time>
      </trkpt>
      <trkpt lat="45.76803" lon="5.32009">
        <ele>284</ele>
        <time>2021-12-28T02:57:04Z</time>
      </trkpt>
      <trkpt lat="45.76666" lon="5.32069">
        <ele>288</ele>
        <time>2021-12-28T02:57:30Z</time>
      </trkpt>
      <trkpt lat="45.76605" lon="5.32086">
        <ele>288</ele>
        <time>2021-12-28T02:57:41Z</time>
      </trkpt>
      <trkpt lat="45.76575" lon="5.32105">
        <ele>289</ele>
        <time>2021-12-28T02:57:47Z</time>
      </trkpt>
      <trkpt lat="45.7652" lon="5.32167">
        <ele>289</ele>
        <time>2021-12-28T02:57:59Z</time>
      </trkpt>
      <trkpt lat="45.76482" lon="5.32202">
        <ele>291</ele>
        <time>2021-12-28T02:58:07Z</time>
      </trkpt>
      <trkpt lat="45.76414" lon="5.32248">
        <ele>289</ele>
        <time>2021-12-28T02:58:21Z</time>
      </trkpt>
      <trkpt lat="45.76342" lon="5.32283">
        <ele>287</ele>
        <time>2021-12-28T02:58:34Z</time>
      </trkpt>
      <trkpt lat="45.76302" lon="5.32295">
        <ele>287</ele>
        <time>2021-12-28T02:58:41Z</time>
      </trkpt>
      <trkpt lat="45.76253" lon="5.32315">
        <ele>287</ele>
        <time>2021-12-28T02:58:51Z</time>
      </trkpt>
      <trkpt lat="45.76201" lon="5.32343">
        <ele>288</ele>
        <time>2021-12-28T02:59:00Z</time>
      </trkpt>
      <trkpt lat="45.76179" lon="5.3237">
        <ele>288</ele>
        <time>2021-12-28T02:59:06Z</time>
      </trkpt>
      <trkpt lat="45.76159" lon="5.32415">
        <ele>289</ele>
        <time>2021-12-28T02:59:12Z</time>
      </trkpt>
      <trkpt lat="45.76146" lon="5.32466">
        <ele>290</ele>
        <time>2021-12-28T02:59:19Z</time>
      </trkpt>
      <trkpt lat="45.76133" lon="5.32487">
        <ele>289</ele>
        <time>2021-12-28T02:59:22Z</time>
      </trkpt>
      <trkpt lat="45.7611" lon="5.32509">
        <ele>287</ele>
        <time>2021-12-28T02:59:27Z</time>
      </trkpt>
      <trkpt lat="45.76081" lon="5.32526">
        <ele>285</ele>
        <time>2021-12-28T02:59:33Z</time>
      </trkpt>
      <trkpt lat="45.76038" lon="5.32529">
        <ele>286</ele>
        <time>2021-12-28T02:59:41Z</time>
      </trkpt>
      <trkpt lat="45.76009" lon="5.32539">
        <ele>286</ele>
        <time>2021-12-28T02:59:46Z</time>
      </trkpt>
      <trkpt lat="45.75971" lon="5.32575">
        <ele>285</ele>
        <time>2021-12-28T02:59:54Z</time>
      </trkpt>
      <trkpt lat="45.75684" lon="5.32883">
        <ele>285</ele>
        <time>2021-12-28T03:00:58Z</time>
      </trkpt>
      <trkpt lat="45.75671" lon="5.32914">
        <ele>286</ele>
        <time>2021-12-28T03:01:02Z</time>
      </trkpt>
      <trkpt lat="45.75805" lon="5.32922">
        <ele>285</ele>
        <time>2021-12-28T03:01:26Z</time>
      </trkpt>
      <trkpt lat="45.76047" lon="5.32932">
        <ele>297</ele>
        <time>2021-12-28T03:02:09Z</time>
      </trkpt>
      <trkpt lat="45.76126" lon="5.32937">
        <ele>301</ele>
        <time>2021-12-28T03:02:23Z</time>
      </trkpt>
      <trkpt lat="45.7616" lon="5.32948">
        <ele>303</ele>
        <time>2021-12-28T03:02:30Z</time>
      </trkpt>
      <trkpt lat="45.76195" lon="5.32976">
        <ele>305</ele>
        <time>2021-12-28T03:02:37Z</time>
      </trkpt>
      <trkpt lat="45.76291" lon="5.33085">
        <ele>310</ele>
        <time>2021-12-28T03:02:58Z</time>
      </trkpt>
      <trkpt lat="45.76451" lon="5.3318">
        <ele>315</ele>
        <time>2021-12-28T03:03:29Z</time>
      </trkpt>
      <trkpt lat="45.76578" lon="5.33354">
        <ele>319</ele>
        <time>2021-12-28T03:04:01Z</time>
      </trkpt>
      <trkpt lat="45.76688" lon="5.33445">
        <ele>323</ele>
        <time>2021-12-28T03:04:23Z</time>
      </trkpt>
      <trkpt lat="45.76752" lon="5.33556">
        <ele>323</ele>
        <time>2021-12-28T03:04:41Z</time>
      </trkpt>
      <trkpt lat="45.7677" lon="5.33589">
        <ele>324</ele>
        <time>2021-12-28T03:04:46Z</time>
      </trkpt>
      <trkpt lat="45.76869" lon="5.33738">
        <ele>326</ele>
        <time>2021-12-28T03:05:12Z</time>
      </trkpt>
      <trkpt lat="45.77163" lon="5.34231">
        <ele>326</ele>
        <time>2021-12-28T03:06:32Z</time>
      </trkpt>
      <trkpt lat="45.77415" lon="5.34644">
        <ele>321</ele>
        <time>2021-12-28T03:07:40Z</time>
      </trkpt>
      <trkpt lat="45.77457" lon="5.34718">
        <ele>317</ele>
        <time>2021-12-28T03:07:52Z</time>
      </trkpt>
      <trkpt lat="45.77468" lon="5.34733">
        <ele>316</ele>
        <time>2021-12-28T03:07:55Z</time>
      </trkpt>
      <trkpt lat="45.77485" lon="5.34744">
        <ele>316</ele>
        <time>2021-12-28T03:07:58Z</time>
      </trkpt>
      <trkpt lat="45.77627" lon="5.3481">
        <ele>315</ele>
        <time>2021-12-28T03:08:25Z</time>
      </trkpt>
      <trkpt lat="45.77717" lon="5.34916">
        <ele>314</ele>
        <time>2021-12-28T03:08:45Z</time>
      </trkpt>
      <trkpt lat="45.77728" lon="5.34927">
        <ele>314</ele>
        <time>2021-12-28T03:08:48Z</time>
      </trkpt>
      <trkpt lat="45.77739" lon="5.34934">
        <ele>314</ele>
        <time>2021-12-28T03:08:50Z</time>
      </trkpt>
      <trkpt lat="45.77765" lon="5.34938">
        <ele>313</ele>
        <time>2021-12-28T03:08:55Z</time>
      </trkpt>
      <trkpt lat="45.77784" lon="5.34931">
        <ele>312</ele>
        <time>2021-12-28T03:08:58Z</time>
      </trkpt>
      <trkpt lat="45.77822" lon="5.34907">
        <ele>311</ele>
        <time>2021-12-28T03:09:06Z</time>
      </trkpt>
      <trkpt lat="45.77845" lon="5.349">
        <ele>311</ele>
        <time>2021-12-28T03:09:10Z</time>
      </trkpt>
      <trkpt lat="45.77907" lon="5.34915">
        <ele>314</ele>
        <time>2021-12-28T03:09:21Z</time>
      </trkpt>
      <trkpt lat="45.77936" lon="5.34931">
        <ele>315</ele>
        <time>2021-12-28T03:09:26Z</time>
      </trkpt>
      <trkpt lat="45.78" lon="5.35">
        <ele>316</ele>
        <time>2021-12-28T03:09:41Z</time>
      </trkpt>
      <trkpt lat="45.78081" lon="5.35098">
        <ele>315</ele>
        <time>2021-12-28T03:10:00Z</time>
      </trkpt>
      <trkpt lat="45.78147" lon="5.35233">
        <ele>314</ele>
        <time>2021-12-28T03:10:20Z</time>
      </trkpt>
      <trkpt lat="45.78161" lon="5.353">
        <ele>313</ele>
        <time>2021-12-28T03:10:29Z</time>
      </trkpt>
      <trkpt lat="45.78173" lon="5.35343">
        <ele>312</ele>
        <time>2021-12-28T03:10:34Z</time>
      </trkpt>
      <trkpt lat="45.78217" lon="5.3542">
        <ele>313</ele>
        <time>2021-12-28T03:10:47Z</time>
      </trkpt>
      <trkpt lat="45.78257" lon="5.35484">
        <ele>312</ele>
        <time>2021-12-28T03:10:57Z</time>
      </trkpt>
      <trkpt lat="45.78303" lon="5.356">
        <ele>311</ele>
        <time>2021-12-28T03:11:14Z</time>
      </trkpt>
      <trkpt lat="45.78325" lon="5.35631">
        <ele>310</ele>
        <time>2021-12-28T03:11:19Z</time>
      </trkpt>
      <trkpt lat="45.78582" lon="5.35776">
        <ele>301</ele>
        <time>2021-12-28T03:12:09Z</time>
      </trkpt>
      <trkpt lat="45.7861" lon="5.35775">
        <ele>299</ele>
        <time>2021-12-28T03:12:14Z</time>
      </trkpt>
      <trkpt lat="45.78799" lon="5.35672">
        <ele>299</ele>
        <time>2021-12-28T03:12:50Z</time>
      </trkpt>
      <trkpt lat="45.78857" lon="5.356">
        <ele>300</ele>
        <time>2021-12-28T03:13:03Z</time>
      </trkpt>
      <trkpt lat="45.79011" lon="5.35523">
        <ele>298</ele>
        <time>2021-12-28T03:13:32Z</time>
      </trkpt>
      <trkpt lat="45.79165" lon="5.35533">
        <ele>281</ele>
        <time>2021-12-28T03:14:00Z</time>
      </trkpt>
      <trkpt lat="45.794" lon="5.35623">
        <ele>262</ele>
        <time>2021-12-28T03:14:43Z</time>
      </trkpt>
      <trkpt lat="45.79428" lon="5.3563">
        <ele>261</ele>
        <time>2021-12-28T03:14:48Z</time>
      </trkpt>
      <trkpt lat="45.79444" lon="5.35625">
        <ele>261</ele>
        <time>2021-12-28T03:14:51Z</time>
      </trkpt>
      <trkpt lat="45.7946" lon="5.35615">
        <ele>260</ele>
        <time>2021-12-28T03:14:54Z</time>
      </trkpt>
      <trkpt lat="45.79511" lon="5.35574">
        <ele>260</ele>
        <time>2021-12-28T03:15:04Z</time>
      </trkpt>
      <trkpt lat="45.7952" lon="5.3557">
        <ele>260</ele>
        <time>2021-12-28T03:15:06Z</time>
      </trkpt>
      <trkpt lat="45.7953" lon="5.35569">
        <ele>260</ele>
        <time>2021-12-28T03:15:08Z</time>
      </trkpt>
      <trkpt lat="45.79541" lon="5.35572">
        <ele>260</ele>
        <time>2021-12-28T03:15:10Z</time>
      </trkpt>
      <trkpt lat="45.7955" lon="5.35579">
        <ele>259</ele>
        <time>2021-12-28T03:15:12Z</time>
      </trkpt>
      <trkpt lat="45.79562" lon="5.35594">
        <ele>259</ele>
        <time>2021-12-28T03:15:15Z</time>
      </trkpt>
      <trkpt lat="45.79578" lon="5.35608">
        <ele>258</ele>
        <time>2021-12-28T03:15:18Z</time>
      </trkpt>
      <trkpt lat="45.79754" lon="5.35738">
        <ele>254</ele>
        <time>2021-12-28T03:15:53Z</time>
      </trkpt>
      <trkpt lat="45.79893" lon="5.35866">
        <ele>255</ele>
        <time>2021-12-28T03:16:22Z</time>
      </trkpt>
      <trkpt lat="45.79922" lon="5.35898">
        <ele>255</ele>
        <time>2021-12-28T03:16:29Z</time>
      </trkpt>
      <trkpt lat="45.80448" lon="5.36521">
        <ele>255</ele>
        <time>2021-12-28T03:18:30Z</time>
      </trkpt>
      <trkpt lat="45.80473" lon="5.36546">
        <ele>255</ele>
        <time>2021-12-28T03:18:36Z</time>
      </trkpt>
      <trkpt lat="45.80488" lon="5.36557">
        <ele>254</ele>
        <time>2021-12-28T03:18:39Z</time>
      </trkpt>
      <trkpt lat="45.80517" lon="5.3657">
        <ele>253</ele>
        <time>2021-12-28T03:18:44Z</time>
      </trkpt>
      <trkpt lat="45.80589" lon="5.36596">
        <ele>252</ele>
        <time>2021-12-28T03:18:57Z</time>
      </trkpt>
      <trkpt lat="45.80624" lon="5.36612">
        <ele>252</ele>
        <time>2021-12-28T03:19:04Z</time>
      </trkpt>
      <trkpt lat="45.80643" lon="5.36622">
        <ele>252</ele>
        <time>2021-12-28T03:19:08Z</time>
      </trkpt>
      <trkpt lat="45.80715" lon="5.36679">
        <ele>253</ele>
        <time>2021-12-28T03:19:22Z</time>
      </trkpt>
      <trkpt lat="45.80775" lon="5.36707">
        <ele>253</ele>
        <time>2021-12-28T03:19:33Z</time>
      </trkpt>
      <trkpt lat="45.80795" lon="5.36718">
        <ele>253</ele>
        <time>2021-12-28T03:19:37Z</time>
      </trkpt>
      <trkpt lat="45.8086" lon="5.36794">
        <ele>251</ele>
        <time>2021-12-28T03:19:52Z</time>
      </trkpt>
      <trkpt lat="45.80869" lon="5.36813">
        <ele>251</ele>
        <time>2021-12-28T03:19:55Z</time>
      </trkpt>
      <trkpt lat="45.80889" lon="5.36942">
        <ele>251</ele>
        <time>2021-12-28T03:20:11Z</time>
      </trkpt>
      <trkpt lat="45.809" lon="5.36968">
        <ele>252</ele>
        <time>2021-12-28T03:20:15Z</time>
      </trkpt>
      <trkpt lat="45.80976" lon="5.37009">
        <ele>253</ele>
        <time>2021-12-28T03:20:30Z</time>
      </trkpt>
      <trkpt lat="45.80991" lon="5.37011">
        <ele>253</ele>
        <time>2021-12-28T03:20:32Z</time>
      </trkpt>
      <trkpt lat="45.81002" lon="5.37015">
        <ele>253</ele>
        <time>2021-12-28T03:20:34Z</time>
      </trkpt>
      <trkpt lat="45.81021" lon="5.37033">
        <ele>252</ele>
        <time>2021-12-28T03:20:38Z</time>
      </trkpt>
      <trkpt lat="45.81033" lon="5.37068">
        <ele>252</ele>
        <time>2021-12-28T03:20:43Z</time>
      </trkpt>
      <trkpt lat="45.81037" lon="5.37097">
        <ele>251</ele>
        <time>2021-12-28T03:20:47Z</time>
      </trkpt>
      <trkpt lat="45.8104" lon="5.37105">
        <ele>251</ele>
        <time>2021-12-28T03:20:48Z</time>
      </trkpt>
      <trkpt lat="45.81056" lon="5.37115">
        <ele>251</ele>
        <time>2021-12-28T03:20:51Z</time>
      </trkpt>
      <trkpt lat="45.81074" lon="5.37139">
        <ele>250</ele>
        <time>2021-12-28T03:20:55Z</time>
      </trkpt>
      <trkpt lat="45.81142" lon="5.37217">
        <ele>250</ele>
        <time>2021-12-28T03:21:11Z</time>
      </trkpt>
      <trkpt lat="45.81199" lon="5.37277">
        <ele>251</ele>
        <time>2021-12-28T03:21:24Z</time>
      </trkpt>
      <trkpt lat="45.81232" lon="5.37319">
        <ele>252</ele>
        <time>2021-12-28T03:21:31Z</time>
      </trkpt>
      <trkpt lat="45.81245" lon="5.37329">
        <ele>251</ele>
        <time>2021-12-28T03:21:34Z</time>
      </trkpt>
      <trkpt lat="45.81251" lon="5.37329">
        <ele>251</ele>
        <time>2021-12-28T03:21:35Z</time>
      </trkpt>
      <trkpt lat="45.81256" lon="5.37356">
        <ele>252</ele>
        <time>2021-12-28T03:21:39Z</time>
      </trkpt>
      <trkpt lat="45.81264" lon="5.37382">
        <ele>252</ele>
        <time>2021-12-28T03:21:42Z</time>
      </trkpt>
      <trkpt lat="45.81287" lon="5.37444">
        <ele>251</ele>
        <time>2021-12-28T03:21:51Z</time>
      </trkpt>
      <trkpt lat="45.81321" lon="5.37508">
        <ele>249</ele>
        <time>2021-12-28T03:22:01Z</time>
      </trkpt>
      <trkpt lat="45.81349" lon="5.37546">
        <ele>248</ele>
        <time>2021-12-28T03:22:08Z</time>
      </trkpt>
      <trkpt lat="45.81402" lon="5.3761">
        <ele>249</ele>
        <time>2021-12-28T03:22:20Z</time>
      </trkpt>
      <trkpt lat="45.81603" lon="5.37862">
        <ele>245</ele>
        <time>2021-12-28T03:23:07Z</time>
      </trkpt>
      <trkpt lat="45.81649" lon="5.37941">
        <ele>242</ele>
        <time>2021-12-28T03:23:20Z</time>
      </trkpt>
      <trkpt lat="45.81818" lon="5.38267">
        <ele>246</ele>
        <time>2021-12-28T03:24:11Z</time>
      </trkpt>
      <trkpt lat="45.81896" lon="5.38401">
        <ele>244</ele>
        <time>2021-12-28T03:24:32Z</time>
      </trkpt>
      <trkpt lat="45.81916" lon="5.38439">
        <ele>243</ele>
        <time>2021-12-28T03:24:38Z</time>
      </trkpt>
      <trkpt lat="45.81935" lon="5.38482">
        <ele>242</ele>
        <time>2021-12-28T03:24:44Z</time>
      </trkpt>
      <trkpt lat="45.8198" lon="5.38675">
        <ele>242</ele>
        <time>2021-12-28T03:25:10Z</time>
      </trkpt>
      <trkpt lat="45.82" lon="5.38725">
        <ele>244</ele>
        <time>2021-12-28T03:25:17Z</time>
      </trkpt>
      <trkpt lat="45.82055" lon="5.38853">
        <ele>242</ele>
        <time>2021-12-28T03:25:35Z</time>
      </trkpt>
      <trkpt lat="45.82074" lon="5.38917">
        <ele>240</ele>
        <time>2021-12-28T03:25:44Z</time>
      </trkpt>
      <trkpt lat="45.82079" lon="5.38951">
        <ele>239</ele>
        <time>2021-12-28T03:25:48Z</time>
      </trkpt>
      <trkpt lat="45.82082" lon="5.38982">
        <ele>239</ele>
        <time>2021-12-28T03:25:52Z</time>
      </trkpt>
      <trkpt lat="45.82082" lon="5.3904">
        <ele>238</ele>
        <time>2021-12-28T03:25:59Z</time>
      </trkpt>
      <trkpt lat="45.82076" lon="5.39092">
        <ele>237</ele>
        <time>2021-12-28T03:26:06Z</time>
      </trkpt>
      <trkpt lat="45.82059" lon="5.39154">
        <ele>236</ele>
        <time>2021-12-28T03:26:14Z</time>
      </trkpt>
      <trkpt lat="45.82011" lon="5.3927">
        <ele>235</ele>
        <time>2021-12-28T03:26:31Z</time>
      </trkpt>
      <trkpt lat="45.81914" lon="5.39483">
        <ele>232</ele>
        <time>2021-12-28T03:27:03Z</time>
      </trkpt>
      <trkpt lat="45.81879" lon="5.39533">
        <ele>230</ele>
        <time>2021-12-28T03:27:11Z</time>
      </trkpt>
      <trkpt lat="45.81831" lon="5.39594">
        <ele>228</ele>
        <time>2021-12-28T03:27:23Z</time>
      </trkpt>
      <trkpt lat="45.81779" lon="5.39644">
        <ele>226</ele>
        <time>2021-12-28T03:27:34Z</time>
      </trkpt>
      <trkpt lat="45.8172" lon="5.39678">
        <ele>224</ele>
        <time>2021-12-28T03:27:45Z</time>
      </trkpt>
      <trkpt lat="45.81658" lon="5.39695">
        <ele>223</ele>
        <time>2021-12-28T03:27:56Z</time>
      </trkpt>
      <trkpt lat="45.81543" lon="5.39718">
        <ele>219</ele>
        <time>2021-12-28T03:28:17Z</time>
      </trkpt>
      <trkpt lat="45.81456" lon="5.39739">
        <ele>220</ele>
        <time>2021-12-28T03:28:33Z</time>
      </trkpt>
      <trkpt lat="45.81407" lon="5.39754">
        <ele>222</ele>
        <time>2021-12-28T03:28:42Z</time>
      </trkpt>
      <trkpt lat="45.81361" lon="5.39773">
        <ele>223</ele>
        <time>2021-12-28T03:28:50Z</time>
      </trkpt>
      <trkpt lat="45.81313" lon="5.39797">
        <ele>223</ele>
        <time>2021-12-28T03:28:59Z</time>
      </trkpt>
      <trkpt lat="45.81027" lon="5.39967">
        <ele>222</ele>
        <time>2021-12-28T03:29:54Z</time>
      </trkpt>
      <trkpt lat="45.81004" lon="5.39984">
        <ele>222</ele>
        <time>2021-12-28T03:29:59Z</time>
      </trkpt>
      <trkpt lat="45.80968" lon="5.40016">
        <ele>223</ele>
        <time>2021-12-28T03:30:06Z</time>
      </trkpt>
      <trkpt lat="45.80947" lon="5.4004">
        <ele>223</ele>
        <time>2021-12-28T03:30:11Z</time>
      </trkpt>
      <trkpt lat="45.80919" lon="5.40076">
        <ele>224</ele>
        <time>2021-12-28T03:30:18Z</time>
      </trkpt>
      <trkpt lat="45.80854" lon="5.40198">
        <ele>222</ele>
        <time>2021-12-28T03:30:37Z</time>
      </trkpt>
      <trkpt lat="45.80847" lon="5.40209">
        <ele>222</ele>
        <time>2021-12-28T03:30:39Z</time>
      </trkpt>
      <trkpt lat="45.80842" lon="5.4021">
        <ele>222</ele>
        <time>2021-12-28T03:30:40Z</time>
      </trkpt>
      <trkpt lat="45.80836" lon="5.40216">
        <ele>222</ele>
        <time>2021-12-28T03:30:41Z</time>
      </trkpt>
      <trkpt lat="45.80833" lon="5.40225">
        <ele>222</ele>
        <time>2021-12-28T03:30:42Z</time>
      </trkpt>
      <trkpt lat="45.80833" lon="5.40236">
        <ele>222</ele>
        <time>2021-12-28T03:30:44Z</time>
      </trkpt>
      <trkpt lat="45.80835" lon="5.40244">
        <ele>222</ele>
        <time>2021-12-28T03:30:45Z</time>
      </trkpt>
      <trkpt lat="45.80831" lon="5.40287">
        <ele>222</ele>
        <time>2021-12-28T03:30:50Z</time>
      </trkpt>
      <trkpt lat="45.80629" lon="5.4099">
        <ele>218</ele>
        <time>2021-12-28T03:32:24Z</time>
      </trkpt>
      <trkpt lat="45.80585" lon="5.4112">
        <ele>219</ele>
        <time>2021-12-28T03:32:42Z</time>
      </trkpt>
      <trkpt lat="45.80565" lon="5.41167">
        <ele>220</ele>
        <time>2021-12-28T03:32:49Z</time>
      </trkpt>
      <trkpt lat="45.80339" lon="5.41642">
        <ele>220</ele>
        <time>2021-12-28T03:34:00Z</time>
      </trkpt>
      <trkpt lat="45.80271" lon="5.41773">
        <ele>220</ele>
        <time>2021-12-28T03:34:21Z</time>
      </trkpt>
      <trkpt lat="45.80262" lon="5.41797">
        <ele>220</ele>
        <time>2021-12-28T03:34:24Z</time>
      </trkpt>
      <trkpt lat="45.80249" lon="5.41826">
        <ele>220</ele>
        <time>2021-12-28T03:34:28Z</time>
      </trkpt>
      <trkpt lat="45.80202" lon="5.41906">
        <ele>220</ele>
        <time>2021-12-28T03:34:41Z</time>
      </trkpt>
      <trkpt lat="45.80165" lon="5.41947">
        <ele>220</ele>
        <time>2021-12-28T03:34:50Z</time>
      </trkpt>
      <trkpt lat="45.80053" lon="5.4205">
        <ele>219</ele>
        <time>2021-12-28T03:35:13Z</time>
      </trkpt>
      <trkpt lat="45.7996" lon="5.42131">
        <ele>219</ele>
        <time>2021-12-28T03:35:33Z</time>
      </trkpt>
      <trkpt lat="45.79693" lon="5.42353">
        <ele>220</ele>
        <time>2021-12-28T03:36:28Z</time>
      </trkpt>
      <trkpt lat="45.79586" lon="5.42458">
        <ele>221</ele>
        <time>2021-12-28T03:36:51Z</time>
      </trkpt>
      <trkpt lat="45.79503" lon="5.42572">
        <ele>223</ele>
        <time>2021-12-28T03:37:11Z</time>
      </trkpt>
      <trkpt lat="45.79452" lon="5.4263">
        <ele>224</ele>
        <time>2021-12-28T03:37:23Z</time>
      </trkpt>
      <trkpt lat="45.79369" lon="5.42698">
        <ele>224</ele>
        <time>2021-12-28T03:37:40Z</time>
      </trkpt>
      <trkpt lat="45.78878" lon="5.42933">
        <ele>221</ele>
        <time>2021-12-28T03:39:12Z</time>
      </trkpt>
      <trkpt lat="45.7883" lon="5.42965">
        <ele>221</ele>
        <time>2021-12-28T03:39:21Z</time>
      </trkpt>
      <trkpt lat="45.78744" lon="5.43028">
        <ele>222</ele>
        <time>2021-12-28T03:39:38Z</time>
      </trkpt>
      <trkpt lat="45.78677" lon="5.4309">
        <ele>222</ele>
        <time>2021-12-28T03:39:53Z</time>
      </trkpt>
      <trkpt lat="45.78574" lon="5.43214">
        <ele>224</ele>
        <time>2021-12-28T03:40:17Z</time>
      </trkpt>
      <trkpt lat="45.78463" lon="5.43371">
        <ele>231</ele>
        <time>2021-12-28T03:40:44Z</time>
      </trkpt>
      <trkpt lat="45.78341" lon="5.43524">
        <ele>236</ele>
        <time>2021-12-28T03:41:13Z</time>
      </trkpt>
      <trkpt lat="45.78321" lon="5.43562">
        <ele>236</ele>
        <time>2021-12-28T03:41:19Z</time>
      </trkpt>
      <trkpt lat="45.78307" lon="5.43605">
        <ele>235</ele>
        <time>2021-12-28T03:41:25Z</time>
      </trkpt>
      <trkpt lat="45.7827" lon="5.43778">
        <ele>231</ele>
        <time>2021-12-28T03:41:47Z</time>
      </trkpt>
      <trkpt lat="45.7824" lon="5.43909">
        <ele>230</ele>
        <time>2021-12-28T03:42:04Z</time>
      </trkpt>
      <trkpt lat="45.78223" lon="5.43945">
        <ele>230</ele>
        <time>2021-12-28T03:42:10Z</time>
      </trkpt>
      <trkpt lat="45.78198" lon="5.43981">
        <ele>231</ele>
        <time>2021-12-28T03:42:16Z</time>
      </trkpt>
      <trkpt lat="45.78119" lon="5.44077">
        <ele>228</ele>
        <time>2021-12-28T03:42:35Z</time>
      </trkpt>
      <trkpt lat="45.7808" lon="5.44129">
        <ele>225</ele>
        <time>2021-12-28T03:42:44Z</time>
      </trkpt>
      <trkpt lat="45.78061" lon="5.44172">
        <ele>224</ele>
        <time>2021-12-28T03:42:50Z</time>
      </trkpt>
      <trkpt lat="45.77985" lon="5.44509">
        <ele>222</ele>
        <time>2021-12-28T03:43:34Z</time>
      </trkpt>
      <trkpt lat="45.7798" lon="5.4454">
        <ele>222</ele>
        <time>2021-12-28T03:43:38Z</time>
      </trkpt>
      <trkpt lat="45.77978" lon="5.44569">
        <ele>221</ele>
        <time>2021-12-28T03:43:42Z</time>
      </trkpt>
      <trkpt lat="45.77982" lon="5.44611">
        <ele>221</ele>
        <time>2021-12-28T03:43:47Z</time>
      </trkpt>
      <trkpt lat="45.77987" lon="5.44635">
        <ele>221</ele>
        <time>2021-12-28T03:43:50Z</time>
      </trkpt>
      <trkpt lat="45.78017" lon="5.44718">
        <ele>219</ele>
        <time>2021-12-28T03:44:02Z</time>
      </trkpt>
      <trkpt lat="45.78049" lon="5.44793">
        <ele>217</ele>
        <time>2021-12-28T03:44:13Z</time>
      </trkpt>
      <trkpt lat="45.78082" lon="5.44886">
        <ele>217</ele>
        <time>2021-12-28T03:44:26Z</time>
      </trkpt>
      <trkpt lat="45.78119" lon="5.44957">
        <ele>217</ele>
        <time>2021-12-28T03:44:37Z</time>
      </trkpt>
      <trkpt lat="45.78182" lon="5.4503">
        <ele>212</ele>
        <time>2021-12-28T03:44:51Z</time>
      </trkpt>
      <trkpt lat="45.78284" lon="5.45103">
        <ele>208</ele>
        <time>2021-12-28T03:45:11Z</time>
      </trkpt>
      <trkpt lat="45.78436" lon="5.45208">
        <ele>205</ele>
        <time>2021-12-28T03:45:41Z</time>
      </trkpt>
      <trkpt lat="45.78519" lon="5.45266">
        <ele>207</ele>
        <time>2021-12-28T03:45:58Z</time>
      </trkpt>
      <trkpt lat="45.78479" lon="5.45392">
        <ele>207</ele>
        <time>2021-12-28T03:46:15Z</time>
      </trkpt>
      <trkpt lat="45.78454" lon="5.45482">
        <ele>208</ele>
        <time>2021-12-28T03:46:27Z</time>
      </trkpt>
      <trkpt lat="45.78438" lon="5.45523">
        <ele>208</ele>
        <time>2021-12-28T03:46:33Z</time>
      </trkpt>
      <trkpt lat="45.78344" lon="5.45738">
        <ele>205</ele>
        <time>2021-12-28T03:47:04Z</time>
      </trkpt>
      <trkpt lat="45.78276" lon="5.4586">
        <ele>206</ele>
        <time>2021-12-28T03:47:24Z</time>
      </trkpt>
      <trkpt lat="45.78248" lon="5.45897">
        <ele>206</ele>
        <time>2021-12-28T03:47:31Z</time>
      </trkpt>
      <trkpt lat="45.78213" lon="5.45948">
        <ele>206</ele>
        <time>2021-12-28T03:47:39Z</time>
      </trkpt>
      <trkpt lat="45.78203" lon="5.45972">
        <ele>206</ele>
        <time>2021-12-28T03:47:43Z</time>
      </trkpt>
      <trkpt lat="45.78196" lon="5.45994">
        <ele>205</ele>
        <time>2021-12-28T03:47:46Z</time>
      </trkpt>
      <trkpt lat="45.78181" lon="5.46074">
        <ele>205</ele>
        <time>2021-12-28T03:47:56Z</time>
      </trkpt>
      <trkpt lat="45.78178" lon="5.46099">
        <ele>205</ele>
        <time>2021-12-28T03:47:59Z</time>
      </trkpt>
      <trkpt lat="45.78177" lon="5.46128">
        <ele>205</ele>
        <time>2021-12-28T03:48:03Z</time>
      </trkpt>
      <trkpt lat="45.78183" lon="5.46241">
        <ele>204</ele>
        <time>2021-12-28T03:48:17Z</time>
      </trkpt>
      <trkpt lat="45.78182" lon="5.46276">
        <ele>204</ele>
        <time>2021-12-28T03:48:21Z</time>
      </trkpt>
      <trkpt lat="45.7818" lon="5.46307">
        <ele>203</ele>
        <time>2021-12-28T03:48:25Z</time>
      </trkpt>
      <trkpt lat="45.78138" lon="5.46549">
        <ele>205</ele>
        <time>2021-12-28T03:48:56Z</time>
      </trkpt>
      <trkpt lat="45.78119" lon="5.46637">
        <ele>205</ele>
        <time>2021-12-28T03:49:08Z</time>
      </trkpt>
      <trkpt lat="45.78083" lon="5.46774">
        <ele>208</ele>
        <time>2021-12-28T03:49:26Z</time>
      </trkpt>
      <trkpt lat="45.78058" lon="5.4686">
        <ele>213</ele>
        <time>2021-12-28T03:49:37Z</time>
      </trkpt>
      <trkpt lat="45.7805" lon="5.46878">
        <ele>214</ele>
        <time>2021-12-28T03:49:40Z</time>
      </trkpt>
      <trkpt lat="45.78036" lon="5.46896">
        <ele>215</ele>
        <time>2021-12-28T03:49:43Z</time>
      </trkpt>
      <trkpt lat="45.77988" lon="5.46941">
        <ele>216</ele>
        <time>2021-12-28T03:49:53Z</time>
      </trkpt>
      <trkpt lat="45.77911" lon="5.47025">
        <ele>219</ele>
        <time>2021-12-28T03:50:11Z</time>
      </trkpt>
      <trkpt lat="45.77895" lon="5.47048">
        <ele>219</ele>
        <time>2021-12-28T03:50:15Z</time>
      </trkpt>
      <trkpt lat="45.77883" lon="5.47076">
        <ele>221</ele>
        <time>2021-12-28T03:50:19Z</time>
      </trkpt>
      <trkpt lat="45.77879" lon="5.47115">
        <ele>222</ele>
        <time>2021-12-28T03:50:24Z</time>
      </trkpt>
      <trkpt lat="45.7788" lon="5.47136">
        <ele>223</ele>
        <time>2021-12-28T03:50:26Z</time>
      </trkpt>
      <trkpt lat="45.77884" lon="5.47156">
        <ele>223</ele>
        <time>2021-12-28T03:50:29Z</time>
      </trkpt>
      <trkpt lat="45.7791" lon="5.47251">
        <ele>226</ele>
        <time>2021-12-28T03:50:42Z</time>
      </trkpt>
      <trkpt lat="45.77911" lon="5.47277">
        <ele>229</ele>
        <time>2021-12-28T03:50:45Z</time>
      </trkpt>
      <trkpt lat="45.77906" lon="5.47344">
        <ele>237</ele>
        <time>2021-12-28T03:50:53Z</time>
      </trkpt>
      <trkpt lat="45.77907" lon="5.47353">
        <ele>239</ele>
        <time>2021-12-28T03:50:54Z</time>
      </trkpt>
      <trkpt lat="45.77912" lon="5.47361">
        <ele>241</ele>
        <time>2021-12-28T03:50:56Z</time>
      </trkpt>
      <trkpt lat="45.77919" lon="5.47362">
        <ele>242</ele>
        <time>2021-12-28T03:50:57Z</time>
      </trkpt>
      <trkpt lat="45.78011" lon="5.47304">
        <ele>244</ele>
        <time>2021-12-28T03:51:15Z</time>
      </trkpt>
      <trkpt lat="45.78018" lon="5.47309">
        <ele>246</ele>
        <time>2021-12-28T03:51:16Z</time>
      </trkpt>
      <trkpt lat="45.78018" lon="5.47315">
        <ele>247</ele>
        <time>2021-12-28T03:51:17Z</time>
      </trkpt>
      <trkpt lat="45.78014" lon="5.47327">
        <ele>249</ele>
        <time>2021-12-28T03:51:19Z</time>
      </trkpt>
      <trkpt lat="45.77979" lon="5.47357">
        <ele>250</ele>
        <time>2021-12-28T03:51:26Z</time>
      </trkpt>
      <trkpt lat="45.77944" lon="5.47394">
        <ele>253</ele>
        <time>2021-12-28T03:51:34Z</time>
      </trkpt>
      <trkpt lat="45.77824" lon="5.4747">
        <ele>255</ele>
        <time>2021-12-28T03:51:57Z</time>
      </trkpt>
      <trkpt lat="45.77725" lon="5.47625">
        <ele>265</ele>
        <time>2021-12-28T03:52:23Z</time>
      </trkpt>
      <trkpt lat="45.77715" lon="5.47677">
        <ele>269</ele>
        <time>2021-12-28T03:52:30Z</time>
      </trkpt>
      <trkpt lat="45.77719" lon="5.47812">
        <ele>274</ele>
        <time>2021-12-28T03:52:46Z</time>
      </trkpt>
      <trkpt lat="45.77778" lon="5.47978">
        <ele>274</ele>
        <time>2021-12-28T03:53:10Z</time>
      </trkpt>
      <trkpt lat="45.77787" lon="5.48009">
        <ele>272</ele>
        <time>2021-12-28T03:53:14Z</time>
      </trkpt>
      <trkpt lat="45.7781" lon="5.48066">
        <ele>268</ele>
        <time>2021-12-28T03:53:22Z</time>
      </trkpt>
      <trkpt lat="45.77832" lon="5.4813">
        <ele>268</ele>
        <time>2021-12-28T03:53:31Z</time>
      </trkpt>
      <trkpt lat="45.77846" lon="5.48173">
        <ele>269</ele>
        <time>2021-12-28T03:53:37Z</time>
      </trkpt>
      <trkpt lat="45.77853" lon="5.48209">
        <ele>269</ele>
        <time>2021-12-28T03:53:41Z</time>
      </trkpt>
      <trkpt lat="45.77858" lon="5.48268">
        <ele>270</ele>
        <time>2021-12-28T03:53:49Z</time>
      </trkpt>
      <trkpt lat="45.77865" lon="5.48367">
        <ele>271</ele>
        <time>2021-12-28T03:54:01Z</time>
      </trkpt>
      <trkpt lat="45.77865" lon="5.48398">
        <ele>271</ele>
        <time>2021-12-28T03:54:05Z</time>
      </trkpt>
      <trkpt lat="45.77867" lon="5.48405">
        <ele>271</ele>
        <time>2021-12-28T03:54:06Z</time>
      </trkpt>
      <trkpt lat="45.77873" lon="5.48416">
        <ele>270</ele>
        <time>2021-12-28T03:54:08Z</time>
      </trkpt>
      <trkpt lat="45.77871" lon="5.48432">
        <ele>271</ele>
        <time>2021-12-28T03:54:10Z</time>
      </trkpt>
      <trkpt lat="45.77875" lon="5.48464">
        <ele>272</ele>
        <time>2021-12-28T03:54:14Z</time>
      </trkpt>
      <trkpt lat="45.77881" lon="5.48488">
        <ele>272</ele>
        <time>2021-12-28T03:54:17Z</time>
      </trkpt>
      <trkpt lat="45.77888" lon="5.48513">
        <ele>273</ele>
        <time>2021-12-28T03:54:20Z</time>
      </trkpt>
      <trkpt lat="45.77931" lon="5.48609">
        <ele>280</ele>
        <time>2021-12-28T03:54:34Z</time>
      </trkpt>
      <trkpt lat="45.77941" lon="5.48622">
        <ele>283</ele>
        <time>2021-12-28T03:54:37Z</time>
      </trkpt>
      <trkpt lat="45.77951" lon="5.48629">
        <ele>284</ele>
        <time>2021-12-28T03:54:39Z</time>
      </trkpt>
      <trkpt lat="45.77973" lon="5.48634">
        <ele>286</ele>
        <time>2021-12-28T03:54:43Z</time>
      </trkpt>
      <trkpt lat="45.78025" lon="5.48638">
        <ele>288</ele>
        <time>2021-12-28T03:54:52Z</time>
      </trkpt>
      <trkpt lat="45.78075" lon="5.48633">
        <ele>288</ele>
        <time>2021-12-28T03:55:01Z</time>
      </trkpt>
      <trkpt lat="45.78102" lon="5.48632">
        <ele>288</ele>
        <time>2021-12-28T03:55:06Z</time>
      </trkpt>
      <trkpt lat="45.78113" lon="5.48635">
        <ele>288</ele>
        <time>2021-12-28T03:55:08Z</time>
      </trkpt>
      <trkpt lat="45.78171" lon="5.48682">
        <ele>296</ele>
        <time>2021-12-28T03:55:19Z</time>
      </trkpt>
      <trkpt lat="45.78188" lon="5.48702">
        <ele>298</ele>
        <time>2021-12-28T03:55:23Z</time>
      </trkpt>
      <trkpt lat="45.78201" lon="5.48715">
        <ele>298</ele>
        <time>2021-12-28T03:55:26Z</time>
      </trkpt>
      <trkpt lat="45.78227" lon="5.4873">
        <ele>298</ele>
        <time>2021-12-28T03:55:31Z</time>
      </trkpt>
      <trkpt lat="45.78243" lon="5.48745">
        <ele>299</ele>
        <time>2021-12-28T03:55:35Z</time>
      </trkpt>
      <trkpt lat="45.78257" lon="5.48765">
        <ele>300</ele>
        <time>2021-12-28T03:55:38Z</time>
      </trkpt>
      <trkpt lat="45.78264" lon="5.48779">
        <ele>300</ele>
        <time>2021-12-28T03:55:40Z</time>
      </trkpt>
      <trkpt lat="45.78266" lon="5.48792">
        <ele>301</ele>
        <time>2021-12-28T03:55:42Z</time>
      </trkpt>
      <trkpt lat="45.78265" lon="5.48803">
        <ele>302</ele>
        <time>2021-12-28T03:55:43Z</time>
      </trkpt>
      <trkpt lat="45.78261" lon="5.4882">
        <ele>305</ele>
        <time>2021-12-28T03:55:45Z</time>
      </trkpt>
      <trkpt lat="45.78247" lon="5.48857">
        <ele>306</ele>
        <time>2021-12-28T03:55:51Z</time>
      </trkpt>
      <trkpt lat="45.78234" lon="5.4888">
        <ele>306</ele>
        <time>2021-12-28T03:55:54Z</time>
      </trkpt>
      <trkpt lat="45.78226" lon="5.48889">
        <ele>307</ele>
        <time>2021-12-28T03:55:56Z</time>
      </trkpt>
      <trkpt lat="45.78219" lon="5.48893">
        <ele>308</ele>
        <time>2021-12-28T03:55:57Z</time>
      </trkpt>
      <trkpt lat="45.78213" lon="5.48894">
        <ele>310</ele>
        <time>2021-12-28T03:55:59Z</time>
      </trkpt>
      <trkpt lat="45.78195" lon="5.48889">
        <ele>315</ele>
        <time>2021-12-28T03:56:02Z</time>
      </trkpt>
      <trkpt lat="45.78187" lon="5.48889">
        <ele>317</ele>
        <time>2021-12-28T03:56:03Z</time>
      </trkpt>
      <trkpt lat="45.78175" lon="5.48895">
        <ele>320</ele>
        <time>2021-12-28T03:56:06Z</time>
      </trkpt>
      <trkpt lat="45.78168" lon="5.48906">
        <ele>321</ele>
        <time>2021-12-28T03:56:07Z</time>
      </trkpt>
      <trkpt lat="45.78155" lon="5.48933">
        <ele>320</ele>
        <time>2021-12-28T03:56:11Z</time>
      </trkpt>
      <trkpt lat="45.78129" lon="5.48967">
        <ele>321</ele>
        <time>2021-12-28T03:56:18Z</time>
      </trkpt>
      <trkpt lat="45.78111" lon="5.49005">
        <ele>323</ele>
        <time>2021-12-28T03:56:23Z</time>
      </trkpt>
      <trkpt lat="45.78078" lon="5.49062">
        <ele>328</ele>
        <time>2021-12-28T03:56:33Z</time>
      </trkpt>
      <trkpt lat="45.78045" lon="5.49132">
        <ele>330</ele>
        <time>2021-12-28T03:56:43Z</time>
      </trkpt>
      <trkpt lat="45.78034" lon="5.49163">
        <ele>331</ele>
        <time>2021-12-28T03:56:47Z</time>
      </trkpt>
      <trkpt lat="45.78018" lon="5.49227">
        <ele>335</ele>
        <time>2021-12-28T03:56:56Z</time>
      </trkpt>
      <trkpt lat="45.78" lon="5.49265">
        <ele>340</ele>
        <time>2021-12-28T03:57:02Z</time>
      </trkpt>
      <trkpt lat="45.77993" lon="5.49282">
        <ele>341</ele>
        <time>2021-12-28T03:57:04Z</time>
      </trkpt>
      <trkpt lat="45.77987" lon="5.49301">
        <ele>343</ele>
        <time>2021-12-28T03:57:07Z</time>
      </trkpt>
      <trkpt lat="45.77984" lon="5.49332">
        <ele>345</ele>
        <time>2021-12-28T03:57:10Z</time>
      </trkpt>
      <trkpt lat="45.77989" lon="5.49388">
        <ele>344</ele>
        <time>2021-12-28T03:57:17Z</time>
      </trkpt>
      <trkpt lat="45.77988" lon="5.49401">
        <ele>345</ele>
        <time>2021-12-28T03:57:19Z</time>
      </trkpt>
      <trkpt lat="45.7798" lon="5.4945">
        <ele>347</ele>
        <time>2021-12-28T03:57:25Z</time>
      </trkpt>
      <trkpt lat="45.7798" lon="5.49465">
        <ele>347</ele>
        <time>2021-12-28T03:57:27Z</time>
      </trkpt>
      <trkpt lat="45.77989" lon="5.49528">
        <ele>343</ele>
        <time>2021-12-28T03:57:35Z</time>
      </trkpt>
      <trkpt lat="45.77989" lon="5.49538">
        <ele>343</ele>
        <time>2021-12-28T03:57:36Z</time>
      </trkpt>
      <trkpt lat="45.77984" lon="5.49557">
        <ele>344</ele>
        <time>2021-12-28T03:57:39Z</time>
      </trkpt>
      <trkpt lat="45.77978" lon="5.49568">
        <ele>346</ele>
        <time>2021-12-28T03:57:41Z</time>
      </trkpt>
      <trkpt lat="45.7794" lon="5.49622">
        <ele>351</ele>
        <time>2021-12-28T03:57:50Z</time>
      </trkpt>
      <trkpt lat="45.77927" lon="5.49636">
        <ele>352</ele>
        <time>2021-12-28T03:57:53Z</time>
      </trkpt>
      <trkpt lat="45.77893" lon="5.49661">
        <ele>354</ele>
        <time>2021-12-28T03:58:00Z</time>
      </trkpt>
      <trkpt lat="45.77872" lon="5.49683">
        <ele>356</ele>
        <time>2021-12-28T03:58:04Z</time>
      </trkpt>
      <trkpt lat="45.7786" lon="5.49692">
        <ele>357</ele>
        <time>2021-12-28T03:58:07Z</time>
      </trkpt>
      <trkpt lat="45.77836" lon="5.49706">
        <ele>360</ele>
        <time>2021-12-28T03:58:12Z</time>
      </trkpt>
      <trkpt lat="45.7783" lon="5.49712">
        <ele>361</ele>
        <time>2021-12-28T03:58:13Z</time>
      </trkpt>
      <trkpt lat="45.77826" lon="5.49722">
        <ele>361</ele>
        <time>2021-12-28T03:58:14Z</time>
      </trkpt>
      <trkpt lat="45.77823" lon="5.49733">
        <ele>360</ele>
        <time>2021-12-28T03:58:16Z</time>
      </trkpt>
      <trkpt lat="45.77821" lon="5.49771">
        <ele>357</ele>
        <time>2021-12-28T03:58:20Z</time>
      </trkpt>
      <trkpt lat="45.77819" lon="5.49784">
        <ele>356</ele>
        <time>2021-12-28T03:58:22Z</time>
      </trkpt>
      <trkpt lat="45.77809" lon="5.49805">
        <ele>355</ele>
        <time>2021-12-28T03:58:25Z</time>
      </trkpt>
      <trkpt lat="45.778" lon="5.49814">
        <ele>356</ele>
        <time>2021-12-28T03:58:27Z</time>
      </trkpt>
      <trkpt lat="45.77773" lon="5.49837">
        <ele>358</ele>
        <time>2021-12-28T03:58:33Z</time>
      </trkpt>
      <trkpt lat="45.77759" lon="5.49845">
        <ele>359</ele>
        <time>2021-12-28T03:58:35Z</time>
      </trkpt>
      <trkpt lat="45.77726" lon="5.49844">
        <ele>363</ele>
        <time>2021-12-28T03:58:41Z</time>
      </trkpt>
      <trkpt lat="45.77708" lon="5.49847">
        <ele>364</ele>
        <time>2021-12-28T03:58:45Z</time>
      </trkpt>
      <trkpt lat="45.77698" lon="5.49852">
        <ele>364</ele>
        <time>2021-12-28T03:58:46Z</time>
      </trkpt>
      <trkpt lat="45.77671" lon="5.49871">
        <ele>363</ele>
        <time>2021-12-28T03:58:52Z</time>
      </trkpt>
      <trkpt lat="45.77635" lon="5.49891">
        <ele>365</ele>
        <time>2021-12-28T03:58:59Z</time>
      </trkpt>
      <trkpt lat="45.7761" lon="5.49914">
        <ele>364</ele>
        <time>2021-12-28T03:59:04Z</time>
      </trkpt>
      <trkpt lat="45.77593" lon="5.49922">
        <ele>366</ele>
        <time>2021-12-28T03:59:07Z</time>
      </trkpt>
      <trkpt lat="45.7756" lon="5.49949">
        <ele>369</ele>
        <time>2021-12-28T03:59:14Z</time>
      </trkpt>
      <trkpt lat="45.77543" lon="5.49959">
        <ele>371</ele>
        <time>2021-12-28T03:59:17Z</time>
      </trkpt>
      <trkpt lat="45.77504" lon="5.49976">
        <ele>375</ele>
        <time>2021-12-28T03:59:24Z</time>
      </trkpt>
      <trkpt lat="45.77496" lon="5.49982">
        <ele>376</ele>
        <time>2021-12-28T03:59:26Z</time>
      </trkpt>
      <trkpt lat="45.77478" lon="5.50004">
        <ele>378</ele>
        <time>2021-12-28T03:59:30Z</time>
      </trkpt>
      <trkpt lat="45.77454" lon="5.50037">
        <ele>382</ele>
        <time>2021-12-28T03:59:36Z</time>
      </trkpt>
      <trkpt lat="45.77447" lon="5.50051">
        <ele>382</ele>
        <time>2021-12-28T03:59:38Z</time>
      </trkpt>
      <trkpt lat="45.77436" lon="5.50078">
        <ele>382</ele>
        <time>2021-12-28T03:59:42Z</time>
      </trkpt>
      <trkpt lat="45.77416" lon="5.50143">
        <ele>380</ele>
        <time>2021-12-28T03:59:51Z</time>
      </trkpt>
      <trkpt lat="45.77411" lon="5.50158">
        <ele>381</ele>
        <time>2021-12-28T03:59:53Z</time>
      </trkpt>
      <trkpt lat="45.77402" lon="5.50174">
        <ele>383</ele>
        <time>2021-12-28T03:59:56Z</time>
      </trkpt>
      <trkpt lat="45.77305" lon="5.50338">
        <ele>391</ele>
        <time>2021-12-28T04:00:22Z</time>
      </trkpt>
      <trkpt lat="45.77293" lon="5.50355">
        <ele>392</ele>
        <time>2021-12-28T04:00:25Z</time>
      </trkpt>
      <trkpt lat="45.7725" lon="5.50404">
        <ele>399</ele>
        <time>2021-12-28T04:00:35Z</time>
      </trkpt>
      <trkpt lat="45.77231" lon="5.50428">
        <ele>405</ele>
        <time>2021-12-28T04:00:40Z</time>
      </trkpt>
      <trkpt lat="45.77214" lon="5.50456">
        <ele>408</ele>
        <time>2021-12-28T04:00:44Z</time>
      </trkpt>
      <trkpt lat="45.77149" lon="5.50605">
        <ele>407</ele>
        <time>2021-12-28T04:01:06Z</time>
      </trkpt>
      <trkpt lat="45.77133" lon="5.50655">
        <ele>407</ele>
        <time>2021-12-28T04:01:13Z</time>
      </trkpt>
      <trkpt lat="45.77119" lon="5.5071">
        <ele>406</ele>
        <time>2021-12-28T04:01:20Z</time>
      </trkpt>
      <trkpt lat="45.77111" lon="5.50731">
        <ele>405</ele>
        <time>2021-12-28T04:01:23Z</time>
      </trkpt>
      <trkpt lat="45.77098" lon="5.50753">
        <ele>406</ele>
        <time>2021-12-28T04:01:27Z</time>
      </trkpt>
      <trkpt lat="45.77086" lon="5.50768">
        <ele>407</ele>
        <time>2021-12-28T04:01:29Z</time>
      </trkpt>
      <trkpt lat="45.77051" lon="5.50804">
        <ele>412</ele>
        <time>2021-12-28T04:01:37Z</time>
      </trkpt>
      <trkpt lat="45.7704" lon="5.50821">
        <ele>413</ele>
        <time>2021-12-28T04:01:40Z</time>
      </trkpt>
      <trkpt lat="45.77035" lon="5.50832">
        <ele>413</ele>
        <time>2021-12-28T04:01:42Z</time>
      </trkpt>
      <trkpt lat="45.77027" lon="5.50856">
        <ele>415</ele>
        <time>2021-12-28T04:01:45Z</time>
      </trkpt>
      <trkpt lat="45.77023" lon="5.50905">
        <ele>414</ele>
        <time>2021-12-28T04:01:51Z</time>
      </trkpt>
      <trkpt lat="45.77015" lon="5.50957">
        <ele>414</ele>
        <time>2021-12-28T04:01:58Z</time>
      </trkpt>
      <trkpt lat="45.76999" lon="5.51024">
        <ele>414</ele>
        <time>2021-12-28T04:02:06Z</time>
      </trkpt>
      <trkpt lat="45.76977" lon="5.51093">
        <ele>416</ele>
        <time>2021-12-28T04:02:16Z</time>
      </trkpt>
      <trkpt lat="45.76959" lon="5.5114">
        <ele>418</ele>
        <time>2021-12-28T04:02:23Z</time>
      </trkpt>
      <trkpt lat="45.76944" lon="5.51169">
        <ele>417</ele>
        <time>2021-12-28T04:02:27Z</time>
      </trkpt>
      <trkpt lat="45.76904" lon="5.51225">
        <ele>416</ele>
        <time>2021-12-28T04:02:37Z</time>
      </trkpt>
      <trkpt lat="45.76854" lon="5.51286">
        <ele>418</ele>
        <time>2021-12-28T04:02:49Z</time>
      </trkpt>
      <trkpt lat="45.76744" lon="5.51427">
        <ele>421</ele>
        <time>2021-12-28T04:03:15Z</time>
      </trkpt>
      <trkpt lat="45.76697" lon="5.51488">
        <ele>421</ele>
        <time>2021-12-28T04:03:26Z</time>
      </trkpt>
      <trkpt lat="45.76624" lon="5.51572">
        <ele>422</ele>
        <time>2021-12-28T04:03:43Z</time>
      </trkpt>
      <trkpt lat="45.7656" lon="5.51641">
        <ele>424</ele>
        <time>2021-12-28T04:03:57Z</time>
      </trkpt>
      <trkpt lat="45.76538" lon="5.51667">
        <ele>424</ele>
        <time>2021-12-28T04:04:02Z</time>
      </trkpt>
      <trkpt lat="45.76466" lon="5.51758">
        <ele>425</ele>
        <time>2021-12-28T04:04:19Z</time>
      </trkpt>
      <trkpt lat="45.76451" lon="5.51775">
        <ele>425</ele>
        <time>2021-12-28T04:04:23Z</time>
      </trkpt>
      <trkpt lat="45.76436" lon="5.51788">
        <ele>425</ele>
        <time>2021-12-28T04:04:26Z</time>
      </trkpt>
      <trkpt lat="45.76365" lon="5.51839">
        <ele>424</ele>
        <time>2021-12-28T04:04:40Z</time>
      </trkpt>
      <trkpt lat="45.76322" lon="5.51875">
        <ele>424</ele>
        <time>2021-12-28T04:04:49Z</time>
      </trkpt>
      <trkpt lat="45.76231" lon="5.51969">
        <ele>424</ele>
        <time>2021-12-28T04:05:09Z</time>
      </trkpt>
      <trkpt lat="45.76192" lon="5.52012">
        <ele>426</ele>
        <time>2021-12-28T04:05:17Z</time>
      </trkpt>
      <trkpt lat="45.76166" lon="5.52045">
        <ele>426</ele>
        <time>2021-12-28T04:05:24Z</time>
      </trkpt>
      <trkpt lat="45.76064" lon="5.52185">
        <ele>427</ele>
        <time>2021-12-28T04:05:49Z</time>
      </trkpt>
      <trkpt lat="45.76053" lon="5.52198">
        <ele>427</ele>
        <time>2021-12-28T04:05:51Z</time>
      </trkpt>
      <trkpt lat="45.7598" lon="5.52262">
        <ele>427</ele>
        <time>2021-12-28T04:06:07Z</time>
      </trkpt>
      <trkpt lat="45.75994" lon="5.52278">
        <ele>428</ele>
        <time>2021-12-28T04:06:10Z</time>
      </trkpt>
      <trkpt lat="45.76005" lon="5.52295">
        <ele>429</ele>
        <time>2021-12-28T04:06:13Z</time>
      </trkpt>
      <trkpt lat="45.76013" lon="5.52328">
        <ele>431</ele>
        <time>2021-12-28T04:06:17Z</time>
      </trkpt>
      <trkpt lat="45.76032" lon="5.52382">
        <ele>436</ele>
        <time>2021-12-28T04:06:24Z</time>
      </trkpt>
      <trkpt lat="45.76046" lon="5.52429">
        <ele>440</ele>
        <time>2021-12-28T04:06:31Z</time>
      </trkpt>
      <trkpt lat="45.76056" lon="5.52454">
        <ele>443</ele>
        <time>2021-12-28T04:06:34Z</time>
      </trkpt>
      <trkpt lat="45.76057" lon="5.52465">
        <ele>444</ele>
        <time>2021-12-28T04:06:36Z</time>
      </trkpt>
      <trkpt lat="45.76051" lon="5.52473">
        <ele>445</ele>
        <time>2021-12-28T04:06:37Z</time>
      </trkpt>
      <trkpt lat="45.76037" lon="5.5247">
        <ele>443</ele>
        <time>2021-12-28T04:06:40Z</time>
      </trkpt>
      <trkpt lat="45.76023" lon="5.52452">
        <ele>440</ele>
        <time>2021-12-28T04:06:43Z</time>
      </trkpt>
      <trkpt lat="45.76014" lon="5.52447">
        <ele>439</ele>
        <time>2021-12-28T04:06:45Z</time>
      </trkpt>
      <trkpt lat="45.76006" lon="5.52448">
        <ele>438</ele>
        <time>2021-12-28T04:06:46Z</time>
      </trkpt>
      <trkpt lat="45.75984" lon="5.52479">
        <ele>439</ele>
        <time>2021-12-28T04:06:52Z</time>
      </trkpt>
      <trkpt lat="45.75971" lon="5.52503">
        <ele>440</ele>
        <time>2021-12-28T04:06:55Z</time>
      </trkpt>
      <trkpt lat="45.75968" lon="5.52521">
        <ele>442</ele>
        <time>2021-12-28T04:06:58Z</time>
      </trkpt>
      <trkpt lat="45.75969" lon="5.52555">
        <ele>446</ele>
        <time>2021-12-28T04:07:02Z</time>
      </trkpt>
      <trkpt lat="45.75979" lon="5.52597">
        <ele>451</ele>
        <time>2021-12-28T04:07:07Z</time>
      </trkpt>
      <trkpt lat="45.7599" lon="5.52626">
        <ele>455</ele>
        <time>2021-12-28T04:07:12Z</time>
      </trkpt>
      <trkpt lat="45.76003" lon="5.5263">
        <ele>456</ele>
        <time>2021-12-28T04:07:14Z</time>
      </trkpt>
      <trkpt lat="45.76015" lon="5.52638">
        <ele>458</ele>
        <time>2021-12-28T04:07:16Z</time>
      </trkpt>
      <trkpt lat="45.7603" lon="5.52656">
        <ele>462</ele>
        <time>2021-12-28T04:07:20Z</time>
      </trkpt>
      <trkpt lat="45.76046" lon="5.52669">
        <ele>466</ele>
        <time>2021-12-28T04:07:23Z</time>
      </trkpt>
      <trkpt lat="45.76059" lon="5.52671">
        <ele>468</ele>
        <time>2021-12-28T04:07:25Z</time>
      </trkpt>
      <trkpt lat="45.76096" lon="5.52657">
        <ele>469</ele>
        <time>2021-12-28T04:07:32Z</time>
      </trkpt>
      <trkpt lat="45.76113" lon="5.52658">
        <ele>471</ele>
        <time>2021-12-28T04:07:35Z</time>
      </trkpt>
      <trkpt lat="45.76126" lon="5.52667">
        <ele>473</ele>
        <time>2021-12-28T04:07:38Z</time>
      </trkpt>
      <trkpt lat="45.76137" lon="5.52688">
        <ele>477</ele>
        <time>2021-12-28T04:07:41Z</time>
      </trkpt>
      <trkpt lat="45.76171" lon="5.52766">
        <ele>485</ele>
        <time>2021-12-28T04:07:52Z</time>
      </trkpt>
      <trkpt lat="45.76176" lon="5.52783">
        <ele>486</ele>
        <time>2021-12-28T04:07:55Z</time>
      </trkpt>
      <trkpt lat="45.76177" lon="5.52797">
        <ele>487</ele>
        <time>2021-12-28T04:07:56Z</time>
      </trkpt>
      <trkpt lat="45.76182" lon="5.5282">
        <ele>489</ele>
        <time>2021-12-28T04:07:59Z</time>
      </trkpt>
      <trkpt lat="45.76185" lon="5.52888">
        <ele>491</ele>
        <time>2021-12-28T04:08:08Z</time>
      </trkpt>
      <trkpt lat="45.76192" lon="5.52908">
        <ele>492</ele>
        <time>2021-12-28T04:08:11Z</time>
      </trkpt>
      <trkpt lat="45.76209" lon="5.52943">
        <ele>492</ele>
        <time>2021-12-28T04:08:16Z</time>
      </trkpt>
      <trkpt lat="45.76243" lon="5.53001">
        <ele>492</ele>
        <time>2021-12-28T04:08:25Z</time>
      </trkpt>
      <trkpt lat="45.76255" lon="5.53018">
        <ele>492</ele>
        <time>2021-12-28T04:08:28Z</time>
      </trkpt>
      <trkpt lat="45.76272" lon="5.53034">
        <ele>493</ele>
        <time>2021-12-28T04:08:32Z</time>
      </trkpt>
      <trkpt lat="45.76292" lon="5.53049">
        <ele>495</ele>
        <time>2021-12-28T04:08:36Z</time>
      </trkpt>
      <trkpt lat="45.76315" lon="5.53059">
        <ele>496</ele>
        <time>2021-12-28T04:08:40Z</time>
      </trkpt>
      <trkpt lat="45.76404" lon="5.53084">
        <ele>501</ele>
        <time>2021-12-28T04:08:56Z</time>
      </trkpt>
      <trkpt lat="45.76424" lon="5.53101">
        <ele>504</ele>
        <time>2021-12-28T04:09:01Z</time>
      </trkpt>
      <trkpt lat="45.76474" lon="5.5315">
        <ele>509</ele>
        <time>2021-12-28T04:09:11Z</time>
      </trkpt>
      <trkpt lat="45.76528" lon="5.53214">
        <ele>515</ele>
        <time>2021-12-28T04:09:24Z</time>
      </trkpt>
      <trkpt lat="45.76596" lon="5.53271">
        <ele>521</ele>
        <time>2021-12-28T04:09:38Z</time>
      </trkpt>
      <trkpt lat="45.76606" lon="5.53276">
        <ele>523</ele>
        <time>2021-12-28T04:09:40Z</time>
      </trkpt>
      <trkpt lat="45.76625" lon="5.53285">
        <ele>526</ele>
        <time>2021-12-28T04:09:43Z</time>
      </trkpt>
      <trkpt lat="45.76634" lon="5.53283">
        <ele>527</ele>
        <time>2021-12-28T04:09:45Z</time>
      </trkpt>
      <trkpt lat="45.76644" lon="5.53276">
        <ele>527</ele>
        <time>2021-12-28T04:09:47Z</time>
      </trkpt>
      <trkpt lat="45.76663" lon="5.53246">
        <ele>526</ele>
        <time>2021-12-28T04:09:52Z</time>
      </trkpt>
      <trkpt lat="45.76674" lon="5.53232">
        <ele>527</ele>
        <time>2021-12-28T04:09:55Z</time>
      </trkpt>
      <trkpt lat="45.76734" lon="5.53186">
        <ele>530</ele>
        <time>2021-12-28T04:10:07Z</time>
      </trkpt>
      <trkpt lat="45.76744" lon="5.53185">
        <ele>531</ele>
        <time>2021-12-28T04:10:08Z</time>
      </trkpt>
      <trkpt lat="45.76776" lon="5.532">
        <ele>535</ele>
        <time>2021-12-28T04:10:14Z</time>
      </trkpt>
      <trkpt lat="45.76786" lon="5.53201">
        <ele>535</ele>
        <time>2021-12-28T04:10:16Z</time>
      </trkpt>
      <trkpt lat="45.76796" lon="5.532">
        <ele>536</ele>
        <time>2021-12-28T04:10:18Z</time>
      </trkpt>
      <trkpt lat="45.76861" lon="5.53181">
        <ele>540</ele>
        <time>2021-12-28T04:10:30Z</time>
      </trkpt>
      <trkpt lat="45.76867" lon="5.53185">
        <ele>542</ele>
        <time>2021-12-28T04:10:31Z</time>
      </trkpt>
      <trkpt lat="45.7687" lon="5.53193">
        <ele>543</ele>
        <time>2021-12-28T04:10:32Z</time>
      </trkpt>
      <trkpt lat="45.76869" lon="5.53201">
        <ele>544</ele>
        <time>2021-12-28T04:10:33Z</time>
      </trkpt>
      <trkpt lat="45.76864" lon="5.53209">
        <ele>544</ele>
        <time>2021-12-28T04:10:34Z</time>
      </trkpt>
      <trkpt lat="45.76853" lon="5.53222">
        <ele>543</ele>
        <time>2021-12-28T04:10:37Z</time>
      </trkpt>
      <trkpt lat="45.76839" lon="5.53234">
        <ele>542</ele>
        <time>2021-12-28T04:10:40Z</time>
      </trkpt>
      <trkpt lat="45.76813" lon="5.5325">
        <ele>542</ele>
        <time>2021-12-28T04:10:45Z</time>
      </trkpt>
      <trkpt lat="45.768" lon="5.53261">
        <ele>543</ele>
        <time>2021-12-28T04:10:48Z</time>
      </trkpt>
      <trkpt lat="45.76789" lon="5.53274">
        <ele>544</ele>
        <time>2021-12-28T04:10:50Z</time>
      </trkpt>
      <trkpt lat="45.76765" lon="5.53307">
        <ele>547</ele>
        <time>2021-12-28T04:10:56Z</time>
      </trkpt>
      <trkpt lat="45.76755" lon="5.53331">
        <ele>549</ele>
        <time>2021-12-28T04:11:00Z</time>
      </trkpt>
      <trkpt lat="45.76744" lon="5.53361">
        <ele>551</ele>
        <time>2021-12-28T04:11:04Z</time>
      </trkpt>
      <trkpt lat="45.76713" lon="5.53431">
        <ele>554</ele>
        <time>2021-12-28T04:11:14Z</time>
      </trkpt>
      <trkpt lat="45.76704" lon="5.53448">
        <ele>555</ele>
        <time>2021-12-28T04:11:17Z</time>
      </trkpt>
      <trkpt lat="45.7668" lon="5.53481">
        <ele>556</ele>
        <time>2021-12-28T04:11:23Z</time>
      </trkpt>
      <trkpt lat="45.76677" lon="5.53499">
        <ele>558</ele>
        <time>2021-12-28T04:11:25Z</time>
      </trkpt>
      <trkpt lat="45.76679" lon="5.5351">
        <ele>558</ele>
        <time>2021-12-28T04:11:26Z</time>
      </trkpt>
      <trkpt lat="45.76693" lon="5.5354">
        <ele>561</ele>
        <time>2021-12-28T04:11:31Z</time>
      </trkpt>
      <trkpt lat="45.76695" lon="5.53549">
        <ele>562</ele>
        <time>2021-12-28T04:11:32Z</time>
      </trkpt>
      <trkpt lat="45.76695" lon="5.53561">
        <ele>563</ele>
        <time>2021-12-28T04:11:33Z</time>
      </trkpt>
      <trkpt lat="45.76693" lon="5.5357">
        <ele>563</ele>
        <time>2021-12-28T04:11:35Z</time>
      </trkpt>
      <trkpt lat="45.76681" lon="5.53589">
        <ele>563</ele>
        <time>2021-12-28T04:11:38Z</time>
      </trkpt>
      <trkpt lat="45.76667" lon="5.53601">
        <ele>564</ele>
        <time>2021-12-28T04:11:41Z</time>
      </trkpt>
      <trkpt lat="45.76629" lon="5.53616">
        <ele>569</ele>
        <time>2021-12-28T04:11:48Z</time>
      </trkpt>
      <trkpt lat="45.76577" lon="5.53625">
        <ele>574</ele>
        <time>2021-12-28T04:11:57Z</time>
      </trkpt>
      <trkpt lat="45.76517" lon="5.5362">
        <ele>582</ele>
        <time>2021-12-28T04:12:08Z</time>
      </trkpt>
      <trkpt lat="45.76513" lon="5.53624">
        <ele>583</ele>
        <time>2021-12-28T04:12:09Z</time>
      </trkpt>
      <trkpt lat="45.76512" lon="5.53632">
        <ele>584</ele>
        <time>2021-12-28T04:12:10Z</time>
      </trkpt>
      <trkpt lat="45.76515" lon="5.53642">
        <ele>584</ele>
        <time>2021-12-28T04:12:11Z</time>
      </trkpt>
      <trkpt lat="45.76528" lon="5.53654">
        <ele>584</ele>
        <time>2021-12-28T04:12:14Z</time>
      </trkpt>
      <trkpt lat="45.76575" lon="5.53697">
        <ele>587</ele>
        <time>2021-12-28T04:12:24Z</time>
      </trkpt>
      <trkpt lat="45.7663" lon="5.53733">
        <ele>589</ele>
        <time>2021-12-28T04:12:34Z</time>
      </trkpt>
      <trkpt lat="45.76693" lon="5.53764">
        <ele>592</ele>
        <time>2021-12-28T04:12:46Z</time>
      </trkpt>
      <trkpt lat="45.76711" lon="5.53771">
        <ele>592</ele>
        <time>2021-12-28T04:12:50Z</time>
      </trkpt>
      <trkpt lat="45.76778" lon="5.53784">
        <ele>596</ele>
        <time>2021-12-28T04:13:02Z</time>
      </trkpt>
      <trkpt lat="45.76798" lon="5.53793">
        <ele>599</ele>
        <time>2021-12-28T04:13:05Z</time>
      </trkpt>
      <trkpt lat="45.76811" lon="5.53806">
        <ele>601</ele>
        <time>2021-12-28T04:13:08Z</time>
      </trkpt>
      <trkpt lat="45.76819" lon="5.53826">
        <ele>601</ele>
        <time>2021-12-28T04:13:11Z</time>
      </trkpt>
      <trkpt lat="45.76824" lon="5.53847">
        <ele>602</ele>
        <time>2021-12-28T04:13:14Z</time>
      </trkpt>
      <trkpt lat="45.76827" lon="5.5387">
        <ele>603</ele>
        <time>2021-12-28T04:13:17Z</time>
      </trkpt>
      <trkpt lat="45.76826" lon="5.53894">
        <ele>604</ele>
        <time>2021-12-28T04:13:20Z</time>
      </trkpt>
      <trkpt lat="45.76823" lon="5.53913">
        <ele>604</ele>
        <time>2021-12-28T04:13:22Z</time>
      </trkpt>
      <trkpt lat="45.76811" lon="5.53939">
        <ele>606</ele>
        <time>2021-12-28T04:13:26Z</time>
      </trkpt>
      <trkpt lat="45.76758" lon="5.54006">
        <ele>608</ele>
        <time>2021-12-28T04:13:39Z</time>
      </trkpt>
      <trkpt lat="45.76746" lon="5.54015">
        <ele>608</ele>
        <time>2021-12-28T04:13:41Z</time>
      </trkpt>
      <trkpt lat="45.76734" lon="5.54021">
        <ele>609</ele>
        <time>2021-12-28T04:13:43Z</time>
      </trkpt>
      <trkpt lat="45.76711" lon="5.54022">
        <ele>610</ele>
        <time>2021-12-28T04:13:47Z</time>
      </trkpt>
      <trkpt lat="45.76699" lon="5.54025">
        <ele>611</ele>
        <time>2021-12-28T04:13:49Z</time>
      </trkpt>
      <trkpt lat="45.76692" lon="5.54033">
        <ele>611</ele>
        <time>2021-12-28T04:13:51Z</time>
      </trkpt>
      <trkpt lat="45.76663" lon="5.54069">
        <ele>612</ele>
        <time>2021-12-28T04:13:58Z</time>
      </trkpt>
      <trkpt lat="45.76628" lon="5.54124">
        <ele>615</ele>
        <time>2021-12-28T04:14:07Z</time>
      </trkpt>
      <trkpt lat="45.76512" lon="5.54223">
        <ele>616</ele>
        <time>2021-12-28T04:14:31Z</time>
      </trkpt>
      <trkpt lat="45.76497" lon="5.54234">
        <ele>615</ele>
        <time>2021-12-28T04:14:34Z</time>
      </trkpt>
      <trkpt lat="45.76485" lon="5.54238">
        <ele>615</ele>
        <time>2021-12-28T04:14:36Z</time>
      </trkpt>
      <trkpt lat="45.7647" lon="5.54238">
        <ele>616</ele>
        <time>2021-12-28T04:14:39Z</time>
      </trkpt>
      <trkpt lat="45.76443" lon="5.54231">
        <ele>618</ele>
        <time>2021-12-28T04:14:44Z</time>
      </trkpt>
      <trkpt lat="45.76432" lon="5.54231">
        <ele>618</ele>
        <time>2021-12-28T04:14:46Z</time>
      </trkpt>
      <trkpt lat="45.76421" lon="5.54235">
        <ele>618</ele>
        <time>2021-12-28T04:14:48Z</time>
      </trkpt>
      <trkpt lat="45.7641" lon="5.54247">
        <ele>619</ele>
        <time>2021-12-28T04:14:50Z</time>
      </trkpt>
      <trkpt lat="45.76401" lon="5.5426">
        <ele>622</ele>
        <time>2021-12-28T04:14:53Z</time>
      </trkpt>
      <trkpt lat="45.76393" lon="5.54278">
        <ele>625</ele>
        <time>2021-12-28T04:14:55Z</time>
      </trkpt>
      <trkpt lat="45.76391" lon="5.54299">
        <ele>627</ele>
        <time>2021-12-28T04:14:58Z</time>
      </trkpt>
      <trkpt lat="45.76395" lon="5.54349">
        <ele>628</ele>
        <time>2021-12-28T04:15:04Z</time>
      </trkpt>
      <trkpt lat="45.76395" lon="5.54407">
        <ele>629</ele>
        <time>2021-12-28T04:15:11Z</time>
      </trkpt>
      <trkpt lat="45.76401" lon="5.54497">
        <ele>628</ele>
        <time>2021-12-28T04:15:23Z</time>
      </trkpt>
      <trkpt lat="45.76413" lon="5.54586">
        <ele>630</ele>
        <time>2021-12-28T04:15:34Z</time>
      </trkpt>
      <trkpt lat="45.76425" lon="5.54636">
        <ele>632</ele>
        <time>2021-12-28T04:15:40Z</time>
      </trkpt>
      <trkpt lat="45.76429" lon="5.54675">
        <ele>634</ele>
        <time>2021-12-28T04:15:45Z</time>
      </trkpt>
      <trkpt lat="45.76425" lon="5.54756">
        <ele>636</ele>
        <time>2021-12-28T04:15:55Z</time>
      </trkpt>
      <trkpt lat="45.76414" lon="5.54829">
        <ele>634</ele>
        <time>2021-12-28T04:16:05Z</time>
      </trkpt>
      <trkpt lat="45.7641" lon="5.54839">
        <ele>634</ele>
        <time>2021-12-28T04:16:06Z</time>
      </trkpt>
      <trkpt lat="45.76404" lon="5.54848">
        <ele>635</ele>
        <time>2021-12-28T04:16:08Z</time>
      </trkpt>
      <trkpt lat="45.76312" lon="5.54932">
        <ele>643</ele>
        <time>2021-12-28T04:16:27Z</time>
      </trkpt>
      <trkpt lat="45.76303" lon="5.54938">
        <ele>644</ele>
        <time>2021-12-28T04:16:29Z</time>
      </trkpt>
      <trkpt lat="45.76266" lon="5.54951">
        <ele>645</ele>
        <time>2021-12-28T04:16:36Z</time>
      </trkpt>
      <trkpt lat="45.76224" lon="5.5497">
        <ele>648</ele>
        <time>2021-12-28T04:16:43Z</time>
      </trkpt>
      <trkpt lat="45.76206" lon="5.54974">
        <ele>649</ele>
        <time>2021-12-28T04:16:47Z</time>
      </trkpt>
      <trkpt lat="45.76177" lon="5.54974">
        <ele>653</ele>
        <time>2021-12-28T04:16:52Z</time>
      </trkpt>
      <trkpt lat="45.76168" lon="5.54976">
        <ele>653</ele>
        <time>2021-12-28T04:16:53Z</time>
      </trkpt>
      <trkpt lat="45.76161" lon="5.54979">
        <ele>654</ele>
        <time>2021-12-28T04:16:55Z</time>
      </trkpt>
      <trkpt lat="45.76152" lon="5.54987">
        <ele>655</ele>
        <time>2021-12-28T04:16:57Z</time>
      </trkpt>
      <trkpt lat="45.76136" lon="5.55009">
        <ele>655</ele>
        <time>2021-12-28T04:17:00Z</time>
      </trkpt>
      <trkpt lat="45.76125" lon="5.55019">
        <ele>655</ele>
        <time>2021-12-28T04:17:03Z</time>
      </trkpt>
      <trkpt lat="45.76087" lon="5.55043">
        <ele>658</ele>
        <time>2021-12-28T04:17:10Z</time>
      </trkpt>
      <trkpt lat="45.76075" lon="5.55054">
        <ele>660</ele>
        <time>2021-12-28T04:17:13Z</time>
      </trkpt>
      <trkpt lat="45.76051" lon="5.55085">
        <ele>664</ele>
        <time>2021-12-28T04:17:18Z</time>
      </trkpt>
      <trkpt lat="45.76" lon="5.55199">
        <ele>669</ele>
        <time>2021-12-28T04:17:35Z</time>
      </trkpt>
      <trkpt lat="45.75946" lon="5.55308">
        <ele>676</ele>
        <time>2021-12-28T04:17:52Z</time>
      </trkpt>
      <trkpt lat="45.75908" lon="5.55396">
        <ele>677</ele>
        <time>2021-12-28T04:18:05Z</time>
      </trkpt>
      <trkpt lat="45.75893" lon="5.55435">
        <ele>681</ele>
        <time>2021-12-28T04:18:10Z</time>
      </trkpt>
      <trkpt lat="45.75886" lon="5.55472">
        <ele>683</ele>
        <time>2021-12-28T04:18:15Z</time>
      </trkpt>
      <trkpt lat="45.75885" lon="5.55521">
        <ele>682</ele>
        <time>2021-12-28T04:18:21Z</time>
      </trkpt>
      <trkpt lat="45.75882" lon="5.55534">
        <ele>683</ele>
        <time>2021-12-28T04:18:23Z</time>
      </trkpt>
      <trkpt lat="45.75873" lon="5.55552">
        <ele>686</ele>
        <time>2021-12-28T04:18:26Z</time>
      </trkpt>
      <trkpt lat="45.75861" lon="5.55569">
        <ele>689</ele>
        <time>2021-12-28T04:18:29Z</time>
      </trkpt>
      <trkpt lat="45.75852" lon="5.55592">
        <ele>693</ele>
        <time>2021-12-28T04:18:32Z</time>
      </trkpt>
      <trkpt lat="45.75842" lon="5.55636">
        <ele>697</ele>
        <time>2021-12-28T04:18:38Z</time>
      </trkpt>
      <trkpt lat="45.75842" lon="5.55655">
        <ele>697</ele>
        <time>2021-12-28T04:18:40Z</time>
      </trkpt>
      <trkpt lat="45.7585" lon="5.5567">
        <ele>696</ele>
        <time>2021-12-28T04:18:42Z</time>
      </trkpt>
      <trkpt lat="45.75921" lon="5.55748">
        <ele>695</ele>
        <time>2021-12-28T04:18:58Z</time>
      </trkpt>
      <trkpt lat="45.75932" lon="5.55767">
        <ele>698</ele>
        <time>2021-12-28T04:19:01Z</time>
      </trkpt>
      <trkpt lat="45.75941" lon="5.55779">
        <ele>699</ele>
        <time>2021-12-28T04:19:03Z</time>
      </trkpt>
      <trkpt lat="45.75958" lon="5.55794">
        <ele>701</ele>
        <time>2021-12-28T04:19:07Z</time>
      </trkpt>
      <trkpt lat="45.75972" lon="5.558">
        <ele>701</ele>
        <time>2021-12-28T04:19:10Z</time>
      </trkpt>
      <trkpt lat="45.75998" lon="5.55806">
        <ele>699</ele>
        <time>2021-12-28T04:19:14Z</time>
      </trkpt>
      <trkpt lat="45.76086" lon="5.55818">
        <ele>704</ele>
        <time>2021-12-28T04:19:30Z</time>
      </trkpt>
      <trkpt lat="45.76101" lon="5.55818">
        <ele>706</ele>
        <time>2021-12-28T04:19:33Z</time>
      </trkpt>
      <trkpt lat="45.76182" lon="5.55793">
        <ele>707</ele>
        <time>2021-12-28T04:19:47Z</time>
      </trkpt>
      <trkpt lat="45.76198" lon="5.55792">
        <ele>708</ele>
        <time>2021-12-28T04:19:50Z</time>
      </trkpt>
      <trkpt lat="45.76258" lon="5.55799">
        <ele>714</ele>
        <time>2021-12-28T04:20:01Z</time>
      </trkpt>
      <trkpt lat="45.76287" lon="5.55797">
        <ele>715</ele>
        <time>2021-12-28T04:20:06Z</time>
      </trkpt>
      <trkpt lat="45.76349" lon="5.55806">
        <ele>716</ele>
        <time>2021-12-28T04:20:17Z</time>
      </trkpt>
      <trkpt lat="45.76371" lon="5.55812">
        <ele>712</ele>
        <time>2021-12-28T04:20:21Z</time>
      </trkpt>
      <trkpt lat="45.7638" lon="5.55822">
        <ele>713</ele>
        <time>2021-12-28T04:20:23Z</time>
      </trkpt>
      <trkpt lat="45.76394" lon="5.55847">
        <ele>716</ele>
        <time>2021-12-28T04:20:27Z</time>
      </trkpt>
      <trkpt lat="45.76414" lon="5.55912">
        <ele>724</ele>
        <time>2021-12-28T04:20:36Z</time>
      </trkpt>
      <trkpt lat="45.76418" lon="5.55934">
        <ele>723</ele>
        <time>2021-12-28T04:20:39Z</time>
      </trkpt>
      <trkpt lat="45.76417" lon="5.55978">
        <ele>725</ele>
        <time>2021-12-28T04:20:44Z</time>
      </trkpt>
      <trkpt lat="45.76399" lon="5.56079">
        <ele>729</ele>
        <time>2021-12-28T04:20:57Z</time>
      </trkpt>
      <trkpt lat="45.7639" lon="5.56106">
        <ele>733</ele>
        <time>2021-12-28T04:21:01Z</time>
      </trkpt>
      <trkpt lat="45.76382" lon="5.56114">
        <ele>735</ele>
        <time>2021-12-28T04:21:03Z</time>
      </trkpt>
      <trkpt lat="45.76368" lon="5.5612">
        <ele>737</ele>
        <time>2021-12-28T04:21:05Z</time>
      </trkpt>
      <trkpt lat="45.76355" lon="5.56128">
        <ele>739</ele>
        <time>2021-12-28T04:21:08Z</time>
      </trkpt>
      <trkpt lat="45.76326" lon="5.56157">
        <ele>740</ele>
        <time>2021-12-28T04:21:14Z</time>
      </trkpt>
      <trkpt lat="45.76298" lon="5.56195">
        <ele>743</ele>
        <time>2021-12-28T04:21:21Z</time>
      </trkpt>
      <trkpt lat="45.76279" lon="5.56226">
        <ele>743</ele>
        <time>2021-12-28T04:21:26Z</time>
      </trkpt>
      <trkpt lat="45.76259" lon="5.56251">
        <ele>741</ele>
        <time>2021-12-28T04:21:31Z</time>
      </trkpt>
      <trkpt lat="45.76231" lon="5.56276">
        <ele>744</ele>
        <time>2021-12-28T04:21:37Z</time>
      </trkpt>
      <trkpt lat="45.76203" lon="5.56292">
        <ele>746</ele>
        <time>2021-12-28T04:21:42Z</time>
      </trkpt>
      <trkpt lat="45.76194" lon="5.56309">
        <ele>745</ele>
        <time>2021-12-28T04:21:45Z</time>
      </trkpt>
      <trkpt lat="45.76142" lon="5.56474">
        <ele>746</ele>
        <time>2021-12-28T04:22:07Z</time>
      </trkpt>
      <trkpt lat="45.76112" lon="5.56608">
        <ele>743</ele>
        <time>2021-12-28T04:22:25Z</time>
      </trkpt>
      <trkpt lat="45.76104" lon="5.56674">
        <ele>745</ele>
        <time>2021-12-28T04:22:33Z</time>
      </trkpt>
      <trkpt lat="45.76086" lon="5.56778">
        <ele>746</ele>
        <time>2021-12-28T04:22:46Z</time>
      </trkpt>
      <trkpt lat="45.76083" lon="5.56806">
        <ele>745</ele>
        <time>2021-12-28T04:22:50Z</time>
      </trkpt>
      <trkpt lat="45.76088" lon="5.56857">
        <ele>747</ele>
        <time>2021-12-28T04:22:56Z</time>
      </trkpt>
      <trkpt lat="45.76086" lon="5.5688">
        <ele>747</ele>
        <time>2021-12-28T04:22:59Z</time>
      </trkpt>
      <trkpt lat="45.7608" lon="5.56903">
        <ele>747</ele>
        <time>2021-12-28T04:23:02Z</time>
      </trkpt>
      <trkpt lat="45.76029" lon="5.56985">
        <ele>744</ele>
        <time>2021-12-28T04:23:16Z</time>
      </trkpt>
      <trkpt lat="45.76006" lon="5.57037">
        <ele>745</ele>
        <time>2021-12-28T04:23:23Z</time>
      </trkpt>
      <trkpt lat="45.76001" lon="5.57044">
        <ele>745</ele>
        <time>2021-12-28T04:23:25Z</time>
      </trkpt>
      <trkpt lat="45.75967" lon="5.57072">
        <ele>747</ele>
        <time>2021-12-28T04:23:32Z</time>
      </trkpt>
      <trkpt lat="45.75949" lon="5.5709">
        <ele>748</ele>
        <time>2021-12-28T04:23:36Z</time>
      </trkpt>
      <trkpt lat="45.75937" lon="5.57104">
        <ele>748</ele>
        <time>2021-12-28T04:23:38Z</time>
      </trkpt>
      <trkpt lat="45.75931" lon="5.57121">
        <ele>749</ele>
        <time>2021-12-28T04:23:41Z</time>
      </trkpt>
      <trkpt lat="45.75929" lon="5.5714">
        <ele>749</ele>
        <time>2021-12-28T04:23:43Z</time>
      </trkpt>
      <trkpt lat="45.75934" lon="5.57193">
        <ele>750</ele>
        <time>2021-12-28T04:23:50Z</time>
      </trkpt>
      <trkpt lat="45.75942" lon="5.57243">
        <ele>748</ele>
        <time>2021-12-28T04:23:56Z</time>
      </trkpt>
      <trkpt lat="45.75941" lon="5.57265">
        <ele>746</ele>
        <time>2021-12-28T04:23:59Z</time>
      </trkpt>
      <trkpt lat="45.75936" lon="5.57275">
        <ele>745</ele>
        <time>2021-12-28T04:24:00Z</time>
      </trkpt>
      <trkpt lat="45.75896" lon="5.57332">
        <ele>745</ele>
        <time>2021-12-28T04:24:10Z</time>
      </trkpt>
      <trkpt lat="45.75877" lon="5.57366">
        <ele>742</ele>
        <time>2021-12-28T04:24:16Z</time>
      </trkpt>
      <trkpt lat="45.758" lon="5.5747">
        <ele>742</ele>
        <time>2021-12-28T04:24:35Z</time>
      </trkpt>
      <trkpt lat="45.7579" lon="5.5748">
        <ele>742</ele>
        <time>2021-12-28T04:24:37Z</time>
      </trkpt>
      <trkpt lat="45.75774" lon="5.57488">
        <ele>743</ele>
        <time>2021-12-28T04:24:40Z</time>
      </trkpt>
      <trkpt lat="45.75763" lon="5.57499">
        <ele>744</ele>
        <time>2021-12-28T04:24:42Z</time>
      </trkpt>
      <trkpt lat="45.75755" lon="5.57515">
        <ele>743</ele>
        <time>2021-12-28T04:24:45Z</time>
      </trkpt>
      <trkpt lat="45.75748" lon="5.57542">
        <ele>741</ele>
        <time>2021-12-28T04:24:48Z</time>
      </trkpt>
      <trkpt lat="45.75741" lon="5.5759">
        <ele>736</ele>
        <time>2021-12-28T04:24:54Z</time>
      </trkpt>
      <trkpt lat="45.75736" lon="5.57611">
        <ele>733</ele>
        <time>2021-12-28T04:24:57Z</time>
      </trkpt>
      <trkpt lat="45.75731" lon="5.57624">
        <ele>732</ele>
        <time>2021-12-28T04:24:59Z</time>
      </trkpt>
      <trkpt lat="45.75725" lon="5.57631">
        <ele>732</ele>
        <time>2021-12-28T04:25:00Z</time>
      </trkpt>
      <trkpt lat="45.75715" lon="5.57637">
        <ele>732</ele>
        <time>2021-12-28T04:25:02Z</time>
      </trkpt>
      <trkpt lat="45.75701" lon="5.57641">
        <ele>733</ele>
        <time>2021-12-28T04:25:05Z</time>
      </trkpt>
      <trkpt lat="45.75686" lon="5.57653">
        <ele>733</ele>
        <time>2021-12-28T04:25:08Z</time>
      </trkpt>
      <trkpt lat="45.75678" lon="5.57665">
        <ele>733</ele>
        <time>2021-12-28T04:25:10Z</time>
      </trkpt>
      <trkpt lat="45.75674" lon="5.57682">
        <ele>731</ele>
        <time>2021-12-28T04:25:12Z</time>
      </trkpt>
      <trkpt lat="45.75668" lon="5.577">
        <ele>729</ele>
        <time>2021-12-28T04:25:14Z</time>
      </trkpt>
      <trkpt lat="45.75652" lon="5.57718">
        <ele>728</ele>
        <time>2021-12-28T04:25:18Z</time>
      </trkpt>
      <trkpt lat="45.75628" lon="5.5774">
        <ele>728</ele>
        <time>2021-12-28T04:25:23Z</time>
      </trkpt>
      <trkpt lat="45.756" lon="5.57761">
        <ele>728</ele>
        <time>2021-12-28T04:25:29Z</time>
      </trkpt>
      <trkpt lat="45.75577" lon="5.57783">
        <ele>727</ele>
        <time>2021-12-28T04:25:34Z</time>
      </trkpt>
      <trkpt lat="45.75555" lon="5.57811">
        <ele>724</ele>
        <time>2021-12-28T04:25:39Z</time>
      </trkpt>
      <trkpt lat="45.75516" lon="5.57844">
        <ele>724</ele>
        <time>2021-12-28T04:25:47Z</time>
      </trkpt>
      <trkpt lat="45.75507" lon="5.57857">
        <ele>724</ele>
        <time>2021-12-28T04:25:49Z</time>
      </trkpt>
      <trkpt lat="45.75502" lon="5.57868">
        <ele>723</ele>
        <time>2021-12-28T04:25:51Z</time>
      </trkpt>
      <trkpt lat="45.75501" lon="5.57883">
        <ele>722</ele>
        <time>2021-12-28T04:25:53Z</time>
      </trkpt>
      <trkpt lat="45.75507" lon="5.57926">
        <ele>719</ele>
        <time>2021-12-28T04:25:58Z</time>
      </trkpt>
      <trkpt lat="45.75507" lon="5.57937">
        <ele>718</ele>
        <time>2021-12-28T04:26:00Z</time>
      </trkpt>
      <trkpt lat="45.75503" lon="5.57949">
        <ele>717</ele>
        <time>2021-12-28T04:26:01Z</time>
      </trkpt>
      <trkpt lat="45.75492" lon="5.57961">
        <ele>717</ele>
        <time>2021-12-28T04:26:04Z</time>
      </trkpt>
      <trkpt lat="45.75441" lon="5.58002">
        <ele>721</ele>
        <time>2021-12-28T04:26:14Z</time>
      </trkpt>
      <trkpt lat="45.75433" lon="5.58015">
        <ele>722</ele>
        <time>2021-12-28T04:26:16Z</time>
      </trkpt>
      <trkpt lat="45.75429" lon="5.58027">
        <ele>723</ele>
        <time>2021-12-28T04:26:18Z</time>
      </trkpt>
      <trkpt lat="45.75428" lon="5.58043">
        <ele>724</ele>
        <time>2021-12-28T04:26:20Z</time>
      </trkpt>
      <trkpt lat="45.75428" lon="5.58056">
        <ele>724</ele>
        <time>2021-12-28T04:26:22Z</time>
      </trkpt>
      <trkpt lat="45.75439" lon="5.5812">
        <ele>725</ele>
        <time>2021-12-28T04:26:30Z</time>
      </trkpt>
      <trkpt lat="45.75439" lon="5.58139">
        <ele>725</ele>
        <time>2021-12-28T04:26:32Z</time>
      </trkpt>
      <trkpt lat="45.75437" lon="5.58152">
        <ele>726</ele>
        <time>2021-12-28T04:26:34Z</time>
      </trkpt>
      <trkpt lat="45.75422" lon="5.58206">
        <ele>723</ele>
        <time>2021-12-28T04:26:41Z</time>
      </trkpt>
      <trkpt lat="45.75422" lon="5.58223">
        <ele>722</ele>
        <time>2021-12-28T04:26:43Z</time>
      </trkpt>
      <trkpt lat="45.75424" lon="5.58237">
        <ele>721</ele>
        <time>2021-12-28T04:26:45Z</time>
      </trkpt>
      <trkpt lat="45.75435" lon="5.58275">
        <ele>721</ele>
        <time>2021-12-28T04:26:50Z</time>
      </trkpt>
      <trkpt lat="45.75446" lon="5.58328">
        <ele>721</ele>
        <time>2021-12-28T04:26:57Z</time>
      </trkpt>
      <trkpt lat="45.75447" lon="5.58343">
        <ele>722</ele>
        <time>2021-12-28T04:26:59Z</time>
      </trkpt>
      <trkpt lat="45.75446" lon="5.58362">
        <ele>723</ele>
        <time>2021-12-28T04:27:01Z</time>
      </trkpt>
      <trkpt lat="45.75442" lon="5.58383">
        <ele>724</ele>
        <time>2021-12-28T04:27:04Z</time>
      </trkpt>
      <trkpt lat="45.7543" lon="5.58425">
        <ele>723</ele>
        <time>2021-12-28T04:27:09Z</time>
      </trkpt>
      <trkpt lat="45.75413" lon="5.58461">
        <ele>722</ele>
        <time>2021-12-28T04:27:15Z</time>
      </trkpt>
      <trkpt lat="45.75382" lon="5.58499">
        <ele>719</ele>
        <time>2021-12-28T04:27:22Z</time>
      </trkpt>
      <trkpt lat="45.75334" lon="5.58542">
        <ele>713</ele>
        <time>2021-12-28T04:27:32Z</time>
      </trkpt>
      <trkpt lat="45.75326" lon="5.58555">
        <ele>713</ele>
        <time>2021-12-28T04:27:34Z</time>
      </trkpt>
      <trkpt lat="45.75322" lon="5.58568">
        <ele>714</ele>
        <time>2021-12-28T04:27:36Z</time>
      </trkpt>
      <trkpt lat="45.75319" lon="5.58613">
        <ele>716</ele>
        <time>2021-12-28T04:27:42Z</time>
      </trkpt>
      <trkpt lat="45.75315" lon="5.58633">
        <ele>718</ele>
        <time>2021-12-28T04:27:44Z</time>
      </trkpt>
      <trkpt lat="45.75306" lon="5.5865">
        <ele>719</ele>
        <time>2021-12-28T04:27:47Z</time>
      </trkpt>
      <trkpt lat="45.75283" lon="5.58678">
        <ele>719</ele>
        <time>2021-12-28T04:27:52Z</time>
      </trkpt>
      <trkpt lat="45.7527" lon="5.58699">
        <ele>718</ele>
        <time>2021-12-28T04:27:56Z</time>
      </trkpt>
      <trkpt lat="45.75243" lon="5.58749">
        <ele>713</ele>
        <time>2021-12-28T04:28:04Z</time>
      </trkpt>
      <trkpt lat="45.7519" lon="5.58831">
        <ele>707</ele>
        <time>2021-12-28T04:28:17Z</time>
      </trkpt>
      <trkpt lat="45.75161" lon="5.58868">
        <ele>704</ele>
        <time>2021-12-28T04:28:24Z</time>
      </trkpt>
      <trkpt lat="45.75146" lon="5.58891">
        <ele>701</ele>
        <time>2021-12-28T04:28:28Z</time>
      </trkpt>
      <trkpt lat="45.75131" lon="5.58921">
        <ele>698</ele>
        <time>2021-12-28T04:28:33Z</time>
      </trkpt>
      <trkpt lat="45.75118" lon="5.58957">
        <ele>696</ele>
        <time>2021-12-28T04:28:38Z</time>
      </trkpt>
      <trkpt lat="45.75106" lon="5.58983">
        <ele>694</ele>
        <time>2021-12-28T04:28:42Z</time>
      </trkpt>
      <trkpt lat="45.75096" lon="5.58993">
        <ele>693</ele>
        <time>2021-12-28T04:28:44Z</time>
      </trkpt>
      <trkpt lat="45.75081" lon="5.59003">
        <ele>693</ele>
        <time>2021-12-28T04:28:47Z</time>
      </trkpt>
      <trkpt lat="45.75065" lon="5.59016">
        <ele>692</ele>
        <time>2021-12-28T04:28:50Z</time>
      </trkpt>
      <trkpt lat="45.75052" lon="5.59032">
        <ele>690</ele>
        <time>2021-12-28T04:28:53Z</time>
      </trkpt>
      <trkpt lat="45.75044" lon="5.59049">
        <ele>689</ele>
        <time>2021-12-28T04:28:56Z</time>
      </trkpt>
      <trkpt lat="45.75034" lon="5.59059">
        <ele>688</ele>
        <time>2021-12-28T04:28:58Z</time>
      </trkpt>
      <trkpt lat="45.75021" lon="5.59068">
        <ele>686</ele>
        <time>2021-12-28T04:29:00Z</time>
      </trkpt>
      <trkpt lat="45.75011" lon="5.5908">
        <ele>685</ele>
        <time>2021-12-28T04:29:03Z</time>
      </trkpt>
      <trkpt lat="45.74994" lon="5.59113">
        <ele>680</ele>
        <time>2021-12-28T04:29:08Z</time>
      </trkpt>
      <trkpt lat="45.74983" lon="5.59129">
        <ele>678</ele>
        <time>2021-12-28T04:29:11Z</time>
      </trkpt>
      <trkpt lat="45.74966" lon="5.59143">
        <ele>676</ele>
        <time>2021-12-28T04:29:14Z</time>
      </trkpt>
      <trkpt lat="45.74953" lon="5.59146">
        <ele>676</ele>
        <time>2021-12-28T04:29:16Z</time>
      </trkpt>
      <trkpt lat="45.7494" lon="5.59145">
        <ele>677</ele>
        <time>2021-12-28T04:29:19Z</time>
      </trkpt>
      <trkpt lat="45.74905" lon="5.59132">
        <ele>681</ele>
        <time>2021-12-28T04:29:25Z</time>
      </trkpt>
      <trkpt lat="45.74896" lon="5.59132">
        <ele>682</ele>
        <time>2021-12-28T04:29:27Z</time>
      </trkpt>
      <trkpt lat="45.7488" lon="5.59136">
        <ele>681</ele>
        <time>2021-12-28T04:29:30Z</time>
      </trkpt>
      <trkpt lat="45.74856" lon="5.59146">
        <ele>679</ele>
        <time>2021-12-28T04:29:34Z</time>
      </trkpt>
      <trkpt lat="45.74766" lon="5.59189">
        <ele>674</ele>
        <time>2021-12-28T04:29:51Z</time>
      </trkpt>
      <trkpt lat="45.74745" lon="5.59202">
        <ele>672</ele>
        <time>2021-12-28T04:29:55Z</time>
      </trkpt>
      <trkpt lat="45.74693" lon="5.59252">
        <ele>664</ele>
        <time>2021-12-28T04:30:06Z</time>
      </trkpt>
      <trkpt lat="45.74668" lon="5.59267">
        <ele>664</ele>
        <time>2021-12-28T04:30:11Z</time>
      </trkpt>
      <trkpt lat="45.74616" lon="5.59294">
        <ele>662</ele>
        <time>2021-12-28T04:30:21Z</time>
      </trkpt>
      <trkpt lat="45.746" lon="5.59306">
        <ele>660</ele>
        <time>2021-12-28T04:30:24Z</time>
      </trkpt>
      <trkpt lat="45.74597" lon="5.59316">
        <ele>658</ele>
        <time>2021-12-28T04:30:26Z</time>
      </trkpt>
      <trkpt lat="45.746" lon="5.59324">
        <ele>656</ele>
        <time>2021-12-28T04:30:27Z</time>
      </trkpt>
      <trkpt lat="45.74609" lon="5.59327">
        <ele>655</ele>
        <time>2021-12-28T04:30:28Z</time>
      </trkpt>
      <trkpt lat="45.74656" lon="5.59323">
        <ele>652</ele>
        <time>2021-12-28T04:30:37Z</time>
      </trkpt>
      <trkpt lat="45.74675" lon="5.59325">
        <ele>650</ele>
        <time>2021-12-28T04:30:40Z</time>
      </trkpt>
      <trkpt lat="45.74691" lon="5.5933">
        <ele>648</ele>
        <time>2021-12-28T04:30:43Z</time>
      </trkpt>
      <trkpt lat="45.74723" lon="5.59352">
        <ele>641</ele>
        <time>2021-12-28T04:30:49Z</time>
      </trkpt>
      <trkpt lat="45.74731" lon="5.59354">
        <ele>640</ele>
        <time>2021-12-28T04:30:51Z</time>
      </trkpt>
      <trkpt lat="45.74786" lon="5.59337">
        <ele>639</ele>
        <time>2021-12-28T04:31:01Z</time>
      </trkpt>
      <trkpt lat="45.74841" lon="5.59301">
        <ele>640</ele>
        <time>2021-12-28T04:31:11Z</time>
      </trkpt>
      <trkpt lat="45.74852" lon="5.593">
        <ele>640</ele>
        <time>2021-12-28T04:31:13Z</time>
      </trkpt>
      <trkpt lat="45.74862" lon="5.5931">
        <ele>638</ele>
        <time>2021-12-28T04:31:16Z</time>
      </trkpt>
      <trkpt lat="45.74863" lon="5.59328">
        <ele>634</ele>
        <time>2021-12-28T04:31:18Z</time>
      </trkpt>
      <trkpt lat="45.74856" lon="5.59345">
        <ele>629</ele>
        <time>2021-12-28T04:31:20Z</time>
      </trkpt>
      <trkpt lat="45.7484" lon="5.5936">
        <ele>626</ele>
        <time>2021-12-28T04:31:24Z</time>
      </trkpt>
      <trkpt lat="45.74794" lon="5.59394">
        <ele>622</ele>
        <time>2021-12-28T04:31:33Z</time>
      </trkpt>
      <trkpt lat="45.74774" lon="5.59406">
        <ele>623</ele>
        <time>2021-12-28T04:31:37Z</time>
      </trkpt>
      <trkpt lat="45.7475" lon="5.59417">
        <ele>625</ele>
        <time>2021-12-28T04:31:41Z</time>
      </trkpt>
      <trkpt lat="45.74727" lon="5.59426">
        <ele>620</ele>
        <time>2021-12-28T04:31:46Z</time>
      </trkpt>
      <trkpt lat="45.74667" lon="5.5944">
        <ele>617</ele>
        <time>2021-12-28T04:31:56Z</time>
      </trkpt>
      <trkpt lat="45.74639" lon="5.59451">
        <ele>611</ele>
        <time>2021-12-28T04:32:01Z</time>
      </trkpt>
      <trkpt lat="45.74614" lon="5.59454">
        <ele>610</ele>
        <time>2021-12-28T04:32:06Z</time>
      </trkpt>
      <trkpt lat="45.74566" lon="5.59455">
        <ele>610</ele>
        <time>2021-12-28T04:32:14Z</time>
      </trkpt>
      <trkpt lat="45.74492" lon="5.59451">
        <ele>614</ele>
        <time>2021-12-28T04:32:28Z</time>
      </trkpt>
      <trkpt lat="45.74453" lon="5.59453">
        <ele>612</ele>
        <time>2021-12-28T04:32:35Z</time>
      </trkpt>
      <trkpt lat="45.74311" lon="5.59493">
        <ele>597</ele>
        <time>2021-12-28T04:33:00Z</time>
      </trkpt>
      <trkpt lat="45.74265" lon="5.59514">
        <ele>590</ele>
        <time>2021-12-28T04:33:09Z</time>
      </trkpt>
      <trkpt lat="45.74256" lon="5.59523">
        <ele>588</ele>
        <time>2021-12-28T04:33:11Z</time>
      </trkpt>
      <trkpt lat="45.74254" lon="5.59534">
        <ele>584</ele>
        <time>2021-12-28T04:33:12Z</time>
      </trkpt>
      <trkpt lat="45.74259" lon="5.59537">
        <ele>583</ele>
        <time>2021-12-28T04:33:13Z</time>
      </trkpt>
      <trkpt lat="45.74269" lon="5.59535">
        <ele>584</ele>
        <time>2021-12-28T04:33:15Z</time>
      </trkpt>
      <trkpt lat="45.74301" lon="5.5952">
        <ele>587</ele>
        <time>2021-12-28T04:33:21Z</time>
      </trkpt>
      <trkpt lat="45.74315" lon="5.59517">
        <ele>588</ele>
        <time>2021-12-28T04:33:24Z</time>
      </trkpt>
      <trkpt lat="45.74328" lon="5.59517">
        <ele>588</ele>
        <time>2021-12-28T04:33:26Z</time>
      </trkpt>
      <trkpt lat="45.74419" lon="5.59525">
        <ele>580</ele>
        <time>2021-12-28T04:33:42Z</time>
      </trkpt>
      <trkpt lat="45.74476" lon="5.59535">
        <ele>572</ele>
        <time>2021-12-28T04:33:52Z</time>
      </trkpt>
      <trkpt lat="45.74547" lon="5.59539">
        <ele>566</ele>
        <time>2021-12-28T04:34:05Z</time>
      </trkpt>
      <trkpt lat="45.74581" lon="5.59539">
        <ele>565</ele>
        <time>2021-12-28T04:34:11Z</time>
      </trkpt>
      <trkpt lat="45.74676" lon="5.59543">
        <ele>557</ele>
        <time>2021-12-28T04:34:28Z</time>
      </trkpt>
      <trkpt lat="45.7471" lon="5.59541">
        <ele>554</ele>
        <time>2021-12-28T04:34:34Z</time>
      </trkpt>
      <trkpt lat="45.74773" lon="5.5954">
        <ele>547</ele>
        <time>2021-12-28T04:34:45Z</time>
      </trkpt>
      <trkpt lat="45.74795" lon="5.59537">
        <ele>546</ele>
        <time>2021-12-28T04:34:49Z</time>
      </trkpt>
      <trkpt lat="45.74832" lon="5.59528">
        <ele>546</ele>
        <time>2021-12-28T04:34:56Z</time>
      </trkpt>
      <trkpt lat="45.7486" lon="5.59525">
        <ele>545</ele>
        <time>2021-12-28T04:35:01Z</time>
      </trkpt>
      <trkpt lat="45.74917" lon="5.5953">
        <ele>537</ele>
        <time>2021-12-28T04:35:11Z</time>
      </trkpt>
      <trkpt lat="45.74955" lon="5.59538">
        <ele>534</ele>
        <time>2021-12-28T04:35:18Z</time>
      </trkpt>
      <trkpt lat="45.75056" lon="5.5954">
        <ele>530</ele>
        <time>2021-12-28T04:35:36Z</time>
      </trkpt>
      <trkpt lat="45.75091" lon="5.59543">
        <ele>528</ele>
        <time>2021-12-28T04:35:42Z</time>
      </trkpt>
      <trkpt lat="45.7513" lon="5.59541">
        <ele>533</ele>
        <time>2021-12-28T04:35:49Z</time>
      </trkpt>
      <trkpt lat="45.75141" lon="5.59546">
        <ele>532</ele>
        <time>2021-12-28T04:35:51Z</time>
      </trkpt>
      <trkpt lat="45.7516" lon="5.59559">
        <ele>527</ele>
        <time>2021-12-28T04:35:55Z</time>
      </trkpt>
      <trkpt lat="45.75199" lon="5.59595">
        <ele>521</ele>
        <time>2021-12-28T04:36:03Z</time>
      </trkpt>
      <trkpt lat="45.75234" lon="5.59639">
        <ele>513</ele>
        <time>2021-12-28T04:36:11Z</time>
      </trkpt>
      <trkpt lat="45.75247" lon="5.5965">
        <ele>512</ele>
        <time>2021-12-28T04:36:14Z</time>
      </trkpt>
      <trkpt lat="45.75322" lon="5.59691">
        <ele>509</ele>
        <time>2021-12-28T04:36:28Z</time>
      </trkpt>
      <trkpt lat="45.75353" lon="5.59701">
        <ele>510</ele>
        <time>2021-12-28T04:36:34Z</time>
      </trkpt>
      <trkpt lat="45.75496" lon="5.59795">
        <ele>497</ele>
        <time>2021-12-28T04:37:02Z</time>
      </trkpt>
      <trkpt lat="45.75486" lon="5.59806">
        <ele>493</ele>
        <time>2021-12-28T04:37:04Z</time>
      </trkpt>
      <trkpt lat="45.75415" lon="5.59796">
        <ele>484</ele>
        <time>2021-12-28T04:37:17Z</time>
      </trkpt>
      <trkpt lat="45.75371" lon="5.59786">
        <ele>482</ele>
        <time>2021-12-28T04:37:25Z</time>
      </trkpt>
      <trkpt lat="45.75359" lon="5.59787">
        <ele>480</ele>
        <time>2021-12-28T04:37:27Z</time>
      </trkpt>
      <trkpt lat="45.75299" lon="5.59811">
        <ele>466</ele>
        <time>2021-12-28T04:37:38Z</time>
      </trkpt>
      <trkpt lat="45.75284" lon="5.59813">
        <ele>464</ele>
        <time>2021-12-28T04:37:41Z</time>
      </trkpt>
      <trkpt lat="45.75237" lon="5.59802">
        <ele>464</ele>
        <time>2021-12-28T04:37:49Z</time>
      </trkpt>
      <trkpt lat="45.75221" lon="5.598">
        <ele>462</ele>
        <time>2021-12-28T04:37:52Z</time>
      </trkpt>
      <trkpt lat="45.75179" lon="5.59807">
        <ele>456</ele>
        <time>2021-12-28T04:38:00Z</time>
      </trkpt>
      <trkpt lat="45.75126" lon="5.59823">
        <ele>446</ele>
        <time>2021-12-28T04:38:09Z</time>
      </trkpt>
      <trkpt lat="45.75112" lon="5.59823">
        <ele>443</ele>
        <time>2021-12-28T04:38:12Z</time>
      </trkpt>
      <trkpt lat="45.75105" lon="5.59819">
        <ele>443</ele>
        <time>2021-12-28T04:38:13Z</time>
      </trkpt>
      <trkpt lat="45.75098" lon="5.59813">
        <ele>443</ele>
        <time>2021-12-28T04:38:14Z</time>
      </trkpt>
      <trkpt lat="45.75095" lon="5.59806">
        <ele>444</ele>
        <time>2021-12-28T04:38:15Z</time>
      </trkpt>
      <trkpt lat="45.75094" lon="5.59766">
        <ele>449</ele>
        <time>2021-12-28T04:38:20Z</time>
      </trkpt>
      <trkpt lat="45.75091" lon="5.5976">
        <ele>449</ele>
        <time>2021-12-28T04:38:21Z</time>
      </trkpt>
      <trkpt lat="45.75087" lon="5.59756">
        <ele>449</ele>
        <time>2021-12-28T04:38:22Z</time>
      </trkpt>
      <trkpt lat="45.75082" lon="5.59756">
        <ele>448</ele>
        <time>2021-12-28T04:38:23Z</time>
      </trkpt>
      <trkpt lat="45.75077" lon="5.59761">
        <ele>448</ele>
        <time>2021-12-28T04:38:24Z</time>
      </trkpt>
      <trkpt lat="45.75074" lon="5.59774">
        <ele>446</ele>
        <time>2021-12-28T04:38:26Z</time>
      </trkpt>
      <trkpt lat="45.75074" lon="5.59833">
        <ele>437</ele>
        <time>2021-12-28T04:38:33Z</time>
      </trkpt>
      <trkpt lat="45.75072" lon="5.59853">
        <ele>435</ele>
        <time>2021-12-28T04:38:36Z</time>
      </trkpt>
      <trkpt lat="45.75053" lon="5.59933">
        <ele>424</ele>
        <time>2021-12-28T04:38:46Z</time>
      </trkpt>
      <trkpt lat="45.75045" lon="5.60072">
        <ele>414</ele>
        <time>2021-12-28T04:39:04Z</time>
      </trkpt>
      <trkpt lat="45.75041" lon="5.60098">
        <ele>412</ele>
        <time>2021-12-28T04:39:07Z</time>
      </trkpt>
      <trkpt lat="45.75037" lon="5.60112">
        <ele>410</ele>
        <time>2021-12-28T04:39:09Z</time>
      </trkpt>
      <trkpt lat="45.75033" lon="5.6012">
        <ele>409</ele>
        <time>2021-12-28T04:39:10Z</time>
      </trkpt>
      <trkpt lat="45.75009" lon="5.60129">
        <ele>409</ele>
        <time>2021-12-28T04:39:14Z</time>
      </trkpt>
      <trkpt lat="45.74927" lon="5.6013">
        <ele>406</ele>
        <time>2021-12-28T04:39:29Z</time>
      </trkpt>
      <trkpt lat="45.74857" lon="5.60099">
        <ele>402</ele>
        <time>2021-12-28T04:39:42Z</time>
      </trkpt>
      <trkpt lat="45.7479" lon="5.60094">
        <ele>401</ele>
        <time>2021-12-28T04:39:54Z</time>
      </trkpt>
      <trkpt lat="45.74689" lon="5.60073">
        <ele>401</ele>
        <time>2021-12-28T04:40:12Z</time>
      </trkpt>
      <trkpt lat="45.74582" lon="5.60056">
        <ele>400</ele>
        <time>2021-12-28T04:40:31Z</time>
      </trkpt>
      <trkpt lat="45.74036" lon="5.60117">
        <ele>382</ele>
        <time>2021-12-28T04:42:09Z</time>
      </trkpt>
      <trkpt lat="45.74009" lon="5.60117">
        <ele>383</ele>
        <time>2021-12-28T04:42:13Z</time>
      </trkpt>
      <trkpt lat="45.73989" lon="5.60114">
        <ele>383</ele>
        <time>2021-12-28T04:42:17Z</time>
      </trkpt>
      <trkpt lat="45.73962" lon="5.60106">
        <ele>384</ele>
        <time>2021-12-28T04:42:22Z</time>
      </trkpt>
      <trkpt lat="45.73912" lon="5.60077">
        <ele>384</ele>
        <time>2021-12-28T04:42:32Z</time>
      </trkpt>
      <trkpt lat="45.73885" lon="5.60058">
        <ele>384</ele>
        <time>2021-12-28T04:42:37Z</time>
      </trkpt>
      <trkpt lat="45.73859" lon="5.60042">
        <ele>383</ele>
        <time>2021-12-28T04:42:42Z</time>
      </trkpt>
      <trkpt lat="45.73704" lon="5.5999">
        <ele>380</ele>
        <time>2021-12-28T04:43:10Z</time>
      </trkpt>
      <trkpt lat="45.73685" lon="5.59988">
        <ele>379</ele>
        <time>2021-12-28T04:43:14Z</time>
      </trkpt>
      <trkpt lat="45.73664" lon="5.59989">
        <ele>378</ele>
        <time>2021-12-28T04:43:17Z</time>
      </trkpt>
      <trkpt lat="45.7362" lon="5.59999">
        <ele>378</ele>
        <time>2021-12-28T04:43:25Z</time>
      </trkpt>
      <trkpt lat="45.73568" lon="5.60012">
        <ele>377</ele>
        <time>2021-12-28T04:43:35Z</time>
      </trkpt>
      <trkpt lat="45.73555" lon="5.60019">
        <ele>376</ele>
        <time>2021-12-28T04:43:37Z</time>
      </trkpt>
      <trkpt lat="45.73536" lon="5.6004">
        <ele>375</ele>
        <time>2021-12-28T04:43:41Z</time>
      </trkpt>
      <trkpt lat="45.73505" lon="5.60095">
        <ele>374</ele>
        <time>2021-12-28T04:43:50Z</time>
      </trkpt>
      <trkpt lat="45.73493" lon="5.60108">
        <ele>373</ele>
        <time>2021-12-28T04:43:53Z</time>
      </trkpt>
      <trkpt lat="45.73479" lon="5.60117">
        <ele>372</ele>
        <time>2021-12-28T04:43:56Z</time>
      </trkpt>
      <trkpt lat="45.73463" lon="5.60123">
        <ele>372</ele>
        <time>2021-12-28T04:43:59Z</time>
      </trkpt>
      <trkpt lat="45.73445" lon="5.60123">
        <ele>373</ele>
        <time>2021-12-28T04:44:02Z</time>
      </trkpt>
      <trkpt lat="45.73429" lon="5.60116">
        <ele>374</ele>
        <time>2021-12-28T04:44:05Z</time>
      </trkpt>
      <trkpt lat="45.73406" lon="5.60102">
        <ele>375</ele>
        <time>2021-12-28T04:44:09Z</time>
      </trkpt>
      <trkpt lat="45.73388" lon="5.60093">
        <ele>375</ele>
        <time>2021-12-28T04:44:13Z</time>
      </trkpt>
      <trkpt lat="45.7336" lon="5.60086">
        <ele>375</ele>
        <time>2021-12-28T04:44:18Z</time>
      </trkpt>
      <trkpt lat="45.73334" lon="5.60083">
        <ele>374</ele>
        <time>2021-12-28T04:44:22Z</time>
      </trkpt>
      <trkpt lat="45.73311" lon="5.60084">
        <ele>373</ele>
        <time>2021-12-28T04:44:26Z</time>
      </trkpt>
      <trkpt lat="45.73287" lon="5.60091">
        <ele>373</ele>
        <time>2021-12-28T04:44:31Z</time>
      </trkpt>
      <trkpt lat="45.73192" lon="5.60132">
        <ele>377</ele>
        <time>2021-12-28T04:44:48Z</time>
      </trkpt>
      <trkpt lat="45.73173" lon="5.60133">
        <ele>377</ele>
        <time>2021-12-28T04:44:52Z</time>
      </trkpt>
      <trkpt lat="45.73107" lon="5.60125">
        <ele>374</ele>
        <time>2021-12-28T04:45:04Z</time>
      </trkpt>
      <trkpt lat="45.73091" lon="5.60127">
        <ele>373</ele>
        <time>2021-12-28T04:45:06Z</time>
      </trkpt>
      <trkpt lat="45.73062" lon="5.60135">
        <ele>373</ele>
        <time>2021-12-28T04:45:12Z</time>
      </trkpt>
      <trkpt lat="45.73049" lon="5.60143">
        <ele>372</ele>
        <time>2021-12-28T04:45:14Z</time>
      </trkpt>
      <trkpt lat="45.73043" lon="5.60152">
        <ele>372</ele>
        <time>2021-12-28T04:45:16Z</time>
      </trkpt>
      <trkpt lat="45.73037" lon="5.60168">
        <ele>372</ele>
        <time>2021-12-28T04:45:18Z</time>
      </trkpt>
      <trkpt lat="45.73033" lon="5.60187">
        <ele>373</ele>
        <time>2021-12-28T04:45:20Z</time>
      </trkpt>
      <trkpt lat="45.73033" lon="5.6025">
        <ele>376</ele>
        <time>2021-12-28T04:45:28Z</time>
      </trkpt>
      <trkpt lat="45.73029" lon="5.60278">
        <ele>374</ele>
        <time>2021-12-28T04:45:32Z</time>
      </trkpt>
      <trkpt lat="45.73023" lon="5.60302">
        <ele>372</ele>
        <time>2021-12-28T04:45:35Z</time>
      </trkpt>
      <trkpt lat="45.73011" lon="5.60338">
        <ele>368</ele>
        <time>2021-12-28T04:45:40Z</time>
      </trkpt>
      <trkpt lat="45.72949" lon="5.60441">
        <ele>365</ele>
        <time>2021-12-28T04:45:57Z</time>
      </trkpt>
      <trkpt lat="45.72936" lon="5.60456">
        <ele>365</ele>
        <time>2021-12-28T04:46:00Z</time>
      </trkpt>
      <trkpt lat="45.72917" lon="5.6047">
        <ele>365</ele>
        <time>2021-12-28T04:46:04Z</time>
      </trkpt>
      <trkpt lat="45.72901" lon="5.60479">
        <ele>365</ele>
        <time>2021-12-28T04:46:07Z</time>
      </trkpt>
      <trkpt lat="45.72741" lon="5.6052">
        <ele>362</ele>
        <time>2021-12-28T04:46:36Z</time>
      </trkpt>
      <trkpt lat="45.72726" lon="5.6053">
        <ele>362</ele>
        <time>2021-12-28T04:46:39Z</time>
      </trkpt>
      <trkpt lat="45.72715" lon="5.60541">
        <ele>362</ele>
        <time>2021-12-28T04:46:41Z</time>
      </trkpt>
      <trkpt lat="45.72705" lon="5.60556">
        <ele>362</ele>
        <time>2021-12-28T04:46:44Z</time>
      </trkpt>
      <trkpt lat="45.7269" lon="5.60594">
        <ele>361</ele>
        <time>2021-12-28T04:46:49Z</time>
      </trkpt>
      <trkpt lat="45.72688" lon="5.60605">
        <ele>361</ele>
        <time>2021-12-28T04:46:50Z</time>
      </trkpt>
      <trkpt lat="45.72686" lon="5.6062">
        <ele>362</ele>
        <time>2021-12-28T04:46:52Z</time>
      </trkpt>
      <trkpt lat="45.7268" lon="5.60642">
        <ele>361</ele>
        <time>2021-12-28T04:46:55Z</time>
      </trkpt>
      <trkpt lat="45.72653" lon="5.6069">
        <ele>357</ele>
        <time>2021-12-28T04:47:03Z</time>
      </trkpt>
      <trkpt lat="45.72612" lon="5.60748">
        <ele>352</ele>
        <time>2021-12-28T04:47:13Z</time>
      </trkpt>
      <trkpt lat="45.72597" lon="5.60779">
        <ele>349</ele>
        <time>2021-12-28T04:47:18Z</time>
      </trkpt>
      <trkpt lat="45.72594" lon="5.60801">
        <ele>348</ele>
        <time>2021-12-28T04:47:21Z</time>
      </trkpt>
      <trkpt lat="45.7259" lon="5.60903">
        <ele>342</ele>
        <time>2021-12-28T04:47:33Z</time>
      </trkpt>
      <trkpt lat="45.72587" lon="5.60923">
        <ele>341</ele>
        <time>2021-12-28T04:47:36Z</time>
      </trkpt>
      <trkpt lat="45.7258" lon="5.6094">
        <ele>340</ele>
        <time>2021-12-28T04:47:38Z</time>
      </trkpt>
      <trkpt lat="45.72562" lon="5.60967">
        <ele>338</ele>
        <time>2021-12-28T04:47:43Z</time>
      </trkpt>
      <trkpt lat="45.72546" lon="5.60986">
        <ele>337</ele>
        <time>2021-12-28T04:47:47Z</time>
      </trkpt>
      <trkpt lat="45.72481" lon="5.61047">
        <ele>332</ele>
        <time>2021-12-28T04:48:00Z</time>
      </trkpt>
      <trkpt lat="45.72465" lon="5.61055">
        <ele>332</ele>
        <time>2021-12-28T04:48:03Z</time>
      </trkpt>
      <trkpt lat="45.72438" lon="5.6106">
        <ele>331</ele>
        <time>2021-12-28T04:48:08Z</time>
      </trkpt>
      <trkpt lat="45.7239" lon="5.61078">
        <ele>329</ele>
        <time>2021-12-28T04:48:17Z</time>
      </trkpt>
      <trkpt lat="45.72342" lon="5.61112">
        <ele>328</ele>
        <time>2021-12-28T04:48:27Z</time>
      </trkpt>
      <trkpt lat="45.72283" lon="5.61165">
        <ele>329</ele>
        <time>2021-12-28T04:48:39Z</time>
      </trkpt>
      <trkpt lat="45.7226" lon="5.61191">
        <ele>329</ele>
        <time>2021-12-28T04:48:44Z</time>
      </trkpt>
      <trkpt lat="45.7224" lon="5.61209">
        <ele>328</ele>
        <time>2021-12-28T04:48:48Z</time>
      </trkpt>
      <trkpt lat="45.72213" lon="5.61228">
        <ele>328</ele>
        <time>2021-12-28T04:48:54Z</time>
      </trkpt>
      <trkpt lat="45.72197" lon="5.61242">
        <ele>327</ele>
        <time>2021-12-28T04:48:57Z</time>
      </trkpt>
      <trkpt lat="45.7217" lon="5.61274">
        <ele>327</ele>
        <time>2021-12-28T04:49:03Z</time>
      </trkpt>
      <trkpt lat="45.72152" lon="5.61286">
        <ele>327</ele>
        <time>2021-12-28T04:49:07Z</time>
      </trkpt>
      <trkpt lat="45.72131" lon="5.61304">
        <ele>327</ele>
        <time>2021-12-28T04:49:11Z</time>
      </trkpt>
      <trkpt lat="45.7211" lon="5.61345">
        <ele>328</ele>
        <time>2021-12-28T04:49:18Z</time>
      </trkpt>
      <trkpt lat="45.72054" lon="5.61425">
        <ele>327</ele>
        <time>2021-12-28T04:49:32Z</time>
      </trkpt>
      <trkpt lat="45.72042" lon="5.61447">
        <ele>326</ele>
        <time>2021-12-28T04:49:35Z</time>
      </trkpt>
      <trkpt lat="45.72036" lon="5.61471">
        <ele>326</ele>
        <time>2021-12-28T04:49:38Z</time>
      </trkpt>
      <trkpt lat="45.7203" lon="5.61512">
        <ele>326</ele>
        <time>2021-12-28T04:49:43Z</time>
      </trkpt>
      <trkpt lat="45.72024" lon="5.61539">
        <ele>326</ele>
        <time>2021-12-28T04:49:47Z</time>
      </trkpt>
      <trkpt lat="45.71972" lon="5.61675">
        <ele>326</ele>
        <time>2021-12-28T04:50:06Z</time>
      </trkpt>
      <trkpt lat="45.7193" lon="5.61757">
        <ele>323</ele>
        <time>2021-12-28T04:50:19Z</time>
      </trkpt>
      <trkpt lat="45.71897" lon="5.61784">
        <ele>321</ele>
        <time>2021-12-28T04:50:26Z</time>
      </trkpt>
      <trkpt lat="45.71871" lon="5.61824">
        <ele>321</ele>
        <time>2021-12-28T04:50:32Z</time>
      </trkpt>
      <trkpt lat="45.71835" lon="5.61858">
        <ele>317</ele>
        <time>2021-12-28T04:50:40Z</time>
      </trkpt>
      <trkpt lat="45.71813" lon="5.61894">
        <ele>316</ele>
        <time>2021-12-28T04:50:46Z</time>
      </trkpt>
      <trkpt lat="45.71795" lon="5.61944">
        <ele>316</ele>
        <time>2021-12-28T04:50:53Z</time>
      </trkpt>
      <trkpt lat="45.71757" lon="5.62014">
        <ele>318</ele>
        <time>2021-12-28T04:51:04Z</time>
      </trkpt>
      <trkpt lat="45.7174" lon="5.62038">
        <ele>320</ele>
        <time>2021-12-28T04:51:08Z</time>
      </trkpt>
      <trkpt lat="45.71726" lon="5.62051">
        <ele>321</ele>
        <time>2021-12-28T04:51:11Z</time>
      </trkpt>
      <trkpt lat="45.71635" lon="5.62025">
        <ele>320</ele>
        <time>2021-12-28T04:51:28Z</time>
      </trkpt>
      <trkpt lat="45.7157" lon="5.62028">
        <ele>319</ele>
        <time>2021-12-28T04:51:39Z</time>
      </trkpt>
      <trkpt lat="45.71507" lon="5.62044">
        <ele>318</ele>
        <time>2021-12-28T04:51:51Z</time>
      </trkpt>
      <trkpt lat="45.71415" lon="5.62111">
        <ele>317</ele>
        <time>2021-12-28T04:52:09Z</time>
      </trkpt>
      <trkpt lat="45.71223" lon="5.62198">
        <ele>315</ele>
        <time>2021-12-28T04:52:45Z</time>
      </trkpt>
      <trkpt lat="45.71008" lon="5.62368">
        <ele>322</ele>
        <time>2021-12-28T04:53:29Z</time>
      </trkpt>
      <trkpt lat="45.70895" lon="5.62438">
        <ele>320</ele>
        <time>2021-12-28T04:53:51Z</time>
      </trkpt>
      <trkpt lat="45.70757" lon="5.62566">
        <ele>327</ele>
        <time>2021-12-28T04:54:20Z</time>
      </trkpt>
      <trkpt lat="45.70702" lon="5.62603">
        <ele>325</ele>
        <time>2021-12-28T04:54:31Z</time>
      </trkpt>
      <trkpt lat="45.70655" lon="5.62643">
        <ele>322</ele>
        <time>2021-12-28T04:54:40Z</time>
      </trkpt>
      <trkpt lat="45.70633" lon="5.62689">
        <ele>325</ele>
        <time>2021-12-28T04:54:47Z</time>
      </trkpt>
      <trkpt lat="45.70621" lon="5.62741">
        <ele>330</ele>
        <time>2021-12-28T04:54:54Z</time>
      </trkpt>
      <trkpt lat="45.70596" lon="5.62984">
        <ele>331</ele>
        <time>2021-12-28T04:55:25Z</time>
      </trkpt>
      <trkpt lat="45.70593" lon="5.63095">
        <ele>326</ele>
        <time>2021-12-28T04:55:38Z</time>
      </trkpt>
      <trkpt lat="45.70569" lon="5.63253">
        <ele>328</ele>
        <time>2021-12-28T04:55:58Z</time>
      </trkpt>
      <trkpt lat="45.70524" lon="5.63324">
        <ele>329</ele>
        <time>2021-12-28T04:56:10Z</time>
      </trkpt>
      <trkpt lat="45.70448" lon="5.63386">
        <ele>328</ele>
        <time>2021-12-28T04:56:26Z</time>
      </trkpt>
      <trkpt lat="45.70401" lon="5.63438">
        <ele>325</ele>
        <time>2021-12-28T04:56:37Z</time>
      </trkpt>
      <trkpt lat="45.70374" lon="5.6347">
        <ele>324</ele>
        <time>2021-12-28T04:56:43Z</time>
      </trkpt>
      <trkpt lat="45.70353" lon="5.63514">
        <ele>322</ele>
        <time>2021-12-28T04:56:49Z</time>
      </trkpt>
      <trkpt lat="45.7033" lon="5.63587">
        <ele>322</ele>
        <time>2021-12-28T04:56:59Z</time>
      </trkpt>
      <trkpt lat="45.70296" lon="5.63647">
        <ele>321</ele>
        <time>2021-12-28T04:57:09Z</time>
      </trkpt>
      <trkpt lat="45.70198" lon="5.63779">
        <ele>312</ele>
        <time>2021-12-28T04:57:33Z</time>
      </trkpt>
      <trkpt lat="45.70169" lon="5.63831">
        <ele>309</ele>
        <time>2021-12-28T04:57:41Z</time>
      </trkpt>
      <trkpt lat="45.70073" lon="5.6406">
        <ele>315</ele>
        <time>2021-12-28T04:58:14Z</time>
      </trkpt>
      <trkpt lat="45.70038" lon="5.64123">
        <ele>315</ele>
        <time>2021-12-28T04:58:24Z</time>
      </trkpt>
      <trkpt lat="45.69981" lon="5.64254">
        <ele>312</ele>
        <time>2021-12-28T04:58:44Z</time>
      </trkpt>
      <trkpt lat="45.69958" lon="5.64295">
        <ele>314</ele>
        <time>2021-12-28T04:58:50Z</time>
      </trkpt>
      <trkpt lat="45.69887" lon="5.64464">
        <ele>314</ele>
        <time>2021-12-28T04:59:15Z</time>
      </trkpt>
      <trkpt lat="45.69826" lon="5.64578">
        <ele>312</ele>
        <time>2021-12-28T04:59:32Z</time>
      </trkpt>
      <trkpt lat="45.69804" lon="5.64616">
        <ele>312</ele>
        <time>2021-12-28T04:59:39Z</time>
      </trkpt>
      <trkpt lat="45.698" lon="5.64635">
        <ele>311</ele>
        <time>2021-12-28T04:59:41Z</time>
      </trkpt>
      <trkpt lat="45.69805" lon="5.647">
        <ele>312</ele>
        <time>2021-12-28T04:59:49Z</time>
      </trkpt>
      <trkpt lat="45.69811" lon="5.6472">
        <ele>312</ele>
        <time>2021-12-28T04:59:52Z</time>
      </trkpt>
      <trkpt lat="45.69824" lon="5.6474">
        <ele>312</ele>
        <time>2021-12-28T04:59:55Z</time>
      </trkpt>
      <trkpt lat="45.6988" lon="5.6479">
        <ele>316</ele>
        <time>2021-12-28T05:00:07Z</time>
      </trkpt>
      <trkpt lat="45.69936" lon="5.64848">
        <ele>317</ele>
        <time>2021-12-28T05:00:19Z</time>
      </trkpt>
      <trkpt lat="45.69996" lon="5.64895">
        <ele>320</ele>
        <time>2021-12-28T05:00:31Z</time>
      </trkpt>
      <trkpt lat="45.70003" lon="5.64904">
        <ele>320</ele>
        <time>2021-12-28T05:00:33Z</time>
      </trkpt>
      <trkpt lat="45.70006" lon="5.64914">
        <ele>320</ele>
        <time>2021-12-28T05:00:34Z</time>
      </trkpt>
      <trkpt lat="45.70011" lon="5.64939">
        <ele>321</ele>
        <time>2021-12-28T05:00:38Z</time>
      </trkpt>
      <trkpt lat="45.70023" lon="5.64942">
        <ele>322</ele>
        <time>2021-12-28T05:00:40Z</time>
      </trkpt>
      <trkpt lat="45.70047" lon="5.64958">
        <ele>325</ele>
        <time>2021-12-28T05:00:45Z</time>
      </trkpt>
      <trkpt lat="45.70066" lon="5.64978">
        <ele>325</ele>
        <time>2021-12-28T05:00:49Z</time>
      </trkpt>
      <trkpt lat="45.70128" lon="5.65064">
        <ele>325</ele>
        <time>2021-12-28T05:01:04Z</time>
      </trkpt>
      <trkpt lat="45.70143" lon="5.65076">
        <ele>324</ele>
        <time>2021-12-28T05:01:07Z</time>
      </trkpt>
      <trkpt lat="45.70157" lon="5.65077">
        <ele>323</ele>
        <time>2021-12-28T05:01:10Z</time>
      </trkpt>
      <trkpt lat="45.70209" lon="5.65069">
        <ele>325</ele>
        <time>2021-12-28T05:01:19Z</time>
      </trkpt>
      <trkpt lat="45.70229" lon="5.6507">
        <ele>324</ele>
        <time>2021-12-28T05:01:23Z</time>
      </trkpt>
      <trkpt lat="45.7025" lon="5.65077">
        <ele>321</ele>
        <time>2021-12-28T05:01:26Z</time>
      </trkpt>
      <trkpt lat="45.70284" lon="5.65094">
        <ele>315</ele>
        <time>2021-12-28T05:01:33Z</time>
      </trkpt>
      <trkpt lat="45.70302" lon="5.65097">
        <ele>314</ele>
        <time>2021-12-28T05:01:36Z</time>
      </trkpt>
      <trkpt lat="45.70321" lon="5.65091">
        <ele>314</ele>
        <time>2021-12-28T05:01:39Z</time>
      </trkpt>
      <trkpt lat="45.70353" lon="5.65078">
        <ele>318</ele>
        <time>2021-12-28T05:01:45Z</time>
      </trkpt>
      <trkpt lat="45.70365" lon="5.65082">
        <ele>317</ele>
        <time>2021-12-28T05:01:48Z</time>
      </trkpt>
      <trkpt lat="45.70375" lon="5.65092">
        <ele>315</ele>
        <time>2021-12-28T05:01:50Z</time>
      </trkpt>
      <trkpt lat="45.70383" lon="5.65111">
        <ele>311</ele>
        <time>2021-12-28T05:01:53Z</time>
      </trkpt>
      <trkpt lat="45.7041" lon="5.65223">
        <ele>300</ele>
        <time>2021-12-28T05:02:07Z</time>
      </trkpt>
      <trkpt lat="45.70411" lon="5.65238">
        <ele>299</ele>
        <time>2021-12-28T05:02:09Z</time>
      </trkpt>
      <trkpt lat="45.70406" lon="5.65252">
        <ele>297</ele>
        <time>2021-12-28T05:02:11Z</time>
      </trkpt>
      <trkpt lat="45.70396" lon="5.65266">
        <ele>297</ele>
        <time>2021-12-28T05:02:14Z</time>
      </trkpt>
      <trkpt lat="45.7038" lon="5.65267">
        <ele>296</ele>
        <time>2021-12-28T05:02:16Z</time>
      </trkpt>
      <trkpt lat="45.70339" lon="5.65253">
        <ele>292</ele>
        <time>2021-12-28T05:02:24Z</time>
      </trkpt>
      <trkpt lat="45.70318" lon="5.65254">
        <ele>289</ele>
        <time>2021-12-28T05:02:28Z</time>
      </trkpt>
      <trkpt lat="45.70312" lon="5.65258">
        <ele>289</ele>
        <time>2021-12-28T05:02:29Z</time>
      </trkpt>
      <trkpt lat="45.70302" lon="5.65271">
        <ele>287</ele>
        <time>2021-12-28T05:02:31Z</time>
      </trkpt>
      <trkpt lat="45.70296" lon="5.65291">
        <ele>287</ele>
        <time>2021-12-28T05:02:34Z</time>
      </trkpt>
      <trkpt lat="45.7029" lon="5.65354">
        <ele>285</ele>
        <time>2021-12-28T05:02:42Z</time>
      </trkpt>
      <trkpt lat="45.70292" lon="5.65378">
        <ele>284</ele>
        <time>2021-12-28T05:02:45Z</time>
      </trkpt>
      <trkpt lat="45.70297" lon="5.65399">
        <ele>284</ele>
        <time>2021-12-28T05:02:48Z</time>
      </trkpt>
      <trkpt lat="45.70324" lon="5.65477">
        <ele>282</ele>
        <time>2021-12-28T05:02:58Z</time>
      </trkpt>
      <trkpt lat="45.70336" lon="5.655">
        <ele>281</ele>
        <time>2021-12-28T05:03:02Z</time>
      </trkpt>
      <trkpt lat="45.70368" lon="5.65536">
        <ele>275</ele>
        <time>2021-12-28T05:03:09Z</time>
      </trkpt>
      <trkpt lat="45.70382" lon="5.65542">
        <ele>274</ele>
        <time>2021-12-28T05:03:12Z</time>
      </trkpt>
      <trkpt lat="45.70402" lon="5.65537">
        <ele>276</ele>
        <time>2021-12-28T05:03:15Z</time>
      </trkpt>
      <trkpt lat="45.70418" lon="5.65529">
        <ele>279</ele>
        <time>2021-12-28T05:03:18Z</time>
      </trkpt>
      <trkpt lat="45.70432" lon="5.65526">
        <ele>278</ele>
        <time>2021-12-28T05:03:21Z</time>
      </trkpt>
      <trkpt lat="45.70457" lon="5.65531">
        <ele>274</ele>
        <time>2021-12-28T05:03:25Z</time>
      </trkpt>
      <trkpt lat="45.70489" lon="5.6554">
        <ele>269</ele>
        <time>2021-12-28T05:03:31Z</time>
      </trkpt>
      <trkpt lat="45.70514" lon="5.65532">
        <ele>266</ele>
        <time>2021-12-28T05:03:36Z</time>
      </trkpt>
      <trkpt lat="45.70525" lon="5.65518">
        <ele>266</ele>
        <time>2021-12-28T05:03:38Z</time>
      </trkpt>
      <trkpt lat="45.70534" lon="5.65495">
        <ele>267</ele>
        <time>2021-12-28T05:03:42Z</time>
      </trkpt>
      <trkpt lat="45.70554" lon="5.65418">
        <ele>266</ele>
        <time>2021-12-28T05:03:52Z</time>
      </trkpt>
      <trkpt lat="45.70565" lon="5.65391">
        <ele>268</ele>
        <time>2021-12-28T05:03:56Z</time>
      </trkpt>
      <trkpt lat="45.70576" lon="5.65377">
        <ele>269</ele>
        <time>2021-12-28T05:03:58Z</time>
      </trkpt>
      <trkpt lat="45.70579" lon="5.65375">
        <ele>269</ele>
        <time>2021-12-28T05:03:59Z</time>
      </trkpt>
      <trkpt lat="45.70647" lon="5.65359">
        <ele>263</ele>
        <time>2021-12-28T05:04:11Z</time>
      </trkpt>
      <trkpt lat="45.70667" lon="5.65348">
        <ele>262</ele>
        <time>2021-12-28T05:04:15Z</time>
      </trkpt>
      <trkpt lat="45.70683" lon="5.65334">
        <ele>261</ele>
        <time>2021-12-28T05:04:18Z</time>
      </trkpt>
      <trkpt lat="45.70699" lon="5.65314">
        <ele>261</ele>
        <time>2021-12-28T05:04:22Z</time>
      </trkpt>
      <trkpt lat="45.7073" lon="5.65251">
        <ele>264</ele>
        <time>2021-12-28T05:04:32Z</time>
      </trkpt>
      <trkpt lat="45.70737" lon="5.6524">
        <ele>263</ele>
        <time>2021-12-28T05:04:34Z</time>
      </trkpt>
      <trkpt lat="45.70742" lon="5.65235">
        <ele>261</ele>
        <time>2021-12-28T05:04:35Z</time>
      </trkpt>
      <trkpt lat="45.70755" lon="5.65232">
        <ele>258</ele>
        <time>2021-12-28T05:04:37Z</time>
      </trkpt>
      <trkpt lat="45.70768" lon="5.65239">
        <ele>256</ele>
        <time>2021-12-28T05:04:40Z</time>
      </trkpt>
      <trkpt lat="45.70775" lon="5.65248">
        <ele>254</ele>
        <time>2021-12-28T05:04:41Z</time>
      </trkpt>
      <trkpt lat="45.7078" lon="5.65263">
        <ele>252</ele>
        <time>2021-12-28T05:04:43Z</time>
      </trkpt>
      <trkpt lat="45.70779" lon="5.6528">
        <ele>250</ele>
        <time>2021-12-28T05:04:45Z</time>
      </trkpt>
      <trkpt lat="45.70767" lon="5.6531">
        <ele>247</ele>
        <time>2021-12-28T05:04:50Z</time>
      </trkpt>
      <trkpt lat="45.70762" lon="5.65331">
        <ele>244</ele>
        <time>2021-12-28T05:04:52Z</time>
      </trkpt>
      <trkpt lat="45.70761" lon="5.65375">
        <ele>242</ele>
        <time>2021-12-28T05:04:58Z</time>
      </trkpt>
      <trkpt lat="45.70768" lon="5.65434">
        <ele>239</ele>
        <time>2021-12-28T05:05:05Z</time>
      </trkpt>
      <trkpt lat="45.70767" lon="5.65462">
        <ele>239</ele>
        <time>2021-12-28T05:05:09Z</time>
      </trkpt>
      <trkpt lat="45.70767" lon="5.65478">
        <ele>238</ele>
        <time>2021-12-28T05:05:11Z</time>
      </trkpt>
      <trkpt lat="45.70772" lon="5.65499">
        <ele>238</ele>
        <time>2021-12-28T05:05:14Z</time>
      </trkpt>
      <trkpt lat="45.70778" lon="5.65516">
        <ele>237</ele>
        <time>2021-12-28T05:05:16Z</time>
      </trkpt>
      <trkpt lat="45.7081" lon="5.65558">
        <ele>235</ele>
        <time>2021-12-28T05:05:24Z</time>
      </trkpt>
      <trkpt lat="45.70843" lon="5.6559">
        <ele>234</ele>
        <time>2021-12-28T05:05:31Z</time>
      </trkpt>
      <trkpt lat="45.7085" lon="5.65601">
        <ele>233</ele>
        <time>2021-12-28T05:05:33Z</time>
      </trkpt>
      <trkpt lat="45.70889" lon="5.65702">
        <ele>229</ele>
        <time>2021-12-28T05:05:47Z</time>
      </trkpt>
      <trkpt lat="45.70914" lon="5.65754">
        <ele>228</ele>
        <time>2021-12-28T05:05:55Z</time>
      </trkpt>
      <trkpt lat="45.70928" lon="5.65794">
        <ele>227</ele>
        <time>2021-12-28T05:06:00Z</time>
      </trkpt>
      <trkpt lat="45.70931" lon="5.6581">
        <ele>227</ele>
        <time>2021-12-28T05:06:02Z</time>
      </trkpt>
      <trkpt lat="45.70941" lon="5.65842">
        <ele>226</ele>
        <time>2021-12-28T05:06:07Z</time>
      </trkpt>
      <trkpt lat="45.70957" lon="5.65883">
        <ele>226</ele>
        <time>2021-12-28T05:06:13Z</time>
      </trkpt>
      <trkpt lat="45.7097" lon="5.65903">
        <ele>226</ele>
        <time>2021-12-28T05:06:16Z</time>
      </trkpt>
      <trkpt lat="45.71141" lon="5.66064">
        <ele>224</ele>
        <time>2021-12-28T05:06:52Z</time>
      </trkpt>
      <trkpt lat="45.71357" lon="5.66193">
        <ele>225</ele>
        <time>2021-12-28T05:07:34Z</time>
      </trkpt>
      <trkpt lat="45.71402" lon="5.66232">
        <ele>225</ele>
        <time>2021-12-28T05:07:43Z</time>
      </trkpt>
      <trkpt lat="45.7145" lon="5.66279">
        <ele>225</ele>
        <time>2021-12-28T05:07:54Z</time>
      </trkpt>
      <trkpt lat="45.71492" lon="5.66335">
        <ele>223</ele>
        <time>2021-12-28T05:08:04Z</time>
      </trkpt>
      <trkpt lat="45.71566" lon="5.66429">
        <ele>226</ele>
        <time>2021-12-28T05:08:22Z</time>
      </trkpt>
      <trkpt lat="45.7159" lon="5.66466">
        <ele>230</ele>
        <time>2021-12-28T05:08:28Z</time>
      </trkpt>
      <trkpt lat="45.71635" lon="5.66557">
        <ele>231</ele>
        <time>2021-12-28T05:08:42Z</time>
      </trkpt>
      <trkpt lat="45.71648" lon="5.66587">
        <ele>230</ele>
        <time>2021-12-28T05:08:46Z</time>
      </trkpt>
      <trkpt lat="45.71661" lon="5.66622">
        <ele>227</ele>
        <time>2021-12-28T05:08:51Z</time>
      </trkpt>
      <trkpt lat="45.71674" lon="5.66648">
        <ele>228</ele>
        <time>2021-12-28T05:08:55Z</time>
      </trkpt>
      <trkpt lat="45.71682" lon="5.66672">
        <ele>230</ele>
        <time>2021-12-28T05:08:58Z</time>
      </trkpt>
      <trkpt lat="45.71683" lon="5.66694">
        <ele>232</ele>
        <time>2021-12-28T05:09:01Z</time>
      </trkpt>
      <trkpt lat="45.71679" lon="5.66711">
        <ele>234</ele>
        <time>2021-12-28T05:09:03Z</time>
      </trkpt>
      <trkpt lat="45.71551" lon="5.66839">
        <ele>238</ele>
        <time>2021-12-28T05:09:31Z</time>
      </trkpt>
      <trkpt lat="45.71501" lon="5.66896">
        <ele>241</ele>
        <time>2021-12-28T05:09:42Z</time>
      </trkpt>
      <trkpt lat="45.71419" lon="5.67032">
        <ele>249</ele>
        <time>2021-12-28T05:10:05Z</time>
      </trkpt>
      <trkpt lat="45.71402" lon="5.67058">
        <ele>248</ele>
        <time>2021-12-28T05:10:09Z</time>
      </trkpt>
      <trkpt lat="45.71386" lon="5.67077">
        <ele>247</ele>
        <time>2021-12-28T05:10:13Z</time>
      </trkpt>
      <trkpt lat="45.71365" lon="5.67094">
        <ele>247</ele>
        <time>2021-12-28T05:10:17Z</time>
      </trkpt>
      <trkpt lat="45.7124" lon="5.67161">
        <ele>242</ele>
        <time>2021-12-28T05:10:41Z</time>
      </trkpt>
      <trkpt lat="45.71217" lon="5.67176">
        <ele>241</ele>
        <time>2021-12-28T05:10:45Z</time>
      </trkpt>
      <trkpt lat="45.71021" lon="5.6733">
        <ele>232</ele>
        <time>2021-12-28T05:11:25Z</time>
      </trkpt>
      <trkpt lat="45.70993" lon="5.67363">
        <ele>230</ele>
        <time>2021-12-28T05:11:32Z</time>
      </trkpt>
      <trkpt lat="45.70965" lon="5.67401">
        <ele>228</ele>
        <time>2021-12-28T05:11:38Z</time>
      </trkpt>
      <trkpt lat="45.70953" lon="5.67424">
        <ele>228</ele>
        <time>2021-12-28T05:11:42Z</time>
      </trkpt>
      <trkpt lat="45.70944" lon="5.67446">
        <ele>228</ele>
        <time>2021-12-28T05:11:45Z</time>
      </trkpt>
      <trkpt lat="45.70938" lon="5.67473">
        <ele>228</ele>
        <time>2021-12-28T05:11:49Z</time>
      </trkpt>
      <trkpt lat="45.70926" lon="5.67521">
        <ele>228</ele>
        <time>2021-12-28T05:11:55Z</time>
      </trkpt>
      <trkpt lat="45.70921" lon="5.67556">
        <ele>228</ele>
        <time>2021-12-28T05:12:00Z</time>
      </trkpt>
      <trkpt lat="45.70914" lon="5.67588">
        <ele>228</ele>
        <time>2021-12-28T05:12:04Z</time>
      </trkpt>
      <trkpt lat="45.70898" lon="5.67615">
        <ele>227</ele>
        <time>2021-12-28T05:12:08Z</time>
      </trkpt>
      <trkpt lat="45.70885" lon="5.67633">
        <ele>226</ele>
        <time>2021-12-28T05:12:11Z</time>
      </trkpt>
      <trkpt lat="45.709" lon="5.67651">
        <ele>226</ele>
        <time>2021-12-28T05:12:15Z</time>
      </trkpt>
      <trkpt lat="45.70907" lon="5.67673">
        <ele>227</ele>
        <time>2021-12-28T05:12:18Z</time>
      </trkpt>
      <trkpt lat="45.70911" lon="5.67695">
        <ele>227</ele>
        <time>2021-12-28T05:12:21Z</time>
      </trkpt>
      <trkpt lat="45.70915" lon="5.67758">
        <ele>227</ele>
        <time>2021-12-28T05:12:28Z</time>
      </trkpt>
      <trkpt lat="45.70909" lon="5.67962">
        <ele>225</ele>
        <time>2021-12-28T05:12:54Z</time>
      </trkpt>
      <trkpt lat="45.7093" lon="5.68165">
        <ele>226</ele>
        <time>2021-12-28T05:13:19Z</time>
      </trkpt>
      <trkpt lat="45.70959" lon="5.68211">
        <ele>231</ele>
        <time>2021-12-28T05:13:27Z</time>
      </trkpt>
      <trkpt lat="45.70975" lon="5.68246">
        <ele>232</ele>
        <time>2021-12-28T05:13:32Z</time>
      </trkpt>
      <trkpt lat="45.70981" lon="5.68286">
        <ele>232</ele>
        <time>2021-12-28T05:13:37Z</time>
      </trkpt>
      <trkpt lat="45.70979" lon="5.68321">
        <ele>231</ele>
        <time>2021-12-28T05:13:42Z</time>
      </trkpt>
      <trkpt lat="45.70972" lon="5.68359">
        <ele>230</ele>
        <time>2021-12-28T05:13:47Z</time>
      </trkpt>
      <trkpt lat="45.70972" lon="5.68421">
        <ele>230</ele>
        <time>2021-12-28T05:13:54Z</time>
      </trkpt>
      <trkpt lat="45.7097" lon="5.68436">
        <ele>230</ele>
        <time>2021-12-28T05:13:56Z</time>
      </trkpt>
      <trkpt lat="45.70954" lon="5.68467">
        <ele>228</ele>
        <time>2021-12-28T05:14:01Z</time>
      </trkpt>
      <trkpt lat="45.70918" lon="5.68528">
        <ele>225</ele>
        <time>2021-12-28T05:14:11Z</time>
      </trkpt>
      <trkpt lat="45.70894" lon="5.68596">
        <ele>226</ele>
        <time>2021-12-28T05:14:20Z</time>
      </trkpt>
      <trkpt lat="45.70884" lon="5.6865">
        <ele>227</ele>
        <time>2021-12-28T05:14:27Z</time>
      </trkpt>
      <trkpt lat="45.70888" lon="5.6871">
        <ele>227</ele>
        <time>2021-12-28T05:14:35Z</time>
      </trkpt>
      <trkpt lat="45.70897" lon="5.68767">
        <ele>227</ele>
        <time>2021-12-28T05:14:42Z</time>
      </trkpt>
      <trkpt lat="45.70906" lon="5.68814">
        <ele>227</ele>
        <time>2021-12-28T05:14:48Z</time>
      </trkpt>
      <trkpt lat="45.70909" lon="5.6884">
        <ele>227</ele>
        <time>2021-12-28T05:14:51Z</time>
      </trkpt>
      <trkpt lat="45.70898" lon="5.68967">
        <ele>233</ele>
        <time>2021-12-28T05:15:07Z</time>
      </trkpt>
      <trkpt lat="45.70893" lon="5.68988">
        <ele>234</ele>
        <time>2021-12-28T05:15:10Z</time>
      </trkpt>
      <trkpt lat="45.70886" lon="5.69028">
        <ele>232</ele>
        <time>2021-12-28T05:15:15Z</time>
      </trkpt>
      <trkpt lat="45.70887" lon="5.69062">
        <ele>231</ele>
        <time>2021-12-28T05:15:19Z</time>
      </trkpt>
      <trkpt lat="45.70896" lon="5.69092">
        <ele>231</ele>
        <time>2021-12-28T05:15:23Z</time>
      </trkpt>
      <trkpt lat="45.70916" lon="5.69136">
        <ele>229</ele>
        <time>2021-12-28T05:15:30Z</time>
      </trkpt>
      <trkpt lat="45.70957" lon="5.69195">
        <ele>229</ele>
        <time>2021-12-28T05:15:40Z</time>
      </trkpt>
      <trkpt lat="45.71013" lon="5.69283">
        <ele>228</ele>
        <time>2021-12-28T05:15:55Z</time>
      </trkpt>
      <trkpt lat="45.71039" lon="5.69381">
        <ele>226</ele>
        <time>2021-12-28T05:16:08Z</time>
      </trkpt>
      <trkpt lat="45.71064" lon="5.69459">
        <ele>226</ele>
        <time>2021-12-28T05:16:19Z</time>
      </trkpt>
      <trkpt lat="45.71077" lon="5.69492">
        <ele>227</ele>
        <time>2021-12-28T05:16:23Z</time>
      </trkpt>
      <trkpt lat="45.71124" lon="5.69597">
        <ele>225</ele>
        <time>2021-12-28T05:16:39Z</time>
      </trkpt>
      <trkpt lat="45.71133" lon="5.69613">
        <ele>224</ele>
        <time>2021-12-28T05:16:42Z</time>
      </trkpt>
      <trkpt lat="45.7115" lon="5.69631">
        <ele>224</ele>
        <time>2021-12-28T05:16:45Z</time>
      </trkpt>
      <trkpt lat="45.71165" lon="5.69639">
        <ele>224</ele>
        <time>2021-12-28T05:16:48Z</time>
      </trkpt>
      <trkpt lat="45.71254" lon="5.69668">
        <ele>224</ele>
        <time>2021-12-28T05:17:04Z</time>
      </trkpt>
      <trkpt lat="45.71299" lon="5.69677">
        <ele>224</ele>
        <time>2021-12-28T05:17:12Z</time>
      </trkpt>
      <trkpt lat="45.71471" lon="5.69691">
        <ele>227</ele>
        <time>2021-12-28T05:17:43Z</time>
      </trkpt>
      <trkpt lat="45.71479" lon="5.69696">
        <ele>227</ele>
        <time>2021-12-28T05:17:45Z</time>
      </trkpt>
      <trkpt lat="45.71486" lon="5.69703">
        <ele>227</ele>
        <time>2021-12-28T05:17:46Z</time>
      </trkpt>
      <trkpt lat="45.71448" lon="5.69768">
        <ele>222</ele>
        <time>2021-12-28T05:17:57Z</time>
      </trkpt>
      <trkpt lat="45.71466" lon="5.69797">
        <ele>222</ele>
        <time>2021-12-28T05:18:02Z</time>
      </trkpt>
      <trkpt lat="45.71474" lon="5.69812">
        <ele>221</ele>
        <time>2021-12-28T05:18:04Z</time>
      </trkpt>
      <trkpt lat="45.71478" lon="5.69828">
        <ele>221</ele>
        <time>2021-12-28T05:18:06Z</time>
      </trkpt>
      <trkpt lat="45.71484" lon="5.69861">
        <ele>221</ele>
        <time>2021-12-28T05:18:10Z</time>
      </trkpt>
      <trkpt lat="45.71484" lon="5.69914">
        <ele>220</ele>
        <time>2021-12-28T05:18:17Z</time>
      </trkpt>
      <trkpt lat="45.71487" lon="5.70085">
        <ele>222</ele>
        <time>2021-12-28T05:18:38Z</time>
      </trkpt>
      <trkpt lat="45.71492" lon="5.70251">
        <ele>223</ele>
        <time>2021-12-28T05:18:59Z</time>
      </trkpt>
      <trkpt lat="45.71497" lon="5.70511">
        <ele>224</ele>
        <time>2021-12-28T05:19:31Z</time>
      </trkpt>
      <trkpt lat="45.71501" lon="5.70594">
        <ele>224</ele>
        <time>2021-12-28T05:19:41Z</time>
      </trkpt>
      <trkpt lat="45.71503" lon="5.70611">
        <ele>224</ele>
        <time>2021-12-28T05:19:43Z</time>
      </trkpt>
      <trkpt lat="45.71508" lon="5.70633">
        <ele>224</ele>
        <time>2021-12-28T05:19:46Z</time>
      </trkpt>
      <trkpt lat="45.71524" lon="5.7068">
        <ele>224</ele>
        <time>2021-12-28T05:19:53Z</time>
      </trkpt>
      <trkpt lat="45.71596" lon="5.70882">
        <ele>225</ele>
        <time>2021-12-28T05:20:21Z</time>
      </trkpt>
      <trkpt lat="45.71603" lon="5.70913">
        <ele>224</ele>
        <time>2021-12-28T05:20:25Z</time>
      </trkpt>
      <trkpt lat="45.71602" lon="5.70943">
        <ele>225</ele>
        <time>2021-12-28T05:20:29Z</time>
      </trkpt>
      <trkpt lat="45.71592" lon="5.71068">
        <ele>226</ele>
        <time>2021-12-28T05:20:44Z</time>
      </trkpt>
      <trkpt lat="45.71592" lon="5.71086">
        <ele>226</ele>
        <time>2021-12-28T05:20:47Z</time>
      </trkpt>
      <trkpt lat="45.71598" lon="5.71099">
        <ele>226</ele>
        <time>2021-12-28T05:20:49Z</time>
      </trkpt>
      <trkpt lat="45.71584" lon="5.71118">
        <ele>226</ele>
        <time>2021-12-28T05:20:52Z</time>
      </trkpt>
      <trkpt lat="45.71483" lon="5.71347">
        <ele>231</ele>
        <time>2021-12-28T05:21:26Z</time>
      </trkpt>
      <trkpt lat="45.71474" lon="5.7136">
        <ele>233</ele>
        <time>2021-12-28T05:21:28Z</time>
      </trkpt>
      <trkpt lat="45.71465" lon="5.71365">
        <ele>233</ele>
        <time>2021-12-28T05:21:30Z</time>
      </trkpt>
      <trkpt lat="45.71441" lon="5.71368">
        <ele>233</ele>
        <time>2021-12-28T05:21:34Z</time>
      </trkpt>
      <trkpt lat="45.71422" lon="5.71382">
        <ele>234</ele>
        <time>2021-12-28T05:21:38Z</time>
      </trkpt>
      <trkpt lat="45.71397" lon="5.71406">
        <ele>235</ele>
        <time>2021-12-28T05:21:43Z</time>
      </trkpt>
      <trkpt lat="45.71303" lon="5.71463">
        <ele>242</ele>
        <time>2021-12-28T05:22:01Z</time>
      </trkpt>
      <trkpt lat="45.71264" lon="5.71479">
        <ele>244</ele>
        <time>2021-12-28T05:22:09Z</time>
      </trkpt>
      <trkpt lat="45.71225" lon="5.71488">
        <ele>245</ele>
        <time>2021-12-28T05:22:16Z</time>
      </trkpt>
      <trkpt lat="45.7116" lon="5.71495">
        <ele>244</ele>
        <time>2021-12-28T05:22:27Z</time>
      </trkpt>
      <trkpt lat="45.71138" lon="5.71502">
        <ele>242</ele>
        <time>2021-12-28T05:22:31Z</time>
      </trkpt>
      <trkpt lat="45.71125" lon="5.71512">
        <ele>241</ele>
        <time>2021-12-28T05:22:34Z</time>
      </trkpt>
      <trkpt lat="45.71114" lon="5.71533">
        <ele>241</ele>
        <time>2021-12-28T05:22:37Z</time>
      </trkpt>
      <trkpt lat="45.71111" lon="5.71559">
        <ele>242</ele>
        <time>2021-12-28T05:22:40Z</time>
      </trkpt>
      <trkpt lat="45.71109" lon="5.71636">
        <ele>245</ele>
        <time>2021-12-28T05:22:50Z</time>
      </trkpt>
      <trkpt lat="45.71094" lon="5.71771">
        <ele>245</ele>
        <time>2021-12-28T05:23:07Z</time>
      </trkpt>
      <trkpt lat="45.7109" lon="5.71791">
        <ele>244</ele>
        <time>2021-12-28T05:23:09Z</time>
      </trkpt>
      <trkpt lat="45.7105" lon="5.71886">
        <ele>244</ele>
        <time>2021-12-28T05:23:23Z</time>
      </trkpt>
      <trkpt lat="45.71041" lon="5.71904">
        <ele>244</ele>
        <time>2021-12-28T05:23:26Z</time>
      </trkpt>
      <trkpt lat="45.71034" lon="5.71915">
        <ele>243</ele>
        <time>2021-12-28T05:23:28Z</time>
      </trkpt>
      <trkpt lat="45.71023" lon="5.71925">
        <ele>243</ele>
        <time>2021-12-28T05:23:30Z</time>
      </trkpt>
      <trkpt lat="45.70958" lon="5.71971">
        <ele>239</ele>
        <time>2021-12-28T05:23:43Z</time>
      </trkpt>
      <trkpt lat="45.70942" lon="5.71985">
        <ele>236</ele>
        <time>2021-12-28T05:23:46Z</time>
      </trkpt>
      <trkpt lat="45.70927" lon="5.72004">
        <ele>235</ele>
        <time>2021-12-28T05:23:50Z</time>
      </trkpt>
      <trkpt lat="45.70874" lon="5.7208">
        <ele>251</ele>
        <time>2021-12-28T05:24:03Z</time>
      </trkpt>
      <trkpt lat="45.70864" lon="5.72097">
        <ele>250</ele>
        <time>2021-12-28T05:24:06Z</time>
      </trkpt>
      <trkpt lat="45.70858" lon="5.72114">
        <ele>251</ele>
        <time>2021-12-28T05:24:08Z</time>
      </trkpt>
      <trkpt lat="45.70851" lon="5.72159">
        <ele>254</ele>
        <time>2021-12-28T05:24:14Z</time>
      </trkpt>
      <trkpt lat="45.70853" lon="5.72185">
        <ele>259</ele>
        <time>2021-12-28T05:24:17Z</time>
      </trkpt>
      <trkpt lat="45.70876" lon="5.72366">
        <ele>276</ele>
        <time>2021-12-28T05:24:40Z</time>
      </trkpt>
      <trkpt lat="45.70884" lon="5.72393">
        <ele>279</ele>
        <time>2021-12-28T05:24:44Z</time>
      </trkpt>
      <trkpt lat="45.70912" lon="5.72475">
        <ele>279</ele>
        <time>2021-12-28T05:24:55Z</time>
      </trkpt>
      <trkpt lat="45.70934" lon="5.72547">
        <ele>278</ele>
        <time>2021-12-28T05:25:05Z</time>
      </trkpt>
      <trkpt lat="45.70936" lon="5.72571">
        <ele>271</ele>
        <time>2021-12-28T05:25:08Z</time>
      </trkpt>
      <trkpt lat="45.70935" lon="5.72587">
        <ele>265</ele>
        <time>2021-12-28T05:25:10Z</time>
      </trkpt>
      <trkpt lat="45.70931" lon="5.72603">
        <ele>258</ele>
        <time>2021-12-28T05:25:12Z</time>
      </trkpt>
      <trkpt lat="45.70928" lon="5.72613">
        <ele>253</ele>
        <time>2021-12-28T05:25:13Z</time>
      </trkpt>
      <trkpt lat="45.70921" lon="5.72624">
        <ele>245</ele>
        <time>2021-12-28T05:25:15Z</time>
      </trkpt>
      <trkpt lat="45.70878" lon="5.72693">
        <ele>245</ele>
        <time>2021-12-28T05:25:27Z</time>
      </trkpt>
      <trkpt lat="45.7087" lon="5.72704">
        <ele>248</ele>
        <time>2021-12-28T05:25:29Z</time>
      </trkpt>
      <trkpt lat="45.70859" lon="5.72717">
        <ele>253</ele>
        <time>2021-12-28T05:25:31Z</time>
      </trkpt>
      <trkpt lat="45.70856" lon="5.72726">
        <ele>254</ele>
        <time>2021-12-28T05:25:33Z</time>
      </trkpt>
      <trkpt lat="45.70853" lon="5.72738">
        <ele>256</ele>
        <time>2021-12-28T05:25:34Z</time>
      </trkpt>
      <trkpt lat="45.70856" lon="5.72767">
        <ele>257</ele>
        <time>2021-12-28T05:25:38Z</time>
      </trkpt>
      <trkpt lat="45.70861" lon="5.72781">
        <ele>256</ele>
        <time>2021-12-28T05:25:40Z</time>
      </trkpt>
      <trkpt lat="45.70878" lon="5.72821">
        <ele>251</ele>
        <time>2021-12-28T05:25:46Z</time>
      </trkpt>
      <trkpt lat="45.7089" lon="5.72843">
        <ele>248</ele>
        <time>2021-12-28T05:25:49Z</time>
      </trkpt>
      <trkpt lat="45.70906" lon="5.72899">
        <ele>247</ele>
        <time>2021-12-28T05:25:57Z</time>
      </trkpt>
      <trkpt lat="45.70918" lon="5.72944">
        <ele>249</ele>
        <time>2021-12-28T05:26:03Z</time>
      </trkpt>
      <trkpt lat="45.70932" lon="5.73011">
        <ele>256</ele>
        <time>2021-12-28T05:26:11Z</time>
      </trkpt>
      <trkpt lat="45.70936" lon="5.73061">
        <ele>262</ele>
        <time>2021-12-28T05:26:17Z</time>
      </trkpt>
      <trkpt lat="45.70935" lon="5.73115">
        <ele>263</ele>
        <time>2021-12-28T05:26:24Z</time>
      </trkpt>
      <trkpt lat="45.70906" lon="5.73193">
        <ele>265</ele>
        <time>2021-12-28T05:26:35Z</time>
      </trkpt>
      <trkpt lat="45.70882" lon="5.73297">
        <ele>264</ele>
        <time>2021-12-28T05:26:49Z</time>
      </trkpt>
      <trkpt lat="45.70861" lon="5.73377">
        <ele>260</ele>
        <time>2021-12-28T05:26:59Z</time>
      </trkpt>
      <trkpt lat="45.70669" lon="5.73665">
        <ele>254</ele>
        <time>2021-12-28T05:27:49Z</time>
      </trkpt>
      <trkpt lat="45.70633" lon="5.73736">
        <ele>257</ele>
        <time>2021-12-28T05:28:00Z</time>
      </trkpt>
      <trkpt lat="45.70612" lon="5.73797">
        <ele>256</ele>
        <time>2021-12-28T05:28:08Z</time>
      </trkpt>
      <trkpt lat="45.70599" lon="5.73856">
        <ele>254</ele>
        <time>2021-12-28T05:28:16Z</time>
      </trkpt>
      <trkpt lat="45.70607" lon="5.74107">
        <ele>247</ele>
        <time>2021-12-28T05:28:47Z</time>
      </trkpt>
      <trkpt lat="45.70607" lon="5.74146">
        <ele>245</ele>
        <time>2021-12-28T05:28:52Z</time>
      </trkpt>
      <trkpt lat="45.70579" lon="5.74307">
        <ele>243</ele>
        <time>2021-12-28T05:29:13Z</time>
      </trkpt>
      <trkpt lat="45.70572" lon="5.74361">
        <ele>248</ele>
        <time>2021-12-28T05:29:19Z</time>
      </trkpt>
      <trkpt lat="45.70552" lon="5.7448">
        <ele>256</ele>
        <time>2021-12-28T05:29:35Z</time>
      </trkpt>
      <trkpt lat="45.70546" lon="5.74528">
        <ele>254</ele>
        <time>2021-12-28T05:29:41Z</time>
      </trkpt>
      <trkpt lat="45.70519" lon="5.74594">
        <ele>253</ele>
        <time>2021-12-28T05:29:50Z</time>
      </trkpt>
      <trkpt lat="45.70488" lon="5.74704">
        <ele>250</ele>
        <time>2021-12-28T05:30:05Z</time>
      </trkpt>
      <trkpt lat="45.70472" lon="5.74763">
        <ele>254</ele>
        <time>2021-12-28T05:30:13Z</time>
      </trkpt>
      <trkpt lat="45.70468" lon="5.74787">
        <ele>255</ele>
        <time>2021-12-28T05:30:16Z</time>
      </trkpt>
      <trkpt lat="45.70468" lon="5.74804">
        <ele>254</ele>
        <time>2021-12-28T05:30:18Z</time>
      </trkpt>
      <trkpt lat="45.70472" lon="5.74823">
        <ele>252</ele>
        <time>2021-12-28T05:30:20Z</time>
      </trkpt>
      <trkpt lat="45.70478" lon="5.74845">
        <ele>250</ele>
        <time>2021-12-28T05:30:23Z</time>
      </trkpt>
      <trkpt lat="45.7049" lon="5.7488">
        <ele>245</ele>
        <time>2021-12-28T05:30:28Z</time>
      </trkpt>
      <trkpt lat="45.70521" lon="5.74972">
        <ele>241</ele>
        <time>2021-12-28T05:30:41Z</time>
      </trkpt>
      <trkpt lat="45.70531" lon="5.75009">
        <ele>238</ele>
        <time>2021-12-28T05:30:46Z</time>
      </trkpt>
      <trkpt lat="45.70535" lon="5.75044">
        <ele>234</ele>
        <time>2021-12-28T05:30:50Z</time>
      </trkpt>
      <trkpt lat="45.70537" lon="5.75088">
        <ele>230</ele>
        <time>2021-12-28T05:30:56Z</time>
      </trkpt>
      <trkpt lat="45.7053" lon="5.75253">
        <ele>230</ele>
        <time>2021-12-28T05:31:16Z</time>
      </trkpt>
      <trkpt lat="45.70531" lon="5.75278">
        <ele>229</ele>
        <time>2021-12-28T05:31:19Z</time>
      </trkpt>
      <trkpt lat="45.70533" lon="5.7532">
        <ele>228</ele>
        <time>2021-12-28T05:31:25Z</time>
      </trkpt>
      <trkpt lat="45.7054" lon="5.7539">
        <ele>227</ele>
        <time>2021-12-28T05:31:33Z</time>
      </trkpt>
      <trkpt lat="45.70628" lon="5.75979">
        <ele>227</ele>
        <time>2021-12-28T05:32:48Z</time>
      </trkpt>
      <trkpt lat="45.70627" lon="5.76001">
        <ele>227</ele>
        <time>2021-12-28T05:32:51Z</time>
      </trkpt>
      <trkpt lat="45.70633" lon="5.76051">
        <ele>226</ele>
        <time>2021-12-28T05:32:57Z</time>
      </trkpt>
      <trkpt lat="45.70631" lon="5.76068">
        <ele>226</ele>
        <time>2021-12-28T05:32:59Z</time>
      </trkpt>
      <trkpt lat="45.70623" lon="5.76076">
        <ele>226</ele>
        <time>2021-12-28T05:33:01Z</time>
      </trkpt>
      <trkpt lat="45.70618" lon="5.76092">
        <ele>226</ele>
        <time>2021-12-28T05:33:03Z</time>
      </trkpt>
      <trkpt lat="45.70617" lon="5.76103">
        <ele>226</ele>
        <time>2021-12-28T05:33:05Z</time>
      </trkpt>
      <trkpt lat="45.7062" lon="5.76113">
        <ele>226</ele>
        <time>2021-12-28T05:33:06Z</time>
      </trkpt>
      <trkpt lat="45.70627" lon="5.76124">
        <ele>226</ele>
        <time>2021-12-28T05:33:08Z</time>
      </trkpt>
      <trkpt lat="45.70631" lon="5.76127">
        <ele>226</ele>
        <time>2021-12-28T05:33:09Z</time>
      </trkpt>
      <trkpt lat="45.70636" lon="5.76145">
        <ele>226</ele>
        <time>2021-12-28T05:33:11Z</time>
      </trkpt>
      <trkpt lat="45.70631" lon="5.76245">
        <ele>225</ele>
        <time>2021-12-28T05:33:24Z</time>
      </trkpt>
      <trkpt lat="45.70624" lon="5.76307">
        <ele>225</ele>
        <time>2021-12-28T05:33:31Z</time>
      </trkpt>
      <trkpt lat="45.70565" lon="5.76738">
        <ele>228</ele>
        <time>2021-12-28T05:34:26Z</time>
      </trkpt>
      <trkpt lat="45.70551" lon="5.76827">
        <ele>229</ele>
        <time>2021-12-28T05:34:37Z</time>
      </trkpt>
      <trkpt lat="45.70545" lon="5.76861">
        <ele>230</ele>
        <time>2021-12-28T05:34:42Z</time>
      </trkpt>
      <trkpt lat="45.70527" lon="5.76927">
        <ele>230</ele>
        <time>2021-12-28T05:34:50Z</time>
      </trkpt>
      <trkpt lat="45.70507" lon="5.76987">
        <ele>231</ele>
        <time>2021-12-28T05:34:59Z</time>
      </trkpt>
      <trkpt lat="45.7049" lon="5.77026">
        <ele>232</ele>
        <time>2021-12-28T05:35:04Z</time>
      </trkpt>
      <trkpt lat="45.7042" lon="5.77168">
        <ele>235</ele>
        <time>2021-12-28T05:35:26Z</time>
      </trkpt>
      <trkpt lat="45.70401" lon="5.7718">
        <ele>236</ele>
        <time>2021-12-28T05:35:30Z</time>
      </trkpt>
      <trkpt lat="45.70395" lon="5.77168">
        <ele>236</ele>
        <time>2021-12-28T05:35:32Z</time>
      </trkpt>
      <trkpt lat="45.70391" lon="5.77165">
        <ele>236</ele>
        <time>2021-12-28T05:35:32Z</time>
      </trkpt>
      <trkpt lat="45.70386" lon="5.77164">
        <ele>236</ele>
        <time>2021-12-28T05:35:33Z</time>
      </trkpt>
      <trkpt lat="45.70378" lon="5.77168">
        <ele>236</ele>
        <time>2021-12-28T05:35:35Z</time>
      </trkpt>
      <trkpt lat="45.70375" lon="5.77172">
        <ele>237</ele>
        <time>2021-12-28T05:35:36Z</time>
      </trkpt>
      <trkpt lat="45.70371" lon="5.77183">
        <ele>237</ele>
        <time>2021-12-28T05:35:37Z</time>
      </trkpt>
      <trkpt lat="45.70373" lon="5.77196">
        <ele>237</ele>
        <time>2021-12-28T05:35:39Z</time>
      </trkpt>
      <trkpt lat="45.70376" lon="5.77201">
        <ele>237</ele>
        <time>2021-12-28T05:35:40Z</time>
      </trkpt>
      <trkpt lat="45.70361" lon="5.77237">
        <ele>238</ele>
        <time>2021-12-28T05:35:45Z</time>
      </trkpt>
      <trkpt lat="45.70322" lon="5.77431">
        <ele>244</ele>
        <time>2021-12-28T05:36:10Z</time>
      </trkpt>
      <trkpt lat="45.703" lon="5.77582">
        <ele>252</ele>
        <time>2021-12-28T05:36:29Z</time>
      </trkpt>
      <trkpt lat="45.70292" lon="5.77656">
        <ele>253</ele>
        <time>2021-12-28T05:36:38Z</time>
      </trkpt>
      <trkpt lat="45.70293" lon="5.77707">
        <ele>255</ele>
        <time>2021-12-28T05:36:45Z</time>
      </trkpt>
      <trkpt lat="45.70352" lon="5.78091">
        <ele>264</ele>
        <time>2021-12-28T05:37:33Z</time>
      </trkpt>
      <trkpt lat="45.70374" lon="5.78247">
        <ele>264</ele>
        <time>2021-12-28T05:37:53Z</time>
      </trkpt>
      <trkpt lat="45.70377" lon="5.78302">
        <ele>266</ele>
        <time>2021-12-28T05:38:00Z</time>
      </trkpt>
      <trkpt lat="45.70369" lon="5.78375">
        <ele>268</ele>
        <time>2021-12-28T05:38:09Z</time>
      </trkpt>
      <trkpt lat="45.7035" lon="5.78496">
        <ele>271</ele>
        <time>2021-12-28T05:38:25Z</time>
      </trkpt>
      <trkpt lat="45.70342" lon="5.7855">
        <ele>269</ele>
        <time>2021-12-28T05:38:32Z</time>
      </trkpt>
      <trkpt lat="45.70336" lon="5.78705">
        <ele>271</ele>
        <time>2021-12-28T05:38:51Z</time>
      </trkpt>
      <trkpt lat="45.70329" lon="5.78762">
        <ele>273</ele>
        <time>2021-12-28T05:38:58Z</time>
      </trkpt>
      <trkpt lat="45.70216" lon="5.79157">
        <ele>279</ele>
        <time>2021-12-28T05:39:51Z</time>
      </trkpt>
      <trkpt lat="45.70199" lon="5.79213">
        <ele>281</ele>
        <time>2021-12-28T05:39:59Z</time>
      </trkpt>
      <trkpt lat="45.70183" lon="5.79239">
        <ele>281</ele>
        <time>2021-12-28T05:40:03Z</time>
      </trkpt>
      <trkpt lat="45.70163" lon="5.79257">
        <ele>280</ele>
        <time>2021-12-28T05:40:07Z</time>
      </trkpt>
      <trkpt lat="45.70111" lon="5.79288">
        <ele>285</ele>
        <time>2021-12-28T05:40:17Z</time>
      </trkpt>
      <trkpt lat="45.70026" lon="5.7938">
        <ele>289</ele>
        <time>2021-12-28T05:40:36Z</time>
      </trkpt>
      <trkpt lat="45.70003" lon="5.79394">
        <ele>289</ele>
        <time>2021-12-28T05:40:41Z</time>
      </trkpt>
      <trkpt lat="45.69979" lon="5.79397">
        <ele>290</ele>
        <time>2021-12-28T05:40:45Z</time>
      </trkpt>
      <trkpt lat="45.69925" lon="5.79384">
        <ele>292</ele>
        <time>2021-12-28T05:40:55Z</time>
      </trkpt>
      <trkpt lat="45.69898" lon="5.79393">
        <ele>293</ele>
        <time>2021-12-28T05:41:00Z</time>
      </trkpt>
      <trkpt lat="45.69857" lon="5.7941">
        <ele>296</ele>
        <time>2021-12-28T05:41:07Z</time>
      </trkpt>
      <trkpt lat="45.69814" lon="5.79405">
        <ele>298</ele>
        <time>2021-12-28T05:41:15Z</time>
      </trkpt>
      <trkpt lat="45.69792" lon="5.79384">
        <ele>296</ele>
        <time>2021-12-28T05:41:20Z</time>
      </trkpt>
      <trkpt lat="45.6977" lon="5.7935">
        <ele>292</ele>
        <time>2021-12-28T05:41:25Z</time>
      </trkpt>
      <trkpt lat="45.69752" lon="5.79335">
        <ele>289</ele>
        <time>2021-12-28T05:41:29Z</time>
      </trkpt>
      <trkpt lat="45.69725" lon="5.79332">
        <ele>288</ele>
        <time>2021-12-28T05:41:34Z</time>
      </trkpt>
      <trkpt lat="45.69701" lon="5.79332">
        <ele>288</ele>
        <time>2021-12-28T05:41:38Z</time>
      </trkpt>
      <trkpt lat="45.69679" lon="5.79342">
        <ele>288</ele>
        <time>2021-12-28T05:41:42Z</time>
      </trkpt>
      <trkpt lat="45.69655" lon="5.79363">
        <ele>289</ele>
        <time>2021-12-28T05:41:47Z</time>
      </trkpt>
      <trkpt lat="45.6964" lon="5.79393">
        <ele>292</ele>
        <time>2021-12-28T05:41:52Z</time>
      </trkpt>
      <trkpt lat="45.69634" lon="5.79441">
        <ele>295</ele>
        <time>2021-12-28T05:41:58Z</time>
      </trkpt>
      <trkpt lat="45.6964" lon="5.79527">
        <ele>299</ele>
        <time>2021-12-28T05:42:09Z</time>
      </trkpt>
      <trkpt lat="45.69685" lon="5.80035">
        <ele>307</ele>
        <time>2021-12-28T05:43:12Z</time>
      </trkpt>
      <trkpt lat="45.69692" lon="5.80077">
        <ele>307</ele>
        <time>2021-12-28T05:43:18Z</time>
      </trkpt>
      <trkpt lat="45.69706" lon="5.80131">
        <ele>306</ele>
        <time>2021-12-28T05:43:25Z</time>
      </trkpt>
      <trkpt lat="45.6971" lon="5.80156">
        <ele>306</ele>
        <time>2021-12-28T05:43:28Z</time>
      </trkpt>
      <trkpt lat="45.69709" lon="5.80181">
        <ele>305</ele>
        <time>2021-12-28T05:43:31Z</time>
      </trkpt>
      <trkpt lat="45.69707" lon="5.80192">
        <ele>304</ele>
        <time>2021-12-28T05:43:32Z</time>
      </trkpt>
      <trkpt lat="45.69701" lon="5.80212">
        <ele>303</ele>
        <time>2021-12-28T05:43:35Z</time>
      </trkpt>
      <trkpt lat="45.69696" lon="5.80224">
        <ele>303</ele>
        <time>2021-12-28T05:43:37Z</time>
      </trkpt>
      <trkpt lat="45.69177" lon="5.81226">
        <ele>317</ele>
        <time>2021-12-28T05:46:12Z</time>
      </trkpt>
      <trkpt lat="45.69087" lon="5.81397">
        <ele>316</ele>
        <time>2021-12-28T05:46:39Z</time>
      </trkpt>
      <trkpt lat="45.69046" lon="5.8148">
        <ele>318</ele>
        <time>2021-12-28T05:46:51Z</time>
      </trkpt>
      <trkpt lat="45.69032" lon="5.81527">
        <ele>319</ele>
        <time>2021-12-28T05:46:58Z</time>
      </trkpt>
      <trkpt lat="45.69028" lon="5.81527">
        <ele>319</ele>
        <time>2021-12-28T05:46:58Z</time>
      </trkpt>
      <trkpt lat="45.69024" lon="5.81529">
        <ele>319</ele>
        <time>2021-12-28T05:46:59Z</time>
      </trkpt>
      <trkpt lat="45.69021" lon="5.81534">
        <ele>320</ele>
        <time>2021-12-28T05:47:00Z</time>
      </trkpt>
      <trkpt lat="45.6902" lon="5.81541">
        <ele>320</ele>
        <time>2021-12-28T05:47:01Z</time>
      </trkpt>
      <trkpt lat="45.69021" lon="5.81548">
        <ele>320</ele>
        <time>2021-12-28T05:47:02Z</time>
      </trkpt>
      <trkpt lat="45.69024" lon="5.81553">
        <ele>320</ele>
        <time>2021-12-28T05:47:02Z</time>
      </trkpt>
      <trkpt lat="45.69029" lon="5.81555">
        <ele>320</ele>
        <time>2021-12-28T05:47:03Z</time>
      </trkpt>
      <trkpt lat="45.69029" lon="5.81599">
        <ele>321</ele>
        <time>2021-12-28T05:47:09Z</time>
      </trkpt>
      <trkpt lat="45.69042" lon="5.81671">
        <ele>322</ele>
        <time>2021-12-28T05:47:18Z</time>
      </trkpt>
      <trkpt lat="45.69061" lon="5.81806">
        <ele>325</ele>
        <time>2021-12-28T05:47:35Z</time>
      </trkpt>
      <trkpt lat="45.69063" lon="5.81832">
        <ele>325</ele>
        <time>2021-12-28T05:47:38Z</time>
      </trkpt>
      <trkpt lat="45.69063" lon="5.81852">
        <ele>326</ele>
        <time>2021-12-28T05:47:41Z</time>
      </trkpt>
      <trkpt lat="45.69055" lon="5.81916">
        <ele>328</ele>
        <time>2021-12-28T05:47:49Z</time>
      </trkpt>
      <trkpt lat="45.69051" lon="5.81936">
        <ele>328</ele>
        <time>2021-12-28T05:47:52Z</time>
      </trkpt>
      <trkpt lat="45.69025" lon="5.81974">
        <ele>330</ele>
        <time>2021-12-28T05:47:58Z</time>
      </trkpt>
      <trkpt lat="45.69014" lon="5.81985">
        <ele>331</ele>
        <time>2021-12-28T05:48:01Z</time>
      </trkpt>
      <trkpt lat="45.69007" lon="5.81997">
        <ele>332</ele>
        <time>2021-12-28T05:48:03Z</time>
      </trkpt>
      <trkpt lat="45.69003" lon="5.82013">
        <ele>333</ele>
        <time>2021-12-28T05:48:05Z</time>
      </trkpt>
      <trkpt lat="45.69005" lon="5.82038">
        <ele>333</ele>
        <time>2021-12-28T05:48:08Z</time>
      </trkpt>
      <trkpt lat="45.69021" lon="5.82006">
        <ele>330</ele>
        <time>2021-12-28T05:48:13Z</time>
      </trkpt>
      <trkpt lat="45.69018" lon="5.81991">
        <ele>331</ele>
        <time>2021-12-28T05:48:15Z</time>
      </trkpt>
      <trkpt lat="45.69014" lon="5.81985">
        <ele>331</ele>
        <time>2021-12-28T05:48:16Z</time>
      </trkpt>
      <trkpt lat="45.69007" lon="5.81969">
        <ele>332</ele>
        <time>2021-12-28T05:48:18Z</time>
      </trkpt>
      <trkpt lat="45.68991" lon="5.8196">
        <ele>334</ele>
        <time>2021-12-28T05:48:21Z</time>
      </trkpt>
      <trkpt lat="45.68961" lon="5.8195">
        <ele>335</ele>
        <time>2021-12-28T05:48:27Z</time>
      </trkpt>
      <trkpt lat="45.68903" lon="5.81951">
        <ele>339</ele>
        <time>2021-12-28T05:48:37Z</time>
      </trkpt>
      <trkpt lat="45.68881" lon="5.8196">
        <ele>340</ele>
        <time>2021-12-28T05:48:41Z</time>
      </trkpt>
      <trkpt lat="45.68763" lon="5.82074">
        <ele>356</ele>
        <time>2021-12-28T05:49:06Z</time>
      </trkpt>
      <trkpt lat="45.68749" lon="5.82082">
        <ele>356</ele>
        <time>2021-12-28T05:49:09Z</time>
      </trkpt>
      <trkpt lat="45.6873" lon="5.82083">
        <ele>357</ele>
        <time>2021-12-28T05:49:12Z</time>
      </trkpt>
      <trkpt lat="45.68707" lon="5.82076">
        <ele>359</ele>
        <time>2021-12-28T05:49:16Z</time>
      </trkpt>
      <trkpt lat="45.68692" lon="5.82073">
        <ele>360</ele>
        <time>2021-12-28T05:49:19Z</time>
      </trkpt>
      <trkpt lat="45.68683" lon="5.82073">
        <ele>361</ele>
        <time>2021-12-28T05:49:21Z</time>
      </trkpt>
      <trkpt lat="45.68653" lon="5.82082">
        <ele>366</ele>
        <time>2021-12-28T05:49:26Z</time>
      </trkpt>
      <trkpt lat="45.68643" lon="5.82079">
        <ele>368</ele>
        <time>2021-12-28T05:49:28Z</time>
      </trkpt>
      <trkpt lat="45.68625" lon="5.82065">
        <ele>373</ele>
        <time>2021-12-28T05:49:32Z</time>
      </trkpt>
      <trkpt lat="45.68616" lon="5.8205">
        <ele>374</ele>
        <time>2021-12-28T05:49:34Z</time>
      </trkpt>
      <trkpt lat="45.68606" lon="5.82025">
        <ele>374</ele>
        <time>2021-12-28T05:49:38Z</time>
      </trkpt>
      <trkpt lat="45.68588" lon="5.8197">
        <ele>375</ele>
        <time>2021-12-28T05:49:45Z</time>
      </trkpt>
      <trkpt lat="45.68584" lon="5.81969">
        <ele>375</ele>
        <time>2021-12-28T05:49:46Z</time>
      </trkpt>
      <trkpt lat="45.68579" lon="5.81972">
        <ele>376</ele>
        <time>2021-12-28T05:49:47Z</time>
      </trkpt>
      <trkpt lat="45.68578" lon="5.8198">
        <ele>376</ele>
        <time>2021-12-28T05:49:48Z</time>
      </trkpt>
      <trkpt lat="45.68584" lon="5.8218">
        <ele>395</ele>
        <time>2021-12-28T05:50:13Z</time>
      </trkpt>
      <trkpt lat="45.68618" lon="5.82285">
        <ele>399</ele>
        <time>2021-12-28T05:50:27Z</time>
      </trkpt>
      <trkpt lat="45.68653" lon="5.82453">
        <ele>412</ele>
        <time>2021-12-28T05:50:49Z</time>
      </trkpt>
      <trkpt lat="45.68669" lon="5.82505">
        <ele>415</ele>
        <time>2021-12-28T05:50:56Z</time>
      </trkpt>
      <trkpt lat="45.68697" lon="5.82551">
        <ele>417</ele>
        <time>2021-12-28T05:51:04Z</time>
      </trkpt>
      <trkpt lat="45.68709" lon="5.82621">
        <ele>423</ele>
        <time>2021-12-28T05:51:13Z</time>
      </trkpt>
      <trkpt lat="45.68723" lon="5.82728">
        <ele>427</ele>
        <time>2021-12-28T05:51:26Z</time>
      </trkpt>
      <trkpt lat="45.68724" lon="5.82744">
        <ele>427</ele>
        <time>2021-12-28T05:51:28Z</time>
      </trkpt>
      <trkpt lat="45.6872" lon="5.82758">
        <ele>428</ele>
        <time>2021-12-28T05:51:30Z</time>
      </trkpt>
      <trkpt lat="45.68701" lon="5.82796">
        <ele>432</ele>
        <time>2021-12-28T05:51:36Z</time>
      </trkpt>
      <trkpt lat="45.68686" lon="5.8282">
        <ele>436</ele>
        <time>2021-12-28T05:51:40Z</time>
      </trkpt>
      <trkpt lat="45.68676" lon="5.82841">
        <ele>438</ele>
        <time>2021-12-28T05:51:43Z</time>
      </trkpt>
      <trkpt lat="45.6867" lon="5.82864">
        <ele>440</ele>
        <time>2021-12-28T05:51:46Z</time>
      </trkpt>
      <trkpt lat="45.68667" lon="5.82891">
        <ele>442</ele>
        <time>2021-12-28T05:51:49Z</time>
      </trkpt>
      <trkpt lat="45.68669" lon="5.82918">
        <ele>442</ele>
        <time>2021-12-28T05:51:53Z</time>
      </trkpt>
      <trkpt lat="45.68679" lon="5.82947">
        <ele>444</ele>
        <time>2021-12-28T05:51:57Z</time>
      </trkpt>
      <trkpt lat="45.6869" lon="5.82975">
        <ele>446</ele>
        <time>2021-12-28T05:52:01Z</time>
      </trkpt>
      <trkpt lat="45.68717" lon="5.83024">
        <ele>445</ele>
        <time>2021-12-28T05:52:09Z</time>
      </trkpt>
      <trkpt lat="45.68728" lon="5.8307">
        <ele>449</ele>
        <time>2021-12-28T05:52:15Z</time>
      </trkpt>
      <trkpt lat="45.6873" lon="5.83108">
        <ele>457</ele>
        <time>2021-12-28T05:52:19Z</time>
      </trkpt>
      <trkpt lat="45.68752" lon="5.8315">
        <ele>457</ele>
        <time>2021-12-28T05:52:26Z</time>
      </trkpt>
      <trkpt lat="45.68785" lon="5.83227">
        <ele>465</ele>
        <time>2021-12-28T05:52:37Z</time>
      </trkpt>
      <trkpt lat="45.68823" lon="5.83306">
        <ele>470</ele>
        <time>2021-12-28T05:52:49Z</time>
      </trkpt>
      <trkpt lat="45.68843" lon="5.83339">
        <ele>472</ele>
        <time>2021-12-28T05:52:55Z</time>
      </trkpt>
      <trkpt lat="45.68863" lon="5.83354">
        <ele>469</ele>
        <time>2021-12-28T05:52:59Z</time>
      </trkpt>
      <trkpt lat="45.6889" lon="5.83427">
        <ele>480</ele>
        <time>2021-12-28T05:53:09Z</time>
      </trkpt>
      <trkpt lat="45.68941" lon="5.83488">
        <ele>482</ele>
        <time>2021-12-28T05:53:21Z</time>
      </trkpt>
      <trkpt lat="45.69001" lon="5.83537">
        <ele>485</ele>
        <time>2021-12-28T05:53:33Z</time>
      </trkpt>
      <trkpt lat="45.69075" lon="5.83578">
        <ele>492</ele>
        <time>2021-12-28T05:53:47Z</time>
      </trkpt>
      <trkpt lat="45.69106" lon="5.83587">
        <ele>493</ele>
        <time>2021-12-28T05:53:53Z</time>
      </trkpt>
      <trkpt lat="45.6921" lon="5.83597">
        <ele>489</ele>
        <time>2021-12-28T05:54:11Z</time>
      </trkpt>
      <trkpt lat="45.69219" lon="5.83602">
        <ele>490</ele>
        <time>2021-12-28T05:54:13Z</time>
      </trkpt>
      <trkpt lat="45.69239" lon="5.83619">
        <ele>497</ele>
        <time>2021-12-28T05:54:17Z</time>
      </trkpt>
      <trkpt lat="45.69275" lon="5.83628">
        <ele>496</ele>
        <time>2021-12-28T05:54:24Z</time>
      </trkpt>
      <trkpt lat="45.69282" lon="5.83632">
        <ele>497</ele>
        <time>2021-12-28T05:54:25Z</time>
      </trkpt>
      <trkpt lat="45.69296" lon="5.83657">
        <ele>505</ele>
        <time>2021-12-28T05:54:29Z</time>
      </trkpt>
      <trkpt lat="45.69324" lon="5.83721">
        <ele>523</ele>
        <time>2021-12-28T05:54:38Z</time>
      </trkpt>
      <trkpt lat="45.6935" lon="5.83766">
        <ele>534</ele>
        <time>2021-12-28T05:54:46Z</time>
      </trkpt>
      <trkpt lat="45.6939" lon="5.83792">
        <ele>535</ele>
        <time>2021-12-28T05:54:53Z</time>
      </trkpt>
      <trkpt lat="45.69466" lon="5.83803">
        <ele>533</ele>
        <time>2021-12-28T05:55:07Z</time>
      </trkpt>
      <trkpt lat="45.6948" lon="5.83802">
        <ele>533</ele>
        <time>2021-12-28T05:55:09Z</time>
      </trkpt>
      <trkpt lat="45.69492" lon="5.83798">
        <ele>532</ele>
        <time>2021-12-28T05:55:12Z</time>
      </trkpt>
      <trkpt lat="45.69515" lon="5.83782">
        <ele>525</ele>
        <time>2021-12-28T05:55:16Z</time>
      </trkpt>
      <trkpt lat="45.69519" lon="5.83781">
        <ele>524</ele>
        <time>2021-12-28T05:55:17Z</time>
      </trkpt>
      <trkpt lat="45.6954" lon="5.83789">
        <ele>524</ele>
        <time>2021-12-28T05:55:21Z</time>
      </trkpt>
      <trkpt lat="45.69575" lon="5.83809">
        <ele>528</ele>
        <time>2021-12-28T05:55:27Z</time>
      </trkpt>
      <trkpt lat="45.6961" lon="5.83859">
        <ele>536</ele>
        <time>2021-12-28T05:55:36Z</time>
      </trkpt>
      <trkpt lat="45.6962" lon="5.839">
        <ele>546</ele>
        <time>2021-12-28T05:55:42Z</time>
      </trkpt>
      <trkpt lat="45.69634" lon="5.84016">
        <ele>560</ele>
        <time>2021-12-28T05:55:56Z</time>
      </trkpt>
      <trkpt lat="45.6964" lon="5.84038">
        <ele>561</ele>
        <time>2021-12-28T05:55:59Z</time>
      </trkpt>
      <trkpt lat="45.69655" lon="5.84066">
        <ele>561</ele>
        <time>2021-12-28T05:56:04Z</time>
      </trkpt>
      <trkpt lat="45.69676" lon="5.84119">
        <ele>561</ele>
        <time>2021-12-28T05:56:11Z</time>
      </trkpt>
      <trkpt lat="45.69682" lon="5.8414">
        <ele>561</ele>
        <time>2021-12-28T05:56:14Z</time>
      </trkpt>
      <trkpt lat="45.69696" lon="5.84165">
        <ele>561</ele>
        <time>2021-12-28T05:56:18Z</time>
      </trkpt>
      <trkpt lat="45.69791" lon="5.84273">
        <ele>566</ele>
        <time>2021-12-28T05:56:40Z</time>
      </trkpt>
      <trkpt lat="45.69799" lon="5.84283">
        <ele>568</ele>
        <time>2021-12-28T05:56:41Z</time>
      </trkpt>
      <trkpt lat="45.69805" lon="5.84295">
        <ele>570</ele>
        <time>2021-12-28T05:56:43Z</time>
      </trkpt>
      <trkpt lat="45.69808" lon="5.84304">
        <ele>572</ele>
        <time>2021-12-28T05:56:45Z</time>
      </trkpt>
      <trkpt lat="45.69809" lon="5.84318">
        <ele>573</ele>
        <time>2021-12-28T05:56:46Z</time>
      </trkpt>
      <trkpt lat="45.69807" lon="5.84328">
        <ele>574</ele>
        <time>2021-12-28T05:56:48Z</time>
      </trkpt>
      <trkpt lat="45.698" lon="5.84344">
        <ele>576</ele>
        <time>2021-12-28T05:56:50Z</time>
      </trkpt>
      <trkpt lat="45.69741" lon="5.84419">
        <ele>581</ele>
        <time>2021-12-28T05:57:04Z</time>
      </trkpt>
      <trkpt lat="45.6973" lon="5.84427">
        <ele>583</ele>
        <time>2021-12-28T05:57:06Z</time>
      </trkpt>
      <trkpt lat="45.69719" lon="5.84429">
        <ele>583</ele>
        <time>2021-12-28T05:57:08Z</time>
      </trkpt>
      <trkpt lat="45.69639" lon="5.84409">
        <ele>576</ele>
        <time>2021-12-28T05:57:23Z</time>
      </trkpt>
      <trkpt lat="45.69631" lon="5.8441">
        <ele>576</ele>
        <time>2021-12-28T05:57:24Z</time>
      </trkpt>
      <trkpt lat="45.69624" lon="5.84412">
        <ele>577</ele>
        <time>2021-12-28T05:57:25Z</time>
      </trkpt>
      <trkpt lat="45.69607" lon="5.84426">
        <ele>581</ele>
        <time>2021-12-28T05:57:29Z</time>
      </trkpt>
      <trkpt lat="45.69585" lon="5.8445">
        <ele>593</ele>
        <time>2021-12-28T05:57:34Z</time>
      </trkpt>
      <trkpt lat="45.69576" lon="5.84455">
        <ele>596</ele>
        <time>2021-12-28T05:57:35Z</time>
      </trkpt>
      <trkpt lat="45.69564" lon="5.84457">
        <ele>599</ele>
        <time>2021-12-28T05:57:38Z</time>
      </trkpt>
      <trkpt lat="45.69474" lon="5.8445">
        <ele>606</ele>
        <time>2021-12-28T05:57:54Z</time>
      </trkpt>
      <trkpt lat="45.69447" lon="5.84416">
        <ele>598</ele>
        <time>2021-12-28T05:58:00Z</time>
      </trkpt>
      <trkpt lat="45.69438" lon="5.84408">
        <ele>599</ele>
        <time>2021-12-28T05:58:02Z</time>
      </trkpt>
      <trkpt lat="45.69428" lon="5.84404">
        <ele>600</ele>
        <time>2021-12-28T05:58:04Z</time>
      </trkpt>
      <trkpt lat="45.69419" lon="5.84404">
        <ele>601</ele>
        <time>2021-12-28T05:58:05Z</time>
      </trkpt>
      <trkpt lat="45.6939" lon="5.8441">
        <ele>610</ele>
        <time>2021-12-28T05:58:11Z</time>
      </trkpt>
      <trkpt lat="45.69383" lon="5.84408">
        <ele>612</ele>
        <time>2021-12-28T05:58:12Z</time>
      </trkpt>
      <trkpt lat="45.69378" lon="5.84403">
        <ele>613</ele>
        <time>2021-12-28T05:58:13Z</time>
      </trkpt>
      <trkpt lat="45.6934" lon="5.84303">
        <ele>612</ele>
        <time>2021-12-28T05:58:27Z</time>
      </trkpt>
      <trkpt lat="45.69325" lon="5.84268">
        <ele>616</ele>
        <time>2021-12-28T05:58:32Z</time>
      </trkpt>
      <trkpt lat="45.6932" lon="5.84267">
        <ele>618</ele>
        <time>2021-12-28T05:58:33Z</time>
      </trkpt>
      <trkpt lat="45.69316" lon="5.84268">
        <ele>619</ele>
        <time>2021-12-28T05:58:34Z</time>
      </trkpt>
      <trkpt lat="45.69314" lon="5.84276">
        <ele>620</ele>
        <time>2021-12-28T05:58:35Z</time>
      </trkpt>
      <trkpt lat="45.69333" lon="5.84324">
        <ele>614</ele>
        <time>2021-12-28T05:58:42Z</time>
      </trkpt>
      <trkpt lat="45.69339" lon="5.84362">
        <ele>617</ele>
        <time>2021-12-28T05:58:47Z</time>
      </trkpt>
      <trkpt lat="45.6934" lon="5.84401">
        <ele>623</ele>
        <time>2021-12-28T05:58:51Z</time>
      </trkpt>
      <trkpt lat="45.69332" lon="5.84451">
        <ele>634</ele>
        <time>2021-12-28T05:58:58Z</time>
      </trkpt>
      <trkpt lat="45.69331" lon="5.84462">
        <ele>636</ele>
        <time>2021-12-28T05:58:59Z</time>
      </trkpt>
      <trkpt lat="45.69334" lon="5.84474">
        <ele>637</ele>
        <time>2021-12-28T05:59:01Z</time>
      </trkpt>
      <trkpt lat="45.6934" lon="5.84483">
        <ele>637</ele>
        <time>2021-12-28T05:59:02Z</time>
      </trkpt>
      <trkpt lat="45.69346" lon="5.84489">
        <ele>637</ele>
        <time>2021-12-28T05:59:04Z</time>
      </trkpt>
      <trkpt lat="45.69366" lon="5.84491">
        <ele>633</ele>
        <time>2021-12-28T05:59:07Z</time>
      </trkpt>
      <trkpt lat="45.69374" lon="5.84495">
        <ele>632</ele>
        <time>2021-12-28T05:59:09Z</time>
      </trkpt>
      <trkpt lat="45.69377" lon="5.84501">
        <ele>632</ele>
        <time>2021-12-28T05:59:10Z</time>
      </trkpt>
      <trkpt lat="45.69379" lon="5.84511">
        <ele>634</ele>
        <time>2021-12-28T05:59:11Z</time>
      </trkpt>
      <trkpt lat="45.69379" lon="5.84524">
        <ele>636</ele>
        <time>2021-12-28T05:59:12Z</time>
      </trkpt>
      <trkpt lat="45.69367" lon="5.8455">
        <ele>642</ele>
        <time>2021-12-28T05:59:16Z</time>
      </trkpt>
      <trkpt lat="45.69296" lon="5.84683">
        <ele>663</ele>
        <time>2021-12-28T05:59:37Z</time>
      </trkpt>
      <trkpt lat="45.69286" lon="5.84707">
        <ele>665</ele>
        <time>2021-12-28T05:59:41Z</time>
      </trkpt>
      <trkpt lat="45.69258" lon="5.84788">
        <ele>655</ele>
        <time>2021-12-28T05:59:52Z</time>
      </trkpt>
      <trkpt lat="45.69208" lon="5.84882">
        <ele>644</ele>
        <time>2021-12-28T06:00:07Z</time>
      </trkpt>
      <trkpt lat="45.69198" lon="5.84909">
        <ele>640</ele>
        <time>2021-12-28T06:00:10Z</time>
      </trkpt>
      <trkpt lat="45.69197" lon="5.84916">
        <ele>639</ele>
        <time>2021-12-28T06:00:11Z</time>
      </trkpt>
      <trkpt lat="45.69203" lon="5.84955">
        <ele>636</ele>
        <time>2021-12-28T06:00:16Z</time>
      </trkpt>
      <trkpt lat="45.69203" lon="5.84964">
        <ele>635</ele>
        <time>2021-12-28T06:00:17Z</time>
      </trkpt>
      <trkpt lat="45.692" lon="5.84982">
        <ele>632</ele>
        <time>2021-12-28T06:00:20Z</time>
      </trkpt>
      <trkpt lat="45.69189" lon="5.85009">
        <ele>627</ele>
        <time>2021-12-28T06:00:23Z</time>
      </trkpt>
      <trkpt lat="45.69185" lon="5.85022">
        <ele>625</ele>
        <time>2021-12-28T06:00:25Z</time>
      </trkpt>
      <trkpt lat="45.69184" lon="5.85038">
        <ele>625</ele>
        <time>2021-12-28T06:00:27Z</time>
      </trkpt>
      <trkpt lat="45.69186" lon="5.85068">
        <ele>626</ele>
        <time>2021-12-28T06:00:31Z</time>
      </trkpt>
      <trkpt lat="45.69183" lon="5.85084">
        <ele>625</ele>
        <time>2021-12-28T06:00:33Z</time>
      </trkpt>
      <trkpt lat="45.69177" lon="5.85105">
        <ele>623</ele>
        <time>2021-12-28T06:00:36Z</time>
      </trkpt>
      <trkpt lat="45.69157" lon="5.85154">
        <ele>619</ele>
        <time>2021-12-28T06:00:43Z</time>
      </trkpt>
      <trkpt lat="45.69139" lon="5.8518">
        <ele>615</ele>
        <time>2021-12-28T06:00:47Z</time>
      </trkpt>
      <trkpt lat="45.69119" lon="5.85204">
        <ele>608</ele>
        <time>2021-12-28T06:00:52Z</time>
      </trkpt>
      <trkpt lat="45.69116" lon="5.85211">
        <ele>606</ele>
        <time>2021-12-28T06:00:53Z</time>
      </trkpt>
      <trkpt lat="45.69117" lon="5.85224">
        <ele>604</ele>
        <time>2021-12-28T06:00:55Z</time>
      </trkpt>
      <trkpt lat="45.6912" lon="5.85233">
        <ele>603</ele>
        <time>2021-12-28T06:00:56Z</time>
      </trkpt>
      <trkpt lat="45.69167" lon="5.85292">
        <ele>601</ele>
        <time>2021-12-28T06:01:07Z</time>
      </trkpt>
      <trkpt lat="45.69198" lon="5.85334">
        <ele>597</ele>
        <time>2021-12-28T06:01:15Z</time>
      </trkpt>
      <trkpt lat="45.69203" lon="5.85342">
        <ele>597</ele>
        <time>2021-12-28T06:01:16Z</time>
      </trkpt>
      <trkpt lat="45.69241" lon="5.8547">
        <ele>584</ele>
        <time>2021-12-28T06:01:33Z</time>
      </trkpt>
      <trkpt lat="45.69252" lon="5.85498">
        <ele>579</ele>
        <time>2021-12-28T06:01:37Z</time>
      </trkpt>
      <trkpt lat="45.6927" lon="5.8552">
        <ele>578</ele>
        <time>2021-12-28T06:01:42Z</time>
      </trkpt>
      <trkpt lat="45.69292" lon="5.85537">
        <ele>580</ele>
        <time>2021-12-28T06:01:46Z</time>
      </trkpt>
      <trkpt lat="45.6932" lon="5.8557">
        <ele>583</ele>
        <time>2021-12-28T06:01:52Z</time>
      </trkpt>
      <trkpt lat="45.69322" lon="5.85576">
        <ele>583</ele>
        <time>2021-12-28T06:01:53Z</time>
      </trkpt>
      <trkpt lat="45.69322" lon="5.85581">
        <ele>582</ele>
        <time>2021-12-28T06:01:54Z</time>
      </trkpt>
      <trkpt lat="45.69318" lon="5.85585">
        <ele>580</ele>
        <time>2021-12-28T06:01:55Z</time>
      </trkpt>
      <trkpt lat="45.69313" lon="5.85585">
        <ele>578</ele>
        <time>2021-12-28T06:01:56Z</time>
      </trkpt>
      <trkpt lat="45.69276" lon="5.8555">
        <ele>573</ele>
        <time>2021-12-28T06:02:04Z</time>
      </trkpt>
      <trkpt lat="45.69221" lon="5.85513">
        <ele>576</ele>
        <time>2021-12-28T06:02:14Z</time>
      </trkpt>
      <trkpt lat="45.69209" lon="5.85509">
        <ele>578</ele>
        <time>2021-12-28T06:02:17Z</time>
      </trkpt>
      <trkpt lat="45.69199" lon="5.85508">
        <ele>579</ele>
        <time>2021-12-28T06:02:18Z</time>
      </trkpt>
      <trkpt lat="45.69189" lon="5.85511">
        <ele>579</ele>
        <time>2021-12-28T06:02:20Z</time>
      </trkpt>
      <trkpt lat="45.69179" lon="5.85519">
        <ele>576</ele>
        <time>2021-12-28T06:02:22Z</time>
      </trkpt>
      <trkpt lat="45.69161" lon="5.85547">
        <ele>565</ele>
        <time>2021-12-28T06:02:27Z</time>
      </trkpt>
      <trkpt lat="45.69151" lon="5.85558">
        <ele>560</ele>
        <time>2021-12-28T06:02:29Z</time>
      </trkpt>
      <trkpt lat="45.69132" lon="5.85568">
        <ele>555</ele>
        <time>2021-12-28T06:02:33Z</time>
      </trkpt>
      <trkpt lat="45.69119" lon="5.85569">
        <ele>553</ele>
        <time>2021-12-28T06:02:35Z</time>
      </trkpt>
      <trkpt lat="45.69048" lon="5.85563">
        <ele>544</ele>
        <time>2021-12-28T06:02:48Z</time>
      </trkpt>
      <trkpt lat="45.69033" lon="5.85559">
        <ele>541</ele>
        <time>2021-12-28T06:02:50Z</time>
      </trkpt>
      <trkpt lat="45.69025" lon="5.85552">
        <ele>542</ele>
        <time>2021-12-28T06:02:52Z</time>
      </trkpt>
      <trkpt lat="45.69012" lon="5.8553">
        <ele>548</ele>
        <time>2021-12-28T06:02:56Z</time>
      </trkpt>
      <trkpt lat="45.69005" lon="5.85522">
        <ele>550</ele>
        <time>2021-12-28T06:02:57Z</time>
      </trkpt>
      <trkpt lat="45.68995" lon="5.85517">
        <ele>548</ele>
        <time>2021-12-28T06:02:59Z</time>
      </trkpt>
      <trkpt lat="45.68979" lon="5.85519">
        <ele>539</ele>
        <time>2021-12-28T06:03:02Z</time>
      </trkpt>
      <trkpt lat="45.68968" lon="5.85517">
        <ele>535</ele>
        <time>2021-12-28T06:03:04Z</time>
      </trkpt>
      <trkpt lat="45.68927" lon="5.85493">
        <ele>522</ele>
        <time>2021-12-28T06:03:12Z</time>
      </trkpt>
      <trkpt lat="45.68919" lon="5.85475">
        <ele>518</ele>
        <time>2021-12-28T06:03:15Z</time>
      </trkpt>
      <trkpt lat="45.68918" lon="5.85462">
        <ele>518</ele>
        <time>2021-12-28T06:03:16Z</time>
      </trkpt>
      <trkpt lat="45.68934" lon="5.85409">
        <ele>529</ele>
        <time>2021-12-28T06:03:23Z</time>
      </trkpt>
      <trkpt lat="45.68937" lon="5.85348">
        <ele>530</ele>
        <time>2021-12-28T06:03:31Z</time>
      </trkpt>
      <trkpt lat="45.68948" lon="5.85324">
        <ele>535</ele>
        <time>2021-12-28T06:03:34Z</time>
      </trkpt>
      <trkpt lat="45.68954" lon="5.85305">
        <ele>538</ele>
        <time>2021-12-28T06:03:37Z</time>
      </trkpt>
      <trkpt lat="45.6895" lon="5.85267">
        <ele>535</ele>
        <time>2021-12-28T06:03:42Z</time>
      </trkpt>
      <trkpt lat="45.6895" lon="5.85239">
        <ele>538</ele>
        <time>2021-12-28T06:03:45Z</time>
      </trkpt>
      <trkpt lat="45.68949" lon="5.85233">
        <ele>539</ele>
        <time>2021-12-28T06:03:46Z</time>
      </trkpt>
      <trkpt lat="45.68945" lon="5.8523">
        <ele>538</ele>
        <time>2021-12-28T06:03:47Z</time>
      </trkpt>
      <trkpt lat="45.68941" lon="5.85231">
        <ele>536</ele>
        <time>2021-12-28T06:03:48Z</time>
      </trkpt>
      <trkpt lat="45.68938" lon="5.85235">
        <ele>533</ele>
        <time>2021-12-28T06:03:48Z</time>
      </trkpt>
      <trkpt lat="45.68938" lon="5.85293">
        <ele>530</ele>
        <time>2021-12-28T06:03:56Z</time>
      </trkpt>
      <trkpt lat="45.68935" lon="5.85311">
        <ele>529</ele>
        <time>2021-12-28T06:03:58Z</time>
      </trkpt>
      <trkpt lat="45.68913" lon="5.85365">
        <ele>519</ele>
        <time>2021-12-28T06:04:06Z</time>
      </trkpt>
      <trkpt lat="45.68898" lon="5.85425">
        <ele>509</ele>
        <time>2021-12-28T06:04:14Z</time>
      </trkpt>
      <trkpt lat="45.68886" lon="5.85465">
        <ele>499</ele>
        <time>2021-12-28T06:04:19Z</time>
      </trkpt>
      <trkpt lat="45.68884" lon="5.85476">
        <ele>496</ele>
        <time>2021-12-28T06:04:20Z</time>
      </trkpt>
      <trkpt lat="45.68883" lon="5.85505">
        <ele>492</ele>
        <time>2021-12-28T06:04:24Z</time>
      </trkpt>
      <trkpt lat="45.68878" lon="5.85512">
        <ele>487</ele>
        <time>2021-12-28T06:04:25Z</time>
      </trkpt>
      <trkpt lat="45.68874" lon="5.85511">
        <ele>485</ele>
        <time>2021-12-28T06:04:26Z</time>
      </trkpt>
      <trkpt lat="45.6887" lon="5.85505">
        <ele>484</ele>
        <time>2021-12-28T06:04:27Z</time>
      </trkpt>
      <trkpt lat="45.6887" lon="5.85492">
        <ele>486</ele>
        <time>2021-12-28T06:04:29Z</time>
      </trkpt>
      <trkpt lat="45.68889" lon="5.85405">
        <ele>505</ele>
        <time>2021-12-28T06:04:40Z</time>
      </trkpt>
      <trkpt lat="45.68889" lon="5.8539">
        <ele>505</ele>
        <time>2021-12-28T06:04:42Z</time>
      </trkpt>
      <trkpt lat="45.68884" lon="5.85366">
        <ele>503</ele>
        <time>2021-12-28T06:04:45Z</time>
      </trkpt>
      <trkpt lat="45.68885" lon="5.85359">
        <ele>503</ele>
        <time>2021-12-28T06:04:46Z</time>
      </trkpt>
      <trkpt lat="45.68894" lon="5.85333">
        <ele>509</ele>
        <time>2021-12-28T06:04:49Z</time>
      </trkpt>
      <trkpt lat="45.68895" lon="5.85322">
        <ele>509</ele>
        <time>2021-12-28T06:04:51Z</time>
      </trkpt>
      <trkpt lat="45.68892" lon="5.85255">
        <ele>508</ele>
        <time>2021-12-28T06:04:59Z</time>
      </trkpt>
      <trkpt lat="45.6889" lon="5.85244">
        <ele>509</ele>
        <time>2021-12-28T06:05:01Z</time>
      </trkpt>
      <trkpt lat="45.68885" lon="5.85229">
        <ele>513</ele>
        <time>2021-12-28T06:05:03Z</time>
      </trkpt>
      <trkpt lat="45.68878" lon="5.85221">
        <ele>514</ele>
        <time>2021-12-28T06:05:04Z</time>
      </trkpt>
      <trkpt lat="45.6887" lon="5.85215">
        <ele>514</ele>
        <time>2021-12-28T06:05:06Z</time>
      </trkpt>
      <trkpt lat="45.68864" lon="5.85213">
        <ele>513</ele>
        <time>2021-12-28T06:05:07Z</time>
      </trkpt>
      <trkpt lat="45.68831" lon="5.85212">
        <ele>502</ele>
        <time>2021-12-28T06:05:13Z</time>
      </trkpt>
      <trkpt lat="45.68822" lon="5.85213">
        <ele>500</ele>
        <time>2021-12-28T06:05:14Z</time>
      </trkpt>
      <trkpt lat="45.68799" lon="5.85224">
        <ele>491</ele>
        <time>2021-12-28T06:05:19Z</time>
      </trkpt>
      <trkpt lat="45.68786" lon="5.85228">
        <ele>486</ele>
        <time>2021-12-28T06:05:21Z</time>
      </trkpt>
      <trkpt lat="45.68747" lon="5.85219">
        <ele>483</ele>
        <time>2021-12-28T06:05:28Z</time>
      </trkpt>
      <trkpt lat="45.68683" lon="5.85228">
        <ele>468</ele>
        <time>2021-12-28T06:05:40Z</time>
      </trkpt>
      <trkpt lat="45.68653" lon="5.85229">
        <ele>459</ele>
        <time>2021-12-28T06:05:45Z</time>
      </trkpt>
      <trkpt lat="45.68647" lon="5.85232">
        <ele>456</ele>
        <time>2021-12-28T06:05:46Z</time>
      </trkpt>
      <trkpt lat="45.68645" lon="5.85237">
        <ele>454</ele>
        <time>2021-12-28T06:05:47Z</time>
      </trkpt>
      <trkpt lat="45.68647" lon="5.85243">
        <ele>453</ele>
        <time>2021-12-28T06:05:48Z</time>
      </trkpt>
      <trkpt lat="45.68651" lon="5.85246">
        <ele>454</ele>
        <time>2021-12-28T06:05:48Z</time>
      </trkpt>
      <trkpt lat="45.68723" lon="5.85257">
        <ele>464</ele>
        <time>2021-12-28T06:06:01Z</time>
      </trkpt>
      <trkpt lat="45.68779" lon="5.85268">
        <ele>471</ele>
        <time>2021-12-28T06:06:11Z</time>
      </trkpt>
      <trkpt lat="45.68811" lon="5.85267">
        <ele>479</ele>
        <time>2021-12-28T06:06:17Z</time>
      </trkpt>
      <trkpt lat="45.68816" lon="5.8527">
        <ele>479</ele>
        <time>2021-12-28T06:06:18Z</time>
      </trkpt>
      <trkpt lat="45.68819" lon="5.85276">
        <ele>479</ele>
        <time>2021-12-28T06:06:19Z</time>
      </trkpt>
      <trkpt lat="45.6882" lon="5.85284">
        <ele>478</ele>
        <time>2021-12-28T06:06:20Z</time>
      </trkpt>
      <trkpt lat="45.68817" lon="5.85291">
        <ele>477</ele>
        <time>2021-12-28T06:06:21Z</time>
      </trkpt>
      <trkpt lat="45.6881" lon="5.85292">
        <ele>475</ele>
        <time>2021-12-28T06:06:22Z</time>
      </trkpt>
      <trkpt lat="45.68778" lon="5.85283">
        <ele>468</ele>
        <time>2021-12-28T06:06:28Z</time>
      </trkpt>
      <trkpt lat="45.68756" lon="5.85282">
        <ele>462</ele>
        <time>2021-12-28T06:06:32Z</time>
      </trkpt>
      <trkpt lat="45.68741" lon="5.85287">
        <ele>458</ele>
        <time>2021-12-28T06:06:35Z</time>
      </trkpt>
      <trkpt lat="45.68717" lon="5.85301">
        <ele>449</ele>
        <time>2021-12-28T06:06:39Z</time>
      </trkpt>
      <trkpt lat="45.68709" lon="5.85301">
        <ele>448</ele>
        <time>2021-12-28T06:06:41Z</time>
      </trkpt>
      <trkpt lat="45.68608" lon="5.8527">
        <ele>429</ele>
        <time>2021-12-28T06:06:59Z</time>
      </trkpt>
      <trkpt lat="45.686" lon="5.85263">
        <ele>428</ele>
        <time>2021-12-28T06:07:01Z</time>
      </trkpt>
      <trkpt lat="45.68596" lon="5.85252">
        <ele>430</ele>
        <time>2021-12-28T06:07:02Z</time>
      </trkpt>
      <trkpt lat="45.68592" lon="5.85207">
        <ele>438</ele>
        <time>2021-12-28T06:07:08Z</time>
      </trkpt>
      <trkpt lat="45.68586" lon="5.85183">
        <ele>441</ele>
        <time>2021-12-28T06:07:11Z</time>
      </trkpt>
      <trkpt lat="45.68581" lon="5.85172">
        <ele>441</ele>
        <time>2021-12-28T06:07:13Z</time>
      </trkpt>
      <trkpt lat="45.68572" lon="5.85158">
        <ele>442</ele>
        <time>2021-12-28T06:07:15Z</time>
      </trkpt>
      <trkpt lat="45.6853" lon="5.8513">
        <ele>438</ele>
        <time>2021-12-28T06:07:23Z</time>
      </trkpt>
      <trkpt lat="45.68512" lon="5.85112">
        <ele>441</ele>
        <time>2021-12-28T06:07:27Z</time>
      </trkpt>
      <trkpt lat="45.68503" lon="5.85106">
        <ele>440</ele>
        <time>2021-12-28T06:07:29Z</time>
      </trkpt>
      <trkpt lat="45.68433" lon="5.8508">
        <ele>431</ele>
        <time>2021-12-28T06:07:42Z</time>
      </trkpt>
      <trkpt lat="45.68313" lon="5.85062">
        <ele>419</ele>
        <time>2021-12-28T06:08:03Z</time>
      </trkpt>
      <trkpt lat="45.68257" lon="5.85047">
        <ele>419</ele>
        <time>2021-12-28T06:08:13Z</time>
      </trkpt>
      <trkpt lat="45.68117" lon="5.8505">
        <ele>397</ele>
        <time>2021-12-28T06:08:38Z</time>
      </trkpt>
      <trkpt lat="45.68071" lon="5.85043">
        <ele>397</ele>
        <time>2021-12-28T06:08:47Z</time>
      </trkpt>
      <trkpt lat="45.68006" lon="5.85055">
        <ele>385</ele>
        <time>2021-12-28T06:08:58Z</time>
      </trkpt>
      <trkpt lat="45.67992" lon="5.85049">
        <ele>386</ele>
        <time>2021-12-28T06:09:01Z</time>
      </trkpt>
      <trkpt lat="45.67965" lon="5.85024">
        <ele>393</ele>
        <time>2021-12-28T06:09:07Z</time>
      </trkpt>
      <trkpt lat="45.67957" lon="5.85018">
        <ele>394</ele>
        <time>2021-12-28T06:09:08Z</time>
      </trkpt>
      <trkpt lat="45.6793" lon="5.85007">
        <ele>395</ele>
        <time>2021-12-28T06:09:13Z</time>
      </trkpt>
      <trkpt lat="45.67915" lon="5.85005">
        <ele>393</ele>
        <time>2021-12-28T06:09:16Z</time>
      </trkpt>
      <trkpt lat="45.67737" lon="5.85014">
        <ele>371</ele>
        <time>2021-12-28T06:09:48Z</time>
      </trkpt>
      <trkpt lat="45.67724" lon="5.85018">
        <ele>371</ele>
        <time>2021-12-28T06:09:50Z</time>
      </trkpt>
      <trkpt lat="45.67713" lon="5.85024">
        <ele>370</ele>
        <time>2021-12-28T06:09:52Z</time>
      </trkpt>
      <trkpt lat="45.67694" lon="5.8504">
        <ele>367</ele>
        <time>2021-12-28T06:09:56Z</time>
      </trkpt>
      <trkpt lat="45.67685" lon="5.85052">
        <ele>365</ele>
        <time>2021-12-28T06:09:58Z</time>
      </trkpt>
      <trkpt lat="45.67631" lon="5.85146">
        <ele>355</ele>
        <time>2021-12-28T06:10:13Z</time>
      </trkpt>
      <trkpt lat="45.67627" lon="5.85158">
        <ele>354</ele>
        <time>2021-12-28T06:10:15Z</time>
      </trkpt>
      <trkpt lat="45.67629" lon="5.85165">
        <ele>352</ele>
        <time>2021-12-28T06:10:16Z</time>
      </trkpt>
      <trkpt lat="45.67632" lon="5.85168">
        <ele>352</ele>
        <time>2021-12-28T06:10:16Z</time>
      </trkpt>
      <trkpt lat="45.67636" lon="5.85169">
        <ele>351</ele>
        <time>2021-12-28T06:10:17Z</time>
      </trkpt>
      <trkpt lat="45.67642" lon="5.85167">
        <ele>351</ele>
        <time>2021-12-28T06:10:18Z</time>
      </trkpt>
      <trkpt lat="45.67648" lon="5.85155">
        <ele>352</ele>
        <time>2021-12-28T06:10:20Z</time>
      </trkpt>
      <trkpt lat="45.67655" lon="5.85147">
        <ele>352</ele>
        <time>2021-12-28T06:10:22Z</time>
      </trkpt>
      <trkpt lat="45.67663" lon="5.85149">
        <ele>351</ele>
        <time>2021-12-28T06:10:23Z</time>
      </trkpt>
      <trkpt lat="45.6767" lon="5.85155">
        <ele>349</ele>
        <time>2021-12-28T06:10:25Z</time>
      </trkpt>
      <trkpt lat="45.67667" lon="5.85165">
        <ele>348</ele>
        <time>2021-12-28T06:10:26Z</time>
      </trkpt>
      <trkpt lat="45.67667" lon="5.85171">
        <ele>348</ele>
        <time>2021-12-28T06:10:27Z</time>
      </trkpt>
      <trkpt lat="45.67668" lon="5.85176">
        <ele>347</ele>
        <time>2021-12-28T06:10:27Z</time>
      </trkpt>
      <trkpt lat="45.67674" lon="5.85183">
        <ele>346</ele>
        <time>2021-12-28T06:10:29Z</time>
      </trkpt>
      <trkpt lat="45.67682" lon="5.85185">
        <ele>345</ele>
        <time>2021-12-28T06:10:30Z</time>
      </trkpt>
      <trkpt lat="45.67689" lon="5.8518">
        <ele>344</ele>
        <time>2021-12-28T06:10:32Z</time>
      </trkpt>
      <trkpt lat="45.67692" lon="5.85175">
        <ele>344</ele>
        <time>2021-12-28T06:10:32Z</time>
      </trkpt>
      <trkpt lat="45.67699" lon="5.85176">
        <ele>343</ele>
        <time>2021-12-28T06:10:34Z</time>
      </trkpt>
      <trkpt lat="45.67726" lon="5.85151">
        <ele>344</ele>
        <time>2021-12-28T06:10:39Z</time>
      </trkpt>
      <trkpt lat="45.67765" lon="5.85132">
        <ele>344</ele>
        <time>2021-12-28T06:10:47Z</time>
      </trkpt>
      <trkpt lat="45.67794" lon="5.8512">
        <ele>345</ele>
        <time>2021-12-28T06:10:52Z</time>
      </trkpt>
      <trkpt lat="45.67799" lon="5.85121">
        <ele>344</ele>
        <time>2021-12-28T06:10:53Z</time>
      </trkpt>
      <trkpt lat="45.67801" lon="5.85125">
        <ele>343</ele>
        <time>2021-12-28T06:10:54Z</time>
      </trkpt>
      <trkpt lat="45.67801" lon="5.8513">
        <ele>342</ele>
        <time>2021-12-28T06:10:54Z</time>
      </trkpt>
      <trkpt lat="45.67799" lon="5.85136">
        <ele>341</ele>
        <time>2021-12-28T06:10:55Z</time>
      </trkpt>
      <trkpt lat="45.67785" lon="5.85152">
        <ele>339</ele>
        <time>2021-12-28T06:10:58Z</time>
      </trkpt>
      <trkpt lat="45.6778" lon="5.85167">
        <ele>336</ele>
        <time>2021-12-28T06:11:00Z</time>
      </trkpt>
      <trkpt lat="45.67782" lon="5.85176">
        <ele>336</ele>
        <time>2021-12-28T06:11:01Z</time>
      </trkpt>
      <trkpt lat="45.67796" lon="5.85202">
        <ele>334</ele>
        <time>2021-12-28T06:11:06Z</time>
      </trkpt>
      <trkpt lat="45.67811" lon="5.85241">
        <ele>331</ele>
        <time>2021-12-28T06:11:11Z</time>
      </trkpt>
      <trkpt lat="45.67822" lon="5.85283">
        <ele>328</ele>
        <time>2021-12-28T06:11:17Z</time>
      </trkpt>
      <trkpt lat="45.67838" lon="5.85319">
        <ele>326</ele>
        <time>2021-12-28T06:11:22Z</time>
      </trkpt>
      <trkpt lat="45.67862" lon="5.85357">
        <ele>325</ele>
        <time>2021-12-28T06:11:28Z</time>
      </trkpt>
      <trkpt lat="45.67879" lon="5.85368">
        <ele>325</ele>
        <time>2021-12-28T06:11:32Z</time>
      </trkpt>
      <trkpt lat="45.67899" lon="5.85377">
        <ele>324</ele>
        <time>2021-12-28T06:11:35Z</time>
      </trkpt>
      <trkpt lat="45.67902" lon="5.85395">
        <ele>322</ele>
        <time>2021-12-28T06:11:38Z</time>
      </trkpt>
      <trkpt lat="45.67895" lon="5.85446">
        <ele>317</ele>
        <time>2021-12-28T06:11:44Z</time>
      </trkpt>
      <trkpt lat="45.67895" lon="5.85459">
        <ele>316</ele>
        <time>2021-12-28T06:11:46Z</time>
      </trkpt>
      <trkpt lat="45.67897" lon="5.85463">
        <ele>316</ele>
        <time>2021-12-28T06:11:46Z</time>
      </trkpt>
      <trkpt lat="45.67932" lon="5.85482">
        <ele>315</ele>
        <time>2021-12-28T06:11:53Z</time>
      </trkpt>
      <trkpt lat="45.67974" lon="5.85501">
        <ele>313</ele>
        <time>2021-12-28T06:12:01Z</time>
      </trkpt>
      <trkpt lat="45.68056" lon="5.85534">
        <ele>310</ele>
        <time>2021-12-28T06:12:16Z</time>
      </trkpt>
      <trkpt lat="45.68101" lon="5.85545">
        <ele>310</ele>
        <time>2021-12-28T06:12:24Z</time>
      </trkpt>
      <trkpt lat="45.68146" lon="5.85549">
        <ele>309</ele>
        <time>2021-12-28T06:12:32Z</time>
      </trkpt>
      <trkpt lat="45.68157" lon="5.85558">
        <ele>308</ele>
        <time>2021-12-28T06:12:34Z</time>
      </trkpt>
      <trkpt lat="45.68169" lon="5.85562">
        <ele>308</ele>
        <time>2021-12-28T06:12:37Z</time>
      </trkpt>
      <trkpt lat="45.68205" lon="5.85569">
        <ele>307</ele>
        <time>2021-12-28T06:12:43Z</time>
      </trkpt>
      <trkpt lat="45.68204" lon="5.85578">
        <ele>305</ele>
        <time>2021-12-28T06:12:44Z</time>
      </trkpt>
      <trkpt lat="45.68198" lon="5.85587">
        <ele>305</ele>
        <time>2021-12-28T06:12:46Z</time>
      </trkpt>
      <trkpt lat="45.68144" lon="5.85615">
        <ele>302</ele>
        <time>2021-12-28T06:12:56Z</time>
      </trkpt>
      <trkpt lat="45.68131" lon="5.85626">
        <ele>301</ele>
        <time>2021-12-28T06:12:59Z</time>
      </trkpt>
      <trkpt lat="45.68125" lon="5.85633">
        <ele>301</ele>
        <time>2021-12-28T06:13:00Z</time>
      </trkpt>
      <trkpt lat="45.68094" lon="5.85685">
        <ele>294</ele>
        <time>2021-12-28T06:13:09Z</time>
      </trkpt>
      <trkpt lat="45.6808" lon="5.85695">
        <ele>292</ele>
        <time>2021-12-28T06:13:11Z</time>
      </trkpt>
      <trkpt lat="45.6806" lon="5.85697">
        <ele>291</ele>
        <time>2021-12-28T06:13:15Z</time>
      </trkpt>
      <trkpt lat="45.68032" lon="5.85695">
        <ele>290</ele>
        <time>2021-12-28T06:13:20Z</time>
      </trkpt>
      <trkpt lat="45.67977" lon="5.85676">
        <ele>292</ele>
        <time>2021-12-28T06:13:30Z</time>
      </trkpt>
      <trkpt lat="45.67952" lon="5.85669">
        <ele>292</ele>
        <time>2021-12-28T06:13:34Z</time>
      </trkpt>
      <trkpt lat="45.67872" lon="5.85663">
        <ele>289</ele>
        <time>2021-12-28T06:13:49Z</time>
      </trkpt>
      <trkpt lat="45.67871" lon="5.85629">
        <ele>294</ele>
        <time>2021-12-28T06:13:53Z</time>
      </trkpt>
      <trkpt lat="45.67868" lon="5.85605">
        <ele>297</ele>
        <time>2021-12-28T06:13:56Z</time>
      </trkpt>
      <trkpt lat="45.67871" lon="5.85629">
        <ele>294</ele>
        <time>2021-12-28T06:13:59Z</time>
      </trkpt>
      <trkpt lat="45.67872" lon="5.85663">
        <ele>289</ele>
        <time>2021-12-28T06:14:03Z</time>
      </trkpt>
      <trkpt lat="45.67767" lon="5.85637">
        <ele>289</ele>
        <time>2021-12-28T06:14:22Z</time>
      </trkpt>
      <trkpt lat="45.67757" lon="5.85636">
        <ele>289</ele>
        <time>2021-12-28T06:14:24Z</time>
      </trkpt>
      <trkpt lat="45.6767" lon="5.85646">
        <ele>283</ele>
        <time>2021-12-28T06:14:40Z</time>
      </trkpt>
      <trkpt lat="45.67661" lon="5.85645">
        <ele>283</ele>
        <time>2021-12-28T06:14:41Z</time>
      </trkpt>
      <trkpt lat="45.67647" lon="5.85636">
        <ele>284</ele>
        <time>2021-12-28T06:14:44Z</time>
      </trkpt>
      <trkpt lat="45.67628" lon="5.85619">
        <ele>287</ele>
        <time>2021-12-28T06:14:48Z</time>
      </trkpt>
      <trkpt lat="45.67618" lon="5.85616">
        <ele>287</ele>
        <time>2021-12-28T06:14:50Z</time>
      </trkpt>
      <trkpt lat="45.67606" lon="5.85616">
        <ele>287</ele>
        <time>2021-12-28T06:14:52Z</time>
      </trkpt>
      <trkpt lat="45.67526" lon="5.85641">
        <ele>284</ele>
        <time>2021-12-28T06:15:06Z</time>
      </trkpt>
      <trkpt lat="45.67488" lon="5.85666">
        <ele>280</ele>
        <time>2021-12-28T06:15:14Z</time>
      </trkpt>
      <trkpt lat="45.67479" lon="5.85668">
        <ele>279</ele>
        <time>2021-12-28T06:15:15Z</time>
      </trkpt>
      <trkpt lat="45.6744" lon="5.85657">
        <ele>281</ele>
        <time>2021-12-28T06:15:23Z</time>
      </trkpt>
      <trkpt lat="45.67306" lon="5.85639">
        <ele>276</ele>
        <time>2021-12-28T06:15:46Z</time>
      </trkpt>
      <trkpt lat="45.67108" lon="5.85628">
        <ele>269</ele>
        <time>2021-12-28T06:16:22Z</time>
      </trkpt>
      <trkpt lat="45.67088" lon="5.85631">
        <ele>267</ele>
        <time>2021-12-28T06:16:25Z</time>
      </trkpt>
      <trkpt lat="45.67077" lon="5.8564">
        <ele>264</ele>
        <time>2021-12-28T06:16:28Z</time>
      </trkpt>
      <trkpt lat="45.67069" lon="5.85655">
        <ele>258</ele>
        <time>2021-12-28T06:16:30Z</time>
      </trkpt>
      <trkpt lat="45.6706" lon="5.85681">
        <ele>251</ele>
        <time>2021-12-28T06:16:33Z</time>
      </trkpt>
      <trkpt lat="45.67055" lon="5.85686">
        <ele>250</ele>
        <time>2021-12-28T06:16:35Z</time>
      </trkpt>
      <trkpt lat="45.66959" lon="5.85705">
        <ele>248</ele>
        <time>2021-12-28T06:16:52Z</time>
      </trkpt>
      <trkpt lat="45.6689" lon="5.85716">
        <ele>245</ele>
        <time>2021-12-28T06:17:04Z</time>
      </trkpt>
      <trkpt lat="45.66862" lon="5.85721">
        <ele>243</ele>
        <time>2021-12-28T06:17:09Z</time>
      </trkpt>
      <trkpt lat="45.66809" lon="5.85745">
        <ele>237</ele>
        <time>2021-12-28T06:17:19Z</time>
      </trkpt>
      <trkpt lat="45.66703" lon="5.85804">
        <ele>235</ele>
        <time>2021-12-28T06:17:39Z</time>
      </trkpt>
      <trkpt lat="45.6668" lon="5.85814">
        <ele>235</ele>
        <time>2021-12-28T06:17:44Z</time>
      </trkpt>
      <trkpt lat="45.66603" lon="5.85833">
        <ele>236</ele>
        <time>2021-12-28T06:17:58Z</time>
      </trkpt>
      <trkpt lat="45.6654" lon="5.85866">
        <ele>235</ele>
        <time>2021-12-28T06:18:09Z</time>
      </trkpt>
      <trkpt lat="45.66518" lon="5.85873">
        <ele>235</ele>
        <time>2021-12-28T06:18:13Z</time>
      </trkpt>
      <trkpt lat="45.66499" lon="5.85875">
        <ele>234</ele>
        <time>2021-12-28T06:18:17Z</time>
      </trkpt>
      <trkpt lat="45.66483" lon="5.85872">
        <ele>234</ele>
        <time>2021-12-28T06:18:20Z</time>
      </trkpt>
      <trkpt lat="45.66467" lon="5.85864">
        <ele>235</ele>
        <time>2021-12-28T06:18:23Z</time>
      </trkpt>
      <trkpt lat="45.66455" lon="5.85856">
        <ele>235</ele>
        <time>2021-12-28T06:18:25Z</time>
      </trkpt>
      <trkpt lat="45.6645" lon="5.85849">
        <ele>236</ele>
        <time>2021-12-28T06:18:26Z</time>
      </trkpt>
      <trkpt lat="45.66444" lon="5.85848">
        <ele>236</ele>
        <time>2021-12-28T06:18:27Z</time>
      </trkpt>
      <trkpt lat="45.6644" lon="5.85839">
        <ele>236</ele>
        <time>2021-12-28T06:18:29Z</time>
      </trkpt>
      <trkpt lat="45.66399" lon="5.85817">
        <ele>238</ele>
        <time>2021-12-28T06:18:37Z</time>
      </trkpt>
      <trkpt lat="45.66336" lon="5.85798">
        <ele>240</ele>
        <time>2021-12-28T06:18:48Z</time>
      </trkpt>
      <trkpt lat="45.66315" lon="5.85798">
        <ele>241</ele>
        <time>2021-12-28T06:18:52Z</time>
      </trkpt>
      <trkpt lat="45.66305" lon="5.85802">
        <ele>240</ele>
        <time>2021-12-28T06:18:54Z</time>
      </trkpt>
      <trkpt lat="45.66283" lon="5.85801">
        <ele>240</ele>
        <time>2021-12-28T06:18:57Z</time>
      </trkpt>
      <trkpt lat="45.66233" lon="5.85804">
        <ele>240</ele>
        <time>2021-12-28T06:19:06Z</time>
      </trkpt>
      <trkpt lat="45.66208" lon="5.85814">
        <ele>238</ele>
        <time>2021-12-28T06:19:11Z</time>
      </trkpt>
      <trkpt lat="45.66177" lon="5.8583">
        <ele>235</ele>
        <time>2021-12-28T06:19:17Z</time>
      </trkpt>
      <trkpt lat="45.66155" lon="5.85834">
        <ele>236</ele>
        <time>2021-12-28T06:19:21Z</time>
      </trkpt>
      <trkpt lat="45.66031" lon="5.85836">
        <ele>239</ele>
        <time>2021-12-28T06:19:43Z</time>
      </trkpt>
      <trkpt lat="45.65987" lon="5.85858">
        <ele>237</ele>
        <time>2021-12-28T06:19:51Z</time>
      </trkpt>
      <trkpt lat="45.6596" lon="5.85865">
        <ele>237</ele>
        <time>2021-12-28T06:19:56Z</time>
      </trkpt>
      <trkpt lat="45.65913" lon="5.85882">
        <ele>237</ele>
        <time>2021-12-28T06:20:05Z</time>
      </trkpt>
      <trkpt lat="45.65894" lon="5.85881">
        <ele>237</ele>
        <time>2021-12-28T06:20:08Z</time>
      </trkpt>
      <trkpt lat="45.65879" lon="5.85878">
        <ele>238</ele>
        <time>2021-12-28T06:20:11Z</time>
      </trkpt>
      <trkpt lat="45.65812" lon="5.85862">
        <ele>239</ele>
        <time>2021-12-28T06:20:23Z</time>
      </trkpt>
      <trkpt lat="45.65726" lon="5.85847">
        <ele>238</ele>
        <time>2021-12-28T06:20:38Z</time>
      </trkpt>
      <trkpt lat="45.65704" lon="5.85848">
        <ele>238</ele>
        <time>2021-12-28T06:20:42Z</time>
      </trkpt>
      <trkpt lat="45.65694" lon="5.8585">
        <ele>238</ele>
        <time>2021-12-28T06:20:44Z</time>
      </trkpt>
      <trkpt lat="45.65682" lon="5.85856">
        <ele>238</ele>
        <time>2021-12-28T06:20:46Z</time>
      </trkpt>
      <trkpt lat="45.65674" lon="5.85863">
        <ele>237</ele>
        <time>2021-12-28T06:20:48Z</time>
      </trkpt>
      <trkpt lat="45.65601" lon="5.85927">
        <ele>236</ele>
        <time>2021-12-28T06:21:03Z</time>
      </trkpt>
      <trkpt lat="45.65589" lon="5.85942">
        <ele>236</ele>
        <time>2021-12-28T06:21:06Z</time>
      </trkpt>
      <trkpt lat="45.65512" lon="5.85974">
        <ele>235</ele>
        <time>2021-12-28T06:21:20Z</time>
      </trkpt>
      <trkpt lat="45.65488" lon="5.85986">
        <ele>235</ele>
        <time>2021-12-28T06:21:25Z</time>
      </trkpt>
      <trkpt lat="45.65471" lon="5.85997">
        <ele>236</ele>
        <time>2021-12-28T06:21:28Z</time>
      </trkpt>
      <trkpt lat="45.65502" lon="5.86043">
        <ele>234</ele>
        <time>2021-12-28T06:21:36Z</time>
      </trkpt>
      <trkpt lat="45.65521" lon="5.86179">
        <ele>234</ele>
        <time>2021-12-28T06:21:53Z</time>
      </trkpt>
      <trkpt lat="45.65522" lon="5.86189">
        <ele>234</ele>
        <time>2021-12-28T06:21:55Z</time>
      </trkpt>
      <trkpt lat="45.65514" lon="5.86189">
        <ele>234</ele>
        <time>2021-12-28T06:21:56Z</time>
      </trkpt>
      <trkpt lat="45.65501" lon="5.86182">
        <ele>234</ele>
        <time>2021-12-28T06:21:58Z</time>
      </trkpt>
      <trkpt lat="45.65486" lon="5.86178">
        <ele>234</ele>
        <time>2021-12-28T06:22:01Z</time>
      </trkpt>
      <trkpt lat="45.65427" lon="5.86174">
        <ele>234</ele>
        <time>2021-12-28T06:22:12Z</time>
      </trkpt>
      <trkpt lat="45.65417" lon="5.86175">
        <ele>234</ele>
        <time>2021-12-28T06:22:13Z</time>
      </trkpt>
      <trkpt lat="45.65371" lon="5.86192">
        <ele>234</ele>
        <time>2021-12-28T06:22:22Z</time>
      </trkpt>
      <trkpt lat="45.65344" lon="5.86216">
        <ele>234</ele>
        <time>2021-12-28T06:22:28Z</time>
      </trkpt>
      <trkpt lat="45.65336" lon="5.86218">
        <ele>234</ele>
        <time>2021-12-28T06:22:29Z</time>
      </trkpt>
      <trkpt lat="45.65313" lon="5.86212">
        <ele>234</ele>
        <time>2021-12-28T06:22:33Z</time>
      </trkpt>
      <trkpt lat="45.65299" lon="5.86212">
        <ele>234</ele>
        <time>2021-12-28T06:22:36Z</time>
      </trkpt>
      <trkpt lat="45.65272" lon="5.86232">
        <ele>234</ele>
        <time>2021-12-28T06:22:41Z</time>
      </trkpt>
      <trkpt lat="45.6525" lon="5.86237">
        <ele>234</ele>
        <time>2021-12-28T06:22:45Z</time>
      </trkpt>
      <trkpt lat="45.65209" lon="5.86228">
        <ele>236</ele>
        <time>2021-12-28T06:22:52Z</time>
      </trkpt>
      <trkpt lat="45.6519" lon="5.86213">
        <ele>236</ele>
        <time>2021-12-28T06:22:56Z</time>
      </trkpt>
      <trkpt lat="45.65186" lon="5.86215">
        <ele>236</ele>
        <time>2021-12-28T06:22:57Z</time>
      </trkpt>
      <trkpt lat="45.65184" lon="5.8622">
        <ele>236</ele>
        <time>2021-12-28T06:22:58Z</time>
      </trkpt>
      <trkpt lat="45.65167" lon="5.86258">
        <ele>237</ele>
        <time>2021-12-28T06:23:03Z</time>
      </trkpt>
      <trkpt lat="45.6516" lon="5.86268">
        <ele>237</ele>
        <time>2021-12-28T06:23:05Z</time>
      </trkpt>
      <trkpt lat="45.65139" lon="5.86288">
        <ele>237</ele>
        <time>2021-12-28T06:23:10Z</time>
      </trkpt>
      <trkpt lat="45.65123" lon="5.86323">
        <ele>237</ele>
        <time>2021-12-28T06:23:15Z</time>
      </trkpt>
      <trkpt lat="45.651" lon="5.86364">
        <ele>237</ele>
        <time>2021-12-28T06:23:21Z</time>
      </trkpt>
      <trkpt lat="45.65076" lon="5.86401">
        <ele>237</ele>
        <time>2021-12-28T06:23:28Z</time>
      </trkpt>
      <trkpt lat="45.65043" lon="5.86437">
        <ele>237</ele>
        <time>2021-12-28T06:23:35Z</time>
      </trkpt>
      <trkpt lat="45.65013" lon="5.86463">
        <ele>236</ele>
        <time>2021-12-28T06:23:41Z</time>
      </trkpt>
      <trkpt lat="45.64979" lon="5.86482">
        <ele>235</ele>
        <time>2021-12-28T06:23:48Z</time>
      </trkpt>
      <trkpt lat="45.6493" lon="5.86499">
        <ele>235</ele>
        <time>2021-12-28T06:23:57Z</time>
      </trkpt>
      <trkpt lat="45.6489" lon="5.86505">
        <ele>234</ele>
        <time>2021-12-28T06:24:04Z</time>
      </trkpt>
      <trkpt lat="45.64837" lon="5.86498">
        <ele>233</ele>
        <time>2021-12-28T06:24:13Z</time>
      </trkpt>
      <trkpt lat="45.64833" lon="5.86501">
        <ele>233</ele>
        <time>2021-12-28T06:24:14Z</time>
      </trkpt>
      <trkpt lat="45.64826" lon="5.8651">
        <ele>234</ele>
        <time>2021-12-28T06:24:16Z</time>
      </trkpt>
      <trkpt lat="45.64816" lon="5.86532">
        <ele>234</ele>
        <time>2021-12-28T06:24:19Z</time>
      </trkpt>
      <trkpt lat="45.648" lon="5.86566">
        <ele>235</ele>
        <time>2021-12-28T06:24:24Z</time>
      </trkpt>
      <trkpt lat="45.64828" lon="5.87271">
        <ele>235</ele>
        <time>2021-12-28T06:25:52Z</time>
      </trkpt>
      <trkpt lat="45.64828" lon="5.8732">
        <ele>235</ele>
        <time>2021-12-28T06:25:58Z</time>
      </trkpt>
      <trkpt lat="45.64835" lon="5.87371">
        <ele>235</ele>
        <time>2021-12-28T06:26:05Z</time>
      </trkpt>
      <trkpt lat="45.64834" lon="5.87384">
        <ele>235</ele>
        <time>2021-12-28T06:26:06Z</time>
      </trkpt>
      <trkpt lat="45.64829" lon="5.87415">
        <ele>235</ele>
        <time>2021-12-28T06:26:10Z</time>
      </trkpt>
      <trkpt lat="45.64834" lon="5.87475">
        <ele>233</ele>
        <time>2021-12-28T06:26:18Z</time>
      </trkpt>
      <trkpt lat="45.64833" lon="5.87661">
        <ele>233</ele>
        <time>2021-12-28T06:26:41Z</time>
      </trkpt>
      <trkpt lat="45.64819" lon="5.88635">
        <ele>234</ele>
        <time>2021-12-28T06:28:42Z</time>
      </trkpt>
      <trkpt lat="45.6482" lon="5.88651">
        <ele>234</ele>
        <time>2021-12-28T06:28:44Z</time>
      </trkpt>
      <trkpt lat="45.6482" lon="5.88686">
        <ele>234</ele>
        <time>2021-12-28T06:28:48Z</time>
      </trkpt>
      <trkpt lat="45.64824" lon="5.88702">
        <ele>234</ele>
        <time>2021-12-28T06:28:50Z</time>
      </trkpt>
      <trkpt lat="45.64822" lon="5.8913">
        <ele>234</ele>
        <time>2021-12-28T06:29:44Z</time>
      </trkpt>
      <trkpt lat="45.64823" lon="5.89137">
        <ele>234</ele>
        <time>2021-12-28T06:29:45Z</time>
      </trkpt>
      <trkpt lat="45.64828" lon="5.89148">
        <ele>234</ele>
        <time>2021-12-28T06:29:46Z</time>
      </trkpt>
      <trkpt lat="45.64826" lon="5.89167">
        <ele>234</ele>
        <time>2021-12-28T06:29:49Z</time>
      </trkpt>
      <trkpt lat="45.6482" lon="5.89193">
        <ele>234</ele>
        <time>2021-12-28T06:29:52Z</time>
      </trkpt>
      <trkpt lat="45.64813" lon="5.89182">
        <ele>234</ele>
        <time>2021-12-28T06:29:54Z</time>
      </trkpt>
      <trkpt lat="45.64806" lon="5.89176">
        <ele>234</ele>
        <time>2021-12-28T06:29:55Z</time>
      </trkpt>
      <trkpt lat="45.64798" lon="5.89174">
        <ele>234</ele>
        <time>2021-12-28T06:29:57Z</time>
      </trkpt>
      <trkpt lat="45.64784" lon="5.89227">
        <ele>233</ele>
        <time>2021-12-28T06:30:04Z</time>
      </trkpt>
      <trkpt lat="45.64783" lon="5.89258">
        <ele>233</ele>
        <time>2021-12-28T06:30:08Z</time>
      </trkpt>
      <trkpt lat="45.6478" lon="5.89265">
        <ele>233</ele>
        <time>2021-12-28T06:30:09Z</time>
      </trkpt>
      <trkpt lat="45.64766" lon="5.89276">
        <ele>233</ele>
        <time>2021-12-28T06:30:11Z</time>
      </trkpt>
      <trkpt lat="45.64759" lon="5.89285">
        <ele>233</ele>
        <time>2021-12-28T06:30:13Z</time>
      </trkpt>
      <trkpt lat="45.64755" lon="5.89299">
        <ele>234</ele>
        <time>2021-12-28T06:30:15Z</time>
      </trkpt>
      <trkpt lat="45.64756" lon="5.8931">
        <ele>234</ele>
        <time>2021-12-28T06:30:16Z</time>
      </trkpt>
      <trkpt lat="45.64758" lon="5.89318">
        <ele>234</ele>
        <time>2021-12-28T06:30:17Z</time>
      </trkpt>
      <trkpt lat="45.64764" lon="5.89328">
        <ele>234</ele>
        <time>2021-12-28T06:30:19Z</time>
      </trkpt>
      <trkpt lat="45.6477" lon="5.89333">
        <ele>234</ele>
        <time>2021-12-28T06:30:20Z</time>
      </trkpt>
      <trkpt lat="45.64779" lon="5.89335">
        <ele>234</ele>
        <time>2021-12-28T06:30:22Z</time>
      </trkpt>
      <trkpt lat="45.64786" lon="5.89332">
        <ele>234</ele>
        <time>2021-12-28T06:30:23Z</time>
      </trkpt>
      <trkpt lat="45.64801" lon="5.89319">
        <ele>234</ele>
        <time>2021-12-28T06:30:26Z</time>
      </trkpt>
      <trkpt lat="45.64818" lon="5.89315">
        <ele>234</ele>
        <time>2021-12-28T06:30:29Z</time>
      </trkpt>
      <trkpt lat="45.6488" lon="5.89315">
        <ele>236</ele>
        <time>2021-12-28T06:30:41Z</time>
      </trkpt>
      <trkpt lat="45.64931" lon="5.89319">
        <ele>237</ele>
        <time>2021-12-28T06:30:50Z</time>
      </trkpt>
      <trkpt lat="45.64931" lon="5.89305">
        <ele>236</ele>
        <time>2021-12-28T06:30:51Z</time>
      </trkpt>
      <trkpt lat="45.64814" lon="5.89306">
        <ele>234</ele>
        <time>2021-12-28T06:31:12Z</time>
      </trkpt>
      <trkpt lat="45.64809" lon="5.89304">
        <ele>234</ele>
        <time>2021-12-28T06:31:13Z</time>
      </trkpt>
      <trkpt lat="45.64799" lon="5.89297">
        <ele>234</ele>
        <time>2021-12-28T06:31:15Z</time>
      </trkpt>
      <trkpt lat="45.64797" lon="5.89288">
        <ele>234</ele>
        <time>2021-12-28T06:31:16Z</time>
      </trkpt>
      <trkpt lat="45.64789" lon="5.89276">
        <ele>234</ele>
        <time>2021-12-28T06:31:18Z</time>
      </trkpt>
      <trkpt lat="45.64782" lon="5.89272">
        <ele>234</ele>
        <time>2021-12-28T06:31:20Z</time>
      </trkpt>
      <trkpt lat="45.64771" lon="5.89273">
        <ele>233</ele>
        <time>2021-12-28T06:31:22Z</time>
      </trkpt>
      <trkpt lat="45.64766" lon="5.89276">
        <ele>233</ele>
        <time>2021-12-28T06:31:23Z</time>
      </trkpt>
      <trkpt lat="45.64759" lon="5.89285">
        <ele>233</ele>
        <time>2021-12-28T06:31:24Z</time>
      </trkpt>
      <trkpt lat="45.64755" lon="5.89299">
        <ele>234</ele>
        <time>2021-12-28T06:31:26Z</time>
      </trkpt>
      <trkpt lat="45.64756" lon="5.8931">
        <ele>234</ele>
        <time>2021-12-28T06:31:27Z</time>
      </trkpt>
      <trkpt lat="45.64758" lon="5.89318">
        <ele>234</ele>
        <time>2021-12-28T06:31:29Z</time>
      </trkpt>
      <trkpt lat="45.64764" lon="5.89328">
        <ele>234</ele>
        <time>2021-12-28T06:31:30Z</time>
      </trkpt>
      <trkpt lat="45.6477" lon="5.89333">
        <ele>234</ele>
        <time>2021-12-28T06:31:31Z</time>
      </trkpt>
      <trkpt lat="45.64779" lon="5.89335">
        <ele>234</ele>
        <time>2021-12-28T06:31:33Z</time>
      </trkpt>
      <trkpt lat="45.64786" lon="5.89332">
        <ele>234</ele>
        <time>2021-12-28T06:31:34Z</time>
      </trkpt>
      <trkpt lat="45.64801" lon="5.89319">
        <ele>234</ele>
        <time>2021-12-28T06:31:37Z</time>
      </trkpt>
      <trkpt lat="45.64818" lon="5.89315">
        <ele>234</ele>
        <time>2021-12-28T06:31:41Z</time>
      </trkpt>
      <trkpt lat="45.6488" lon="5.89315">
        <ele>236</ele>
        <time>2021-12-28T06:31:52Z</time>
      </trkpt>
      <trkpt lat="45.64931" lon="5.89319">
        <ele>237</ele>
        <time>2021-12-28T06:32:01Z</time>
      </trkpt>
      <trkpt lat="45.64979" lon="5.89318">
        <ele>236</ele>
        <time>2021-12-28T06:32:09Z</time>
      </trkpt>
      <trkpt lat="45.65074" lon="5.89323">
        <ele>238</ele>
        <time>2021-12-28T06:32:26Z</time>
      </trkpt>
      <trkpt lat="45.65084" lon="5.89326">
        <ele>239</ele>
        <time>2021-12-28T06:32:28Z</time>
      </trkpt>
      <trkpt lat="45.65094" lon="5.89331">
        <ele>239</ele>
        <time>2021-12-28T06:32:30Z</time>
      </trkpt>
      <trkpt lat="45.65101" lon="5.89338">
        <ele>240</ele>
        <time>2021-12-28T06:32:31Z</time>
      </trkpt>
      <trkpt lat="45.65109" lon="5.89338">
        <ele>240</ele>
        <time>2021-12-28T06:32:33Z</time>
      </trkpt>
      <trkpt lat="45.65134" lon="5.89326">
        <ele>239</ele>
        <time>2021-12-28T06:32:37Z</time>
      </trkpt>
      <trkpt lat="45.65303" lon="5.89336">
        <ele>242</ele>
        <time>2021-12-28T06:33:08Z</time>
      </trkpt>
      <trkpt lat="45.65318" lon="5.89329">
        <ele>242</ele>
        <time>2021-12-28T06:33:10Z</time>
      </trkpt>
      <trkpt lat="45.65128" lon="5.89317">
        <ele>239</ele>
        <time>2021-12-28T06:33:44Z</time>
      </trkpt>
      <trkpt lat="45.65118" lon="5.89311">
        <ele>239</ele>
        <time>2021-12-28T06:33:46Z</time>
      </trkpt>
      <trkpt lat="45.65113" lon="5.89302">
        <ele>238</ele>
        <time>2021-12-28T06:33:48Z</time>
      </trkpt>
      <trkpt lat="45.65124" lon="5.89287">
        <ele>238</ele>
        <time>2021-12-28T06:33:50Z</time>
      </trkpt>
      <trkpt lat="45.65132" lon="5.89285">
        <ele>238</ele>
        <time>2021-12-28T06:33:52Z</time>
      </trkpt>
      <trkpt lat="45.65141" lon="5.89279">
        <ele>237</ele>
        <time>2021-12-28T06:33:53Z</time>
      </trkpt>
      <trkpt lat="45.65208" lon="5.89189">
        <ele>234</ele>
        <time>2021-12-28T06:34:10Z</time>
      </trkpt>
      <trkpt lat="45.65217" lon="5.89191">
        <ele>234</ele>
        <time>2021-12-28T06:34:11Z</time>
      </trkpt>
      <trkpt lat="45.65224" lon="5.89195">
        <ele>234</ele>
        <time>2021-12-28T06:34:13Z</time>
      </trkpt>
      <trkpt lat="45.65237" lon="5.89214">
        <ele>234</ele>
        <time>2021-12-28T06:34:16Z</time>
      </trkpt>
      <trkpt lat="45.65258" lon="5.89255">
        <ele>235</ele>
        <time>2021-12-28T06:34:22Z</time>
      </trkpt>
      <trkpt lat="45.65265" lon="5.89279">
        <ele>237</ele>
        <time>2021-12-28T06:34:26Z</time>
      </trkpt>
      <trkpt lat="45.65275" lon="5.89287">
        <ele>238</ele>
        <time>2021-12-28T06:34:28Z</time>
      </trkpt>
      <trkpt lat="45.65279" lon="5.89287">
        <ele>238</ele>
        <time>2021-12-28T06:34:28Z</time>
      </trkpt>
      <trkpt lat="45.65294" lon="5.89284">
        <ele>238</ele>
        <time>2021-12-28T06:34:31Z</time>
      </trkpt>
      <trkpt lat="45.65328" lon="5.89307">
        <ele>240</ele>
        <time>2021-12-28T06:34:38Z</time>
      </trkpt>
      <trkpt lat="45.65335" lon="5.89308">
        <ele>240</ele>
        <time>2021-12-28T06:34:39Z</time>
      </trkpt>
      <trkpt lat="45.65341" lon="5.89306">
        <ele>240</ele>
        <time>2021-12-28T06:34:40Z</time>
      </trkpt>
      <trkpt lat="45.65345" lon="5.89298">
        <ele>239</ele>
        <time>2021-12-28T06:34:41Z</time>
      </trkpt>
      <trkpt lat="45.65354" lon="5.89268">
        <ele>236</ele>
        <time>2021-12-28T06:34:45Z</time>
      </trkpt>
      <trkpt lat="45.65359" lon="5.89264">
        <ele>236</ele>
        <time>2021-12-28T06:34:46Z</time>
      </trkpt>
      <trkpt lat="45.65379" lon="5.89275">
        <ele>235</ele>
        <time>2021-12-28T06:34:50Z</time>
      </trkpt>
      <trkpt lat="45.65423" lon="5.89306">
        <ele>235</ele>
        <time>2021-12-28T06:34:59Z</time>
      </trkpt>
      <trkpt lat="45.6545" lon="5.89329">
        <ele>235</ele>
        <time>2021-12-28T06:35:05Z</time>
      </trkpt>
      <trkpt lat="45.65488" lon="5.89344">
        <ele>235</ele>
        <time>2021-12-28T06:35:12Z</time>
      </trkpt>
      <trkpt lat="45.65503" lon="5.89352">
        <ele>235</ele>
        <time>2021-12-28T06:35:14Z</time>
      </trkpt>
      <trkpt lat="45.65521" lon="5.89368">
        <ele>237</ele>
        <time>2021-12-28T06:35:18Z</time>
      </trkpt>
      <trkpt lat="45.65564" lon="5.89417">
        <ele>239</ele>
        <time>2021-12-28T06:35:28Z</time>
      </trkpt>
      <trkpt lat="45.65584" lon="5.8943">
        <ele>239</ele>
        <time>2021-12-28T06:35:32Z</time>
      </trkpt>
      <trkpt lat="45.65607" lon="5.8944">
        <ele>240</ele>
        <time>2021-12-28T06:35:36Z</time>
      </trkpt>
      <trkpt lat="45.65632" lon="5.89444">
        <ele>240</ele>
        <time>2021-12-28T06:35:41Z</time>
      </trkpt>
      <trkpt lat="45.65665" lon="5.89447">
        <ele>240</ele>
        <time>2021-12-28T06:35:47Z</time>
      </trkpt>
      <trkpt lat="45.65677" lon="5.89444">
        <ele>239</ele>
        <time>2021-12-28T06:35:49Z</time>
      </trkpt>
      <trkpt lat="45.65689" lon="5.89439">
        <ele>238</ele>
        <time>2021-12-28T06:35:51Z</time>
      </trkpt>
      <trkpt lat="45.65707" lon="5.89426">
        <ele>236</ele>
        <time>2021-12-28T06:35:54Z</time>
      </trkpt>
      <trkpt lat="45.65725" lon="5.89389">
        <ele>233</ele>
        <time>2021-12-28T06:36:00Z</time>
      </trkpt>
      <trkpt lat="45.65729" lon="5.89385">
        <ele>233</ele>
        <time>2021-12-28T06:36:01Z</time>
      </trkpt>
      <trkpt lat="45.65739" lon="5.89384">
        <ele>233</ele>
        <time>2021-12-28T06:36:03Z</time>
      </trkpt>
      <trkpt lat="45.65744" lon="5.89386">
        <ele>233</ele>
        <time>2021-12-28T06:36:04Z</time>
      </trkpt>
      <trkpt lat="45.65749" lon="5.89391">
        <ele>233</ele>
        <time>2021-12-28T06:36:05Z</time>
      </trkpt>
      <trkpt lat="45.65759" lon="5.89406">
        <ele>233</ele>
        <time>2021-12-28T06:36:07Z</time>
      </trkpt>
      <trkpt lat="45.65765" lon="5.89412">
        <ele>233</ele>
        <time>2021-12-28T06:36:09Z</time>
      </trkpt>
      <trkpt lat="45.65835" lon="5.89438">
        <ele>233</ele>
        <time>2021-12-28T06:36:22Z</time>
      </trkpt>
      <trkpt lat="45.65911" lon="5.89447">
        <ele>235</ele>
        <time>2021-12-28T06:36:35Z</time>
      </trkpt>
      <trkpt lat="45.65966" lon="5.89458">
        <ele>236</ele>
        <time>2021-12-28T06:36:45Z</time>
      </trkpt>
      <trkpt lat="45.65977" lon="5.89454">
        <ele>235</ele>
        <time>2021-12-28T06:36:47Z</time>
      </trkpt>
      <trkpt lat="45.65996" lon="5.89458">
        <ele>236</ele>
        <time>2021-12-28T06:36:50Z</time>
      </trkpt>
      <trkpt lat="45.66009" lon="5.89468">
        <ele>237</ele>
        <time>2021-12-28T06:36:53Z</time>
      </trkpt>
      <trkpt lat="45.66242" lon="5.89565">
        <ele>237</ele>
        <time>2021-12-28T06:37:36Z</time>
      </trkpt>
      <trkpt lat="45.66273" lon="5.89571">
        <ele>235</ele>
        <time>2021-12-28T06:37:42Z</time>
      </trkpt>
      <trkpt lat="45.66315" lon="5.89585">
        <ele>234</ele>
        <time>2021-12-28T06:37:49Z</time>
      </trkpt>
      <trkpt lat="45.66348" lon="5.89593">
        <ele>233</ele>
        <time>2021-12-28T06:37:55Z</time>
      </trkpt>
      <trkpt lat="45.66409" lon="5.89597">
        <ele>233</ele>
        <time>2021-12-28T06:38:06Z</time>
      </trkpt>
      <trkpt lat="45.66419" lon="5.89601">
        <ele>234</ele>
        <time>2021-12-28T06:38:08Z</time>
      </trkpt>
      <trkpt lat="45.66452" lon="5.89598">
        <ele>234</ele>
        <time>2021-12-28T06:38:14Z</time>
      </trkpt>
      <trkpt lat="45.66455" lon="5.89597">
        <ele>234</ele>
        <time>2021-12-28T06:38:15Z</time>
      </trkpt>
      <trkpt lat="45.66486" lon="5.89595">
        <ele>234</ele>
        <time>2021-12-28T06:38:20Z</time>
      </trkpt>
      <trkpt lat="45.66528" lon="5.89586">
        <ele>234</ele>
        <time>2021-12-28T06:38:28Z</time>
      </trkpt>
      <trkpt lat="45.66592" lon="5.89563">
        <ele>235</ele>
        <time>2021-12-28T06:38:39Z</time>
      </trkpt>
      <trkpt lat="45.66644" lon="5.89535">
        <ele>236</ele>
        <time>2021-12-28T06:38:49Z</time>
      </trkpt>
      <trkpt lat="45.66716" lon="5.89493">
        <ele>239</ele>
        <time>2021-12-28T06:39:03Z</time>
      </trkpt>
      <trkpt lat="45.66779" lon="5.89443">
        <ele>238</ele>
        <time>2021-12-28T06:39:16Z</time>
      </trkpt>
      <trkpt lat="45.66818" lon="5.89428">
        <ele>237</ele>
        <time>2021-12-28T06:39:23Z</time>
      </trkpt>
      <trkpt lat="45.6683" lon="5.8942">
        <ele>237</ele>
        <time>2021-12-28T06:39:25Z</time>
      </trkpt>
      <trkpt lat="45.66865" lon="5.89383">
        <ele>235</ele>
        <time>2021-12-28T06:39:33Z</time>
      </trkpt>
      <trkpt lat="45.66887" lon="5.89371">
        <ele>233</ele>
        <time>2021-12-28T06:39:37Z</time>
      </trkpt>
      <trkpt lat="45.66937" lon="5.8936">
        <ele>233</ele>
        <time>2021-12-28T06:39:46Z</time>
      </trkpt>
      <trkpt lat="45.66969" lon="5.8935">
        <ele>234</ele>
        <time>2021-12-28T06:39:52Z</time>
      </trkpt>
      <trkpt lat="45.66981" lon="5.89352">
        <ele>235</ele>
        <time>2021-12-28T06:39:54Z</time>
      </trkpt>
      <trkpt lat="45.67031" lon="5.89333">
        <ele>235</ele>
        <time>2021-12-28T06:40:04Z</time>
      </trkpt>
      <trkpt lat="45.67065" lon="5.89329">
        <ele>235</ele>
        <time>2021-12-28T06:40:10Z</time>
      </trkpt>
      <trkpt lat="45.673" lon="5.8935">
        <ele>240</ele>
        <time>2021-12-28T06:40:52Z</time>
      </trkpt>
      <trkpt lat="45.67334" lon="5.89353">
        <ele>242</ele>
        <time>2021-12-28T06:40:58Z</time>
      </trkpt>
      <trkpt lat="45.67352" lon="5.89348">
        <ele>242</ele>
        <time>2021-12-28T06:41:01Z</time>
      </trkpt>
      <trkpt lat="45.67679" lon="5.89386">
        <ele>249</ele>
        <time>2021-12-28T06:41:59Z</time>
      </trkpt>
      <trkpt lat="45.67731" lon="5.89385">
        <ele>250</ele>
        <time>2021-12-28T06:42:08Z</time>
      </trkpt>
      <trkpt lat="45.6776" lon="5.89388">
        <ele>251</ele>
        <time>2021-12-28T06:42:14Z</time>
      </trkpt>
      <trkpt lat="45.67774" lon="5.8939">
        <ele>250</ele>
        <time>2021-12-28T06:42:16Z</time>
      </trkpt>
      <trkpt lat="45.67786" lon="5.89395">
        <ele>251</ele>
        <time>2021-12-28T06:42:18Z</time>
      </trkpt>
      <trkpt lat="45.6786" lon="5.89396">
        <ele>248</ele>
        <time>2021-12-28T06:42:32Z</time>
      </trkpt>
      <trkpt lat="45.67966" lon="5.89392">
        <ele>243</ele>
        <time>2021-12-28T06:42:50Z</time>
      </trkpt>
      <trkpt lat="45.67975" lon="5.89386">
        <ele>242</ele>
        <time>2021-12-28T06:42:52Z</time>
      </trkpt>
      <trkpt lat="45.67978" lon="5.8939">
        <ele>242</ele>
        <time>2021-12-28T06:42:53Z</time>
      </trkpt>
      <trkpt lat="45.67993" lon="5.89388">
        <ele>242</ele>
        <time>2021-12-28T06:42:56Z</time>
      </trkpt>
      <trkpt lat="45.67995" lon="5.8939">
        <ele>242</ele>
        <time>2021-12-28T06:42:56Z</time>
      </trkpt>
      <trkpt lat="45.67996" lon="5.894">
        <ele>244</ele>
        <time>2021-12-28T06:42:57Z</time>
      </trkpt>
      <trkpt lat="45.67845" lon="5.89405">
        <ele>250</ele>
        <time>2021-12-28T06:43:24Z</time>
      </trkpt>
      <trkpt lat="45.67769" lon="5.89405">
        <ele>253</ele>
        <time>2021-12-28T06:43:38Z</time>
      </trkpt>
      <trkpt lat="45.67725" lon="5.89398">
        <ele>252</ele>
        <time>2021-12-28T06:43:46Z</time>
      </trkpt>
      <trkpt lat="45.67405" lon="5.89364">
        <ele>249</ele>
        <time>2021-12-28T06:44:43Z</time>
      </trkpt>
      <trkpt lat="45.67324" lon="5.89361">
        <ele>243</ele>
        <time>2021-12-28T06:44:57Z</time>
      </trkpt>
      <trkpt lat="45.67114" lon="5.89343">
        <ele>238</ele>
        <time>2021-12-28T06:45:34Z</time>
      </trkpt>
      <trkpt lat="45.67052" lon="5.89349">
        <ele>236</ele>
        <time>2021-12-28T06:45:46Z</time>
      </trkpt>
      <trkpt lat="45.67001" lon="5.89359">
        <ele>236</ele>
        <time>2021-12-28T06:45:55Z</time>
      </trkpt>
      <trkpt lat="45.66976" lon="5.89372">
        <ele>236</ele>
        <time>2021-12-28T06:45:59Z</time>
      </trkpt>
      <trkpt lat="45.66957" lon="5.89393">
        <ele>235</ele>
        <time>2021-12-28T06:46:04Z</time>
      </trkpt>
      <trkpt lat="45.66932" lon="5.89425">
        <ele>235</ele>
        <time>2021-12-28T06:46:10Z</time>
      </trkpt>
      <trkpt lat="45.66917" lon="5.89436">
        <ele>235</ele>
        <time>2021-12-28T06:46:13Z</time>
      </trkpt>
      <trkpt lat="45.66885" lon="5.89455">
        <ele>237</ele>
        <time>2021-12-28T06:46:19Z</time>
      </trkpt>
      <trkpt lat="45.66841" lon="5.89474">
        <ele>238</ele>
        <time>2021-12-28T06:46:27Z</time>
      </trkpt>
      <trkpt lat="45.6682" lon="5.89479">
        <ele>238</ele>
        <time>2021-12-28T06:46:31Z</time>
      </trkpt>
      <trkpt lat="45.66801" lon="5.8948">
        <ele>238</ele>
        <time>2021-12-28T06:46:34Z</time>
      </trkpt>
      <trkpt lat="45.66791" lon="5.89477">
        <ele>239</ele>
        <time>2021-12-28T06:46:36Z</time>
      </trkpt>
      <trkpt lat="45.66786" lon="5.89471">
        <ele>239</ele>
        <time>2021-12-28T06:46:37Z</time>
      </trkpt>
      <trkpt lat="45.66786" lon="5.8946">
        <ele>238</ele>
        <time>2021-12-28T06:46:39Z</time>
      </trkpt>
      <trkpt lat="45.66784" lon="5.89447">
        <ele>238</ele>
        <time>2021-12-28T06:46:40Z</time>
      </trkpt>
      <trkpt lat="45.66779" lon="5.89443">
        <ele>238</ele>
        <time>2021-12-28T06:46:41Z</time>
      </trkpt>
      <trkpt lat="45.66818" lon="5.89428">
        <ele>237</ele>
        <time>2021-12-28T06:46:48Z</time>
      </trkpt>
      <trkpt lat="45.6683" lon="5.8942">
        <ele>237</ele>
        <time>2021-12-28T06:46:51Z</time>
      </trkpt>
      <trkpt lat="45.66865" lon="5.89383">
        <ele>235</ele>
        <time>2021-12-28T06:46:58Z</time>
      </trkpt>
      <trkpt lat="45.66887" lon="5.89371">
        <ele>233</ele>
        <time>2021-12-28T06:47:03Z</time>
      </trkpt>
      <trkpt lat="45.66937" lon="5.8936">
        <ele>233</ele>
        <time>2021-12-28T06:47:12Z</time>
      </trkpt>
      <trkpt lat="45.66969" lon="5.8935">
        <ele>234</ele>
        <time>2021-12-28T06:47:18Z</time>
      </trkpt>
      <trkpt lat="45.66981" lon="5.89352">
        <ele>235</ele>
        <time>2021-12-28T06:47:20Z</time>
      </trkpt>
      <trkpt lat="45.67031" lon="5.89333">
        <ele>235</ele>
        <time>2021-12-28T06:47:29Z</time>
      </trkpt>
      <trkpt lat="45.67065" lon="5.89329">
        <ele>235</ele>
        <time>2021-12-28T06:47:35Z</time>
      </trkpt>
      <trkpt lat="45.673" lon="5.8935">
        <ele>240</ele>
        <time>2021-12-28T06:48:17Z</time>
      </trkpt>
      <trkpt lat="45.67334" lon="5.89353">
        <ele>242</ele>
        <time>2021-12-28T06:48:23Z</time>
      </trkpt>
      <trkpt lat="45.67352" lon="5.89348">
        <ele>242</ele>
        <time>2021-12-28T06:48:26Z</time>
      </trkpt>
      <trkpt lat="45.67679" lon="5.89386">
        <ele>249</ele>
        <time>2021-12-28T06:49:25Z</time>
      </trkpt>
      <trkpt lat="45.67731" lon="5.89385">
        <ele>250</ele>
        <time>2021-12-28T06:49:34Z</time>
      </trkpt>
      <trkpt lat="45.6776" lon="5.89388">
        <ele>251</ele>
        <time>2021-12-28T06:49:39Z</time>
      </trkpt>
      <trkpt lat="45.67774" lon="5.8939">
        <ele>250</ele>
        <time>2021-12-28T06:49:41Z</time>
      </trkpt>
      <trkpt lat="45.67786" lon="5.89395">
        <ele>251</ele>
        <time>2021-12-28T06:49:44Z</time>
      </trkpt>
      <trkpt lat="45.6786" lon="5.89396">
        <ele>248</ele>
        <time>2021-12-28T06:49:57Z</time>
      </trkpt>
      <trkpt lat="45.67966" lon="5.89392">
        <ele>243</ele>
        <time>2021-12-28T06:50:16Z</time>
      </trkpt>
      <trkpt lat="45.67992" lon="5.89377">
        <ele>240</ele>
        <time>2021-12-28T06:50:21Z</time>
      </trkpt>
      <trkpt lat="45.68" lon="5.89377">
        <ele>240</ele>
        <time>2021-12-28T06:50:22Z</time>
      </trkpt>
      <trkpt lat="45.68011" lon="5.89382">
        <ele>241</ele>
        <time>2021-12-28T06:50:24Z</time>
      </trkpt>
      <trkpt lat="45.68025" lon="5.89393">
        <ele>244</ele>
        <time>2021-12-28T06:50:27Z</time>
      </trkpt>
      <trkpt lat="45.68139" lon="5.89418">
        <ele>249</ele>
        <time>2021-12-28T06:50:48Z</time>
      </trkpt>
      <trkpt lat="45.68154" lon="5.89419">
        <ele>247</ele>
        <time>2021-12-28T06:50:50Z</time>
      </trkpt>
      <trkpt lat="45.68171" lon="5.89417">
        <ele>245</ele>
        <time>2021-12-28T06:50:53Z</time>
      </trkpt>
      <trkpt lat="45.68197" lon="5.8942">
        <ele>243</ele>
        <time>2021-12-28T06:50:58Z</time>
      </trkpt>
      <trkpt lat="45.68229" lon="5.89434">
        <ele>244</ele>
        <time>2021-12-28T06:51:04Z</time>
      </trkpt>
      <trkpt lat="45.68343" lon="5.89455">
        <ele>239</ele>
        <time>2021-12-28T06:51:24Z</time>
      </trkpt>
      <trkpt lat="45.68361" lon="5.89445">
        <ele>236</ele>
        <time>2021-12-28T06:51:28Z</time>
      </trkpt>
      <trkpt lat="45.68373" lon="5.89447">
        <ele>236</ele>
        <time>2021-12-28T06:51:30Z</time>
      </trkpt>
      <trkpt lat="45.68387" lon="5.89465">
        <ele>238</ele>
        <time>2021-12-28T06:51:33Z</time>
      </trkpt>
      <trkpt lat="45.68604" lon="5.89498">
        <ele>235</ele>
        <time>2021-12-28T06:52:12Z</time>
      </trkpt>
      <trkpt lat="45.68627" lon="5.89493">
        <ele>235</ele>
        <time>2021-12-28T06:52:16Z</time>
      </trkpt>
      <trkpt lat="45.68641" lon="5.89498">
        <ele>236</ele>
        <time>2021-12-28T06:52:19Z</time>
      </trkpt>
      <trkpt lat="45.68655" lon="5.89508">
        <ele>240</ele>
        <time>2021-12-28T06:52:22Z</time>
      </trkpt>
      <trkpt lat="45.68814" lon="5.89539">
        <ele>244</ele>
        <time>2021-12-28T06:52:50Z</time>
      </trkpt>
      <trkpt lat="45.68826" lon="5.89535">
        <ele>241</ele>
        <time>2021-12-28T06:52:52Z</time>
      </trkpt>
      <trkpt lat="45.68834" lon="5.89536">
        <ele>241</ele>
        <time>2021-12-28T06:52:54Z</time>
      </trkpt>
      <trkpt lat="45.68853" lon="5.89543">
        <ele>242</ele>
        <time>2021-12-28T06:52:57Z</time>
      </trkpt>
      <trkpt lat="45.68917" lon="5.8955">
        <ele>241</ele>
        <time>2021-12-28T06:53:09Z</time>
      </trkpt>
      <trkpt lat="45.68919" lon="5.89555">
        <ele>242</ele>
        <time>2021-12-28T06:53:09Z</time>
      </trkpt>
      <trkpt lat="45.68919" lon="5.89561">
        <ele>242</ele>
        <time>2021-12-28T06:53:10Z</time>
      </trkpt>
      <trkpt lat="45.68918" lon="5.89567">
        <ele>243</ele>
        <time>2021-12-28T06:53:11Z</time>
      </trkpt>
      <trkpt lat="45.68914" lon="5.89567">
        <ele>243</ele>
        <time>2021-12-28T06:53:12Z</time>
      </trkpt>
      <trkpt lat="45.68914" lon="5.89571">
        <ele>244</ele>
        <time>2021-12-28T06:53:12Z</time>
      </trkpt>
      <trkpt lat="45.69128" lon="5.89592">
        <ele>243</ele>
        <time>2021-12-28T06:53:50Z</time>
      </trkpt>
      <trkpt lat="45.69231" lon="5.89604">
        <ele>242</ele>
        <time>2021-12-28T06:54:09Z</time>
      </trkpt>
      <trkpt lat="45.69274" lon="5.89616">
        <ele>242</ele>
        <time>2021-12-28T06:54:16Z</time>
      </trkpt>
      <trkpt lat="45.69288" lon="5.89615">
        <ele>241</ele>
        <time>2021-12-28T06:54:19Z</time>
      </trkpt>
      <trkpt lat="45.69287" lon="5.89596">
        <ele>241</ele>
        <time>2021-12-28T06:54:21Z</time>
      </trkpt>
      <trkpt lat="45.69246" lon="5.89593">
        <ele>241</ele>
        <time>2021-12-28T06:54:29Z</time>
      </trkpt>
      <trkpt lat="45.69235" lon="5.89589">
        <ele>241</ele>
        <time>2021-12-28T06:54:31Z</time>
      </trkpt>
      <trkpt lat="45.69246" lon="5.89593">
        <ele>241</ele>
        <time>2021-12-28T06:54:33Z</time>
      </trkpt>
      <trkpt lat="45.69287" lon="5.89596">
        <ele>241</ele>
        <time>2021-12-28T06:54:40Z</time>
      </trkpt>
      <trkpt lat="45.69288" lon="5.89615">
        <ele>241</ele>
        <time>2021-12-28T06:54:42Z</time>
      </trkpt>
      <trkpt lat="45.6931" lon="5.89613">
        <ele>241</ele>
        <time>2021-12-28T06:54:46Z</time>
      </trkpt>
      <trkpt lat="45.69319" lon="5.89617">
        <ele>240</ele>
        <time>2021-12-28T06:54:48Z</time>
      </trkpt>
      <trkpt lat="45.69324" lon="5.89629">
        <ele>240</ele>
        <time>2021-12-28T06:54:50Z</time>
      </trkpt>
      <trkpt lat="45.69335" lon="5.89636">
        <ele>240</ele>
        <time>2021-12-28T06:54:52Z</time>
      </trkpt>
      <trkpt lat="45.69341" lon="5.89649">
        <ele>240</ele>
        <time>2021-12-28T06:54:54Z</time>
      </trkpt>
      <trkpt lat="45.69357" lon="5.89691">
        <ele>242</ele>
        <time>2021-12-28T06:55:00Z</time>
      </trkpt>
      <trkpt lat="45.69369" lon="5.89711">
        <ele>243</ele>
        <time>2021-12-28T06:55:03Z</time>
      </trkpt>
      <trkpt lat="45.69377" lon="5.89725">
        <ele>244</ele>
        <time>2021-12-28T06:55:05Z</time>
      </trkpt>
      <trkpt lat="45.69391" lon="5.89757">
        <ele>245</ele>
        <time>2021-12-28T06:55:10Z</time>
      </trkpt>
      <trkpt lat="45.69397" lon="5.89776">
        <ele>246</ele>
        <time>2021-12-28T06:55:12Z</time>
      </trkpt>
      <trkpt lat="45.6941" lon="5.89829">
        <ele>249</ele>
        <time>2021-12-28T06:55:19Z</time>
      </trkpt>
      <trkpt lat="45.69427" lon="5.89956">
        <ele>243</ele>
        <time>2021-12-28T06:55:36Z</time>
      </trkpt>
      <trkpt lat="45.69427" lon="5.89975">
        <ele>243</ele>
        <time>2021-12-28T06:55:38Z</time>
      </trkpt>
      <trkpt lat="45.69425" lon="5.89994">
        <ele>242</ele>
        <time>2021-12-28T06:55:40Z</time>
      </trkpt>
      <trkpt lat="45.69417" lon="5.90011">
        <ele>241</ele>
        <time>2021-12-28T06:55:43Z</time>
      </trkpt>
      <trkpt lat="45.69409" lon="5.90019">
        <ele>242</ele>
        <time>2021-12-28T06:55:45Z</time>
      </trkpt>
      <trkpt lat="45.69414" lon="5.90041">
        <ele>240</ele>
        <time>2021-12-28T06:55:47Z</time>
      </trkpt>
      <trkpt lat="45.69426" lon="5.90047">
        <ele>240</ele>
        <time>2021-12-28T06:55:50Z</time>
      </trkpt>
      <trkpt lat="45.69429" lon="5.90051">
        <ele>239</ele>
        <time>2021-12-28T06:55:50Z</time>
      </trkpt>
      <trkpt lat="45.69432" lon="5.90064">
        <ele>239</ele>
        <time>2021-12-28T06:55:52Z</time>
      </trkpt>
      <trkpt lat="45.69465" lon="5.9033">
        <ele>239</ele>
        <time>2021-12-28T06:56:26Z</time>
      </trkpt>
      <trkpt lat="45.69479" lon="5.90327">
        <ele>239</ele>
        <time>2021-12-28T06:56:28Z</time>
      </trkpt>
      <trkpt lat="45.69478" lon="5.9032">
        <ele>239</ele>
        <time>2021-12-28T06:56:29Z</time>
      </trkpt>
      <trkpt lat="45.69486" lon="5.90319">
        <ele>239</ele>
        <time>2021-12-28T06:56:31Z</time>
      </trkpt>
      <trkpt lat="45.69491" lon="5.90321">
        <ele>239</ele>
        <time>2021-12-28T06:56:31Z</time>
      </trkpt>
      <trkpt lat="45.69486" lon="5.9034">
        <ele>239</ele>
        <time>2021-12-28T06:56:34Z</time>
      </trkpt>
      <trkpt lat="45.69489" lon="5.9037">
        <ele>239</ele>
        <time>2021-12-28T06:56:38Z</time>
      </trkpt>
      <trkpt lat="45.69485" lon="5.90371">
        <ele>239</ele>
        <time>2021-12-28T06:56:38Z</time>
      </trkpt>
      <trkpt lat="45.69476" lon="5.90304">
        <ele>239</ele>
        <time>2021-12-28T06:56:47Z</time>
      </trkpt>
      <trkpt lat="45.69462" lon="5.90307">
        <ele>239</ele>
        <time>2021-12-28T06:56:49Z</time>
      </trkpt>
      <trkpt lat="45.69494" lon="5.90546">
        <ele>240</ele>
        <time>2021-12-28T06:57:20Z</time>
      </trkpt>
      <trkpt lat="45.69498" lon="5.90574">
        <ele>240</ele>
        <time>2021-12-28T06:57:23Z</time>
      </trkpt>
      <trkpt lat="45.69501" lon="5.90601">
        <ele>240</ele>
        <time>2021-12-28T06:57:27Z</time>
      </trkpt>
      <trkpt lat="45.69501" lon="5.90673">
        <ele>241</ele>
        <time>2021-12-28T06:57:36Z</time>
      </trkpt>
      <trkpt lat="45.69498" lon="5.90691">
        <ele>241</ele>
        <time>2021-12-28T06:57:38Z</time>
      </trkpt>
      <trkpt lat="45.69503" lon="5.90699">
        <ele>241</ele>
        <time>2021-12-28T06:57:39Z</time>
      </trkpt>
      <trkpt lat="45.69497" lon="5.90731">
        <ele>242</ele>
        <time>2021-12-28T06:57:43Z</time>
      </trkpt>
      <trkpt lat="45.69501" lon="5.90743">
        <ele>242</ele>
        <time>2021-12-28T06:57:45Z</time>
      </trkpt>
      <trkpt lat="45.69506" lon="5.90755">
        <ele>242</ele>
        <time>2021-12-28T06:57:47Z</time>
      </trkpt>
      <trkpt lat="45.69512" lon="5.90759">
        <ele>242</ele>
        <time>2021-12-28T06:57:48Z</time>
      </trkpt>
      <trkpt lat="45.69519" lon="5.90761">
        <ele>242</ele>
        <time>2021-12-28T06:57:49Z</time>
      </trkpt>
      <trkpt lat="45.6953" lon="5.90759">
        <ele>243</ele>
        <time>2021-12-28T06:57:51Z</time>
      </trkpt>
      <trkpt lat="45.6954" lon="5.90753">
        <ele>243</ele>
        <time>2021-12-28T06:57:53Z</time>
      </trkpt>
      <trkpt lat="45.69584" lon="5.90745">
        <ele>243</ele>
        <time>2021-12-28T06:58:01Z</time>
      </trkpt>
      <trkpt lat="45.696" lon="5.90745">
        <ele>243</ele>
        <time>2021-12-28T06:58:04Z</time>
      </trkpt>
      <trkpt lat="45.69648" lon="5.90751">
        <ele>244</ele>
        <time>2021-12-28T06:58:12Z</time>
      </trkpt>
      <trkpt lat="45.69662" lon="5.90755">
        <ele>244</ele>
        <time>2021-12-28T06:58:15Z</time>
      </trkpt>
      <trkpt lat="45.69665" lon="5.90764">
        <ele>244</ele>
        <time>2021-12-28T06:58:16Z</time>
      </trkpt>
      <trkpt lat="45.6967" lon="5.9077">
        <ele>244</ele>
        <time>2021-12-28T06:58:17Z</time>
      </trkpt>
      <trkpt lat="45.6968" lon="5.90773">
        <ele>244</ele>
        <time>2021-12-28T06:58:19Z</time>
      </trkpt>
      <trkpt lat="45.69686" lon="5.90771">
        <ele>244</ele>
        <time>2021-12-28T06:58:20Z</time>
      </trkpt>
      <trkpt lat="45.69693" lon="5.90762">
        <ele>244</ele>
        <time>2021-12-28T06:58:22Z</time>
      </trkpt>
      <trkpt lat="45.69835" lon="5.90815">
        <ele>243</ele>
        <time>2021-12-28T06:58:48Z</time>
      </trkpt>
      <trkpt lat="45.69945" lon="5.90853">
        <ele>245</ele>
        <time>2021-12-28T06:59:08Z</time>
      </trkpt>
      <trkpt lat="45.69947" lon="5.90842">
        <ele>245</ele>
        <time>2021-12-28T06:59:10Z</time>
      </trkpt>
      <trkpt lat="45.69867" lon="5.90814">
        <ele>244</ele>
        <time>2021-12-28T06:59:24Z</time>
      </trkpt>
      <trkpt lat="45.6985" lon="5.90805">
        <ele>243</ele>
        <time>2021-12-28T06:59:27Z</time>
      </trkpt>
      <trkpt lat="45.69708" lon="5.90754">
        <ele>244</ele>
        <time>2021-12-28T06:59:54Z</time>
      </trkpt>
      <trkpt lat="45.69706" lon="5.90767">
        <ele>244</ele>
        <time>2021-12-28T06:59:55Z</time>
      </trkpt>
      <trkpt lat="45.70131" lon="5.90921">
        <ele>248</ele>
        <time>2021-12-28T07:01:13Z</time>
      </trkpt>
      <trkpt lat="45.70152" lon="5.9093">
        <ele>248</ele>
        <time>2021-12-28T07:01:17Z</time>
      </trkpt>
      <trkpt lat="45.70167" lon="5.90946">
        <ele>249</ele>
        <time>2021-12-28T07:01:20Z</time>
      </trkpt>
      <trkpt lat="45.70172" lon="5.90947">
        <ele>249</ele>
        <time>2021-12-28T07:01:21Z</time>
      </trkpt>
      <trkpt lat="45.7018" lon="5.90942">
        <ele>249</ele>
        <time>2021-12-28T07:01:23Z</time>
      </trkpt>
      <trkpt lat="45.70184" lon="5.90937">
        <ele>249</ele>
        <time>2021-12-28T07:01:24Z</time>
      </trkpt>
      <trkpt lat="45.70192" lon="5.90938">
        <ele>249</ele>
        <time>2021-12-28T07:01:25Z</time>
      </trkpt>
      <trkpt lat="45.70249" lon="5.90961">
        <ele>250</ele>
        <time>2021-12-28T07:01:36Z</time>
      </trkpt>
      <trkpt lat="45.70359" lon="5.90999">
        <ele>251</ele>
        <time>2021-12-28T07:01:56Z</time>
      </trkpt>
      <trkpt lat="45.70461" lon="5.91038">
        <ele>252</ele>
        <time>2021-12-28T07:02:15Z</time>
      </trkpt>
      <trkpt lat="45.70481" lon="5.91042">
        <ele>253</ele>
        <time>2021-12-28T07:02:18Z</time>
      </trkpt>
      <trkpt lat="45.70586" lon="5.91084">
        <ele>253</ele>
        <time>2021-12-28T07:02:38Z</time>
      </trkpt>
      <trkpt lat="45.70817" lon="5.91168">
        <ele>258</ele>
        <time>2021-12-28T07:03:20Z</time>
      </trkpt>
      <trkpt lat="45.70844" lon="5.91174">
        <ele>258</ele>
        <time>2021-12-28T07:03:25Z</time>
      </trkpt>
      <trkpt lat="45.70874" lon="5.91186">
        <ele>257</ele>
        <time>2021-12-28T07:03:30Z</time>
      </trkpt>
      <trkpt lat="45.70885" lon="5.91191">
        <ele>257</ele>
        <time>2021-12-28T07:03:33Z</time>
      </trkpt>
      <trkpt lat="45.70899" lon="5.91202">
        <ele>256</ele>
        <time>2021-12-28T07:03:35Z</time>
      </trkpt>
      <trkpt lat="45.70953" lon="5.9125">
        <ele>257</ele>
        <time>2021-12-28T07:03:47Z</time>
      </trkpt>
      <trkpt lat="45.71061" lon="5.91361">
        <ele>263</ele>
        <time>2021-12-28T07:04:10Z</time>
      </trkpt>
      <trkpt lat="45.71097" lon="5.91395">
        <ele>265</ele>
        <time>2021-12-28T07:04:18Z</time>
      </trkpt>
      <trkpt lat="45.71083" lon="5.91376">
        <ele>263</ele>
        <time>2021-12-28T07:04:21Z</time>
      </trkpt>
      <trkpt lat="45.71077" lon="5.91359">
        <ele>263</ele>
        <time>2021-12-28T07:04:24Z</time>
      </trkpt>
      <trkpt lat="45.71072" lon="5.91321">
        <ele>263</ele>
        <time>2021-12-28T07:04:29Z</time>
      </trkpt>
      <trkpt lat="45.71065" lon="5.91326">
        <ele>263</ele>
        <time>2021-12-28T07:04:30Z</time>
      </trkpt>
      <trkpt lat="45.71061" lon="5.91351">
        <ele>263</ele>
        <time>2021-12-28T07:04:33Z</time>
      </trkpt>
      <trkpt lat="45.71061" lon="5.91361">
        <ele>263</ele>
        <time>2021-12-28T07:04:34Z</time>
      </trkpt>
      <trkpt lat="45.71097" lon="5.91395">
        <ele>265</ele>
        <time>2021-12-28T07:04:42Z</time>
      </trkpt>
      <trkpt lat="45.71178" lon="5.91479">
        <ele>269</ele>
        <time>2021-12-28T07:05:00Z</time>
      </trkpt>
      <trkpt lat="45.71279" lon="5.91589">
        <ele>273</ele>
        <time>2021-12-28T07:05:22Z</time>
      </trkpt>
      <trkpt lat="45.71333" lon="5.91642">
        <ele>273</ele>
        <time>2021-12-28T07:05:34Z</time>
      </trkpt>
      <trkpt lat="45.7134" lon="5.9165">
        <ele>273</ele>
        <time>2021-12-28T07:05:36Z</time>
      </trkpt>
      <trkpt lat="45.71378" lon="5.91681">
        <ele>275</ele>
        <time>2021-12-28T07:05:44Z</time>
      </trkpt>
      <trkpt lat="45.71374" lon="5.9169">
        <ele>274</ele>
        <time>2021-12-28T07:05:45Z</time>
      </trkpt>
      <trkpt lat="45.71467" lon="5.91744">
        <ele>276</ele>
        <time>2021-12-28T07:06:03Z</time>
      </trkpt>
      <trkpt lat="45.71483" lon="5.91762">
        <ele>275</ele>
        <time>2021-12-28T07:06:06Z</time>
      </trkpt>
      <trkpt lat="45.71489" lon="5.91773">
        <ele>275</ele>
        <time>2021-12-28T07:06:08Z</time>
      </trkpt>
      <trkpt lat="45.71493" lon="5.91784">
        <ele>275</ele>
        <time>2021-12-28T07:06:10Z</time>
      </trkpt>
      <trkpt lat="45.71495" lon="5.91786">
        <ele>275</ele>
        <time>2021-12-28T07:06:10Z</time>
      </trkpt>
      <trkpt lat="45.71497" lon="5.91811">
        <ele>274</ele>
        <time>2021-12-28T07:06:13Z</time>
      </trkpt>
      <trkpt lat="45.71499" lon="5.91849">
        <ele>273</ele>
        <time>2021-12-28T07:06:18Z</time>
      </trkpt>
      <trkpt lat="45.71502" lon="5.91873">
        <ele>274</ele>
        <time>2021-12-28T07:06:21Z</time>
      </trkpt>
      <trkpt lat="45.71498" lon="5.91877">
        <ele>273</ele>
        <time>2021-12-28T07:06:22Z</time>
      </trkpt>
      <trkpt lat="45.71496" lon="5.91883">
        <ele>274</ele>
        <time>2021-12-28T07:06:23Z</time>
      </trkpt>
      <trkpt lat="45.71498" lon="5.91894">
        <ele>274</ele>
        <time>2021-12-28T07:06:24Z</time>
      </trkpt>
      <trkpt lat="45.71502" lon="5.91898">
        <ele>274</ele>
        <time>2021-12-28T07:06:25Z</time>
      </trkpt>
      <trkpt lat="45.71507" lon="5.91898">
        <ele>274</ele>
        <time>2021-12-28T07:06:26Z</time>
      </trkpt>
      <trkpt lat="45.71507" lon="5.91905">
        <ele>274</ele>
        <time>2021-12-28T07:06:27Z</time>
      </trkpt>
      <trkpt lat="45.7151" lon="5.91914">
        <ele>274</ele>
        <time>2021-12-28T07:06:28Z</time>
      </trkpt>
      <trkpt lat="45.71536" lon="5.91963">
        <ele>277</ele>
        <time>2021-12-28T07:06:36Z</time>
      </trkpt>
      <trkpt lat="45.71542" lon="5.91972">
        <ele>277</ele>
        <time>2021-12-28T07:06:37Z</time>
      </trkpt>
      <trkpt lat="45.71556" lon="5.91987">
        <ele>278</ele>
        <time>2021-12-28T07:06:40Z</time>
      </trkpt>
      <trkpt lat="45.71789" lon="5.92166">
        <ele>287</ele>
        <time>2021-12-28T07:07:27Z</time>
      </trkpt>
      <trkpt lat="45.71807" lon="5.92182">
        <ele>287</ele>
        <time>2021-12-28T07:07:31Z</time>
      </trkpt>
      <trkpt lat="45.71818" lon="5.92199">
        <ele>288</ele>
        <time>2021-12-28T07:07:34Z</time>
      </trkpt>
      <trkpt lat="45.71819" lon="5.92209">
        <ele>288</ele>
        <time>2021-12-28T07:07:35Z</time>
      </trkpt>
      <trkpt lat="45.71824" lon="5.9222">
        <ele>288</ele>
        <time>2021-12-28T07:07:37Z</time>
      </trkpt>
      <trkpt lat="45.7183" lon="5.92223">
        <ele>288</ele>
        <time>2021-12-28T07:07:38Z</time>
      </trkpt>
      <trkpt lat="45.71836" lon="5.92223">
        <ele>288</ele>
        <time>2021-12-28T07:07:39Z</time>
      </trkpt>
      <trkpt lat="45.71842" lon="5.92218">
        <ele>288</ele>
        <time>2021-12-28T07:07:40Z</time>
      </trkpt>
      <trkpt lat="45.71856" lon="5.92218">
        <ele>288</ele>
        <time>2021-12-28T07:07:43Z</time>
      </trkpt>
      <trkpt lat="45.71866" lon="5.92221">
        <ele>289</ele>
        <time>2021-12-28T07:07:45Z</time>
      </trkpt>
      <trkpt lat="45.71939" lon="5.92264">
        <ele>290</ele>
        <time>2021-12-28T07:07:59Z</time>
      </trkpt>
      <trkpt lat="45.71986" lon="5.92286">
        <ele>291</ele>
        <time>2021-12-28T07:08:07Z</time>
      </trkpt>
      <trkpt lat="45.72032" lon="5.92304">
        <ele>292</ele>
        <time>2021-12-28T07:08:16Z</time>
      </trkpt>
      <trkpt lat="45.72072" lon="5.92314">
        <ele>293</ele>
        <time>2021-12-28T07:08:23Z</time>
      </trkpt>
      <trkpt lat="45.72113" lon="5.92312">
        <ele>293</ele>
        <time>2021-12-28T07:08:30Z</time>
      </trkpt>
      <trkpt lat="45.72146" lon="5.92306">
        <ele>293</ele>
        <time>2021-12-28T07:08:36Z</time>
      </trkpt>
      <trkpt lat="45.72174" lon="5.92305">
        <ele>293</ele>
        <time>2021-12-28T07:08:41Z</time>
      </trkpt>
      <trkpt lat="45.72178" lon="5.92312">
        <ele>293</ele>
        <time>2021-12-28T07:08:42Z</time>
      </trkpt>
      <trkpt lat="45.72183" lon="5.92317">
        <ele>294</ele>
        <time>2021-12-28T07:08:43Z</time>
      </trkpt>
      <trkpt lat="45.72188" lon="5.92317">
        <ele>294</ele>
        <time>2021-12-28T07:08:44Z</time>
      </trkpt>
      <trkpt lat="45.72198" lon="5.92312">
        <ele>293</ele>
        <time>2021-12-28T07:08:46Z</time>
      </trkpt>
      <trkpt lat="45.72215" lon="5.92312">
        <ele>293</ele>
        <time>2021-12-28T07:08:49Z</time>
      </trkpt>
      <trkpt lat="45.72227" lon="5.92316">
        <ele>294</ele>
        <time>2021-12-28T07:08:51Z</time>
      </trkpt>
      <trkpt lat="45.72246" lon="5.92327">
        <ele>294</ele>
        <time>2021-12-28T07:08:55Z</time>
      </trkpt>
      <trkpt lat="45.72263" lon="5.92351">
        <ele>294</ele>
        <time>2021-12-28T07:08:59Z</time>
      </trkpt>
      <trkpt lat="45.7227" lon="5.9237">
        <ele>294</ele>
        <time>2021-12-28T07:09:02Z</time>
      </trkpt>
      <trkpt lat="45.72276" lon="5.92391">
        <ele>294</ele>
        <time>2021-12-28T07:09:05Z</time>
      </trkpt>
      <trkpt lat="45.72286" lon="5.92435">
        <ele>294</ele>
        <time>2021-12-28T07:09:11Z</time>
      </trkpt>
      <trkpt lat="45.72309" lon="5.92543">
        <ele>296</ele>
        <time>2021-12-28T07:09:25Z</time>
      </trkpt>
      <trkpt lat="45.72321" lon="5.92607">
        <ele>297</ele>
        <time>2021-12-28T07:09:33Z</time>
      </trkpt>
      <trkpt lat="45.72329" lon="5.9264">
        <ele>297</ele>
        <time>2021-12-28T07:09:37Z</time>
      </trkpt>
      <trkpt lat="45.7234" lon="5.92676">
        <ele>298</ele>
        <time>2021-12-28T07:09:42Z</time>
      </trkpt>
      <trkpt lat="45.72372" lon="5.92749">
        <ele>300</ele>
        <time>2021-12-28T07:09:53Z</time>
      </trkpt>
      <trkpt lat="45.72388" lon="5.92793">
        <ele>301</ele>
        <time>2021-12-28T07:09:59Z</time>
      </trkpt>
      <trkpt lat="45.72396" lon="5.92829">
        <ele>301</ele>
        <time>2021-12-28T07:10:04Z</time>
      </trkpt>
      <trkpt lat="45.72398" lon="5.9285">
        <ele>302</ele>
        <time>2021-12-28T07:10:06Z</time>
      </trkpt>
      <trkpt lat="45.72401" lon="5.9291">
        <ele>306</ele>
        <time>2021-12-28T07:10:14Z</time>
      </trkpt>
      <trkpt lat="45.72419" lon="5.92984">
        <ele>305</ele>
        <time>2021-12-28T07:10:23Z</time>
      </trkpt>
      <trkpt lat="45.72438" lon="5.93042">
        <ele>309</ele>
        <time>2021-12-28T07:10:31Z</time>
      </trkpt>
      <trkpt lat="45.72472" lon="5.9311">
        <ele>311</ele>
        <time>2021-12-28T07:10:42Z</time>
      </trkpt>
      <trkpt lat="45.72479" lon="5.93127">
        <ele>311</ele>
        <time>2021-12-28T07:10:44Z</time>
      </trkpt>
      <trkpt lat="45.72485" lon="5.93149">
        <ele>312</ele>
        <time>2021-12-28T07:10:47Z</time>
      </trkpt>
      <trkpt lat="45.7249" lon="5.93203">
        <ele>313</ele>
        <time>2021-12-28T07:10:54Z</time>
      </trkpt>
      <trkpt lat="45.72489" lon="5.93259">
        <ele>316</ele>
        <time>2021-12-28T07:11:01Z</time>
      </trkpt>
      <trkpt lat="45.72492" lon="5.93288">
        <ele>315</ele>
        <time>2021-12-28T07:11:05Z</time>
      </trkpt>
      <trkpt lat="45.72495" lon="5.93304">
        <ele>314</ele>
        <time>2021-12-28T07:11:07Z</time>
      </trkpt>
      <trkpt lat="45.72503" lon="5.9333">
        <ele>313</ele>
        <time>2021-12-28T07:11:10Z</time>
      </trkpt>
      <trkpt lat="45.72515" lon="5.93357">
        <ele>313</ele>
        <time>2021-12-28T07:11:14Z</time>
      </trkpt>
      <trkpt lat="45.72524" lon="5.93371">
        <ele>313</ele>
        <time>2021-12-28T07:11:16Z</time>
      </trkpt>
      <trkpt lat="45.72545" lon="5.93398">
        <ele>313</ele>
        <time>2021-12-28T07:11:22Z</time>
      </trkpt>
      <trkpt lat="45.72558" lon="5.93413">
        <ele>312</ele>
        <time>2021-12-28T07:11:24Z</time>
      </trkpt>
      <trkpt lat="45.72578" lon="5.93437">
        <ele>313</ele>
        <time>2021-12-28T07:11:29Z</time>
      </trkpt>
      <trkpt lat="45.72588" lon="5.93459">
        <ele>315</ele>
        <time>2021-12-28T07:11:32Z</time>
      </trkpt>
      <trkpt lat="45.72591" lon="5.93472">
        <ele>316</ele>
        <time>2021-12-28T07:11:34Z</time>
      </trkpt>
      <trkpt lat="45.72593" lon="5.93492">
        <ele>318</ele>
        <time>2021-12-28T07:11:37Z</time>
      </trkpt>
      <trkpt lat="45.72593" lon="5.93551">
        <ele>324</ele>
        <time>2021-12-28T07:11:44Z</time>
      </trkpt>
      <trkpt lat="45.72597" lon="5.93576">
        <ele>328</ele>
        <time>2021-12-28T07:11:47Z</time>
      </trkpt>
      <trkpt lat="45.72614" lon="5.9363">
        <ele>335</ele>
        <time>2021-12-28T07:11:54Z</time>
      </trkpt>
      <trkpt lat="45.72661" lon="5.93747">
        <ele>333</ele>
        <time>2021-12-28T07:12:11Z</time>
      </trkpt>
      <trkpt lat="45.72667" lon="5.93763">
        <ele>333</ele>
        <time>2021-12-28T07:12:13Z</time>
      </trkpt>
      <trkpt lat="45.7267" lon="5.93787">
        <ele>334</ele>
        <time>2021-12-28T07:12:17Z</time>
      </trkpt>
      <trkpt lat="45.7267" lon="5.93804">
        <ele>335</ele>
        <time>2021-12-28T07:12:19Z</time>
      </trkpt>
      <trkpt lat="45.72666" lon="5.93831">
        <ele>335</ele>
        <time>2021-12-28T07:12:22Z</time>
      </trkpt>
      <trkpt lat="45.72648" lon="5.93905">
        <ele>341</ele>
        <time>2021-12-28T07:12:32Z</time>
      </trkpt>
      <trkpt lat="45.72646" lon="5.93933">
        <ele>342</ele>
        <time>2021-12-28T07:12:35Z</time>
      </trkpt>
      <trkpt lat="45.72647" lon="5.93954">
        <ele>341</ele>
        <time>2021-12-28T07:12:38Z</time>
      </trkpt>
      <trkpt lat="45.72652" lon="5.9398">
        <ele>340</ele>
        <time>2021-12-28T07:12:41Z</time>
      </trkpt>
      <trkpt lat="45.72705" lon="5.94178">
        <ele>352</ele>
        <time>2021-12-28T07:13:08Z</time>
      </trkpt>
      <trkpt lat="45.7271" lon="5.94204">
        <ele>353</ele>
        <time>2021-12-28T07:13:11Z</time>
      </trkpt>
      <trkpt lat="45.7271" lon="5.94228">
        <ele>352</ele>
        <time>2021-12-28T07:13:14Z</time>
      </trkpt>
      <trkpt lat="45.72704" lon="5.94271">
        <ele>349</ele>
        <time>2021-12-28T07:13:19Z</time>
      </trkpt>
      <trkpt lat="45.72692" lon="5.94326">
        <ele>346</ele>
        <time>2021-12-28T07:13:27Z</time>
      </trkpt>
      <trkpt lat="45.72689" lon="5.94349">
        <ele>347</ele>
        <time>2021-12-28T07:13:29Z</time>
      </trkpt>
      <trkpt lat="45.72689" lon="5.94372">
        <ele>349</ele>
        <time>2021-12-28T07:13:32Z</time>
      </trkpt>
      <trkpt lat="45.72707" lon="5.94432">
        <ele>359</ele>
        <time>2021-12-28T07:13:40Z</time>
      </trkpt>
      <trkpt lat="45.72711" lon="5.94455">
        <ele>360</ele>
        <time>2021-12-28T07:13:43Z</time>
      </trkpt>
      <trkpt lat="45.72713" lon="5.94498">
        <ele>359</ele>
        <time>2021-12-28T07:13:49Z</time>
      </trkpt>
      <trkpt lat="45.72707" lon="5.94561">
        <ele>355</ele>
        <time>2021-12-28T07:13:57Z</time>
      </trkpt>
      <trkpt lat="45.7271" lon="5.94585">
        <ele>354</ele>
        <time>2021-12-28T07:14:00Z</time>
      </trkpt>
      <trkpt lat="45.72715" lon="5.94596">
        <ele>354</ele>
        <time>2021-12-28T07:14:01Z</time>
      </trkpt>
      <trkpt lat="45.7273" lon="5.94616">
        <ele>355</ele>
        <time>2021-12-28T07:14:05Z</time>
      </trkpt>
      <trkpt lat="45.72772" lon="5.94646">
        <ele>363</ele>
        <time>2021-12-28T07:14:13Z</time>
      </trkpt>
      <trkpt lat="45.7279" lon="5.94666">
        <ele>368</ele>
        <time>2021-12-28T07:14:17Z</time>
      </trkpt>
      <trkpt lat="45.72816" lon="5.94732">
        <ele>365</ele>
        <time>2021-12-28T07:14:27Z</time>
      </trkpt>
      <trkpt lat="45.72831" lon="5.94765">
        <ele>360</ele>
        <time>2021-12-28T07:14:32Z</time>
      </trkpt>
      <trkpt lat="45.72839" lon="5.94778">
        <ele>361</ele>
        <time>2021-12-28T07:14:34Z</time>
      </trkpt>
      <trkpt lat="45.72854" lon="5.94794">
        <ele>364</ele>
        <time>2021-12-28T07:14:37Z</time>
      </trkpt>
      <trkpt lat="45.72887" lon="5.94813">
        <ele>370</ele>
        <time>2021-12-28T07:14:43Z</time>
      </trkpt>
      <trkpt lat="45.72905" lon="5.94832">
        <ele>367</ele>
        <time>2021-12-28T07:14:47Z</time>
      </trkpt>
      <trkpt lat="45.72921" lon="5.94856">
        <ele>367</ele>
        <time>2021-12-28T07:14:52Z</time>
      </trkpt>
      <trkpt lat="45.72937" lon="5.94893">
        <ele>367</ele>
        <time>2021-12-28T07:14:57Z</time>
      </trkpt>
      <trkpt lat="45.72942" lon="5.94913">
        <ele>364</ele>
        <time>2021-12-28T07:15:00Z</time>
      </trkpt>
      <trkpt lat="45.7295" lon="5.94962">
        <ele>367</ele>
        <time>2021-12-28T07:15:06Z</time>
      </trkpt>
      <trkpt lat="45.72956" lon="5.94986">
        <ele>367</ele>
        <time>2021-12-28T07:15:09Z</time>
      </trkpt>
      <trkpt lat="45.72963" lon="5.95001">
        <ele>367</ele>
        <time>2021-12-28T07:15:11Z</time>
      </trkpt>
      <trkpt lat="45.7298" lon="5.95023">
        <ele>366</ele>
        <time>2021-12-28T07:15:15Z</time>
      </trkpt>
      <trkpt lat="45.7299" lon="5.95029">
        <ele>364</ele>
        <time>2021-12-28T07:15:17Z</time>
      </trkpt>
      <trkpt lat="45.73011" lon="5.95032">
        <ele>366</ele>
        <time>2021-12-28T07:15:21Z</time>
      </trkpt>
      <trkpt lat="45.73025" lon="5.95039">
        <ele>370</ele>
        <time>2021-12-28T07:15:24Z</time>
      </trkpt>
      <trkpt lat="45.73034" lon="5.9505">
        <ele>370</ele>
        <time>2021-12-28T07:15:26Z</time>
      </trkpt>
      <trkpt lat="45.73074" lon="5.95129">
        <ele>366</ele>
        <time>2021-12-28T07:15:38Z</time>
      </trkpt>
      <trkpt lat="45.73082" lon="5.95148">
        <ele>363</ele>
        <time>2021-12-28T07:15:41Z</time>
      </trkpt>
      <trkpt lat="45.73092" lon="5.95196">
        <ele>362</ele>
        <time>2021-12-28T07:15:47Z</time>
      </trkpt>
      <trkpt lat="45.73121" lon="5.95307">
        <ele>368</ele>
        <time>2021-12-28T07:16:02Z</time>
      </trkpt>
      <trkpt lat="45.73153" lon="5.95367">
        <ele>376</ele>
        <time>2021-12-28T07:16:11Z</time>
      </trkpt>
      <trkpt lat="45.73159" lon="5.95394">
        <ele>377</ele>
        <time>2021-12-28T07:16:14Z</time>
      </trkpt>
      <trkpt lat="45.73171" lon="5.95511">
        <ele>376</ele>
        <time>2021-12-28T07:16:29Z</time>
      </trkpt>
      <trkpt lat="45.73171" lon="5.95533">
        <ele>375</ele>
        <time>2021-12-28T07:16:32Z</time>
      </trkpt>
      <trkpt lat="45.73165" lon="5.95587">
        <ele>371</ele>
        <time>2021-12-28T07:16:39Z</time>
      </trkpt>
      <trkpt lat="45.73167" lon="5.95621">
        <ele>369</ele>
        <time>2021-12-28T07:16:43Z</time>
      </trkpt>
      <trkpt lat="45.73176" lon="5.95658">
        <ele>370</ele>
        <time>2021-12-28T07:16:48Z</time>
      </trkpt>
      <trkpt lat="45.73211" lon="5.95735">
        <ele>380</ele>
        <time>2021-12-28T07:16:59Z</time>
      </trkpt>
      <trkpt lat="45.73214" lon="5.95754">
        <ele>380</ele>
        <time>2021-12-28T07:17:02Z</time>
      </trkpt>
      <trkpt lat="45.73208" lon="5.95831">
        <ele>379</ele>
        <time>2021-12-28T07:17:11Z</time>
      </trkpt>
      <trkpt lat="45.732" lon="5.95881">
        <ele>374</ele>
        <time>2021-12-28T07:17:18Z</time>
      </trkpt>
      <trkpt lat="45.732" lon="5.95897">
        <ele>373</ele>
        <time>2021-12-28T07:17:20Z</time>
      </trkpt>
      <trkpt lat="45.73203" lon="5.9591">
        <ele>372</ele>
        <time>2021-12-28T07:17:21Z</time>
      </trkpt>
      <trkpt lat="45.73208" lon="5.95921">
        <ele>372</ele>
        <time>2021-12-28T07:17:23Z</time>
      </trkpt>
      <trkpt lat="45.73223" lon="5.95937">
        <ele>372</ele>
        <time>2021-12-28T07:17:26Z</time>
      </trkpt>
      <trkpt lat="45.73251" lon="5.95955">
        <ele>370</ele>
        <time>2021-12-28T07:17:32Z</time>
      </trkpt>
      <trkpt lat="45.73267" lon="5.95973">
        <ele>373</ele>
        <time>2021-12-28T07:17:35Z</time>
      </trkpt>
      <trkpt lat="45.73281" lon="5.95998">
        <ele>374</ele>
        <time>2021-12-28T07:17:39Z</time>
      </trkpt>
      <trkpt lat="45.7329" lon="5.96024">
        <ele>377</ele>
        <time>2021-12-28T07:17:43Z</time>
      </trkpt>
      <trkpt lat="45.73299" lon="5.96055">
        <ele>380</ele>
        <time>2021-12-28T07:17:47Z</time>
      </trkpt>
      <trkpt lat="45.73303" lon="5.96083">
        <ele>381</ele>
        <time>2021-12-28T07:17:51Z</time>
      </trkpt>
      <trkpt lat="45.73307" lon="5.96136">
        <ele>382</ele>
        <time>2021-12-28T07:17:57Z</time>
      </trkpt>
      <trkpt lat="45.7331" lon="5.96154">
        <ele>382</ele>
        <time>2021-12-28T07:18:00Z</time>
      </trkpt>
      <trkpt lat="45.73321" lon="5.96181">
        <ele>383</ele>
        <time>2021-12-28T07:18:03Z</time>
      </trkpt>
      <trkpt lat="45.73342" lon="5.96224">
        <ele>384</ele>
        <time>2021-12-28T07:18:10Z</time>
      </trkpt>
      <trkpt lat="45.73349" lon="5.96244">
        <ele>385</ele>
        <time>2021-12-28T07:18:13Z</time>
      </trkpt>
      <trkpt lat="45.73354" lon="5.96264">
        <ele>386</ele>
        <time>2021-12-28T07:18:15Z</time>
      </trkpt>
      <trkpt lat="45.73362" lon="5.96324">
        <ele>386</ele>
        <time>2021-12-28T07:18:23Z</time>
      </trkpt>
      <trkpt lat="45.73367" lon="5.96345">
        <ele>387</ele>
        <time>2021-12-28T07:18:26Z</time>
      </trkpt>
      <trkpt lat="45.73381" lon="5.96389">
        <ele>388</ele>
        <time>2021-12-28T07:18:32Z</time>
      </trkpt>
      <trkpt lat="45.73392" lon="5.96412">
        <ele>388</ele>
        <time>2021-12-28T07:18:35Z</time>
      </trkpt>
      <trkpt lat="45.73415" lon="5.96446">
        <ele>385</ele>
        <time>2021-12-28T07:18:41Z</time>
      </trkpt>
      <trkpt lat="45.73467" lon="5.9651">
        <ele>394</ele>
        <time>2021-12-28T07:18:53Z</time>
      </trkpt>
      <trkpt lat="45.7352" lon="5.96568">
        <ele>395</ele>
        <time>2021-12-28T07:19:05Z</time>
      </trkpt>
      <trkpt lat="45.73565" lon="5.96587">
        <ele>405</ele>
        <time>2021-12-28T07:19:13Z</time>
      </trkpt>
      <trkpt lat="45.73583" lon="5.96604">
        <ele>406</ele>
        <time>2021-12-28T07:19:17Z</time>
      </trkpt>
      <trkpt lat="45.73594" lon="5.9663">
        <ele>402</ele>
        <time>2021-12-28T07:19:21Z</time>
      </trkpt>
      <trkpt lat="45.73607" lon="5.96652">
        <ele>400</ele>
        <time>2021-12-28T07:19:25Z</time>
      </trkpt>
      <trkpt lat="45.73661" lon="5.96718">
        <ele>402</ele>
        <time>2021-12-28T07:19:37Z</time>
      </trkpt>
      <trkpt lat="45.73692" lon="5.96764">
        <ele>399</ele>
        <time>2021-12-28T07:19:45Z</time>
      </trkpt>
      <trkpt lat="45.73714" lon="5.96778">
        <ele>401</ele>
        <time>2021-12-28T07:19:49Z</time>
      </trkpt>
      <trkpt lat="45.7373" lon="5.96776">
        <ele>403</ele>
        <time>2021-12-28T07:19:52Z</time>
      </trkpt>
      <trkpt lat="45.73749" lon="5.96769">
        <ele>406</ele>
        <time>2021-12-28T07:19:56Z</time>
      </trkpt>
      <trkpt lat="45.73759" lon="5.96767">
        <ele>409</ele>
        <time>2021-12-28T07:19:58Z</time>
      </trkpt>
      <trkpt lat="45.7377" lon="5.96769">
        <ele>411</ele>
        <time>2021-12-28T07:20:00Z</time>
      </trkpt>
      <trkpt lat="45.7378" lon="5.96774">
        <ele>413</ele>
        <time>2021-12-28T07:20:01Z</time>
      </trkpt>
      <trkpt lat="45.73789" lon="5.96783">
        <ele>413</ele>
        <time>2021-12-28T07:20:03Z</time>
      </trkpt>
      <trkpt lat="45.73833" lon="5.9685">
        <ele>406</ele>
        <time>2021-12-28T07:20:15Z</time>
      </trkpt>
      <trkpt lat="45.73851" lon="5.96866">
        <ele>408</ele>
        <time>2021-12-28T07:20:19Z</time>
      </trkpt>
      <trkpt lat="45.7386" lon="5.96871">
        <ele>409</ele>
        <time>2021-12-28T07:20:20Z</time>
      </trkpt>
      <trkpt lat="45.73907" lon="5.96876">
        <ele>412</ele>
        <time>2021-12-28T07:20:29Z</time>
      </trkpt>
      <trkpt lat="45.73941" lon="5.96892">
        <ele>413</ele>
        <time>2021-12-28T07:20:35Z</time>
      </trkpt>
      <trkpt lat="45.73976" lon="5.96905">
        <ele>414</ele>
        <time>2021-12-28T07:20:42Z</time>
      </trkpt>
      <trkpt lat="45.73994" lon="5.96915">
        <ele>413</ele>
        <time>2021-12-28T07:20:45Z</time>
      </trkpt>
      <trkpt lat="45.74008" lon="5.96933">
        <ele>415</ele>
        <time>2021-12-28T07:20:48Z</time>
      </trkpt>
      <trkpt lat="45.74033" lon="5.96974">
        <ele>416</ele>
        <time>2021-12-28T07:20:55Z</time>
      </trkpt>
      <trkpt lat="45.74073" lon="5.97019">
        <ele>416</ele>
        <time>2021-12-28T07:21:04Z</time>
      </trkpt>
      <trkpt lat="45.74078" lon="5.97031">
        <ele>415</ele>
        <time>2021-12-28T07:21:06Z</time>
      </trkpt>
      <trkpt lat="45.74078" lon="5.97047">
        <ele>414</ele>
        <time>2021-12-28T07:21:08Z</time>
      </trkpt>
      <trkpt lat="45.74062" lon="5.97113">
        <ele>412</ele>
        <time>2021-12-28T07:21:17Z</time>
      </trkpt>
      <trkpt lat="45.74061" lon="5.97132">
        <ele>412</ele>
        <time>2021-12-28T07:21:19Z</time>
      </trkpt>
      <trkpt lat="45.74063" lon="5.97141">
        <ele>411</ele>
        <time>2021-12-28T07:21:20Z</time>
      </trkpt>
      <trkpt lat="45.74081" lon="5.97193">
        <ele>408</ele>
        <time>2021-12-28T07:21:27Z</time>
      </trkpt>
      <trkpt lat="45.74092" lon="5.97219">
        <ele>410</ele>
        <time>2021-12-28T07:21:31Z</time>
      </trkpt>
      <trkpt lat="45.74133" lon="5.97309">
        <ele>418</ele>
        <time>2021-12-28T07:21:44Z</time>
      </trkpt>
      <trkpt lat="45.74143" lon="5.97335">
        <ele>417</ele>
        <time>2021-12-28T07:21:48Z</time>
      </trkpt>
      <trkpt lat="45.74218" lon="5.97519">
        <ele>415</ele>
        <time>2021-12-28T07:22:15Z</time>
      </trkpt>
      <trkpt lat="45.74229" lon="5.97535">
        <ele>417</ele>
        <time>2021-12-28T07:22:17Z</time>
      </trkpt>
      <trkpt lat="45.74241" lon="5.97547">
        <ele>418</ele>
        <time>2021-12-28T07:22:20Z</time>
      </trkpt>
      <trkpt lat="45.74273" lon="5.97573">
        <ele>423</ele>
        <time>2021-12-28T07:22:26Z</time>
      </trkpt>
      <trkpt lat="45.74281" lon="5.97585">
        <ele>425</ele>
        <time>2021-12-28T07:22:29Z</time>
      </trkpt>
      <trkpt lat="45.74296" lon="5.97633">
        <ele>431</ele>
        <time>2021-12-28T07:22:35Z</time>
      </trkpt>
      <trkpt lat="45.74302" lon="5.97648">
        <ele>433</ele>
        <time>2021-12-28T07:22:37Z</time>
      </trkpt>
      <trkpt lat="45.74361" lon="5.97715">
        <ele>439</ele>
        <time>2021-12-28T07:22:51Z</time>
      </trkpt>
      <trkpt lat="45.74377" lon="5.97748">
        <ele>438</ele>
        <time>2021-12-28T07:22:56Z</time>
      </trkpt>
      <trkpt lat="45.74386" lon="5.97776">
        <ele>440</ele>
        <time>2021-12-28T07:22:59Z</time>
      </trkpt>
      <trkpt lat="45.74389" lon="5.97798">
        <ele>441</ele>
        <time>2021-12-28T07:23:02Z</time>
      </trkpt>
      <trkpt lat="45.74394" lon="5.97908">
        <ele>454</ele>
        <time>2021-12-28T07:23:16Z</time>
      </trkpt>
      <trkpt lat="45.74397" lon="5.9794">
        <ele>456</ele>
        <time>2021-12-28T07:23:20Z</time>
      </trkpt>
      <trkpt lat="45.74399" lon="5.97954">
        <ele>456</ele>
        <time>2021-12-28T07:23:22Z</time>
      </trkpt>
      <trkpt lat="45.74405" lon="5.97967">
        <ele>455</ele>
        <time>2021-12-28T07:23:24Z</time>
      </trkpt>
      <trkpt lat="45.74421" lon="5.97974">
        <ele>454</ele>
        <time>2021-12-28T07:23:27Z</time>
      </trkpt>
      <trkpt lat="45.74435" lon="5.9798">
        <ele>455</ele>
        <time>2021-12-28T07:23:29Z</time>
      </trkpt>
      <trkpt lat="45.74459" lon="5.97991">
        <ele>458</ele>
        <time>2021-12-28T07:23:34Z</time>
      </trkpt>
      <trkpt lat="45.74468" lon="5.98">
        <ele>458</ele>
        <time>2021-12-28T07:23:36Z</time>
      </trkpt>
      <trkpt lat="45.74479" lon="5.98025">
        <ele>458</ele>
        <time>2021-12-28T07:23:39Z</time>
      </trkpt>
      <trkpt lat="45.74536" lon="5.98192">
        <ele>460</ele>
        <time>2021-12-28T07:24:02Z</time>
      </trkpt>
      <trkpt lat="45.74562" lon="5.98261">
        <ele>460</ele>
        <time>2021-12-28T07:24:12Z</time>
      </trkpt>
      <trkpt lat="45.74601" lon="5.98339">
        <ele>463</ele>
        <time>2021-12-28T07:24:24Z</time>
      </trkpt>
      <trkpt lat="45.74608" lon="5.98356">
        <ele>464</ele>
        <time>2021-12-28T07:24:26Z</time>
      </trkpt>
      <trkpt lat="45.74617" lon="5.98394">
        <ele>465</ele>
        <time>2021-12-28T07:24:31Z</time>
      </trkpt>
      <trkpt lat="45.74634" lon="5.98501">
        <ele>469</ele>
        <time>2021-12-28T07:24:45Z</time>
      </trkpt>
      <trkpt lat="45.7464" lon="5.98526">
        <ele>470</ele>
        <time>2021-12-28T07:24:48Z</time>
      </trkpt>
      <trkpt lat="45.74647" lon="5.98545">
        <ele>471</ele>
        <time>2021-12-28T07:24:51Z</time>
      </trkpt>
      <trkpt lat="45.74662" lon="5.98576">
        <ele>473</ele>
        <time>2021-12-28T07:24:56Z</time>
      </trkpt>
      <trkpt lat="45.74804" lon="5.98833">
        <ele>489</ele>
        <time>2021-12-28T07:25:36Z</time>
      </trkpt>
      <trkpt lat="45.74816" lon="5.98869">
        <ele>492</ele>
        <time>2021-12-28T07:25:41Z</time>
      </trkpt>
      <trkpt lat="45.74831" lon="5.98942">
        <ele>496</ele>
        <time>2021-12-28T07:25:51Z</time>
      </trkpt>
      <trkpt lat="45.74846" lon="5.99028">
        <ele>501</ele>
        <time>2021-12-28T07:26:02Z</time>
      </trkpt>
      <trkpt lat="45.74855" lon="5.99052">
        <ele>502</ele>
        <time>2021-12-28T07:26:05Z</time>
      </trkpt>
      <trkpt lat="45.74869" lon="5.9908">
        <ele>502</ele>
        <time>2021-12-28T07:26:09Z</time>
      </trkpt>
      <trkpt lat="45.74936" lon="5.99184">
        <ele>505</ele>
        <time>2021-12-28T07:26:27Z</time>
      </trkpt>
      <trkpt lat="45.7494" lon="5.99194">
        <ele>505</ele>
        <time>2021-12-28T07:26:29Z</time>
      </trkpt>
      <trkpt lat="45.74973" lon="5.99244">
        <ele>506</ele>
        <time>2021-12-28T07:26:37Z</time>
      </trkpt>
      <trkpt lat="45.74979" lon="5.9925">
        <ele>506</ele>
        <time>2021-12-28T07:26:38Z</time>
      </trkpt>
      <trkpt lat="45.74999" lon="5.99285">
        <ele>507</ele>
        <time>2021-12-28T07:26:44Z</time>
      </trkpt>
      <trkpt lat="45.75008" lon="5.99304">
        <ele>508</ele>
        <time>2021-12-28T07:26:47Z</time>
      </trkpt>
      <trkpt lat="45.75088" lon="5.99514">
        <ele>514</ele>
        <time>2021-12-28T07:27:17Z</time>
      </trkpt>
      <trkpt lat="45.75094" lon="5.99536">
        <ele>515</ele>
        <time>2021-12-28T07:27:19Z</time>
      </trkpt>
      <trkpt lat="45.75099" lon="5.99559">
        <ele>515</ele>
        <time>2021-12-28T07:27:22Z</time>
      </trkpt>
      <trkpt lat="45.75113" lon="5.99713">
        <ele>519</ele>
        <time>2021-12-28T07:27:42Z</time>
      </trkpt>
      <trkpt lat="45.75117" lon="5.99736">
        <ele>519</ele>
        <time>2021-12-28T07:27:45Z</time>
      </trkpt>
      <trkpt lat="45.75124" lon="5.99759">
        <ele>520</ele>
        <time>2021-12-28T07:27:48Z</time>
      </trkpt>
      <trkpt lat="45.75141" lon="5.99799">
        <ele>521</ele>
        <time>2021-12-28T07:27:54Z</time>
      </trkpt>
      <trkpt lat="45.75166" lon="5.99835">
        <ele>521</ele>
        <time>2021-12-28T07:28:00Z</time>
      </trkpt>
      <trkpt lat="45.75315" lon="6.00029">
        <ele>532</ele>
        <time>2021-12-28T07:28:36Z</time>
      </trkpt>
      <trkpt lat="45.75351" lon="6.00074">
        <ele>533</ele>
        <time>2021-12-28T07:28:44Z</time>
      </trkpt>
      <trkpt lat="45.75667" lon="6.00412">
        <ele>534</ele>
        <time>2021-12-28T07:29:54Z</time>
      </trkpt>
      <trkpt lat="45.75687" lon="6.00444">
        <ele>537</ele>
        <time>2021-12-28T07:30:00Z</time>
      </trkpt>
      <trkpt lat="45.75715" lon="6.005">
        <ele>539</ele>
        <time>2021-12-28T07:30:08Z</time>
      </trkpt>
      <trkpt lat="45.75736" lon="6.00551">
        <ele>538</ele>
        <time>2021-12-28T07:30:16Z</time>
      </trkpt>
      <trkpt lat="45.75929" lon="6.01157">
        <ele>536</ele>
        <time>2021-12-28T07:31:38Z</time>
      </trkpt>
      <trkpt lat="45.76018" lon="6.01477">
        <ele>535</ele>
        <time>2021-12-28T07:32:21Z</time>
      </trkpt>
      <trkpt lat="45.76186" lon="6.02177">
        <ele>545</ele>
        <time>2021-12-28T07:33:53Z</time>
      </trkpt>
      <trkpt lat="45.76193" lon="6.02231">
        <ele>549</ele>
        <time>2021-12-28T07:34:00Z</time>
      </trkpt>
      <trkpt lat="45.76201" lon="6.02256">
        <ele>550</ele>
        <time>2021-12-28T07:34:03Z</time>
      </trkpt>
      <trkpt lat="45.76204" lon="6.02284">
        <ele>550</ele>
        <time>2021-12-28T07:34:07Z</time>
      </trkpt>
      <trkpt lat="45.76204" lon="6.02319">
        <ele>550</ele>
        <time>2021-12-28T07:34:11Z</time>
      </trkpt>
      <trkpt lat="45.76201" lon="6.02385">
        <ele>552</ele>
        <time>2021-12-28T07:34:19Z</time>
      </trkpt>
      <trkpt lat="45.76199" lon="6.02465">
        <ele>554</ele>
        <time>2021-12-28T07:34:29Z</time>
      </trkpt>
      <trkpt lat="45.762" lon="6.02483">
        <ele>555</ele>
        <time>2021-12-28T07:34:31Z</time>
      </trkpt>
      <trkpt lat="45.76203" lon="6.025">
        <ele>555</ele>
        <time>2021-12-28T07:34:34Z</time>
      </trkpt>
      <trkpt lat="45.76216" lon="6.02551">
        <ele>555</ele>
        <time>2021-12-28T07:34:40Z</time>
      </trkpt>
      <trkpt lat="45.76233" lon="6.02596">
        <ele>554</ele>
        <time>2021-12-28T07:34:47Z</time>
      </trkpt>
      <trkpt lat="45.76272" lon="6.0268">
        <ele>554</ele>
        <time>2021-12-28T07:34:59Z</time>
      </trkpt>
      <trkpt lat="45.76305" lon="6.0274">
        <ele>553</ele>
        <time>2021-12-28T07:35:09Z</time>
      </trkpt>
      <trkpt lat="45.76352" lon="6.02809">
        <ele>552</ele>
        <time>2021-12-28T07:35:21Z</time>
      </trkpt>
      <trkpt lat="45.76487" lon="6.02982">
        <ele>552</ele>
        <time>2021-12-28T07:35:53Z</time>
      </trkpt>
      <trkpt lat="45.76495" lon="6.02994">
        <ele>551</ele>
        <time>2021-12-28T07:35:55Z</time>
      </trkpt>
      <trkpt lat="45.76501" lon="6.03013">
        <ele>551</ele>
        <time>2021-12-28T07:35:58Z</time>
      </trkpt>
      <trkpt lat="45.76502" lon="6.03026">
        <ele>551</ele>
        <time>2021-12-28T07:35:59Z</time>
      </trkpt>
      <trkpt lat="45.76502" lon="6.03041">
        <ele>550</ele>
        <time>2021-12-28T07:36:01Z</time>
      </trkpt>
      <trkpt lat="45.76485" lon="6.03093">
        <ele>551</ele>
        <time>2021-12-28T07:36:08Z</time>
      </trkpt>
      <trkpt lat="45.7648" lon="6.03147">
        <ele>553</ele>
        <time>2021-12-28T07:36:15Z</time>
      </trkpt>
      <trkpt lat="45.76483" lon="6.03172">
        <ele>553</ele>
        <time>2021-12-28T07:36:18Z</time>
      </trkpt>
      <trkpt lat="45.76494" lon="6.03514">
        <ele>567</ele>
        <time>2021-12-28T07:37:01Z</time>
      </trkpt>
      <trkpt lat="45.76513" lon="6.03643">
        <ele>569</ele>
        <time>2021-12-28T07:37:17Z</time>
      </trkpt>
      <trkpt lat="45.76517" lon="6.03709">
        <ele>571</ele>
        <time>2021-12-28T07:37:25Z</time>
      </trkpt>
      <trkpt lat="45.76518" lon="6.03789">
        <ele>575</ele>
        <time>2021-12-28T07:37:35Z</time>
      </trkpt>
      <trkpt lat="45.76522" lon="6.03851">
        <ele>578</ele>
        <time>2021-12-28T07:37:43Z</time>
      </trkpt>
      <trkpt lat="45.76532" lon="6.03936">
        <ele>578</ele>
        <time>2021-12-28T07:37:54Z</time>
      </trkpt>
      <trkpt lat="45.76511" lon="6.04059">
        <ele>583</ele>
        <time>2021-12-28T07:38:09Z</time>
      </trkpt>
      <trkpt lat="45.76483" lon="6.04201">
        <ele>584</ele>
        <time>2021-12-28T07:38:28Z</time>
      </trkpt>
      <trkpt lat="45.76468" lon="6.04248">
        <ele>585</ele>
        <time>2021-12-28T07:38:34Z</time>
      </trkpt>
      <trkpt lat="45.76456" lon="6.04281">
        <ele>587</ele>
        <time>2021-12-28T07:38:39Z</time>
      </trkpt>
      <trkpt lat="45.76435" lon="6.04353">
        <ele>589</ele>
        <time>2021-12-28T07:38:48Z</time>
      </trkpt>
      <trkpt lat="45.76418" lon="6.04416">
        <ele>591</ele>
        <time>2021-12-28T07:38:57Z</time>
      </trkpt>
      <trkpt lat="45.76403" lon="6.04489">
        <ele>593</ele>
        <time>2021-12-28T07:39:06Z</time>
      </trkpt>
      <trkpt lat="45.76397" lon="6.04539">
        <ele>595</ele>
        <time>2021-12-28T07:39:12Z</time>
      </trkpt>
      <trkpt lat="45.76396" lon="6.04558">
        <ele>595</ele>
        <time>2021-12-28T07:39:15Z</time>
      </trkpt>
      <trkpt lat="45.76401" lon="6.04693">
        <ele>593</ele>
        <time>2021-12-28T07:39:32Z</time>
      </trkpt>
      <trkpt lat="45.764" lon="6.04713">
        <ele>593</ele>
        <time>2021-12-28T07:39:34Z</time>
      </trkpt>
      <trkpt lat="45.76397" lon="6.04735">
        <ele>593</ele>
        <time>2021-12-28T07:39:37Z</time>
      </trkpt>
      <trkpt lat="45.76379" lon="6.04801">
        <ele>595</ele>
        <time>2021-12-28T07:39:46Z</time>
      </trkpt>
      <trkpt lat="45.76376" lon="6.04812">
        <ele>596</ele>
        <time>2021-12-28T07:39:47Z</time>
      </trkpt>
      <trkpt lat="45.76354" lon="6.04893">
        <ele>595</ele>
        <time>2021-12-28T07:39:58Z</time>
      </trkpt>
      <trkpt lat="45.76346" lon="6.04916">
        <ele>595</ele>
        <time>2021-12-28T07:40:01Z</time>
      </trkpt>
      <trkpt lat="45.76327" lon="6.04962">
        <ele>597</ele>
        <time>2021-12-28T07:40:08Z</time>
      </trkpt>
      <trkpt lat="45.76303" lon="6.05068">
        <ele>600</ele>
        <time>2021-12-28T07:40:22Z</time>
      </trkpt>
      <trkpt lat="45.76297" lon="6.05089">
        <ele>601</ele>
        <time>2021-12-28T07:40:24Z</time>
      </trkpt>
      <trkpt lat="45.76256" lon="6.05195">
        <ele>605</ele>
        <time>2021-12-28T07:40:39Z</time>
      </trkpt>
      <trkpt lat="45.76231" lon="6.05251">
        <ele>607</ele>
        <time>2021-12-28T07:40:48Z</time>
      </trkpt>
      <trkpt lat="45.76215" lon="6.05273">
        <ele>607</ele>
        <time>2021-12-28T07:40:52Z</time>
      </trkpt>
      <trkpt lat="45.76205" lon="6.05282">
        <ele>607</ele>
        <time>2021-12-28T07:40:54Z</time>
      </trkpt>
      <trkpt lat="45.76132" lon="6.05346">
        <ele>616</ele>
        <time>2021-12-28T07:41:09Z</time>
      </trkpt>
      <trkpt lat="45.7612" lon="6.05367">
        <ele>618</ele>
        <time>2021-12-28T07:41:12Z</time>
      </trkpt>
      <trkpt lat="45.76113" lon="6.05383">
        <ele>618</ele>
        <time>2021-12-28T07:41:15Z</time>
      </trkpt>
      <trkpt lat="45.76091" lon="6.05451">
        <ele>616</ele>
        <time>2021-12-28T07:41:24Z</time>
      </trkpt>
      <trkpt lat="45.76066" lon="6.05511">
        <ele>615</ele>
        <time>2021-12-28T07:41:33Z</time>
      </trkpt>
      <trkpt lat="45.76055" lon="6.05532">
        <ele>614</ele>
        <time>2021-12-28T07:41:36Z</time>
      </trkpt>
      <trkpt lat="45.76042" lon="6.05551">
        <ele>612</ele>
        <time>2021-12-28T07:41:39Z</time>
      </trkpt>
      <trkpt lat="45.76036" lon="6.05557">
        <ele>612</ele>
        <time>2021-12-28T07:41:40Z</time>
      </trkpt>
      <trkpt lat="45.7602" lon="6.05562">
        <ele>614</ele>
        <time>2021-12-28T07:41:43Z</time>
      </trkpt>
      <trkpt lat="45.76007" lon="6.05562">
        <ele>616</ele>
        <time>2021-12-28T07:41:46Z</time>
      </trkpt>
      <trkpt lat="45.75985" lon="6.05557">
        <ele>622</ele>
        <time>2021-12-28T07:41:50Z</time>
      </trkpt>
      <trkpt lat="45.75972" lon="6.05557">
        <ele>625</ele>
        <time>2021-12-28T07:41:52Z</time>
      </trkpt>
      <trkpt lat="45.75953" lon="6.05567">
        <ele>627</ele>
        <time>2021-12-28T07:41:56Z</time>
      </trkpt>
      <trkpt lat="45.75944" lon="6.05576">
        <ele>628</ele>
        <time>2021-12-28T07:41:58Z</time>
      </trkpt>
      <trkpt lat="45.75937" lon="6.05585">
        <ele>628</ele>
        <time>2021-12-28T07:41:59Z</time>
      </trkpt>
      <trkpt lat="45.75931" lon="6.056">
        <ele>628</ele>
        <time>2021-12-28T07:42:01Z</time>
      </trkpt>
      <trkpt lat="45.75926" lon="6.05652">
        <ele>622</ele>
        <time>2021-12-28T07:42:08Z</time>
      </trkpt>
      <trkpt lat="45.75908" lon="6.05708">
        <ele>622</ele>
        <time>2021-12-28T07:42:16Z</time>
      </trkpt>
      <trkpt lat="45.75887" lon="6.05781">
        <ele>622</ele>
        <time>2021-12-28T07:42:25Z</time>
      </trkpt>
      <trkpt lat="45.75881" lon="6.05792">
        <ele>623</ele>
        <time>2021-12-28T07:42:27Z</time>
      </trkpt>
      <trkpt lat="45.75869" lon="6.05801">
        <ele>623</ele>
        <time>2021-12-28T07:42:29Z</time>
      </trkpt>
      <trkpt lat="45.75863" lon="6.05804">
        <ele>623</ele>
        <time>2021-12-28T07:42:31Z</time>
      </trkpt>
      <trkpt lat="45.75751" lon="6.05824">
        <ele>621</ele>
        <time>2021-12-28T07:42:51Z</time>
      </trkpt>
      <trkpt lat="45.75739" lon="6.0583">
        <ele>620</ele>
        <time>2021-12-28T07:42:53Z</time>
      </trkpt>
      <trkpt lat="45.75719" lon="6.05844">
        <ele>620</ele>
        <time>2021-12-28T07:42:57Z</time>
      </trkpt>
      <trkpt lat="45.75711" lon="6.05853">
        <ele>620</ele>
        <time>2021-12-28T07:42:59Z</time>
      </trkpt>
      <trkpt lat="45.75634" lon="6.05961">
        <ele>614</ele>
        <time>2021-12-28T07:43:18Z</time>
      </trkpt>
      <trkpt lat="45.75612" lon="6.05983">
        <ele>612</ele>
        <time>2021-12-28T07:43:23Z</time>
      </trkpt>
      <trkpt lat="45.75598" lon="6.05993">
        <ele>611</ele>
        <time>2021-12-28T07:43:25Z</time>
      </trkpt>
      <trkpt lat="45.7558" lon="6.06002">
        <ele>610</ele>
        <time>2021-12-28T07:43:29Z</time>
      </trkpt>
      <trkpt lat="45.75491" lon="6.06032">
        <ele>614</ele>
        <time>2021-12-28T07:43:45Z</time>
      </trkpt>
      <trkpt lat="45.75477" lon="6.06039">
        <ele>616</ele>
        <time>2021-12-28T07:43:48Z</time>
      </trkpt>
      <trkpt lat="45.75462" lon="6.06051">
        <ele>618</ele>
        <time>2021-12-28T07:43:51Z</time>
      </trkpt>
      <trkpt lat="45.75427" lon="6.06098">
        <ele>617</ele>
        <time>2021-12-28T07:43:59Z</time>
      </trkpt>
      <trkpt lat="45.75405" lon="6.06124">
        <ele>614</ele>
        <time>2021-12-28T07:44:04Z</time>
      </trkpt>
      <trkpt lat="45.75388" lon="6.06137">
        <ele>613</ele>
        <time>2021-12-28T07:44:08Z</time>
      </trkpt>
      <trkpt lat="45.7536" lon="6.06145">
        <ele>613</ele>
        <time>2021-12-28T07:44:13Z</time>
      </trkpt>
      <trkpt lat="45.75292" lon="6.06161">
        <ele>630</ele>
        <time>2021-12-28T07:44:25Z</time>
      </trkpt>
      <trkpt lat="45.75283" lon="6.06165">
        <ele>633</ele>
        <time>2021-12-28T07:44:27Z</time>
      </trkpt>
      <trkpt lat="45.75274" lon="6.06173">
        <ele>634</ele>
        <time>2021-12-28T07:44:29Z</time>
      </trkpt>
      <trkpt lat="45.75268" lon="6.06184">
        <ele>633</ele>
        <time>2021-12-28T07:44:30Z</time>
      </trkpt>
      <trkpt lat="45.75256" lon="6.06236">
        <ele>622</ele>
        <time>2021-12-28T07:44:37Z</time>
      </trkpt>
      <trkpt lat="45.75243" lon="6.06283">
        <ele>616</ele>
        <time>2021-12-28T07:44:44Z</time>
      </trkpt>
      <trkpt lat="45.75232" lon="6.06311">
        <ele>614</ele>
        <time>2021-12-28T07:44:48Z</time>
      </trkpt>
      <trkpt lat="45.75217" lon="6.06338">
        <ele>613</ele>
        <time>2021-12-28T07:44:52Z</time>
      </trkpt>
      <trkpt lat="45.75181" lon="6.06391">
        <ele>612</ele>
        <time>2021-12-28T07:45:01Z</time>
      </trkpt>
      <trkpt lat="45.75102" lon="6.06482">
        <ele>616</ele>
        <time>2021-12-28T07:45:19Z</time>
      </trkpt>
      <trkpt lat="45.75087" lon="6.06504">
        <ele>615</ele>
        <time>2021-12-28T07:45:23Z</time>
      </trkpt>
      <trkpt lat="45.75067" lon="6.06553">
        <ele>615</ele>
        <time>2021-12-28T07:45:30Z</time>
      </trkpt>
      <trkpt lat="45.75021" lon="6.06684">
        <ele>614</ele>
        <time>2021-12-28T07:45:48Z</time>
      </trkpt>
      <trkpt lat="45.75013" lon="6.06698">
        <ele>614</ele>
        <time>2021-12-28T07:45:50Z</time>
      </trkpt>
      <trkpt lat="45.74978" lon="6.06735">
        <ele>617</ele>
        <time>2021-12-28T07:45:58Z</time>
      </trkpt>
      <trkpt lat="45.74969" lon="6.06748">
        <ele>618</ele>
        <time>2021-12-28T07:46:00Z</time>
      </trkpt>
      <trkpt lat="45.74952" lon="6.06784">
        <ele>617</ele>
        <time>2021-12-28T07:46:06Z</time>
      </trkpt>
      <trkpt lat="45.74941" lon="6.06811">
        <ele>617</ele>
        <time>2021-12-28T07:46:10Z</time>
      </trkpt>
      <trkpt lat="45.74916" lon="6.06912">
        <ele>614</ele>
        <time>2021-12-28T07:46:23Z</time>
      </trkpt>
      <trkpt lat="45.74908" lon="6.06967">
        <ele>612</ele>
        <time>2021-12-28T07:46:30Z</time>
      </trkpt>
      <trkpt lat="45.74899" lon="6.07007">
        <ele>611</ele>
        <time>2021-12-28T07:46:35Z</time>
      </trkpt>
      <trkpt lat="45.74873" lon="6.07061">
        <ele>613</ele>
        <time>2021-12-28T07:46:43Z</time>
      </trkpt>
      <trkpt lat="45.74858" lon="6.07099">
        <ele>613</ele>
        <time>2021-12-28T07:46:49Z</time>
      </trkpt>
      <trkpt lat="45.74849" lon="6.07126">
        <ele>612</ele>
        <time>2021-12-28T07:46:52Z</time>
      </trkpt>
      <trkpt lat="45.74835" lon="6.07153">
        <ele>612</ele>
        <time>2021-12-28T07:46:57Z</time>
      </trkpt>
      <trkpt lat="45.74824" lon="6.0717">
        <ele>614</ele>
        <time>2021-12-28T07:46:59Z</time>
      </trkpt>
      <trkpt lat="45.74811" lon="6.07194">
        <ele>617</ele>
        <time>2021-12-28T07:47:03Z</time>
      </trkpt>
      <trkpt lat="45.74808" lon="6.07204">
        <ele>618</ele>
        <time>2021-12-28T07:47:05Z</time>
      </trkpt>
      <trkpt lat="45.74806" lon="6.07225">
        <ele>616</ele>
        <time>2021-12-28T07:47:07Z</time>
      </trkpt>
      <trkpt lat="45.74818" lon="6.07323">
        <ele>608</ele>
        <time>2021-12-28T07:47:20Z</time>
      </trkpt>
      <trkpt lat="45.74819" lon="6.07349">
        <ele>606</ele>
        <time>2021-12-28T07:47:23Z</time>
      </trkpt>
      <trkpt lat="45.74816" lon="6.07372">
        <ele>605</ele>
        <time>2021-12-28T07:47:26Z</time>
      </trkpt>
      <trkpt lat="45.74812" lon="6.07388">
        <ele>605</ele>
        <time>2021-12-28T07:47:28Z</time>
      </trkpt>
      <trkpt lat="45.74787" lon="6.07445">
        <ele>607</ele>
        <time>2021-12-28T07:47:36Z</time>
      </trkpt>
      <trkpt lat="45.74769" lon="6.07498">
        <ele>607</ele>
        <time>2021-12-28T07:47:44Z</time>
      </trkpt>
      <trkpt lat="45.74735" lon="6.07669">
        <ele>604</ele>
        <time>2021-12-28T07:48:06Z</time>
      </trkpt>
      <trkpt lat="45.74711" lon="6.07732">
        <ele>605</ele>
        <time>2021-12-28T07:48:15Z</time>
      </trkpt>
      <trkpt lat="45.74706" lon="6.07756">
        <ele>604</ele>
        <time>2021-12-28T07:48:18Z</time>
      </trkpt>
      <trkpt lat="45.74704" lon="6.07777">
        <ele>603</ele>
        <time>2021-12-28T07:48:20Z</time>
      </trkpt>
      <trkpt lat="45.74703" lon="6.0781">
        <ele>601</ele>
        <time>2021-12-28T07:48:24Z</time>
      </trkpt>
      <trkpt lat="45.74706" lon="6.07902">
        <ele>594</ele>
        <time>2021-12-28T07:48:36Z</time>
      </trkpt>
      <trkpt lat="45.74703" lon="6.07932">
        <ele>594</ele>
        <time>2021-12-28T07:48:40Z</time>
      </trkpt>
      <trkpt lat="45.74684" lon="6.08003">
        <ele>597</ele>
        <time>2021-12-28T07:48:49Z</time>
      </trkpt>
      <trkpt lat="45.74681" lon="6.08021">
        <ele>598</ele>
        <time>2021-12-28T07:48:51Z</time>
      </trkpt>
      <trkpt lat="45.7468" lon="6.08046">
        <ele>597</ele>
        <time>2021-12-28T07:48:54Z</time>
      </trkpt>
      <trkpt lat="45.74683" lon="6.08097">
        <ele>593</ele>
        <time>2021-12-28T07:49:01Z</time>
      </trkpt>
      <trkpt lat="45.7468" lon="6.08118">
        <ele>593</ele>
        <time>2021-12-28T07:49:03Z</time>
      </trkpt>
      <trkpt lat="45.74674" lon="6.08136">
        <ele>594</ele>
        <time>2021-12-28T07:49:06Z</time>
      </trkpt>
      <trkpt lat="45.74662" lon="6.08164">
        <ele>597</ele>
        <time>2021-12-28T07:49:10Z</time>
      </trkpt>
      <trkpt lat="45.74654" lon="6.08196">
        <ele>598</ele>
        <time>2021-12-28T07:49:14Z</time>
      </trkpt>
      <trkpt lat="45.74649" lon="6.08227">
        <ele>597</ele>
        <time>2021-12-28T07:49:18Z</time>
      </trkpt>
      <trkpt lat="45.74649" lon="6.08253">
        <ele>594</ele>
        <time>2021-12-28T07:49:21Z</time>
      </trkpt>
      <trkpt lat="45.74653" lon="6.08285">
        <ele>588</ele>
        <time>2021-12-28T07:49:25Z</time>
      </trkpt>
      <trkpt lat="45.74643" lon="6.08421">
        <ele>582</ele>
        <time>2021-12-28T07:49:42Z</time>
      </trkpt>
      <trkpt lat="45.74638" lon="6.08448">
        <ele>582</ele>
        <time>2021-12-28T07:49:46Z</time>
      </trkpt>
      <trkpt lat="45.7462" lon="6.08499">
        <ele>587</ele>
        <time>2021-12-28T07:49:53Z</time>
      </trkpt>
      <trkpt lat="45.74617" lon="6.08517">
        <ele>587</ele>
        <time>2021-12-28T07:49:55Z</time>
      </trkpt>
      <trkpt lat="45.74617" lon="6.08601">
        <ele>585</ele>
        <time>2021-12-28T07:50:06Z</time>
      </trkpt>
      <trkpt lat="45.74621" lon="6.08627">
        <ele>583</ele>
        <time>2021-12-28T07:50:09Z</time>
      </trkpt>
      <trkpt lat="45.74628" lon="6.08659">
        <ele>580</ele>
        <time>2021-12-28T07:50:13Z</time>
      </trkpt>
      <trkpt lat="45.74637" lon="6.08688">
        <ele>576</ele>
        <time>2021-12-28T07:50:17Z</time>
      </trkpt>
      <trkpt lat="45.74644" lon="6.08752">
        <ele>573</ele>
        <time>2021-12-28T07:50:25Z</time>
      </trkpt>
      <trkpt lat="45.74645" lon="6.08807">
        <ele>571</ele>
        <time>2021-12-28T07:50:32Z</time>
      </trkpt>
      <trkpt lat="45.7464" lon="6.08835">
        <ele>572</ele>
        <time>2021-12-28T07:50:36Z</time>
      </trkpt>
      <trkpt lat="45.74617" lon="6.08914">
        <ele>579</ele>
        <time>2021-12-28T07:50:46Z</time>
      </trkpt>
      <trkpt lat="45.74597" lon="6.09021">
        <ele>581</ele>
        <time>2021-12-28T07:51:00Z</time>
      </trkpt>
      <trkpt lat="45.7457" lon="6.09136">
        <ele>576</ele>
        <time>2021-12-28T07:51:15Z</time>
      </trkpt>
      <trkpt lat="45.74546" lon="6.09212">
        <ele>576</ele>
        <time>2021-12-28T07:51:25Z</time>
      </trkpt>
      <trkpt lat="45.74525" lon="6.09255">
        <ele>573</ele>
        <time>2021-12-28T07:51:32Z</time>
      </trkpt>
      <trkpt lat="45.74481" lon="6.09319">
        <ele>574</ele>
        <time>2021-12-28T07:51:43Z</time>
      </trkpt>
      <trkpt lat="45.74474" lon="6.09334">
        <ele>572</ele>
        <time>2021-12-28T07:51:45Z</time>
      </trkpt>
      <trkpt lat="45.74471" lon="6.09346">
        <ele>571</ele>
        <time>2021-12-28T07:51:47Z</time>
      </trkpt>
      <trkpt lat="45.74467" lon="6.09371">
        <ele>568</ele>
        <time>2021-12-28T07:51:50Z</time>
      </trkpt>
      <trkpt lat="45.74468" lon="6.09384">
        <ele>565</ele>
        <time>2021-12-28T07:51:52Z</time>
      </trkpt>
      <trkpt lat="45.74473" lon="6.09436">
        <ele>561</ele>
        <time>2021-12-28T07:51:58Z</time>
      </trkpt>
      <trkpt lat="45.74472" lon="6.09453">
        <ele>562</ele>
        <time>2021-12-28T07:52:00Z</time>
      </trkpt>
      <trkpt lat="45.74466" lon="6.09477">
        <ele>563</ele>
        <time>2021-12-28T07:52:03Z</time>
      </trkpt>
      <trkpt lat="45.74452" lon="6.0951">
        <ele>564</ele>
        <time>2021-12-28T07:52:08Z</time>
      </trkpt>
      <trkpt lat="45.74428" lon="6.09556">
        <ele>567</ele>
        <time>2021-12-28T07:52:15Z</time>
      </trkpt>
      <trkpt lat="45.74402" lon="6.09604">
        <ele>570</ele>
        <time>2021-12-28T07:52:23Z</time>
      </trkpt>
      <trkpt lat="45.74367" lon="6.09648">
        <ele>570</ele>
        <time>2021-12-28T07:52:31Z</time>
      </trkpt>
      <trkpt lat="45.74287" lon="6.09739">
        <ele>567</ele>
        <time>2021-12-28T07:52:49Z</time>
      </trkpt>
      <trkpt lat="45.74236" lon="6.09783">
        <ele>571</ele>
        <time>2021-12-28T07:53:00Z</time>
      </trkpt>
      <trkpt lat="45.74206" lon="6.09805">
        <ele>575</ele>
        <time>2021-12-28T07:53:06Z</time>
      </trkpt>
      <trkpt lat="45.74171" lon="6.09822">
        <ele>575</ele>
        <time>2021-12-28T07:53:13Z</time>
      </trkpt>
      <trkpt lat="45.74113" lon="6.09841">
        <ele>573</ele>
        <time>2021-12-28T07:53:23Z</time>
      </trkpt>
      <trkpt lat="45.74086" lon="6.09844">
        <ele>571</ele>
        <time>2021-12-28T07:53:28Z</time>
      </trkpt>
      <trkpt lat="45.74058" lon="6.09839">
        <ele>568</ele>
        <time>2021-12-28T07:53:33Z</time>
      </trkpt>
      <trkpt lat="45.73979" lon="6.09809">
        <ele>563</ele>
        <time>2021-12-28T07:53:48Z</time>
      </trkpt>
      <trkpt lat="45.73944" lon="6.09804">
        <ele>562</ele>
        <time>2021-12-28T07:53:54Z</time>
      </trkpt>
      <trkpt lat="45.73608" lon="6.0981">
        <ele>569</ele>
        <time>2021-12-28T07:54:54Z</time>
      </trkpt>
      <trkpt lat="45.73514" lon="6.0981">
        <ele>569</ele>
        <time>2021-12-28T07:55:10Z</time>
      </trkpt>
      <trkpt lat="45.73474" lon="6.098">
        <ele>569</ele>
        <time>2021-12-28T07:55:18Z</time>
      </trkpt>
      <trkpt lat="45.73431" lon="6.09784">
        <ele>569</ele>
        <time>2021-12-28T07:55:25Z</time>
      </trkpt>
      <trkpt lat="45.73393" lon="6.09766">
        <ele>570</ele>
        <time>2021-12-28T07:55:33Z</time>
      </trkpt>
      <trkpt lat="45.73372" lon="6.09746">
        <ele>570</ele>
        <time>2021-12-28T07:55:37Z</time>
      </trkpt>
      <trkpt lat="45.7336" lon="6.09734">
        <ele>571</ele>
        <time>2021-12-28T07:55:40Z</time>
      </trkpt>
      <trkpt lat="45.73328" lon="6.09703">
        <ele>573</ele>
        <time>2021-12-28T07:55:47Z</time>
      </trkpt>
      <trkpt lat="45.73307" lon="6.09691">
        <ele>575</ele>
        <time>2021-12-28T07:55:51Z</time>
      </trkpt>
      <trkpt lat="45.73207" lon="6.09659">
        <ele>581</ele>
        <time>2021-12-28T07:56:09Z</time>
      </trkpt>
      <trkpt lat="45.73095" lon="6.09626">
        <ele>590</ele>
        <time>2021-12-28T07:56:29Z</time>
      </trkpt>
      <trkpt lat="45.72974" lon="6.09534">
        <ele>579</ele>
        <time>2021-12-28T07:56:53Z</time>
      </trkpt>
      <trkpt lat="45.72952" lon="6.0952">
        <ele>577</ele>
        <time>2021-12-28T07:56:58Z</time>
      </trkpt>
      <trkpt lat="45.72928" lon="6.09516">
        <ele>577</ele>
        <time>2021-12-28T07:57:02Z</time>
      </trkpt>
      <trkpt lat="45.72904" lon="6.09518">
        <ele>577</ele>
        <time>2021-12-28T07:57:06Z</time>
      </trkpt>
      <trkpt lat="45.72889" lon="6.09521">
        <ele>578</ele>
        <time>2021-12-28T07:57:09Z</time>
      </trkpt>
      <trkpt lat="45.72875" lon="6.09527">
        <ele>579</ele>
        <time>2021-12-28T07:57:12Z</time>
      </trkpt>
      <trkpt lat="45.72834" lon="6.09561">
        <ele>588</ele>
        <time>2021-12-28T07:57:20Z</time>
      </trkpt>
      <trkpt lat="45.72813" lon="6.09569">
        <ele>589</ele>
        <time>2021-12-28T07:57:24Z</time>
      </trkpt>
      <trkpt lat="45.72801" lon="6.0957">
        <ele>589</ele>
        <time>2021-12-28T07:57:26Z</time>
      </trkpt>
      <trkpt lat="45.72608" lon="6.09536">
        <ele>584</ele>
        <time>2021-12-28T07:58:01Z</time>
      </trkpt>
      <trkpt lat="45.72597" lon="6.09532">
        <ele>584</ele>
        <time>2021-12-28T07:58:03Z</time>
      </trkpt>
      <trkpt lat="45.72556" lon="6.09498">
        <ele>579</ele>
        <time>2021-12-28T07:58:11Z</time>
      </trkpt>
      <trkpt lat="45.7255" lon="6.09495">
        <ele>580</ele>
        <time>2021-12-28T07:58:12Z</time>
      </trkpt>
      <trkpt lat="45.72537" lon="6.09493">
        <ele>581</ele>
        <time>2021-12-28T07:58:15Z</time>
      </trkpt>
      <trkpt lat="45.72512" lon="6.09502">
        <ele>584</ele>
        <time>2021-12-28T07:58:19Z</time>
      </trkpt>
      <trkpt lat="45.72499" lon="6.09513">
        <ele>589</ele>
        <time>2021-12-28T07:58:22Z</time>
      </trkpt>
      <trkpt lat="45.72406" lon="6.09622">
        <ele>601</ele>
        <time>2021-12-28T07:58:43Z</time>
      </trkpt>
      <trkpt lat="45.72384" lon="6.09652">
        <ele>603</ele>
        <time>2021-12-28T07:58:49Z</time>
      </trkpt>
      <trkpt lat="45.72336" lon="6.09732">
        <ele>601</ele>
        <time>2021-12-28T07:59:02Z</time>
      </trkpt>
      <trkpt lat="45.72279" lon="6.09841">
        <ele>608</ele>
        <time>2021-12-28T07:59:19Z</time>
      </trkpt>
      <trkpt lat="45.72265" lon="6.09857">
        <ele>607</ele>
        <time>2021-12-28T07:59:22Z</time>
      </trkpt>
      <trkpt lat="45.72235" lon="6.09884">
        <ele>608</ele>
        <time>2021-12-28T07:59:28Z</time>
      </trkpt>
      <trkpt lat="45.7222" lon="6.09902">
        <ele>609</ele>
        <time>2021-12-28T07:59:32Z</time>
      </trkpt>
      <trkpt lat="45.7221" lon="6.0993">
        <ele>609</ele>
        <time>2021-12-28T07:59:36Z</time>
      </trkpt>
      <trkpt lat="45.72204" lon="6.09986">
        <ele>610</ele>
        <time>2021-12-28T07:59:43Z</time>
      </trkpt>
      <trkpt lat="45.72209" lon="6.10048">
        <ele>612</ele>
        <time>2021-12-28T07:59:50Z</time>
      </trkpt>
      <trkpt lat="45.7222" lon="6.10077">
        <ele>613</ele>
        <time>2021-12-28T07:59:54Z</time>
      </trkpt>
      <trkpt lat="45.72228" lon="6.10087">
        <ele>614</ele>
        <time>2021-12-28T07:59:56Z</time>
      </trkpt>
      <trkpt lat="45.72249" lon="6.10109">
        <ele>614</ele>
        <time>2021-12-28T08:00:01Z</time>
      </trkpt>
      <trkpt lat="45.72258" lon="6.10127">
        <ele>615</ele>
        <time>2021-12-28T08:00:04Z</time>
      </trkpt>
      <trkpt lat="45.72265" lon="6.10147">
        <ele>615</ele>
        <time>2021-12-28T08:00:06Z</time>
      </trkpt>
      <trkpt lat="45.72267" lon="6.10161">
        <ele>615</ele>
        <time>2021-12-28T08:00:08Z</time>
      </trkpt>
      <trkpt lat="45.72267" lon="6.10183">
        <ele>615</ele>
        <time>2021-12-28T08:00:11Z</time>
      </trkpt>
      <trkpt lat="45.72263" lon="6.10207">
        <ele>616</ele>
        <time>2021-12-28T08:00:14Z</time>
      </trkpt>
      <trkpt lat="45.72279" lon="6.1023">
        <ele>621</ele>
        <time>2021-12-28T08:00:18Z</time>
      </trkpt>
      <trkpt lat="45.72281" lon="6.10237">
        <ele>622</ele>
        <time>2021-12-28T08:00:19Z</time>
      </trkpt>
      <trkpt lat="45.7228" lon="6.10242">
        <ele>622</ele>
        <time>2021-12-28T08:00:20Z</time>
      </trkpt>
      <trkpt lat="45.72271" lon="6.10254">
        <ele>621</ele>
        <time>2021-12-28T08:00:22Z</time>
      </trkpt>
      <trkpt lat="45.7226" lon="6.10259">
        <ele>620</ele>
        <time>2021-12-28T08:00:24Z</time>
      </trkpt>
      <trkpt lat="45.7225" lon="6.10266">
        <ele>619</ele>
        <time>2021-12-28T08:00:26Z</time>
      </trkpt>
      <trkpt lat="45.72243" lon="6.10272">
        <ele>618</ele>
        <time>2021-12-28T08:00:27Z</time>
      </trkpt>
      <trkpt lat="45.72236" lon="6.10283">
        <ele>618</ele>
        <time>2021-12-28T08:00:29Z</time>
      </trkpt>
      <trkpt lat="45.72231" lon="6.10297">
        <ele>618</ele>
        <time>2021-12-28T08:00:31Z</time>
      </trkpt>
      <trkpt lat="45.72227" lon="6.10314">
        <ele>619</ele>
        <time>2021-12-28T08:00:33Z</time>
      </trkpt>
      <trkpt lat="45.72227" lon="6.10331">
        <ele>621</ele>
        <time>2021-12-28T08:00:35Z</time>
      </trkpt>
      <trkpt lat="45.72228" lon="6.10347">
        <ele>621</ele>
        <time>2021-12-28T08:00:37Z</time>
      </trkpt>
      <trkpt lat="45.72234" lon="6.10368">
        <ele>621</ele>
        <time>2021-12-28T08:00:40Z</time>
      </trkpt>
      <trkpt lat="45.72244" lon="6.10387">
        <ele>623</ele>
        <time>2021-12-28T08:00:43Z</time>
      </trkpt>
      <trkpt lat="45.72275" lon="6.10439">
        <ele>623</ele>
        <time>2021-12-28T08:00:52Z</time>
      </trkpt>
      <trkpt lat="45.72284" lon="6.10449">
        <ele>623</ele>
        <time>2021-12-28T08:00:54Z</time>
      </trkpt>
      <trkpt lat="45.72403" lon="6.10493">
        <ele>631</ele>
        <time>2021-12-28T08:01:16Z</time>
      </trkpt>
      <trkpt lat="45.72587" lon="6.10566">
        <ele>643</ele>
        <time>2021-12-28T08:01:50Z</time>
      </trkpt>
      <trkpt lat="45.72617" lon="6.10574">
        <ele>643</ele>
        <time>2021-12-28T08:01:55Z</time>
      </trkpt>
      <trkpt lat="45.72804" lon="6.10507">
        <ele>661</ele>
        <time>2021-12-28T08:02:29Z</time>
      </trkpt>
      <trkpt lat="45.72814" lon="6.10507">
        <ele>662</ele>
        <time>2021-12-28T08:02:31Z</time>
      </trkpt>
      <trkpt lat="45.72824" lon="6.1051">
        <ele>663</ele>
        <time>2021-12-28T08:02:33Z</time>
      </trkpt>
      <trkpt lat="45.72841" lon="6.10528">
        <ele>663</ele>
        <time>2021-12-28T08:02:37Z</time>
      </trkpt>
      <trkpt lat="45.73027" lon="6.1078">
        <ele>678</ele>
        <time>2021-12-28T08:03:22Z</time>
      </trkpt>
      <trkpt lat="45.73041" lon="6.1082">
        <ele>679</ele>
        <time>2021-12-28T08:03:28Z</time>
      </trkpt>
      <trkpt lat="45.73054" lon="6.10867">
        <ele>675</ele>
        <time>2021-12-28T08:03:34Z</time>
      </trkpt>
      <trkpt lat="45.73071" lon="6.109">
        <ele>674</ele>
        <time>2021-12-28T08:03:39Z</time>
      </trkpt>
      <trkpt lat="45.7309" lon="6.10919">
        <ele>675</ele>
        <time>2021-12-28T08:03:43Z</time>
      </trkpt>
      <trkpt lat="45.73217" lon="6.10996">
        <ele>685</ele>
        <time>2021-12-28T08:04:08Z</time>
      </trkpt>
      <trkpt lat="45.7335" lon="6.11053">
        <ele>696</ele>
        <time>2021-12-28T08:04:33Z</time>
      </trkpt>
      <trkpt lat="45.73398" lon="6.11092">
        <ele>705</ele>
        <time>2021-12-28T08:04:42Z</time>
      </trkpt>
      <trkpt lat="45.73434" lon="6.11131">
        <ele>711</ele>
        <time>2021-12-28T08:04:50Z</time>
      </trkpt>
      <trkpt lat="45.73485" lon="6.11235">
        <ele>713</ele>
        <time>2021-12-28T08:05:06Z</time>
      </trkpt>
      <trkpt lat="45.73513" lon="6.11259">
        <ele>713</ele>
        <time>2021-12-28T08:05:12Z</time>
      </trkpt>
      <trkpt lat="45.73558" lon="6.11288">
        <ele>714</ele>
        <time>2021-12-28T08:05:21Z</time>
      </trkpt>
      <trkpt lat="45.73594" lon="6.11298">
        <ele>715</ele>
        <time>2021-12-28T08:05:27Z</time>
      </trkpt>
      <trkpt lat="45.73618" lon="6.11291">
        <ele>715</ele>
        <time>2021-12-28T08:05:32Z</time>
      </trkpt>
      <trkpt lat="45.73645" lon="6.11269">
        <ele>717</ele>
        <time>2021-12-28T08:05:37Z</time>
      </trkpt>
      <trkpt lat="45.73674" lon="6.11262">
        <ele>718</ele>
        <time>2021-12-28T08:05:42Z</time>
      </trkpt>
      <trkpt lat="45.73747" lon="6.11266">
        <ele>721</ele>
        <time>2021-12-28T08:05:55Z</time>
      </trkpt>
      <trkpt lat="45.73758" lon="6.11263">
        <ele>722</ele>
        <time>2021-12-28T08:05:57Z</time>
      </trkpt>
      <trkpt lat="45.73769" lon="6.11254">
        <ele>724</ele>
        <time>2021-12-28T08:06:00Z</time>
      </trkpt>
      <trkpt lat="45.73779" lon="6.11233">
        <ele>726</ele>
        <time>2021-12-28T08:06:03Z</time>
      </trkpt>
      <trkpt lat="45.73811" lon="6.1113">
        <ele>732</ele>
        <time>2021-12-28T08:06:17Z</time>
      </trkpt>
      <trkpt lat="45.73816" lon="6.11086">
        <ele>732</ele>
        <time>2021-12-28T08:06:22Z</time>
      </trkpt>
      <trkpt lat="45.73824" lon="6.11077">
        <ele>733</ele>
        <time>2021-12-28T08:06:24Z</time>
      </trkpt>
      <trkpt lat="45.73832" lon="6.11077">
        <ele>733</ele>
        <time>2021-12-28T08:06:26Z</time>
      </trkpt>
      <trkpt lat="45.73839" lon="6.11085">
        <ele>734</ele>
        <time>2021-12-28T08:06:27Z</time>
      </trkpt>
      <trkpt lat="45.73848" lon="6.11155">
        <ele>736</ele>
        <time>2021-12-28T08:06:36Z</time>
      </trkpt>
      <trkpt lat="45.73856" lon="6.11196">
        <ele>737</ele>
        <time>2021-12-28T08:06:41Z</time>
      </trkpt>
      <trkpt lat="45.73863" lon="6.11214">
        <ele>737</ele>
        <time>2021-12-28T08:06:44Z</time>
      </trkpt>
      <trkpt lat="45.73873" lon="6.11227">
        <ele>738</ele>
        <time>2021-12-28T08:06:46Z</time>
      </trkpt>
      <trkpt lat="45.73922" lon="6.11264">
        <ele>741</ele>
        <time>2021-12-28T08:06:56Z</time>
      </trkpt>
      <trkpt lat="45.73937" lon="6.11271">
        <ele>741</ele>
        <time>2021-12-28T08:06:59Z</time>
      </trkpt>
      <trkpt lat="45.74023" lon="6.11278">
        <ele>747</ele>
        <time>2021-12-28T08:07:14Z</time>
      </trkpt>
      <trkpt lat="45.7404" lon="6.11277">
        <ele>748</ele>
        <time>2021-12-28T08:07:17Z</time>
      </trkpt>
      <trkpt lat="45.74092" lon="6.11259">
        <ele>755</ele>
        <time>2021-12-28T08:07:27Z</time>
      </trkpt>
      <trkpt lat="45.74102" lon="6.11258">
        <ele>756</ele>
        <time>2021-12-28T08:07:29Z</time>
      </trkpt>
      <trkpt lat="45.74113" lon="6.1126">
        <ele>757</ele>
        <time>2021-12-28T08:07:31Z</time>
      </trkpt>
      <trkpt lat="45.74129" lon="6.11269">
        <ele>757</ele>
        <time>2021-12-28T08:07:34Z</time>
      </trkpt>
      <trkpt lat="45.74248" lon="6.11374">
        <ele>765</ele>
        <time>2021-12-28T08:07:58Z</time>
      </trkpt>
      <trkpt lat="45.74275" lon="6.1139">
        <ele>766</ele>
        <time>2021-12-28T08:08:04Z</time>
      </trkpt>
      <trkpt lat="45.74344" lon="6.11425">
        <ele>771</ele>
        <time>2021-12-28T08:08:17Z</time>
      </trkpt>
      <trkpt lat="45.74362" lon="6.1143">
        <ele>772</ele>
        <time>2021-12-28T08:08:20Z</time>
      </trkpt>
      <trkpt lat="45.74476" lon="6.11428">
        <ele>778</ele>
        <time>2021-12-28T08:08:40Z</time>
      </trkpt>
      <trkpt lat="45.74583" lon="6.11451">
        <ele>783</ele>
        <time>2021-12-28T08:08:59Z</time>
      </trkpt>
      <trkpt lat="45.74598" lon="6.11448">
        <ele>784</ele>
        <time>2021-12-28T08:09:02Z</time>
      </trkpt>
      <trkpt lat="45.74611" lon="6.11438">
        <ele>785</ele>
        <time>2021-12-28T08:09:05Z</time>
      </trkpt>
      <trkpt lat="45.74625" lon="6.11416">
        <ele>788</ele>
        <time>2021-12-28T08:09:09Z</time>
      </trkpt>
      <trkpt lat="45.74632" lon="6.11408">
        <ele>789</ele>
        <time>2021-12-28T08:09:10Z</time>
      </trkpt>
      <trkpt lat="45.74641" lon="6.11407">
        <ele>789</ele>
        <time>2021-12-28T08:09:12Z</time>
      </trkpt>
      <trkpt lat="45.74648" lon="6.11409">
        <ele>789</ele>
        <time>2021-12-28T08:09:13Z</time>
      </trkpt>
      <trkpt lat="45.74694" lon="6.11433">
        <ele>791</ele>
        <time>2021-12-28T08:09:22Z</time>
      </trkpt>
      <trkpt lat="45.74703" lon="6.11435">
        <ele>792</ele>
        <time>2021-12-28T08:09:23Z</time>
      </trkpt>
      <trkpt lat="45.74793" lon="6.11437">
        <ele>798</ele>
        <time>2021-12-28T08:09:39Z</time>
      </trkpt>
      <trkpt lat="45.74902" lon="6.11413">
        <ele>810</ele>
        <time>2021-12-28T08:09:59Z</time>
      </trkpt>
      <trkpt lat="45.74917" lon="6.11414">
        <ele>811</ele>
        <time>2021-12-28T08:10:02Z</time>
      </trkpt>
      <trkpt lat="45.7507" lon="6.11456">
        <ele>818</ele>
        <time>2021-12-28T08:10:29Z</time>
      </trkpt>
      <trkpt lat="45.7511" lon="6.11475">
        <ele>819</ele>
        <time>2021-12-28T08:10:37Z</time>
      </trkpt>
      <trkpt lat="45.75238" lon="6.11546">
        <ele>823</ele>
        <time>2021-12-28T08:11:01Z</time>
      </trkpt>
      <trkpt lat="45.75408" lon="6.11637">
        <ele>826</ele>
        <time>2021-12-28T08:11:34Z</time>
      </trkpt>
      <trkpt lat="45.75439" lon="6.11647">
        <ele>826</ele>
        <time>2021-12-28T08:11:39Z</time>
      </trkpt>
      <trkpt lat="45.75471" lon="6.11655">
        <ele>826</ele>
        <time>2021-12-28T08:11:45Z</time>
      </trkpt>
      <trkpt lat="45.75489" lon="6.11665">
        <ele>825</ele>
        <time>2021-12-28T08:11:48Z</time>
      </trkpt>
      <trkpt lat="45.75515" lon="6.11693">
        <ele>821</ele>
        <time>2021-12-28T08:11:54Z</time>
      </trkpt>
      <trkpt lat="45.75539" lon="6.11709">
        <ele>820</ele>
        <time>2021-12-28T08:11:59Z</time>
      </trkpt>
      <trkpt lat="45.75796" lon="6.11785">
        <ele>841</ele>
        <time>2021-12-28T08:12:46Z</time>
      </trkpt>
      <trkpt lat="45.75833" lon="6.11801">
        <ele>841</ele>
        <time>2021-12-28T08:12:52Z</time>
      </trkpt>
      <trkpt lat="45.75882" lon="6.11833">
        <ele>838</ele>
        <time>2021-12-28T08:13:02Z</time>
      </trkpt>
      <trkpt lat="45.75964" lon="6.1189">
        <ele>839</ele>
        <time>2021-12-28T08:13:18Z</time>
      </trkpt>
      <trkpt lat="45.7599" lon="6.11921">
        <ele>837</ele>
        <time>2021-12-28T08:13:24Z</time>
      </trkpt>
      <trkpt lat="45.76026" lon="6.11971">
        <ele>840</ele>
        <time>2021-12-28T08:13:33Z</time>
      </trkpt>
      <trkpt lat="45.76067" lon="6.12018">
        <ele>843</ele>
        <time>2021-12-28T08:13:43Z</time>
      </trkpt>
      <trkpt lat="45.761" lon="6.12047">
        <ele>844</ele>
        <time>2021-12-28T08:13:49Z</time>
      </trkpt>
      <trkpt lat="45.76161" lon="6.12084">
        <ele>844</ele>
        <time>2021-12-28T08:14:01Z</time>
      </trkpt>
      <trkpt lat="45.76307" lon="6.12158">
        <ele>851</ele>
        <time>2021-12-28T08:14:29Z</time>
      </trkpt>
      <trkpt lat="45.76351" lon="6.12182">
        <ele>854</ele>
        <time>2021-12-28T08:14:37Z</time>
      </trkpt>
      <trkpt lat="45.76358" lon="6.12189">
        <ele>855</ele>
        <time>2021-12-28T08:14:39Z</time>
      </trkpt>
      <trkpt lat="45.76373" lon="6.12211">
        <ele>855</ele>
        <time>2021-12-28T08:14:42Z</time>
      </trkpt>
      <trkpt lat="45.7639" lon="6.12243">
        <ele>855</ele>
        <time>2021-12-28T08:14:47Z</time>
      </trkpt>
      <trkpt lat="45.76396" lon="6.12258">
        <ele>856</ele>
        <time>2021-12-28T08:14:50Z</time>
      </trkpt>
      <trkpt lat="45.764" lon="6.12284">
        <ele>856</ele>
        <time>2021-12-28T08:14:53Z</time>
      </trkpt>
      <trkpt lat="45.76406" lon="6.12378">
        <ele>857</ele>
        <time>2021-12-28T08:15:05Z</time>
      </trkpt>
      <trkpt lat="45.76418" lon="6.12412">
        <ele>857</ele>
        <time>2021-12-28T08:15:09Z</time>
      </trkpt>
      <trkpt lat="45.76447" lon="6.12457">
        <ele>860</ele>
        <time>2021-12-28T08:15:17Z</time>
      </trkpt>
      <trkpt lat="45.76495" lon="6.12524">
        <ele>864</ele>
        <time>2021-12-28T08:15:29Z</time>
      </trkpt>
      <trkpt lat="45.76515" lon="6.12542">
        <ele>865</ele>
        <time>2021-12-28T08:15:33Z</time>
      </trkpt>
      <trkpt lat="45.76647" lon="6.12641">
        <ele>870</ele>
        <time>2021-12-28T08:16:00Z</time>
      </trkpt>
      <trkpt lat="45.76783" lon="6.12715">
        <ele>876</ele>
        <time>2021-12-28T08:16:26Z</time>
      </trkpt>
      <trkpt lat="45.76805" lon="6.12719">
        <ele>877</ele>
        <time>2021-12-28T08:16:29Z</time>
      </trkpt>
      <trkpt lat="45.7687" lon="6.12711">
        <ele>882</ele>
        <time>2021-12-28T08:16:41Z</time>
      </trkpt>
      <trkpt lat="45.76882" lon="6.12712">
        <ele>882</ele>
        <time>2021-12-28T08:16:43Z</time>
      </trkpt>
      <trkpt lat="45.76894" lon="6.12719">
        <ele>883</ele>
        <time>2021-12-28T08:16:45Z</time>
      </trkpt>
      <trkpt lat="45.76922" lon="6.12747">
        <ele>883</ele>
        <time>2021-12-28T08:16:52Z</time>
      </trkpt>
      <trkpt lat="45.76982" lon="6.12813">
        <ele>887</ele>
        <time>2021-12-28T08:17:05Z</time>
      </trkpt>
      <trkpt lat="45.76996" lon="6.12832">
        <ele>888</ele>
        <time>2021-12-28T08:17:08Z</time>
      </trkpt>
      <trkpt lat="45.77004" lon="6.12852">
        <ele>889</ele>
        <time>2021-12-28T08:17:11Z</time>
      </trkpt>
      <trkpt lat="45.77006" lon="6.12862">
        <ele>889</ele>
        <time>2021-12-28T08:17:13Z</time>
      </trkpt>
      <trkpt lat="45.77022" lon="6.12968">
        <ele>892</ele>
        <time>2021-12-28T08:17:26Z</time>
      </trkpt>
      <trkpt lat="45.7703" lon="6.12992">
        <ele>893</ele>
        <time>2021-12-28T08:17:29Z</time>
      </trkpt>
      <trkpt lat="45.77038" lon="6.13004">
        <ele>893</ele>
        <time>2021-12-28T08:17:31Z</time>
      </trkpt>
      <trkpt lat="45.77108" lon="6.13079">
        <ele>895</ele>
        <time>2021-12-28T08:17:47Z</time>
      </trkpt>
      <trkpt lat="45.77181" lon="6.13163">
        <ele>899</ele>
        <time>2021-12-28T08:18:04Z</time>
      </trkpt>
      <trkpt lat="45.77165" lon="6.13228">
        <ele>898</ele>
        <time>2021-12-28T08:18:12Z</time>
      </trkpt>
      <trkpt lat="45.77143" lon="6.13294">
        <ele>899</ele>
        <time>2021-12-28T08:18:21Z</time>
      </trkpt>
      <trkpt lat="45.77136" lon="6.13303">
        <ele>900</ele>
        <time>2021-12-28T08:18:23Z</time>
      </trkpt>
      <trkpt lat="45.77115" lon="6.13326">
        <ele>902</ele>
        <time>2021-12-28T08:18:28Z</time>
      </trkpt>
      <trkpt lat="45.7709" lon="6.13348">
        <ele>905</ele>
        <time>2021-12-28T08:18:33Z</time>
      </trkpt>
      <trkpt lat="45.77073" lon="6.13358">
        <ele>907</ele>
        <time>2021-12-28T08:18:36Z</time>
      </trkpt>
      <trkpt lat="45.77028" lon="6.13355">
        <ele>907</ele>
        <time>2021-12-28T08:18:44Z</time>
      </trkpt>
      <trkpt lat="45.77017" lon="6.13357">
        <ele>908</ele>
        <time>2021-12-28T08:18:46Z</time>
      </trkpt>
      <trkpt lat="45.77007" lon="6.13364">
        <ele>909</ele>
        <time>2021-12-28T08:18:48Z</time>
      </trkpt>
      <trkpt lat="45.77" lon="6.13373">
        <ele>910</ele>
        <time>2021-12-28T08:18:50Z</time>
      </trkpt>
      <trkpt lat="45.76998" lon="6.13387">
        <ele>912</ele>
        <time>2021-12-28T08:18:52Z</time>
      </trkpt>
      <trkpt lat="45.77002" lon="6.134">
        <ele>914</ele>
        <time>2021-12-28T08:18:53Z</time>
      </trkpt>
      <trkpt lat="45.7703" lon="6.13422">
        <ele>915</ele>
        <time>2021-12-28T08:18:59Z</time>
      </trkpt>
      <trkpt lat="45.7704" lon="6.13435">
        <ele>916</ele>
        <time>2021-12-28T08:19:01Z</time>
      </trkpt>
      <trkpt lat="45.77043" lon="6.13444">
        <ele>917</ele>
        <time>2021-12-28T08:19:03Z</time>
      </trkpt>
      <trkpt lat="45.77042" lon="6.13457">
        <ele>918</ele>
        <time>2021-12-28T08:19:04Z</time>
      </trkpt>
      <trkpt lat="45.77021" lon="6.13513">
        <ele>922</ele>
        <time>2021-12-28T08:19:12Z</time>
      </trkpt>
      <trkpt lat="45.76995" lon="6.13556">
        <ele>924</ele>
        <time>2021-12-28T08:19:19Z</time>
      </trkpt>
      <trkpt lat="45.7694" lon="6.13622">
        <ele>928</ele>
        <time>2021-12-28T08:19:32Z</time>
      </trkpt>
      <trkpt lat="45.7693" lon="6.13649">
        <ele>930</ele>
        <time>2021-12-28T08:19:36Z</time>
      </trkpt>
      <trkpt lat="45.76912" lon="6.13729">
        <ele>934</ele>
        <time>2021-12-28T08:19:46Z</time>
      </trkpt>
      <trkpt lat="45.76911" lon="6.13746">
        <ele>935</ele>
        <time>2021-12-28T08:19:48Z</time>
      </trkpt>
      <trkpt lat="45.76916" lon="6.13765">
        <ele>936</ele>
        <time>2021-12-28T08:19:51Z</time>
      </trkpt>
      <trkpt lat="45.76935" lon="6.13822">
        <ele>939</ele>
        <time>2021-12-28T08:19:59Z</time>
      </trkpt>
      <trkpt lat="45.7694" lon="6.13853">
        <ele>940</ele>
        <time>2021-12-28T08:20:03Z</time>
      </trkpt>
      <trkpt lat="45.7695" lon="6.13935">
        <ele>944</ele>
        <time>2021-12-28T08:20:13Z</time>
      </trkpt>
      <trkpt lat="45.76955" lon="6.13968">
        <ele>944</ele>
        <time>2021-12-28T08:20:17Z</time>
      </trkpt>
      <trkpt lat="45.76965" lon="6.13998">
        <ele>943</ele>
        <time>2021-12-28T08:20:21Z</time>
      </trkpt>
      <trkpt lat="45.76983" lon="6.14036">
        <ele>943</ele>
        <time>2021-12-28T08:20:27Z</time>
      </trkpt>
      <trkpt lat="45.76989" lon="6.14057">
        <ele>943</ele>
        <time>2021-12-28T08:20:30Z</time>
      </trkpt>
      <trkpt lat="45.76996" lon="6.14108">
        <ele>945</ele>
        <time>2021-12-28T08:20:36Z</time>
      </trkpt>
      <trkpt lat="45.77" lon="6.14117">
        <ele>945</ele>
        <time>2021-12-28T08:20:38Z</time>
      </trkpt>
      <trkpt lat="45.7701" lon="6.14124">
        <ele>944</ele>
        <time>2021-12-28T08:20:40Z</time>
      </trkpt>
      <trkpt lat="45.77026" lon="6.14125">
        <ele>944</ele>
        <time>2021-12-28T08:20:42Z</time>
      </trkpt>
      <trkpt lat="45.77045" lon="6.14119">
        <ele>942</ele>
        <time>2021-12-28T08:20:46Z</time>
      </trkpt>
      <trkpt lat="45.771" lon="6.14082">
        <ele>937</ele>
        <time>2021-12-28T08:20:57Z</time>
      </trkpt>
      <trkpt lat="45.77115" lon="6.14075">
        <ele>936</ele>
        <time>2021-12-28T08:20:59Z</time>
      </trkpt>
      <trkpt lat="45.7713" lon="6.14071">
        <ele>935</ele>
        <time>2021-12-28T08:21:02Z</time>
      </trkpt>
      <trkpt lat="45.77144" lon="6.14075">
        <ele>934</ele>
        <time>2021-12-28T08:21:05Z</time>
      </trkpt>
      <trkpt lat="45.77154" lon="6.14083">
        <ele>934</ele>
        <time>2021-12-28T08:21:07Z</time>
      </trkpt>
      <trkpt lat="45.77162" lon="6.14102">
        <ele>934</ele>
        <time>2021-12-28T08:21:10Z</time>
      </trkpt>
      <trkpt lat="45.77181" lon="6.1419">
        <ele>937</ele>
        <time>2021-12-28T08:21:21Z</time>
      </trkpt>
      <trkpt lat="45.7719" lon="6.14213">
        <ele>939</ele>
        <time>2021-12-28T08:21:24Z</time>
      </trkpt>
      <trkpt lat="45.7725" lon="6.14315">
        <ele>934</ele>
        <time>2021-12-28T08:21:41Z</time>
      </trkpt>
      <trkpt lat="45.77268" lon="6.14358">
        <ele>931</ele>
        <time>2021-12-28T08:21:47Z</time>
      </trkpt>
      <trkpt lat="45.7727" lon="6.14379">
        <ele>931</ele>
        <time>2021-12-28T08:21:50Z</time>
      </trkpt>
      <trkpt lat="45.77269" lon="6.14399">
        <ele>931</ele>
        <time>2021-12-28T08:21:52Z</time>
      </trkpt>
      <trkpt lat="45.77255" lon="6.14436">
        <ele>933</ele>
        <time>2021-12-28T08:21:57Z</time>
      </trkpt>
      <trkpt lat="45.77255" lon="6.14462">
        <ele>933</ele>
        <time>2021-12-28T08:22:01Z</time>
      </trkpt>
      <trkpt lat="45.7726" lon="6.14538">
        <ele>937</ele>
        <time>2021-12-28T08:22:10Z</time>
      </trkpt>
      <trkpt lat="45.77268" lon="6.14558">
        <ele>937</ele>
        <time>2021-12-28T08:22:13Z</time>
      </trkpt>
      <trkpt lat="45.77282" lon="6.14581">
        <ele>936</ele>
        <time>2021-12-28T08:22:17Z</time>
      </trkpt>
      <trkpt lat="45.7729" lon="6.14615">
        <ele>937</ele>
        <time>2021-12-28T08:22:21Z</time>
      </trkpt>
      <trkpt lat="45.77289" lon="6.14681">
        <ele>944</ele>
        <time>2021-12-28T08:22:29Z</time>
      </trkpt>
      <trkpt lat="45.77293" lon="6.14694">
        <ele>944</ele>
        <time>2021-12-28T08:22:31Z</time>
      </trkpt>
      <trkpt lat="45.773" lon="6.14702">
        <ele>943</ele>
        <time>2021-12-28T08:22:33Z</time>
      </trkpt>
      <trkpt lat="45.7731" lon="6.14707">
        <ele>942</ele>
        <time>2021-12-28T08:22:35Z</time>
      </trkpt>
      <trkpt lat="45.77329" lon="6.14706">
        <ele>937</ele>
        <time>2021-12-28T08:22:38Z</time>
      </trkpt>
      <trkpt lat="45.77352" lon="6.14696">
        <ele>936</ele>
        <time>2021-12-28T08:22:42Z</time>
      </trkpt>
      <trkpt lat="45.77372" lon="6.14672">
        <ele>935</ele>
        <time>2021-12-28T08:22:47Z</time>
      </trkpt>
      <trkpt lat="45.774" lon="6.14612">
        <ele>930</ele>
        <time>2021-12-28T08:22:56Z</time>
      </trkpt>
      <trkpt lat="45.77406" lon="6.14605">
        <ele>930</ele>
        <time>2021-12-28T08:22:57Z</time>
      </trkpt>
      <trkpt lat="45.77419" lon="6.14604">
        <ele>930</ele>
        <time>2021-12-28T08:23:00Z</time>
      </trkpt>
      <trkpt lat="45.77426" lon="6.14607">
        <ele>930</ele>
        <time>2021-12-28T08:23:01Z</time>
      </trkpt>
      <trkpt lat="45.77449" lon="6.14628">
        <ele>934</ele>
        <time>2021-12-28T08:23:06Z</time>
      </trkpt>
      <trkpt lat="45.77458" lon="6.14631">
        <ele>934</ele>
        <time>2021-12-28T08:23:07Z</time>
      </trkpt>
      <trkpt lat="45.77487" lon="6.14634">
        <ele>935</ele>
        <time>2021-12-28T08:23:13Z</time>
      </trkpt>
      <trkpt lat="45.77494" lon="6.14637">
        <ele>935</ele>
        <time>2021-12-28T08:23:14Z</time>
      </trkpt>
      <trkpt lat="45.77505" lon="6.14647">
        <ele>937</ele>
        <time>2021-12-28T08:23:16Z</time>
      </trkpt>
      <trkpt lat="45.77512" lon="6.14658">
        <ele>938</ele>
        <time>2021-12-28T08:23:18Z</time>
      </trkpt>
      <trkpt lat="45.77519" lon="6.14673">
        <ele>939</ele>
        <time>2021-12-28T08:23:20Z</time>
      </trkpt>
      <trkpt lat="45.77531" lon="6.14722">
        <ele>943</ele>
        <time>2021-12-28T08:23:27Z</time>
      </trkpt>
      <trkpt lat="45.77539" lon="6.14735">
        <ele>944</ele>
        <time>2021-12-28T08:23:29Z</time>
      </trkpt>
      <trkpt lat="45.7755" lon="6.14746">
        <ele>945</ele>
        <time>2021-12-28T08:23:31Z</time>
      </trkpt>
      <trkpt lat="45.77595" lon="6.1477">
        <ele>943</ele>
        <time>2021-12-28T08:23:40Z</time>
      </trkpt>
      <trkpt lat="45.7761" lon="6.1478">
        <ele>942</ele>
        <time>2021-12-28T08:23:43Z</time>
      </trkpt>
      <trkpt lat="45.77621" lon="6.14806">
        <ele>942</ele>
        <time>2021-12-28T08:23:46Z</time>
      </trkpt>
      <trkpt lat="45.77638" lon="6.14883">
        <ele>946</ele>
        <time>2021-12-28T08:23:56Z</time>
      </trkpt>
      <trkpt lat="45.77638" lon="6.14906">
        <ele>948</ele>
        <time>2021-12-28T08:23:59Z</time>
      </trkpt>
      <trkpt lat="45.77632" lon="6.14922">
        <ele>951</ele>
        <time>2021-12-28T08:24:02Z</time>
      </trkpt>
      <trkpt lat="45.77627" lon="6.14932">
        <ele>953</ele>
        <time>2021-12-28T08:24:03Z</time>
      </trkpt>
      <trkpt lat="45.77623" lon="6.14947">
        <ele>956</ele>
        <time>2021-12-28T08:24:05Z</time>
      </trkpt>
      <trkpt lat="45.77626" lon="6.1496">
        <ele>957</ele>
        <time>2021-12-28T08:24:07Z</time>
      </trkpt>
      <trkpt lat="45.77639" lon="6.14969">
        <ele>955</ele>
        <time>2021-12-28T08:24:09Z</time>
      </trkpt>
      <trkpt lat="45.7769" lon="6.1497">
        <ele>948</ele>
        <time>2021-12-28T08:24:18Z</time>
      </trkpt>
      <trkpt lat="45.77699" lon="6.14973">
        <ele>947</ele>
        <time>2021-12-28T08:24:20Z</time>
      </trkpt>
      <trkpt lat="45.77713" lon="6.14983">
        <ele>946</ele>
        <time>2021-12-28T08:24:23Z</time>
      </trkpt>
      <trkpt lat="45.77735" lon="6.15012">
        <ele>945</ele>
        <time>2021-12-28T08:24:28Z</time>
      </trkpt>
      <trkpt lat="45.77743" lon="6.1503">
        <ele>945</ele>
        <time>2021-12-28T08:24:31Z</time>
      </trkpt>
      <trkpt lat="45.77755" lon="6.15041">
        <ele>945</ele>
        <time>2021-12-28T08:24:33Z</time>
      </trkpt>
      <trkpt lat="45.7777" lon="6.15041">
        <ele>944</ele>
        <time>2021-12-28T08:24:36Z</time>
      </trkpt>
      <trkpt lat="45.77789" lon="6.15035">
        <ele>943</ele>
        <time>2021-12-28T08:24:40Z</time>
      </trkpt>
      <trkpt lat="45.77807" lon="6.15026">
        <ele>942</ele>
        <time>2021-12-28T08:24:43Z</time>
      </trkpt>
      <trkpt lat="45.77858" lon="6.15022">
        <ele>939</ele>
        <time>2021-12-28T08:24:52Z</time>
      </trkpt>
      <trkpt lat="45.77879" lon="6.15015">
        <ele>937</ele>
        <time>2021-12-28T08:24:56Z</time>
      </trkpt>
      <trkpt lat="45.77928" lon="6.15013">
        <ele>935</ele>
        <time>2021-12-28T08:25:05Z</time>
      </trkpt>
      <trkpt lat="45.77938" lon="6.15009">
        <ele>934</ele>
        <time>2021-12-28T08:25:06Z</time>
      </trkpt>
      <trkpt lat="45.77972" lon="6.14981">
        <ele>930</ele>
        <time>2021-12-28T08:25:13Z</time>
      </trkpt>
      <trkpt lat="45.77989" lon="6.14961">
        <ele>927</ele>
        <time>2021-12-28T08:25:17Z</time>
      </trkpt>
      <trkpt lat="45.7799" lon="6.14947">
        <ele>925</ele>
        <time>2021-12-28T08:25:19Z</time>
      </trkpt>
      <trkpt lat="45.77985" lon="6.14935">
        <ele>923</ele>
        <time>2021-12-28T08:25:21Z</time>
      </trkpt>
      <trkpt lat="45.77974" lon="6.1493">
        <ele>923</ele>
        <time>2021-12-28T08:25:23Z</time>
      </trkpt>
      <trkpt lat="45.77947" lon="6.14934">
        <ele>924</ele>
        <time>2021-12-28T08:25:28Z</time>
      </trkpt>
      <trkpt lat="45.77934" lon="6.14928">
        <ele>924</ele>
        <time>2021-12-28T08:25:30Z</time>
      </trkpt>
      <trkpt lat="45.77932" lon="6.14913">
        <ele>922</ele>
        <time>2021-12-28T08:25:32Z</time>
      </trkpt>
      <trkpt lat="45.77936" lon="6.14896">
        <ele>920</ele>
        <time>2021-12-28T08:25:34Z</time>
      </trkpt>
      <trkpt lat="45.77948" lon="6.14886">
        <ele>918</ele>
        <time>2021-12-28T08:25:37Z</time>
      </trkpt>
      <trkpt lat="45.7802" lon="6.14858">
        <ele>913</ele>
        <time>2021-12-28T08:25:50Z</time>
      </trkpt>
      <trkpt lat="45.78075" lon="6.14828">
        <ele>909</ele>
        <time>2021-12-28T08:26:00Z</time>
      </trkpt>
      <trkpt lat="45.78132" lon="6.1478">
        <ele>904</ele>
        <time>2021-12-28T08:26:12Z</time>
      </trkpt>
      <trkpt lat="45.78154" lon="6.14765">
        <ele>902</ele>
        <time>2021-12-28T08:26:17Z</time>
      </trkpt>
      <trkpt lat="45.78191" lon="6.14758">
        <ele>901</ele>
        <time>2021-12-28T08:26:23Z</time>
      </trkpt>
      <trkpt lat="45.78266" lon="6.14721">
        <ele>893</ele>
        <time>2021-12-28T08:26:37Z</time>
      </trkpt>
      <trkpt lat="45.7828" lon="6.14705">
        <ele>890</ele>
        <time>2021-12-28T08:26:40Z</time>
      </trkpt>
      <trkpt lat="45.78303" lon="6.14693">
        <ele>888</ele>
        <time>2021-12-28T08:26:45Z</time>
      </trkpt>
      <trkpt lat="45.7838" lon="6.14668">
        <ele>883</ele>
        <time>2021-12-28T08:26:59Z</time>
      </trkpt>
      <trkpt lat="45.7845" lon="6.14656">
        <ele>877</ele>
        <time>2021-12-28T08:27:11Z</time>
      </trkpt>
      <trkpt lat="45.78492" lon="6.14661">
        <ele>875</ele>
        <time>2021-12-28T08:27:19Z</time>
      </trkpt>
      <trkpt lat="45.78529" lon="6.14671">
        <ele>873</ele>
        <time>2021-12-28T08:27:26Z</time>
      </trkpt>
      <trkpt lat="45.78545" lon="6.14681">
        <ele>872</ele>
        <time>2021-12-28T08:27:29Z</time>
      </trkpt>
      <trkpt lat="45.7857" lon="6.14709">
        <ele>872</ele>
        <time>2021-12-28T08:27:34Z</time>
      </trkpt>
      <trkpt lat="45.78602" lon="6.14739">
        <ele>871</ele>
        <time>2021-12-28T08:27:41Z</time>
      </trkpt>
      <trkpt lat="45.7862" lon="6.14748">
        <ele>869</ele>
        <time>2021-12-28T08:27:45Z</time>
      </trkpt>
      <trkpt lat="45.7866" lon="6.14751">
        <ele>862</ele>
        <time>2021-12-28T08:27:52Z</time>
      </trkpt>
      <trkpt lat="45.78703" lon="6.1476">
        <ele>859</ele>
        <time>2021-12-28T08:27:59Z</time>
      </trkpt>
      <trkpt lat="45.78772" lon="6.1476">
        <ele>852</ele>
        <time>2021-12-28T08:28:12Z</time>
      </trkpt>
      <trkpt lat="45.78808" lon="6.14751">
        <ele>848</ele>
        <time>2021-12-28T08:28:18Z</time>
      </trkpt>
      <trkpt lat="45.7886" lon="6.14771">
        <ele>846</ele>
        <time>2021-12-28T08:28:28Z</time>
      </trkpt>
      <trkpt lat="45.78891" lon="6.14757">
        <ele>841</ele>
        <time>2021-12-28T08:28:34Z</time>
      </trkpt>
      <trkpt lat="45.78909" lon="6.14767">
        <ele>840</ele>
        <time>2021-12-28T08:28:37Z</time>
      </trkpt>
      <trkpt lat="45.78949" lon="6.14831">
        <ele>835</ele>
        <time>2021-12-28T08:28:48Z</time>
      </trkpt>
      <trkpt lat="45.7897" lon="6.1488">
        <ele>832</ele>
        <time>2021-12-28T08:28:55Z</time>
      </trkpt>
      <trkpt lat="45.78977" lon="6.14934">
        <ele>830</ele>
        <time>2021-12-28T08:29:02Z</time>
      </trkpt>
      <trkpt lat="45.78969" lon="6.14979">
        <ele>831</ele>
        <time>2021-12-28T08:29:07Z</time>
      </trkpt>
      <trkpt lat="45.78974" lon="6.14995">
        <ele>830</ele>
        <time>2021-12-28T08:29:10Z</time>
      </trkpt>
      <trkpt lat="45.78982" lon="6.15002">
        <ele>828</ele>
        <time>2021-12-28T08:29:11Z</time>
      </trkpt>
      <trkpt lat="45.78993" lon="6.15001">
        <ele>825</ele>
        <time>2021-12-28T08:29:13Z</time>
      </trkpt>
      <trkpt lat="45.79002" lon="6.14992">
        <ele>824</ele>
        <time>2021-12-28T08:29:15Z</time>
      </trkpt>
      <trkpt lat="45.79014" lon="6.14944">
        <ele>822</ele>
        <time>2021-12-28T08:29:21Z</time>
      </trkpt>
      <trkpt lat="45.7906" lon="6.14854">
        <ele>816</ele>
        <time>2021-12-28T08:29:35Z</time>
      </trkpt>
      <trkpt lat="45.79066" lon="6.14764">
        <ele>818</ele>
        <time>2021-12-28T08:29:46Z</time>
      </trkpt>
      <trkpt lat="45.79074" lon="6.14752">
        <ele>817</ele>
        <time>2021-12-28T08:29:49Z</time>
      </trkpt>
      <trkpt lat="45.79086" lon="6.1475">
        <ele>814</ele>
        <time>2021-12-28T08:29:51Z</time>
      </trkpt>
      <trkpt lat="45.79095" lon="6.14754">
        <ele>813</ele>
        <time>2021-12-28T08:29:52Z</time>
      </trkpt>
      <trkpt lat="45.79101" lon="6.14768">
        <ele>811</ele>
        <time>2021-12-28T08:29:54Z</time>
      </trkpt>
      <trkpt lat="45.7911" lon="6.14878">
        <ele>807</ele>
        <time>2021-12-28T08:30:08Z</time>
      </trkpt>
      <trkpt lat="45.79117" lon="6.1491">
        <ele>804</ele>
        <time>2021-12-28T08:30:12Z</time>
      </trkpt>
      <trkpt lat="45.79155" lon="6.1502">
        <ele>799</ele>
        <time>2021-12-28T08:30:28Z</time>
      </trkpt>
      <trkpt lat="45.7916" lon="6.1504">
        <ele>799</ele>
        <time>2021-12-28T08:30:30Z</time>
      </trkpt>
      <trkpt lat="45.79157" lon="6.15062">
        <ele>800</ele>
        <time>2021-12-28T08:30:33Z</time>
      </trkpt>
      <trkpt lat="45.79138" lon="6.15088">
        <ele>804</ele>
        <time>2021-12-28T08:30:38Z</time>
      </trkpt>
      <trkpt lat="45.79136" lon="6.15108">
        <ele>804</ele>
        <time>2021-12-28T08:30:40Z</time>
      </trkpt>
      <trkpt lat="45.79142" lon="6.15122">
        <ele>802</ele>
        <time>2021-12-28T08:30:42Z</time>
      </trkpt>
      <trkpt lat="45.79153" lon="6.15125">
        <ele>800</ele>
        <time>2021-12-28T08:30:44Z</time>
      </trkpt>
      <trkpt lat="45.79165" lon="6.15117">
        <ele>798</ele>
        <time>2021-12-28T08:30:47Z</time>
      </trkpt>
      <trkpt lat="45.7919" lon="6.15085">
        <ele>793</ele>
        <time>2021-12-28T08:30:52Z</time>
      </trkpt>
      <trkpt lat="45.79215" lon="6.15042">
        <ele>786</ele>
        <time>2021-12-28T08:30:59Z</time>
      </trkpt>
      <trkpt lat="45.79249" lon="6.1496">
        <ele>778</ele>
        <time>2021-12-28T08:31:11Z</time>
      </trkpt>
      <trkpt lat="45.79252" lon="6.1492">
        <ele>777</ele>
        <time>2021-12-28T08:31:16Z</time>
      </trkpt>
      <trkpt lat="45.79259" lon="6.14902">
        <ele>776</ele>
        <time>2021-12-28T08:31:19Z</time>
      </trkpt>
      <trkpt lat="45.79274" lon="6.14886">
        <ele>775</ele>
        <time>2021-12-28T08:31:22Z</time>
      </trkpt>
      <trkpt lat="45.79289" lon="6.14868">
        <ele>774</ele>
        <time>2021-12-28T08:31:26Z</time>
      </trkpt>
      <trkpt lat="45.79315" lon="6.1482">
        <ele>772</ele>
        <time>2021-12-28T08:31:33Z</time>
      </trkpt>
      <trkpt lat="45.79361" lon="6.1478">
        <ele>764</ele>
        <time>2021-12-28T08:31:43Z</time>
      </trkpt>
      <trkpt lat="45.7937" lon="6.1476">
        <ele>762</ele>
        <time>2021-12-28T08:31:46Z</time>
      </trkpt>
      <trkpt lat="45.79369" lon="6.1474">
        <ele>761</ele>
        <time>2021-12-28T08:31:48Z</time>
      </trkpt>
      <trkpt lat="45.7935" lon="6.14695">
        <ele>760</ele>
        <time>2021-12-28T08:31:55Z</time>
      </trkpt>
      <trkpt lat="45.79347" lon="6.14676">
        <ele>758</ele>
        <time>2021-12-28T08:31:57Z</time>
      </trkpt>
      <trkpt lat="45.79352" lon="6.1466">
        <ele>756</ele>
        <time>2021-12-28T08:31:59Z</time>
      </trkpt>
      <trkpt lat="45.79362" lon="6.14653">
        <ele>754</ele>
        <time>2021-12-28T08:32:01Z</time>
      </trkpt>
      <trkpt lat="45.79376" lon="6.14658">
        <ele>753</ele>
        <time>2021-12-28T08:32:04Z</time>
      </trkpt>
      <trkpt lat="45.79418" lon="6.14704">
        <ele>751</ele>
        <time>2021-12-28T08:32:13Z</time>
      </trkpt>
      <trkpt lat="45.79429" lon="6.14731">
        <ele>751</ele>
        <time>2021-12-28T08:32:17Z</time>
      </trkpt>
      <trkpt lat="45.7943" lon="6.14753">
        <ele>753</ele>
        <time>2021-12-28T08:32:20Z</time>
      </trkpt>
      <trkpt lat="45.79435" lon="6.14774">
        <ele>752</ele>
        <time>2021-12-28T08:32:23Z</time>
      </trkpt>
      <trkpt lat="45.79444" lon="6.14785">
        <ele>750</ele>
        <time>2021-12-28T08:32:25Z</time>
      </trkpt>
      <trkpt lat="45.79469" lon="6.1479">
        <ele>746</ele>
        <time>2021-12-28T08:32:29Z</time>
      </trkpt>
      <trkpt lat="45.79481" lon="6.148">
        <ele>744</ele>
        <time>2021-12-28T08:32:32Z</time>
      </trkpt>
      <trkpt lat="45.79489" lon="6.14825">
        <ele>742</ele>
        <time>2021-12-28T08:32:35Z</time>
      </trkpt>
      <trkpt lat="45.79497" lon="6.14842">
        <ele>740</ele>
        <time>2021-12-28T08:32:38Z</time>
      </trkpt>
      <trkpt lat="45.7951" lon="6.1485">
        <ele>738</ele>
        <time>2021-12-28T08:32:40Z</time>
      </trkpt>
      <trkpt lat="45.79536" lon="6.14849">
        <ele>736</ele>
        <time>2021-12-28T08:32:45Z</time>
      </trkpt>
      <trkpt lat="45.79549" lon="6.14845">
        <ele>735</ele>
        <time>2021-12-28T08:32:47Z</time>
      </trkpt>
      <trkpt lat="45.79564" lon="6.14835">
        <ele>735</ele>
        <time>2021-12-28T08:32:50Z</time>
      </trkpt>
      <trkpt lat="45.79574" lon="6.14834">
        <ele>734</ele>
        <time>2021-12-28T08:32:52Z</time>
      </trkpt>
      <trkpt lat="45.79581" lon="6.14837">
        <ele>733</ele>
        <time>2021-12-28T08:32:53Z</time>
      </trkpt>
      <trkpt lat="45.7959" lon="6.14845">
        <ele>732</ele>
        <time>2021-12-28T08:32:55Z</time>
      </trkpt>
      <trkpt lat="45.79594" lon="6.14856">
        <ele>731</ele>
        <time>2021-12-28T08:32:57Z</time>
      </trkpt>
      <trkpt lat="45.79596" lon="6.14868">
        <ele>730</ele>
        <time>2021-12-28T08:32:58Z</time>
      </trkpt>
      <trkpt lat="45.79593" lon="6.14884">
        <ele>730</ele>
        <time>2021-12-28T08:33:00Z</time>
      </trkpt>
      <trkpt lat="45.7959" lon="6.14891">
        <ele>730</ele>
        <time>2021-12-28T08:33:01Z</time>
      </trkpt>
      <trkpt lat="45.79581" lon="6.149">
        <ele>730</ele>
        <time>2021-12-28T08:33:03Z</time>
      </trkpt>
      <trkpt lat="45.79575" lon="6.14901">
        <ele>730</ele>
        <time>2021-12-28T08:33:04Z</time>
      </trkpt>
      <trkpt lat="45.79566" lon="6.14899">
        <ele>731</ele>
        <time>2021-12-28T08:33:06Z</time>
      </trkpt>
      <trkpt lat="45.79531" lon="6.14878">
        <ele>735</ele>
        <time>2021-12-28T08:33:13Z</time>
      </trkpt>
      <trkpt lat="45.7951" lon="6.14872">
        <ele>737</ele>
        <time>2021-12-28T08:33:16Z</time>
      </trkpt>
      <trkpt lat="45.7949" lon="6.1487">
        <ele>740</ele>
        <time>2021-12-28T08:33:20Z</time>
      </trkpt>
      <trkpt lat="45.79472" lon="6.14875">
        <ele>743</ele>
        <time>2021-12-28T08:33:23Z</time>
      </trkpt>
      <trkpt lat="45.79458" lon="6.14886">
        <ele>745</ele>
        <time>2021-12-28T08:33:26Z</time>
      </trkpt>
      <trkpt lat="45.79451" lon="6.14901">
        <ele>746</ele>
        <time>2021-12-28T08:33:28Z</time>
      </trkpt>
      <trkpt lat="45.79452" lon="6.14913">
        <ele>745</ele>
        <time>2021-12-28T08:33:30Z</time>
      </trkpt>
      <trkpt lat="45.79456" lon="6.1492">
        <ele>744</ele>
        <time>2021-12-28T08:33:31Z</time>
      </trkpt>
      <trkpt lat="45.79509" lon="6.14945">
        <ele>736</ele>
        <time>2021-12-28T08:33:41Z</time>
      </trkpt>
      <trkpt lat="45.79516" lon="6.14953">
        <ele>736</ele>
        <time>2021-12-28T08:33:42Z</time>
      </trkpt>
      <trkpt lat="45.79523" lon="6.14975">
        <ele>735</ele>
        <time>2021-12-28T08:33:45Z</time>
      </trkpt>
      <trkpt lat="45.79529" lon="6.15014">
        <ele>736</ele>
        <time>2021-12-28T08:33:50Z</time>
      </trkpt>
      <trkpt lat="45.79539" lon="6.15042">
        <ele>736</ele>
        <time>2021-12-28T08:33:54Z</time>
      </trkpt>
      <trkpt lat="45.79549" lon="6.15058">
        <ele>735</ele>
        <time>2021-12-28T08:33:57Z</time>
      </trkpt>
      <trkpt lat="45.79583" lon="6.15089">
        <ele>727</ele>
        <time>2021-12-28T08:34:04Z</time>
      </trkpt>
      <trkpt lat="45.79621" lon="6.1511">
        <ele>723</ele>
        <time>2021-12-28T08:34:11Z</time>
      </trkpt>
      <trkpt lat="45.79631" lon="6.15113">
        <ele>721</ele>
        <time>2021-12-28T08:34:13Z</time>
      </trkpt>
      <trkpt lat="45.79653" lon="6.15111">
        <ele>716</ele>
        <time>2021-12-28T08:34:17Z</time>
      </trkpt>
      <trkpt lat="45.79662" lon="6.15113">
        <ele>714</ele>
        <time>2021-12-28T08:34:19Z</time>
      </trkpt>
      <trkpt lat="45.79671" lon="6.1512">
        <ele>713</ele>
        <time>2021-12-28T08:34:21Z</time>
      </trkpt>
      <trkpt lat="45.79679" lon="6.15131">
        <ele>713</ele>
        <time>2021-12-28T08:34:23Z</time>
      </trkpt>
      <trkpt lat="45.79694" lon="6.15164">
        <ele>713</ele>
        <time>2021-12-28T08:34:27Z</time>
      </trkpt>
      <trkpt lat="45.79678" lon="6.15204">
        <ele>719</ele>
        <time>2021-12-28T08:34:33Z</time>
      </trkpt>
      <trkpt lat="45.79681" lon="6.15216">
        <ele>720</ele>
        <time>2021-12-28T08:34:35Z</time>
      </trkpt>
      <trkpt lat="45.7969" lon="6.15224">
        <ele>720</ele>
        <time>2021-12-28T08:34:37Z</time>
      </trkpt>
      <trkpt lat="45.79699" lon="6.15224">
        <ele>720</ele>
        <time>2021-12-28T08:34:38Z</time>
      </trkpt>
      <trkpt lat="45.79727" lon="6.15216">
        <ele>716</ele>
        <time>2021-12-28T08:34:43Z</time>
      </trkpt>
      <trkpt lat="45.79744" lon="6.15215">
        <ele>715</ele>
        <time>2021-12-28T08:34:46Z</time>
      </trkpt>
      <trkpt lat="45.79773" lon="6.1522">
        <ele>715</ele>
        <time>2021-12-28T08:34:52Z</time>
      </trkpt>
      <trkpt lat="45.79817" lon="6.15218">
        <ele>713</ele>
        <time>2021-12-28T08:34:59Z</time>
      </trkpt>
      <trkpt lat="45.7983" lon="6.15226">
        <ele>714</ele>
        <time>2021-12-28T08:35:02Z</time>
      </trkpt>
      <trkpt lat="45.79836" lon="6.15242">
        <ele>717</ele>
        <time>2021-12-28T08:35:04Z</time>
      </trkpt>
      <trkpt lat="45.79839" lon="6.15263">
        <ele>719</ele>
        <time>2021-12-28T08:35:07Z</time>
      </trkpt>
      <trkpt lat="45.79832" lon="6.15328">
        <ele>726</ele>
        <time>2021-12-28T08:35:15Z</time>
      </trkpt>
      <trkpt lat="45.7981" lon="6.15404">
        <ele>735</ele>
        <time>2021-12-28T08:35:25Z</time>
      </trkpt>
      <trkpt lat="45.79809" lon="6.15426">
        <ele>737</ele>
        <time>2021-12-28T08:35:28Z</time>
      </trkpt>
      <trkpt lat="45.79821" lon="6.15496">
        <ele>742</ele>
        <time>2021-12-28T08:35:37Z</time>
      </trkpt>
      <trkpt lat="45.79821" lon="6.15553">
        <ele>748</ele>
        <time>2021-12-28T08:35:44Z</time>
      </trkpt>
      <trkpt lat="45.79825" lon="6.15562">
        <ele>748</ele>
        <time>2021-12-28T08:35:45Z</time>
      </trkpt>
      <trkpt lat="45.79848" lon="6.15592">
        <ele>748</ele>
        <time>2021-12-28T08:35:51Z</time>
      </trkpt>
      <trkpt lat="45.79861" lon="6.15627">
        <ele>751</ele>
        <time>2021-12-28T08:35:56Z</time>
      </trkpt>
      <trkpt lat="45.79891" lon="6.15689">
        <ele>753</ele>
        <time>2021-12-28T08:36:05Z</time>
      </trkpt>
      <trkpt lat="45.79903" lon="6.15725">
        <ele>754</ele>
        <time>2021-12-28T08:36:10Z</time>
      </trkpt>
      <trkpt lat="45.79932" lon="6.15782">
        <ele>756</ele>
        <time>2021-12-28T08:36:19Z</time>
      </trkpt>
      <trkpt lat="45.79948" lon="6.15803">
        <ele>757</ele>
        <time>2021-12-28T08:36:23Z</time>
      </trkpt>
      <trkpt lat="45.79962" lon="6.15811">
        <ele>758</ele>
        <time>2021-12-28T08:36:25Z</time>
      </trkpt>
      <trkpt lat="45.79988" lon="6.15834">
        <ele>760</ele>
        <time>2021-12-28T08:36:31Z</time>
      </trkpt>
      <trkpt lat="45.79999" lon="6.15836">
        <ele>760</ele>
        <time>2021-12-28T08:36:33Z</time>
      </trkpt>
      <trkpt lat="45.8001" lon="6.15828">
        <ele>761</ele>
        <time>2021-12-28T08:36:35Z</time>
      </trkpt>
      <trkpt lat="45.80035" lon="6.15772">
        <ele>758</ele>
        <time>2021-12-28T08:36:43Z</time>
      </trkpt>
      <trkpt lat="45.80045" lon="6.15761">
        <ele>758</ele>
        <time>2021-12-28T08:36:45Z</time>
      </trkpt>
      <trkpt lat="45.80067" lon="6.15755">
        <ele>760</ele>
        <time>2021-12-28T08:36:49Z</time>
      </trkpt>
      <trkpt lat="45.80181" lon="6.15766">
        <ele>772</ele>
        <time>2021-12-28T08:37:10Z</time>
      </trkpt>
      <trkpt lat="45.80218" lon="6.15782">
        <ele>775</ele>
        <time>2021-12-28T08:37:17Z</time>
      </trkpt>
      <trkpt lat="45.80314" lon="6.15835">
        <ele>786</ele>
        <time>2021-12-28T08:37:35Z</time>
      </trkpt>
      <trkpt lat="45.80329" lon="6.15853">
        <ele>788</ele>
        <time>2021-12-28T08:37:38Z</time>
      </trkpt>
      <trkpt lat="45.80356" lon="6.15897">
        <ele>793</ele>
        <time>2021-12-28T08:37:46Z</time>
      </trkpt>
      <trkpt lat="45.80394" lon="6.15966">
        <ele>797</ele>
        <time>2021-12-28T08:37:57Z</time>
      </trkpt>
      <trkpt lat="45.80431" lon="6.16004">
        <ele>797</ele>
        <time>2021-12-28T08:38:05Z</time>
      </trkpt>
      <trkpt lat="45.80437" lon="6.16014">
        <ele>797</ele>
        <time>2021-12-28T08:38:06Z</time>
      </trkpt>
      <trkpt lat="45.80582" lon="6.16024">
        <ele>788</ele>
        <time>2021-12-28T08:38:32Z</time>
      </trkpt>
      <trkpt lat="45.80597" lon="6.16014">
        <ele>786</ele>
        <time>2021-12-28T08:38:35Z</time>
      </trkpt>
      <trkpt lat="45.80672" lon="6.15875">
        <ele>775</ele>
        <time>2021-12-28T08:38:57Z</time>
      </trkpt>
      <trkpt lat="45.80704" lon="6.15846">
        <ele>773</ele>
        <time>2021-12-28T08:39:04Z</time>
      </trkpt>
      <trkpt lat="45.80717" lon="6.15845">
        <ele>772</ele>
        <time>2021-12-28T08:39:06Z</time>
      </trkpt>
      <trkpt lat="45.80726" lon="6.15857">
        <ele>770</ele>
        <time>2021-12-28T08:39:08Z</time>
      </trkpt>
      <trkpt lat="45.80728" lon="6.15873">
        <ele>769</ele>
        <time>2021-12-28T08:39:10Z</time>
      </trkpt>
      <trkpt lat="45.80723" lon="6.15886">
        <ele>769</ele>
        <time>2021-12-28T08:39:12Z</time>
      </trkpt>
      <trkpt lat="45.80709" lon="6.15907">
        <ele>769</ele>
        <time>2021-12-28T08:39:16Z</time>
      </trkpt>
      <trkpt lat="45.80696" lon="6.15967">
        <ele>769</ele>
        <time>2021-12-28T08:39:23Z</time>
      </trkpt>
      <trkpt lat="45.80693" lon="6.1599">
        <ele>768</ele>
        <time>2021-12-28T08:39:26Z</time>
      </trkpt>
      <trkpt lat="45.80716" lon="6.16308">
        <ele>765</ele>
        <time>2021-12-28T08:40:06Z</time>
      </trkpt>
      <trkpt lat="45.80723" lon="6.1635">
        <ele>764</ele>
        <time>2021-12-28T08:40:11Z</time>
      </trkpt>
      <trkpt lat="45.8075" lon="6.16412">
        <ele>763</ele>
        <time>2021-12-28T08:40:20Z</time>
      </trkpt>
      <trkpt lat="45.80806" lon="6.16499">
        <ele>760</ele>
        <time>2021-12-28T08:40:35Z</time>
      </trkpt>
      <trkpt lat="45.80822" lon="6.16521">
        <ele>760</ele>
        <time>2021-12-28T08:40:39Z</time>
      </trkpt>
      <trkpt lat="45.80835" lon="6.16532">
        <ele>759</ele>
        <time>2021-12-28T08:40:42Z</time>
      </trkpt>
      <trkpt lat="45.80856" lon="6.16537">
        <ele>757</ele>
        <time>2021-12-28T08:40:45Z</time>
      </trkpt>
      <trkpt lat="45.8091" lon="6.1653">
        <ele>750</ele>
        <time>2021-12-28T08:40:55Z</time>
      </trkpt>
      <trkpt lat="45.80928" lon="6.16531">
        <ele>747</ele>
        <time>2021-12-28T08:40:58Z</time>
      </trkpt>
      <trkpt lat="45.80944" lon="6.16538">
        <ele>745</ele>
        <time>2021-12-28T08:41:01Z</time>
      </trkpt>
      <trkpt lat="45.80982" lon="6.16576">
        <ele>741</ele>
        <time>2021-12-28T08:41:09Z</time>
      </trkpt>
      <trkpt lat="45.80991" lon="6.16594">
        <ele>741</ele>
        <time>2021-12-28T08:41:12Z</time>
      </trkpt>
      <trkpt lat="45.80995" lon="6.16611">
        <ele>740</ele>
        <time>2021-12-28T08:41:14Z</time>
      </trkpt>
      <trkpt lat="45.80998" lon="6.16664">
        <ele>739</ele>
        <time>2021-12-28T08:41:21Z</time>
      </trkpt>
      <trkpt lat="45.81002" lon="6.16677">
        <ele>739</ele>
        <time>2021-12-28T08:41:23Z</time>
      </trkpt>
      <trkpt lat="45.81027" lon="6.16706">
        <ele>736</ele>
        <time>2021-12-28T08:41:29Z</time>
      </trkpt>
      <trkpt lat="45.81037" lon="6.16725">
        <ele>735</ele>
        <time>2021-12-28T08:41:31Z</time>
      </trkpt>
      <trkpt lat="45.81058" lon="6.16802">
        <ele>740</ele>
        <time>2021-12-28T08:41:42Z</time>
      </trkpt>
      <trkpt lat="45.81066" lon="6.16813">
        <ele>739</ele>
        <time>2021-12-28T08:41:44Z</time>
      </trkpt>
      <trkpt lat="45.81075" lon="6.16817">
        <ele>738</ele>
        <time>2021-12-28T08:41:45Z</time>
      </trkpt>
      <trkpt lat="45.8117" lon="6.16828">
        <ele>724</ele>
        <time>2021-12-28T08:42:02Z</time>
      </trkpt>
      <trkpt lat="45.81188" lon="6.16834">
        <ele>722</ele>
        <time>2021-12-28T08:42:06Z</time>
      </trkpt>
      <trkpt lat="45.81213" lon="6.16845">
        <ele>721</ele>
        <time>2021-12-28T08:42:10Z</time>
      </trkpt>
      <trkpt lat="45.81269" lon="6.1688">
        <ele>717</ele>
        <time>2021-12-28T08:42:21Z</time>
      </trkpt>
      <trkpt lat="45.81331" lon="6.1693">
        <ele>712</ele>
        <time>2021-12-28T08:42:34Z</time>
      </trkpt>
      <trkpt lat="45.81338" lon="6.16928">
        <ele>710</ele>
        <time>2021-12-28T08:42:35Z</time>
      </trkpt>
      <trkpt lat="45.81344" lon="6.16922">
        <ele>709</ele>
        <time>2021-12-28T08:42:36Z</time>
      </trkpt>
      <trkpt lat="45.81345" lon="6.16909">
        <ele>707</ele>
        <time>2021-12-28T08:42:38Z</time>
      </trkpt>
      <trkpt lat="45.8134" lon="6.16894">
        <ele>706</ele>
        <time>2021-12-28T08:42:40Z</time>
      </trkpt>
      <trkpt lat="45.81263" lon="6.16743">
        <ele>698</ele>
        <time>2021-12-28T08:43:03Z</time>
      </trkpt>
      <trkpt lat="45.81244" lon="6.16713">
        <ele>698</ele>
        <time>2021-12-28T08:43:08Z</time>
      </trkpt>
      <trkpt lat="45.8124" lon="6.167">
        <ele>698</ele>
        <time>2021-12-28T08:43:10Z</time>
      </trkpt>
      <trkpt lat="45.81243" lon="6.16689">
        <ele>696</ele>
        <time>2021-12-28T08:43:12Z</time>
      </trkpt>
      <trkpt lat="45.81249" lon="6.16682">
        <ele>695</ele>
        <time>2021-12-28T08:43:13Z</time>
      </trkpt>
      <trkpt lat="45.81256" lon="6.16681">
        <ele>694</ele>
        <time>2021-12-28T08:43:14Z</time>
      </trkpt>
      <trkpt lat="45.81262" lon="6.16684">
        <ele>693</ele>
        <time>2021-12-28T08:43:15Z</time>
      </trkpt>
      <trkpt lat="45.81293" lon="6.16715">
        <ele>692</ele>
        <time>2021-12-28T08:43:22Z</time>
      </trkpt>
      <trkpt lat="45.81361" lon="6.16773">
        <ele>687</ele>
        <time>2021-12-28T08:43:36Z</time>
      </trkpt>
      <trkpt lat="45.81408" lon="6.1681">
        <ele>684</ele>
        <time>2021-12-28T08:43:46Z</time>
      </trkpt>
      <trkpt lat="45.81419" lon="6.16821">
        <ele>684</ele>
        <time>2021-12-28T08:43:48Z</time>
      </trkpt>
      <trkpt lat="45.81507" lon="6.16951">
        <ele>679</ele>
        <time>2021-12-28T08:44:10Z</time>
      </trkpt>
      <trkpt lat="45.81535" lon="6.17011">
        <ele>675</ele>
        <time>2021-12-28T08:44:19Z</time>
      </trkpt>
      <trkpt lat="45.81589" lon="6.17105">
        <ele>665</ele>
        <time>2021-12-28T08:44:35Z</time>
      </trkpt>
      <trkpt lat="45.81629" lon="6.17151">
        <ele>662</ele>
        <time>2021-12-28T08:44:44Z</time>
      </trkpt>
      <trkpt lat="45.81663" lon="6.1718">
        <ele>659</ele>
        <time>2021-12-28T08:44:51Z</time>
      </trkpt>
      <trkpt lat="45.81671" lon="6.17191">
        <ele>658</ele>
        <time>2021-12-28T08:44:53Z</time>
      </trkpt>
      <trkpt lat="45.81676" lon="6.17201">
        <ele>657</ele>
        <time>2021-12-28T08:44:54Z</time>
      </trkpt>
      <trkpt lat="45.81684" lon="6.17246">
        <ele>656</ele>
        <time>2021-12-28T08:45:00Z</time>
      </trkpt>
      <trkpt lat="45.81688" lon="6.17255">
        <ele>656</ele>
        <time>2021-12-28T08:45:01Z</time>
      </trkpt>
      <trkpt lat="45.81697" lon="6.17258">
        <ele>654</ele>
        <time>2021-12-28T08:45:03Z</time>
      </trkpt>
      <trkpt lat="45.81703" lon="6.17255">
        <ele>653</ele>
        <time>2021-12-28T08:45:04Z</time>
      </trkpt>
      <trkpt lat="45.81705" lon="6.1725">
        <ele>652</ele>
        <time>2021-12-28T08:45:05Z</time>
      </trkpt>
      <trkpt lat="45.81708" lon="6.17241">
        <ele>651</ele>
        <time>2021-12-28T08:45:06Z</time>
      </trkpt>
      <trkpt lat="45.81705" lon="6.17148">
        <ele>646</ele>
        <time>2021-12-28T08:45:18Z</time>
      </trkpt>
      <trkpt lat="45.81702" lon="6.17131">
        <ele>645</ele>
        <time>2021-12-28T08:45:20Z</time>
      </trkpt>
      <trkpt lat="45.81661" lon="6.17008">
        <ele>639</ele>
        <time>2021-12-28T08:45:37Z</time>
      </trkpt>
      <trkpt lat="45.8166" lon="6.16997">
        <ele>637</ele>
        <time>2021-12-28T08:45:38Z</time>
      </trkpt>
      <trkpt lat="45.81664" lon="6.16989">
        <ele>635</ele>
        <time>2021-12-28T08:45:39Z</time>
      </trkpt>
      <trkpt lat="45.81671" lon="6.16986">
        <ele>633</ele>
        <time>2021-12-28T08:45:41Z</time>
      </trkpt>
      <trkpt lat="45.8168" lon="6.1699">
        <ele>632</ele>
        <time>2021-12-28T08:45:42Z</time>
      </trkpt>
      <trkpt lat="45.81695" lon="6.17007">
        <ele>632</ele>
        <time>2021-12-28T08:45:46Z</time>
      </trkpt>
      <trkpt lat="45.81704" lon="6.17013">
        <ele>631</ele>
        <time>2021-12-28T08:45:47Z</time>
      </trkpt>
      <trkpt lat="45.81737" lon="6.1702">
        <ele>625</ele>
        <time>2021-12-28T08:45:53Z</time>
      </trkpt>
      <trkpt lat="45.8175" lon="6.17035">
        <ele>624</ele>
        <time>2021-12-28T08:45:56Z</time>
      </trkpt>
      <trkpt lat="45.81775" lon="6.17077">
        <ele>622</ele>
        <time>2021-12-28T08:46:03Z</time>
      </trkpt>
      <trkpt lat="45.81822" lon="6.17166">
        <ele>620</ele>
        <time>2021-12-28T08:46:17Z</time>
      </trkpt>
      <trkpt lat="45.81851" lon="6.17209">
        <ele>615</ele>
        <time>2021-12-28T08:46:24Z</time>
      </trkpt>
      <trkpt lat="45.81854" lon="6.17219">
        <ele>614</ele>
        <time>2021-12-28T08:46:26Z</time>
      </trkpt>
      <trkpt lat="45.81856" lon="6.17231">
        <ele>614</ele>
        <time>2021-12-28T08:46:27Z</time>
      </trkpt>
      <trkpt lat="45.81853" lon="6.17257">
        <ele>614</ele>
        <time>2021-12-28T08:46:31Z</time>
      </trkpt>
      <trkpt lat="45.81855" lon="6.1727">
        <ele>614</ele>
        <time>2021-12-28T08:46:32Z</time>
      </trkpt>
      <trkpt lat="45.8186" lon="6.17276">
        <ele>613</ele>
        <time>2021-12-28T08:46:33Z</time>
      </trkpt>
      <trkpt lat="45.81867" lon="6.17278">
        <ele>612</ele>
        <time>2021-12-28T08:46:35Z</time>
      </trkpt>
      <trkpt lat="45.8188" lon="6.1727">
        <ele>610</ele>
        <time>2021-12-28T08:46:37Z</time>
      </trkpt>
      <trkpt lat="45.81899" lon="6.17264">
        <ele>607</ele>
        <time>2021-12-28T08:46:41Z</time>
      </trkpt>
      <trkpt lat="45.81918" lon="6.17263">
        <ele>605</ele>
        <time>2021-12-28T08:46:44Z</time>
      </trkpt>
      <trkpt lat="45.8193" lon="6.17257">
        <ele>603</ele>
        <time>2021-12-28T08:46:46Z</time>
      </trkpt>
      <trkpt lat="45.81939" lon="6.17249">
        <ele>601</ele>
        <time>2021-12-28T08:46:48Z</time>
      </trkpt>
      <trkpt lat="45.81955" lon="6.17226">
        <ele>598</ele>
        <time>2021-12-28T08:46:52Z</time>
      </trkpt>
      <trkpt lat="45.81957" lon="6.17212">
        <ele>597</ele>
        <time>2021-12-28T08:46:54Z</time>
      </trkpt>
      <trkpt lat="45.81955" lon="6.17198">
        <ele>597</ele>
        <time>2021-12-28T08:46:56Z</time>
      </trkpt>
      <trkpt lat="45.81935" lon="6.17169">
        <ele>600</ele>
        <time>2021-12-28T08:47:01Z</time>
      </trkpt>
      <trkpt lat="45.81933" lon="6.17161">
        <ele>600</ele>
        <time>2021-12-28T08:47:02Z</time>
      </trkpt>
      <trkpt lat="45.81934" lon="6.17151">
        <ele>599</ele>
        <time>2021-12-28T08:47:03Z</time>
      </trkpt>
      <trkpt lat="45.81946" lon="6.17118">
        <ele>596</ele>
        <time>2021-12-28T08:47:08Z</time>
      </trkpt>
      <trkpt lat="45.81949" lon="6.17085">
        <ele>593</ele>
        <time>2021-12-28T08:47:12Z</time>
      </trkpt>
      <trkpt lat="45.81926" lon="6.16923">
        <ele>584</ele>
        <time>2021-12-28T08:47:32Z</time>
      </trkpt>
      <trkpt lat="45.81928" lon="6.16911">
        <ele>583</ele>
        <time>2021-12-28T08:47:34Z</time>
      </trkpt>
      <trkpt lat="45.81932" lon="6.16905">
        <ele>582</ele>
        <time>2021-12-28T08:47:35Z</time>
      </trkpt>
      <trkpt lat="45.81941" lon="6.169">
        <ele>581</ele>
        <time>2021-12-28T08:47:37Z</time>
      </trkpt>
      <trkpt lat="45.81955" lon="6.16904">
        <ele>581</ele>
        <time>2021-12-28T08:47:39Z</time>
      </trkpt>
      <trkpt lat="45.81985" lon="6.16919">
        <ele>582</ele>
        <time>2021-12-28T08:47:45Z</time>
      </trkpt>
      <trkpt lat="45.82002" lon="6.16925">
        <ele>582</ele>
        <time>2021-12-28T08:47:48Z</time>
      </trkpt>
      <trkpt lat="45.82039" lon="6.16917">
        <ele>575</ele>
        <time>2021-12-28T08:47:55Z</time>
      </trkpt>
      <trkpt lat="45.82047" lon="6.16919">
        <ele>574</ele>
        <time>2021-12-28T08:47:56Z</time>
      </trkpt>
      <trkpt lat="45.82057" lon="6.16926">
        <ele>572</ele>
        <time>2021-12-28T08:47:58Z</time>
      </trkpt>
      <trkpt lat="45.82067" lon="6.16937">
        <ele>570</ele>
        <time>2021-12-28T08:48:00Z</time>
      </trkpt>
      <trkpt lat="45.82076" lon="6.1696">
        <ele>569</ele>
        <time>2021-12-28T08:48:03Z</time>
      </trkpt>
      <trkpt lat="45.82087" lon="6.17018">
        <ele>569</ele>
        <time>2021-12-28T08:48:11Z</time>
      </trkpt>
      <trkpt lat="45.82096" lon="6.17034">
        <ele>569</ele>
        <time>2021-12-28T08:48:14Z</time>
      </trkpt>
      <trkpt lat="45.82127" lon="6.17054">
        <ele>565</ele>
        <time>2021-12-28T08:48:20Z</time>
      </trkpt>
      <trkpt lat="45.82143" lon="6.17071">
        <ele>564</ele>
        <time>2021-12-28T08:48:23Z</time>
      </trkpt>
      <trkpt lat="45.82155" lon="6.1708">
        <ele>562</ele>
        <time>2021-12-28T08:48:26Z</time>
      </trkpt>
      <trkpt lat="45.82165" lon="6.17078">
        <ele>561</ele>
        <time>2021-12-28T08:48:27Z</time>
      </trkpt>
      <trkpt lat="45.8217" lon="6.1707">
        <ele>559</ele>
        <time>2021-12-28T08:48:29Z</time>
      </trkpt>
      <trkpt lat="45.82171" lon="6.17055">
        <ele>557</ele>
        <time>2021-12-28T08:48:30Z</time>
      </trkpt>
      <trkpt lat="45.82165" lon="6.17045">
        <ele>557</ele>
        <time>2021-12-28T08:48:32Z</time>
      </trkpt>
      <trkpt lat="45.82155" lon="6.17034">
        <ele>558</ele>
        <time>2021-12-28T08:48:34Z</time>
      </trkpt>
      <trkpt lat="45.82148" lon="6.17018">
        <ele>558</ele>
        <time>2021-12-28T08:48:37Z</time>
      </trkpt>
      <trkpt lat="45.82123" lon="6.16908">
        <ele>555</ele>
        <time>2021-12-28T08:48:51Z</time>
      </trkpt>
      <trkpt lat="45.82112" lon="6.16877">
        <ele>554</ele>
        <time>2021-12-28T08:48:55Z</time>
      </trkpt>
      <trkpt lat="45.82113" lon="6.16864">
        <ele>552</ele>
        <time>2021-12-28T08:48:57Z</time>
      </trkpt>
      <trkpt lat="45.82118" lon="6.16857">
        <ele>550</ele>
        <time>2021-12-28T08:48:58Z</time>
      </trkpt>
      <trkpt lat="45.82125" lon="6.16855">
        <ele>548</ele>
        <time>2021-12-28T08:49:00Z</time>
      </trkpt>
      <trkpt lat="45.82133" lon="6.16861">
        <ele>546</ele>
        <time>2021-12-28T08:49:01Z</time>
      </trkpt>
      <trkpt lat="45.82153" lon="6.16891">
        <ele>545</ele>
        <time>2021-12-28T08:49:06Z</time>
      </trkpt>
      <trkpt lat="45.82196" lon="6.16938">
        <ele>542</ele>
        <time>2021-12-28T08:49:16Z</time>
      </trkpt>
      <trkpt lat="45.82204" lon="6.16943">
        <ele>541</ele>
        <time>2021-12-28T08:49:17Z</time>
      </trkpt>
      <trkpt lat="45.82231" lon="6.16955">
        <ele>538</ele>
        <time>2021-12-28T08:49:22Z</time>
      </trkpt>
      <trkpt lat="45.82268" lon="6.1698">
        <ele>534</ele>
        <time>2021-12-28T08:49:30Z</time>
      </trkpt>
      <trkpt lat="45.82304" lon="6.16992">
        <ele>531</ele>
        <time>2021-12-28T08:49:36Z</time>
      </trkpt>
      <trkpt lat="45.82316" lon="6.16998">
        <ele>530</ele>
        <time>2021-12-28T08:49:39Z</time>
      </trkpt>
      <trkpt lat="45.82325" lon="6.17009">
        <ele>530</ele>
        <time>2021-12-28T08:49:41Z</time>
      </trkpt>
      <trkpt lat="45.82338" lon="6.17031">
        <ele>529</ele>
        <time>2021-12-28T08:49:44Z</time>
      </trkpt>
      <trkpt lat="45.82356" lon="6.17072">
        <ele>527</ele>
        <time>2021-12-28T08:49:50Z</time>
      </trkpt>
      <trkpt lat="45.82387" lon="6.17129">
        <ele>521</ele>
        <time>2021-12-28T08:49:59Z</time>
      </trkpt>
      <trkpt lat="45.82394" lon="6.17149">
        <ele>520</ele>
        <time>2021-12-28T08:50:02Z</time>
      </trkpt>
      <trkpt lat="45.82396" lon="6.17164">
        <ele>520</ele>
        <time>2021-12-28T08:50:04Z</time>
      </trkpt>
      <trkpt lat="45.82398" lon="6.17201">
        <ele>519</ele>
        <time>2021-12-28T08:50:09Z</time>
      </trkpt>
      <trkpt lat="45.82395" lon="6.17216">
        <ele>519</ele>
        <time>2021-12-28T08:50:10Z</time>
      </trkpt>
      <trkpt lat="45.82382" lon="6.17249">
        <ele>520</ele>
        <time>2021-12-28T08:50:15Z</time>
      </trkpt>
      <trkpt lat="45.8238" lon="6.17261">
        <ele>520</ele>
        <time>2021-12-28T08:50:17Z</time>
      </trkpt>
      <trkpt lat="45.82381" lon="6.17271">
        <ele>520</ele>
        <time>2021-12-28T08:50:18Z</time>
      </trkpt>
      <trkpt lat="45.82387" lon="6.17281">
        <ele>519</ele>
        <time>2021-12-28T08:50:20Z</time>
      </trkpt>
      <trkpt lat="45.82396" lon="6.17287">
        <ele>517</ele>
        <time>2021-12-28T08:50:21Z</time>
      </trkpt>
      <trkpt lat="45.82404" lon="6.17288">
        <ele>516</ele>
        <time>2021-12-28T08:50:23Z</time>
      </trkpt>
      <trkpt lat="45.8241" lon="6.17286">
        <ele>516</ele>
        <time>2021-12-28T08:50:24Z</time>
      </trkpt>
      <trkpt lat="45.82421" lon="6.17276">
        <ele>514</ele>
        <time>2021-12-28T08:50:26Z</time>
      </trkpt>
      <trkpt lat="45.82432" lon="6.17246">
        <ele>513</ele>
        <time>2021-12-28T08:50:30Z</time>
      </trkpt>
      <trkpt lat="45.82444" lon="6.17197">
        <ele>511</ele>
        <time>2021-12-28T08:50:37Z</time>
      </trkpt>
      <trkpt lat="45.82455" lon="6.17039">
        <ele>506</ele>
        <time>2021-12-28T08:50:56Z</time>
      </trkpt>
      <trkpt lat="45.82465" lon="6.16991">
        <ele>502</ele>
        <time>2021-12-28T08:51:03Z</time>
      </trkpt>
      <trkpt lat="45.82468" lon="6.16955">
        <ele>499</ele>
        <time>2021-12-28T08:51:07Z</time>
      </trkpt>
      <trkpt lat="45.82472" lon="6.16874">
        <ele>494</ele>
        <time>2021-12-28T08:51:17Z</time>
      </trkpt>
      <trkpt lat="45.82466" lon="6.16817">
        <ele>493</ele>
        <time>2021-12-28T08:51:24Z</time>
      </trkpt>
      <trkpt lat="45.82471" lon="6.16791">
        <ele>491</ele>
        <time>2021-12-28T08:51:28Z</time>
      </trkpt>
      <trkpt lat="45.82474" lon="6.16754">
        <ele>489</ele>
        <time>2021-12-28T08:51:32Z</time>
      </trkpt>
      <trkpt lat="45.82477" lon="6.16738">
        <ele>489</ele>
        <time>2021-12-28T08:51:34Z</time>
      </trkpt>
      <trkpt lat="45.82483" lon="6.1673">
        <ele>488</ele>
        <time>2021-12-28T08:51:36Z</time>
      </trkpt>
      <trkpt lat="45.82489" lon="6.16731">
        <ele>488</ele>
        <time>2021-12-28T08:51:37Z</time>
      </trkpt>
      <trkpt lat="45.82523" lon="6.16773">
        <ele>486</ele>
        <time>2021-12-28T08:51:45Z</time>
      </trkpt>
      <trkpt lat="45.82545" lon="6.16814">
        <ele>485</ele>
        <time>2021-12-28T08:51:51Z</time>
      </trkpt>
      <trkpt lat="45.82556" lon="6.16824">
        <ele>484</ele>
        <time>2021-12-28T08:51:54Z</time>
      </trkpt>
      <trkpt lat="45.82556" lon="6.16824">
        <ele>484</ele>
        <time>2021-12-28T08:51:54Z</time>
      </trkpt>
      <trkpt lat="45.82571" lon="6.16839">
        <ele>483</ele>
        <time>2021-12-28T08:51:57Z</time>
      </trkpt>
      <trkpt lat="45.82608" lon="6.16863">
        <ele>481</ele>
        <time>2021-12-28T08:52:04Z</time>
      </trkpt>
      <trkpt lat="45.82687" lon="6.16904">
        <ele>478</ele>
        <time>2021-12-28T08:52:19Z</time>
      </trkpt>
      <trkpt lat="45.8276" lon="6.16916">
        <ele>474</ele>
        <time>2021-12-28T08:52:32Z</time>
      </trkpt>
      <trkpt lat="45.82792" lon="6.16924">
        <ele>473</ele>
        <time>2021-12-28T08:52:38Z</time>
      </trkpt>
      <trkpt lat="45.82933" lon="6.17032">
        <ele>467</ele>
        <time>2021-12-28T08:53:06Z</time>
      </trkpt>
      <trkpt lat="45.82961" lon="6.17056">
        <ele>467</ele>
        <time>2021-12-28T08:53:12Z</time>
      </trkpt>
      <trkpt lat="45.83102" lon="6.17193">
        <ele>465</ele>
        <time>2021-12-28T08:53:43Z</time>
      </trkpt>
      <trkpt lat="45.83161" lon="6.17236">
        <ele>463</ele>
        <time>2021-12-28T08:53:54Z</time>
      </trkpt>
      <trkpt lat="45.83171" lon="6.17239">
        <ele>463</ele>
        <time>2021-12-28T08:53:56Z</time>
      </trkpt>
      <trkpt lat="45.83195" lon="6.17225">
        <ele>463</ele>
        <time>2021-12-28T08:54:01Z</time>
      </trkpt>
      <trkpt lat="45.83195" lon="6.17238">
        <ele>463</ele>
        <time>2021-12-28T08:54:02Z</time>
      </trkpt>
      <trkpt lat="45.83198" lon="6.17248">
        <ele>463</ele>
        <time>2021-12-28T08:54:04Z</time>
      </trkpt>
      <trkpt lat="45.83169" lon="6.17313">
        <ele>462</ele>
        <time>2021-12-28T08:54:13Z</time>
      </trkpt>
      <trkpt lat="45.83174" lon="6.17318">
        <ele>462</ele>
        <time>2021-12-28T08:54:14Z</time>
      </trkpt>
      <trkpt lat="45.82983" lon="6.17712">
        <ele>460</ele>
        <time>2021-12-28T08:55:14Z</time>
      </trkpt>
      <trkpt lat="45.82956" lon="6.17778">
        <ele>460</ele>
        <time>2021-12-28T08:55:23Z</time>
      </trkpt>
      <trkpt lat="45.82934" lon="6.1785">
        <ele>459</ele>
        <time>2021-12-28T08:55:33Z</time>
      </trkpt>
      <trkpt lat="45.8291" lon="6.17954">
        <ele>457</ele>
        <time>2021-12-28T08:55:47Z</time>
      </trkpt>
      <trkpt lat="45.8272" lon="6.18819">
        <ele>460</ele>
        <time>2021-12-28T08:57:39Z</time>
      </trkpt>
      <trkpt lat="45.82718" lon="6.18828">
        <ele>460</ele>
        <time>2021-12-28T08:57:40Z</time>
      </trkpt>
      <trkpt lat="45.82667" lon="6.19056">
        <ele>456</ele>
        <time>2021-12-28T08:58:10Z</time>
      </trkpt>
      <trkpt lat="45.82643" lon="6.19135">
        <ele>456</ele>
        <time>2021-12-28T08:58:21Z</time>
      </trkpt>
      <trkpt lat="45.82583" lon="6.19322">
        <ele>457</ele>
        <time>2021-12-28T08:58:46Z</time>
      </trkpt>
      <trkpt lat="45.82573" lon="6.19377">
        <ele>457</ele>
        <time>2021-12-28T08:58:53Z</time>
      </trkpt>
      <trkpt lat="45.82566" lon="6.19437">
        <ele>457</ele>
        <time>2021-12-28T08:59:01Z</time>
      </trkpt>
      <trkpt lat="45.82564" lon="6.19534">
        <ele>457</ele>
        <time>2021-12-28T08:59:13Z</time>
      </trkpt>
      <trkpt lat="45.82566" lon="6.19584">
        <ele>457</ele>
        <time>2021-12-28T08:59:19Z</time>
      </trkpt>
      <trkpt lat="45.82572" lon="6.1964">
        <ele>456</ele>
        <time>2021-12-28T08:59:26Z</time>
      </trkpt>
      <trkpt lat="45.82621" lon="6.19951">
        <ele>455</ele>
        <time>2021-12-28T09:00:06Z</time>
      </trkpt>
      <trkpt lat="45.82623" lon="6.19976">
        <ele>456</ele>
        <time>2021-12-28T09:00:09Z</time>
      </trkpt>
      <trkpt lat="45.82651" lon="6.20157">
        <ele>454</ele>
        <time>2021-12-28T09:00:32Z</time>
      </trkpt>
      <trkpt lat="45.82661" lon="6.20202">
        <ele>453</ele>
        <time>2021-12-28T09:00:38Z</time>
      </trkpt>
      <trkpt lat="45.82687" lon="6.20362">
        <ele>458</ele>
        <time>2021-12-28T09:00:58Z</time>
      </trkpt>
      <trkpt lat="45.82689" lon="6.20372">
        <ele>460</ele>
        <time>2021-12-28T09:00:59Z</time>
      </trkpt>
      <trkpt lat="45.8269" lon="6.20397">
        <ele>465</ele>
        <time>2021-12-28T09:01:02Z</time>
      </trkpt>
      <trkpt lat="45.82697" lon="6.20438">
        <ele>476</ele>
        <time>2021-12-28T09:01:08Z</time>
      </trkpt>
      <trkpt lat="45.82689" lon="6.20505">
        <ele>505</ele>
        <time>2021-12-28T09:01:16Z</time>
      </trkpt>
      <trkpt lat="45.82675" lon="6.20575">
        <ele>509</ele>
        <time>2021-12-28T09:01:25Z</time>
      </trkpt>
      <trkpt lat="45.82652" lon="6.20658">
        <ele>479</ele>
        <time>2021-12-28T09:01:36Z</time>
      </trkpt>
      <trkpt lat="45.82632" lon="6.20701">
        <ele>470</ele>
        <time>2021-12-28T09:01:42Z</time>
      </trkpt>
      <trkpt lat="45.82613" lon="6.20731">
        <ele>465</ele>
        <time>2021-12-28T09:01:47Z</time>
      </trkpt>
      <trkpt lat="45.82584" lon="6.20767">
        <ele>462</ele>
        <time>2021-12-28T09:01:54Z</time>
      </trkpt>
      <trkpt lat="45.82542" lon="6.20802">
        <ele>464</ele>
        <time>2021-12-28T09:02:03Z</time>
      </trkpt>
      <trkpt lat="45.8253" lon="6.2081">
        <ele>464</ele>
        <time>2021-12-28T09:02:05Z</time>
      </trkpt>
      <trkpt lat="45.82491" lon="6.20828">
        <ele>465</ele>
        <time>2021-12-28T09:02:13Z</time>
      </trkpt>
      <trkpt lat="45.8247" lon="6.20834">
        <ele>463</ele>
        <time>2021-12-28T09:02:16Z</time>
      </trkpt>
      <trkpt lat="45.82418" lon="6.2084">
        <ele>461</ele>
        <time>2021-12-28T09:02:26Z</time>
      </trkpt>
      <trkpt lat="45.82386" lon="6.20836">
        <ele>461</ele>
        <time>2021-12-28T09:02:31Z</time>
      </trkpt>
      <trkpt lat="45.82361" lon="6.20828">
        <ele>462</ele>
        <time>2021-12-28T09:02:36Z</time>
      </trkpt>
      <trkpt lat="45.82335" lon="6.20818">
        <ele>463</ele>
        <time>2021-12-28T09:02:41Z</time>
      </trkpt>
      <trkpt lat="45.82301" lon="6.20799">
        <ele>464</ele>
        <time>2021-12-28T09:02:47Z</time>
      </trkpt>
      <trkpt lat="45.82269" lon="6.20769">
        <ele>466</ele>
        <time>2021-12-28T09:02:54Z</time>
      </trkpt>
      <trkpt lat="45.822" lon="6.20693">
        <ele>470</ele>
        <time>2021-12-28T09:03:10Z</time>
      </trkpt>
      <trkpt lat="45.82171" lon="6.20667">
        <ele>470</ele>
        <time>2021-12-28T09:03:16Z</time>
      </trkpt>
      <trkpt lat="45.82146" lon="6.2065">
        <ele>473</ele>
        <time>2021-12-28T09:03:21Z</time>
      </trkpt>
      <trkpt lat="45.82123" lon="6.20638">
        <ele>475</ele>
        <time>2021-12-28T09:03:25Z</time>
      </trkpt>
      <trkpt lat="45.82075" lon="6.20624">
        <ele>474</ele>
        <time>2021-12-28T09:03:34Z</time>
      </trkpt>
      <trkpt lat="45.82024" lon="6.2062">
        <ele>471</ele>
        <time>2021-12-28T09:03:43Z</time>
      </trkpt>
      <trkpt lat="45.81995" lon="6.20625">
        <ele>467</ele>
        <time>2021-12-28T09:03:48Z</time>
      </trkpt>
      <trkpt lat="45.81956" lon="6.20639">
        <ele>464</ele>
        <time>2021-12-28T09:03:55Z</time>
      </trkpt>
      <trkpt lat="45.81951" lon="6.20642">
        <ele>464</ele>
        <time>2021-12-28T09:03:56Z</time>
      </trkpt>
      <trkpt lat="45.81848" lon="6.20687">
        <ele>460</ele>
        <time>2021-12-28T09:04:15Z</time>
      </trkpt>
      <trkpt lat="45.81814" lon="6.20699">
        <ele>460</ele>
        <time>2021-12-28T09:04:21Z</time>
      </trkpt>
      <trkpt lat="45.81355" lon="6.20806">
        <ele>467</ele>
        <time>2021-12-28T09:05:44Z</time>
      </trkpt>
      <trkpt lat="45.81351" lon="6.20807">
        <ele>467</ele>
        <time>2021-12-28T09:05:45Z</time>
      </trkpt>
      <trkpt lat="45.8124" lon="6.20834">
        <ele>466</ele>
        <time>2021-12-28T09:06:05Z</time>
      </trkpt>
      <trkpt lat="45.81126" lon="6.20872">
        <ele>467</ele>
        <time>2021-12-28T09:06:26Z</time>
      </trkpt>
      <trkpt lat="45.80963" lon="6.2093">
        <ele>469</ele>
        <time>2021-12-28T09:06:56Z</time>
      </trkpt>
      <trkpt lat="45.80955" lon="6.20936">
        <ele>469</ele>
        <time>2021-12-28T09:06:57Z</time>
      </trkpt>
      <trkpt lat="45.80946" lon="6.20947">
        <ele>469</ele>
        <time>2021-12-28T09:06:59Z</time>
      </trkpt>
      <trkpt lat="45.80942" lon="6.20949">
        <ele>469</ele>
        <time>2021-12-28T09:07:00Z</time>
      </trkpt>
      <trkpt lat="45.80924" lon="6.20946">
        <ele>470</ele>
        <time>2021-12-28T09:07:03Z</time>
      </trkpt>
      <trkpt lat="45.80918" lon="6.20947">
        <ele>470</ele>
        <time>2021-12-28T09:07:04Z</time>
      </trkpt>
      <trkpt lat="45.80405" lon="6.21128">
        <ele>469</ele>
        <time>2021-12-28T09:08:38Z</time>
      </trkpt>
      <trkpt lat="45.80369" lon="6.21136">
        <ele>468</ele>
        <time>2021-12-28T09:08:45Z</time>
      </trkpt>
      <trkpt lat="45.80284" lon="6.21145">
        <ele>467</ele>
        <time>2021-12-28T09:09:00Z</time>
      </trkpt>
      <trkpt lat="45.79487" lon="6.21166">
        <ele>457</ele>
        <time>2021-12-28T09:11:22Z</time>
      </trkpt>
      <trkpt lat="45.79389" lon="6.21184">
        <ele>454</ele>
        <time>2021-12-28T09:11:39Z</time>
      </trkpt>
      <trkpt lat="45.79352" lon="6.21197">
        <ele>453</ele>
        <time>2021-12-28T09:11:46Z</time>
      </trkpt>
      <trkpt lat="45.79345" lon="6.21199">
        <ele>452</ele>
        <time>2021-12-28T09:11:47Z</time>
      </trkpt>
      <trkpt lat="45.79319" lon="6.21209">
        <ele>452</ele>
        <time>2021-12-28T09:11:52Z</time>
      </trkpt>
      <trkpt lat="45.79241" lon="6.21252">
        <ele>453</ele>
        <time>2021-12-28T09:12:07Z</time>
      </trkpt>
      <trkpt lat="45.79234" lon="6.21258">
        <ele>453</ele>
        <time>2021-12-28T09:12:09Z</time>
      </trkpt>
      <trkpt lat="45.79223" lon="6.21267">
        <ele>453</ele>
        <time>2021-12-28T09:12:11Z</time>
      </trkpt>
      <trkpt lat="45.79146" lon="6.21332">
        <ele>455</ele>
        <time>2021-12-28T09:12:27Z</time>
      </trkpt>
      <trkpt lat="45.7891" lon="6.2156">
        <ele>456</ele>
        <time>2021-12-28T09:13:17Z</time>
      </trkpt>
      <trkpt lat="45.78858" lon="6.21606">
        <ele>455</ele>
        <time>2021-12-28T09:13:28Z</time>
      </trkpt>
      <trkpt lat="45.7881" lon="6.2166">
        <ele>454</ele>
        <time>2021-12-28T09:13:39Z</time>
      </trkpt>
      <trkpt lat="45.7872" lon="6.21778">
        <ele>457</ele>
        <time>2021-12-28T09:14:01Z</time>
      </trkpt>
      <trkpt lat="45.7871" lon="6.21794">
        <ele>457</ele>
        <time>2021-12-28T09:14:03Z</time>
      </trkpt>
      <trkpt lat="45.78706" lon="6.218">
        <ele>458</ele>
        <time>2021-12-28T09:14:04Z</time>
      </trkpt>
      <trkpt lat="45.78665" lon="6.21867">
        <ele>459</ele>
        <time>2021-12-28T09:14:16Z</time>
      </trkpt>
      <trkpt lat="45.78613" lon="6.21974">
        <ele>458</ele>
        <time>2021-12-28T09:14:32Z</time>
      </trkpt>
      <trkpt lat="45.78472" lon="6.22281">
        <ele>461</ele>
        <time>2021-12-28T09:15:17Z</time>
      </trkpt>
      <trkpt lat="45.78423" lon="6.22368">
        <ele>462</ele>
        <time>2021-12-28T09:15:31Z</time>
      </trkpt>
      <trkpt lat="45.7837" lon="6.22448">
        <ele>466</ele>
        <time>2021-12-28T09:15:45Z</time>
      </trkpt>
      <trkpt lat="45.78393" lon="6.22456">
        <ele>465</ele>
        <time>2021-12-28T09:15:49Z</time>
      </trkpt>
      <trkpt lat="45.78405" lon="6.22464">
        <ele>465</ele>
        <time>2021-12-28T09:15:51Z</time>
      </trkpt>
      <trkpt lat="45.78409" lon="6.22474">
        <ele>465</ele>
        <time>2021-12-28T09:15:53Z</time>
      </trkpt>
      <trkpt lat="45.78409" lon="6.22485">
        <ele>465</ele>
        <time>2021-12-28T09:15:54Z</time>
      </trkpt>
      <trkpt lat="45.78404" lon="6.22492">
        <ele>465</ele>
        <time>2021-12-28T09:15:55Z</time>
      </trkpt>
      <trkpt lat="45.78355" lon="6.22556">
        <ele>466</ele>
        <time>2021-12-28T09:16:07Z</time>
      </trkpt>
      <trkpt lat="45.78362" lon="6.22565">
        <ele>466</ele>
        <time>2021-12-28T09:16:09Z</time>
      </trkpt>
      <trkpt lat="45.78398" lon="6.22586">
        <ele>464</ele>
        <time>2021-12-28T09:16:16Z</time>
      </trkpt>
      <trkpt lat="45.78439" lon="6.226">
        <ele>463</ele>
        <time>2021-12-28T09:16:23Z</time>
      </trkpt>
      <trkpt lat="45.78458" lon="6.22611">
        <ele>463</ele>
        <time>2021-12-28T09:16:27Z</time>
      </trkpt>
      <trkpt lat="45.78478" lon="6.22629">
        <ele>463</ele>
        <time>2021-12-28T09:16:31Z</time>
      </trkpt>
      <trkpt lat="45.78486" lon="6.22643">
        <ele>462</ele>
        <time>2021-12-28T09:16:33Z</time>
      </trkpt>
      <trkpt lat="45.7849" lon="6.22656">
        <ele>462</ele>
        <time>2021-12-28T09:16:35Z</time>
      </trkpt>
      <trkpt lat="45.78495" lon="6.22714">
        <ele>461</ele>
        <time>2021-12-28T09:16:42Z</time>
      </trkpt>
      <trkpt lat="45.78498" lon="6.2278">
        <ele>460</ele>
        <time>2021-12-28T09:16:51Z</time>
      </trkpt>
      <trkpt lat="45.78493" lon="6.22874">
        <ele>461</ele>
        <time>2021-12-28T09:17:02Z</time>
      </trkpt>
      <trkpt lat="45.78493" lon="6.22916">
        <ele>461</ele>
        <time>2021-12-28T09:17:08Z</time>
      </trkpt>
      <trkpt lat="45.78495" lon="6.22935">
        <ele>460</ele>
        <time>2021-12-28T09:17:10Z</time>
      </trkpt>
      <trkpt lat="45.78505" lon="6.22988">
        <ele>458</ele>
        <time>2021-12-28T09:17:17Z</time>
      </trkpt>
      <trkpt lat="45.78511" lon="6.23051">
        <ele>458</ele>
        <time>2021-12-28T09:17:25Z</time>
      </trkpt>
      <trkpt lat="45.78538" lon="6.23049">
        <ele>458</ele>
        <time>2021-12-28T09:17:29Z</time>
      </trkpt>
      <trkpt lat="45.7858" lon="6.23054">
        <ele>458</ele>
        <time>2021-12-28T09:17:37Z</time>
      </trkpt>
      <trkpt lat="45.78829" lon="6.23137">
        <ele>456</ele>
        <time>2021-12-28T09:18:22Z</time>
      </trkpt>
      <trkpt lat="45.78843" lon="6.23137">
        <ele>456</ele>
        <time>2021-12-28T09:18:25Z</time>
      </trkpt>
      <trkpt lat="45.78862" lon="6.23143">
        <ele>456</ele>
        <time>2021-12-28T09:18:28Z</time>
      </trkpt>
      <trkpt lat="45.7888" lon="6.23154">
        <ele>456</ele>
        <time>2021-12-28T09:18:32Z</time>
      </trkpt>
      <trkpt lat="45.78911" lon="6.23164">
        <ele>456</ele>
        <time>2021-12-28T09:18:38Z</time>
      </trkpt>
      <trkpt lat="45.78938" lon="6.2317">
        <ele>456</ele>
        <time>2021-12-28T09:18:42Z</time>
      </trkpt>
      <trkpt lat="45.78965" lon="6.23171">
        <ele>456</ele>
        <time>2021-12-28T09:18:47Z</time>
      </trkpt>
      <trkpt lat="45.78989" lon="6.23169">
        <ele>456</ele>
        <time>2021-12-28T09:18:51Z</time>
      </trkpt>
      <trkpt lat="45.79058" lon="6.23155">
        <ele>457</ele>
        <time>2021-12-28T09:19:04Z</time>
      </trkpt>
      <trkpt lat="45.7914" lon="6.23145">
        <ele>456</ele>
        <time>2021-12-28T09:19:19Z</time>
      </trkpt>
      <trkpt lat="45.79161" lon="6.23146">
        <ele>455</ele>
        <time>2021-12-28T09:19:22Z</time>
      </trkpt>
      <trkpt lat="45.79176" lon="6.2315">
        <ele>455</ele>
        <time>2021-12-28T09:19:25Z</time>
      </trkpt>
      <trkpt lat="45.79194" lon="6.23158">
        <ele>455</ele>
        <time>2021-12-28T09:19:28Z</time>
      </trkpt>
      <trkpt lat="45.79212" lon="6.23172">
        <ele>455</ele>
        <time>2021-12-28T09:19:32Z</time>
      </trkpt>
      <trkpt lat="45.79247" lon="6.23205">
        <ele>455</ele>
        <time>2021-12-28T09:19:39Z</time>
      </trkpt>
      <trkpt lat="45.79268" lon="6.23219">
        <ele>455</ele>
        <time>2021-12-28T09:19:44Z</time>
      </trkpt>
      <trkpt lat="45.79291" lon="6.23226">
        <ele>455</ele>
        <time>2021-12-28T09:19:48Z</time>
      </trkpt>
      <trkpt lat="45.7932" lon="6.23228">
        <ele>455</ele>
        <time>2021-12-28T09:19:53Z</time>
      </trkpt>
      <trkpt lat="45.79793" lon="6.23137">
        <ele>464</ele>
        <time>2021-12-28T09:21:18Z</time>
      </trkpt>
      <trkpt lat="45.79819" lon="6.23129">
        <ele>464</ele>
        <time>2021-12-28T09:21:23Z</time>
      </trkpt>
      <trkpt lat="45.79842" lon="6.23117">
        <ele>463</ele>
        <time>2021-12-28T09:21:27Z</time>
      </trkpt>
      <trkpt lat="45.79868" lon="6.23095">
        <ele>458</ele>
        <time>2021-12-28T09:21:32Z</time>
      </trkpt>
      <trkpt lat="45.79883" lon="6.23077">
        <ele>455</ele>
        <time>2021-12-28T09:21:36Z</time>
      </trkpt>
      <trkpt lat="45.79933" lon="6.22997">
        <ele>451</ele>
        <time>2021-12-28T09:21:49Z</time>
      </trkpt>
      <trkpt lat="45.79988" lon="6.22935">
        <ele>451</ele>
        <time>2021-12-28T09:22:02Z</time>
      </trkpt>
      <trkpt lat="45.79995" lon="6.22923">
        <ele>451</ele>
        <time>2021-12-28T09:22:03Z</time>
      </trkpt>
      <trkpt lat="45.80025" lon="6.2291">
        <ele>450</ele>
        <time>2021-12-28T09:22:09Z</time>
      </trkpt>
      <trkpt lat="45.80039" lon="6.22907">
        <ele>450</ele>
        <time>2021-12-28T09:22:12Z</time>
      </trkpt>
      <trkpt lat="45.80099" lon="6.22904">
        <ele>450</ele>
        <time>2021-12-28T09:22:22Z</time>
      </trkpt>
      <trkpt lat="45.80099" lon="6.2291">
        <ele>450</ele>
        <time>2021-12-28T09:22:23Z</time>
      </trkpt>
      <trkpt lat="45.8012" lon="6.22911">
        <ele>450</ele>
        <time>2021-12-28T09:22:27Z</time>
      </trkpt>
      <trkpt lat="45.80133" lon="6.22915">
        <ele>450</ele>
        <time>2021-12-28T09:22:29Z</time>
      </trkpt>
      <trkpt lat="45.80219" lon="6.22958">
        <ele>456</ele>
        <time>2021-12-28T09:22:45Z</time>
      </trkpt>
      <trkpt lat="45.80322" lon="6.23027">
        <ele>458</ele>
        <time>2021-12-28T09:23:06Z</time>
      </trkpt>
      <trkpt lat="45.80457" lon="6.23151">
        <ele>456</ele>
        <time>2021-12-28T09:23:34Z</time>
      </trkpt>
      <trkpt lat="45.80472" lon="6.23162">
        <ele>457</ele>
        <time>2021-12-28T09:23:37Z</time>
      </trkpt>
      <trkpt lat="45.80492" lon="6.23172">
        <ele>458</ele>
        <time>2021-12-28T09:23:41Z</time>
      </trkpt>
      <trkpt lat="45.8052" lon="6.23182">
        <ele>459</ele>
        <time>2021-12-28T09:23:46Z</time>
      </trkpt>
      <trkpt lat="45.80545" lon="6.23193">
        <ele>460</ele>
        <time>2021-12-28T09:23:51Z</time>
      </trkpt>
      <trkpt lat="45.80583" lon="6.23223">
        <ele>466</ele>
        <time>2021-12-28T09:23:58Z</time>
      </trkpt>
      <trkpt lat="45.80596" lon="6.23227">
        <ele>467</ele>
        <time>2021-12-28T09:24:01Z</time>
      </trkpt>
      <trkpt lat="45.80613" lon="6.23224">
        <ele>466</ele>
        <time>2021-12-28T09:24:04Z</time>
      </trkpt>
      <trkpt lat="45.80657" lon="6.23208">
        <ele>461</ele>
        <time>2021-12-28T09:24:12Z</time>
      </trkpt>
      <trkpt lat="45.80669" lon="6.23205">
        <ele>460</ele>
        <time>2021-12-28T09:24:14Z</time>
      </trkpt>
      <trkpt lat="45.80682" lon="6.23205">
        <ele>460</ele>
        <time>2021-12-28T09:24:16Z</time>
      </trkpt>
      <trkpt lat="45.80712" lon="6.23214">
        <ele>465</ele>
        <time>2021-12-28T09:24:22Z</time>
      </trkpt>
      <trkpt lat="45.80724" lon="6.23216">
        <ele>466</ele>
        <time>2021-12-28T09:24:24Z</time>
      </trkpt>
      <trkpt lat="45.80774" lon="6.23203">
        <ele>463</ele>
        <time>2021-12-28T09:24:33Z</time>
      </trkpt>
      <trkpt lat="45.80809" lon="6.23202">
        <ele>464</ele>
        <time>2021-12-28T09:24:39Z</time>
      </trkpt>
      <trkpt lat="45.80819" lon="6.23197">
        <ele>462</ele>
        <time>2021-12-28T09:24:41Z</time>
      </trkpt>
      <trkpt lat="45.8085" lon="6.23174">
        <ele>455</ele>
        <time>2021-12-28T09:24:47Z</time>
      </trkpt>
      <trkpt lat="45.80866" lon="6.23167">
        <ele>454</ele>
        <time>2021-12-28T09:24:50Z</time>
      </trkpt>
      <trkpt lat="45.8089" lon="6.23164">
        <ele>456</ele>
        <time>2021-12-28T09:24:55Z</time>
      </trkpt>
      <trkpt lat="45.80928" lon="6.23168">
        <ele>460</ele>
        <time>2021-12-28T09:25:01Z</time>
      </trkpt>
      <trkpt lat="45.80957" lon="6.23167">
        <ele>462</ele>
        <time>2021-12-28T09:25:06Z</time>
      </trkpt>
      <trkpt lat="45.80974" lon="6.23162">
        <ele>462</ele>
        <time>2021-12-28T09:25:10Z</time>
      </trkpt>
      <trkpt lat="45.81049" lon="6.23134">
        <ele>465</ele>
        <time>2021-12-28T09:25:23Z</time>
      </trkpt>
      <trkpt lat="45.81162" lon="6.23112">
        <ele>470</ele>
        <time>2021-12-28T09:25:44Z</time>
      </trkpt>
      <trkpt lat="45.81181" lon="6.23104">
        <ele>469</ele>
        <time>2021-12-28T09:25:47Z</time>
      </trkpt>
      <trkpt lat="45.81218" lon="6.23084">
        <ele>465</ele>
        <time>2021-12-28T09:25:54Z</time>
      </trkpt>
      <trkpt lat="45.81244" lon="6.23075">
        <ele>468</ele>
        <time>2021-12-28T09:25:59Z</time>
      </trkpt>
      <trkpt lat="45.81315" lon="6.23062">
        <ele>469</ele>
        <time>2021-12-28T09:26:12Z</time>
      </trkpt>
      <trkpt lat="45.81333" lon="6.23064">
        <ele>470</ele>
        <time>2021-12-28T09:26:15Z</time>
      </trkpt>
      <trkpt lat="45.81362" lon="6.23074">
        <ele>474</ele>
        <time>2021-12-28T09:26:20Z</time>
      </trkpt>
      <trkpt lat="45.81373" lon="6.23075">
        <ele>474</ele>
        <time>2021-12-28T09:26:22Z</time>
      </trkpt>
      <trkpt lat="45.81392" lon="6.23068">
        <ele>472</ele>
        <time>2021-12-28T09:26:26Z</time>
      </trkpt>
      <trkpt lat="45.81416" lon="6.23049">
        <ele>465</ele>
        <time>2021-12-28T09:26:31Z</time>
      </trkpt>
      <trkpt lat="45.8147" lon="6.22998">
        <ele>452</ele>
        <time>2021-12-28T09:26:42Z</time>
      </trkpt>
      <trkpt lat="45.81502" lon="6.22981">
        <ele>452</ele>
        <time>2021-12-28T09:26:48Z</time>
      </trkpt>
      <trkpt lat="45.815" lon="6.22975">
        <ele>452</ele>
        <time>2021-12-28T09:26:49Z</time>
      </trkpt>
      <trkpt lat="45.8153" lon="6.22957">
        <ele>451</ele>
        <time>2021-12-28T09:26:55Z</time>
      </trkpt>
      <trkpt lat="45.81584" lon="6.2291">
        <ele>449</ele>
        <time>2021-12-28T09:27:06Z</time>
      </trkpt>
      <trkpt lat="45.81601" lon="6.22902">
        <ele>449</ele>
        <time>2021-12-28T09:27:09Z</time>
      </trkpt>
      <trkpt lat="45.81622" lon="6.22901">
        <ele>449</ele>
        <time>2021-12-28T09:27:13Z</time>
      </trkpt>
      <trkpt lat="45.81677" lon="6.22905">
        <ele>449</ele>
        <time>2021-12-28T09:27:23Z</time>
      </trkpt>
      <trkpt lat="45.81711" lon="6.22904">
        <ele>450</ele>
        <time>2021-12-28T09:27:29Z</time>
      </trkpt>
      <trkpt lat="45.81751" lon="6.22915">
        <ele>451</ele>
        <time>2021-12-28T09:27:36Z</time>
      </trkpt>
      <trkpt lat="45.81788" lon="6.2292">
        <ele>453</ele>
        <time>2021-12-28T09:27:43Z</time>
      </trkpt>
      <trkpt lat="45.81803" lon="6.22915">
        <ele>453</ele>
        <time>2021-12-28T09:27:45Z</time>
      </trkpt>
      <trkpt lat="45.81837" lon="6.22893">
        <ele>453</ele>
        <time>2021-12-28T09:27:52Z</time>
      </trkpt>
      <trkpt lat="45.81861" lon="6.22882">
        <ele>453</ele>
        <time>2021-12-28T09:27:56Z</time>
      </trkpt>
      <trkpt lat="45.81924" lon="6.22867">
        <ele>455</ele>
        <time>2021-12-28T09:28:08Z</time>
      </trkpt>
      <trkpt lat="45.81973" lon="6.22841">
        <ele>453</ele>
        <time>2021-12-28T09:28:17Z</time>
      </trkpt>
      <trkpt lat="45.81997" lon="6.22825">
        <ele>452</ele>
        <time>2021-12-28T09:28:22Z</time>
      </trkpt>
      <trkpt lat="45.82043" lon="6.22781">
        <ele>455</ele>
        <time>2021-12-28T09:28:32Z</time>
      </trkpt>
      <trkpt lat="45.82074" lon="6.22732">
        <ele>450</ele>
        <time>2021-12-28T09:28:40Z</time>
      </trkpt>
      <trkpt lat="45.82083" lon="6.22721">
        <ele>450</ele>
        <time>2021-12-28T09:28:42Z</time>
      </trkpt>
      <trkpt lat="45.82113" lon="6.22699">
        <ele>450</ele>
        <time>2021-12-28T09:28:48Z</time>
      </trkpt>
      <trkpt lat="45.8215" lon="6.22669">
        <ele>448</ele>
        <time>2021-12-28T09:28:56Z</time>
      </trkpt>
      <trkpt lat="45.82161" lon="6.22668">
        <ele>448</ele>
        <time>2021-12-28T09:28:57Z</time>
      </trkpt>
      <trkpt lat="45.82173" lon="6.2267">
        <ele>449</ele>
        <time>2021-12-28T09:29:00Z</time>
      </trkpt>
      <trkpt lat="45.82211" lon="6.22695">
        <ele>454</ele>
        <time>2021-12-28T09:29:07Z</time>
      </trkpt>
      <trkpt lat="45.82227" lon="6.22703">
        <ele>456</ele>
        <time>2021-12-28T09:29:10Z</time>
      </trkpt>
      <trkpt lat="45.82238" lon="6.22704">
        <ele>457</ele>
        <time>2021-12-28T09:29:12Z</time>
      </trkpt>
      <trkpt lat="45.82284" lon="6.22696">
        <ele>462</ele>
        <time>2021-12-28T09:29:20Z</time>
      </trkpt>
      <trkpt lat="45.82305" lon="6.22688">
        <ele>464</ele>
        <time>2021-12-28T09:29:24Z</time>
      </trkpt>
      <trkpt lat="45.82332" lon="6.22667">
        <ele>459</ele>
        <time>2021-12-28T09:29:30Z</time>
      </trkpt>
      <trkpt lat="45.82349" lon="6.22643">
        <ele>462</ele>
        <time>2021-12-28T09:29:34Z</time>
      </trkpt>
      <trkpt lat="45.8237" lon="6.22603">
        <ele>460</ele>
        <time>2021-12-28T09:29:40Z</time>
      </trkpt>
      <trkpt lat="45.82407" lon="6.22542">
        <ele>457</ele>
        <time>2021-12-28T09:29:50Z</time>
      </trkpt>
      <trkpt lat="45.82578" lon="6.22242">
        <ele>457</ele>
        <time>2021-12-28T09:30:38Z</time>
      </trkpt>
      <trkpt lat="45.82581" lon="6.22233">
        <ele>457</ele>
        <time>2021-12-28T09:30:39Z</time>
      </trkpt>
      <trkpt lat="45.82591" lon="6.22218">
        <ele>456</ele>
        <time>2021-12-28T09:30:42Z</time>
      </trkpt>
      <trkpt lat="45.82601" lon="6.22209">
        <ele>456</ele>
        <time>2021-12-28T09:30:44Z</time>
      </trkpt>
      <trkpt lat="45.82632" lon="6.22175">
        <ele>456</ele>
        <time>2021-12-28T09:30:51Z</time>
      </trkpt>
      <trkpt lat="45.82664" lon="6.22147">
        <ele>456</ele>
        <time>2021-12-28T09:30:58Z</time>
      </trkpt>
      <trkpt lat="45.82695" lon="6.22129">
        <ele>456</ele>
        <time>2021-12-28T09:31:04Z</time>
      </trkpt>
      <trkpt lat="45.82734" lon="6.22114">
        <ele>457</ele>
        <time>2021-12-28T09:31:11Z</time>
      </trkpt>
      <trkpt lat="45.82862" lon="6.22094">
        <ele>456</ele>
        <time>2021-12-28T09:31:34Z</time>
      </trkpt>
      <trkpt lat="45.8292" lon="6.22083">
        <ele>456</ele>
        <time>2021-12-28T09:31:44Z</time>
      </trkpt>
      <trkpt lat="45.82959" lon="6.22073">
        <ele>460</ele>
        <time>2021-12-28T09:31:51Z</time>
      </trkpt>
      <trkpt lat="45.83051" lon="6.2204">
        <ele>462</ele>
        <time>2021-12-28T09:32:08Z</time>
      </trkpt>
      <trkpt lat="45.83163" lon="6.21991">
        <ele>455</ele>
        <time>2021-12-28T09:32:29Z</time>
      </trkpt>
      <trkpt lat="45.83194" lon="6.21971">
        <ele>459</ele>
        <time>2021-12-28T09:32:35Z</time>
      </trkpt>
      <trkpt lat="45.83207" lon="6.2196">
        <ele>460</ele>
        <time>2021-12-28T09:32:38Z</time>
      </trkpt>
      <trkpt lat="45.83235" lon="6.21931">
        <ele>457</ele>
        <time>2021-12-28T09:32:44Z</time>
      </trkpt>
      <trkpt lat="45.83256" lon="6.21903">
        <ele>456</ele>
        <time>2021-12-28T09:32:49Z</time>
      </trkpt>
      <trkpt lat="45.83278" lon="6.21866">
        <ele>461</ele>
        <time>2021-12-28T09:32:55Z</time>
      </trkpt>
      <trkpt lat="45.83317" lon="6.21787">
        <ele>461</ele>
        <time>2021-12-28T09:33:07Z</time>
      </trkpt>
      <trkpt lat="45.83333" lon="6.21761">
        <ele>457</ele>
        <time>2021-12-28T09:33:11Z</time>
      </trkpt>
      <trkpt lat="45.83342" lon="6.2175">
        <ele>457</ele>
        <time>2021-12-28T09:33:13Z</time>
      </trkpt>
      <trkpt lat="45.83354" lon="6.21739">
        <ele>458</ele>
        <time>2021-12-28T09:33:16Z</time>
      </trkpt>
      <trkpt lat="45.83373" lon="6.21728">
        <ele>460</ele>
        <time>2021-12-28T09:33:19Z</time>
      </trkpt>
      <trkpt lat="45.83407" lon="6.21716">
        <ele>462</ele>
        <time>2021-12-28T09:33:26Z</time>
      </trkpt>
      <trkpt lat="45.83487" lon="6.21699">
        <ele>459</ele>
        <time>2021-12-28T09:33:40Z</time>
      </trkpt>
      <trkpt lat="45.83499" lon="6.21698">
        <ele>459</ele>
        <time>2021-12-28T09:33:42Z</time>
      </trkpt>
      <trkpt lat="45.83508" lon="6.21703">
        <ele>461</ele>
        <time>2021-12-28T09:33:44Z</time>
      </trkpt>
      <trkpt lat="45.83561" lon="6.217">
        <ele>461</ele>
        <time>2021-12-28T09:33:53Z</time>
      </trkpt>
      <trkpt lat="45.83657" lon="6.21699">
        <ele>463</ele>
        <time>2021-12-28T09:34:10Z</time>
      </trkpt>
      <trkpt lat="45.83693" lon="6.21708">
        <ele>468</ele>
        <time>2021-12-28T09:34:17Z</time>
      </trkpt>
      <trkpt lat="45.83735" lon="6.21704">
        <ele>470</ele>
        <time>2021-12-28T09:34:24Z</time>
      </trkpt>
      <trkpt lat="45.83822" lon="6.21711">
        <ele>476</ele>
        <time>2021-12-28T09:34:40Z</time>
      </trkpt>
      <trkpt lat="45.83853" lon="6.21709">
        <ele>478</ele>
        <time>2021-12-28T09:34:45Z</time>
      </trkpt>
      <trkpt lat="45.83913" lon="6.21698">
        <ele>480</ele>
        <time>2021-12-28T09:34:56Z</time>
      </trkpt>
      <trkpt lat="45.83942" lon="6.21689">
        <ele>481</ele>
        <time>2021-12-28T09:35:02Z</time>
      </trkpt>
      <trkpt lat="45.83959" lon="6.21676">
        <ele>481</ele>
        <time>2021-12-28T09:35:05Z</time>
      </trkpt>
      <trkpt lat="45.83962" lon="6.21681">
        <ele>482</ele>
        <time>2021-12-28T09:35:06Z</time>
      </trkpt>
      <trkpt lat="45.83969" lon="6.21682">
        <ele>482</ele>
        <time>2021-12-28T09:35:07Z</time>
      </trkpt>
      <trkpt lat="45.83975" lon="6.21675">
        <ele>482</ele>
        <time>2021-12-28T09:35:08Z</time>
      </trkpt>
      <trkpt lat="45.83975" lon="6.21667">
        <ele>481</ele>
        <time>2021-12-28T09:35:09Z</time>
      </trkpt>
      <trkpt lat="45.83991" lon="6.21667">
        <ele>482</ele>
        <time>2021-12-28T09:35:12Z</time>
      </trkpt>
      <trkpt lat="45.84013" lon="6.21656">
        <ele>483</ele>
        <time>2021-12-28T09:35:16Z</time>
      </trkpt>
      <trkpt lat="45.84073" lon="6.21611">
        <ele>488</ele>
        <time>2021-12-28T09:35:28Z</time>
      </trkpt>
      <trkpt lat="45.84193" lon="6.2151">
        <ele>494</ele>
        <time>2021-12-28T09:35:53Z</time>
      </trkpt>
      <trkpt lat="45.84209" lon="6.21494">
        <ele>493</ele>
        <time>2021-12-28T09:35:57Z</time>
      </trkpt>
      <trkpt lat="45.84223" lon="6.21477">
        <ele>493</ele>
        <time>2021-12-28T09:36:00Z</time>
      </trkpt>
      <trkpt lat="45.8424" lon="6.21444">
        <ele>492</ele>
        <time>2021-12-28T09:36:05Z</time>
      </trkpt>
      <trkpt lat="45.84252" lon="6.21412">
        <ele>491</ele>
        <time>2021-12-28T09:36:10Z</time>
      </trkpt>
      <trkpt lat="45.8427" lon="6.2135">
        <ele>494</ele>
        <time>2021-12-28T09:36:18Z</time>
      </trkpt>
      <trkpt lat="45.8428" lon="6.21324">
        <ele>496</ele>
        <time>2021-12-28T09:36:22Z</time>
      </trkpt>
      <trkpt lat="45.84294" lon="6.213">
        <ele>497</ele>
        <time>2021-12-28T09:36:25Z</time>
      </trkpt>
      <trkpt lat="45.84313" lon="6.21278">
        <ele>500</ele>
        <time>2021-12-28T09:36:30Z</time>
      </trkpt>
      <trkpt lat="45.84318" lon="6.21271">
        <ele>501</ele>
        <time>2021-12-28T09:36:31Z</time>
      </trkpt>
      <trkpt lat="45.84336" lon="6.2123">
        <ele>504</ele>
        <time>2021-12-28T09:36:37Z</time>
      </trkpt>
      <trkpt lat="45.84339" lon="6.21217">
        <ele>505</ele>
        <time>2021-12-28T09:36:39Z</time>
      </trkpt>
      <trkpt lat="45.8434" lon="6.21195">
        <ele>505</ele>
        <time>2021-12-28T09:36:41Z</time>
      </trkpt>
      <trkpt lat="45.84334" lon="6.21152">
        <ele>504</ele>
        <time>2021-12-28T09:36:47Z</time>
      </trkpt>
      <trkpt lat="45.84342" lon="6.21091">
        <ele>507</ele>
        <time>2021-12-28T09:36:55Z</time>
      </trkpt>
      <trkpt lat="45.84347" lon="6.21079">
        <ele>509</ele>
        <time>2021-12-28T09:36:56Z</time>
      </trkpt>
      <trkpt lat="45.84353" lon="6.21079">
        <ele>511</ele>
        <time>2021-12-28T09:36:57Z</time>
      </trkpt>
      <trkpt lat="45.84359" lon="6.21087">
        <ele>512</ele>
        <time>2021-12-28T09:36:59Z</time>
      </trkpt>
      <trkpt lat="45.84369" lon="6.21111">
        <ele>514</ele>
        <time>2021-12-28T09:37:02Z</time>
      </trkpt>
      <trkpt lat="45.84416" lon="6.21222">
        <ele>525</ele>
        <time>2021-12-28T09:37:18Z</time>
      </trkpt>
      <trkpt lat="45.84424" lon="6.21244">
        <ele>527</ele>
        <time>2021-12-28T09:37:21Z</time>
      </trkpt>
      <trkpt lat="45.84425" lon="6.21252">
        <ele>527</ele>
        <time>2021-12-28T09:37:22Z</time>
      </trkpt>
      <trkpt lat="45.84419" lon="6.21379">
        <ele>530</ele>
        <time>2021-12-28T09:37:38Z</time>
      </trkpt>
      <trkpt lat="45.84423" lon="6.21387">
        <ele>531</ele>
        <time>2021-12-28T09:37:39Z</time>
      </trkpt>
      <trkpt lat="45.84429" lon="6.21388">
        <ele>532</ele>
        <time>2021-12-28T09:37:41Z</time>
      </trkpt>
      <trkpt lat="45.84432" lon="6.21385">
        <ele>533</ele>
        <time>2021-12-28T09:37:41Z</time>
      </trkpt>
      <trkpt lat="45.84478" lon="6.21316">
        <ele>537</ele>
        <time>2021-12-28T09:37:53Z</time>
      </trkpt>
      <trkpt lat="45.8451" lon="6.21255">
        <ele>543</ele>
        <time>2021-12-28T09:38:02Z</time>
      </trkpt>
      <trkpt lat="45.8452" lon="6.2125">
        <ele>545</ele>
        <time>2021-12-28T09:38:04Z</time>
      </trkpt>
      <trkpt lat="45.84529" lon="6.21255">
        <ele>546</ele>
        <time>2021-12-28T09:38:06Z</time>
      </trkpt>
      <trkpt lat="45.84639" lon="6.21393">
        <ele>556</ele>
        <time>2021-12-28T09:38:32Z</time>
      </trkpt>
      <trkpt lat="45.84656" lon="6.21411">
        <ele>557</ele>
        <time>2021-12-28T09:38:36Z</time>
      </trkpt>
      <trkpt lat="45.84667" lon="6.21417">
        <ele>557</ele>
        <time>2021-12-28T09:38:38Z</time>
      </trkpt>
      <trkpt lat="45.84643" lon="6.21502">
        <ele>557</ele>
        <time>2021-12-28T09:38:49Z</time>
      </trkpt>
      <trkpt lat="45.84642" lon="6.21529">
        <ele>558</ele>
        <time>2021-12-28T09:38:53Z</time>
      </trkpt>
      <trkpt lat="45.84644" lon="6.21552">
        <ele>559</ele>
        <time>2021-12-28T09:38:56Z</time>
      </trkpt>
      <trkpt lat="45.84649" lon="6.21576">
        <ele>559</ele>
        <time>2021-12-28T09:38:59Z</time>
      </trkpt>
      <trkpt lat="45.84657" lon="6.21596">
        <ele>561</ele>
        <time>2021-12-28T09:39:01Z</time>
      </trkpt>
      <trkpt lat="45.84676" lon="6.21628">
        <ele>566</ele>
        <time>2021-12-28T09:39:07Z</time>
      </trkpt>
      <trkpt lat="45.84698" lon="6.21644">
        <ele>570</ele>
        <time>2021-12-28T09:39:11Z</time>
      </trkpt>
      <trkpt lat="45.84725" lon="6.21653">
        <ele>573</ele>
        <time>2021-12-28T09:39:16Z</time>
      </trkpt>
      <trkpt lat="45.84774" lon="6.21657">
        <ele>576</ele>
        <time>2021-12-28T09:39:25Z</time>
      </trkpt>
      <trkpt lat="45.84825" lon="6.21656">
        <ele>578</ele>
        <time>2021-12-28T09:39:34Z</time>
      </trkpt>
      <trkpt lat="45.84851" lon="6.21651">
        <ele>579</ele>
        <time>2021-12-28T09:39:38Z</time>
      </trkpt>
      <trkpt lat="45.85023" lon="6.21578">
        <ele>588</ele>
        <time>2021-12-28T09:40:10Z</time>
      </trkpt>
      <trkpt lat="45.85076" lon="6.21553">
        <ele>595</ele>
        <time>2021-12-28T09:40:20Z</time>
      </trkpt>
      <trkpt lat="45.85113" lon="6.21528">
        <ele>598</ele>
        <time>2021-12-28T09:40:28Z</time>
      </trkpt>
      <trkpt lat="45.85188" lon="6.21456">
        <ele>602</ele>
        <time>2021-12-28T09:40:44Z</time>
      </trkpt>
      <trkpt lat="45.852" lon="6.21448">
        <ele>604</ele>
        <time>2021-12-28T09:40:46Z</time>
      </trkpt>
      <trkpt lat="45.8521" lon="6.21449">
        <ele>607</ele>
        <time>2021-12-28T09:40:48Z</time>
      </trkpt>
      <trkpt lat="45.85216" lon="6.21454">
        <ele>608</ele>
        <time>2021-12-28T09:40:49Z</time>
      </trkpt>
      <trkpt lat="45.85221" lon="6.2146">
        <ele>610</ele>
        <time>2021-12-28T09:40:50Z</time>
      </trkpt>
      <trkpt lat="45.85224" lon="6.21467">
        <ele>611</ele>
        <time>2021-12-28T09:40:51Z</time>
      </trkpt>
      <trkpt lat="45.85224" lon="6.21477">
        <ele>612</ele>
        <time>2021-12-28T09:40:52Z</time>
      </trkpt>
      <trkpt lat="45.8522" lon="6.21496">
        <ele>613</ele>
        <time>2021-12-28T09:40:55Z</time>
      </trkpt>
      <trkpt lat="45.85154" lon="6.21607">
        <ele>614</ele>
        <time>2021-12-28T09:41:13Z</time>
      </trkpt>
      <trkpt lat="45.85162" lon="6.21614">
        <ele>616</ele>
        <time>2021-12-28T09:41:15Z</time>
      </trkpt>
      <trkpt lat="45.85171" lon="6.21611">
        <ele>617</ele>
        <time>2021-12-28T09:41:16Z</time>
      </trkpt>
      <trkpt lat="45.8521" lon="6.21556">
        <ele>618</ele>
        <time>2021-12-28T09:41:26Z</time>
      </trkpt>
      <trkpt lat="45.85232" lon="6.21535">
        <ele>620</ele>
        <time>2021-12-28T09:41:31Z</time>
      </trkpt>
      <trkpt lat="45.85253" lon="6.21517">
        <ele>622</ele>
        <time>2021-12-28T09:41:35Z</time>
      </trkpt>
      <trkpt lat="45.85282" lon="6.21504">
        <ele>626</ele>
        <time>2021-12-28T09:41:40Z</time>
      </trkpt>
      <trkpt lat="45.85322" lon="6.21492">
        <ele>633</ele>
        <time>2021-12-28T09:41:48Z</time>
      </trkpt>
      <trkpt lat="45.85333" lon="6.21484">
        <ele>634</ele>
        <time>2021-12-28T09:41:50Z</time>
      </trkpt>
      <trkpt lat="45.85342" lon="6.21473">
        <ele>636</ele>
        <time>2021-12-28T09:41:52Z</time>
      </trkpt>
      <trkpt lat="45.85347" lon="6.21459">
        <ele>637</ele>
        <time>2021-12-28T09:41:54Z</time>
      </trkpt>
      <trkpt lat="45.8535" lon="6.21411">
        <ele>636</ele>
        <time>2021-12-28T09:42:00Z</time>
      </trkpt>
      <trkpt lat="45.85352" lon="6.21402">
        <ele>636</ele>
        <time>2021-12-28T09:42:01Z</time>
      </trkpt>
      <trkpt lat="45.85359" lon="6.21388">
        <ele>638</ele>
        <time>2021-12-28T09:42:03Z</time>
      </trkpt>
      <trkpt lat="45.8537" lon="6.21375">
        <ele>640</ele>
        <time>2021-12-28T09:42:06Z</time>
      </trkpt>
      <trkpt lat="45.85378" lon="6.21369">
        <ele>642</ele>
        <time>2021-12-28T09:42:07Z</time>
      </trkpt>
      <trkpt lat="45.85459" lon="6.21326">
        <ele>651</ele>
        <time>2021-12-28T09:42:23Z</time>
      </trkpt>
      <trkpt lat="45.85472" lon="6.21324">
        <ele>652</ele>
        <time>2021-12-28T09:42:25Z</time>
      </trkpt>
      <trkpt lat="45.85515" lon="6.21329">
        <ele>656</ele>
        <time>2021-12-28T09:42:33Z</time>
      </trkpt>
      <trkpt lat="45.85535" lon="6.21322">
        <ele>658</ele>
        <time>2021-12-28T09:42:36Z</time>
      </trkpt>
      <trkpt lat="45.85583" lon="6.21287">
        <ele>657</ele>
        <time>2021-12-28T09:42:46Z</time>
      </trkpt>
      <trkpt lat="45.85609" lon="6.21274">
        <ele>657</ele>
        <time>2021-12-28T09:42:51Z</time>
      </trkpt>
      <trkpt lat="45.85637" lon="6.21268">
        <ele>658</ele>
        <time>2021-12-28T09:42:56Z</time>
      </trkpt>
      <trkpt lat="45.85685" lon="6.21267">
        <ele>660</ele>
        <time>2021-12-28T09:43:05Z</time>
      </trkpt>
      <trkpt lat="45.85713" lon="6.21268">
        <ele>662</ele>
        <time>2021-12-28T09:43:09Z</time>
      </trkpt>
      <trkpt lat="45.85733" lon="6.21271">
        <ele>664</ele>
        <time>2021-12-28T09:43:13Z</time>
      </trkpt>
      <trkpt lat="45.8575" lon="6.21276">
        <ele>667</ele>
        <time>2021-12-28T09:43:16Z</time>
      </trkpt>
      <trkpt lat="45.85778" lon="6.2129">
        <ele>672</ele>
        <time>2021-12-28T09:43:21Z</time>
      </trkpt>
      <trkpt lat="45.85818" lon="6.21315">
        <ele>677</ele>
        <time>2021-12-28T09:43:29Z</time>
      </trkpt>
      <trkpt lat="45.8586" lon="6.21349">
        <ele>682</ele>
        <time>2021-12-28T09:43:38Z</time>
      </trkpt>
      <trkpt lat="45.85881" lon="6.21358">
        <ele>684</ele>
        <time>2021-12-28T09:43:42Z</time>
      </trkpt>
      <trkpt lat="45.85901" lon="6.2136">
        <ele>685</ele>
        <time>2021-12-28T09:43:45Z</time>
      </trkpt>
      <trkpt lat="45.85937" lon="6.21353">
        <ele>687</ele>
        <time>2021-12-28T09:43:52Z</time>
      </trkpt>
      <trkpt lat="45.85961" lon="6.21353">
        <ele>687</ele>
        <time>2021-12-28T09:43:56Z</time>
      </trkpt>
      <trkpt lat="45.86023" lon="6.21365">
        <ele>689</ele>
        <time>2021-12-28T09:44:07Z</time>
      </trkpt>
      <trkpt lat="45.8605" lon="6.21374">
        <ele>689</ele>
        <time>2021-12-28T09:44:12Z</time>
      </trkpt>
      <trkpt lat="45.86078" lon="6.21391">
        <ele>689</ele>
        <time>2021-12-28T09:44:17Z</time>
      </trkpt>
      <trkpt lat="45.86095" lon="6.21411">
        <ele>688</ele>
        <time>2021-12-28T09:44:21Z</time>
      </trkpt>
      <trkpt lat="45.86102" lon="6.21426">
        <ele>688</ele>
        <time>2021-12-28T09:44:24Z</time>
      </trkpt>
      <trkpt lat="45.86104" lon="6.21443">
        <ele>687</ele>
        <time>2021-12-28T09:44:26Z</time>
      </trkpt>
      <trkpt lat="45.86097" lon="6.21528">
        <ele>687</ele>
        <time>2021-12-28T09:44:36Z</time>
      </trkpt>
      <trkpt lat="45.86097" lon="6.21538">
        <ele>687</ele>
        <time>2021-12-28T09:44:38Z</time>
      </trkpt>
      <trkpt lat="45.86101" lon="6.21547">
        <ele>687</ele>
        <time>2021-12-28T09:44:39Z</time>
      </trkpt>
      <trkpt lat="45.86109" lon="6.21555">
        <ele>686</ele>
        <time>2021-12-28T09:44:41Z</time>
      </trkpt>
      <trkpt lat="45.86119" lon="6.21559">
        <ele>685</ele>
        <time>2021-12-28T09:44:42Z</time>
      </trkpt>
      <trkpt lat="45.8614" lon="6.2156">
        <ele>682</ele>
        <time>2021-12-28T09:44:46Z</time>
      </trkpt>
      <trkpt lat="45.86151" lon="6.21566">
        <ele>680</ele>
        <time>2021-12-28T09:44:48Z</time>
      </trkpt>
      <trkpt lat="45.86157" lon="6.21574">
        <ele>679</ele>
        <time>2021-12-28T09:44:50Z</time>
      </trkpt>
      <trkpt lat="45.86177" lon="6.21609">
        <ele>678</ele>
        <time>2021-12-28T09:44:55Z</time>
      </trkpt>
      <trkpt lat="45.86188" lon="6.21625">
        <ele>679</ele>
        <time>2021-12-28T09:44:58Z</time>
      </trkpt>
      <trkpt lat="45.86262" lon="6.21706">
        <ele>684</ele>
        <time>2021-12-28T09:45:15Z</time>
      </trkpt>
      <trkpt lat="45.8629" lon="6.21733">
        <ele>686</ele>
        <time>2021-12-28T09:45:21Z</time>
      </trkpt>
      <trkpt lat="45.86374" lon="6.21789">
        <ele>692</ele>
        <time>2021-12-28T09:45:37Z</time>
      </trkpt>
      <trkpt lat="45.8642" lon="6.218">
        <ele>690</ele>
        <time>2021-12-28T09:45:46Z</time>
      </trkpt>
      <trkpt lat="45.86477" lon="6.21817">
        <ele>688</ele>
        <time>2021-12-28T09:45:56Z</time>
      </trkpt>
      <trkpt lat="45.86517" lon="6.21835">
        <ele>688</ele>
        <time>2021-12-28T09:46:03Z</time>
      </trkpt>
      <trkpt lat="45.86546" lon="6.21856">
        <ele>691</ele>
        <time>2021-12-28T09:46:09Z</time>
      </trkpt>
      <trkpt lat="45.86564" lon="6.21859">
        <ele>690</ele>
        <time>2021-12-28T09:46:12Z</time>
      </trkpt>
      <trkpt lat="45.86594" lon="6.21839">
        <ele>683</ele>
        <time>2021-12-28T09:46:18Z</time>
      </trkpt>
      <trkpt lat="45.86618" lon="6.21841">
        <ele>683</ele>
        <time>2021-12-28T09:46:22Z</time>
      </trkpt>
      <trkpt lat="45.86736" lon="6.21864">
        <ele>684</ele>
        <time>2021-12-28T09:46:44Z</time>
      </trkpt>
      <trkpt lat="45.86778" lon="6.21864">
        <ele>684</ele>
        <time>2021-12-28T09:46:51Z</time>
      </trkpt>
      <trkpt lat="45.86814" lon="6.2185">
        <ele>682</ele>
        <time>2021-12-28T09:46:58Z</time>
      </trkpt>
      <trkpt lat="45.86837" lon="6.2185">
        <ele>683</ele>
        <time>2021-12-28T09:47:02Z</time>
      </trkpt>
      <trkpt lat="45.86854" lon="6.21845">
        <ele>681</ele>
        <time>2021-12-28T09:47:05Z</time>
      </trkpt>
      <trkpt lat="45.86878" lon="6.21834">
        <ele>678</ele>
        <time>2021-12-28T09:47:09Z</time>
      </trkpt>
      <trkpt lat="45.86992" lon="6.21814">
        <ele>672</ele>
        <time>2021-12-28T09:47:30Z</time>
      </trkpt>
      <trkpt lat="45.87118" lon="6.21774">
        <ele>664</ele>
        <time>2021-12-28T09:47:53Z</time>
      </trkpt>
      <trkpt lat="45.87242" lon="6.21755">
        <ele>659</ele>
        <time>2021-12-28T09:48:15Z</time>
      </trkpt>
      <trkpt lat="45.87301" lon="6.21735">
        <ele>657</ele>
        <time>2021-12-28T09:48:26Z</time>
      </trkpt>
      <trkpt lat="45.87437" lon="6.2168">
        <ele>653</ele>
        <time>2021-12-28T09:48:51Z</time>
      </trkpt>
      <trkpt lat="45.87454" lon="6.21664">
        <ele>651</ele>
        <time>2021-12-28T09:48:55Z</time>
      </trkpt>
      <trkpt lat="45.8746" lon="6.21655">
        <ele>650</ele>
        <time>2021-12-28T09:48:56Z</time>
      </trkpt>
      <trkpt lat="45.87466" lon="6.21638">
        <ele>649</ele>
        <time>2021-12-28T09:48:58Z</time>
      </trkpt>
      <trkpt lat="45.87469" lon="6.21625">
        <ele>649</ele>
        <time>2021-12-28T09:49:00Z</time>
      </trkpt>
      <trkpt lat="45.87471" lon="6.2159">
        <ele>648</ele>
        <time>2021-12-28T09:49:05Z</time>
      </trkpt>
      <trkpt lat="45.8747" lon="6.21504">
        <ele>647</ele>
        <time>2021-12-28T09:49:15Z</time>
      </trkpt>
      <trkpt lat="45.87462" lon="6.21473">
        <ele>647</ele>
        <time>2021-12-28T09:49:19Z</time>
      </trkpt>
      <trkpt lat="45.87455" lon="6.21457">
        <ele>647</ele>
        <time>2021-12-28T09:49:22Z</time>
      </trkpt>
      <trkpt lat="45.87449" lon="6.21441">
        <ele>647</ele>
        <time>2021-12-28T09:49:24Z</time>
      </trkpt>
      <trkpt lat="45.87447" lon="6.21427">
        <ele>646</ele>
        <time>2021-12-28T09:49:26Z</time>
      </trkpt>
      <trkpt lat="45.87446" lon="6.21403">
        <ele>645</ele>
        <time>2021-12-28T09:49:29Z</time>
      </trkpt>
      <trkpt lat="45.87448" lon="6.21383">
        <ele>643</ele>
        <time>2021-12-28T09:49:31Z</time>
      </trkpt>
      <trkpt lat="45.87459" lon="6.21394">
        <ele>643</ele>
        <time>2021-12-28T09:49:33Z</time>
      </trkpt>
      <trkpt lat="45.87534" lon="6.21485">
        <ele>642</ele>
        <time>2021-12-28T09:49:51Z</time>
      </trkpt>
      <trkpt lat="45.87566" lon="6.21525">
        <ele>641</ele>
        <time>2021-12-28T09:49:59Z</time>
      </trkpt>
      <trkpt lat="45.8763" lon="6.21635">
        <ele>639</ele>
        <time>2021-12-28T09:50:16Z</time>
      </trkpt>
      <trkpt lat="45.87687" lon="6.21717">
        <ele>640</ele>
        <time>2021-12-28T09:50:31Z</time>
      </trkpt>
      <trkpt lat="45.87765" lon="6.21787">
        <ele>638</ele>
        <time>2021-12-28T09:50:47Z</time>
      </trkpt>
      <trkpt lat="45.87869" lon="6.21869">
        <ele>634</ele>
        <time>2021-12-28T09:51:08Z</time>
      </trkpt>
      <trkpt lat="45.8822" lon="6.22136">
        <ele>627</ele>
        <time>2021-12-28T09:52:19Z</time>
      </trkpt>
      <trkpt lat="45.88258" lon="6.22173">
        <ele>624</ele>
        <time>2021-12-28T09:52:27Z</time>
      </trkpt>
      <trkpt lat="45.88359" lon="6.22284">
        <ele>621</ele>
        <time>2021-12-28T09:52:50Z</time>
      </trkpt>
      <trkpt lat="45.8849" lon="6.2241">
        <ele>616</ele>
        <time>2021-12-28T09:53:18Z</time>
      </trkpt>
      <trkpt lat="45.88584" lon="6.22497">
        <ele>611</ele>
        <time>2021-12-28T09:53:38Z</time>
      </trkpt>
      <trkpt lat="45.88622" lon="6.22517">
        <ele>610</ele>
        <time>2021-12-28T09:53:45Z</time>
      </trkpt>
      <trkpt lat="45.88658" lon="6.22529">
        <ele>607</ele>
        <time>2021-12-28T09:53:51Z</time>
      </trkpt>
      <trkpt lat="45.88732" lon="6.22547">
        <ele>602</ele>
        <time>2021-12-28T09:54:05Z</time>
      </trkpt>
      <trkpt lat="45.88768" lon="6.22565">
        <ele>600</ele>
        <time>2021-12-28T09:54:11Z</time>
      </trkpt>
      <trkpt lat="45.88916" lon="6.22652">
        <ele>599</ele>
        <time>2021-12-28T09:54:40Z</time>
      </trkpt>
      <trkpt lat="45.89021" lon="6.2271">
        <ele>605</ele>
        <time>2021-12-28T09:55:00Z</time>
      </trkpt>
      <trkpt lat="45.89101" lon="6.22753">
        <ele>600</ele>
        <time>2021-12-28T09:55:15Z</time>
      </trkpt>
      <trkpt lat="45.89115" lon="6.22765">
        <ele>598</ele>
        <time>2021-12-28T09:55:18Z</time>
      </trkpt>
      <trkpt lat="45.89128" lon="6.22785">
        <ele>597</ele>
        <time>2021-12-28T09:55:21Z</time>
      </trkpt>
      <trkpt lat="45.89136" lon="6.22803">
        <ele>596</ele>
        <time>2021-12-28T09:55:24Z</time>
      </trkpt>
      <trkpt lat="45.89144" lon="6.22844">
        <ele>594</ele>
        <time>2021-12-28T09:55:29Z</time>
      </trkpt>
      <trkpt lat="45.89144" lon="6.22879">
        <ele>591</ele>
        <time>2021-12-28T09:55:34Z</time>
      </trkpt>
      <trkpt lat="45.89139" lon="6.22909">
        <ele>590</ele>
        <time>2021-12-28T09:55:37Z</time>
      </trkpt>
      <trkpt lat="45.89133" lon="6.22932">
        <ele>590</ele>
        <time>2021-12-28T09:55:40Z</time>
      </trkpt>
      <trkpt lat="45.8909" lon="6.23059">
        <ele>588</ele>
        <time>2021-12-28T09:55:58Z</time>
      </trkpt>
      <trkpt lat="45.89072" lon="6.23118">
        <ele>585</ele>
        <time>2021-12-28T09:56:06Z</time>
      </trkpt>
      <trkpt lat="45.89054" lon="6.23204">
        <ele>584</ele>
        <time>2021-12-28T09:56:17Z</time>
      </trkpt>
      <trkpt lat="45.89049" lon="6.23269">
        <ele>583</ele>
        <time>2021-12-28T09:56:25Z</time>
      </trkpt>
      <trkpt lat="45.89048" lon="6.23343">
        <ele>581</ele>
        <time>2021-12-28T09:56:34Z</time>
      </trkpt>
      <trkpt lat="45.89049" lon="6.23378">
        <ele>580</ele>
        <time>2021-12-28T09:56:39Z</time>
      </trkpt>
      <trkpt lat="45.89056" lon="6.23407">
        <ele>579</ele>
        <time>2021-12-28T09:56:42Z</time>
      </trkpt>
      <trkpt lat="45.89051" lon="6.23408">
        <ele>579</ele>
        <time>2021-12-28T09:56:43Z</time>
      </trkpt>
      <trkpt lat="45.89047" lon="6.23412">
        <ele>580</ele>
        <time>2021-12-28T09:56:44Z</time>
      </trkpt>
      <trkpt lat="45.89044" lon="6.23419">
        <ele>580</ele>
        <time>2021-12-28T09:56:45Z</time>
      </trkpt>
      <trkpt lat="45.89044" lon="6.23429">
        <ele>580</ele>
        <time>2021-12-28T09:56:47Z</time>
      </trkpt>
      <trkpt lat="45.89048" lon="6.23436">
        <ele>580</ele>
        <time>2021-12-28T09:56:48Z</time>
      </trkpt>
      <trkpt lat="45.89053" lon="6.2344">
        <ele>579</ele>
        <time>2021-12-28T09:56:49Z</time>
      </trkpt>
      <trkpt lat="45.8906" lon="6.23439">
        <ele>579</ele>
        <time>2021-12-28T09:56:50Z</time>
      </trkpt>
      <trkpt lat="45.89059" lon="6.23458">
        <ele>579</ele>
        <time>2021-12-28T09:56:52Z</time>
      </trkpt>
      <trkpt lat="45.8906" lon="6.23487">
        <ele>579</ele>
        <time>2021-12-28T09:56:56Z</time>
      </trkpt>
      <trkpt lat="45.89124" lon="6.23954">
        <ele>580</ele>
        <time>2021-12-28T09:57:55Z</time>
      </trkpt>
      <trkpt lat="45.89134" lon="6.24012">
        <ele>580</ele>
        <time>2021-12-28T09:58:02Z</time>
      </trkpt>
      <trkpt lat="45.89149" lon="6.24126">
        <ele>580</ele>
        <time>2021-12-28T09:58:17Z</time>
      </trkpt>
      <trkpt lat="45.89151" lon="6.24202">
        <ele>577</ele>
        <time>2021-12-28T09:58:26Z</time>
      </trkpt>
      <trkpt lat="45.89144" lon="6.24269">
        <ele>573</ele>
        <time>2021-12-28T09:58:34Z</time>
      </trkpt>
      <trkpt lat="45.89109" lon="6.2443">
        <ele>572</ele>
        <time>2021-12-28T09:58:55Z</time>
      </trkpt>
      <trkpt lat="45.89103" lon="6.24486">
        <ele>575</ele>
        <time>2021-12-28T09:59:02Z</time>
      </trkpt>
      <trkpt lat="45.89101" lon="6.2457">
        <ele>578</ele>
        <time>2021-12-28T09:59:13Z</time>
      </trkpt>
      <trkpt lat="45.89106" lon="6.24631">
        <ele>574</ele>
        <time>2021-12-28T09:59:20Z</time>
      </trkpt>
      <trkpt lat="45.8912" lon="6.24708">
        <ele>568</ele>
        <time>2021-12-28T09:59:30Z</time>
      </trkpt>
      <trkpt lat="45.89149" lon="6.24845">
        <ele>564</ele>
        <time>2021-12-28T09:59:48Z</time>
      </trkpt>
      <trkpt lat="45.89152" lon="6.2487">
        <ele>564</ele>
        <time>2021-12-28T09:59:51Z</time>
      </trkpt>
      <trkpt lat="45.89155" lon="6.24921">
        <ele>563</ele>
        <time>2021-12-28T09:59:57Z</time>
      </trkpt>
      <trkpt lat="45.89148" lon="6.24979">
        <ele>562</ele>
        <time>2021-12-28T10:00:05Z</time>
      </trkpt>
      <trkpt lat="45.89131" lon="6.25082">
        <ele>564</ele>
        <time>2021-12-28T10:00:18Z</time>
      </trkpt>
      <trkpt lat="45.89132" lon="6.25098">
        <ele>564</ele>
        <time>2021-12-28T10:00:20Z</time>
      </trkpt>
      <trkpt lat="45.89144" lon="6.25122">
        <ele>561</ele>
        <time>2021-12-28T10:00:23Z</time>
      </trkpt>
      <trkpt lat="45.89147" lon="6.25131">
        <ele>560</ele>
        <time>2021-12-28T10:00:25Z</time>
      </trkpt>
      <trkpt lat="45.89149" lon="6.25142">
        <ele>559</ele>
        <time>2021-12-28T10:00:26Z</time>
      </trkpt>
      <trkpt lat="45.89157" lon="6.25161">
        <ele>557</ele>
        <time>2021-12-28T10:00:29Z</time>
      </trkpt>
      <trkpt lat="45.89159" lon="6.25182">
        <ele>557</ele>
        <time>2021-12-28T10:00:31Z</time>
      </trkpt>
      <trkpt lat="45.89159" lon="6.25301">
        <ele>558</ele>
        <time>2021-12-28T10:00:46Z</time>
      </trkpt>
      <trkpt lat="45.89162" lon="6.25333">
        <ele>557</ele>
        <time>2021-12-28T10:00:50Z</time>
      </trkpt>
      <trkpt lat="45.89169" lon="6.25497">
        <ele>558</ele>
        <time>2021-12-28T10:01:11Z</time>
      </trkpt>
      <trkpt lat="45.89184" lon="6.25604">
        <ele>557</ele>
        <time>2021-12-28T10:01:24Z</time>
      </trkpt>
      <trkpt lat="45.89195" lon="6.25665">
        <ele>558</ele>
        <time>2021-12-28T10:01:32Z</time>
      </trkpt>
      <trkpt lat="45.89221" lon="6.25768">
        <ele>559</ele>
        <time>2021-12-28T10:01:45Z</time>
      </trkpt>
      <trkpt lat="45.8923" lon="6.25798">
        <ele>558</ele>
        <time>2021-12-28T10:01:49Z</time>
      </trkpt>
      <trkpt lat="45.89251" lon="6.25854">
        <ele>557</ele>
        <time>2021-12-28T10:01:57Z</time>
      </trkpt>
      <trkpt lat="45.89337" lon="6.26068">
        <ele>557</ele>
        <time>2021-12-28T10:02:28Z</time>
      </trkpt>
      <trkpt lat="45.89357" lon="6.26137">
        <ele>561</ele>
        <time>2021-12-28T10:02:37Z</time>
      </trkpt>
      <trkpt lat="45.89371" lon="6.26207">
        <ele>566</ele>
        <time>2021-12-28T10:02:46Z</time>
      </trkpt>
      <trkpt lat="45.8938" lon="6.26284">
        <ele>570</ele>
        <time>2021-12-28T10:02:56Z</time>
      </trkpt>
      <trkpt lat="45.89381" lon="6.26347">
        <ele>570</ele>
        <time>2021-12-28T10:03:04Z</time>
      </trkpt>
      <trkpt lat="45.89371" lon="6.2652">
        <ele>566</ele>
        <time>2021-12-28T10:03:25Z</time>
      </trkpt>
      <trkpt lat="45.8937" lon="6.26549">
        <ele>568</ele>
        <time>2021-12-28T10:03:29Z</time>
      </trkpt>
      <trkpt lat="45.89375" lon="6.26609">
        <ele>568</ele>
        <time>2021-12-28T10:03:36Z</time>
      </trkpt>
      <trkpt lat="45.894" lon="6.26759">
        <ele>572</ele>
        <time>2021-12-28T10:03:55Z</time>
      </trkpt>
      <trkpt lat="45.89428" lon="6.26896">
        <ele>585</ele>
        <time>2021-12-28T10:04:13Z</time>
      </trkpt>
      <trkpt lat="45.89543" lon="6.27254">
        <ele>586</ele>
        <time>2021-12-28T10:05:02Z</time>
      </trkpt>
      <trkpt lat="45.89736" lon="6.27953">
        <ele>586</ele>
        <time>2021-12-28T10:06:35Z</time>
      </trkpt>
      <trkpt lat="45.89819" lon="6.2818">
        <ele>591</ele>
        <time>2021-12-28T10:07:07Z</time>
      </trkpt>
      <trkpt lat="45.89841" lon="6.28265">
        <ele>589</ele>
        <time>2021-12-28T10:07:18Z</time>
      </trkpt>
      <trkpt lat="45.89852" lon="6.28371">
        <ele>599</ele>
        <time>2021-12-28T10:07:31Z</time>
      </trkpt>
      <trkpt lat="45.89865" lon="6.28581">
        <ele>585</ele>
        <time>2021-12-28T10:07:57Z</time>
      </trkpt>
      <trkpt lat="45.89881" lon="6.28762">
        <ele>582</ele>
        <time>2021-12-28T10:08:20Z</time>
      </trkpt>
      <trkpt lat="45.89891" lon="6.2889">
        <ele>583</ele>
        <time>2021-12-28T10:08:36Z</time>
      </trkpt>
      <trkpt lat="45.89897" lon="6.2894">
        <ele>584</ele>
        <time>2021-12-28T10:08:42Z</time>
      </trkpt>
      <trkpt lat="45.89933" lon="6.29109">
        <ele>591</ele>
        <time>2021-12-28T10:09:04Z</time>
      </trkpt>
      <trkpt lat="45.89937" lon="6.2914">
        <ele>592</ele>
        <time>2021-12-28T10:09:08Z</time>
      </trkpt>
      <trkpt lat="45.89939" lon="6.29179">
        <ele>591</ele>
        <time>2021-12-28T10:09:13Z</time>
      </trkpt>
      <trkpt lat="45.89939" lon="6.29213">
        <ele>590</ele>
        <time>2021-12-28T10:09:17Z</time>
      </trkpt>
      <trkpt lat="45.89935" lon="6.29252">
        <ele>589</ele>
        <time>2021-12-28T10:09:22Z</time>
      </trkpt>
      <trkpt lat="45.89929" lon="6.29295">
        <ele>587</ele>
        <time>2021-12-28T10:09:27Z</time>
      </trkpt>
      <trkpt lat="45.89913" lon="6.29355">
        <ele>585</ele>
        <time>2021-12-28T10:09:35Z</time>
      </trkpt>
      <trkpt lat="45.89894" lon="6.29403">
        <ele>586</ele>
        <time>2021-12-28T10:09:42Z</time>
      </trkpt>
      <trkpt lat="45.8987" lon="6.29448">
        <ele>587</ele>
        <time>2021-12-28T10:09:49Z</time>
      </trkpt>
      <trkpt lat="45.8984" lon="6.29493">
        <ele>587</ele>
        <time>2021-12-28T10:09:57Z</time>
      </trkpt>
      <trkpt lat="45.89811" lon="6.29543">
        <ele>591</ele>
        <time>2021-12-28T10:10:05Z</time>
      </trkpt>
      <trkpt lat="45.89782" lon="6.29605">
        <ele>593</ele>
        <time>2021-12-28T10:10:14Z</time>
      </trkpt>
      <trkpt lat="45.89655" lon="6.29896">
        <ele>598</ele>
        <time>2021-12-28T10:10:57Z</time>
      </trkpt>
      <trkpt lat="45.89601" lon="6.30006">
        <ele>597</ele>
        <time>2021-12-28T10:11:13Z</time>
      </trkpt>
      <trkpt lat="45.8958" lon="6.30055">
        <ele>596</ele>
        <time>2021-12-28T10:11:20Z</time>
      </trkpt>
      <trkpt lat="45.8957" lon="6.30085">
        <ele>597</ele>
        <time>2021-12-28T10:11:25Z</time>
      </trkpt>
      <trkpt lat="45.89555" lon="6.3012">
        <ele>597</ele>
        <time>2021-12-28T10:11:30Z</time>
      </trkpt>
      <trkpt lat="45.89548" lon="6.30137">
        <ele>598</ele>
        <time>2021-12-28T10:11:32Z</time>
      </trkpt>
      <trkpt lat="45.89469" lon="6.30314">
        <ele>596</ele>
        <time>2021-12-28T10:11:58Z</time>
      </trkpt>
      <trkpt lat="45.89423" lon="6.30424">
        <ele>599</ele>
        <time>2021-12-28T10:12:14Z</time>
      </trkpt>
      <trkpt lat="45.89401" lon="6.30473">
        <ele>602</ele>
        <time>2021-12-28T10:12:21Z</time>
      </trkpt>
      <trkpt lat="45.89384" lon="6.305">
        <ele>603</ele>
        <time>2021-12-28T10:12:26Z</time>
      </trkpt>
      <trkpt lat="45.89377" lon="6.30501">
        <ele>603</ele>
        <time>2021-12-28T10:12:27Z</time>
      </trkpt>
      <trkpt lat="45.89372" lon="6.30507">
        <ele>603</ele>
        <time>2021-12-28T10:12:28Z</time>
      </trkpt>
      <trkpt lat="45.89368" lon="6.30518">
        <ele>603</ele>
        <time>2021-12-28T10:12:30Z</time>
      </trkpt>
      <trkpt lat="45.8937" lon="6.3053">
        <ele>604</ele>
        <time>2021-12-28T10:12:31Z</time>
      </trkpt>
      <trkpt lat="45.89367" lon="6.30548">
        <ele>604</ele>
        <time>2021-12-28T10:12:34Z</time>
      </trkpt>
      <trkpt lat="45.89355" lon="6.3058">
        <ele>605</ele>
        <time>2021-12-28T10:12:38Z</time>
      </trkpt>
      <trkpt lat="45.89273" lon="6.30761">
        <ele>604</ele>
        <time>2021-12-28T10:13:05Z</time>
      </trkpt>
      <trkpt lat="45.89242" lon="6.30819">
        <ele>605</ele>
        <time>2021-12-28T10:13:14Z</time>
      </trkpt>
      <trkpt lat="45.89183" lon="6.30921">
        <ele>604</ele>
        <time>2021-12-28T10:13:30Z</time>
      </trkpt>
      <trkpt lat="45.89165" lon="6.30941">
        <ele>605</ele>
        <time>2021-12-28T10:13:34Z</time>
      </trkpt>
      <trkpt lat="45.8901" lon="6.31125">
        <ele>605</ele>
        <time>2021-12-28T10:14:10Z</time>
      </trkpt>
      <trkpt lat="45.88937" lon="6.31206">
        <ele>608</ele>
        <time>2021-12-28T10:14:27Z</time>
      </trkpt>
      <trkpt lat="45.8875" lon="6.31416">
        <ele>618</ele>
        <time>2021-12-28T10:15:09Z</time>
      </trkpt>
      <trkpt lat="45.88674" lon="6.31504">
        <ele>623</ele>
        <time>2021-12-28T10:15:26Z</time>
      </trkpt>
      <trkpt lat="45.88653" lon="6.31532">
        <ele>626</ele>
        <time>2021-12-28T10:15:31Z</time>
      </trkpt>
      <trkpt lat="45.88625" lon="6.31581">
        <ele>630</ele>
        <time>2021-12-28T10:15:39Z</time>
      </trkpt>
      <trkpt lat="45.88568" lon="6.31719">
        <ele>632</ele>
        <time>2021-12-28T10:15:59Z</time>
      </trkpt>
      <trkpt lat="45.88566" lon="6.31718">
        <ele>631</ele>
        <time>2021-12-28T10:15:59Z</time>
      </trkpt>
      <trkpt lat="45.88563" lon="6.31721">
        <ele>631</ele>
        <time>2021-12-28T10:16:00Z</time>
      </trkpt>
      <trkpt lat="45.88545" lon="6.31761">
        <ele>631</ele>
        <time>2021-12-28T10:16:06Z</time>
      </trkpt>
      <trkpt lat="45.88544" lon="6.31765">
        <ele>631</ele>
        <time>2021-12-28T10:16:06Z</time>
      </trkpt>
      <trkpt lat="45.88546" lon="6.3177">
        <ele>632</ele>
        <time>2021-12-28T10:16:07Z</time>
      </trkpt>
      <trkpt lat="45.88488" lon="6.31904">
        <ele>624</ele>
        <time>2021-12-28T10:16:27Z</time>
      </trkpt>
      <trkpt lat="45.88433" lon="6.31998">
        <ele>620</ele>
        <time>2021-12-28T10:16:42Z</time>
      </trkpt>
      <trkpt lat="45.88296" lon="6.32217">
        <ele>621</ele>
        <time>2021-12-28T10:17:18Z</time>
      </trkpt>
      <trkpt lat="45.88278" lon="6.32238">
        <ele>621</ele>
        <time>2021-12-28T10:17:22Z</time>
      </trkpt>
      <trkpt lat="45.8827" lon="6.32243">
        <ele>622</ele>
        <time>2021-12-28T10:17:24Z</time>
      </trkpt>
      <trkpt lat="45.88268" lon="6.32248">
        <ele>622</ele>
        <time>2021-12-28T10:17:25Z</time>
      </trkpt>
      <trkpt lat="45.88267" lon="6.32257">
        <ele>622</ele>
        <time>2021-12-28T10:17:26Z</time>
      </trkpt>
      <trkpt lat="45.88268" lon="6.32265">
        <ele>622</ele>
        <time>2021-12-28T10:17:27Z</time>
      </trkpt>
      <trkpt lat="45.88274" lon="6.32273">
        <ele>622</ele>
        <time>2021-12-28T10:17:28Z</time>
      </trkpt>
      <trkpt lat="45.88281" lon="6.32291">
        <ele>623</ele>
        <time>2021-12-28T10:17:31Z</time>
      </trkpt>
      <trkpt lat="45.88287" lon="6.3236">
        <ele>627</ele>
        <time>2021-12-28T10:17:40Z</time>
      </trkpt>
      <trkpt lat="45.88291" lon="6.32378">
        <ele>628</ele>
        <time>2021-12-28T10:17:42Z</time>
      </trkpt>
      <trkpt lat="45.88296" lon="6.32395">
        <ele>629</ele>
        <time>2021-12-28T10:17:44Z</time>
      </trkpt>
      <trkpt lat="45.88306" lon="6.32414">
        <ele>632</ele>
        <time>2021-12-28T10:17:47Z</time>
      </trkpt>
      <trkpt lat="45.88334" lon="6.32443">
        <ele>633</ele>
        <time>2021-12-28T10:17:53Z</time>
      </trkpt>
      <trkpt lat="45.88391" lon="6.32489">
        <ele>636</ele>
        <time>2021-12-28T10:18:05Z</time>
      </trkpt>
      <trkpt lat="45.88401" lon="6.32494">
        <ele>636</ele>
        <time>2021-12-28T10:18:07Z</time>
      </trkpt>
      <trkpt lat="45.88446" lon="6.32562">
        <ele>633</ele>
        <time>2021-12-28T10:18:18Z</time>
      </trkpt>
      <trkpt lat="45.88497" lon="6.32648">
        <ele>631</ele>
        <time>2021-12-28T10:18:32Z</time>
      </trkpt>
      <trkpt lat="45.88526" lon="6.32685">
        <ele>633</ele>
        <time>2021-12-28T10:18:39Z</time>
      </trkpt>
      <trkpt lat="45.88557" lon="6.32718">
        <ele>634</ele>
        <time>2021-12-28T10:18:46Z</time>
      </trkpt>
      <trkpt lat="45.88691" lon="6.32844">
        <ele>635</ele>
        <time>2021-12-28T10:19:15Z</time>
      </trkpt>
      <trkpt lat="45.88738" lon="6.32893">
        <ele>637</ele>
        <time>2021-12-28T10:19:25Z</time>
      </trkpt>
      <trkpt lat="45.88766" lon="6.32913">
        <ele>638</ele>
        <time>2021-12-28T10:19:31Z</time>
      </trkpt>
      <trkpt lat="45.88796" lon="6.32927">
        <ele>640</ele>
        <time>2021-12-28T10:19:36Z</time>
      </trkpt>
      <trkpt lat="45.88834" lon="6.32939">
        <ele>641</ele>
        <time>2021-12-28T10:19:43Z</time>
      </trkpt>
      <trkpt lat="45.88871" lon="6.32953">
        <ele>643</ele>
        <time>2021-12-28T10:19:50Z</time>
      </trkpt>
      <trkpt lat="45.88903" lon="6.32984">
        <ele>639</ele>
        <time>2021-12-28T10:19:57Z</time>
      </trkpt>
      <trkpt lat="45.88931" lon="6.33022">
        <ele>640</ele>
        <time>2021-12-28T10:20:04Z</time>
      </trkpt>
      <trkpt lat="45.88961" lon="6.33076">
        <ele>642</ele>
        <time>2021-12-28T10:20:12Z</time>
      </trkpt>
      <trkpt lat="45.88986" lon="6.33107">
        <ele>642</ele>
        <time>2021-12-28T10:20:18Z</time>
      </trkpt>
      <trkpt lat="45.89007" lon="6.33125">
        <ele>644</ele>
        <time>2021-12-28T10:20:22Z</time>
      </trkpt>
      <trkpt lat="45.89023" lon="6.33151">
        <ele>644</ele>
        <time>2021-12-28T10:20:27Z</time>
      </trkpt>
      <trkpt lat="45.8905" lon="6.3318">
        <ele>644</ele>
        <time>2021-12-28T10:20:33Z</time>
      </trkpt>
      <trkpt lat="45.89074" lon="6.33214">
        <ele>643</ele>
        <time>2021-12-28T10:20:39Z</time>
      </trkpt>
      <trkpt lat="45.89102" lon="6.33272">
        <ele>644</ele>
        <time>2021-12-28T10:20:47Z</time>
      </trkpt>
      <trkpt lat="45.89098" lon="6.33277">
        <ele>644</ele>
        <time>2021-12-28T10:20:48Z</time>
      </trkpt>
      <trkpt lat="45.89109" lon="6.33282">
        <ele>645</ele>
        <time>2021-12-28T10:20:50Z</time>
      </trkpt>
      <trkpt lat="45.89118" lon="6.33305">
        <ele>645</ele>
        <time>2021-12-28T10:20:54Z</time>
      </trkpt>
      <trkpt lat="45.89125" lon="6.33318">
        <ele>645</ele>
        <time>2021-12-28T10:20:56Z</time>
      </trkpt>
      <trkpt lat="45.89173" lon="6.3338">
        <ele>645</ele>
        <time>2021-12-28T10:21:07Z</time>
      </trkpt>
      <trkpt lat="45.89213" lon="6.33436">
        <ele>645</ele>
        <time>2021-12-28T10:21:17Z</time>
      </trkpt>
      <trkpt lat="45.89359" lon="6.33713">
        <ele>647</ele>
        <time>2021-12-28T10:22:00Z</time>
      </trkpt>
      <trkpt lat="45.89453" lon="6.33897">
        <ele>651</ele>
        <time>2021-12-28T10:22:28Z</time>
      </trkpt>
      <trkpt lat="45.89754" lon="6.34478">
        <ele>667</ele>
        <time>2021-12-28T10:23:58Z</time>
      </trkpt>
      <trkpt lat="45.89795" lon="6.34563">
        <ele>670</ele>
        <time>2021-12-28T10:24:11Z</time>
      </trkpt>
      <trkpt lat="45.89831" lon="6.3465">
        <ele>672</ele>
        <time>2021-12-28T10:24:23Z</time>
      </trkpt>
      <trkpt lat="45.8994" lon="6.34944">
        <ele>696</ele>
        <time>2021-12-28T10:25:05Z</time>
      </trkpt>
      <trkpt lat="45.90058" lon="6.35173">
        <ele>708</ele>
        <time>2021-12-28T10:25:40Z</time>
      </trkpt>
      <trkpt lat="45.90179" lon="6.35399">
        <ele>725</ele>
        <time>2021-12-28T10:26:15Z</time>
      </trkpt>
      <trkpt lat="45.90283" lon="6.35604">
        <ele>737</ele>
        <time>2021-12-28T10:26:47Z</time>
      </trkpt>
      <trkpt lat="45.90417" lon="6.35897">
        <ele>746</ele>
        <time>2021-12-28T10:27:30Z</time>
      </trkpt>
      <trkpt lat="45.90445" lon="6.35965">
        <ele>745</ele>
        <time>2021-12-28T10:27:40Z</time>
      </trkpt>
      <trkpt lat="45.90498" lon="6.36071">
        <ele>751</ele>
        <time>2021-12-28T10:27:56Z</time>
      </trkpt>
      <trkpt lat="45.90512" lon="6.36101">
        <ele>751</ele>
        <time>2021-12-28T10:28:01Z</time>
      </trkpt>
      <trkpt lat="45.90525" lon="6.36125">
        <ele>752</ele>
        <time>2021-12-28T10:28:04Z</time>
      </trkpt>
      <trkpt lat="45.9054" lon="6.36147">
        <ele>752</ele>
        <time>2021-12-28T10:28:08Z</time>
      </trkpt>
      <trkpt lat="45.90558" lon="6.36167">
        <ele>754</ele>
        <time>2021-12-28T10:28:12Z</time>
      </trkpt>
      <trkpt lat="45.90709" lon="6.36315">
        <ele>769</ele>
        <time>2021-12-28T10:28:45Z</time>
      </trkpt>
      <trkpt lat="45.9073" lon="6.36346">
        <ele>770</ele>
        <time>2021-12-28T10:28:50Z</time>
      </trkpt>
      <trkpt lat="45.90755" lon="6.36421">
        <ele>770</ele>
        <time>2021-12-28T10:29:00Z</time>
      </trkpt>
      <trkpt lat="45.90766" lon="6.36443">
        <ele>771</ele>
        <time>2021-12-28T10:29:04Z</time>
      </trkpt>
      <trkpt lat="45.90795" lon="6.36485">
        <ele>775</ele>
        <time>2021-12-28T10:29:11Z</time>
      </trkpt>
      <trkpt lat="45.90806" lon="6.36514">
        <ele>776</ele>
        <time>2021-12-28T10:29:15Z</time>
      </trkpt>
      <trkpt lat="45.90804" lon="6.36522">
        <ele>775</ele>
        <time>2021-12-28T10:29:16Z</time>
      </trkpt>
      <trkpt lat="45.90806" lon="6.3653">
        <ele>775</ele>
        <time>2021-12-28T10:29:17Z</time>
      </trkpt>
      <trkpt lat="45.90812" lon="6.36537">
        <ele>776</ele>
        <time>2021-12-28T10:29:19Z</time>
      </trkpt>
      <trkpt lat="45.90817" lon="6.36538">
        <ele>777</ele>
        <time>2021-12-28T10:29:19Z</time>
      </trkpt>
      <trkpt lat="45.90828" lon="6.36544">
        <ele>778</ele>
        <time>2021-12-28T10:29:22Z</time>
      </trkpt>
      <trkpt lat="45.90841" lon="6.36555">
        <ele>780</ele>
        <time>2021-12-28T10:29:24Z</time>
      </trkpt>
      <trkpt lat="45.9085" lon="6.36572">
        <ele>780</ele>
        <time>2021-12-28T10:29:27Z</time>
      </trkpt>
      <trkpt lat="45.90962" lon="6.36832">
        <ele>795</ele>
        <time>2021-12-28T10:30:05Z</time>
      </trkpt>
      <trkpt lat="45.90976" lon="6.36876">
        <ele>796</ele>
        <time>2021-12-28T10:30:11Z</time>
      </trkpt>
      <trkpt lat="45.90995" lon="6.36969">
        <ele>799</ele>
        <time>2021-12-28T10:30:23Z</time>
      </trkpt>
      <trkpt lat="45.91036" lon="6.37084">
        <ele>807</ele>
        <time>2021-12-28T10:30:39Z</time>
      </trkpt>
      <trkpt lat="45.91062" lon="6.37141">
        <ele>810</ele>
        <time>2021-12-28T10:30:47Z</time>
      </trkpt>
      <trkpt lat="45.91075" lon="6.37164">
        <ele>812</ele>
        <time>2021-12-28T10:30:51Z</time>
      </trkpt>
      <trkpt lat="45.91121" lon="6.37225">
        <ele>818</ele>
        <time>2021-12-28T10:31:02Z</time>
      </trkpt>
      <trkpt lat="45.91208" lon="6.37315">
        <ele>820</ele>
        <time>2021-12-28T10:31:21Z</time>
      </trkpt>
      <trkpt lat="45.91248" lon="6.37341">
        <ele>823</ele>
        <time>2021-12-28T10:31:29Z</time>
      </trkpt>
      <trkpt lat="45.91339" lon="6.37389">
        <ele>831</ele>
        <time>2021-12-28T10:31:46Z</time>
      </trkpt>
      <trkpt lat="45.91347" lon="6.37398">
        <ele>831</ele>
        <time>2021-12-28T10:31:48Z</time>
      </trkpt>
      <trkpt lat="45.91372" lon="6.37432">
        <ele>832</ele>
        <time>2021-12-28T10:31:54Z</time>
      </trkpt>
      <trkpt lat="45.91434" lon="6.37555">
        <ele>839</ele>
        <time>2021-12-28T10:32:13Z</time>
      </trkpt>
      <trkpt lat="45.91444" lon="6.3757">
        <ele>840</ele>
        <time>2021-12-28T10:32:15Z</time>
      </trkpt>
      <trkpt lat="45.91455" lon="6.37584">
        <ele>841</ele>
        <time>2021-12-28T10:32:18Z</time>
      </trkpt>
      <trkpt lat="45.91487" lon="6.37618">
        <ele>842</ele>
        <time>2021-12-28T10:32:25Z</time>
      </trkpt>
      <trkpt lat="45.91503" lon="6.37643">
        <ele>842</ele>
        <time>2021-12-28T10:32:29Z</time>
      </trkpt>
      <trkpt lat="45.91532" lon="6.37699">
        <ele>843</ele>
        <time>2021-12-28T10:32:38Z</time>
      </trkpt>
      <trkpt lat="45.91552" lon="6.37726">
        <ele>845</ele>
        <time>2021-12-28T10:32:43Z</time>
      </trkpt>
      <trkpt lat="45.9167" lon="6.37873">
        <ele>861</ele>
        <time>2021-12-28T10:33:11Z</time>
      </trkpt>
      <trkpt lat="45.91711" lon="6.37945">
        <ele>865</ele>
        <time>2021-12-28T10:33:22Z</time>
      </trkpt>
      <trkpt lat="45.91731" lon="6.37987">
        <ele>866</ele>
        <time>2021-12-28T10:33:28Z</time>
      </trkpt>
      <trkpt lat="45.91762" lon="6.38042">
        <ele>869</ele>
        <time>2021-12-28T10:33:37Z</time>
      </trkpt>
      <trkpt lat="45.9179" lon="6.38124">
        <ele>871</ele>
        <time>2021-12-28T10:33:49Z</time>
      </trkpt>
      <trkpt lat="45.91806" lon="6.38162">
        <ele>874</ele>
        <time>2021-12-28T10:33:54Z</time>
      </trkpt>
      <trkpt lat="45.91841" lon="6.38217">
        <ele>881</ele>
        <time>2021-12-28T10:34:03Z</time>
      </trkpt>
      <trkpt lat="45.91849" lon="6.38235">
        <ele>882</ele>
        <time>2021-12-28T10:34:06Z</time>
      </trkpt>
      <trkpt lat="45.91857" lon="6.38264">
        <ele>884</ele>
        <time>2021-12-28T10:34:10Z</time>
      </trkpt>
      <trkpt lat="45.91871" lon="6.38368">
        <ele>883</ele>
        <time>2021-12-28T10:34:23Z</time>
      </trkpt>
      <trkpt lat="45.91882" lon="6.38408">
        <ele>883</ele>
        <time>2021-12-28T10:34:28Z</time>
      </trkpt>
      <trkpt lat="45.91955" lon="6.38539">
        <ele>898</ele>
        <time>2021-12-28T10:34:49Z</time>
      </trkpt>
      <trkpt lat="45.91976" lon="6.38599">
        <ele>899</ele>
        <time>2021-12-28T10:34:57Z</time>
      </trkpt>
      <trkpt lat="45.91982" lon="6.38634">
        <ele>899</ele>
        <time>2021-12-28T10:35:02Z</time>
      </trkpt>
      <trkpt lat="45.91985" lon="6.38681">
        <ele>897</ele>
        <time>2021-12-28T10:35:08Z</time>
      </trkpt>
      <trkpt lat="45.91984" lon="6.38713">
        <ele>898</ele>
        <time>2021-12-28T10:35:12Z</time>
      </trkpt>
      <trkpt lat="45.91988" lon="6.38746">
        <ele>900</ele>
        <time>2021-12-28T10:35:16Z</time>
      </trkpt>
      <trkpt lat="45.91998" lon="6.38777">
        <ele>902</ele>
        <time>2021-12-28T10:35:20Z</time>
      </trkpt>
      <trkpt lat="45.92013" lon="6.3881">
        <ele>906</ele>
        <time>2021-12-28T10:35:25Z</time>
      </trkpt>
      <trkpt lat="45.92024" lon="6.38841">
        <ele>909</ele>
        <time>2021-12-28T10:35:29Z</time>
      </trkpt>
      <trkpt lat="45.92027" lon="6.38858">
        <ele>910</ele>
        <time>2021-12-28T10:35:31Z</time>
      </trkpt>
      <trkpt lat="45.9203" lon="6.38945">
        <ele>909</ele>
        <time>2021-12-28T10:35:42Z</time>
      </trkpt>
      <trkpt lat="45.92038" lon="6.39008">
        <ele>912</ele>
        <time>2021-12-28T10:35:50Z</time>
      </trkpt>
      <trkpt lat="45.92057" lon="6.39099">
        <ele>917</ele>
        <time>2021-12-28T10:36:02Z</time>
      </trkpt>
      <trkpt lat="45.9207" lon="6.39193">
        <ele>918</ele>
        <time>2021-12-28T10:36:14Z</time>
      </trkpt>
      <trkpt lat="45.9209" lon="6.39267">
        <ele>923</ele>
        <time>2021-12-28T10:36:23Z</time>
      </trkpt>
      <trkpt lat="45.92116" lon="6.39379">
        <ele>928</ele>
        <time>2021-12-28T10:36:38Z</time>
      </trkpt>
      <trkpt lat="45.92123" lon="6.39424">
        <ele>929</ele>
        <time>2021-12-28T10:36:44Z</time>
      </trkpt>
      <trkpt lat="45.92125" lon="6.39483">
        <ele>930</ele>
        <time>2021-12-28T10:36:51Z</time>
      </trkpt>
      <trkpt lat="45.92135" lon="6.39544">
        <ele>933</ele>
        <time>2021-12-28T10:36:59Z</time>
      </trkpt>
      <trkpt lat="45.92133" lon="6.39579">
        <ele>933</ele>
        <time>2021-12-28T10:37:03Z</time>
      </trkpt>
      <trkpt lat="45.92124" lon="6.39609">
        <ele>933</ele>
        <time>2021-12-28T10:37:07Z</time>
      </trkpt>
      <trkpt lat="45.92109" lon="6.39697">
        <ele>934</ele>
        <time>2021-12-28T10:37:18Z</time>
      </trkpt>
      <trkpt lat="45.92106" lon="6.39744">
        <ele>936</ele>
        <time>2021-12-28T10:37:24Z</time>
      </trkpt>
      <trkpt lat="45.92106" lon="6.39782">
        <ele>937</ele>
        <time>2021-12-28T10:37:29Z</time>
      </trkpt>
      <trkpt lat="45.92109" lon="6.39816">
        <ele>938</ele>
        <time>2021-12-28T10:37:33Z</time>
      </trkpt>
      <trkpt lat="45.92132" lon="6.39937">
        <ele>942</ele>
        <time>2021-12-28T10:37:49Z</time>
      </trkpt>
      <trkpt lat="45.92142" lon="6.39978">
        <ele>944</ele>
        <time>2021-12-28T10:37:54Z</time>
      </trkpt>
      <trkpt lat="45.92147" lon="6.40012">
        <ele>946</ele>
        <time>2021-12-28T10:37:58Z</time>
      </trkpt>
      <trkpt lat="45.92145" lon="6.40034">
        <ele>947</ele>
        <time>2021-12-28T10:38:01Z</time>
      </trkpt>
      <trkpt lat="45.92137" lon="6.40084">
        <ele>947</ele>
        <time>2021-12-28T10:38:08Z</time>
      </trkpt>
      <trkpt lat="45.92127" lon="6.4013">
        <ele>943</ele>
        <time>2021-12-28T10:38:13Z</time>
      </trkpt>
      <trkpt lat="45.92124" lon="6.40157">
        <ele>943</ele>
        <time>2021-12-28T10:38:17Z</time>
      </trkpt>
      <trkpt lat="45.92132" lon="6.40349">
        <ele>943</ele>
        <time>2021-12-28T10:38:41Z</time>
      </trkpt>
      <trkpt lat="45.92165" lon="6.40519">
        <ele>951</ele>
        <time>2021-12-28T10:39:03Z</time>
      </trkpt>
      <trkpt lat="45.92174" lon="6.40578">
        <ele>954</ele>
        <time>2021-12-28T10:39:10Z</time>
      </trkpt>
      <trkpt lat="45.92183" lon="6.40691">
        <ele>956</ele>
        <time>2021-12-28T10:39:24Z</time>
      </trkpt>
      <trkpt lat="45.92191" lon="6.40744">
        <ele>956</ele>
        <time>2021-12-28T10:39:31Z</time>
      </trkpt>
      <trkpt lat="45.92218" lon="6.40881">
        <ele>956</ele>
        <time>2021-12-28T10:39:48Z</time>
      </trkpt>
      <trkpt lat="45.92248" lon="6.41019">
        <ele>962</ele>
        <time>2021-12-28T10:40:06Z</time>
      </trkpt>
      <trkpt lat="45.9225" lon="6.41036">
        <ele>963</ele>
        <time>2021-12-28T10:40:08Z</time>
      </trkpt>
      <trkpt lat="45.92246" lon="6.41043">
        <ele>962</ele>
        <time>2021-12-28T10:40:10Z</time>
      </trkpt>
      <trkpt lat="45.92246" lon="6.41051">
        <ele>962</ele>
        <time>2021-12-28T10:40:11Z</time>
      </trkpt>
      <trkpt lat="45.92249" lon="6.41058">
        <ele>963</ele>
        <time>2021-12-28T10:40:12Z</time>
      </trkpt>
      <trkpt lat="45.92254" lon="6.41062">
        <ele>964</ele>
        <time>2021-12-28T10:40:13Z</time>
      </trkpt>
      <trkpt lat="45.92262" lon="6.4106">
        <ele>964</ele>
        <time>2021-12-28T10:40:14Z</time>
      </trkpt>
      <trkpt lat="45.92266" lon="6.41053">
        <ele>963</ele>
        <time>2021-12-28T10:40:15Z</time>
      </trkpt>
      <trkpt lat="45.92266" lon="6.41043">
        <ele>963</ele>
        <time>2021-12-28T10:40:16Z</time>
      </trkpt>
      <trkpt lat="45.9236" lon="6.41002">
        <ele>961</ele>
        <time>2021-12-28T10:40:34Z</time>
      </trkpt>
      <trkpt lat="45.92374" lon="6.40994">
        <ele>961</ele>
        <time>2021-12-28T10:40:37Z</time>
      </trkpt>
      <trkpt lat="45.92429" lon="6.4095">
        <ele>960</ele>
        <time>2021-12-28T10:40:48Z</time>
      </trkpt>
      <trkpt lat="45.92447" lon="6.40939">
        <ele>959</ele>
        <time>2021-12-28T10:40:51Z</time>
      </trkpt>
      <trkpt lat="45.92457" lon="6.40937">
        <ele>958</ele>
        <time>2021-12-28T10:40:53Z</time>
      </trkpt>
      <trkpt lat="45.92474" lon="6.40937">
        <ele>957</ele>
        <time>2021-12-28T10:40:56Z</time>
      </trkpt>
      <trkpt lat="45.92495" lon="6.40945">
        <ele>955</ele>
        <time>2021-12-28T10:41:00Z</time>
      </trkpt>
      <trkpt lat="45.92512" lon="6.4096">
        <ele>953</ele>
        <time>2021-12-28T10:41:03Z</time>
      </trkpt>
      <trkpt lat="45.92521" lon="6.40972">
        <ele>952</ele>
        <time>2021-12-28T10:41:06Z</time>
      </trkpt>
      <trkpt lat="45.9256" lon="6.41037">
        <ele>949</ele>
        <time>2021-12-28T10:41:16Z</time>
      </trkpt>
      <trkpt lat="45.92583" lon="6.41082">
        <ele>947</ele>
        <time>2021-12-28T10:41:23Z</time>
      </trkpt>
      <trkpt lat="45.92608" lon="6.41139">
        <ele>948</ele>
        <time>2021-12-28T10:41:32Z</time>
      </trkpt>
      <trkpt lat="45.92624" lon="6.41156">
        <ele>946</ele>
        <time>2021-12-28T10:41:35Z</time>
      </trkpt>
      <trkpt lat="45.92731" lon="6.41204">
        <ele>942</ele>
        <time>2021-12-28T10:41:55Z</time>
      </trkpt>
      <trkpt lat="45.92772" lon="6.41212">
        <ele>941</ele>
        <time>2021-12-28T10:42:02Z</time>
      </trkpt>
      <trkpt lat="45.92909" lon="6.41218">
        <ele>931</ele>
        <time>2021-12-28T10:42:27Z</time>
      </trkpt>
      <trkpt lat="45.92945" lon="6.41208">
        <ele>926</ele>
        <time>2021-12-28T10:42:33Z</time>
      </trkpt>
      <trkpt lat="45.92982" lon="6.41203">
        <ele>923</ele>
        <time>2021-12-28T10:42:40Z</time>
      </trkpt>
      <trkpt lat="45.93062" lon="6.41245">
        <ele>920</ele>
        <time>2021-12-28T10:42:55Z</time>
      </trkpt>
      <trkpt lat="45.9314" lon="6.41303">
        <ele>915</ele>
        <time>2021-12-28T10:43:11Z</time>
      </trkpt>
      <trkpt lat="45.93214" lon="6.41363">
        <ele>905</ele>
        <time>2021-12-28T10:43:26Z</time>
      </trkpt>
      <trkpt lat="45.93289" lon="6.41455">
        <ele>899</ele>
        <time>2021-12-28T10:43:43Z</time>
      </trkpt>
      <trkpt lat="45.93358" lon="6.41532">
        <ele>896</ele>
        <time>2021-12-28T10:43:59Z</time>
      </trkpt>
      <trkpt lat="45.93374" lon="6.41543">
        <ele>896</ele>
        <time>2021-12-28T10:44:02Z</time>
      </trkpt>
      <trkpt lat="45.93388" lon="6.41551">
        <ele>895</ele>
        <time>2021-12-28T10:44:05Z</time>
      </trkpt>
      <trkpt lat="45.9342" lon="6.41556">
        <ele>890</ele>
        <time>2021-12-28T10:44:10Z</time>
      </trkpt>
      <trkpt lat="45.93466" lon="6.41559">
        <ele>892</ele>
        <time>2021-12-28T10:44:19Z</time>
      </trkpt>
      <trkpt lat="45.93523" lon="6.41561">
        <ele>898</ele>
        <time>2021-12-28T10:44:29Z</time>
      </trkpt>
      <trkpt lat="45.9355" lon="6.41575">
        <ele>902</ele>
        <time>2021-12-28T10:44:34Z</time>
      </trkpt>
      <trkpt lat="45.93649" lon="6.41678">
        <ele>913</ele>
        <time>2021-12-28T10:44:56Z</time>
      </trkpt>
      <trkpt lat="45.93663" lon="6.41699">
        <ele>912</ele>
        <time>2021-12-28T10:44:59Z</time>
      </trkpt>
      <trkpt lat="45.93702" lon="6.41763">
        <ele>917</ele>
        <time>2021-12-28T10:45:10Z</time>
      </trkpt>
      <trkpt lat="45.93719" lon="6.41796">
        <ele>918</ele>
        <time>2021-12-28T10:45:15Z</time>
      </trkpt>
      <trkpt lat="45.93752" lon="6.41872">
        <ele>916</ele>
        <time>2021-12-28T10:45:26Z</time>
      </trkpt>
      <trkpt lat="45.93763" lon="6.41891">
        <ele>918</ele>
        <time>2021-12-28T10:45:29Z</time>
      </trkpt>
      <trkpt lat="45.93809" lon="6.41958">
        <ele>921</ele>
        <time>2021-12-28T10:45:41Z</time>
      </trkpt>
      <trkpt lat="45.93842" lon="6.42018">
        <ele>919</ele>
        <time>2021-12-28T10:45:50Z</time>
      </trkpt>
      <trkpt lat="45.93996" lon="6.42308">
        <ele>915</ele>
        <time>2021-12-28T10:46:35Z</time>
      </trkpt>
      <trkpt lat="45.94027" lon="6.42376">
        <ele>917</ele>
        <time>2021-12-28T10:46:45Z</time>
      </trkpt>
      <trkpt lat="45.94048" lon="6.42412">
        <ele>917</ele>
        <time>2021-12-28T10:46:51Z</time>
      </trkpt>
      <trkpt lat="45.94049" lon="6.42419">
        <ele>917</ele>
        <time>2021-12-28T10:46:52Z</time>
      </trkpt>
      <trkpt lat="45.94052" lon="6.42422">
        <ele>917</ele>
        <time>2021-12-28T10:46:53Z</time>
      </trkpt>
      <trkpt lat="45.94058" lon="6.42421">
        <ele>918</ele>
        <time>2021-12-28T10:46:54Z</time>
      </trkpt>
      <trkpt lat="45.94062" lon="6.42414">
        <ele>919</ele>
        <time>2021-12-28T10:46:55Z</time>
      </trkpt>
      <trkpt lat="45.94075" lon="6.42393">
        <ele>922</ele>
        <time>2021-12-28T10:46:58Z</time>
      </trkpt>
      <trkpt lat="45.94076" lon="6.42369">
        <ele>924</ele>
        <time>2021-12-28T10:47:01Z</time>
      </trkpt>
      <trkpt lat="45.94057" lon="6.4228">
        <ele>927</ele>
        <time>2021-12-28T10:47:13Z</time>
      </trkpt>
      <trkpt lat="45.94027" lon="6.42182">
        <ele>938</ele>
        <time>2021-12-28T10:47:26Z</time>
      </trkpt>
      <trkpt lat="45.94015" lon="6.42155">
        <ele>941</ele>
        <time>2021-12-28T10:47:30Z</time>
      </trkpt>
      <trkpt lat="45.94005" lon="6.42144">
        <ele>940</ele>
        <time>2021-12-28T10:47:32Z</time>
      </trkpt>
      <trkpt lat="45.93999" lon="6.42134">
        <ele>940</ele>
        <time>2021-12-28T10:47:34Z</time>
      </trkpt>
      <trkpt lat="45.93999" lon="6.42122">
        <ele>943</ele>
        <time>2021-12-28T10:47:35Z</time>
      </trkpt>
      <trkpt lat="45.94006" lon="6.42117">
        <ele>946</ele>
        <time>2021-12-28T10:47:37Z</time>
      </trkpt>
      <trkpt lat="45.94011" lon="6.42119">
        <ele>948</ele>
        <time>2021-12-28T10:47:38Z</time>
      </trkpt>
      <trkpt lat="45.94016" lon="6.42126">
        <ele>948</ele>
        <time>2021-12-28T10:47:39Z</time>
      </trkpt>
      <trkpt lat="45.94039" lon="6.42164">
        <ele>946</ele>
        <time>2021-12-28T10:47:45Z</time>
      </trkpt>
      <trkpt lat="45.94082" lon="6.42219">
        <ele>943</ele>
        <time>2021-12-28T10:47:55Z</time>
      </trkpt>
      <trkpt lat="45.94108" lon="6.42234">
        <ele>946</ele>
        <time>2021-12-28T10:48:00Z</time>
      </trkpt>
      <trkpt lat="45.94116" lon="6.42242">
        <ele>945</ele>
        <time>2021-12-28T10:48:02Z</time>
      </trkpt>
      <trkpt lat="45.94131" lon="6.42265">
        <ele>946</ele>
        <time>2021-12-28T10:48:06Z</time>
      </trkpt>
      <trkpt lat="45.94135" lon="6.42258">
        <ele>947</ele>
        <time>2021-12-28T10:48:07Z</time>
      </trkpt>
      <trkpt lat="45.9414" lon="6.42255">
        <ele>949</ele>
        <time>2021-12-28T10:48:08Z</time>
      </trkpt>
      <trkpt lat="45.94146" lon="6.42255">
        <ele>950</ele>
        <time>2021-12-28T10:48:09Z</time>
      </trkpt>
      <trkpt lat="45.94152" lon="6.42261">
        <ele>951</ele>
        <time>2021-12-28T10:48:10Z</time>
      </trkpt>
      <trkpt lat="45.94188" lon="6.42342">
        <ele>952</ele>
        <time>2021-12-28T10:48:22Z</time>
      </trkpt>
      <trkpt lat="45.94254" lon="6.42424">
        <ele>958</ele>
        <time>2021-12-28T10:48:38Z</time>
      </trkpt>
      <trkpt lat="45.94352" lon="6.42566">
        <ele>968</ele>
        <time>2021-12-28T10:49:03Z</time>
      </trkpt>
      <trkpt lat="45.94364" lon="6.42578">
        <ele>969</ele>
        <time>2021-12-28T10:49:05Z</time>
      </trkpt>
      <trkpt lat="45.94382" lon="6.42592">
        <ele>971</ele>
        <time>2021-12-28T10:49:09Z</time>
      </trkpt>
      <trkpt lat="45.9439" lon="6.42603">
        <ele>972</ele>
        <time>2021-12-28T10:49:11Z</time>
      </trkpt>
      <trkpt lat="45.94448" lon="6.42719">
        <ele>980</ele>
        <time>2021-12-28T10:49:29Z</time>
      </trkpt>
      <trkpt lat="45.94499" lon="6.42842">
        <ele>988</ele>
        <time>2021-12-28T10:49:46Z</time>
      </trkpt>
      <trkpt lat="45.94508" lon="6.42872">
        <ele>992</ele>
        <time>2021-12-28T10:49:50Z</time>
      </trkpt>
      <trkpt lat="45.94513" lon="6.42893">
        <ele>994</ele>
        <time>2021-12-28T10:49:53Z</time>
      </trkpt>
      <trkpt lat="45.94516" lon="6.42921">
        <ele>996</ele>
        <time>2021-12-28T10:49:57Z</time>
      </trkpt>
      <trkpt lat="45.94529" lon="6.43092">
        <ele>998</ele>
        <time>2021-12-28T10:50:18Z</time>
      </trkpt>
      <trkpt lat="45.94537" lon="6.43131">
        <ele>1000</ele>
        <time>2021-12-28T10:50:23Z</time>
      </trkpt>
      <trkpt lat="45.94554" lon="6.43196">
        <ele>1002</ele>
        <time>2021-12-28T10:50:31Z</time>
      </trkpt>
      <trkpt lat="45.9457" lon="6.43235">
        <ele>1003</ele>
        <time>2021-12-28T10:50:37Z</time>
      </trkpt>
      <trkpt lat="45.94608" lon="6.43291">
        <ele>1008</ele>
        <time>2021-12-28T10:50:47Z</time>
      </trkpt>
      <trkpt lat="45.94662" lon="6.43389">
        <ele>1011</ele>
        <time>2021-12-28T10:51:02Z</time>
      </trkpt>
      <trkpt lat="45.94672" lon="6.43401">
        <ele>1012</ele>
        <time>2021-12-28T10:51:05Z</time>
      </trkpt>
      <trkpt lat="45.94678" lon="6.43403">
        <ele>1013</ele>
        <time>2021-12-28T10:51:06Z</time>
      </trkpt>
      <trkpt lat="45.94686" lon="6.43397">
        <ele>1016</ele>
        <time>2021-12-28T10:51:07Z</time>
      </trkpt>
      <trkpt lat="45.94688" lon="6.43391">
        <ele>1017</ele>
        <time>2021-12-28T10:51:08Z</time>
      </trkpt>
      <trkpt lat="45.94689" lon="6.43378">
        <ele>1019</ele>
        <time>2021-12-28T10:51:10Z</time>
      </trkpt>
      <trkpt lat="45.94683" lon="6.43364">
        <ele>1019</ele>
        <time>2021-12-28T10:51:12Z</time>
      </trkpt>
      <trkpt lat="45.9466" lon="6.4333">
        <ele>1017</ele>
        <time>2021-12-28T10:51:18Z</time>
      </trkpt>
      <trkpt lat="45.94633" lon="6.43255">
        <ele>1020</ele>
        <time>2021-12-28T10:51:28Z</time>
      </trkpt>
      <trkpt lat="45.94606" lon="6.4316">
        <ele>1026</ele>
        <time>2021-12-28T10:51:41Z</time>
      </trkpt>
      <trkpt lat="45.94595" lon="6.43109">
        <ele>1026</ele>
        <time>2021-12-28T10:51:47Z</time>
      </trkpt>
      <trkpt lat="45.94583" lon="6.43059">
        <ele>1022</ele>
        <time>2021-12-28T10:51:54Z</time>
      </trkpt>
      <trkpt lat="45.9458" lon="6.43038">
        <ele>1022</ele>
        <time>2021-12-28T10:51:57Z</time>
      </trkpt>
      <trkpt lat="45.94583" lon="6.43027">
        <ele>1024</ele>
        <time>2021-12-28T10:51:58Z</time>
      </trkpt>
      <trkpt lat="45.94587" lon="6.43022">
        <ele>1027</ele>
        <time>2021-12-28T10:51:59Z</time>
      </trkpt>
      <trkpt lat="45.94596" lon="6.4302">
        <ele>1034</ele>
        <time>2021-12-28T10:52:01Z</time>
      </trkpt>
      <trkpt lat="45.946" lon="6.43024">
        <ele>1037</ele>
        <time>2021-12-28T10:52:01Z</time>
      </trkpt>
      <trkpt lat="45.94604" lon="6.43031">
        <ele>1039</ele>
        <time>2021-12-28T10:52:03Z</time>
      </trkpt>
      <trkpt lat="45.94606" lon="6.43043">
        <ele>1039</ele>
        <time>2021-12-28T10:52:04Z</time>
      </trkpt>
      <trkpt lat="45.94608" lon="6.43092">
        <ele>1035</ele>
        <time>2021-12-28T10:52:10Z</time>
      </trkpt>
      <trkpt lat="45.94612" lon="6.4312">
        <ele>1034</ele>
        <time>2021-12-28T10:52:14Z</time>
      </trkpt>
      <trkpt lat="45.94616" lon="6.43134">
        <ele>1034</ele>
        <time>2021-12-28T10:52:16Z</time>
      </trkpt>
      <trkpt lat="45.94622" lon="6.43146">
        <ele>1035</ele>
        <time>2021-12-28T10:52:17Z</time>
      </trkpt>
      <trkpt lat="45.9464" lon="6.4317">
        <ele>1038</ele>
        <time>2021-12-28T10:52:22Z</time>
      </trkpt>
      <trkpt lat="45.94659" lon="6.43214">
        <ele>1036</ele>
        <time>2021-12-28T10:52:28Z</time>
      </trkpt>
      <trkpt lat="45.94675" lon="6.43237">
        <ele>1037</ele>
        <time>2021-12-28T10:52:32Z</time>
      </trkpt>
      <trkpt lat="45.94778" lon="6.43351">
        <ele>1050</ele>
        <time>2021-12-28T10:52:55Z</time>
      </trkpt>
      <trkpt lat="45.94904" lon="6.43485">
        <ele>1059</ele>
        <time>2021-12-28T10:53:23Z</time>
      </trkpt>
      <trkpt lat="45.94915" lon="6.43495">
        <ele>1060</ele>
        <time>2021-12-28T10:53:25Z</time>
      </trkpt>
      <trkpt lat="45.94963" lon="6.43509">
        <ele>1069</ele>
        <time>2021-12-28T10:53:34Z</time>
      </trkpt>
      <trkpt lat="45.94982" lon="6.43529">
        <ele>1068</ele>
        <time>2021-12-28T10:53:38Z</time>
      </trkpt>
      <trkpt lat="45.95014" lon="6.4357">
        <ele>1069</ele>
        <time>2021-12-28T10:53:46Z</time>
      </trkpt>
      <trkpt lat="45.95059" lon="6.43602">
        <ele>1073</ele>
        <time>2021-12-28T10:53:55Z</time>
      </trkpt>
      <trkpt lat="45.95075" lon="6.43611">
        <ele>1075</ele>
        <time>2021-12-28T10:53:58Z</time>
      </trkpt>
      <trkpt lat="45.9513" lon="6.43655">
        <ele>1078</ele>
        <time>2021-12-28T10:54:09Z</time>
      </trkpt>
      <trkpt lat="45.95151" lon="6.43668">
        <ele>1080</ele>
        <time>2021-12-28T10:54:13Z</time>
      </trkpt>
      <trkpt lat="45.9521" lon="6.437">
        <ele>1087</ele>
        <time>2021-12-28T10:54:24Z</time>
      </trkpt>
      <trkpt lat="45.95258" lon="6.43718">
        <ele>1092</ele>
        <time>2021-12-28T10:54:33Z</time>
      </trkpt>
      <trkpt lat="45.95305" lon="6.43746">
        <ele>1094</ele>
        <time>2021-12-28T10:54:42Z</time>
      </trkpt>
      <trkpt lat="45.95318" lon="6.43759">
        <ele>1094</ele>
        <time>2021-12-28T10:54:45Z</time>
      </trkpt>
      <trkpt lat="45.95332" lon="6.4378">
        <ele>1094</ele>
        <time>2021-12-28T10:54:49Z</time>
      </trkpt>
      <trkpt lat="45.95356" lon="6.43821">
        <ele>1095</ele>
        <time>2021-12-28T10:54:55Z</time>
      </trkpt>
      <trkpt lat="45.95391" lon="6.43861">
        <ele>1098</ele>
        <time>2021-12-28T10:55:03Z</time>
      </trkpt>
      <trkpt lat="45.95476" lon="6.43941">
        <ele>1106</ele>
        <time>2021-12-28T10:55:21Z</time>
      </trkpt>
      <trkpt lat="45.95487" lon="6.4396">
        <ele>1106</ele>
        <time>2021-12-28T10:55:25Z</time>
      </trkpt>
      <trkpt lat="45.95497" lon="6.44007">
        <ele>1102</ele>
        <time>2021-12-28T10:55:31Z</time>
      </trkpt>
      <trkpt lat="45.95506" lon="6.44014">
        <ele>1104</ele>
        <time>2021-12-28T10:55:32Z</time>
      </trkpt>
      <trkpt lat="45.95517" lon="6.4401">
        <ele>1107</ele>
        <time>2021-12-28T10:55:34Z</time>
      </trkpt>
      <trkpt lat="45.95521" lon="6.44002">
        <ele>1109</ele>
        <time>2021-12-28T10:55:36Z</time>
      </trkpt>
      <trkpt lat="45.95523" lon="6.43996">
        <ele>1110</ele>
        <time>2021-12-28T10:55:36Z</time>
      </trkpt>
      <trkpt lat="45.95522" lon="6.43981">
        <ele>1111</ele>
        <time>2021-12-28T10:55:38Z</time>
      </trkpt>
      <trkpt lat="45.9551" lon="6.43929">
        <ele>1115</ele>
        <time>2021-12-28T10:55:45Z</time>
      </trkpt>
      <trkpt lat="45.95502" lon="6.43907">
        <ele>1116</ele>
        <time>2021-12-28T10:55:48Z</time>
      </trkpt>
      <trkpt lat="45.95512" lon="6.43906">
        <ele>1118</ele>
        <time>2021-12-28T10:55:50Z</time>
      </trkpt>
      <trkpt lat="45.95522" lon="6.43911">
        <ele>1120</ele>
        <time>2021-12-28T10:55:52Z</time>
      </trkpt>
      <trkpt lat="45.9555" lon="6.43934">
        <ele>1122</ele>
        <time>2021-12-28T10:55:58Z</time>
      </trkpt>
      <trkpt lat="45.95554" lon="6.43942">
        <ele>1123</ele>
        <time>2021-12-28T10:55:59Z</time>
      </trkpt>
      <trkpt lat="45.95553" lon="6.43976">
        <ele>1119</ele>
        <time>2021-12-28T10:56:03Z</time>
      </trkpt>
      <trkpt lat="45.95557" lon="6.43989">
        <ele>1119</ele>
        <time>2021-12-28T10:56:05Z</time>
      </trkpt>
      <trkpt lat="45.95586" lon="6.44052">
        <ele>1119</ele>
        <time>2021-12-28T10:56:14Z</time>
      </trkpt>
      <trkpt lat="45.95601" lon="6.44072">
        <ele>1118</ele>
        <time>2021-12-28T10:56:18Z</time>
      </trkpt>
      <trkpt lat="45.95609" lon="6.44076">
        <ele>1118</ele>
        <time>2021-12-28T10:56:19Z</time>
      </trkpt>
      <trkpt lat="45.95617" lon="6.44074">
        <ele>1119</ele>
        <time>2021-12-28T10:56:21Z</time>
      </trkpt>
      <trkpt lat="45.95629" lon="6.44036">
        <ele>1126</ele>
        <time>2021-12-28T10:56:26Z</time>
      </trkpt>
      <trkpt lat="45.95641" lon="6.44024">
        <ele>1130</ele>
        <time>2021-12-28T10:56:28Z</time>
      </trkpt>
      <trkpt lat="45.9565" lon="6.44019">
        <ele>1132</ele>
        <time>2021-12-28T10:56:30Z</time>
      </trkpt>
      <trkpt lat="45.95682" lon="6.44015">
        <ele>1136</ele>
        <time>2021-12-28T10:56:36Z</time>
      </trkpt>
      <trkpt lat="45.95688" lon="6.44012">
        <ele>1137</ele>
        <time>2021-12-28T10:56:37Z</time>
      </trkpt>
      <trkpt lat="45.95691" lon="6.44005">
        <ele>1138</ele>
        <time>2021-12-28T10:56:38Z</time>
      </trkpt>
      <trkpt lat="45.95689" lon="6.44">
        <ele>1139</ele>
        <time>2021-12-28T10:56:39Z</time>
      </trkpt>
      <trkpt lat="45.95669" lon="6.43997">
        <ele>1138</ele>
        <time>2021-12-28T10:56:42Z</time>
      </trkpt>
      <trkpt lat="45.95665" lon="6.43991">
        <ele>1138</ele>
        <time>2021-12-28T10:56:43Z</time>
      </trkpt>
      <trkpt lat="45.95664" lon="6.43984">
        <ele>1139</ele>
        <time>2021-12-28T10:56:44Z</time>
      </trkpt>
      <trkpt lat="45.95669" lon="6.43981">
        <ele>1140</ele>
        <time>2021-12-28T10:56:45Z</time>
      </trkpt>
      <trkpt lat="45.95675" lon="6.43971">
        <ele>1141</ele>
        <time>2021-12-28T10:56:47Z</time>
      </trkpt>
      <trkpt lat="45.95677" lon="6.43963">
        <ele>1142</ele>
        <time>2021-12-28T10:56:48Z</time>
      </trkpt>
      <trkpt lat="45.95677" lon="6.4395">
        <ele>1143</ele>
        <time>2021-12-28T10:56:50Z</time>
      </trkpt>
      <trkpt lat="45.95649" lon="6.4389">
        <ele>1145</ele>
        <time>2021-12-28T10:56:58Z</time>
      </trkpt>
      <trkpt lat="45.95661" lon="6.43885">
        <ele>1147</ele>
        <time>2021-12-28T10:57:01Z</time>
      </trkpt>
      <trkpt lat="45.95682" lon="6.43907">
        <ele>1148</ele>
        <time>2021-12-28T10:57:05Z</time>
      </trkpt>
      <trkpt lat="45.9573" lon="6.43896">
        <ele>1156</ele>
        <time>2021-12-28T10:57:14Z</time>
      </trkpt>
      <trkpt lat="45.95748" lon="6.43886">
        <ele>1159</ele>
        <time>2021-12-28T10:57:17Z</time>
      </trkpt>
      <trkpt lat="45.95781" lon="6.43875">
        <ele>1161</ele>
        <time>2021-12-28T10:57:23Z</time>
      </trkpt>
      <trkpt lat="45.95819" lon="6.43854">
        <ele>1164</ele>
        <time>2021-12-28T10:57:31Z</time>
      </trkpt>
      <trkpt lat="45.95884" lon="6.43832">
        <ele>1172</ele>
        <time>2021-12-28T10:57:43Z</time>
      </trkpt>
      <trkpt lat="45.95906" lon="6.43818">
        <ele>1174</ele>
        <time>2021-12-28T10:57:47Z</time>
      </trkpt>
      <trkpt lat="45.96003" lon="6.43742">
        <ele>1184</ele>
        <time>2021-12-28T10:58:06Z</time>
      </trkpt>
      <trkpt lat="45.96005" lon="6.43735">
        <ele>1185</ele>
        <time>2021-12-28T10:58:07Z</time>
      </trkpt>
      <trkpt lat="45.96004" lon="6.43729">
        <ele>1186</ele>
        <time>2021-12-28T10:58:08Z</time>
      </trkpt>
      <trkpt lat="45.96028" lon="6.43711">
        <ele>1186</ele>
        <time>2021-12-28T10:58:13Z</time>
      </trkpt>
      <trkpt lat="45.96047" lon="6.43693">
        <ele>1186</ele>
        <time>2021-12-28T10:58:17Z</time>
      </trkpt>
      <trkpt lat="45.96067" lon="6.43669">
        <ele>1186</ele>
        <time>2021-12-28T10:58:22Z</time>
      </trkpt>
      <trkpt lat="45.96083" lon="6.43645">
        <ele>1190</ele>
        <time>2021-12-28T10:58:26Z</time>
      </trkpt>
      <trkpt lat="45.96088" lon="6.4363">
        <ele>1193</ele>
        <time>2021-12-28T10:58:28Z</time>
      </trkpt>
      <trkpt lat="45.96099" lon="6.43578">
        <ele>1203</ele>
        <time>2021-12-28T10:58:35Z</time>
      </trkpt>
      <trkpt lat="45.96131" lon="6.43498">
        <ele>1212</ele>
        <time>2021-12-28T10:58:46Z</time>
      </trkpt>
      <trkpt lat="45.96139" lon="6.43485">
        <ele>1213</ele>
        <time>2021-12-28T10:58:48Z</time>
      </trkpt>
      <trkpt lat="45.96147" lon="6.43479">
        <ele>1213</ele>
        <time>2021-12-28T10:58:50Z</time>
      </trkpt>
      <trkpt lat="45.96159" lon="6.43477">
        <ele>1211</ele>
        <time>2021-12-28T10:58:52Z</time>
      </trkpt>
      <trkpt lat="45.96175" lon="6.43483">
        <ele>1210</ele>
        <time>2021-12-28T10:58:55Z</time>
      </trkpt>
      <trkpt lat="45.96197" lon="6.435">
        <ele>1211</ele>
        <time>2021-12-28T10:58:59Z</time>
      </trkpt>
      <trkpt lat="45.96209" lon="6.43518">
        <ele>1210</ele>
        <time>2021-12-28T10:59:02Z</time>
      </trkpt>
      <trkpt lat="45.96218" lon="6.43526">
        <ele>1211</ele>
        <time>2021-12-28T10:59:04Z</time>
      </trkpt>
      <trkpt lat="45.96242" lon="6.43537">
        <ele>1213</ele>
        <time>2021-12-28T10:59:09Z</time>
      </trkpt>
      <trkpt lat="45.96253" lon="6.43552">
        <ele>1213</ele>
        <time>2021-12-28T10:59:11Z</time>
      </trkpt>
      <trkpt lat="45.96264" lon="6.43592">
        <ele>1207</ele>
        <time>2021-12-28T10:59:17Z</time>
      </trkpt>
      <trkpt lat="45.96272" lon="6.43608">
        <ele>1206</ele>
        <time>2021-12-28T10:59:19Z</time>
      </trkpt>
      <trkpt lat="45.96281" lon="6.4362">
        <ele>1206</ele>
        <time>2021-12-28T10:59:21Z</time>
      </trkpt>
      <trkpt lat="45.96293" lon="6.43631">
        <ele>1208</ele>
        <time>2021-12-28T10:59:24Z</time>
      </trkpt>
      <trkpt lat="45.96319" lon="6.43649">
        <ele>1213</ele>
        <time>2021-12-28T10:59:29Z</time>
      </trkpt>
      <trkpt lat="45.9636" lon="6.43674">
        <ele>1217</ele>
        <time>2021-12-28T10:59:37Z</time>
      </trkpt>
      <trkpt lat="45.9639" lon="6.43703">
        <ele>1216</ele>
        <time>2021-12-28T10:59:43Z</time>
      </trkpt>
      <trkpt lat="45.96493" lon="6.43858">
        <ele>1224</ele>
        <time>2021-12-28T11:00:10Z</time>
      </trkpt>
      <trkpt lat="45.96501" lon="6.43872">
        <ele>1224</ele>
        <time>2021-12-28T11:00:12Z</time>
      </trkpt>
      <trkpt lat="45.96554" lon="6.44008">
        <ele>1230</ele>
        <time>2021-12-28T11:00:31Z</time>
      </trkpt>
      <trkpt lat="45.96647" lon="6.44232">
        <ele>1232</ele>
        <time>2021-12-28T11:01:04Z</time>
      </trkpt>
      <trkpt lat="45.96681" lon="6.44286">
        <ele>1236</ele>
        <time>2021-12-28T11:01:13Z</time>
      </trkpt>
      <trkpt lat="45.96758" lon="6.44383">
        <ele>1242</ele>
        <time>2021-12-28T11:01:31Z</time>
      </trkpt>
      <trkpt lat="45.96774" lon="6.4442">
        <ele>1241</ele>
        <time>2021-12-28T11:01:36Z</time>
      </trkpt>
      <trkpt lat="45.96823" lon="6.44644">
        <ele>1246</ele>
        <time>2021-12-28T11:02:05Z</time>
      </trkpt>
      <trkpt lat="45.96844" lon="6.44693">
        <ele>1247</ele>
        <time>2021-12-28T11:02:12Z</time>
      </trkpt>
      <trkpt lat="45.96926" lon="6.44803">
        <ele>1253</ele>
        <time>2021-12-28T11:02:32Z</time>
      </trkpt>
      <trkpt lat="45.96966" lon="6.4483">
        <ele>1258</ele>
        <time>2021-12-28T11:02:40Z</time>
      </trkpt>
      <trkpt lat="45.97218" lon="6.4498">
        <ele>1272</ele>
        <time>2021-12-28T11:03:29Z</time>
      </trkpt>
      <trkpt lat="45.97229" lon="6.44991">
        <ele>1272</ele>
        <time>2021-12-28T11:03:31Z</time>
      </trkpt>
      <trkpt lat="45.97239" lon="6.45007">
        <ele>1272</ele>
        <time>2021-12-28T11:03:34Z</time>
      </trkpt>
      <trkpt lat="45.97266" lon="6.45067">
        <ele>1278</ele>
        <time>2021-12-28T11:03:43Z</time>
      </trkpt>
      <trkpt lat="45.9729" lon="6.45113">
        <ele>1284</ele>
        <time>2021-12-28T11:03:50Z</time>
      </trkpt>
      <trkpt lat="45.97331" lon="6.45226">
        <ele>1287</ele>
        <time>2021-12-28T11:04:06Z</time>
      </trkpt>
      <trkpt lat="45.97336" lon="6.45246">
        <ele>1288</ele>
        <time>2021-12-28T11:04:08Z</time>
      </trkpt>
      <trkpt lat="45.97339" lon="6.45282">
        <ele>1287</ele>
        <time>2021-12-28T11:04:13Z</time>
      </trkpt>
      <trkpt lat="45.97346" lon="6.45328">
        <ele>1288</ele>
        <time>2021-12-28T11:04:18Z</time>
      </trkpt>
      <trkpt lat="45.9737" lon="6.45406">
        <ele>1292</ele>
        <time>2021-12-28T11:04:29Z</time>
      </trkpt>
      <trkpt lat="45.97376" lon="6.45433">
        <ele>1293</ele>
        <time>2021-12-28T11:04:33Z</time>
      </trkpt>
      <trkpt lat="45.97381" lon="6.45466">
        <ele>1292</ele>
        <time>2021-12-28T11:04:37Z</time>
      </trkpt>
      <trkpt lat="45.97383" lon="6.45504">
        <ele>1289</ele>
        <time>2021-12-28T11:04:41Z</time>
      </trkpt>
      <trkpt lat="45.9739" lon="6.45534">
        <ele>1290</ele>
        <time>2021-12-28T11:04:45Z</time>
      </trkpt>
      <trkpt lat="45.9743" lon="6.45666">
        <ele>1293</ele>
        <time>2021-12-28T11:05:03Z</time>
      </trkpt>
      <trkpt lat="45.97453" lon="6.45725">
        <ele>1297</ele>
        <time>2021-12-28T11:05:12Z</time>
      </trkpt>
      <trkpt lat="45.97466" lon="6.45754">
        <ele>1299</ele>
        <time>2021-12-28T11:05:16Z</time>
      </trkpt>
      <trkpt lat="45.97521" lon="6.45859">
        <ele>1302</ele>
        <time>2021-12-28T11:05:32Z</time>
      </trkpt>
      <trkpt lat="45.97535" lon="6.4588">
        <ele>1303</ele>
        <time>2021-12-28T11:05:36Z</time>
      </trkpt>
      <trkpt lat="45.97567" lon="6.45938">
        <ele>1305</ele>
        <time>2021-12-28T11:05:45Z</time>
      </trkpt>
      <trkpt lat="45.9762" lon="6.46008">
        <ele>1311</ele>
        <time>2021-12-28T11:05:58Z</time>
      </trkpt>
      <trkpt lat="45.97625" lon="6.46021">
        <ele>1310</ele>
        <time>2021-12-28T11:05:59Z</time>
      </trkpt>
      <trkpt lat="45.97626" lon="6.46039">
        <ele>1309</ele>
        <time>2021-12-28T11:06:02Z</time>
      </trkpt>
      <trkpt lat="45.97628" lon="6.46084">
        <ele>1305</ele>
        <time>2021-12-28T11:06:07Z</time>
      </trkpt>
      <trkpt lat="45.97636" lon="6.46242">
        <ele>1315</ele>
        <time>2021-12-28T11:06:27Z</time>
      </trkpt>
      <trkpt lat="45.97613" lon="6.46495">
        <ele>1329</ele>
        <time>2021-12-28T11:06:58Z</time>
      </trkpt>
      <trkpt lat="45.97615" lon="6.46504">
        <ele>1330</ele>
        <time>2021-12-28T11:07:00Z</time>
      </trkpt>
      <trkpt lat="45.97623" lon="6.46515">
        <ele>1332</ele>
        <time>2021-12-28T11:07:02Z</time>
      </trkpt>
      <trkpt lat="45.97634" lon="6.46517">
        <ele>1334</ele>
        <time>2021-12-28T11:07:03Z</time>
      </trkpt>
      <trkpt lat="45.97643" lon="6.46512">
        <ele>1335</ele>
        <time>2021-12-28T11:07:05Z</time>
      </trkpt>
      <trkpt lat="45.97758" lon="6.46378">
        <ele>1345</ele>
        <time>2021-12-28T11:07:32Z</time>
      </trkpt>
      <trkpt lat="45.97788" lon="6.46337">
        <ele>1347</ele>
        <time>2021-12-28T11:07:39Z</time>
      </trkpt>
      <trkpt lat="45.97821" lon="6.46254">
        <ele>1343</ele>
        <time>2021-12-28T11:07:51Z</time>
      </trkpt>
      <trkpt lat="45.97828" lon="6.46245">
        <ele>1343</ele>
        <time>2021-12-28T11:07:52Z</time>
      </trkpt>
      <trkpt lat="45.97832" lon="6.46243">
        <ele>1343</ele>
        <time>2021-12-28T11:07:53Z</time>
      </trkpt>
      <trkpt lat="45.97842" lon="6.46245">
        <ele>1343</ele>
        <time>2021-12-28T11:07:55Z</time>
      </trkpt>
      <trkpt lat="45.97847" lon="6.46249">
        <ele>1344</ele>
        <time>2021-12-28T11:07:56Z</time>
      </trkpt>
      <trkpt lat="45.9785" lon="6.46254">
        <ele>1344</ele>
        <time>2021-12-28T11:07:57Z</time>
      </trkpt>
      <trkpt lat="45.97853" lon="6.46267">
        <ele>1346</ele>
        <time>2021-12-28T11:07:58Z</time>
      </trkpt>
      <trkpt lat="45.97852" lon="6.46276">
        <ele>1347</ele>
        <time>2021-12-28T11:08:00Z</time>
      </trkpt>
      <trkpt lat="45.97758" lon="6.46683">
        <ele>1373</ele>
        <time>2021-12-28T11:08:53Z</time>
      </trkpt>
      <trkpt lat="45.97738" lon="6.46757">
        <ele>1377</ele>
        <time>2021-12-28T11:09:02Z</time>
      </trkpt>
      <trkpt lat="45.97654" lon="6.46963">
        <ele>1388</ele>
        <time>2021-12-28T11:09:32Z</time>
      </trkpt>
      <trkpt lat="45.97649" lon="6.46979">
        <ele>1388</ele>
        <time>2021-12-28T11:09:34Z</time>
      </trkpt>
      <trkpt lat="45.97648" lon="6.46987">
        <ele>1388</ele>
        <time>2021-12-28T11:09:35Z</time>
      </trkpt>
      <trkpt lat="45.9765" lon="6.46999">
        <ele>1390</ele>
        <time>2021-12-28T11:09:37Z</time>
      </trkpt>
      <trkpt lat="45.97656" lon="6.47008">
        <ele>1393</ele>
        <time>2021-12-28T11:09:38Z</time>
      </trkpt>
      <trkpt lat="45.97667" lon="6.47012">
        <ele>1396</ele>
        <time>2021-12-28T11:09:40Z</time>
      </trkpt>
      <trkpt lat="45.97672" lon="6.4701">
        <ele>1397</ele>
        <time>2021-12-28T11:09:41Z</time>
      </trkpt>
      <trkpt lat="45.97681" lon="6.46999">
        <ele>1399</ele>
        <time>2021-12-28T11:09:43Z</time>
      </trkpt>
      <trkpt lat="45.97726" lon="6.46923">
        <ele>1401</ele>
        <time>2021-12-28T11:09:56Z</time>
      </trkpt>
      <trkpt lat="45.97742" lon="6.46908">
        <ele>1403</ele>
        <time>2021-12-28T11:09:59Z</time>
      </trkpt>
      <trkpt lat="45.9782" lon="6.46868">
        <ele>1410</ele>
        <time>2021-12-28T11:10:14Z</time>
      </trkpt>
      <trkpt lat="45.97832" lon="6.46857">
        <ele>1410</ele>
        <time>2021-12-28T11:10:16Z</time>
      </trkpt>
      <trkpt lat="45.97848" lon="6.46832">
        <ele>1411</ele>
        <time>2021-12-28T11:10:20Z</time>
      </trkpt>
      <trkpt lat="45.97861" lon="6.46807">
        <ele>1413</ele>
        <time>2021-12-28T11:10:24Z</time>
      </trkpt>
      <trkpt lat="45.97885" lon="6.46743">
        <ele>1412</ele>
        <time>2021-12-28T11:10:33Z</time>
      </trkpt>
      <trkpt lat="45.97895" lon="6.46723">
        <ele>1413</ele>
        <time>2021-12-28T11:10:36Z</time>
      </trkpt>
      <trkpt lat="45.97905" lon="6.46708">
        <ele>1415</ele>
        <time>2021-12-28T11:10:39Z</time>
      </trkpt>
      <trkpt lat="45.97956" lon="6.4666">
        <ele>1424</ele>
        <time>2021-12-28T11:10:50Z</time>
      </trkpt>
      <trkpt lat="45.98017" lon="6.46606">
        <ele>1429</ele>
        <time>2021-12-28T11:11:03Z</time>
      </trkpt>
      <trkpt lat="45.98033" lon="6.46596">
        <ele>1429</ele>
        <time>2021-12-28T11:11:06Z</time>
      </trkpt>
      <trkpt lat="45.98215" lon="6.46546">
        <ele>1449</ele>
        <time>2021-12-28T11:11:39Z</time>
      </trkpt>
      <trkpt lat="45.98274" lon="6.46531">
        <ele>1452</ele>
        <time>2021-12-28T11:11:49Z</time>
      </trkpt>
      <trkpt lat="45.9829" lon="6.46529">
        <ele>1453</ele>
        <time>2021-12-28T11:11:52Z</time>
      </trkpt>
      <trkpt lat="45.98304" lon="6.46532">
        <ele>1455</ele>
        <time>2021-12-28T11:11:55Z</time>
      </trkpt>
      <trkpt lat="45.98513" lon="6.46604">
        <ele>1471</ele>
        <time>2021-12-28T11:12:33Z</time>
      </trkpt>
      <trkpt lat="45.98529" lon="6.46612">
        <ele>1472</ele>
        <time>2021-12-28T11:12:36Z</time>
      </trkpt>
      <trkpt lat="45.98558" lon="6.46635">
        <ele>1475</ele>
        <time>2021-12-28T11:12:42Z</time>
      </trkpt>
      <trkpt lat="45.9858" lon="6.46657">
        <ele>1479</ele>
        <time>2021-12-28T11:12:47Z</time>
      </trkpt>
      <trkpt lat="45.98596" lon="6.46679">
        <ele>1481</ele>
        <time>2021-12-28T11:12:50Z</time>
      </trkpt>
      <trkpt lat="45.9862" lon="6.46725">
        <ele>1484</ele>
        <time>2021-12-28T11:12:58Z</time>
      </trkpt>
      <trkpt lat="45.98683" lon="6.46878">
        <ele>1498</ele>
        <time>2021-12-28T11:13:20Z</time>
      </trkpt>
      <trkpt lat="45.9874" lon="6.47009">
        <ele>1510</ele>
        <time>2021-12-28T11:13:39Z</time>
      </trkpt>
      <trkpt lat="45.98751" lon="6.47028">
        <ele>1508</ele>
        <time>2021-12-28T11:13:42Z</time>
      </trkpt>
      <trkpt lat="45.9877" lon="6.47054">
        <ele>1511</ele>
        <time>2021-12-28T11:13:46Z</time>
      </trkpt>
      <trkpt lat="45.9879" lon="6.47072">
        <ele>1512</ele>
        <time>2021-12-28T11:13:51Z</time>
      </trkpt>
      <trkpt lat="45.98802" lon="6.47078">
        <ele>1512</ele>
        <time>2021-12-28T11:13:53Z</time>
      </trkpt>
      <trkpt lat="45.98824" lon="6.47084">
        <ele>1511</ele>
        <time>2021-12-28T11:13:57Z</time>
      </trkpt>
      <trkpt lat="45.98847" lon="6.47082">
        <ele>1512</ele>
        <time>2021-12-28T11:14:01Z</time>
      </trkpt>
      <trkpt lat="45.98861" lon="6.47077">
        <ele>1514</ele>
        <time>2021-12-28T11:14:04Z</time>
      </trkpt>
      <trkpt lat="45.98873" lon="6.4707">
        <ele>1516</ele>
        <time>2021-12-28T11:14:06Z</time>
      </trkpt>
      <trkpt lat="45.98884" lon="6.47059">
        <ele>1518</ele>
        <time>2021-12-28T11:14:08Z</time>
      </trkpt>
      <trkpt lat="45.98901" lon="6.47037">
        <ele>1522</ele>
        <time>2021-12-28T11:14:12Z</time>
      </trkpt>
      <trkpt lat="45.98913" lon="6.47015">
        <ele>1527</ele>
        <time>2021-12-28T11:14:16Z</time>
      </trkpt>
      <trkpt lat="45.98923" lon="6.46971">
        <ele>1530</ele>
        <time>2021-12-28T11:14:21Z</time>
      </trkpt>
      <trkpt lat="45.98923" lon="6.46908">
        <ele>1528</ele>
        <time>2021-12-28T11:14:29Z</time>
      </trkpt>
      <trkpt lat="45.98918" lon="6.46878">
        <ele>1528</ele>
        <time>2021-12-28T11:14:33Z</time>
      </trkpt>
      <trkpt lat="45.98904" lon="6.46835">
        <ele>1527</ele>
        <time>2021-12-28T11:14:39Z</time>
      </trkpt>
      <trkpt lat="45.98904" lon="6.46823">
        <ele>1528</ele>
        <time>2021-12-28T11:14:40Z</time>
      </trkpt>
      <trkpt lat="45.98906" lon="6.46815">
        <ele>1529</ele>
        <time>2021-12-28T11:14:41Z</time>
      </trkpt>
      <trkpt lat="45.9891" lon="6.4681">
        <ele>1531</ele>
        <time>2021-12-28T11:14:42Z</time>
      </trkpt>
      <trkpt lat="45.98915" lon="6.46806">
        <ele>1533</ele>
        <time>2021-12-28T11:14:43Z</time>
      </trkpt>
      <trkpt lat="45.98922" lon="6.46807">
        <ele>1535</ele>
        <time>2021-12-28T11:14:45Z</time>
      </trkpt>
      <trkpt lat="45.98933" lon="6.46818">
        <ele>1539</ele>
        <time>2021-12-28T11:14:47Z</time>
      </trkpt>
      <trkpt lat="45.98937" lon="6.46829">
        <ele>1539</ele>
        <time>2021-12-28T11:14:49Z</time>
      </trkpt>
      <trkpt lat="45.98967" lon="6.47014">
        <ele>1545</ele>
        <time>2021-12-28T11:15:12Z</time>
      </trkpt>
      <trkpt lat="45.98993" lon="6.47114">
        <ele>1547</ele>
        <time>2021-12-28T11:15:25Z</time>
      </trkpt>
      <trkpt lat="45.99002" lon="6.47139">
        <ele>1549</ele>
        <time>2021-12-28T11:15:29Z</time>
      </trkpt>
      <trkpt lat="45.99006" lon="6.47148">
        <ele>1551</ele>
        <time>2021-12-28T11:15:30Z</time>
      </trkpt>
      <trkpt lat="45.99013" lon="6.47152">
        <ele>1553</ele>
        <time>2021-12-28T11:15:31Z</time>
      </trkpt>
      <trkpt lat="45.99018" lon="6.47153">
        <ele>1555</ele>
        <time>2021-12-28T11:15:32Z</time>
      </trkpt>
      <trkpt lat="45.99024" lon="6.47151">
        <ele>1558</ele>
        <time>2021-12-28T11:15:33Z</time>
      </trkpt>
      <trkpt lat="45.99029" lon="6.47145">
        <ele>1561</ele>
        <time>2021-12-28T11:15:35Z</time>
      </trkpt>
      <trkpt lat="45.99033" lon="6.4713">
        <ele>1564</ele>
        <time>2021-12-28T11:15:37Z</time>
      </trkpt>
      <trkpt lat="45.99032" lon="6.47119">
        <ele>1564</ele>
        <time>2021-12-28T11:15:38Z</time>
      </trkpt>
      <trkpt lat="45.98999" lon="6.46999">
        <ele>1558</ele>
        <time>2021-12-28T11:15:54Z</time>
      </trkpt>
      <trkpt lat="45.98999" lon="6.46989">
        <ele>1558</ele>
        <time>2021-12-28T11:15:55Z</time>
      </trkpt>
      <trkpt lat="45.99001" lon="6.46977">
        <ele>1560</ele>
        <time>2021-12-28T11:15:57Z</time>
      </trkpt>
      <trkpt lat="45.99006" lon="6.4697">
        <ele>1563</ele>
        <time>2021-12-28T11:15:58Z</time>
      </trkpt>
      <trkpt lat="45.99013" lon="6.46966">
        <ele>1567</ele>
        <time>2021-12-28T11:15:59Z</time>
      </trkpt>
      <trkpt lat="45.99019" lon="6.46966">
        <ele>1570</ele>
        <time>2021-12-28T11:16:00Z</time>
      </trkpt>
      <trkpt lat="45.99025" lon="6.46969">
        <ele>1573</ele>
        <time>2021-12-28T11:16:01Z</time>
      </trkpt>
      <trkpt lat="45.99033" lon="6.46985">
        <ele>1577</ele>
        <time>2021-12-28T11:16:04Z</time>
      </trkpt>
      <trkpt lat="45.99077" lon="6.47143">
        <ele>1582</ele>
        <time>2021-12-28T11:16:25Z</time>
      </trkpt>
      <trkpt lat="45.99091" lon="6.47186">
        <ele>1585</ele>
        <time>2021-12-28T11:16:31Z</time>
      </trkpt>
      <trkpt lat="45.99146" lon="6.47314">
        <ele>1602</ele>
        <time>2021-12-28T11:16:49Z</time>
      </trkpt>
      <trkpt lat="45.99157" lon="6.47342">
        <ele>1605</ele>
        <time>2021-12-28T11:16:53Z</time>
      </trkpt>
      <trkpt lat="45.99173" lon="6.47396">
        <ele>1605</ele>
        <time>2021-12-28T11:17:01Z</time>
      </trkpt>
      <trkpt lat="45.99189" lon="6.47459">
        <ele>1611</ele>
        <time>2021-12-28T11:17:09Z</time>
      </trkpt>
      <trkpt lat="45.99226" lon="6.47582">
        <ele>1620</ele>
        <time>2021-12-28T11:17:25Z</time>
      </trkpt>
      <trkpt lat="45.99241" lon="6.47637">
        <ele>1617</ele>
        <time>2021-12-28T11:17:33Z</time>
      </trkpt>
      <trkpt lat="45.99248" lon="6.47654">
        <ele>1615</ele>
        <time>2021-12-28T11:17:35Z</time>
      </trkpt>
      <trkpt lat="45.99261" lon="6.47676">
        <ele>1615</ele>
        <time>2021-12-28T11:17:39Z</time>
      </trkpt>
      <trkpt lat="45.99294" lon="6.47721">
        <ele>1610</ele>
        <time>2021-12-28T11:17:47Z</time>
      </trkpt>
      <trkpt lat="45.99329" lon="6.47751">
        <ele>1602</ele>
        <time>2021-12-28T11:17:54Z</time>
      </trkpt>
      <trkpt lat="45.99351" lon="6.47774">
        <ele>1598</ele>
        <time>2021-12-28T11:17:59Z</time>
      </trkpt>
      <trkpt lat="45.99379" lon="6.47793">
        <ele>1600</ele>
        <time>2021-12-28T11:18:04Z</time>
      </trkpt>
      <trkpt lat="45.99395" lon="6.47807">
        <ele>1601</ele>
        <time>2021-12-28T11:18:08Z</time>
      </trkpt>
      <trkpt lat="45.99421" lon="6.47834">
        <ele>1601</ele>
        <time>2021-12-28T11:18:14Z</time>
      </trkpt>
      <trkpt lat="45.9943" lon="6.47856">
        <ele>1598</ele>
        <time>2021-12-28T11:18:17Z</time>
      </trkpt>
      <trkpt lat="45.99448" lon="6.47935">
        <ele>1582</ele>
        <time>2021-12-28T11:18:27Z</time>
      </trkpt>
      <trkpt lat="45.99466" lon="6.47987">
        <ele>1573</ele>
        <time>2021-12-28T11:18:34Z</time>
      </trkpt>
      <trkpt lat="45.9948" lon="6.4802">
        <ele>1570</ele>
        <time>2021-12-28T11:18:39Z</time>
      </trkpt>
      <trkpt lat="45.9949" lon="6.48063">
        <ele>1562</ele>
        <time>2021-12-28T11:18:45Z</time>
      </trkpt>
      <trkpt lat="45.995" lon="6.48084">
        <ele>1561</ele>
        <time>2021-12-28T11:18:48Z</time>
      </trkpt>
      <trkpt lat="45.99598" lon="6.482">
        <ele>1548</ele>
        <time>2021-12-28T11:19:10Z</time>
      </trkpt>
      <trkpt lat="45.99627" lon="6.4822">
        <ele>1550</ele>
        <time>2021-12-28T11:19:16Z</time>
      </trkpt>
      <trkpt lat="45.99639" lon="6.48232">
        <ele>1550</ele>
        <time>2021-12-28T11:19:19Z</time>
      </trkpt>
      <trkpt lat="45.99648" lon="6.48249">
        <ele>1547</ele>
        <time>2021-12-28T11:19:21Z</time>
      </trkpt>
      <trkpt lat="45.99655" lon="6.48265">
        <ele>1544</ele>
        <time>2021-12-28T11:19:24Z</time>
      </trkpt>
      <trkpt lat="45.99669" lon="6.48318">
        <ele>1531</ele>
        <time>2021-12-28T11:19:31Z</time>
      </trkpt>
      <trkpt lat="45.9968" lon="6.48341">
        <ele>1531</ele>
        <time>2021-12-28T11:19:34Z</time>
      </trkpt>
      <trkpt lat="45.997" lon="6.48376">
        <ele>1533</ele>
        <time>2021-12-28T11:19:40Z</time>
      </trkpt>
      <trkpt lat="45.9971" lon="6.48399">
        <ele>1532</ele>
        <time>2021-12-28T11:19:43Z</time>
      </trkpt>
      <trkpt lat="45.99729" lon="6.48482">
        <ele>1526</ele>
        <time>2021-12-28T11:19:54Z</time>
      </trkpt>
      <trkpt lat="45.99764" lon="6.48593">
        <ele>1519</ele>
        <time>2021-12-28T11:20:09Z</time>
      </trkpt>
      <trkpt lat="45.99766" lon="6.48611">
        <ele>1518</ele>
        <time>2021-12-28T11:20:11Z</time>
      </trkpt>
      <trkpt lat="45.9976" lon="6.48655">
        <ele>1507</ele>
        <time>2021-12-28T11:20:17Z</time>
      </trkpt>
      <trkpt lat="45.9976" lon="6.48672">
        <ele>1505</ele>
        <time>2021-12-28T11:20:19Z</time>
      </trkpt>
      <trkpt lat="45.99767" lon="6.48743">
        <ele>1505</ele>
        <time>2021-12-28T11:20:28Z</time>
      </trkpt>
      <trkpt lat="45.99769" lon="6.48786">
        <ele>1497</ele>
        <time>2021-12-28T11:20:33Z</time>
      </trkpt>
      <trkpt lat="45.99779" lon="6.48832">
        <ele>1493</ele>
        <time>2021-12-28T11:20:39Z</time>
      </trkpt>
      <trkpt lat="45.99787" lon="6.48893">
        <ele>1480</ele>
        <time>2021-12-28T11:20:47Z</time>
      </trkpt>
      <trkpt lat="45.99805" lon="6.48956">
        <ele>1471</ele>
        <time>2021-12-28T11:20:55Z</time>
      </trkpt>
      <trkpt lat="45.99816" lon="6.48979">
        <ele>1470</ele>
        <time>2021-12-28T11:20:58Z</time>
      </trkpt>
      <trkpt lat="45.99829" lon="6.48997">
        <ele>1471</ele>
        <time>2021-12-28T11:21:02Z</time>
      </trkpt>
      <trkpt lat="45.99851" lon="6.49027">
        <ele>1472</ele>
        <time>2021-12-28T11:21:07Z</time>
      </trkpt>
      <trkpt lat="45.99879" lon="6.49058">
        <ele>1478</ele>
        <time>2021-12-28T11:21:13Z</time>
      </trkpt>
      <trkpt lat="45.99885" lon="6.49068">
        <ele>1478</ele>
        <time>2021-12-28T11:21:15Z</time>
      </trkpt>
      <trkpt lat="45.99909" lon="6.49118">
        <ele>1471</ele>
        <time>2021-12-28T11:21:22Z</time>
      </trkpt>
      <trkpt lat="45.99933" lon="6.49157">
        <ele>1464</ele>
        <time>2021-12-28T11:21:29Z</time>
      </trkpt>
      <trkpt lat="45.99962" lon="6.49216">
        <ele>1446</ele>
        <time>2021-12-28T11:21:38Z</time>
      </trkpt>
      <trkpt lat="45.99973" lon="6.49225">
        <ele>1446</ele>
        <time>2021-12-28T11:21:40Z</time>
      </trkpt>
      <trkpt lat="45.99989" lon="6.4923">
        <ele>1449</ele>
        <time>2021-12-28T11:21:43Z</time>
      </trkpt>
      <trkpt lat="46.00008" lon="6.49239">
        <ele>1452</ele>
        <time>2021-12-28T11:21:47Z</time>
      </trkpt>
      <trkpt lat="46.00019" lon="6.49249">
        <ele>1450</ele>
        <time>2021-12-28T11:21:49Z</time>
      </trkpt>
      <trkpt lat="46.00034" lon="6.49266">
        <ele>1453</ele>
        <time>2021-12-28T11:21:52Z</time>
      </trkpt>
      <trkpt lat="46.00054" lon="6.49299">
        <ele>1456</ele>
        <time>2021-12-28T11:21:58Z</time>
      </trkpt>
      <trkpt lat="46.00057" lon="6.49308">
        <ele>1456</ele>
        <time>2021-12-28T11:21:59Z</time>
      </trkpt>
      <trkpt lat="46.00058" lon="6.4932">
        <ele>1455</ele>
        <time>2021-12-28T11:22:00Z</time>
      </trkpt>
      <trkpt lat="46.00051" lon="6.49386">
        <ele>1442</ele>
        <time>2021-12-28T11:22:09Z</time>
      </trkpt>
      <trkpt lat="46.00052" lon="6.49412">
        <ele>1439</ele>
        <time>2021-12-28T11:22:12Z</time>
      </trkpt>
      <trkpt lat="46.00042" lon="6.49491">
        <ele>1420</ele>
        <time>2021-12-28T11:22:22Z</time>
      </trkpt>
      <trkpt lat="46.00033" lon="6.49518">
        <ele>1410</ele>
        <time>2021-12-28T11:22:25Z</time>
      </trkpt>
      <trkpt lat="46.00035" lon="6.49532">
        <ele>1407</ele>
        <time>2021-12-28T11:22:27Z</time>
      </trkpt>
      <trkpt lat="46.00054" lon="6.49579">
        <ele>1406</ele>
        <time>2021-12-28T11:22:34Z</time>
      </trkpt>
      <trkpt lat="46.00086" lon="6.49639">
        <ele>1405</ele>
        <time>2021-12-28T11:22:43Z</time>
      </trkpt>
      <trkpt lat="46.00177" lon="6.49821">
        <ele>1398</ele>
        <time>2021-12-28T11:23:11Z</time>
      </trkpt>
      <trkpt lat="46.00193" lon="6.4987">
        <ele>1396</ele>
        <time>2021-12-28T11:23:18Z</time>
      </trkpt>
      <trkpt lat="46.00202" lon="6.49906">
        <ele>1395</ele>
        <time>2021-12-28T11:23:22Z</time>
      </trkpt>
      <trkpt lat="46.00208" lon="6.4997">
        <ele>1383</ele>
        <time>2021-12-28T11:23:30Z</time>
      </trkpt>
      <trkpt lat="46.0021" lon="6.49983">
        <ele>1382</ele>
        <time>2021-12-28T11:23:32Z</time>
      </trkpt>
      <trkpt lat="46.00213" lon="6.49991">
        <ele>1382</ele>
        <time>2021-12-28T11:23:33Z</time>
      </trkpt>
      <trkpt lat="46.00231" lon="6.5002">
        <ele>1384</ele>
        <time>2021-12-28T11:23:38Z</time>
      </trkpt>
      <trkpt lat="46.00241" lon="6.50043">
        <ele>1383</ele>
        <time>2021-12-28T11:23:41Z</time>
      </trkpt>
      <trkpt lat="46.00264" lon="6.50124">
        <ele>1373</ele>
        <time>2021-12-28T11:23:52Z</time>
      </trkpt>
      <trkpt lat="46.00277" lon="6.50175">
        <ele>1370</ele>
        <time>2021-12-28T11:23:59Z</time>
      </trkpt>
      <trkpt lat="46.00282" lon="6.50197">
        <ele>1371</ele>
        <time>2021-12-28T11:24:02Z</time>
      </trkpt>
      <trkpt lat="46.00283" lon="6.50219">
        <ele>1370</ele>
        <time>2021-12-28T11:24:04Z</time>
      </trkpt>
      <trkpt lat="46.00282" lon="6.50246">
        <ele>1368</ele>
        <time>2021-12-28T11:24:08Z</time>
      </trkpt>
      <trkpt lat="46.00275" lon="6.50292">
        <ele>1365</ele>
        <time>2021-12-28T11:24:14Z</time>
      </trkpt>
      <trkpt lat="46.00259" lon="6.50352">
        <ele>1359</ele>
        <time>2021-12-28T11:24:22Z</time>
      </trkpt>
      <trkpt lat="46.00235" lon="6.50401">
        <ele>1350</ele>
        <time>2021-12-28T11:24:29Z</time>
      </trkpt>
      <trkpt lat="46.0022" lon="6.50444">
        <ele>1345</ele>
        <time>2021-12-28T11:24:35Z</time>
      </trkpt>
      <trkpt lat="46.00172" lon="6.50594">
        <ele>1331</ele>
        <time>2021-12-28T11:24:55Z</time>
      </trkpt>
      <trkpt lat="46.00162" lon="6.50631">
        <ele>1327</ele>
        <time>2021-12-28T11:25:00Z</time>
      </trkpt>
      <trkpt lat="46.00157" lon="6.50653">
        <ele>1325</ele>
        <time>2021-12-28T11:25:03Z</time>
      </trkpt>
      <trkpt lat="46.00158" lon="6.5067">
        <ele>1325</ele>
        <time>2021-12-28T11:25:05Z</time>
      </trkpt>
      <trkpt lat="46.00161" lon="6.50687">
        <ele>1324</ele>
        <time>2021-12-28T11:25:07Z</time>
      </trkpt>
      <trkpt lat="46.00169" lon="6.50709">
        <ele>1325</ele>
        <time>2021-12-28T11:25:10Z</time>
      </trkpt>
      <trkpt lat="46.00181" lon="6.50728">
        <ele>1325</ele>
        <time>2021-12-28T11:25:14Z</time>
      </trkpt>
      <trkpt lat="46.00198" lon="6.50745">
        <ele>1327</ele>
        <time>2021-12-28T11:25:17Z</time>
      </trkpt>
      <trkpt lat="46.00205" lon="6.50757">
        <ele>1327</ele>
        <time>2021-12-28T11:25:19Z</time>
      </trkpt>
      <trkpt lat="46.00227" lon="6.50801">
        <ele>1323</ele>
        <time>2021-12-28T11:25:26Z</time>
      </trkpt>
      <trkpt lat="46.00231" lon="6.50817">
        <ele>1320</ele>
        <time>2021-12-28T11:25:28Z</time>
      </trkpt>
      <trkpt lat="46.00234" lon="6.50853">
        <ele>1314</ele>
        <time>2021-12-28T11:25:33Z</time>
      </trkpt>
      <trkpt lat="46.00238" lon="6.50869">
        <ele>1312</ele>
        <time>2021-12-28T11:25:35Z</time>
      </trkpt>
      <trkpt lat="46.00247" lon="6.50889">
        <ele>1310</ele>
        <time>2021-12-28T11:25:38Z</time>
      </trkpt>
      <trkpt lat="46.00262" lon="6.50913">
        <ele>1309</ele>
        <time>2021-12-28T11:25:42Z</time>
      </trkpt>
      <trkpt lat="46.003" lon="6.50952">
        <ele>1311</ele>
        <time>2021-12-28T11:25:50Z</time>
      </trkpt>
      <trkpt lat="46.00307" lon="6.50962">
        <ele>1311</ele>
        <time>2021-12-28T11:25:52Z</time>
      </trkpt>
      <trkpt lat="46.00309" lon="6.50967">
        <ele>1311</ele>
        <time>2021-12-28T11:25:52Z</time>
      </trkpt>
      <trkpt lat="46.00309" lon="6.50977">
        <ele>1309</ele>
        <time>2021-12-28T11:25:54Z</time>
      </trkpt>
      <trkpt lat="46.00306" lon="6.50984">
        <ele>1308</ele>
        <time>2021-12-28T11:25:55Z</time>
      </trkpt>
      <trkpt lat="46.00301" lon="6.50989">
        <ele>1306</ele>
        <time>2021-12-28T11:25:56Z</time>
      </trkpt>
      <trkpt lat="46.00292" lon="6.5099">
        <ele>1304</ele>
        <time>2021-12-28T11:25:57Z</time>
      </trkpt>
      <trkpt lat="46.00284" lon="6.50985">
        <ele>1303</ele>
        <time>2021-12-28T11:25:59Z</time>
      </trkpt>
      <trkpt lat="46.00256" lon="6.50951">
        <ele>1302</ele>
        <time>2021-12-28T11:26:05Z</time>
      </trkpt>
      <trkpt lat="46.00241" lon="6.50938">
        <ele>1301</ele>
        <time>2021-12-28T11:26:08Z</time>
      </trkpt>
      <trkpt lat="46.00216" lon="6.50924">
        <ele>1298</ele>
        <time>2021-12-28T11:26:13Z</time>
      </trkpt>
      <trkpt lat="46.00197" lon="6.50905">
        <ele>1297</ele>
        <time>2021-12-28T11:26:17Z</time>
      </trkpt>
      <trkpt lat="46.00186" lon="6.50888">
        <ele>1297</ele>
        <time>2021-12-28T11:26:20Z</time>
      </trkpt>
      <trkpt lat="46.00177" lon="6.50859">
        <ele>1300</ele>
        <time>2021-12-28T11:26:24Z</time>
      </trkpt>
      <trkpt lat="46.00172" lon="6.50851">
        <ele>1300</ele>
        <time>2021-12-28T11:26:25Z</time>
      </trkpt>
      <trkpt lat="46.00161" lon="6.5085">
        <ele>1297</ele>
        <time>2021-12-28T11:26:27Z</time>
      </trkpt>
      <trkpt lat="46.00155" lon="6.50858">
        <ele>1293</ele>
        <time>2021-12-28T11:26:29Z</time>
      </trkpt>
      <trkpt lat="46.00154" lon="6.50868">
        <ele>1291</ele>
        <time>2021-12-28T11:26:30Z</time>
      </trkpt>
      <trkpt lat="46.00157" lon="6.50883">
        <ele>1290</ele>
        <time>2021-12-28T11:26:32Z</time>
      </trkpt>
      <trkpt lat="46.00175" lon="6.50915">
        <ele>1290</ele>
        <time>2021-12-28T11:26:37Z</time>
      </trkpt>
      <trkpt lat="46.00186" lon="6.50955">
        <ele>1286</ele>
        <time>2021-12-28T11:26:43Z</time>
      </trkpt>
      <trkpt lat="46.00202" lon="6.50997">
        <ele>1284</ele>
        <time>2021-12-28T11:26:48Z</time>
      </trkpt>
      <trkpt lat="46.00217" lon="6.51026">
        <ele>1281</ele>
        <time>2021-12-28T11:26:53Z</time>
      </trkpt>
      <trkpt lat="46.0029" lon="6.51132">
        <ele>1274</ele>
        <time>2021-12-28T11:27:11Z</time>
      </trkpt>
      <trkpt lat="46.0033" lon="6.51211">
        <ele>1267</ele>
        <time>2021-12-28T11:27:23Z</time>
      </trkpt>
      <trkpt lat="46.00341" lon="6.51236">
        <ele>1264</ele>
        <time>2021-12-28T11:27:27Z</time>
      </trkpt>
      <trkpt lat="46.00351" lon="6.51294">
        <ele>1253</ele>
        <time>2021-12-28T11:27:34Z</time>
      </trkpt>
      <trkpt lat="46.00357" lon="6.51309">
        <ele>1251</ele>
        <time>2021-12-28T11:27:37Z</time>
      </trkpt>
      <trkpt lat="46.00367" lon="6.51318">
        <ele>1252</ele>
        <time>2021-12-28T11:27:39Z</time>
      </trkpt>
      <trkpt lat="46.00406" lon="6.51339">
        <ele>1256</ele>
        <time>2021-12-28T11:27:46Z</time>
      </trkpt>
      <trkpt lat="46.00455" lon="6.5139">
        <ele>1253</ele>
        <time>2021-12-28T11:27:57Z</time>
      </trkpt>
      <trkpt lat="46.00477" lon="6.51409">
        <ele>1253</ele>
        <time>2021-12-28T11:28:01Z</time>
      </trkpt>
      <trkpt lat="46.00483" lon="6.51421">
        <ele>1252</ele>
        <time>2021-12-28T11:28:03Z</time>
      </trkpt>
      <trkpt lat="46.00485" lon="6.51431">
        <ele>1251</ele>
        <time>2021-12-28T11:28:05Z</time>
      </trkpt>
      <trkpt lat="46.00487" lon="6.51465">
        <ele>1247</ele>
        <time>2021-12-28T11:28:09Z</time>
      </trkpt>
      <trkpt lat="46.00486" lon="6.51497">
        <ele>1242</ele>
        <time>2021-12-28T11:28:13Z</time>
      </trkpt>
      <trkpt lat="46.00488" lon="6.51545">
        <ele>1236</ele>
        <time>2021-12-28T11:28:19Z</time>
      </trkpt>
      <trkpt lat="46.00501" lon="6.51622">
        <ele>1229</ele>
        <time>2021-12-28T11:28:28Z</time>
      </trkpt>
      <trkpt lat="46.0051" lon="6.51649">
        <ele>1226</ele>
        <time>2021-12-28T11:28:32Z</time>
      </trkpt>
      <trkpt lat="46.00525" lon="6.51681">
        <ele>1223</ele>
        <time>2021-12-28T11:28:37Z</time>
      </trkpt>
      <trkpt lat="46.00537" lon="6.51692">
        <ele>1223</ele>
        <time>2021-12-28T11:28:39Z</time>
      </trkpt>
      <trkpt lat="46.00569" lon="6.51707">
        <ele>1224</ele>
        <time>2021-12-28T11:28:45Z</time>
      </trkpt>
      <trkpt lat="46.0058" lon="6.51709">
        <ele>1225</ele>
        <time>2021-12-28T11:28:47Z</time>
      </trkpt>
      <trkpt lat="46.00605" lon="6.51709">
        <ele>1228</ele>
        <time>2021-12-28T11:28:52Z</time>
      </trkpt>
      <trkpt lat="46.00647" lon="6.5175">
        <ele>1222</ele>
        <time>2021-12-28T11:29:01Z</time>
      </trkpt>
      <trkpt lat="46.00655" lon="6.51766">
        <ele>1221</ele>
        <time>2021-12-28T11:29:03Z</time>
      </trkpt>
      <trkpt lat="46.00662" lon="6.51807">
        <ele>1216</ele>
        <time>2021-12-28T11:29:09Z</time>
      </trkpt>
      <trkpt lat="46.0067" lon="6.51824">
        <ele>1216</ele>
        <time>2021-12-28T11:29:11Z</time>
      </trkpt>
      <trkpt lat="46.00685" lon="6.51845">
        <ele>1218</ele>
        <time>2021-12-28T11:29:15Z</time>
      </trkpt>
      <trkpt lat="46.00726" lon="6.51907">
        <ele>1217</ele>
        <time>2021-12-28T11:29:25Z</time>
      </trkpt>
      <trkpt lat="46.00748" lon="6.51931">
        <ele>1216</ele>
        <time>2021-12-28T11:29:30Z</time>
      </trkpt>
      <trkpt lat="46.00774" lon="6.5197">
        <ele>1214</ele>
        <time>2021-12-28T11:29:37Z</time>
      </trkpt>
      <trkpt lat="46.008" lon="6.51993">
        <ele>1216</ele>
        <time>2021-12-28T11:29:42Z</time>
      </trkpt>
      <trkpt lat="46.00814" lon="6.5201">
        <ele>1216</ele>
        <time>2021-12-28T11:29:46Z</time>
      </trkpt>
      <trkpt lat="46.00825" lon="6.5203">
        <ele>1212</ele>
        <time>2021-12-28T11:29:49Z</time>
      </trkpt>
      <trkpt lat="46.00838" lon="6.52069">
        <ele>1202</ele>
        <time>2021-12-28T11:29:54Z</time>
      </trkpt>
      <trkpt lat="46.00851" lon="6.52088">
        <ele>1200</ele>
        <time>2021-12-28T11:29:57Z</time>
      </trkpt>
      <trkpt lat="46.00896" lon="6.52136">
        <ele>1196</ele>
        <time>2021-12-28T11:30:07Z</time>
      </trkpt>
      <trkpt lat="46.00915" lon="6.52153">
        <ele>1195</ele>
        <time>2021-12-28T11:30:11Z</time>
      </trkpt>
      <trkpt lat="46.00948" lon="6.52206">
        <ele>1187</ele>
        <time>2021-12-28T11:30:20Z</time>
      </trkpt>
      <trkpt lat="46.00996" lon="6.52267">
        <ele>1186</ele>
        <time>2021-12-28T11:30:32Z</time>
      </trkpt>
      <trkpt lat="46.01" lon="6.52276">
        <ele>1185</ele>
        <time>2021-12-28T11:30:33Z</time>
      </trkpt>
      <trkpt lat="46.01002" lon="6.52285">
        <ele>1184</ele>
        <time>2021-12-28T11:30:34Z</time>
      </trkpt>
      <trkpt lat="46.01003" lon="6.5233">
        <ele>1174</ele>
        <time>2021-12-28T11:30:40Z</time>
      </trkpt>
      <trkpt lat="46.01007" lon="6.52343">
        <ele>1173</ele>
        <time>2021-12-28T11:30:41Z</time>
      </trkpt>
      <trkpt lat="46.01012" lon="6.52349">
        <ele>1173</ele>
        <time>2021-12-28T11:30:43Z</time>
      </trkpt>
      <trkpt lat="46.01046" lon="6.52375">
        <ele>1180</ele>
        <time>2021-12-28T11:30:49Z</time>
      </trkpt>
      <trkpt lat="46.01052" lon="6.52381">
        <ele>1181</ele>
        <time>2021-12-28T11:30:51Z</time>
      </trkpt>
      <trkpt lat="46.01056" lon="6.52392">
        <ele>1180</ele>
        <time>2021-12-28T11:30:52Z</time>
      </trkpt>
      <trkpt lat="46.01061" lon="6.52426">
        <ele>1172</ele>
        <time>2021-12-28T11:30:57Z</time>
      </trkpt>
      <trkpt lat="46.01065" lon="6.52439">
        <ele>1170</ele>
        <time>2021-12-28T11:30:58Z</time>
      </trkpt>
      <trkpt lat="46.01068" lon="6.52444">
        <ele>1170</ele>
        <time>2021-12-28T11:30:59Z</time>
      </trkpt>
      <trkpt lat="46.01087" lon="6.5246">
        <ele>1173</ele>
        <time>2021-12-28T11:31:03Z</time>
      </trkpt>
      <trkpt lat="46.01092" lon="6.52469">
        <ele>1173</ele>
        <time>2021-12-28T11:31:04Z</time>
      </trkpt>
      <trkpt lat="46.01093" lon="6.52485">
        <ele>1170</ele>
        <time>2021-12-28T11:31:06Z</time>
      </trkpt>
      <trkpt lat="46.01083" lon="6.52543">
        <ele>1150</ele>
        <time>2021-12-28T11:31:14Z</time>
      </trkpt>
      <trkpt lat="46.01085" lon="6.52562">
        <ele>1145</ele>
        <time>2021-12-28T11:31:16Z</time>
      </trkpt>
      <trkpt lat="46.01092" lon="6.52574">
        <ele>1145</ele>
        <time>2021-12-28T11:31:18Z</time>
      </trkpt>
      <trkpt lat="46.01106" lon="6.52583">
        <ele>1149</ele>
        <time>2021-12-28T11:31:21Z</time>
      </trkpt>
      <trkpt lat="46.01113" lon="6.52591">
        <ele>1150</ele>
        <time>2021-12-28T11:31:22Z</time>
      </trkpt>
      <trkpt lat="46.01131" lon="6.52631">
        <ele>1146</ele>
        <time>2021-12-28T11:31:28Z</time>
      </trkpt>
      <trkpt lat="46.0115" lon="6.52658">
        <ele>1147</ele>
        <time>2021-12-28T11:31:33Z</time>
      </trkpt>
      <trkpt lat="46.01155" lon="6.52666">
        <ele>1146</ele>
        <time>2021-12-28T11:31:34Z</time>
      </trkpt>
      <trkpt lat="46.01208" lon="6.52826">
        <ele>1129</ele>
        <time>2021-12-28T11:31:56Z</time>
      </trkpt>
      <trkpt lat="46.01214" lon="6.52856">
        <ele>1126</ele>
        <time>2021-12-28T11:32:00Z</time>
      </trkpt>
      <trkpt lat="46.01218" lon="6.52893">
        <ele>1121</ele>
        <time>2021-12-28T11:32:05Z</time>
      </trkpt>
      <trkpt lat="46.01225" lon="6.52913">
        <ele>1120</ele>
        <time>2021-12-28T11:32:08Z</time>
      </trkpt>
      <trkpt lat="46.01238" lon="6.52938">
        <ele>1119</ele>
        <time>2021-12-28T11:32:11Z</time>
      </trkpt>
      <trkpt lat="46.01268" lon="6.52983">
        <ele>1119</ele>
        <time>2021-12-28T11:32:19Z</time>
      </trkpt>
      <trkpt lat="46.01285" lon="6.53022">
        <ele>1112</ele>
        <time>2021-12-28T11:32:25Z</time>
      </trkpt>
      <trkpt lat="46.01291" lon="6.53027">
        <ele>1112</ele>
        <time>2021-12-28T11:32:26Z</time>
      </trkpt>
      <trkpt lat="46.0132" lon="6.53038">
        <ele>1116</ele>
        <time>2021-12-28T11:32:31Z</time>
      </trkpt>
      <trkpt lat="46.01333" lon="6.53047">
        <ele>1116</ele>
        <time>2021-12-28T11:32:34Z</time>
      </trkpt>
      <trkpt lat="46.01348" lon="6.53062">
        <ele>1114</ele>
        <time>2021-12-28T11:32:37Z</time>
      </trkpt>
      <trkpt lat="46.01369" lon="6.53104">
        <ele>1105</ele>
        <time>2021-12-28T11:32:44Z</time>
      </trkpt>
      <trkpt lat="46.01396" lon="6.53141">
        <ele>1100</ele>
        <time>2021-12-28T11:32:50Z</time>
      </trkpt>
      <trkpt lat="46.01407" lon="6.53152">
        <ele>1099</ele>
        <time>2021-12-28T11:32:53Z</time>
      </trkpt>
      <trkpt lat="46.01435" lon="6.53168">
        <ele>1104</ele>
        <time>2021-12-28T11:32:58Z</time>
      </trkpt>
      <trkpt lat="46.01444" lon="6.53176">
        <ele>1105</ele>
        <time>2021-12-28T11:33:00Z</time>
      </trkpt>
      <trkpt lat="46.01448" lon="6.53188">
        <ele>1104</ele>
        <time>2021-12-28T11:33:02Z</time>
      </trkpt>
      <trkpt lat="46.01447" lon="6.53195">
        <ele>1101</ele>
        <time>2021-12-28T11:33:02Z</time>
      </trkpt>
      <trkpt lat="46.01445" lon="6.53201">
        <ele>1099</ele>
        <time>2021-12-28T11:33:03Z</time>
      </trkpt>
      <trkpt lat="46.01438" lon="6.53206">
        <ele>1095</ele>
        <time>2021-12-28T11:33:05Z</time>
      </trkpt>
      <trkpt lat="46.01433" lon="6.53207">
        <ele>1093</ele>
        <time>2021-12-28T11:33:06Z</time>
      </trkpt>
      <trkpt lat="46.01363" lon="6.53169">
        <ele>1084</ele>
        <time>2021-12-28T11:33:19Z</time>
      </trkpt>
      <trkpt lat="46.01322" lon="6.53142">
        <ele>1082</ele>
        <time>2021-12-28T11:33:27Z</time>
      </trkpt>
      <trkpt lat="46.01281" lon="6.53125">
        <ele>1077</ele>
        <time>2021-12-28T11:33:34Z</time>
      </trkpt>
      <trkpt lat="46.01242" lon="6.53119">
        <ele>1070</ele>
        <time>2021-12-28T11:33:41Z</time>
      </trkpt>
      <trkpt lat="46.01228" lon="6.53112">
        <ele>1069</ele>
        <time>2021-12-28T11:33:44Z</time>
      </trkpt>
      <trkpt lat="46.01182" lon="6.53084">
        <ele>1064</ele>
        <time>2021-12-28T11:33:53Z</time>
      </trkpt>
      <trkpt lat="46.01173" lon="6.53077">
        <ele>1063</ele>
        <time>2021-12-28T11:33:55Z</time>
      </trkpt>
      <trkpt lat="46.01169" lon="6.5307">
        <ele>1064</ele>
        <time>2021-12-28T11:33:56Z</time>
      </trkpt>
      <trkpt lat="46.01161" lon="6.53034">
        <ele>1069</ele>
        <time>2021-12-28T11:34:01Z</time>
      </trkpt>
      <trkpt lat="46.01158" lon="6.53026">
        <ele>1069</ele>
        <time>2021-12-28T11:34:02Z</time>
      </trkpt>
      <trkpt lat="46.01152" lon="6.53018">
        <ele>1069</ele>
        <time>2021-12-28T11:34:03Z</time>
      </trkpt>
      <trkpt lat="46.01136" lon="6.53007">
        <ele>1066</ele>
        <time>2021-12-28T11:34:06Z</time>
      </trkpt>
      <trkpt lat="46.01124" lon="6.52986">
        <ele>1067</ele>
        <time>2021-12-28T11:34:10Z</time>
      </trkpt>
      <trkpt lat="46.01113" lon="6.52978">
        <ele>1065</ele>
        <time>2021-12-28T11:34:12Z</time>
      </trkpt>
      <trkpt lat="46.01088" lon="6.52972">
        <ele>1057</ele>
        <time>2021-12-28T11:34:16Z</time>
      </trkpt>
      <trkpt lat="46.01069" lon="6.52953">
        <ele>1053</ele>
        <time>2021-12-28T11:34:20Z</time>
      </trkpt>
      <trkpt lat="46.01064" lon="6.52953">
        <ele>1051</ele>
        <time>2021-12-28T11:34:21Z</time>
      </trkpt>
      <trkpt lat="46.0106" lon="6.52955">
        <ele>1050</ele>
        <time>2021-12-28T11:34:22Z</time>
      </trkpt>
      <trkpt lat="46.01056" lon="6.52961">
        <ele>1048</ele>
        <time>2021-12-28T11:34:23Z</time>
      </trkpt>
      <trkpt lat="46.01055" lon="6.5297">
        <ele>1046</ele>
        <time>2021-12-28T11:34:24Z</time>
      </trkpt>
      <trkpt lat="46.01058" lon="6.52982">
        <ele>1046</ele>
        <time>2021-12-28T11:34:26Z</time>
      </trkpt>
      <trkpt lat="46.0109" lon="6.53004">
        <ele>1052</ele>
        <time>2021-12-28T11:34:32Z</time>
      </trkpt>
      <trkpt lat="46.01095" lon="6.53009">
        <ele>1053</ele>
        <time>2021-12-28T11:34:33Z</time>
      </trkpt>
      <trkpt lat="46.01108" lon="6.53045">
        <ele>1048</ele>
        <time>2021-12-28T11:34:38Z</time>
      </trkpt>
      <trkpt lat="46.01125" lon="6.53063">
        <ele>1050</ele>
        <time>2021-12-28T11:34:42Z</time>
      </trkpt>
      <trkpt lat="46.0113" lon="6.53072">
        <ele>1049</ele>
        <time>2021-12-28T11:34:43Z</time>
      </trkpt>
      <trkpt lat="46.01133" lon="6.53081">
        <ele>1048</ele>
        <time>2021-12-28T11:34:45Z</time>
      </trkpt>
      <trkpt lat="46.01151" lon="6.53168">
        <ele>1028</ele>
        <time>2021-12-28T11:34:56Z</time>
      </trkpt>
      <trkpt lat="46.01158" lon="6.53186">
        <ele>1027</ele>
        <time>2021-12-28T11:34:58Z</time>
      </trkpt>
      <trkpt lat="46.01175" lon="6.53213">
        <ele>1027</ele>
        <time>2021-12-28T11:35:03Z</time>
      </trkpt>
      <trkpt lat="46.01209" lon="6.53259">
        <ele>1025</ele>
        <time>2021-12-28T11:35:11Z</time>
      </trkpt>
      <trkpt lat="46.0122" lon="6.5328">
        <ele>1025</ele>
        <time>2021-12-28T11:35:14Z</time>
      </trkpt>
      <trkpt lat="46.01231" lon="6.53311">
        <ele>1023</ele>
        <time>2021-12-28T11:35:19Z</time>
      </trkpt>
      <trkpt lat="46.01243" lon="6.53356">
        <ele>1018</ele>
        <time>2021-12-28T11:35:25Z</time>
      </trkpt>
      <trkpt lat="46.01276" lon="6.53438">
        <ele>1009</ele>
        <time>2021-12-28T11:35:36Z</time>
      </trkpt>
      <trkpt lat="46.01283" lon="6.53448">
        <ele>1009</ele>
        <time>2021-12-28T11:35:38Z</time>
      </trkpt>
      <trkpt lat="46.01317" lon="6.53479">
        <ele>1011</ele>
        <time>2021-12-28T11:35:45Z</time>
      </trkpt>
      <trkpt lat="46.01328" lon="6.53492">
        <ele>1011</ele>
        <time>2021-12-28T11:35:48Z</time>
      </trkpt>
      <trkpt lat="46.01342" lon="6.53513">
        <ele>1008</ele>
        <time>2021-12-28T11:35:51Z</time>
      </trkpt>
      <trkpt lat="46.01347" lon="6.53525">
        <ele>1006</ele>
        <time>2021-12-28T11:35:53Z</time>
      </trkpt>
      <trkpt lat="46.01347" lon="6.53532">
        <ele>1004</ele>
        <time>2021-12-28T11:35:54Z</time>
      </trkpt>
      <trkpt lat="46.01344" lon="6.53543">
        <ele>1000</ele>
        <time>2021-12-28T11:35:56Z</time>
      </trkpt>
      <trkpt lat="46.01337" lon="6.53551">
        <ele>997</ele>
        <time>2021-12-28T11:35:57Z</time>
      </trkpt>
      <trkpt lat="46.01325" lon="6.53551">
        <ele>994</ele>
        <time>2021-12-28T11:35:59Z</time>
      </trkpt>
      <trkpt lat="46.01305" lon="6.53535">
        <ele>995</ele>
        <time>2021-12-28T11:36:03Z</time>
      </trkpt>
      <trkpt lat="46.01287" lon="6.53516">
        <ele>995</ele>
        <time>2021-12-28T11:36:07Z</time>
      </trkpt>
      <trkpt lat="46.01254" lon="6.53474">
        <ele>996</ele>
        <time>2021-12-28T11:36:15Z</time>
      </trkpt>
      <trkpt lat="46.01234" lon="6.53456">
        <ele>996</ele>
        <time>2021-12-28T11:36:19Z</time>
      </trkpt>
      <trkpt lat="46.01171" lon="6.53408">
        <ele>990</ele>
        <time>2021-12-28T11:36:32Z</time>
      </trkpt>
      <trkpt lat="46.01165" lon="6.53406">
        <ele>990</ele>
        <time>2021-12-28T11:36:33Z</time>
      </trkpt>
      <trkpt lat="46.01156" lon="6.53408">
        <ele>989</ele>
        <time>2021-12-28T11:36:35Z</time>
      </trkpt>
      <trkpt lat="46.01149" lon="6.53416">
        <ele>987</ele>
        <time>2021-12-28T11:36:36Z</time>
      </trkpt>
      <trkpt lat="46.01145" lon="6.53424">
        <ele>986</ele>
        <time>2021-12-28T11:36:38Z</time>
      </trkpt>
      <trkpt lat="46.01144" lon="6.53442">
        <ele>985</ele>
        <time>2021-12-28T11:36:40Z</time>
      </trkpt>
      <trkpt lat="46.01149" lon="6.53489">
        <ele>982</ele>
        <time>2021-12-28T11:36:46Z</time>
      </trkpt>
      <trkpt lat="46.01155" lon="6.53526">
        <ele>981</ele>
        <time>2021-12-28T11:36:50Z</time>
      </trkpt>
      <trkpt lat="46.01194" lon="6.53683">
        <ele>974</ele>
        <time>2021-12-28T11:37:11Z</time>
      </trkpt>
      <trkpt lat="46.01202" lon="6.53708">
        <ele>974</ele>
        <time>2021-12-28T11:37:14Z</time>
      </trkpt>
      <trkpt lat="46.01213" lon="6.53729">
        <ele>973</ele>
        <time>2021-12-28T11:37:18Z</time>
      </trkpt>
      <trkpt lat="46.01226" lon="6.53743">
        <ele>973</ele>
        <time>2021-12-28T11:37:21Z</time>
      </trkpt>
      <trkpt lat="46.01235" lon="6.53748">
        <ele>972</ele>
        <time>2021-12-28T11:37:22Z</time>
      </trkpt>
      <trkpt lat="46.01298" lon="6.53774">
        <ele>970</ele>
        <time>2021-12-28T11:37:34Z</time>
      </trkpt>
      <trkpt lat="46.01345" lon="6.538">
        <ele>969</ele>
        <time>2021-12-28T11:37:43Z</time>
      </trkpt>
      <trkpt lat="46.01466" lon="6.53877">
        <ele>969</ele>
        <time>2021-12-28T11:38:06Z</time>
      </trkpt>
      <trkpt lat="46.01507" lon="6.53906">
        <ele>967</ele>
        <time>2021-12-28T11:38:15Z</time>
      </trkpt>
      <trkpt lat="46.0167" lon="6.5405">
        <ele>961</ele>
        <time>2021-12-28T11:38:49Z</time>
      </trkpt>
      <trkpt lat="46.0172" lon="6.54097">
        <ele>964</ele>
        <time>2021-12-28T11:38:59Z</time>
      </trkpt>
      <trkpt lat="46.01734" lon="6.54115">
        <ele>964</ele>
        <time>2021-12-28T11:39:02Z</time>
      </trkpt>
      <trkpt lat="46.01773" lon="6.54184">
        <ele>969</ele>
        <time>2021-12-28T11:39:13Z</time>
      </trkpt>
      <trkpt lat="46.01791" lon="6.54229">
        <ele>973</ele>
        <time>2021-12-28T11:39:20Z</time>
      </trkpt>
      <trkpt lat="46.01841" lon="6.54284">
        <ele>974</ele>
        <time>2021-12-28T11:39:31Z</time>
      </trkpt>
      <trkpt lat="46.01852" lon="6.54302">
        <ele>976</ele>
        <time>2021-12-28T11:39:34Z</time>
      </trkpt>
      <trkpt lat="46.01855" lon="6.54312">
        <ele>976</ele>
        <time>2021-12-28T11:39:35Z</time>
      </trkpt>
      <trkpt lat="46.01861" lon="6.54355">
        <ele>975</ele>
        <time>2021-12-28T11:39:41Z</time>
      </trkpt>
      <trkpt lat="46.01867" lon="6.54378">
        <ele>976</ele>
        <time>2021-12-28T11:39:44Z</time>
      </trkpt>
      <trkpt lat="46.01873" lon="6.5439">
        <ele>976</ele>
        <time>2021-12-28T11:39:46Z</time>
      </trkpt>
      <trkpt lat="46.01908" lon="6.54425">
        <ele>978</ele>
        <time>2021-12-28T11:39:53Z</time>
      </trkpt>
      <trkpt lat="46.01921" lon="6.54445">
        <ele>978</ele>
        <time>2021-12-28T11:39:57Z</time>
      </trkpt>
      <trkpt lat="46.01929" lon="6.54464">
        <ele>979</ele>
        <time>2021-12-28T11:39:59Z</time>
      </trkpt>
      <trkpt lat="46.02" lon="6.54665">
        <ele>963</ele>
        <time>2021-12-28T11:40:27Z</time>
      </trkpt>
      <trkpt lat="46.02005" lon="6.54686">
        <ele>965</ele>
        <time>2021-12-28T11:40:30Z</time>
      </trkpt>
      <trkpt lat="46.02002" lon="6.54729">
        <ele>960</ele>
        <time>2021-12-28T11:40:35Z</time>
      </trkpt>
      <trkpt lat="46.02003" lon="6.54743">
        <ele>960</ele>
        <time>2021-12-28T11:40:37Z</time>
      </trkpt>
      <trkpt lat="46.02042" lon="6.5488">
        <ele>958</ele>
        <time>2021-12-28T11:40:55Z</time>
      </trkpt>
      <trkpt lat="46.02048" lon="6.54929">
        <ele>953</ele>
        <time>2021-12-28T11:41:02Z</time>
      </trkpt>
      <trkpt lat="46.02054" lon="6.54966">
        <ele>947</ele>
        <time>2021-12-28T11:41:06Z</time>
      </trkpt>
      <trkpt lat="46.02061" lon="6.54989">
        <ele>943</ele>
        <time>2021-12-28T11:41:09Z</time>
      </trkpt>
      <trkpt lat="46.02116" lon="6.55136">
        <ele>934</ele>
        <time>2021-12-28T11:41:30Z</time>
      </trkpt>
      <trkpt lat="46.02225" lon="6.55322">
        <ele>933</ele>
        <time>2021-12-28T11:42:00Z</time>
      </trkpt>
      <trkpt lat="46.02288" lon="6.55335">
        <ele>945</ele>
        <time>2021-12-28T11:42:11Z</time>
      </trkpt>
      <trkpt lat="46.02371" lon="6.55447">
        <ele>938</ele>
        <time>2021-12-28T11:42:32Z</time>
      </trkpt>
      <trkpt lat="46.02394" lon="6.55484">
        <ele>936</ele>
        <time>2021-12-28T11:42:38Z</time>
      </trkpt>
      <trkpt lat="46.02488" lon="6.55594">
        <ele>927</ele>
        <time>2021-12-28T11:42:59Z</time>
      </trkpt>
      <trkpt lat="46.02504" lon="6.55621">
        <ele>924</ele>
        <time>2021-12-28T11:43:04Z</time>
      </trkpt>
      <trkpt lat="46.02528" lon="6.55671">
        <ele>919</ele>
        <time>2021-12-28T11:43:11Z</time>
      </trkpt>
      <trkpt lat="46.02547" lon="6.55704">
        <ele>920</ele>
        <time>2021-12-28T11:43:16Z</time>
      </trkpt>
      <trkpt lat="46.02561" lon="6.55723">
        <ele>920</ele>
        <time>2021-12-28T11:43:20Z</time>
      </trkpt>
      <trkpt lat="46.02583" lon="6.55747">
        <ele>920</ele>
        <time>2021-12-28T11:43:25Z</time>
      </trkpt>
      <trkpt lat="46.02613" lon="6.5577">
        <ele>922</ele>
        <time>2021-12-28T11:43:31Z</time>
      </trkpt>
      <trkpt lat="46.02738" lon="6.55832">
        <ele>918</ele>
        <time>2021-12-28T11:43:54Z</time>
      </trkpt>
      <trkpt lat="46.02747" lon="6.55834">
        <ele>919</ele>
        <time>2021-12-28T11:43:56Z</time>
      </trkpt>
      <trkpt lat="46.02757" lon="6.55834">
        <ele>919</ele>
        <time>2021-12-28T11:43:58Z</time>
      </trkpt>
      <trkpt lat="46.02773" lon="6.55824">
        <ele>920</ele>
        <time>2021-12-28T11:44:01Z</time>
      </trkpt>
      <trkpt lat="46.02781" lon="6.55814">
        <ele>920</ele>
        <time>2021-12-28T11:44:03Z</time>
      </trkpt>
      <trkpt lat="46.02798" lon="6.55772">
        <ele>920</ele>
        <time>2021-12-28T11:44:09Z</time>
      </trkpt>
      <trkpt lat="46.02809" lon="6.55759">
        <ele>919</ele>
        <time>2021-12-28T11:44:11Z</time>
      </trkpt>
      <trkpt lat="46.02928" lon="6.55698">
        <ele>915</ele>
        <time>2021-12-28T11:44:34Z</time>
      </trkpt>
      <trkpt lat="46.02983" lon="6.557">
        <ele>902</ele>
        <time>2021-12-28T11:44:44Z</time>
      </trkpt>
      <trkpt lat="46.03213" lon="6.55618">
        <ele>877</ele>
        <time>2021-12-28T11:45:26Z</time>
      </trkpt>
      <trkpt lat="46.03243" lon="6.55596">
        <ele>875</ele>
        <time>2021-12-28T11:45:32Z</time>
      </trkpt>
      <trkpt lat="46.03285" lon="6.55538">
        <ele>881</ele>
        <time>2021-12-28T11:45:42Z</time>
      </trkpt>
      <trkpt lat="46.03342" lon="6.555">
        <ele>864</ele>
        <time>2021-12-28T11:45:53Z</time>
      </trkpt>
      <trkpt lat="46.03388" lon="6.55449">
        <ele>864</ele>
        <time>2021-12-28T11:46:04Z</time>
      </trkpt>
      <trkpt lat="46.03431" lon="6.55389">
        <ele>862</ele>
        <time>2021-12-28T11:46:14Z</time>
      </trkpt>
      <trkpt lat="46.03452" lon="6.5534">
        <ele>861</ele>
        <time>2021-12-28T11:46:21Z</time>
      </trkpt>
      <trkpt lat="46.03485" lon="6.55299">
        <ele>853</ele>
        <time>2021-12-28T11:46:29Z</time>
      </trkpt>
      <trkpt lat="46.03504" lon="6.55251">
        <ele>854</ele>
        <time>2021-12-28T11:46:36Z</time>
      </trkpt>
      <trkpt lat="46.0353" lon="6.55212">
        <ele>847</ele>
        <time>2021-12-28T11:46:43Z</time>
      </trkpt>
      <trkpt lat="46.03534" lon="6.55159">
        <ele>861</ele>
        <time>2021-12-28T11:46:49Z</time>
      </trkpt>
      <trkpt lat="46.03537" lon="6.55149">
        <ele>862</ele>
        <time>2021-12-28T11:46:51Z</time>
      </trkpt>
      <trkpt lat="46.03545" lon="6.55139">
        <ele>860</ele>
        <time>2021-12-28T11:46:52Z</time>
      </trkpt>
      <trkpt lat="46.03552" lon="6.55135">
        <ele>857</ele>
        <time>2021-12-28T11:46:54Z</time>
      </trkpt>
      <trkpt lat="46.0361" lon="6.55119">
        <ele>836</ele>
        <time>2021-12-28T11:47:04Z</time>
      </trkpt>
      <trkpt lat="46.03663" lon="6.55066">
        <ele>842</ele>
        <time>2021-12-28T11:47:16Z</time>
      </trkpt>
      <trkpt lat="46.03737" lon="6.55057">
        <ele>818</ele>
        <time>2021-12-28T11:47:29Z</time>
      </trkpt>
      <trkpt lat="46.03763" lon="6.55022">
        <ele>823</ele>
        <time>2021-12-28T11:47:35Z</time>
      </trkpt>
      <trkpt lat="46.03824" lon="6.54983">
        <ele>810</ele>
        <time>2021-12-28T11:47:47Z</time>
      </trkpt>
      <trkpt lat="46.03874" lon="6.54922">
        <ele>814</ele>
        <time>2021-12-28T11:47:59Z</time>
      </trkpt>
      <trkpt lat="46.0395" lon="6.54865">
        <ele>801</ele>
        <time>2021-12-28T11:48:14Z</time>
      </trkpt>
      <trkpt lat="46.03979" lon="6.5483">
        <ele>798</ele>
        <time>2021-12-28T11:48:21Z</time>
      </trkpt>
      <trkpt lat="46.03993" lon="6.54778">
        <ele>806</ele>
        <time>2021-12-28T11:48:28Z</time>
      </trkpt>
      <trkpt lat="46.04014" lon="6.54736">
        <ele>808</ele>
        <time>2021-12-28T11:48:34Z</time>
      </trkpt>
      <trkpt lat="46.04064" lon="6.54705">
        <ele>793</ele>
        <time>2021-12-28T11:48:44Z</time>
      </trkpt>
      <trkpt lat="46.04107" lon="6.54658">
        <ele>792</ele>
        <time>2021-12-28T11:48:53Z</time>
      </trkpt>
      <trkpt lat="46.04146" lon="6.54658">
        <ele>779</ele>
        <time>2021-12-28T11:49:00Z</time>
      </trkpt>
      <trkpt lat="46.04195" lon="6.54596">
        <ele>783</ele>
        <time>2021-12-28T11:49:12Z</time>
      </trkpt>
      <trkpt lat="46.04205" lon="6.54592">
        <ele>782</ele>
        <time>2021-12-28T11:49:14Z</time>
      </trkpt>
      <trkpt lat="46.04212" lon="6.54593">
        <ele>780</ele>
        <time>2021-12-28T11:49:15Z</time>
      </trkpt>
      <trkpt lat="46.04234" lon="6.54603">
        <ele>773</ele>
        <time>2021-12-28T11:49:19Z</time>
      </trkpt>
      <trkpt lat="46.04246" lon="6.54606">
        <ele>769</ele>
        <time>2021-12-28T11:49:21Z</time>
      </trkpt>
      <trkpt lat="46.04257" lon="6.54605">
        <ele>767</ele>
        <time>2021-12-28T11:49:23Z</time>
      </trkpt>
      <trkpt lat="46.04268" lon="6.54601">
        <ele>764</ele>
        <time>2021-12-28T11:49:25Z</time>
      </trkpt>
      <trkpt lat="46.04282" lon="6.54586">
        <ele>764</ele>
        <time>2021-12-28T11:49:28Z</time>
      </trkpt>
      <trkpt lat="46.04287" lon="6.54575">
        <ele>766</ele>
        <time>2021-12-28T11:49:30Z</time>
      </trkpt>
      <trkpt lat="46.04294" lon="6.5452">
        <ele>779</ele>
        <time>2021-12-28T11:49:37Z</time>
      </trkpt>
      <trkpt lat="46.043" lon="6.5451">
        <ele>779</ele>
        <time>2021-12-28T11:49:39Z</time>
      </trkpt>
      <trkpt lat="46.04312" lon="6.545">
        <ele>778</ele>
        <time>2021-12-28T11:49:41Z</time>
      </trkpt>
      <trkpt lat="46.04322" lon="6.54496">
        <ele>775</ele>
        <time>2021-12-28T11:49:43Z</time>
      </trkpt>
      <trkpt lat="46.04334" lon="6.54499">
        <ele>770</ele>
        <time>2021-12-28T11:49:45Z</time>
      </trkpt>
      <trkpt lat="46.04364" lon="6.5452">
        <ele>758</ele>
        <time>2021-12-28T11:49:51Z</time>
      </trkpt>
      <trkpt lat="46.04376" lon="6.54526">
        <ele>755</ele>
        <time>2021-12-28T11:49:53Z</time>
      </trkpt>
      <trkpt lat="46.04384" lon="6.54525">
        <ele>753</ele>
        <time>2021-12-28T11:49:55Z</time>
      </trkpt>
      <trkpt lat="46.04392" lon="6.54523">
        <ele>752</ele>
        <time>2021-12-28T11:49:56Z</time>
      </trkpt>
      <trkpt lat="46.04399" lon="6.54516">
        <ele>752</ele>
        <time>2021-12-28T11:49:58Z</time>
      </trkpt>
      <trkpt lat="46.04483" lon="6.54412">
        <ele>738</ele>
        <time>2021-12-28T11:50:17Z</time>
      </trkpt>
      <trkpt lat="46.04671" lon="6.54292">
        <ele>717</ele>
        <time>2021-12-28T11:50:54Z</time>
      </trkpt>
      <trkpt lat="46.04684" lon="6.54282">
        <ele>716</ele>
        <time>2021-12-28T11:50:56Z</time>
      </trkpt>
      <trkpt lat="46.04693" lon="6.5427">
        <ele>715</ele>
        <time>2021-12-28T11:50:59Z</time>
      </trkpt>
      <trkpt lat="46.04722" lon="6.54213">
        <ele>713</ele>
        <time>2021-12-28T11:51:07Z</time>
      </trkpt>
      <trkpt lat="46.04729" lon="6.5419">
        <ele>711</ele>
        <time>2021-12-28T11:51:11Z</time>
      </trkpt>
      <trkpt lat="46.04732" lon="6.54169">
        <ele>710</ele>
        <time>2021-12-28T11:51:13Z</time>
      </trkpt>
      <trkpt lat="46.0473" lon="6.54149">
        <ele>710</ele>
        <time>2021-12-28T11:51:16Z</time>
      </trkpt>
      <trkpt lat="46.04717" lon="6.54096">
        <ele>714</ele>
        <time>2021-12-28T11:51:23Z</time>
      </trkpt>
      <trkpt lat="46.04716" lon="6.54088">
        <ele>715</ele>
        <time>2021-12-28T11:51:24Z</time>
      </trkpt>
      <trkpt lat="46.04718" lon="6.54077">
        <ele>715</ele>
        <time>2021-12-28T11:51:25Z</time>
      </trkpt>
      <trkpt lat="46.04723" lon="6.54067">
        <ele>714</ele>
        <time>2021-12-28T11:51:27Z</time>
      </trkpt>
      <trkpt lat="46.04746" lon="6.54037">
        <ele>709</ele>
        <time>2021-12-28T11:51:32Z</time>
      </trkpt>
      <trkpt lat="46.04761" lon="6.54003">
        <ele>707</ele>
        <time>2021-12-28T11:51:37Z</time>
      </trkpt>
      <trkpt lat="46.04774" lon="6.53984">
        <ele>704</ele>
        <time>2021-12-28T11:51:40Z</time>
      </trkpt>
      <trkpt lat="46.04793" lon="6.53966">
        <ele>699</ele>
        <time>2021-12-28T11:51:44Z</time>
      </trkpt>
      <trkpt lat="46.04803" lon="6.53952">
        <ele>697</ele>
        <time>2021-12-28T11:51:47Z</time>
      </trkpt>
      <trkpt lat="46.04818" lon="6.53924">
        <ele>696</ele>
        <time>2021-12-28T11:51:51Z</time>
      </trkpt>
      <trkpt lat="46.04826" lon="6.53912">
        <ele>696</ele>
        <time>2021-12-28T11:51:53Z</time>
      </trkpt>
      <trkpt lat="46.04847" lon="6.53891">
        <ele>693</ele>
        <time>2021-12-28T11:51:58Z</time>
      </trkpt>
      <trkpt lat="46.04859" lon="6.53871">
        <ele>692</ele>
        <time>2021-12-28T11:52:01Z</time>
      </trkpt>
      <trkpt lat="46.04937" lon="6.53664">
        <ele>673</ele>
        <time>2021-12-28T11:52:30Z</time>
      </trkpt>
      <trkpt lat="46.04941" lon="6.5365">
        <ele>674</ele>
        <time>2021-12-28T11:52:32Z</time>
      </trkpt>
      <trkpt lat="46.04943" lon="6.53631">
        <ele>675</ele>
        <time>2021-12-28T11:52:34Z</time>
      </trkpt>
      <trkpt lat="46.04941" lon="6.53618">
        <ele>676</ele>
        <time>2021-12-28T11:52:36Z</time>
      </trkpt>
      <trkpt lat="46.04931" lon="6.5358">
        <ele>683</ele>
        <time>2021-12-28T11:52:41Z</time>
      </trkpt>
      <trkpt lat="46.04931" lon="6.53569">
        <ele>685</ele>
        <time>2021-12-28T11:52:42Z</time>
      </trkpt>
      <trkpt lat="46.04936" lon="6.5355">
        <ele>686</ele>
        <time>2021-12-28T11:52:45Z</time>
      </trkpt>
      <trkpt lat="46.04943" lon="6.53542">
        <ele>684</ele>
        <time>2021-12-28T11:52:47Z</time>
      </trkpt>
      <trkpt lat="46.04953" lon="6.53537">
        <ele>681</ele>
        <time>2021-12-28T11:52:48Z</time>
      </trkpt>
      <trkpt lat="46.04985" lon="6.53525">
        <ele>670</ele>
        <time>2021-12-28T11:52:54Z</time>
      </trkpt>
      <trkpt lat="46.04997" lon="6.53512">
        <ele>667</ele>
        <time>2021-12-28T11:52:57Z</time>
      </trkpt>
      <trkpt lat="46.05006" lon="6.5349">
        <ele>665</ele>
        <time>2021-12-28T11:53:00Z</time>
      </trkpt>
      <trkpt lat="46.0501" lon="6.53469">
        <ele>664</ele>
        <time>2021-12-28T11:53:03Z</time>
      </trkpt>
      <trkpt lat="46.05008" lon="6.53459">
        <ele>665</ele>
        <time>2021-12-28T11:53:04Z</time>
      </trkpt>
      <trkpt lat="46.04999" lon="6.5343">
        <ele>669</ele>
        <time>2021-12-28T11:53:08Z</time>
      </trkpt>
      <trkpt lat="46.0499" lon="6.53385">
        <ele>673</ele>
        <time>2021-12-28T11:53:14Z</time>
      </trkpt>
      <trkpt lat="46.04992" lon="6.53369">
        <ele>672</ele>
        <time>2021-12-28T11:53:16Z</time>
      </trkpt>
      <trkpt lat="46.04995" lon="6.53362">
        <ele>671</ele>
        <time>2021-12-28T11:53:17Z</time>
      </trkpt>
      <trkpt lat="46.05007" lon="6.53353">
        <ele>667</ele>
        <time>2021-12-28T11:53:19Z</time>
      </trkpt>
      <trkpt lat="46.05016" lon="6.53353">
        <ele>665</ele>
        <time>2021-12-28T11:53:21Z</time>
      </trkpt>
      <trkpt lat="46.05024" lon="6.53356">
        <ele>663</ele>
        <time>2021-12-28T11:53:22Z</time>
      </trkpt>
      <trkpt lat="46.05051" lon="6.53382">
        <ele>655</ele>
        <time>2021-12-28T11:53:28Z</time>
      </trkpt>
      <trkpt lat="46.05065" lon="6.53389">
        <ele>651</ele>
        <time>2021-12-28T11:53:31Z</time>
      </trkpt>
      <trkpt lat="46.05088" lon="6.53391">
        <ele>644</ele>
        <time>2021-12-28T11:53:35Z</time>
      </trkpt>
      <trkpt lat="46.05097" lon="6.53381">
        <ele>643</ele>
        <time>2021-12-28T11:53:37Z</time>
      </trkpt>
      <trkpt lat="46.05134" lon="6.53291">
        <ele>642</ele>
        <time>2021-12-28T11:53:50Z</time>
      </trkpt>
      <trkpt lat="46.05174" lon="6.53234">
        <ele>634</ele>
        <time>2021-12-28T11:54:00Z</time>
      </trkpt>
      <trkpt lat="46.05288" lon="6.53032">
        <ele>615</ele>
        <time>2021-12-28T11:54:32Z</time>
      </trkpt>
      <trkpt lat="46.05292" lon="6.53014">
        <ele>614</ele>
        <time>2021-12-28T11:54:34Z</time>
      </trkpt>
      <trkpt lat="46.05292" lon="6.52995">
        <ele>615</ele>
        <time>2021-12-28T11:54:37Z</time>
      </trkpt>
      <trkpt lat="46.05289" lon="6.52953">
        <ele>617</ele>
        <time>2021-12-28T11:54:42Z</time>
      </trkpt>
      <trkpt lat="46.0529" lon="6.52936">
        <ele>617</ele>
        <time>2021-12-28T11:54:44Z</time>
      </trkpt>
      <trkpt lat="46.05294" lon="6.52918">
        <ele>617</ele>
        <time>2021-12-28T11:54:46Z</time>
      </trkpt>
      <trkpt lat="46.05301" lon="6.52902">
        <ele>616</ele>
        <time>2021-12-28T11:54:49Z</time>
      </trkpt>
      <trkpt lat="46.05321" lon="6.52887">
        <ele>611</ele>
        <time>2021-12-28T11:54:53Z</time>
      </trkpt>
      <trkpt lat="46.05357" lon="6.52881">
        <ele>604</ele>
        <time>2021-12-28T11:54:59Z</time>
      </trkpt>
      <trkpt lat="46.05364" lon="6.52876">
        <ele>603</ele>
        <time>2021-12-28T11:55:00Z</time>
      </trkpt>
      <trkpt lat="46.0537" lon="6.52867">
        <ele>603</ele>
        <time>2021-12-28T11:55:02Z</time>
      </trkpt>
      <trkpt lat="46.05388" lon="6.52828">
        <ele>599</ele>
        <time>2021-12-28T11:55:08Z</time>
      </trkpt>
      <trkpt lat="46.05396" lon="6.5282">
        <ele>598</ele>
        <time>2021-12-28T11:55:09Z</time>
      </trkpt>
      <trkpt lat="46.05484" lon="6.52776">
        <ele>585</ele>
        <time>2021-12-28T11:55:26Z</time>
      </trkpt>
      <trkpt lat="46.05499" lon="6.52772">
        <ele>583</ele>
        <time>2021-12-28T11:55:29Z</time>
      </trkpt>
      <trkpt lat="46.05514" lon="6.52775">
        <ele>581</ele>
        <time>2021-12-28T11:55:31Z</time>
      </trkpt>
      <trkpt lat="46.05526" lon="6.52787">
        <ele>580</ele>
        <time>2021-12-28T11:55:34Z</time>
      </trkpt>
      <trkpt lat="46.05535" lon="6.52802">
        <ele>580</ele>
        <time>2021-12-28T11:55:37Z</time>
      </trkpt>
      <trkpt lat="46.05563" lon="6.52939">
        <ele>579</ele>
        <time>2021-12-28T11:55:54Z</time>
      </trkpt>
      <trkpt lat="46.05558" lon="6.53027">
        <ele>577</ele>
        <time>2021-12-28T11:56:05Z</time>
      </trkpt>
      <trkpt lat="46.05539" lon="6.53094">
        <ele>576</ele>
        <time>2021-12-28T11:56:14Z</time>
      </trkpt>
      <trkpt lat="46.055" lon="6.53178">
        <ele>574</ele>
        <time>2021-12-28T11:56:26Z</time>
      </trkpt>
      <trkpt lat="46.0547" lon="6.53325">
        <ele>564</ele>
        <time>2021-12-28T11:56:45Z</time>
      </trkpt>
      <trkpt lat="46.05468" lon="6.53381">
        <ele>563</ele>
        <time>2021-12-28T11:56:52Z</time>
      </trkpt>
      <trkpt lat="46.05475" lon="6.53473">
        <ele>558</ele>
        <time>2021-12-28T11:57:04Z</time>
      </trkpt>
      <trkpt lat="46.05471" lon="6.5352">
        <ele>556</ele>
        <time>2021-12-28T11:57:10Z</time>
      </trkpt>
      <trkpt lat="46.05444" lon="6.53613">
        <ele>553</ele>
        <time>2021-12-28T11:57:22Z</time>
      </trkpt>
      <trkpt lat="46.05429" lon="6.53649">
        <ele>550</ele>
        <time>2021-12-28T11:57:27Z</time>
      </trkpt>
      <trkpt lat="46.05414" lon="6.53671">
        <ele>549</ele>
        <time>2021-12-28T11:57:31Z</time>
      </trkpt>
      <trkpt lat="46.05371" lon="6.53709">
        <ele>551</ele>
        <time>2021-12-28T11:57:40Z</time>
      </trkpt>
      <trkpt lat="46.05364" lon="6.53731">
        <ele>549</ele>
        <time>2021-12-28T11:57:43Z</time>
      </trkpt>
      <trkpt lat="46.05364" lon="6.53739">
        <ele>548</ele>
        <time>2021-12-28T11:57:44Z</time>
      </trkpt>
      <trkpt lat="46.05368" lon="6.53788">
        <ele>542</ele>
        <time>2021-12-28T11:57:50Z</time>
      </trkpt>
      <trkpt lat="46.05367" lon="6.53814">
        <ele>539</ele>
        <time>2021-12-28T11:57:53Z</time>
      </trkpt>
      <trkpt lat="46.05359" lon="6.5384">
        <ele>539</ele>
        <time>2021-12-28T11:57:57Z</time>
      </trkpt>
      <trkpt lat="46.05348" lon="6.53862">
        <ele>539</ele>
        <time>2021-12-28T11:58:00Z</time>
      </trkpt>
      <trkpt lat="46.05339" lon="6.53875">
        <ele>539</ele>
        <time>2021-12-28T11:58:02Z</time>
      </trkpt>
      <trkpt lat="46.05334" lon="6.53882">
        <ele>540</ele>
        <time>2021-12-28T11:58:04Z</time>
      </trkpt>
      <trkpt lat="46.05317" lon="6.53915">
        <ele>540</ele>
        <time>2021-12-28T11:58:09Z</time>
      </trkpt>
      <trkpt lat="46.05311" lon="6.53932">
        <ele>540</ele>
        <time>2021-12-28T11:58:11Z</time>
      </trkpt>
      <trkpt lat="46.05298" lon="6.54026">
        <ele>534</ele>
        <time>2021-12-28T11:58:23Z</time>
      </trkpt>
      <trkpt lat="46.05292" lon="6.54051">
        <ele>532</ele>
        <time>2021-12-28T11:58:26Z</time>
      </trkpt>
      <trkpt lat="46.05284" lon="6.54063">
        <ele>532</ele>
        <time>2021-12-28T11:58:28Z</time>
      </trkpt>
      <trkpt lat="46.05272" lon="6.54074">
        <ele>533</ele>
        <time>2021-12-28T11:58:31Z</time>
      </trkpt>
      <trkpt lat="46.05239" lon="6.5409">
        <ele>538</ele>
        <time>2021-12-28T11:58:37Z</time>
      </trkpt>
      <trkpt lat="46.05223" lon="6.54101">
        <ele>542</ele>
        <time>2021-12-28T11:58:40Z</time>
      </trkpt>
      <trkpt lat="46.0521" lon="6.5412">
        <ele>544</ele>
        <time>2021-12-28T11:58:43Z</time>
      </trkpt>
      <trkpt lat="46.05206" lon="6.54138">
        <ele>544</ele>
        <time>2021-12-28T11:58:46Z</time>
      </trkpt>
      <trkpt lat="46.05207" lon="6.54155">
        <ele>543</ele>
        <time>2021-12-28T11:58:48Z</time>
      </trkpt>
      <trkpt lat="46.05213" lon="6.54175">
        <ele>541</ele>
        <time>2021-12-28T11:58:51Z</time>
      </trkpt>
      <trkpt lat="46.05253" lon="6.54216">
        <ele>529</ele>
        <time>2021-12-28T11:58:59Z</time>
      </trkpt>
      <trkpt lat="46.05264" lon="6.54232">
        <ele>527</ele>
        <time>2021-12-28T11:59:02Z</time>
      </trkpt>
      <trkpt lat="46.05272" lon="6.54255">
        <ele>525</ele>
        <time>2021-12-28T11:59:05Z</time>
      </trkpt>
      <trkpt lat="46.05276" lon="6.54279">
        <ele>523</ele>
        <time>2021-12-28T11:59:08Z</time>
      </trkpt>
      <trkpt lat="46.05274" lon="6.5431">
        <ele>523</ele>
        <time>2021-12-28T11:59:12Z</time>
      </trkpt>
      <trkpt lat="46.05256" lon="6.54384">
        <ele>526</ele>
        <time>2021-12-28T11:59:22Z</time>
      </trkpt>
      <trkpt lat="46.05254" lon="6.54404">
        <ele>526</ele>
        <time>2021-12-28T11:59:24Z</time>
      </trkpt>
      <trkpt lat="46.05256" lon="6.54424">
        <ele>525</ele>
        <time>2021-12-28T11:59:27Z</time>
      </trkpt>
      <trkpt lat="46.05271" lon="6.54477">
        <ele>519</ele>
        <time>2021-12-28T11:59:34Z</time>
      </trkpt>
      <trkpt lat="46.05272" lon="6.54494">
        <ele>518</ele>
        <time>2021-12-28T11:59:36Z</time>
      </trkpt>
      <trkpt lat="46.05271" lon="6.5451">
        <ele>517</ele>
        <time>2021-12-28T11:59:38Z</time>
      </trkpt>
      <trkpt lat="46.05267" lon="6.54525">
        <ele>515</ele>
        <time>2021-12-28T11:59:40Z</time>
      </trkpt>
      <trkpt lat="46.05261" lon="6.54539">
        <ele>514</ele>
        <time>2021-12-28T11:59:42Z</time>
      </trkpt>
      <trkpt lat="46.05221" lon="6.54597">
        <ele>513</ele>
        <time>2021-12-28T11:59:52Z</time>
      </trkpt>
      <trkpt lat="46.05212" lon="6.54615">
        <ele>514</ele>
        <time>2021-12-28T11:59:55Z</time>
      </trkpt>
      <trkpt lat="46.05207" lon="6.54629">
        <ele>515</ele>
        <time>2021-12-28T11:59:57Z</time>
      </trkpt>
      <trkpt lat="46.05205" lon="6.54646">
        <ele>515</ele>
        <time>2021-12-28T11:59:59Z</time>
      </trkpt>
      <trkpt lat="46.05206" lon="6.54674">
        <ele>514</ele>
        <time>2021-12-28T12:00:02Z</time>
      </trkpt>
      <trkpt lat="46.05224" lon="6.54798">
        <ele>509</ele>
        <time>2021-12-28T12:00:18Z</time>
      </trkpt>
      <trkpt lat="46.05224" lon="6.54852">
        <ele>508</ele>
        <time>2021-12-28T12:00:25Z</time>
      </trkpt>
      <trkpt lat="46.05225" lon="6.54881">
        <ele>507</ele>
        <time>2021-12-28T12:00:28Z</time>
      </trkpt>
      <trkpt lat="46.0523" lon="6.54906">
        <ele>505</ele>
        <time>2021-12-28T12:00:31Z</time>
      </trkpt>
      <trkpt lat="46.0525" lon="6.54971">
        <ele>502</ele>
        <time>2021-12-28T12:00:40Z</time>
      </trkpt>
      <trkpt lat="46.05252" lon="6.54984">
        <ele>503</ele>
        <time>2021-12-28T12:00:42Z</time>
      </trkpt>
      <trkpt lat="46.05256" lon="6.55047">
        <ele>503</ele>
        <time>2021-12-28T12:00:50Z</time>
      </trkpt>
      <trkpt lat="46.05261" lon="6.55073">
        <ele>503</ele>
        <time>2021-12-28T12:00:53Z</time>
      </trkpt>
      <trkpt lat="46.05264" lon="6.55087">
        <ele>503</ele>
        <time>2021-12-28T12:00:55Z</time>
      </trkpt>
      <trkpt lat="46.05275" lon="6.55132">
        <ele>504</ele>
        <time>2021-12-28T12:01:01Z</time>
      </trkpt>
      <trkpt lat="46.05285" lon="6.55149">
        <ele>505</ele>
        <time>2021-12-28T12:01:03Z</time>
      </trkpt>
      <trkpt lat="46.05295" lon="6.55173">
        <ele>505</ele>
        <time>2021-12-28T12:01:07Z</time>
      </trkpt>
      <trkpt lat="46.05304" lon="6.55229">
        <ele>504</ele>
        <time>2021-12-28T12:01:14Z</time>
      </trkpt>
      <trkpt lat="46.05307" lon="6.55255">
        <ele>503</ele>
        <time>2021-12-28T12:01:17Z</time>
      </trkpt>
      <trkpt lat="46.05306" lon="6.55272">
        <ele>503</ele>
        <time>2021-12-28T12:01:19Z</time>
      </trkpt>
      <trkpt lat="46.05301" lon="6.55306">
        <ele>503</ele>
        <time>2021-12-28T12:01:24Z</time>
      </trkpt>
      <trkpt lat="46.05301" lon="6.55334">
        <ele>503</ele>
        <time>2021-12-28T12:01:27Z</time>
      </trkpt>
      <trkpt lat="46.05308" lon="6.55396">
        <ele>501</ele>
        <time>2021-12-28T12:01:35Z</time>
      </trkpt>
      <trkpt lat="46.0531" lon="6.55426">
        <ele>501</ele>
        <time>2021-12-28T12:01:39Z</time>
      </trkpt>
      <trkpt lat="46.05307" lon="6.55449">
        <ele>501</ele>
        <time>2021-12-28T12:01:42Z</time>
      </trkpt>
      <trkpt lat="46.05297" lon="6.55499">
        <ele>501</ele>
        <time>2021-12-28T12:01:48Z</time>
      </trkpt>
      <trkpt lat="46.05297" lon="6.55536">
        <ele>500</ele>
        <time>2021-12-28T12:01:53Z</time>
      </trkpt>
      <trkpt lat="46.053" lon="6.55594">
        <ele>497</ele>
        <time>2021-12-28T12:02:00Z</time>
      </trkpt>
      <trkpt lat="46.05303" lon="6.55618">
        <ele>497</ele>
        <time>2021-12-28T12:02:03Z</time>
      </trkpt>
      <trkpt lat="46.05309" lon="6.55634">
        <ele>497</ele>
        <time>2021-12-28T12:02:05Z</time>
      </trkpt>
      <trkpt lat="46.05389" lon="6.55802">
        <ele>492</ele>
        <time>2021-12-28T12:02:30Z</time>
      </trkpt>
      <trkpt lat="46.05412" lon="6.55859">
        <ele>490</ele>
        <time>2021-12-28T12:02:38Z</time>
      </trkpt>
      <trkpt lat="46.0543" lon="6.55918">
        <ele>490</ele>
        <time>2021-12-28T12:02:46Z</time>
      </trkpt>
      <trkpt lat="46.05476" lon="6.56079">
        <ele>487</ele>
        <time>2021-12-28T12:03:08Z</time>
      </trkpt>
      <trkpt lat="46.05494" lon="6.56137">
        <ele>488</ele>
        <time>2021-12-28T12:03:16Z</time>
      </trkpt>
      <trkpt lat="46.05514" lon="6.56181">
        <ele>488</ele>
        <time>2021-12-28T12:03:22Z</time>
      </trkpt>
      <trkpt lat="46.05527" lon="6.56218">
        <ele>488</ele>
        <time>2021-12-28T12:03:27Z</time>
      </trkpt>
      <trkpt lat="46.05525" lon="6.56226">
        <ele>488</ele>
        <time>2021-12-28T12:03:28Z</time>
      </trkpt>
      <trkpt lat="46.05527" lon="6.56237">
        <ele>488</ele>
        <time>2021-12-28T12:03:30Z</time>
      </trkpt>
      <trkpt lat="46.05532" lon="6.56245">
        <ele>488</ele>
        <time>2021-12-28T12:03:31Z</time>
      </trkpt>
      <trkpt lat="46.05539" lon="6.56249">
        <ele>488</ele>
        <time>2021-12-28T12:03:32Z</time>
      </trkpt>
      <trkpt lat="46.05542" lon="6.56269">
        <ele>487</ele>
        <time>2021-12-28T12:03:35Z</time>
      </trkpt>
      <trkpt lat="46.0555" lon="6.56365">
        <ele>484</ele>
        <time>2021-12-28T12:03:47Z</time>
      </trkpt>
      <trkpt lat="46.05563" lon="6.56461">
        <ele>484</ele>
        <time>2021-12-28T12:03:59Z</time>
      </trkpt>
      <trkpt lat="46.05567" lon="6.56486">
        <ele>484</ele>
        <time>2021-12-28T12:04:02Z</time>
      </trkpt>
      <trkpt lat="46.05582" lon="6.56543">
        <ele>482</ele>
        <time>2021-12-28T12:04:10Z</time>
      </trkpt>
      <trkpt lat="46.05584" lon="6.56561">
        <ele>482</ele>
        <time>2021-12-28T12:04:12Z</time>
      </trkpt>
      <trkpt lat="46.05582" lon="6.56567">
        <ele>482</ele>
        <time>2021-12-28T12:04:13Z</time>
      </trkpt>
      <trkpt lat="46.05582" lon="6.56578">
        <ele>481</ele>
        <time>2021-12-28T12:04:14Z</time>
      </trkpt>
      <trkpt lat="46.05587" lon="6.56587">
        <ele>481</ele>
        <time>2021-12-28T12:04:15Z</time>
      </trkpt>
      <trkpt lat="46.05595" lon="6.56589">
        <ele>481</ele>
        <time>2021-12-28T12:04:17Z</time>
      </trkpt>
      <trkpt lat="46.05602" lon="6.56602">
        <ele>481</ele>
        <time>2021-12-28T12:04:19Z</time>
      </trkpt>
      <trkpt lat="46.05615" lon="6.56639">
        <ele>482</ele>
        <time>2021-12-28T12:04:24Z</time>
      </trkpt>
      <trkpt lat="46.05644" lon="6.56735">
        <ele>482</ele>
        <time>2021-12-28T12:04:37Z</time>
      </trkpt>
      <trkpt lat="46.05651" lon="6.56779">
        <ele>482</ele>
        <time>2021-12-28T12:04:42Z</time>
      </trkpt>
      <trkpt lat="46.05652" lon="6.56818">
        <ele>482</ele>
        <time>2021-12-28T12:04:47Z</time>
      </trkpt>
      <trkpt lat="46.05632" lon="6.56984">
        <ele>483</ele>
        <time>2021-12-28T12:05:08Z</time>
      </trkpt>
      <trkpt lat="46.05631" lon="6.57023">
        <ele>483</ele>
        <time>2021-12-28T12:05:13Z</time>
      </trkpt>
      <trkpt lat="46.05636" lon="6.57056">
        <ele>483</ele>
        <time>2021-12-28T12:05:17Z</time>
      </trkpt>
      <trkpt lat="46.05639" lon="6.57069">
        <ele>483</ele>
        <time>2021-12-28T12:05:19Z</time>
      </trkpt>
      <trkpt lat="46.05649" lon="6.57089">
        <ele>484</ele>
        <time>2021-12-28T12:05:22Z</time>
      </trkpt>
      <trkpt lat="46.05661" lon="6.57109">
        <ele>484</ele>
        <time>2021-12-28T12:05:25Z</time>
      </trkpt>
      <trkpt lat="46.05704" lon="6.57146">
        <ele>484</ele>
        <time>2021-12-28T12:05:34Z</time>
      </trkpt>
      <trkpt lat="46.05736" lon="6.57173">
        <ele>484</ele>
        <time>2021-12-28T12:05:41Z</time>
      </trkpt>
      <trkpt lat="46.05775" lon="6.57206">
        <ele>484</ele>
        <time>2021-12-28T12:05:49Z</time>
      </trkpt>
      <trkpt lat="46.05798" lon="6.5721">
        <ele>483</ele>
        <time>2021-12-28T12:05:53Z</time>
      </trkpt>
      <trkpt lat="46.05811" lon="6.5722">
        <ele>483</ele>
        <time>2021-12-28T12:05:55Z</time>
      </trkpt>
      <trkpt lat="46.05819" lon="6.57234">
        <ele>483</ele>
        <time>2021-12-28T12:05:58Z</time>
      </trkpt>
      <trkpt lat="46.05824" lon="6.57257">
        <ele>483</ele>
        <time>2021-12-28T12:06:01Z</time>
      </trkpt>
      <trkpt lat="46.05837" lon="6.57271">
        <ele>483</ele>
        <time>2021-12-28T12:06:03Z</time>
      </trkpt>
      <trkpt lat="46.05847" lon="6.57274">
        <ele>483</ele>
        <time>2021-12-28T12:06:05Z</time>
      </trkpt>
      <trkpt lat="46.05857" lon="6.57273">
        <ele>483</ele>
        <time>2021-12-28T12:06:07Z</time>
      </trkpt>
      <trkpt lat="46.05873" lon="6.57281">
        <ele>482</ele>
        <time>2021-12-28T12:06:10Z</time>
      </trkpt>
      <trkpt lat="46.05879" lon="6.57289">
        <ele>482</ele>
        <time>2021-12-28T12:06:12Z</time>
      </trkpt>
      <trkpt lat="46.05881" lon="6.57301">
        <ele>483</ele>
        <time>2021-12-28T12:06:13Z</time>
      </trkpt>
      <trkpt lat="46.05883" lon="6.57326">
        <ele>483</ele>
        <time>2021-12-28T12:06:16Z</time>
      </trkpt>
      <trkpt lat="46.05888" lon="6.57345">
        <ele>483</ele>
        <time>2021-12-28T12:06:19Z</time>
      </trkpt>
      <trkpt lat="46.05935" lon="6.5743">
        <ele>482</ele>
        <time>2021-12-28T12:06:32Z</time>
      </trkpt>
      <trkpt lat="46.05955" lon="6.57453">
        <ele>482</ele>
        <time>2021-12-28T12:06:37Z</time>
      </trkpt>
      <trkpt lat="46.05987" lon="6.57508">
        <ele>481</ele>
        <time>2021-12-28T12:06:46Z</time>
      </trkpt>
      <trkpt lat="46.05991" lon="6.57517">
        <ele>481</ele>
        <time>2021-12-28T12:06:47Z</time>
      </trkpt>
      <trkpt lat="46.05988" lon="6.57526">
        <ele>481</ele>
        <time>2021-12-28T12:06:48Z</time>
      </trkpt>
      <trkpt lat="46.05989" lon="6.57536">
        <ele>481</ele>
        <time>2021-12-28T12:06:49Z</time>
      </trkpt>
      <trkpt lat="46.05908" lon="6.57653">
        <ele>483</ele>
        <time>2021-12-28T12:07:10Z</time>
      </trkpt>
      <trkpt lat="46.05889" lon="6.57691">
        <ele>484</ele>
        <time>2021-12-28T12:07:16Z</time>
      </trkpt>
      <trkpt lat="46.05869" lon="6.57671">
        <ele>483</ele>
        <time>2021-12-28T12:07:20Z</time>
      </trkpt>
      <trkpt lat="46.05847" lon="6.57715">
        <ele>485</ele>
        <time>2021-12-28T12:07:27Z</time>
      </trkpt>
      <trkpt lat="46.05843" lon="6.57718">
        <ele>485</ele>
        <time>2021-12-28T12:07:27Z</time>
      </trkpt>
      <trkpt lat="46.05836" lon="6.57719">
        <ele>485</ele>
        <time>2021-12-28T12:07:29Z</time>
      </trkpt>
      <trkpt lat="46.05829" lon="6.57729">
        <ele>485</ele>
        <time>2021-12-28T12:07:30Z</time>
      </trkpt>
      <trkpt lat="46.05761" lon="6.57844">
        <ele>485</ele>
        <time>2021-12-28T12:07:49Z</time>
      </trkpt>
      <trkpt lat="46.05744" lon="6.5787">
        <ele>485</ele>
        <time>2021-12-28T12:07:53Z</time>
      </trkpt>
      <trkpt lat="46.0571" lon="6.57913">
        <ele>485</ele>
        <time>2021-12-28T12:08:01Z</time>
      </trkpt>
      <trkpt lat="46.05704" lon="6.57922">
        <ele>486</ele>
        <time>2021-12-28T12:08:03Z</time>
      </trkpt>
      <trkpt lat="46.05684" lon="6.5794">
        <ele>486</ele>
        <time>2021-12-28T12:08:07Z</time>
      </trkpt>
      <trkpt lat="46.05677" lon="6.5796">
        <ele>486</ele>
        <time>2021-12-28T12:08:10Z</time>
      </trkpt>
      <trkpt lat="46.05667" lon="6.57965">
        <ele>485</ele>
        <time>2021-12-28T12:08:12Z</time>
      </trkpt>
      <trkpt lat="46.05662" lon="6.57973">
        <ele>486</ele>
        <time>2021-12-28T12:08:13Z</time>
      </trkpt>
      <trkpt lat="46.05662" lon="6.57981">
        <ele>486</ele>
        <time>2021-12-28T12:08:14Z</time>
      </trkpt>
      <trkpt lat="46.05666" lon="6.58004">
        <ele>485</ele>
        <time>2021-12-28T12:08:17Z</time>
      </trkpt>
      <trkpt lat="46.05666" lon="6.58017">
        <ele>486</ele>
        <time>2021-12-28T12:08:19Z</time>
      </trkpt>
      <trkpt lat="46.05672" lon="6.58021">
        <ele>486</ele>
        <time>2021-12-28T12:08:20Z</time>
      </trkpt>
      <trkpt lat="46.05672" lon="6.5803">
        <ele>486</ele>
        <time>2021-12-28T12:08:21Z</time>
      </trkpt>
      <trkpt lat="46.05685" lon="6.5806">
        <ele>487</ele>
        <time>2021-12-28T12:08:25Z</time>
      </trkpt>
      <trkpt lat="46.05687" lon="6.58071">
        <ele>488</ele>
        <time>2021-12-28T12:08:27Z</time>
      </trkpt>
      <trkpt lat="46.05682" lon="6.58082">
        <ele>488</ele>
        <time>2021-12-28T12:08:28Z</time>
      </trkpt>
      <trkpt lat="46.05663" lon="6.58096">
        <ele>491</ele>
        <time>2021-12-28T12:08:32Z</time>
      </trkpt>
      <trkpt lat="46.05648" lon="6.58101">
        <ele>492</ele>
        <time>2021-12-28T12:08:35Z</time>
      </trkpt>
      <trkpt lat="46.05613" lon="6.58106">
        <ele>494</ele>
        <time>2021-12-28T12:08:41Z</time>
      </trkpt>
      <trkpt lat="46.05615" lon="6.58111">
        <ele>494</ele>
        <time>2021-12-28T12:08:42Z</time>
      </trkpt>
      <trkpt lat="46.05594" lon="6.58114">
        <ele>496</ele>
        <time>2021-12-28T12:08:46Z</time>
      </trkpt>
      <trkpt lat="46.05579" lon="6.58111">
        <ele>495</ele>
        <time>2021-12-28T12:08:48Z</time>
      </trkpt>
      <trkpt lat="46.05565" lon="6.58101">
        <ele>492</ele>
        <time>2021-12-28T12:08:51Z</time>
      </trkpt>
      <trkpt lat="46.05556" lon="6.58098">
        <ele>491</ele>
        <time>2021-12-28T12:08:53Z</time>
      </trkpt>
      <trkpt lat="46.05461" lon="6.58113">
        <ele>487</ele>
        <time>2021-12-28T12:09:10Z</time>
      </trkpt>
      <trkpt lat="46.05448" lon="6.58109">
        <ele>487</ele>
        <time>2021-12-28T12:09:12Z</time>
      </trkpt>
      <trkpt lat="46.05446" lon="6.58076">
        <ele>487</ele>
        <time>2021-12-28T12:09:16Z</time>
      </trkpt>
      <trkpt lat="46.05443" lon="6.58071">
        <ele>487</ele>
        <time>2021-12-28T12:09:17Z</time>
      </trkpt>
      <trkpt lat="46.0544" lon="6.5807">
        <ele>487</ele>
        <time>2021-12-28T12:09:18Z</time>
      </trkpt>
      <trkpt lat="46.05413" lon="6.58064">
        <ele>489</ele>
        <time>2021-12-28T12:09:22Z</time>
      </trkpt>
      <trkpt lat="46.05379" lon="6.58083">
        <ele>489</ele>
        <time>2021-12-28T12:09:29Z</time>
      </trkpt>
      <trkpt lat="46.05213" lon="6.5822">
        <ele>489</ele>
        <time>2021-12-28T12:10:03Z</time>
      </trkpt>
      <trkpt lat="46.05165" lon="6.58264">
        <ele>485</ele>
        <time>2021-12-28T12:10:13Z</time>
      </trkpt>
      <trkpt lat="46.05128" lon="6.58305">
        <ele>488</ele>
        <time>2021-12-28T12:10:21Z</time>
      </trkpt>
      <trkpt lat="46.05094" lon="6.58347">
        <ele>487</ele>
        <time>2021-12-28T12:10:29Z</time>
      </trkpt>
      <trkpt lat="46.05051" lon="6.58409">
        <ele>488</ele>
        <time>2021-12-28T12:10:40Z</time>
      </trkpt>
      <trkpt lat="46.05024" lon="6.58454">
        <ele>488</ele>
        <time>2021-12-28T12:10:48Z</time>
      </trkpt>
      <trkpt lat="46.04981" lon="6.58534">
        <ele>488</ele>
        <time>2021-12-28T12:11:00Z</time>
      </trkpt>
      <trkpt lat="46.04888" lon="6.58729">
        <ele>488</ele>
        <time>2021-12-28T12:11:29Z</time>
      </trkpt>
      <trkpt lat="46.04826" lon="6.58867">
        <ele>488</ele>
        <time>2021-12-28T12:11:50Z</time>
      </trkpt>
      <trkpt lat="46.04778" lon="6.58978">
        <ele>487</ele>
        <time>2021-12-28T12:12:06Z</time>
      </trkpt>
      <trkpt lat="46.04723" lon="6.59053">
        <ele>488</ele>
        <time>2021-12-28T12:12:19Z</time>
      </trkpt>
      <trkpt lat="46.04709" lon="6.5908">
        <ele>488</ele>
        <time>2021-12-28T12:12:23Z</time>
      </trkpt>
      <trkpt lat="46.04704" lon="6.59092">
        <ele>488</ele>
        <time>2021-12-28T12:12:25Z</time>
      </trkpt>
      <trkpt lat="46.04696" lon="6.59126">
        <ele>489</ele>
        <time>2021-12-28T12:12:30Z</time>
      </trkpt>
      <trkpt lat="46.04637" lon="6.59545">
        <ele>489</ele>
        <time>2021-12-28T12:13:22Z</time>
      </trkpt>
      <trkpt lat="46.04616" lon="6.59676">
        <ele>488</ele>
        <time>2021-12-28T12:13:39Z</time>
      </trkpt>
      <trkpt lat="46.04585" lon="6.59879">
        <ele>489</ele>
        <time>2021-12-28T12:14:05Z</time>
      </trkpt>
      <trkpt lat="46.04561" lon="6.60027">
        <ele>491</ele>
        <time>2021-12-28T12:14:23Z</time>
      </trkpt>
      <trkpt lat="46.04515" lon="6.60272">
        <ele>493</ele>
        <time>2021-12-28T12:14:55Z</time>
      </trkpt>
      <trkpt lat="46.04508" lon="6.60302">
        <ele>493</ele>
        <time>2021-12-28T12:14:59Z</time>
      </trkpt>
      <trkpt lat="46.04497" lon="6.60331">
        <ele>492</ele>
        <time>2021-12-28T12:15:03Z</time>
      </trkpt>
      <trkpt lat="46.0448" lon="6.60366">
        <ele>492</ele>
        <time>2021-12-28T12:15:08Z</time>
      </trkpt>
      <trkpt lat="46.04455" lon="6.60411">
        <ele>492</ele>
        <time>2021-12-28T12:15:15Z</time>
      </trkpt>
      <trkpt lat="46.04425" lon="6.60454">
        <ele>492</ele>
        <time>2021-12-28T12:15:23Z</time>
      </trkpt>
      <trkpt lat="46.04384" lon="6.60505">
        <ele>493</ele>
        <time>2021-12-28T12:15:32Z</time>
      </trkpt>
      <trkpt lat="46.04354" lon="6.60535">
        <ele>494</ele>
        <time>2021-12-28T12:15:39Z</time>
      </trkpt>
      <trkpt lat="46.04276" lon="6.60599">
        <ele>493</ele>
        <time>2021-12-28T12:15:55Z</time>
      </trkpt>
      <trkpt lat="46.0425" lon="6.60616">
        <ele>492</ele>
        <time>2021-12-28T12:16:00Z</time>
      </trkpt>
      <trkpt lat="46.04225" lon="6.60629">
        <ele>492</ele>
        <time>2021-12-28T12:16:05Z</time>
      </trkpt>
      <trkpt lat="46.0419" lon="6.60645">
        <ele>491</ele>
        <time>2021-12-28T12:16:11Z</time>
      </trkpt>
      <trkpt lat="46.04084" lon="6.60685">
        <ele>493</ele>
        <time>2021-12-28T12:16:31Z</time>
      </trkpt>
      <trkpt lat="46.04076" lon="6.60686">
        <ele>493</ele>
        <time>2021-12-28T12:16:32Z</time>
      </trkpt>
      <trkpt lat="46.04069" lon="6.60684">
        <ele>493</ele>
        <time>2021-12-28T12:16:33Z</time>
      </trkpt>
      <trkpt lat="46.04064" lon="6.60678">
        <ele>493</ele>
        <time>2021-12-28T12:16:34Z</time>
      </trkpt>
      <trkpt lat="46.04044" lon="6.60646">
        <ele>493</ele>
        <time>2021-12-28T12:16:40Z</time>
      </trkpt>
      <trkpt lat="46.04031" lon="6.60631">
        <ele>494</ele>
        <time>2021-12-28T12:16:43Z</time>
      </trkpt>
      <trkpt lat="46.03985" lon="6.60594">
        <ele>493</ele>
        <time>2021-12-28T12:16:52Z</time>
      </trkpt>
      <trkpt lat="46.03958" lon="6.60576">
        <ele>493</ele>
        <time>2021-12-28T12:16:57Z</time>
      </trkpt>
      <trkpt lat="46.03919" lon="6.60556">
        <ele>493</ele>
        <time>2021-12-28T12:17:05Z</time>
      </trkpt>
      <trkpt lat="46.03906" lon="6.60552">
        <ele>493</ele>
        <time>2021-12-28T12:17:07Z</time>
      </trkpt>
      <trkpt lat="46.03896" lon="6.60552">
        <ele>493</ele>
        <time>2021-12-28T12:17:09Z</time>
      </trkpt>
      <trkpt lat="46.03849" lon="6.6058">
        <ele>494</ele>
        <time>2021-12-28T12:17:18Z</time>
      </trkpt>
      <trkpt lat="46.03805" lon="6.60611">
        <ele>496</ele>
        <time>2021-12-28T12:17:27Z</time>
      </trkpt>
      <trkpt lat="46.03785" lon="6.60631">
        <ele>496</ele>
        <time>2021-12-28T12:17:31Z</time>
      </trkpt>
      <trkpt lat="46.03774" lon="6.60649">
        <ele>496</ele>
        <time>2021-12-28T12:17:34Z</time>
      </trkpt>
      <trkpt lat="46.0376" lon="6.60693">
        <ele>495</ele>
        <time>2021-12-28T12:17:40Z</time>
      </trkpt>
      <trkpt lat="46.03755" lon="6.60716">
        <ele>495</ele>
        <time>2021-12-28T12:17:43Z</time>
      </trkpt>
      <trkpt lat="46.03751" lon="6.60746">
        <ele>494</ele>
        <time>2021-12-28T12:17:47Z</time>
      </trkpt>
      <trkpt lat="46.03746" lon="6.60811">
        <ele>495</ele>
        <time>2021-12-28T12:17:55Z</time>
      </trkpt>
      <trkpt lat="46.03745" lon="6.60818">
        <ele>495</ele>
        <time>2021-12-28T12:17:56Z</time>
      </trkpt>
      <trkpt lat="46.03741" lon="6.60822">
        <ele>495</ele>
        <time>2021-12-28T12:17:56Z</time>
      </trkpt>
      <trkpt lat="46.03686" lon="6.6082">
        <ele>493</ele>
        <time>2021-12-28T12:18:06Z</time>
      </trkpt>
      <trkpt lat="46.03683" lon="6.60823">
        <ele>493</ele>
        <time>2021-12-28T12:18:07Z</time>
      </trkpt>
      <trkpt lat="46.03675" lon="6.60925">
        <ele>495</ele>
        <time>2021-12-28T12:18:20Z</time>
      </trkpt>
      <trkpt lat="46.03671" lon="6.60939">
        <ele>495</ele>
        <time>2021-12-28T12:18:21Z</time>
      </trkpt>
      <trkpt lat="46.03662" lon="6.60948">
        <ele>495</ele>
        <time>2021-12-28T12:18:23Z</time>
      </trkpt>
      <trkpt lat="46.03493" lon="6.61013">
        <ele>493</ele>
        <time>2021-12-28T12:18:55Z</time>
      </trkpt>
      <trkpt lat="46.03492" lon="6.61049">
        <ele>493</ele>
        <time>2021-12-28T12:18:59Z</time>
      </trkpt>
      <trkpt lat="46.0349" lon="6.6107">
        <ele>493</ele>
        <time>2021-12-28T12:19:02Z</time>
      </trkpt>
      <trkpt lat="46.03484" lon="6.61089">
        <ele>493</ele>
        <time>2021-12-28T12:19:04Z</time>
      </trkpt>
      <trkpt lat="46.03476" lon="6.61104">
        <ele>494</ele>
        <time>2021-12-28T12:19:07Z</time>
      </trkpt>
      <trkpt lat="46.03465" lon="6.61117">
        <ele>494</ele>
        <time>2021-12-28T12:19:09Z</time>
      </trkpt>
      <trkpt lat="46.03446" lon="6.61133">
        <ele>495</ele>
        <time>2021-12-28T12:19:13Z</time>
      </trkpt>
      <trkpt lat="46.03413" lon="6.6116">
        <ele>497</ele>
        <time>2021-12-28T12:19:20Z</time>
      </trkpt>
      <trkpt lat="46.03394" lon="6.61173">
        <ele>500</ele>
        <time>2021-12-28T12:19:23Z</time>
      </trkpt>
      <trkpt lat="46.03372" lon="6.6118">
        <ele>502</ele>
        <time>2021-12-28T12:19:27Z</time>
      </trkpt>
      <trkpt lat="46.03343" lon="6.61185">
        <ele>504</ele>
        <time>2021-12-28T12:19:33Z</time>
      </trkpt>
      <trkpt lat="46.03292" lon="6.61173">
        <ele>510</ele>
        <time>2021-12-28T12:19:42Z</time>
      </trkpt>
      <trkpt lat="46.03263" lon="6.61172">
        <ele>513</ele>
        <time>2021-12-28T12:19:47Z</time>
      </trkpt>
      <trkpt lat="46.03239" lon="6.61175">
        <ele>515</ele>
        <time>2021-12-28T12:19:51Z</time>
      </trkpt>
      <trkpt lat="46.03193" lon="6.61191">
        <ele>516</ele>
        <time>2021-12-28T12:20:00Z</time>
      </trkpt>
      <trkpt lat="46.03157" lon="6.61196">
        <ele>517</ele>
        <time>2021-12-28T12:20:06Z</time>
      </trkpt>
      <trkpt lat="46.03137" lon="6.61205">
        <ele>513</ele>
        <time>2021-12-28T12:20:10Z</time>
      </trkpt>
      <trkpt lat="46.03123" lon="6.61209">
        <ele>512</ele>
        <time>2021-12-28T12:20:12Z</time>
      </trkpt>
      <trkpt lat="46.03104" lon="6.61208">
        <ele>511</ele>
        <time>2021-12-28T12:20:16Z</time>
      </trkpt>
      <trkpt lat="46.03077" lon="6.61195">
        <ele>513</ele>
        <time>2021-12-28T12:20:21Z</time>
      </trkpt>
      <trkpt lat="46.03031" lon="6.61162">
        <ele>514</ele>
        <time>2021-12-28T12:20:30Z</time>
      </trkpt>
      <trkpt lat="46.02996" lon="6.61156">
        <ele>509</ele>
        <time>2021-12-28T12:20:36Z</time>
      </trkpt>
      <trkpt lat="46.02963" lon="6.61133">
        <ele>512</ele>
        <time>2021-12-28T12:20:43Z</time>
      </trkpt>
      <trkpt lat="46.02921" lon="6.61085">
        <ele>510</ele>
        <time>2021-12-28T12:20:52Z</time>
      </trkpt>
      <trkpt lat="46.02913" lon="6.61078">
        <ele>511</ele>
        <time>2021-12-28T12:20:54Z</time>
      </trkpt>
      <trkpt lat="46.02908" lon="6.61076">
        <ele>511</ele>
        <time>2021-12-28T12:20:55Z</time>
      </trkpt>
      <trkpt lat="46.02882" lon="6.61076">
        <ele>510</ele>
        <time>2021-12-28T12:21:00Z</time>
      </trkpt>
      <trkpt lat="46.0284" lon="6.61073">
        <ele>508</ele>
        <time>2021-12-28T12:21:07Z</time>
      </trkpt>
      <trkpt lat="46.02737" lon="6.61053">
        <ele>513</ele>
        <time>2021-12-28T12:21:26Z</time>
      </trkpt>
      <trkpt lat="46.02648" lon="6.61054">
        <ele>514</ele>
        <time>2021-12-28T12:21:41Z</time>
      </trkpt>
      <trkpt lat="46.02631" lon="6.61051">
        <ele>513</ele>
        <time>2021-12-28T12:21:44Z</time>
      </trkpt>
      <trkpt lat="46.02605" lon="6.61042">
        <ele>513</ele>
        <time>2021-12-28T12:21:49Z</time>
      </trkpt>
      <trkpt lat="46.02567" lon="6.61019">
        <ele>513</ele>
        <time>2021-12-28T12:21:57Z</time>
      </trkpt>
      <trkpt lat="46.02533" lon="6.61001">
        <ele>515</ele>
        <time>2021-12-28T12:22:03Z</time>
      </trkpt>
      <trkpt lat="46.02514" lon="6.60997">
        <ele>516</ele>
        <time>2021-12-28T12:22:06Z</time>
      </trkpt>
      <trkpt lat="46.02507" lon="6.61">
        <ele>515</ele>
        <time>2021-12-28T12:22:08Z</time>
      </trkpt>
      <trkpt lat="46.02482" lon="6.61011">
        <ele>514</ele>
        <time>2021-12-28T12:22:12Z</time>
      </trkpt>
      <trkpt lat="46.02474" lon="6.61013">
        <ele>514</ele>
        <time>2021-12-28T12:22:14Z</time>
      </trkpt>
      <trkpt lat="46.02455" lon="6.61019">
        <ele>514</ele>
        <time>2021-12-28T12:22:17Z</time>
      </trkpt>
      <trkpt lat="46.02449" lon="6.61022">
        <ele>513</ele>
        <time>2021-12-28T12:22:18Z</time>
      </trkpt>
      <trkpt lat="46.02368" lon="6.61095">
        <ele>505</ele>
        <time>2021-12-28T12:22:35Z</time>
      </trkpt>
      <trkpt lat="46.02359" lon="6.61114">
        <ele>505</ele>
        <time>2021-12-28T12:22:38Z</time>
      </trkpt>
      <trkpt lat="46.02338" lon="6.61116">
        <ele>505</ele>
        <time>2021-12-28T12:22:42Z</time>
      </trkpt>
      <trkpt lat="46.023" lon="6.61131">
        <ele>509</ele>
        <time>2021-12-28T12:22:49Z</time>
      </trkpt>
      <trkpt lat="46.02285" lon="6.61142">
        <ele>510</ele>
        <time>2021-12-28T12:22:52Z</time>
      </trkpt>
      <trkpt lat="46.02251" lon="6.61164">
        <ele>509</ele>
        <time>2021-12-28T12:22:59Z</time>
      </trkpt>
      <trkpt lat="46.02242" lon="6.61177">
        <ele>511</ele>
        <time>2021-12-28T12:23:01Z</time>
      </trkpt>
      <trkpt lat="46.02225" lon="6.61214">
        <ele>511</ele>
        <time>2021-12-28T12:23:06Z</time>
      </trkpt>
      <trkpt lat="46.02209" lon="6.61233">
        <ele>511</ele>
        <time>2021-12-28T12:23:10Z</time>
      </trkpt>
      <trkpt lat="46.02178" lon="6.61256">
        <ele>512</ele>
        <time>2021-12-28T12:23:16Z</time>
      </trkpt>
      <trkpt lat="46.02119" lon="6.61319">
        <ele>509</ele>
        <time>2021-12-28T12:23:29Z</time>
      </trkpt>
      <trkpt lat="46.02091" lon="6.61333">
        <ele>508</ele>
        <time>2021-12-28T12:23:35Z</time>
      </trkpt>
      <trkpt lat="46.02077" lon="6.61348">
        <ele>507</ele>
        <time>2021-12-28T12:23:38Z</time>
      </trkpt>
      <trkpt lat="46.02057" lon="6.61384">
        <ele>506</ele>
        <time>2021-12-28T12:23:43Z</time>
      </trkpt>
      <trkpt lat="46.0202" lon="6.61408">
        <ele>506</ele>
        <time>2021-12-28T12:23:51Z</time>
      </trkpt>
      <trkpt lat="46.01992" lon="6.61412">
        <ele>507</ele>
        <time>2021-12-28T12:23:56Z</time>
      </trkpt>
      <trkpt lat="46.01969" lon="6.61407">
        <ele>508</ele>
        <time>2021-12-28T12:24:00Z</time>
      </trkpt>
      <trkpt lat="46.01954" lon="6.61387">
        <ele>511</ele>
        <time>2021-12-28T12:24:03Z</time>
      </trkpt>
      <trkpt lat="46.01942" lon="6.61382">
        <ele>512</ele>
        <time>2021-12-28T12:24:06Z</time>
      </trkpt>
      <trkpt lat="46.01912" lon="6.61377">
        <ele>513</ele>
        <time>2021-12-28T12:24:11Z</time>
      </trkpt>
      <trkpt lat="46.01872" lon="6.61386">
        <ele>509</ele>
        <time>2021-12-28T12:24:18Z</time>
      </trkpt>
      <trkpt lat="46.01849" lon="6.61385">
        <ele>508</ele>
        <time>2021-12-28T12:24:22Z</time>
      </trkpt>
      <trkpt lat="46.01684" lon="6.61349">
        <ele>504</ele>
        <time>2021-12-28T12:24:52Z</time>
      </trkpt>
      <trkpt lat="46.01653" lon="6.61327">
        <ele>506</ele>
        <time>2021-12-28T12:24:58Z</time>
      </trkpt>
      <trkpt lat="46.0163" lon="6.61318">
        <ele>511</ele>
        <time>2021-12-28T12:25:02Z</time>
      </trkpt>
      <trkpt lat="46.01631" lon="6.61329">
        <ele>510</ele>
        <time>2021-12-28T12:25:04Z</time>
      </trkpt>
      <trkpt lat="46.01619" lon="6.6135">
        <ele>510</ele>
        <time>2021-12-28T12:25:07Z</time>
      </trkpt>
      <trkpt lat="46.01584" lon="6.61393">
        <ele>510</ele>
        <time>2021-12-28T12:25:15Z</time>
      </trkpt>
      <trkpt lat="46.01555" lon="6.61418">
        <ele>511</ele>
        <time>2021-12-28T12:25:21Z</time>
      </trkpt>
      <trkpt lat="46.01546" lon="6.61428">
        <ele>511</ele>
        <time>2021-12-28T12:25:23Z</time>
      </trkpt>
      <trkpt lat="46.01544" lon="6.6144">
        <ele>510</ele>
        <time>2021-12-28T12:25:25Z</time>
      </trkpt>
      <trkpt lat="46.01545" lon="6.61457">
        <ele>508</ele>
        <time>2021-12-28T12:25:27Z</time>
      </trkpt>
      <trkpt lat="46.01559" lon="6.61531">
        <ele>505</ele>
        <time>2021-12-28T12:25:36Z</time>
      </trkpt>
      <trkpt lat="46.01568" lon="6.6157">
        <ele>506</ele>
        <time>2021-12-28T12:25:42Z</time>
      </trkpt>
      <trkpt lat="46.01627" lon="6.61657">
        <ele>507</ele>
        <time>2021-12-28T12:25:57Z</time>
      </trkpt>
      <trkpt lat="46.01719" lon="6.61803">
        <ele>505</ele>
        <time>2021-12-28T12:26:21Z</time>
      </trkpt>
      <trkpt lat="46.01744" lon="6.61834">
        <ele>505</ele>
        <time>2021-12-28T12:26:27Z</time>
      </trkpt>
      <trkpt lat="46.0171" lon="6.6186">
        <ele>505</ele>
        <time>2021-12-28T12:26:34Z</time>
      </trkpt>
      <trkpt lat="46.01402" lon="6.62059">
        <ele>506</ele>
        <time>2021-12-28T12:27:34Z</time>
      </trkpt>
      <trkpt lat="46.01387" lon="6.62072">
        <ele>506</ele>
        <time>2021-12-28T12:27:37Z</time>
      </trkpt>
      <trkpt lat="46.01382" lon="6.62079">
        <ele>506</ele>
        <time>2021-12-28T12:27:38Z</time>
      </trkpt>
      <trkpt lat="46.01351" lon="6.62131">
        <ele>506</ele>
        <time>2021-12-28T12:27:47Z</time>
      </trkpt>
      <trkpt lat="46.01336" lon="6.62154">
        <ele>507</ele>
        <time>2021-12-28T12:27:50Z</time>
      </trkpt>
      <trkpt lat="46.01326" lon="6.62164">
        <ele>507</ele>
        <time>2021-12-28T12:27:53Z</time>
      </trkpt>
      <trkpt lat="46.01279" lon="6.62196">
        <ele>507</ele>
        <time>2021-12-28T12:28:02Z</time>
      </trkpt>
      <trkpt lat="46.01198" lon="6.62246">
        <ele>506</ele>
        <time>2021-12-28T12:28:18Z</time>
      </trkpt>
      <trkpt lat="46.01189" lon="6.62253">
        <ele>506</ele>
        <time>2021-12-28T12:28:19Z</time>
      </trkpt>
      <trkpt lat="46.01173" lon="6.6227">
        <ele>506</ele>
        <time>2021-12-28T12:28:23Z</time>
      </trkpt>
      <trkpt lat="46.01167" lon="6.62266">
        <ele>506</ele>
        <time>2021-12-28T12:28:24Z</time>
      </trkpt>
      <trkpt lat="46.01164" lon="6.62267">
        <ele>506</ele>
        <time>2021-12-28T12:28:25Z</time>
      </trkpt>
      <trkpt lat="46.01159" lon="6.62273">
        <ele>506</ele>
        <time>2021-12-28T12:28:26Z</time>
      </trkpt>
      <trkpt lat="46.01158" lon="6.62283">
        <ele>506</ele>
        <time>2021-12-28T12:28:27Z</time>
      </trkpt>
      <trkpt lat="46.01161" lon="6.6229">
        <ele>507</ele>
        <time>2021-12-28T12:28:28Z</time>
      </trkpt>
      <trkpt lat="46.01165" lon="6.62293">
        <ele>507</ele>
        <time>2021-12-28T12:28:29Z</time>
      </trkpt>
      <trkpt lat="46.0117" lon="6.62293">
        <ele>506</ele>
        <time>2021-12-28T12:28:30Z</time>
      </trkpt>
      <trkpt lat="46.01178" lon="6.6233">
        <ele>507</ele>
        <time>2021-12-28T12:28:35Z</time>
      </trkpt>
      <trkpt lat="46.01188" lon="6.62363">
        <ele>507</ele>
        <time>2021-12-28T12:28:39Z</time>
      </trkpt>
      <trkpt lat="46.01162" lon="6.62395">
        <ele>508</ele>
        <time>2021-12-28T12:28:45Z</time>
      </trkpt>
      <trkpt lat="46.01053" lon="6.62464">
        <ele>508</ele>
        <time>2021-12-28T12:29:06Z</time>
      </trkpt>
      <trkpt lat="46.00976" lon="6.62517">
        <ele>509</ele>
        <time>2021-12-28T12:29:21Z</time>
      </trkpt>
      <trkpt lat="46.00969" lon="6.62522">
        <ele>509</ele>
        <time>2021-12-28T12:29:23Z</time>
      </trkpt>
      <trkpt lat="46.00837" lon="6.62612">
        <ele>507</ele>
        <time>2021-12-28T12:29:49Z</time>
      </trkpt>
      <trkpt lat="46.00711" lon="6.62683">
        <ele>511</ele>
        <time>2021-12-28T12:30:13Z</time>
      </trkpt>
      <trkpt lat="46.00593" lon="6.62722">
        <ele>511</ele>
        <time>2021-12-28T12:30:34Z</time>
      </trkpt>
      <trkpt lat="46.00368" lon="6.62778">
        <ele>510</ele>
        <time>2021-12-28T12:31:15Z</time>
      </trkpt>
      <trkpt lat="45.99561" lon="6.62929">
        <ele>514</ele>
        <time>2021-12-28T12:33:40Z</time>
      </trkpt>
      <trkpt lat="45.9951" lon="6.62936">
        <ele>514</ele>
        <time>2021-12-28T12:33:49Z</time>
      </trkpt>
      <trkpt lat="45.9951" lon="6.62954">
        <ele>514</ele>
        <time>2021-12-28T12:33:51Z</time>
      </trkpt>
      <trkpt lat="45.99513" lon="6.62987">
        <ele>515</ele>
        <time>2021-12-28T12:33:55Z</time>
      </trkpt>
      <trkpt lat="45.99518" lon="6.63043">
        <ele>517</ele>
        <time>2021-12-28T12:34:02Z</time>
      </trkpt>
      <trkpt lat="45.99511" lon="6.63045">
        <ele>517</ele>
        <time>2021-12-28T12:34:04Z</time>
      </trkpt>
      <trkpt lat="45.99498" lon="6.63041">
        <ele>517</ele>
        <time>2021-12-28T12:34:06Z</time>
      </trkpt>
      <trkpt lat="45.99486" lon="6.63034">
        <ele>517</ele>
        <time>2021-12-28T12:34:08Z</time>
      </trkpt>
      <trkpt lat="45.99381" lon="6.63061">
        <ele>519</ele>
        <time>2021-12-28T12:34:27Z</time>
      </trkpt>
      <trkpt lat="45.99328" lon="6.6307">
        <ele>518</ele>
        <time>2021-12-28T12:34:37Z</time>
      </trkpt>
      <trkpt lat="45.99303" lon="6.63078">
        <ele>518</ele>
        <time>2021-12-28T12:34:41Z</time>
      </trkpt>
      <trkpt lat="45.99251" lon="6.63086">
        <ele>518</ele>
        <time>2021-12-28T12:34:51Z</time>
      </trkpt>
      <trkpt lat="45.99222" lon="6.63089">
        <ele>518</ele>
        <time>2021-12-28T12:34:56Z</time>
      </trkpt>
      <trkpt lat="45.99199" lon="6.63089">
        <ele>518</ele>
        <time>2021-12-28T12:35:00Z</time>
      </trkpt>
      <trkpt lat="45.99155" lon="6.63095">
        <ele>518</ele>
        <time>2021-12-28T12:35:08Z</time>
      </trkpt>
      <trkpt lat="45.99159" lon="6.63144">
        <ele>519</ele>
        <time>2021-12-28T12:35:14Z</time>
      </trkpt>
      <trkpt lat="45.99125" lon="6.63149">
        <ele>519</ele>
        <time>2021-12-28T12:35:20Z</time>
      </trkpt>
      <trkpt lat="45.99076" lon="6.63164">
        <ele>519</ele>
        <time>2021-12-28T12:35:29Z</time>
      </trkpt>
      <trkpt lat="45.99025" lon="6.63183">
        <ele>521</ele>
        <time>2021-12-28T12:35:38Z</time>
      </trkpt>
      <trkpt lat="45.98998" lon="6.63196">
        <ele>522</ele>
        <time>2021-12-28T12:35:43Z</time>
      </trkpt>
      <trkpt lat="45.98963" lon="6.63205">
        <ele>524</ele>
        <time>2021-12-28T12:35:50Z</time>
      </trkpt>
      <trkpt lat="45.98942" lon="6.63214">
        <ele>525</ele>
        <time>2021-12-28T12:35:53Z</time>
      </trkpt>
      <trkpt lat="45.98924" lon="6.63218">
        <ele>526</ele>
        <time>2021-12-28T12:35:57Z</time>
      </trkpt>
      <trkpt lat="45.98784" lon="6.63242">
        <ele>528</ele>
        <time>2021-12-28T12:36:22Z</time>
      </trkpt>
      <trkpt lat="45.98634" lon="6.63268">
        <ele>530</ele>
        <time>2021-12-28T12:36:49Z</time>
      </trkpt>
      <trkpt lat="45.98489" lon="6.63265">
        <ele>533</ele>
        <time>2021-12-28T12:37:14Z</time>
      </trkpt>
      <trkpt lat="45.98448" lon="6.63267">
        <ele>534</ele>
        <time>2021-12-28T12:37:22Z</time>
      </trkpt>
      <trkpt lat="45.98412" lon="6.63271">
        <ele>535</ele>
        <time>2021-12-28T12:37:28Z</time>
      </trkpt>
      <trkpt lat="45.98346" lon="6.63294">
        <ele>540</ele>
        <time>2021-12-28T12:37:40Z</time>
      </trkpt>
      <trkpt lat="45.9832" lon="6.63307">
        <ele>541</ele>
        <time>2021-12-28T12:37:45Z</time>
      </trkpt>
      <trkpt lat="45.98154" lon="6.63413">
        <ele>541</ele>
        <time>2021-12-28T12:38:17Z</time>
      </trkpt>
      <trkpt lat="45.9814" lon="6.63425">
        <ele>540</ele>
        <time>2021-12-28T12:38:20Z</time>
      </trkpt>
      <trkpt lat="45.98118" lon="6.6344">
        <ele>539</ele>
        <time>2021-12-28T12:38:25Z</time>
      </trkpt>
      <trkpt lat="45.98107" lon="6.6345">
        <ele>538</ele>
        <time>2021-12-28T12:38:27Z</time>
      </trkpt>
      <trkpt lat="45.98068" lon="6.63488">
        <ele>537</ele>
        <time>2021-12-28T12:38:35Z</time>
      </trkpt>
      <trkpt lat="45.98008" lon="6.63552">
        <ele>533</ele>
        <time>2021-12-28T12:38:49Z</time>
      </trkpt>
      <trkpt lat="45.97982" lon="6.63577">
        <ele>531</ele>
        <time>2021-12-28T12:38:54Z</time>
      </trkpt>
      <trkpt lat="45.97859" lon="6.63704">
        <ele>524</ele>
        <time>2021-12-28T12:39:21Z</time>
      </trkpt>
      <trkpt lat="45.97822" lon="6.63731">
        <ele>523</ele>
        <time>2021-12-28T12:39:29Z</time>
      </trkpt>
      <trkpt lat="45.97803" lon="6.63742">
        <ele>523</ele>
        <time>2021-12-28T12:39:32Z</time>
      </trkpt>
      <trkpt lat="45.97604" lon="6.63819">
        <ele>532</ele>
        <time>2021-12-28T12:40:09Z</time>
      </trkpt>
      <trkpt lat="45.97599" lon="6.63821">
        <ele>532</ele>
        <time>2021-12-28T12:40:10Z</time>
      </trkpt>
      <trkpt lat="45.97528" lon="6.6385">
        <ele>528</ele>
        <time>2021-12-28T12:40:23Z</time>
      </trkpt>
      <trkpt lat="45.97471" lon="6.63868">
        <ele>526</ele>
        <time>2021-12-28T12:40:33Z</time>
      </trkpt>
      <trkpt lat="45.9745" lon="6.63871">
        <ele>526</ele>
        <time>2021-12-28T12:40:37Z</time>
      </trkpt>
      <trkpt lat="45.97431" lon="6.63871">
        <ele>526</ele>
        <time>2021-12-28T12:40:40Z</time>
      </trkpt>
      <trkpt lat="45.9739" lon="6.63864">
        <ele>527</ele>
        <time>2021-12-28T12:40:48Z</time>
      </trkpt>
      <trkpt lat="45.97359" lon="6.63856">
        <ele>527</ele>
        <time>2021-12-28T12:40:53Z</time>
      </trkpt>
      <trkpt lat="45.96838" lon="6.63689">
        <ele>544</ele>
        <time>2021-12-28T12:42:28Z</time>
      </trkpt>
      <trkpt lat="45.96839" lon="6.63669">
        <ele>543</ele>
        <time>2021-12-28T12:42:31Z</time>
      </trkpt>
      <trkpt lat="45.96838" lon="6.63641">
        <ele>542</ele>
        <time>2021-12-28T12:42:34Z</time>
      </trkpt>
      <trkpt lat="45.96834" lon="6.63624">
        <ele>541</ele>
        <time>2021-12-28T12:42:37Z</time>
      </trkpt>
      <trkpt lat="45.96816" lon="6.63581">
        <ele>541</ele>
        <time>2021-12-28T12:42:43Z</time>
      </trkpt>
      <trkpt lat="45.9678" lon="6.6352">
        <ele>540</ele>
        <time>2021-12-28T12:42:53Z</time>
      </trkpt>
      <trkpt lat="45.96767" lon="6.63462">
        <ele>537</ele>
        <time>2021-12-28T12:43:00Z</time>
      </trkpt>
      <trkpt lat="45.96759" lon="6.63417">
        <ele>535</ele>
        <time>2021-12-28T12:43:06Z</time>
      </trkpt>
      <trkpt lat="45.96748" lon="6.63339">
        <ele>533</ele>
        <time>2021-12-28T12:43:16Z</time>
      </trkpt>
      <trkpt lat="45.96766" lon="6.63126">
        <ele>526</ele>
        <time>2021-12-28T12:43:42Z</time>
      </trkpt>
      <trkpt lat="45.96767" lon="6.63106">
        <ele>526</ele>
        <time>2021-12-28T12:43:45Z</time>
      </trkpt>
      <trkpt lat="45.9677" lon="6.63057">
        <ele>525</ele>
        <time>2021-12-28T12:43:51Z</time>
      </trkpt>
      <trkpt lat="45.9677" lon="6.63049">
        <ele>525</ele>
        <time>2021-12-28T12:43:52Z</time>
      </trkpt>
      <trkpt lat="45.96765" lon="6.63038">
        <ele>525</ele>
        <time>2021-12-28T12:43:53Z</time>
      </trkpt>
      <trkpt lat="45.96758" lon="6.63032">
        <ele>525</ele>
        <time>2021-12-28T12:43:55Z</time>
      </trkpt>
      <trkpt lat="45.96717" lon="6.6303">
        <ele>525</ele>
        <time>2021-12-28T12:44:02Z</time>
      </trkpt>
      <trkpt lat="45.96716" lon="6.63039">
        <ele>525</ele>
        <time>2021-12-28T12:44:03Z</time>
      </trkpt>
      <trkpt lat="45.96712" lon="6.63043">
        <ele>525</ele>
        <time>2021-12-28T12:44:04Z</time>
      </trkpt>
      <trkpt lat="45.96675" lon="6.63038">
        <ele>526</ele>
        <time>2021-12-28T12:44:11Z</time>
      </trkpt>
      <trkpt lat="45.96628" lon="6.63036">
        <ele>526</ele>
        <time>2021-12-28T12:44:19Z</time>
      </trkpt>
      <trkpt lat="45.96599" lon="6.63038">
        <ele>526</ele>
        <time>2021-12-28T12:44:24Z</time>
      </trkpt>
      <trkpt lat="45.9657" lon="6.63043">
        <ele>527</ele>
        <time>2021-12-28T12:44:30Z</time>
      </trkpt>
      <trkpt lat="45.96559" lon="6.6305">
        <ele>527</ele>
        <time>2021-12-28T12:44:32Z</time>
      </trkpt>
      <trkpt lat="45.9655" lon="6.63059">
        <ele>527</ele>
        <time>2021-12-28T12:44:34Z</time>
      </trkpt>
      <trkpt lat="45.96532" lon="6.63092">
        <ele>527</ele>
        <time>2021-12-28T12:44:39Z</time>
      </trkpt>
      <trkpt lat="45.96521" lon="6.631">
        <ele>527</ele>
        <time>2021-12-28T12:44:41Z</time>
      </trkpt>
      <trkpt lat="45.96492" lon="6.6311">
        <ele>527</ele>
        <time>2021-12-28T12:44:46Z</time>
      </trkpt>
      <trkpt lat="45.96444" lon="6.63137">
        <ele>527</ele>
        <time>2021-12-28T12:44:55Z</time>
      </trkpt>
      <trkpt lat="45.96427" lon="6.63143">
        <ele>527</ele>
        <time>2021-12-28T12:44:59Z</time>
      </trkpt>
      <trkpt lat="45.96421" lon="6.63136">
        <ele>527</ele>
        <time>2021-12-28T12:45:00Z</time>
      </trkpt>
      <trkpt lat="45.96404" lon="6.63136">
        <ele>528</ele>
        <time>2021-12-28T12:45:03Z</time>
      </trkpt>
      <trkpt lat="45.96375" lon="6.6313">
        <ele>528</ele>
        <time>2021-12-28T12:45:08Z</time>
      </trkpt>
      <trkpt lat="45.96352" lon="6.63138">
        <ele>529</ele>
        <time>2021-12-28T12:45:12Z</time>
      </trkpt>
      <trkpt lat="45.96322" lon="6.63152">
        <ele>529</ele>
        <time>2021-12-28T12:45:18Z</time>
      </trkpt>
      <trkpt lat="45.96314" lon="6.63158">
        <ele>529</ele>
        <time>2021-12-28T12:45:20Z</time>
      </trkpt>
      <trkpt lat="45.96306" lon="6.63167">
        <ele>529</ele>
        <time>2021-12-28T12:45:21Z</time>
      </trkpt>
      <trkpt lat="45.96283" lon="6.63218">
        <ele>528</ele>
        <time>2021-12-28T12:45:29Z</time>
      </trkpt>
      <trkpt lat="45.96278" lon="6.63224">
        <ele>528</ele>
        <time>2021-12-28T12:45:30Z</time>
      </trkpt>
      <trkpt lat="45.96272" lon="6.6323">
        <ele>527</ele>
        <time>2021-12-28T12:45:31Z</time>
      </trkpt>
      <trkpt lat="45.96238" lon="6.63247">
        <ele>527</ele>
        <time>2021-12-28T12:45:38Z</time>
      </trkpt>
      <trkpt lat="45.95878" lon="6.63414">
        <ele>530</ele>
        <time>2021-12-28T12:46:45Z</time>
      </trkpt>
      <trkpt lat="45.95688" lon="6.63516">
        <ele>532</ele>
        <time>2021-12-28T12:47:21Z</time>
      </trkpt>
      <trkpt lat="45.95514" lon="6.63584">
        <ele>532</ele>
        <time>2021-12-28T12:47:53Z</time>
      </trkpt>
      <trkpt lat="45.95378" lon="6.63628">
        <ele>533</ele>
        <time>2021-12-28T12:48:18Z</time>
      </trkpt>
      <trkpt lat="45.95009" lon="6.63741">
        <ele>534</ele>
        <time>2021-12-28T12:49:25Z</time>
      </trkpt>
      <trkpt lat="45.94504" lon="6.63861">
        <ele>539</ele>
        <time>2021-12-28T12:50:56Z</time>
      </trkpt>
      <trkpt lat="45.94431" lon="6.63889">
        <ele>540</ele>
        <time>2021-12-28T12:51:10Z</time>
      </trkpt>
      <trkpt lat="45.94364" lon="6.63923">
        <ele>539</ele>
        <time>2021-12-28T12:51:22Z</time>
      </trkpt>
      <trkpt lat="45.94311" lon="6.63958">
        <ele>539</ele>
        <time>2021-12-28T12:51:33Z</time>
      </trkpt>
      <trkpt lat="45.94208" lon="6.64033">
        <ele>541</ele>
        <time>2021-12-28T12:51:53Z</time>
      </trkpt>
      <trkpt lat="45.94153" lon="6.64078">
        <ele>543</ele>
        <time>2021-12-28T12:52:05Z</time>
      </trkpt>
      <trkpt lat="45.94064" lon="6.64145">
        <ele>542</ele>
        <time>2021-12-28T12:52:22Z</time>
      </trkpt>
      <trkpt lat="45.94051" lon="6.6416">
        <ele>542</ele>
        <time>2021-12-28T12:52:25Z</time>
      </trkpt>
      <trkpt lat="45.94027" lon="6.64175">
        <ele>541</ele>
        <time>2021-12-28T12:52:30Z</time>
      </trkpt>
      <trkpt lat="45.94011" lon="6.64183">
        <ele>541</ele>
        <time>2021-12-28T12:52:33Z</time>
      </trkpt>
      <trkpt lat="45.94007" lon="6.64184">
        <ele>541</ele>
        <time>2021-12-28T12:52:34Z</time>
      </trkpt>
      <trkpt lat="45.93997" lon="6.64149">
        <ele>541</ele>
        <time>2021-12-28T12:52:38Z</time>
      </trkpt>
      <trkpt lat="45.94007" lon="6.64138">
        <ele>541</ele>
        <time>2021-12-28T12:52:41Z</time>
      </trkpt>
      <trkpt lat="45.93979" lon="6.64072">
        <ele>542</ele>
        <time>2021-12-28T12:52:50Z</time>
      </trkpt>
      <trkpt lat="45.93977" lon="6.64073">
        <ele>542</ele>
        <time>2021-12-28T12:52:51Z</time>
      </trkpt>
      <trkpt lat="45.93973" lon="6.64059">
        <ele>542</ele>
        <time>2021-12-28T12:52:53Z</time>
      </trkpt>
      <trkpt lat="45.93976" lon="6.6405">
        <ele>542</ele>
        <time>2021-12-28T12:52:54Z</time>
      </trkpt>
      <trkpt lat="45.93975" lon="6.6404">
        <ele>542</ele>
        <time>2021-12-28T12:52:55Z</time>
      </trkpt>
      <trkpt lat="45.93969" lon="6.64032">
        <ele>543</ele>
        <time>2021-12-28T12:52:56Z</time>
      </trkpt>
      <trkpt lat="45.93961" lon="6.6403">
        <ele>543</ele>
        <time>2021-12-28T12:52:58Z</time>
      </trkpt>
      <trkpt lat="45.93946" lon="6.6401">
        <ele>543</ele>
        <time>2021-12-28T12:53:02Z</time>
      </trkpt>
      <trkpt lat="45.93849" lon="6.63794">
        <ele>545</ele>
        <time>2021-12-28T12:53:33Z</time>
      </trkpt>
      <trkpt lat="45.93837" lon="6.6376">
        <ele>546</ele>
        <time>2021-12-28T12:53:38Z</time>
      </trkpt>
      <trkpt lat="45.93805" lon="6.6369">
        <ele>548</ele>
        <time>2021-12-28T12:53:48Z</time>
      </trkpt>
      <trkpt lat="45.93787" lon="6.63659">
        <ele>549</ele>
        <time>2021-12-28T12:53:53Z</time>
      </trkpt>
      <trkpt lat="45.93773" lon="6.63626">
        <ele>549</ele>
        <time>2021-12-28T12:53:58Z</time>
      </trkpt>
      <trkpt lat="45.93714" lon="6.63497">
        <ele>552</ele>
        <time>2021-12-28T12:54:17Z</time>
      </trkpt>
      <trkpt lat="45.93658" lon="6.63375">
        <ele>554</ele>
        <time>2021-12-28T12:54:35Z</time>
      </trkpt>
      <trkpt lat="45.9365" lon="6.63364">
        <ele>555</ele>
        <time>2021-12-28T12:54:37Z</time>
      </trkpt>
      <trkpt lat="45.93622" lon="6.63297">
        <ele>557</ele>
        <time>2021-12-28T12:54:47Z</time>
      </trkpt>
      <trkpt lat="45.936" lon="6.6318">
        <ele>557</ele>
        <time>2021-12-28T12:55:02Z</time>
      </trkpt>
      <trkpt lat="45.93603" lon="6.6316">
        <ele>558</ele>
        <time>2021-12-28T12:55:05Z</time>
      </trkpt>
      <trkpt lat="45.9361" lon="6.63137">
        <ele>558</ele>
        <time>2021-12-28T12:55:08Z</time>
      </trkpt>
      <trkpt lat="45.93619" lon="6.63129">
        <ele>558</ele>
        <time>2021-12-28T12:55:10Z</time>
      </trkpt>
      <trkpt lat="45.9364" lon="6.63122">
        <ele>557</ele>
        <time>2021-12-28T12:55:13Z</time>
      </trkpt>
      <trkpt lat="45.93645" lon="6.63116">
        <ele>557</ele>
        <time>2021-12-28T12:55:15Z</time>
      </trkpt>
      <trkpt lat="45.93655" lon="6.63112">
        <ele>557</ele>
        <time>2021-12-28T12:55:16Z</time>
      </trkpt>
      <trkpt lat="45.93641" lon="6.63025">
        <ele>561</ele>
        <time>2021-12-28T12:55:27Z</time>
      </trkpt>
      <trkpt lat="45.93625" lon="6.62937">
        <ele>563</ele>
        <time>2021-12-28T12:55:39Z</time>
      </trkpt>
      <trkpt lat="45.93609" lon="6.62943">
        <ele>562</ele>
        <time>2021-12-28T12:55:42Z</time>
      </trkpt>
      <trkpt lat="45.93586" lon="6.62952">
        <ele>562</ele>
        <time>2021-12-28T12:55:46Z</time>
      </trkpt>
      <trkpt lat="45.93572" lon="6.62956">
        <ele>562</ele>
        <time>2021-12-28T12:55:48Z</time>
      </trkpt>
      <trkpt lat="45.93571" lon="6.62955">
        <ele>563</ele>
        <time>2021-12-28T12:55:49Z</time>
      </trkpt>
      <trkpt lat="45.93537" lon="6.62967">
        <ele>564</ele>
        <time>2021-12-28T12:55:55Z</time>
      </trkpt>
      <trkpt lat="45.93534" lon="6.62946">
        <ele>565</ele>
        <time>2021-12-28T12:55:58Z</time>
      </trkpt>
      <trkpt lat="45.93529" lon="6.62948">
        <ele>565</ele>
        <time>2021-12-28T12:55:58Z</time>
      </trkpt>
      <trkpt lat="45.93523" lon="6.62957">
        <ele>565</ele>
        <time>2021-12-28T12:56:00Z</time>
      </trkpt>
      <trkpt lat="45.93515" lon="6.62961">
        <ele>565</ele>
        <time>2021-12-28T12:56:02Z</time>
      </trkpt>
      <trkpt lat="45.93496" lon="6.62965">
        <ele>566</ele>
        <time>2021-12-28T12:56:05Z</time>
      </trkpt>
      <trkpt lat="45.93492" lon="6.62964">
        <ele>566</ele>
        <time>2021-12-28T12:56:06Z</time>
      </trkpt>
      <trkpt lat="45.93485" lon="6.6296">
        <ele>567</ele>
        <time>2021-12-28T12:56:07Z</time>
      </trkpt>
      <trkpt lat="45.93476" lon="6.62948">
        <ele>569</ele>
        <time>2021-12-28T12:56:09Z</time>
      </trkpt>
      <trkpt lat="45.9346" lon="6.62936">
        <ele>573</ele>
        <time>2021-12-28T12:56:12Z</time>
      </trkpt>
      <trkpt lat="45.9345" lon="6.62936">
        <ele>574</ele>
        <time>2021-12-28T12:56:14Z</time>
      </trkpt>
      <trkpt lat="45.93424" lon="6.6295">
        <ele>576</ele>
        <time>2021-12-28T12:56:19Z</time>
      </trkpt>
      <trkpt lat="45.93418" lon="6.62956">
        <ele>576</ele>
        <time>2021-12-28T12:56:20Z</time>
      </trkpt>
      <trkpt lat="45.93397" lon="6.62985">
        <ele>577</ele>
        <time>2021-12-28T12:56:26Z</time>
      </trkpt>
      <trkpt lat="45.93394" lon="6.62987">
        <ele>577</ele>
        <time>2021-12-28T12:56:26Z</time>
      </trkpt>
      <trkpt lat="45.93384" lon="6.62989">
        <ele>579</ele>
        <time>2021-12-28T12:56:28Z</time>
      </trkpt>
      <trkpt lat="45.93323" lon="6.62948">
        <ele>597</ele>
        <time>2021-12-28T12:56:40Z</time>
      </trkpt>
      <trkpt lat="45.93289" lon="6.62936">
        <ele>603</ele>
        <time>2021-12-28T12:56:46Z</time>
      </trkpt>
      <trkpt lat="45.93236" lon="6.62934">
        <ele>610</ele>
        <time>2021-12-28T12:56:56Z</time>
      </trkpt>
      <trkpt lat="45.93224" lon="6.62935">
        <ele>611</ele>
        <time>2021-12-28T12:56:58Z</time>
      </trkpt>
      <trkpt lat="45.93188" lon="6.62949">
        <ele>611</ele>
        <time>2021-12-28T12:57:04Z</time>
      </trkpt>
      <trkpt lat="45.93129" lon="6.62958">
        <ele>614</ele>
        <time>2021-12-28T12:57:15Z</time>
      </trkpt>
      <trkpt lat="45.93075" lon="6.62976">
        <ele>616</ele>
        <time>2021-12-28T12:57:25Z</time>
      </trkpt>
      <trkpt lat="45.93021" lon="6.62997">
        <ele>617</ele>
        <time>2021-12-28T12:57:35Z</time>
      </trkpt>
      <trkpt lat="45.93011" lon="6.62997">
        <ele>618</ele>
        <time>2021-12-28T12:57:37Z</time>
      </trkpt>
      <trkpt lat="45.93003" lon="6.62992">
        <ele>620</ele>
        <time>2021-12-28T12:57:38Z</time>
      </trkpt>
      <trkpt lat="45.92972" lon="6.62912">
        <ele>637</ele>
        <time>2021-12-28T12:57:49Z</time>
      </trkpt>
      <trkpt lat="45.92965" lon="6.62903">
        <ele>640</ele>
        <time>2021-12-28T12:57:51Z</time>
      </trkpt>
      <trkpt lat="45.92954" lon="6.62898">
        <ele>643</ele>
        <time>2021-12-28T12:57:53Z</time>
      </trkpt>
      <trkpt lat="45.9294" lon="6.62899">
        <ele>645</ele>
        <time>2021-12-28T12:57:56Z</time>
      </trkpt>
      <trkpt lat="45.92907" lon="6.62907">
        <ele>649</ele>
        <time>2021-12-28T12:58:02Z</time>
      </trkpt>
      <trkpt lat="45.92875" lon="6.62905">
        <ele>653</ele>
        <time>2021-12-28T12:58:07Z</time>
      </trkpt>
      <trkpt lat="45.92864" lon="6.62908">
        <ele>653</ele>
        <time>2021-12-28T12:58:09Z</time>
      </trkpt>
      <trkpt lat="45.92797" lon="6.62937">
        <ele>658</ele>
        <time>2021-12-28T12:58:22Z</time>
      </trkpt>
      <trkpt lat="45.92782" lon="6.62949">
        <ele>659</ele>
        <time>2021-12-28T12:58:25Z</time>
      </trkpt>
      <trkpt lat="45.92763" lon="6.62999">
        <ele>656</ele>
        <time>2021-12-28T12:58:32Z</time>
      </trkpt>
      <trkpt lat="45.92757" lon="6.63007">
        <ele>656</ele>
        <time>2021-12-28T12:58:33Z</time>
      </trkpt>
      <trkpt lat="45.92753" lon="6.63008">
        <ele>657</ele>
        <time>2021-12-28T12:58:34Z</time>
      </trkpt>
      <trkpt lat="45.92747" lon="6.63002">
        <ele>659</ele>
        <time>2021-12-28T12:58:35Z</time>
      </trkpt>
      <trkpt lat="45.92746" lon="6.62975">
        <ele>662</ele>
        <time>2021-12-28T12:58:39Z</time>
      </trkpt>
      <trkpt lat="45.92743" lon="6.62957">
        <ele>665</ele>
        <time>2021-12-28T12:58:41Z</time>
      </trkpt>
      <trkpt lat="45.92726" lon="6.62947">
        <ele>666</ele>
        <time>2021-12-28T12:58:44Z</time>
      </trkpt>
      <trkpt lat="45.92721" lon="6.62935">
        <ele>668</ele>
        <time>2021-12-28T12:58:46Z</time>
      </trkpt>
      <trkpt lat="45.92718" lon="6.62923">
        <ele>669</ele>
        <time>2021-12-28T12:58:48Z</time>
      </trkpt>
      <trkpt lat="45.92715" lon="6.6286">
        <ele>678</ele>
        <time>2021-12-28T12:58:55Z</time>
      </trkpt>
      <trkpt lat="45.92713" lon="6.6285">
        <ele>680</ele>
        <time>2021-12-28T12:58:57Z</time>
      </trkpt>
      <trkpt lat="45.92702" lon="6.62835">
        <ele>682</ele>
        <time>2021-12-28T12:58:59Z</time>
      </trkpt>
      <trkpt lat="45.92694" lon="6.62827">
        <ele>684</ele>
        <time>2021-12-28T12:59:01Z</time>
      </trkpt>
      <trkpt lat="45.92684" lon="6.62821">
        <ele>686</ele>
        <time>2021-12-28T12:59:03Z</time>
      </trkpt>
      <trkpt lat="45.92647" lon="6.62808">
        <ele>692</ele>
        <time>2021-12-28T12:59:10Z</time>
      </trkpt>
      <trkpt lat="45.92626" lon="6.62805">
        <ele>695</ele>
        <time>2021-12-28T12:59:14Z</time>
      </trkpt>
      <trkpt lat="45.92606" lon="6.62805">
        <ele>697</ele>
        <time>2021-12-28T12:59:17Z</time>
      </trkpt>
      <trkpt lat="45.9259" lon="6.628">
        <ele>700</ele>
        <time>2021-12-28T12:59:20Z</time>
      </trkpt>
      <trkpt lat="45.9256" lon="6.62798">
        <ele>704</ele>
        <time>2021-12-28T12:59:25Z</time>
      </trkpt>
      <trkpt lat="45.92521" lon="6.62801">
        <ele>708</ele>
        <time>2021-12-28T12:59:32Z</time>
      </trkpt>
      <trkpt lat="45.92474" lon="6.62795">
        <ele>716</ele>
        <time>2021-12-28T12:59:41Z</time>
      </trkpt>
      <trkpt lat="45.92458" lon="6.62797">
        <ele>718</ele>
        <time>2021-12-28T12:59:44Z</time>
      </trkpt>
      <trkpt lat="45.92445" lon="6.62804">
        <ele>719</ele>
        <time>2021-12-28T12:59:46Z</time>
      </trkpt>
      <trkpt lat="45.92425" lon="6.62829">
        <ele>719</ele>
        <time>2021-12-28T12:59:51Z</time>
      </trkpt>
      <trkpt lat="45.92412" lon="6.62848">
        <ele>718</ele>
        <time>2021-12-28T12:59:54Z</time>
      </trkpt>
      <trkpt lat="45.92405" lon="6.62852">
        <ele>718</ele>
        <time>2021-12-28T12:59:55Z</time>
      </trkpt>
      <trkpt lat="45.92361" lon="6.62856">
        <ele>723</ele>
        <time>2021-12-28T13:00:03Z</time>
      </trkpt>
      <trkpt lat="45.9235" lon="6.62852">
        <ele>725</ele>
        <time>2021-12-28T13:00:05Z</time>
      </trkpt>
      <trkpt lat="45.92341" lon="6.62843">
        <ele>727</ele>
        <time>2021-12-28T13:00:07Z</time>
      </trkpt>
      <trkpt lat="45.9234" lon="6.62838">
        <ele>728</ele>
        <time>2021-12-28T13:00:08Z</time>
      </trkpt>
      <trkpt lat="45.92342" lon="6.6282">
        <ele>731</ele>
        <time>2021-12-28T13:00:10Z</time>
      </trkpt>
      <trkpt lat="45.92364" lon="6.62785">
        <ele>732</ele>
        <time>2021-12-28T13:00:16Z</time>
      </trkpt>
      <trkpt lat="45.92366" lon="6.62774">
        <ele>733</ele>
        <time>2021-12-28T13:00:17Z</time>
      </trkpt>
      <trkpt lat="45.92365" lon="6.6276">
        <ele>735</ele>
        <time>2021-12-28T13:00:19Z</time>
      </trkpt>
      <trkpt lat="45.92361" lon="6.62753">
        <ele>737</ele>
        <time>2021-12-28T13:00:20Z</time>
      </trkpt>
      <trkpt lat="45.92355" lon="6.62746">
        <ele>738</ele>
        <time>2021-12-28T13:00:22Z</time>
      </trkpt>
      <trkpt lat="45.92349" lon="6.62745">
        <ele>739</ele>
        <time>2021-12-28T13:00:23Z</time>
      </trkpt>
      <trkpt lat="45.92276" lon="6.62774">
        <ele>746</ele>
        <time>2021-12-28T13:00:36Z</time>
      </trkpt>
      <trkpt lat="45.92236" lon="6.62785">
        <ele>751</ele>
        <time>2021-12-28T13:00:43Z</time>
      </trkpt>
      <trkpt lat="45.92161" lon="6.62799">
        <ele>763</ele>
        <time>2021-12-28T13:00:57Z</time>
      </trkpt>
      <trkpt lat="45.9215" lon="6.62803">
        <ele>764</ele>
        <time>2021-12-28T13:00:59Z</time>
      </trkpt>
      <trkpt lat="45.92116" lon="6.62827">
        <ele>764</ele>
        <time>2021-12-28T13:01:06Z</time>
      </trkpt>
      <trkpt lat="45.92103" lon="6.62832">
        <ele>765</ele>
        <time>2021-12-28T13:01:08Z</time>
      </trkpt>
      <trkpt lat="45.92052" lon="6.62848">
        <ele>771</ele>
        <time>2021-12-28T13:01:17Z</time>
      </trkpt>
      <trkpt lat="45.92032" lon="6.62854">
        <ele>774</ele>
        <time>2021-12-28T13:01:21Z</time>
      </trkpt>
      <trkpt lat="45.92017" lon="6.62855">
        <ele>776</ele>
        <time>2021-12-28T13:01:24Z</time>
      </trkpt>
      <trkpt lat="45.91976" lon="6.62868">
        <ele>778</ele>
        <time>2021-12-28T13:01:31Z</time>
      </trkpt>
      <trkpt lat="45.91973" lon="6.62862">
        <ele>779</ele>
        <time>2021-12-28T13:01:32Z</time>
      </trkpt>
      <trkpt lat="45.91967" lon="6.62858">
        <ele>780</ele>
        <time>2021-12-28T13:01:33Z</time>
      </trkpt>
      <trkpt lat="45.91951" lon="6.62854">
        <ele>781</ele>
        <time>2021-12-28T13:01:36Z</time>
      </trkpt>
      <trkpt lat="45.91943" lon="6.62854">
        <ele>782</ele>
        <time>2021-12-28T13:01:37Z</time>
      </trkpt>
      <trkpt lat="45.9187" lon="6.62859">
        <ele>788</ele>
        <time>2021-12-28T13:01:50Z</time>
      </trkpt>
      <trkpt lat="45.91835" lon="6.62868">
        <ele>792</ele>
        <time>2021-12-28T13:01:57Z</time>
      </trkpt>
      <trkpt lat="45.91814" lon="6.62895">
        <ele>793</ele>
        <time>2021-12-28T13:02:02Z</time>
      </trkpt>
      <trkpt lat="45.91771" lon="6.62934">
        <ele>798</ele>
        <time>2021-12-28T13:02:11Z</time>
      </trkpt>
      <trkpt lat="45.91688" lon="6.62994">
        <ele>801</ele>
        <time>2021-12-28T13:02:27Z</time>
      </trkpt>
      <trkpt lat="45.91666" lon="6.63001">
        <ele>800</ele>
        <time>2021-12-28T13:02:31Z</time>
      </trkpt>
      <trkpt lat="45.91635" lon="6.63007">
        <ele>802</ele>
        <time>2021-12-28T13:02:37Z</time>
      </trkpt>
      <trkpt lat="45.91582" lon="6.63033">
        <ele>806</ele>
        <time>2021-12-28T13:02:47Z</time>
      </trkpt>
      <trkpt lat="45.91533" lon="6.63052">
        <ele>815</ele>
        <time>2021-12-28T13:02:56Z</time>
      </trkpt>
      <trkpt lat="45.91521" lon="6.63059">
        <ele>817</ele>
        <time>2021-12-28T13:02:58Z</time>
      </trkpt>
      <trkpt lat="45.91509" lon="6.63076">
        <ele>817</ele>
        <time>2021-12-28T13:03:01Z</time>
      </trkpt>
      <trkpt lat="45.91499" lon="6.63094">
        <ele>818</ele>
        <time>2021-12-28T13:03:04Z</time>
      </trkpt>
      <trkpt lat="45.91478" lon="6.63123">
        <ele>820</ele>
        <time>2021-12-28T13:03:09Z</time>
      </trkpt>
      <trkpt lat="45.91468" lon="6.63132">
        <ele>821</ele>
        <time>2021-12-28T13:03:11Z</time>
      </trkpt>
      <trkpt lat="45.91352" lon="6.63171">
        <ele>829</ele>
        <time>2021-12-28T13:03:33Z</time>
      </trkpt>
      <trkpt lat="45.91304" lon="6.6319">
        <ele>830</ele>
        <time>2021-12-28T13:03:41Z</time>
      </trkpt>
      <trkpt lat="45.91293" lon="6.63191">
        <ele>831</ele>
        <time>2021-12-28T13:03:43Z</time>
      </trkpt>
      <trkpt lat="45.91285" lon="6.6319">
        <ele>832</ele>
        <time>2021-12-28T13:03:45Z</time>
      </trkpt>
      <trkpt lat="45.91183" lon="6.63132">
        <ele>843</ele>
        <time>2021-12-28T13:04:04Z</time>
      </trkpt>
      <trkpt lat="45.91171" lon="6.63133">
        <ele>844</ele>
        <time>2021-12-28T13:04:07Z</time>
      </trkpt>
      <trkpt lat="45.91099" lon="6.63173">
        <ele>853</ele>
        <time>2021-12-28T13:04:20Z</time>
      </trkpt>
      <trkpt lat="45.91022" lon="6.63225">
        <ele>863</ele>
        <time>2021-12-28T13:04:35Z</time>
      </trkpt>
      <trkpt lat="45.9099" lon="6.6325">
        <ele>868</ele>
        <time>2021-12-28T13:04:42Z</time>
      </trkpt>
      <trkpt lat="45.9096" lon="6.63262">
        <ele>871</ele>
        <time>2021-12-28T13:04:47Z</time>
      </trkpt>
      <trkpt lat="45.90726" lon="6.63329">
        <ele>901</ele>
        <time>2021-12-28T13:05:30Z</time>
      </trkpt>
      <trkpt lat="45.90707" lon="6.63327">
        <ele>903</ele>
        <time>2021-12-28T13:05:33Z</time>
      </trkpt>
      <trkpt lat="45.90688" lon="6.63321">
        <ele>905</ele>
        <time>2021-12-28T13:05:37Z</time>
      </trkpt>
      <trkpt lat="45.90624" lon="6.63333">
        <ele>907</ele>
        <time>2021-12-28T13:05:48Z</time>
      </trkpt>
      <trkpt lat="45.9058" lon="6.63355">
        <ele>907</ele>
        <time>2021-12-28T13:05:56Z</time>
      </trkpt>
      <trkpt lat="45.90548" lon="6.63375">
        <ele>907</ele>
        <time>2021-12-28T13:06:03Z</time>
      </trkpt>
      <trkpt lat="45.90525" lon="6.6338">
        <ele>908</ele>
        <time>2021-12-28T13:06:07Z</time>
      </trkpt>
      <trkpt lat="45.90511" lon="6.63379">
        <ele>909</ele>
        <time>2021-12-28T13:06:09Z</time>
      </trkpt>
      <trkpt lat="45.90489" lon="6.63369">
        <ele>913</ele>
        <time>2021-12-28T13:06:13Z</time>
      </trkpt>
      <trkpt lat="45.90479" lon="6.63365">
        <ele>915</ele>
        <time>2021-12-28T13:06:15Z</time>
      </trkpt>
      <trkpt lat="45.90472" lon="6.63365">
        <ele>917</ele>
        <time>2021-12-28T13:06:17Z</time>
      </trkpt>
      <trkpt lat="45.90467" lon="6.63368">
        <ele>917</ele>
        <time>2021-12-28T13:06:17Z</time>
      </trkpt>
      <trkpt lat="45.90463" lon="6.63373">
        <ele>917</ele>
        <time>2021-12-28T13:06:18Z</time>
      </trkpt>
      <trkpt lat="45.90453" lon="6.634">
        <ele>916</ele>
        <time>2021-12-28T13:06:22Z</time>
      </trkpt>
      <trkpt lat="45.90437" lon="6.63533">
        <ele>918</ele>
        <time>2021-12-28T13:06:39Z</time>
      </trkpt>
      <trkpt lat="45.90431" lon="6.63558">
        <ele>920</ele>
        <time>2021-12-28T13:06:42Z</time>
      </trkpt>
      <trkpt lat="45.90405" lon="6.63609">
        <ele>924</ele>
        <time>2021-12-28T13:06:50Z</time>
      </trkpt>
      <trkpt lat="45.90387" lon="6.63635">
        <ele>926</ele>
        <time>2021-12-28T13:06:55Z</time>
      </trkpt>
      <trkpt lat="45.90381" lon="6.63645">
        <ele>927</ele>
        <time>2021-12-28T13:06:56Z</time>
      </trkpt>
      <trkpt lat="45.90371" lon="6.6367">
        <ele>927</ele>
        <time>2021-12-28T13:07:00Z</time>
      </trkpt>
      <trkpt lat="45.90361" lon="6.63699">
        <ele>928</ele>
        <time>2021-12-28T13:07:04Z</time>
      </trkpt>
      <trkpt lat="45.9033" lon="6.63756">
        <ele>928</ele>
        <time>2021-12-28T13:07:13Z</time>
      </trkpt>
      <trkpt lat="45.90312" lon="6.63777">
        <ele>927</ele>
        <time>2021-12-28T13:07:17Z</time>
      </trkpt>
      <trkpt lat="45.90297" lon="6.63779">
        <ele>928</ele>
        <time>2021-12-28T13:07:20Z</time>
      </trkpt>
      <trkpt lat="45.90242" lon="6.63767">
        <ele>936</ele>
        <time>2021-12-28T13:07:29Z</time>
      </trkpt>
      <trkpt lat="45.9022" lon="6.63765">
        <ele>939</ele>
        <time>2021-12-28T13:07:33Z</time>
      </trkpt>
      <trkpt lat="45.90187" lon="6.63774">
        <ele>941</ele>
        <time>2021-12-28T13:07:39Z</time>
      </trkpt>
      <trkpt lat="45.9015" lon="6.63791">
        <ele>943</ele>
        <time>2021-12-28T13:07:46Z</time>
      </trkpt>
      <trkpt lat="45.90144" lon="6.63799">
        <ele>942</ele>
        <time>2021-12-28T13:07:48Z</time>
      </trkpt>
      <trkpt lat="45.9014" lon="6.63809">
        <ele>942</ele>
        <time>2021-12-28T13:07:49Z</time>
      </trkpt>
      <trkpt lat="45.90132" lon="6.63799">
        <ele>944</ele>
        <time>2021-12-28T13:07:51Z</time>
      </trkpt>
      <trkpt lat="45.90126" lon="6.63795">
        <ele>944</ele>
        <time>2021-12-28T13:07:52Z</time>
      </trkpt>
      <trkpt lat="45.90066" lon="6.63827">
        <ele>949</ele>
        <time>2021-12-28T13:08:04Z</time>
      </trkpt>
      <trkpt lat="45.90024" lon="6.63846">
        <ele>953</ele>
        <time>2021-12-28T13:08:11Z</time>
      </trkpt>
      <trkpt lat="45.89936" lon="6.63891">
        <ele>958</ele>
        <time>2021-12-28T13:08:28Z</time>
      </trkpt>
      <trkpt lat="45.89921" lon="6.63894">
        <ele>959</ele>
        <time>2021-12-28T13:08:31Z</time>
      </trkpt>
      <trkpt lat="45.89903" lon="6.63892">
        <ele>960</ele>
        <time>2021-12-28T13:08:34Z</time>
      </trkpt>
      <trkpt lat="45.89835" lon="6.63876">
        <ele>968</ele>
        <time>2021-12-28T13:08:46Z</time>
      </trkpt>
      <trkpt lat="45.89827" lon="6.63877">
        <ele>968</ele>
        <time>2021-12-28T13:08:48Z</time>
      </trkpt>
      <trkpt lat="45.89821" lon="6.63881">
        <ele>968</ele>
        <time>2021-12-28T13:08:49Z</time>
      </trkpt>
      <trkpt lat="45.89803" lon="6.63912">
        <ele>967</ele>
        <time>2021-12-28T13:08:54Z</time>
      </trkpt>
      <trkpt lat="45.89782" lon="6.6394">
        <ele>968</ele>
        <time>2021-12-28T13:08:59Z</time>
      </trkpt>
      <trkpt lat="45.89696" lon="6.64014">
        <ele>980</ele>
        <time>2021-12-28T13:09:17Z</time>
      </trkpt>
      <trkpt lat="45.89687" lon="6.64023">
        <ele>981</ele>
        <time>2021-12-28T13:09:19Z</time>
      </trkpt>
      <trkpt lat="45.89662" lon="6.64058">
        <ele>983</ele>
        <time>2021-12-28T13:09:25Z</time>
      </trkpt>
      <trkpt lat="45.89654" lon="6.64065">
        <ele>984</ele>
        <time>2021-12-28T13:09:27Z</time>
      </trkpt>
      <trkpt lat="45.89616" lon="6.64082">
        <ele>989</ele>
        <time>2021-12-28T13:09:34Z</time>
      </trkpt>
      <trkpt lat="45.89593" lon="6.641">
        <ele>992</ele>
        <time>2021-12-28T13:09:38Z</time>
      </trkpt>
      <trkpt lat="45.89557" lon="6.64136">
        <ele>995</ele>
        <time>2021-12-28T13:09:46Z</time>
      </trkpt>
      <trkpt lat="45.89548" lon="6.64149">
        <ele>995</ele>
        <time>2021-12-28T13:09:48Z</time>
      </trkpt>
      <trkpt lat="45.89522" lon="6.64172">
        <ele>996</ele>
        <time>2021-12-28T13:09:54Z</time>
      </trkpt>
      <trkpt lat="45.8951" lon="6.64179">
        <ele>996</ele>
        <time>2021-12-28T13:09:56Z</time>
      </trkpt>
      <trkpt lat="45.89484" lon="6.64183">
        <ele>998</ele>
        <time>2021-12-28T13:10:01Z</time>
      </trkpt>
      <trkpt lat="45.89469" lon="6.64192">
        <ele>998</ele>
        <time>2021-12-28T13:10:04Z</time>
      </trkpt>
      <trkpt lat="45.89449" lon="6.64216">
        <ele>998</ele>
        <time>2021-12-28T13:10:08Z</time>
      </trkpt>
      <trkpt lat="45.89434" lon="6.64228">
        <ele>998</ele>
        <time>2021-12-28T13:10:11Z</time>
      </trkpt>
      <trkpt lat="45.89397" lon="6.64248">
        <ele>1001</ele>
        <time>2021-12-28T13:10:18Z</time>
      </trkpt>
      <trkpt lat="45.8936" lon="6.64274">
        <ele>1005</ele>
        <time>2021-12-28T13:10:26Z</time>
      </trkpt>
      <trkpt lat="45.89342" lon="6.64283">
        <ele>1007</ele>
        <time>2021-12-28T13:10:29Z</time>
      </trkpt>
      <trkpt lat="45.89298" lon="6.64294">
        <ele>1012</ele>
        <time>2021-12-28T13:10:37Z</time>
      </trkpt>
      <trkpt lat="45.8921" lon="6.64327">
        <ele>1017</ele>
        <time>2021-12-28T13:10:53Z</time>
      </trkpt>
      <trkpt lat="45.89071" lon="6.64358">
        <ele>1027</ele>
        <time>2021-12-28T13:11:18Z</time>
      </trkpt>
      <trkpt lat="45.88972" lon="6.64394">
        <ele>1030</ele>
        <time>2021-12-28T13:11:36Z</time>
      </trkpt>
      <trkpt lat="45.8895" lon="6.644">
        <ele>1030</ele>
        <time>2021-12-28T13:11:40Z</time>
      </trkpt>
      <trkpt lat="45.88931" lon="6.64398">
        <ele>1030</ele>
        <time>2021-12-28T13:11:44Z</time>
      </trkpt>
      <trkpt lat="45.88912" lon="6.64393">
        <ele>1031</ele>
        <time>2021-12-28T13:11:47Z</time>
      </trkpt>
      <trkpt lat="45.88874" lon="6.64378">
        <ele>1033</ele>
        <time>2021-12-28T13:11:54Z</time>
      </trkpt>
      <trkpt lat="45.88857" lon="6.64374">
        <ele>1034</ele>
        <time>2021-12-28T13:11:57Z</time>
      </trkpt>
      <trkpt lat="45.88821" lon="6.64371">
        <ele>1034</ele>
        <time>2021-12-28T13:12:04Z</time>
      </trkpt>
      <trkpt lat="45.88714" lon="6.64325">
        <ele>1039</ele>
        <time>2021-12-28T13:12:24Z</time>
      </trkpt>
      <trkpt lat="45.88699" lon="6.64315">
        <ele>1040</ele>
        <time>2021-12-28T13:12:27Z</time>
      </trkpt>
      <trkpt lat="45.88682" lon="6.64293">
        <ele>1042</ele>
        <time>2021-12-28T13:12:31Z</time>
      </trkpt>
      <trkpt lat="45.88672" lon="6.64274">
        <ele>1044</ele>
        <time>2021-12-28T13:12:34Z</time>
      </trkpt>
      <trkpt lat="45.88665" lon="6.64266">
        <ele>1045</ele>
        <time>2021-12-28T13:12:35Z</time>
      </trkpt>
      <trkpt lat="45.88637" lon="6.64243">
        <ele>1047</ele>
        <time>2021-12-28T13:12:41Z</time>
      </trkpt>
      <trkpt lat="45.88606" lon="6.64209">
        <ele>1049</ele>
        <time>2021-12-28T13:12:48Z</time>
      </trkpt>
      <trkpt lat="45.8859" lon="6.64198">
        <ele>1050</ele>
        <time>2021-12-28T13:12:51Z</time>
      </trkpt>
      <trkpt lat="45.88544" lon="6.64171">
        <ele>1053</ele>
        <time>2021-12-28T13:13:00Z</time>
      </trkpt>
      <trkpt lat="45.88525" lon="6.64135">
        <ele>1057</ele>
        <time>2021-12-28T13:13:05Z</time>
      </trkpt>
      <trkpt lat="45.88511" lon="6.64102">
        <ele>1061</ele>
        <time>2021-12-28T13:13:10Z</time>
      </trkpt>
      <trkpt lat="45.88504" lon="6.64091">
        <ele>1062</ele>
        <time>2021-12-28T13:13:12Z</time>
      </trkpt>
      <trkpt lat="45.88496" lon="6.64086">
        <ele>1063</ele>
        <time>2021-12-28T13:13:14Z</time>
      </trkpt>
      <trkpt lat="45.88471" lon="6.64085">
        <ele>1063</ele>
        <time>2021-12-28T13:13:18Z</time>
      </trkpt>
      <trkpt lat="45.88461" lon="6.64083">
        <ele>1064</ele>
        <time>2021-12-28T13:13:20Z</time>
      </trkpt>
      <trkpt lat="45.88398" lon="6.64055">
        <ele>1066</ele>
        <time>2021-12-28T13:13:32Z</time>
      </trkpt>
      <trkpt lat="45.88334" lon="6.64001">
        <ele>1067</ele>
        <time>2021-12-28T13:13:45Z</time>
      </trkpt>
      <trkpt lat="45.88258" lon="6.63923">
        <ele>1072</ele>
        <time>2021-12-28T13:14:01Z</time>
      </trkpt>
      <trkpt lat="45.88197" lon="6.63881">
        <ele>1072</ele>
        <time>2021-12-28T13:14:13Z</time>
      </trkpt>
      <trkpt lat="45.88189" lon="6.63869">
        <ele>1073</ele>
        <time>2021-12-28T13:14:16Z</time>
      </trkpt>
      <trkpt lat="45.8816" lon="6.63814">
        <ele>1076</ele>
        <time>2021-12-28T13:14:24Z</time>
      </trkpt>
      <trkpt lat="45.88116" lon="6.6375">
        <ele>1077</ele>
        <time>2021-12-28T13:14:35Z</time>
      </trkpt>
      <trkpt lat="45.8805" lon="6.63683">
        <ele>1080</ele>
        <time>2021-12-28T13:14:50Z</time>
      </trkpt>
      <trkpt lat="45.88001" lon="6.63638">
        <ele>1080</ele>
        <time>2021-12-28T13:15:00Z</time>
      </trkpt>
      <trkpt lat="45.87727" lon="6.63435">
        <ele>1084</ele>
        <time>2021-12-28T13:15:55Z</time>
      </trkpt>
      <trkpt lat="45.87588" lon="6.63339">
        <ele>1088</ele>
        <time>2021-12-28T13:16:22Z</time>
      </trkpt>
      <trkpt lat="45.87506" lon="6.6332">
        <ele>1087</ele>
        <time>2021-12-28T13:16:37Z</time>
      </trkpt>
      <trkpt lat="45.87491" lon="6.63329">
        <ele>1085</ele>
        <time>2021-12-28T13:16:40Z</time>
      </trkpt>
      <trkpt lat="45.87477" lon="6.63317">
        <ele>1087</ele>
        <time>2021-12-28T13:16:43Z</time>
      </trkpt>
      <trkpt lat="45.87459" lon="6.63306">
        <ele>1088</ele>
        <time>2021-12-28T13:16:46Z</time>
      </trkpt>
      <trkpt lat="45.87326" lon="6.63241">
        <ele>1092</ele>
        <time>2021-12-28T13:17:11Z</time>
      </trkpt>
      <trkpt lat="45.87301" lon="6.63221">
        <ele>1093</ele>
        <time>2021-12-28T13:17:16Z</time>
      </trkpt>
      <trkpt lat="45.87282" lon="6.63198">
        <ele>1094</ele>
        <time>2021-12-28T13:17:21Z</time>
      </trkpt>
      <trkpt lat="45.87243" lon="6.63115">
        <ele>1097</ele>
        <time>2021-12-28T13:17:33Z</time>
      </trkpt>
      <trkpt lat="45.87219" lon="6.63071">
        <ele>1101</ele>
        <time>2021-12-28T13:17:40Z</time>
      </trkpt>
      <trkpt lat="45.87202" lon="6.63052">
        <ele>1104</ele>
        <time>2021-12-28T13:17:44Z</time>
      </trkpt>
      <trkpt lat="45.87158" lon="6.63015">
        <ele>1105</ele>
        <time>2021-12-28T13:17:53Z</time>
      </trkpt>
      <trkpt lat="45.87158" lon="6.6301">
        <ele>1106</ele>
        <time>2021-12-28T13:17:54Z</time>
      </trkpt>
      <trkpt lat="45.87153" lon="6.63003">
        <ele>1106</ele>
        <time>2021-12-28T13:17:55Z</time>
      </trkpt>
      <trkpt lat="45.8715" lon="6.63001">
        <ele>1106</ele>
        <time>2021-12-28T13:17:55Z</time>
      </trkpt>
      <trkpt lat="45.87132" lon="6.62999">
        <ele>1105</ele>
        <time>2021-12-28T13:17:59Z</time>
      </trkpt>
      <trkpt lat="45.87118" lon="6.62992">
        <ele>1105</ele>
        <time>2021-12-28T13:18:01Z</time>
      </trkpt>
      <trkpt lat="45.86352" lon="6.62491">
        <ele>1105</ele>
        <time>2021-12-28T13:20:31Z</time>
      </trkpt>
      <trkpt lat="45.86178" lon="6.62379">
        <ele>1105</ele>
        <time>2021-12-28T13:21:05Z</time>
      </trkpt>
      <trkpt lat="45.86132" lon="6.62341">
        <ele>1104</ele>
        <time>2021-12-28T13:21:14Z</time>
      </trkpt>
      <trkpt lat="45.86109" lon="6.62317">
        <ele>1102</ele>
        <time>2021-12-28T13:21:20Z</time>
      </trkpt>
      <trkpt lat="45.86074" lon="6.62262">
        <ele>1102</ele>
        <time>2021-12-28T13:21:29Z</time>
      </trkpt>
      <trkpt lat="45.85984" lon="6.62096">
        <ele>1100</ele>
        <time>2021-12-28T13:21:55Z</time>
      </trkpt>
      <trkpt lat="45.85976" lon="6.62078">
        <ele>1100</ele>
        <time>2021-12-28T13:21:57Z</time>
      </trkpt>
      <trkpt lat="45.85968" lon="6.6205">
        <ele>1099</ele>
        <time>2021-12-28T13:22:01Z</time>
      </trkpt>
      <trkpt lat="45.85967" lon="6.62032">
        <ele>1098</ele>
        <time>2021-12-28T13:22:03Z</time>
      </trkpt>
      <trkpt lat="45.85968" lon="6.62019">
        <ele>1098</ele>
        <time>2021-12-28T13:22:05Z</time>
      </trkpt>
      <trkpt lat="45.85971" lon="6.62006">
        <ele>1097</ele>
        <time>2021-12-28T13:22:07Z</time>
      </trkpt>
      <trkpt lat="45.85976" lon="6.61993">
        <ele>1097</ele>
        <time>2021-12-28T13:22:09Z</time>
      </trkpt>
      <trkpt lat="45.85975" lon="6.61983">
        <ele>1097</ele>
        <time>2021-12-28T13:22:10Z</time>
      </trkpt>
      <trkpt lat="45.85971" lon="6.61974">
        <ele>1097</ele>
        <time>2021-12-28T13:22:11Z</time>
      </trkpt>
      <trkpt lat="45.85956" lon="6.61959">
        <ele>1097</ele>
        <time>2021-12-28T13:22:14Z</time>
      </trkpt>
      <trkpt lat="45.85945" lon="6.61954">
        <ele>1097</ele>
        <time>2021-12-28T13:22:17Z</time>
      </trkpt>
      <trkpt lat="45.85935" lon="6.6194">
        <ele>1097</ele>
        <time>2021-12-28T13:22:19Z</time>
      </trkpt>
      <trkpt lat="45.85922" lon="6.61914">
        <ele>1098</ele>
        <time>2021-12-28T13:22:23Z</time>
      </trkpt>
      <trkpt lat="45.85904" lon="6.61889">
        <ele>1098</ele>
        <time>2021-12-28T13:22:27Z</time>
      </trkpt>
      <trkpt lat="45.85894" lon="6.61864">
        <ele>1099</ele>
        <time>2021-12-28T13:22:31Z</time>
      </trkpt>
      <trkpt lat="45.8587" lon="6.61808">
        <ele>1100</ele>
        <time>2021-12-28T13:22:39Z</time>
      </trkpt>
      <trkpt lat="45.85836" lon="6.61673">
        <ele>1099</ele>
        <time>2021-12-28T13:22:57Z</time>
      </trkpt>
      <trkpt lat="45.85829" lon="6.61657">
        <ele>1099</ele>
        <time>2021-12-28T13:22:59Z</time>
      </trkpt>
      <trkpt lat="45.85829" lon="6.61615">
        <ele>1097</ele>
        <time>2021-12-28T13:23:04Z</time>
      </trkpt>
      <trkpt lat="45.85827" lon="6.6161">
        <ele>1097</ele>
        <time>2021-12-28T13:23:05Z</time>
      </trkpt>
      <trkpt lat="45.85823" lon="6.61608">
        <ele>1097</ele>
        <time>2021-12-28T13:23:06Z</time>
      </trkpt>
      <trkpt lat="45.85816" lon="6.61599">
        <ele>1097</ele>
        <time>2021-12-28T13:23:08Z</time>
      </trkpt>
      <trkpt lat="45.85814" lon="6.61592">
        <ele>1097</ele>
        <time>2021-12-28T13:23:09Z</time>
      </trkpt>
    </trkseg>
  </trk>
</gpx>